<?xml version="1.0" encoding="UTF-8" standalone="no" ?>
<gpx xmlns="http://www.topografix.com/GPX/1/1" xmlns:xsi="http://www.w3.org/2001/XMLSchema-instance" xsi:schemaLocation="http://www.topografix.com/GPX/1/1 http://www.topografix.com/GPX/1/1/gpx.xsd" version="1.1" creator="VisuGPX - https://www.visugpx.com">
  <metadata>
    <name>Le Saumont </name>
  </metadata>
  <trk>
    <name><![CDATA[2022 09 15 Le Saumont Pierre]]></name>
    <extensions>
      <line xmlns="http://www.topografix.com/GPX/gpx_style/0/2">
        <color>0000FF</color>
        <width>4</width>
      </line>
    </extensions>
    <trkseg>
      <trkpt lat="44.12262" lon="0.45862">
        <ele>77</ele>
        <time>2022-09-15T07:03:36.000Z</time>
      </trkpt>
      <trkpt lat="44.12266" lon="0.4586">
        <ele>83</ele>
        <time>2022-09-15T07:03:37.000Z</time>
      </trkpt>
      <trkpt lat="44.1227" lon="0.45859">
        <ele>85</ele>
        <time>2022-09-15T07:03:38.000Z</time>
      </trkpt>
      <trkpt lat="44.12273" lon="0.45857">
        <ele>86</ele>
        <time>2022-09-15T07:03:39.000Z</time>
      </trkpt>
      <trkpt lat="44.12273" lon="0.45857">
        <ele>85</ele>
        <time>2022-09-15T07:03:40.000Z</time>
      </trkpt>
      <trkpt lat="44.12272" lon="0.45857">
        <ele>85</ele>
        <time>2022-09-15T07:03:41.000Z</time>
      </trkpt>
      <trkpt lat="44.12272" lon="0.45857">
        <ele>84</ele>
        <time>2022-09-15T07:03:42.000Z</time>
      </trkpt>
      <trkpt lat="44.12272" lon="0.45857">
        <ele>85</ele>
        <time>2022-09-15T07:03:43.000Z</time>
      </trkpt>
      <trkpt lat="44.12271" lon="0.45857">
        <ele>86</ele>
        <time>2022-09-15T07:03:44.000Z</time>
      </trkpt>
      <trkpt lat="44.12271" lon="0.45857">
        <ele>87</ele>
        <time>2022-09-15T07:03:45.000Z</time>
      </trkpt>
      <trkpt lat="44.12271" lon="0.45857">
        <ele>87</ele>
        <time>2022-09-15T07:03:46.000Z</time>
      </trkpt>
      <trkpt lat="44.12271" lon="0.45858">
        <ele>88</ele>
        <time>2022-09-15T07:03:47.000Z</time>
      </trkpt>
      <trkpt lat="44.12271" lon="0.45858">
        <ele>89</ele>
        <time>2022-09-15T07:03:48.000Z</time>
      </trkpt>
      <trkpt lat="44.12272" lon="0.45859">
        <ele>90</ele>
        <time>2022-09-15T07:03:49.000Z</time>
      </trkpt>
      <trkpt lat="44.12272" lon="0.45859">
        <ele>89</ele>
        <time>2022-09-15T07:03:50.000Z</time>
      </trkpt>
      <trkpt lat="44.12273" lon="0.45859">
        <ele>89</ele>
        <time>2022-09-15T07:03:51.000Z</time>
      </trkpt>
      <trkpt lat="44.12273" lon="0.45859">
        <ele>90</ele>
        <time>2022-09-15T07:03:52.000Z</time>
      </trkpt>
      <trkpt lat="44.12274" lon="0.4586">
        <ele>90</ele>
        <time>2022-09-15T07:03:53.000Z</time>
      </trkpt>
      <trkpt lat="44.12275" lon="0.4586">
        <ele>90</ele>
        <time>2022-09-15T07:03:54.000Z</time>
      </trkpt>
      <trkpt lat="44.12276" lon="0.45861">
        <ele>90</ele>
        <time>2022-09-15T07:03:55.000Z</time>
      </trkpt>
      <trkpt lat="44.12277" lon="0.45861">
        <ele>91</ele>
        <time>2022-09-15T07:03:56.000Z</time>
      </trkpt>
      <trkpt lat="44.12277" lon="0.45862">
        <ele>91</ele>
        <time>2022-09-15T07:03:57.000Z</time>
      </trkpt>
      <trkpt lat="44.12279" lon="0.45863">
        <ele>92</ele>
        <time>2022-09-15T07:03:58.000Z</time>
      </trkpt>
      <trkpt lat="44.1228" lon="0.45865">
        <ele>92</ele>
        <time>2022-09-15T07:03:59.000Z</time>
      </trkpt>
      <trkpt lat="44.12281" lon="0.45866">
        <ele>92</ele>
        <time>2022-09-15T07:04:00.000Z</time>
      </trkpt>
      <trkpt lat="44.12283" lon="0.45867">
        <ele>92</ele>
        <time>2022-09-15T07:04:01.000Z</time>
      </trkpt>
      <trkpt lat="44.12284" lon="0.45868">
        <ele>92</ele>
        <time>2022-09-15T07:04:02.000Z</time>
      </trkpt>
      <trkpt lat="44.12286" lon="0.4587">
        <ele>92</ele>
        <time>2022-09-15T07:04:03.000Z</time>
      </trkpt>
      <trkpt lat="44.12287" lon="0.45872">
        <ele>91</ele>
        <time>2022-09-15T07:04:04.000Z</time>
      </trkpt>
      <trkpt lat="44.12288" lon="0.45873">
        <ele>91</ele>
        <time>2022-09-15T07:04:05.000Z</time>
      </trkpt>
      <trkpt lat="44.12289" lon="0.45875">
        <ele>91</ele>
        <time>2022-09-15T07:04:06.000Z</time>
      </trkpt>
      <trkpt lat="44.12288" lon="0.45876">
        <ele>89</ele>
        <time>2022-09-15T07:04:07.000Z</time>
      </trkpt>
      <trkpt lat="44.12288" lon="0.45877">
        <ele>89</ele>
        <time>2022-09-15T07:04:08.000Z</time>
      </trkpt>
      <trkpt lat="44.12289" lon="0.45878">
        <ele>88</ele>
        <time>2022-09-15T07:04:09.000Z</time>
      </trkpt>
      <trkpt lat="44.1229" lon="0.45879">
        <ele>88</ele>
        <time>2022-09-15T07:04:10.000Z</time>
      </trkpt>
      <trkpt lat="44.12291" lon="0.45881">
        <ele>88</ele>
        <time>2022-09-15T07:04:11.000Z</time>
      </trkpt>
      <trkpt lat="44.12292" lon="0.45882">
        <ele>88</ele>
        <time>2022-09-15T07:04:12.000Z</time>
      </trkpt>
      <trkpt lat="44.12293" lon="0.45883">
        <ele>88</ele>
        <time>2022-09-15T07:04:13.000Z</time>
      </trkpt>
      <trkpt lat="44.12294" lon="0.45884">
        <ele>88</ele>
        <time>2022-09-15T07:04:14.000Z</time>
      </trkpt>
      <trkpt lat="44.12294" lon="0.45885">
        <ele>89</ele>
        <time>2022-09-15T07:04:15.000Z</time>
      </trkpt>
      <trkpt lat="44.12295" lon="0.45885">
        <ele>89</ele>
        <time>2022-09-15T07:04:16.000Z</time>
      </trkpt>
      <trkpt lat="44.12295" lon="0.45885">
        <ele>88</ele>
        <time>2022-09-15T07:04:17.000Z</time>
      </trkpt>
      <trkpt lat="44.12296" lon="0.45884">
        <ele>88</ele>
        <time>2022-09-15T07:04:18.000Z</time>
      </trkpt>
      <trkpt lat="44.12297" lon="0.45884">
        <ele>87</ele>
        <time>2022-09-15T07:04:19.000Z</time>
      </trkpt>
      <trkpt lat="44.12297" lon="0.45883">
        <ele>85</ele>
        <time>2022-09-15T07:04:20.000Z</time>
      </trkpt>
      <trkpt lat="44.12297" lon="0.45882">
        <ele>83</ele>
        <time>2022-09-15T07:04:21.000Z</time>
      </trkpt>
      <trkpt lat="44.12298" lon="0.4588">
        <ele>84</ele>
        <time>2022-09-15T07:04:22.000Z</time>
      </trkpt>
      <trkpt lat="44.12299" lon="0.45879">
        <ele>83</ele>
        <time>2022-09-15T07:04:23.000Z</time>
      </trkpt>
      <trkpt lat="44.12299" lon="0.45878">
        <ele>82</ele>
        <time>2022-09-15T07:04:24.000Z</time>
      </trkpt>
      <trkpt lat="44.12299" lon="0.45877">
        <ele>82</ele>
        <time>2022-09-15T07:04:25.000Z</time>
      </trkpt>
      <trkpt lat="44.123" lon="0.45877">
        <ele>83</ele>
        <time>2022-09-15T07:04:26.000Z</time>
      </trkpt>
      <trkpt lat="44.123" lon="0.45877">
        <ele>83</ele>
        <time>2022-09-15T07:04:27.000Z</time>
      </trkpt>
      <trkpt lat="44.12301" lon="0.45877">
        <ele>83</ele>
        <time>2022-09-15T07:04:28.000Z</time>
      </trkpt>
      <trkpt lat="44.12301" lon="0.45877">
        <ele>82</ele>
        <time>2022-09-15T07:04:29.000Z</time>
      </trkpt>
      <trkpt lat="44.12302" lon="0.45878">
        <ele>82</ele>
        <time>2022-09-15T07:04:30.000Z</time>
      </trkpt>
      <trkpt lat="44.12303" lon="0.45879">
        <ele>81</ele>
        <time>2022-09-15T07:04:31.000Z</time>
      </trkpt>
      <trkpt lat="44.12304" lon="0.45879">
        <ele>82</ele>
        <time>2022-09-15T07:04:32.000Z</time>
      </trkpt>
      <trkpt lat="44.12304" lon="0.45879">
        <ele>82</ele>
        <time>2022-09-15T07:04:33.000Z</time>
      </trkpt>
      <trkpt lat="44.12305" lon="0.45879">
        <ele>83</ele>
        <time>2022-09-15T07:04:34.000Z</time>
      </trkpt>
      <trkpt lat="44.12305" lon="0.45879">
        <ele>83</ele>
        <time>2022-09-15T07:04:35.000Z</time>
      </trkpt>
      <trkpt lat="44.12305" lon="0.45879">
        <ele>82</ele>
        <time>2022-09-15T07:04:36.000Z</time>
      </trkpt>
      <trkpt lat="44.12306" lon="0.45878">
        <ele>82</ele>
        <time>2022-09-15T07:04:37.000Z</time>
      </trkpt>
      <trkpt lat="44.12306" lon="0.45878">
        <ele>82</ele>
        <time>2022-09-15T07:04:38.000Z</time>
      </trkpt>
      <trkpt lat="44.12307" lon="0.45878">
        <ele>83</ele>
        <time>2022-09-15T07:04:39.000Z</time>
      </trkpt>
      <trkpt lat="44.12307" lon="0.45878">
        <ele>83</ele>
        <time>2022-09-15T07:04:40.000Z</time>
      </trkpt>
      <trkpt lat="44.12308" lon="0.45878">
        <ele>84</ele>
        <time>2022-09-15T07:04:41.000Z</time>
      </trkpt>
      <trkpt lat="44.12308" lon="0.45878">
        <ele>85</ele>
        <time>2022-09-15T07:04:42.000Z</time>
      </trkpt>
      <trkpt lat="44.12309" lon="0.45879">
        <ele>85</ele>
        <time>2022-09-15T07:04:43.000Z</time>
      </trkpt>
      <trkpt lat="44.12309" lon="0.45879">
        <ele>86</ele>
        <time>2022-09-15T07:04:44.000Z</time>
      </trkpt>
      <trkpt lat="44.1231" lon="0.45879">
        <ele>86</ele>
        <time>2022-09-15T07:04:45.000Z</time>
      </trkpt>
      <trkpt lat="44.12311" lon="0.45878">
        <ele>85</ele>
        <time>2022-09-15T07:04:46.000Z</time>
      </trkpt>
      <trkpt lat="44.12312" lon="0.45878">
        <ele>85</ele>
        <time>2022-09-15T07:04:47.000Z</time>
      </trkpt>
      <trkpt lat="44.12313" lon="0.45877">
        <ele>87</ele>
        <time>2022-09-15T07:04:48.000Z</time>
      </trkpt>
      <trkpt lat="44.12314" lon="0.45876">
        <ele>87</ele>
        <time>2022-09-15T07:04:49.000Z</time>
      </trkpt>
      <trkpt lat="44.12315" lon="0.45876">
        <ele>87</ele>
        <time>2022-09-15T07:04:50.000Z</time>
      </trkpt>
      <trkpt lat="44.12316" lon="0.45876">
        <ele>88</ele>
        <time>2022-09-15T07:04:51.000Z</time>
      </trkpt>
      <trkpt lat="44.12318" lon="0.45876">
        <ele>88</ele>
        <time>2022-09-15T07:04:52.000Z</time>
      </trkpt>
      <trkpt lat="44.12319" lon="0.45876">
        <ele>89</ele>
        <time>2022-09-15T07:04:53.000Z</time>
      </trkpt>
      <trkpt lat="44.1232" lon="0.45875">
        <ele>90</ele>
        <time>2022-09-15T07:04:54.000Z</time>
      </trkpt>
      <trkpt lat="44.12321" lon="0.45874">
        <ele>90</ele>
        <time>2022-09-15T07:04:55.000Z</time>
      </trkpt>
      <trkpt lat="44.12323" lon="0.45873">
        <ele>91</ele>
        <time>2022-09-15T07:04:56.000Z</time>
      </trkpt>
      <trkpt lat="44.12324" lon="0.45871">
        <ele>93</ele>
        <time>2022-09-15T07:04:57.000Z</time>
      </trkpt>
      <trkpt lat="44.12326" lon="0.45869">
        <ele>94</ele>
        <time>2022-09-15T07:04:58.000Z</time>
      </trkpt>
      <trkpt lat="44.12328" lon="0.45867">
        <ele>95</ele>
        <time>2022-09-15T07:04:59.000Z</time>
      </trkpt>
      <trkpt lat="44.12329" lon="0.45866">
        <ele>97</ele>
        <time>2022-09-15T07:05:00.000Z</time>
      </trkpt>
      <trkpt lat="44.12331" lon="0.45864">
        <ele>98</ele>
        <time>2022-09-15T07:05:01.000Z</time>
      </trkpt>
      <trkpt lat="44.12332" lon="0.45863">
        <ele>98</ele>
        <time>2022-09-15T07:05:02.000Z</time>
      </trkpt>
      <trkpt lat="44.12333" lon="0.45861">
        <ele>99</ele>
        <time>2022-09-15T07:05:03.000Z</time>
      </trkpt>
      <trkpt lat="44.12334" lon="0.4586">
        <ele>99</ele>
        <time>2022-09-15T07:05:04.000Z</time>
      </trkpt>
      <trkpt lat="44.12335" lon="0.45858">
        <ele>99</ele>
        <time>2022-09-15T07:05:05.000Z</time>
      </trkpt>
      <trkpt lat="44.12336" lon="0.45856">
        <ele>101</ele>
        <time>2022-09-15T07:05:06.000Z</time>
      </trkpt>
      <trkpt lat="44.12336" lon="0.45854">
        <ele>102</ele>
        <time>2022-09-15T07:05:07.000Z</time>
      </trkpt>
      <trkpt lat="44.12338" lon="0.45853">
        <ele>103</ele>
        <time>2022-09-15T07:05:08.000Z</time>
      </trkpt>
      <trkpt lat="44.1234" lon="0.45852">
        <ele>104</ele>
        <time>2022-09-15T07:05:09.000Z</time>
      </trkpt>
      <trkpt lat="44.12342" lon="0.45851">
        <ele>105</ele>
        <time>2022-09-15T07:05:10.000Z</time>
      </trkpt>
      <trkpt lat="44.12344" lon="0.4585">
        <ele>107</ele>
        <time>2022-09-15T07:05:11.000Z</time>
      </trkpt>
      <trkpt lat="44.12345" lon="0.45848">
        <ele>108</ele>
        <time>2022-09-15T07:05:12.000Z</time>
      </trkpt>
      <trkpt lat="44.12347" lon="0.45847">
        <ele>109</ele>
        <time>2022-09-15T07:05:13.000Z</time>
      </trkpt>
      <trkpt lat="44.12348" lon="0.45846">
        <ele>109</ele>
        <time>2022-09-15T07:05:14.000Z</time>
      </trkpt>
      <trkpt lat="44.1235" lon="0.45845">
        <ele>111</ele>
        <time>2022-09-15T07:05:15.000Z</time>
      </trkpt>
      <trkpt lat="44.12352" lon="0.45844">
        <ele>112</ele>
        <time>2022-09-15T07:05:16.000Z</time>
      </trkpt>
      <trkpt lat="44.12353" lon="0.45843">
        <ele>112</ele>
        <time>2022-09-15T07:05:17.000Z</time>
      </trkpt>
      <trkpt lat="44.12354" lon="0.45842">
        <ele>113</ele>
        <time>2022-09-15T07:05:18.000Z</time>
      </trkpt>
      <trkpt lat="44.12355" lon="0.45841">
        <ele>113</ele>
        <time>2022-09-15T07:05:19.000Z</time>
      </trkpt>
      <trkpt lat="44.12356" lon="0.4584">
        <ele>113</ele>
        <time>2022-09-15T07:05:20.000Z</time>
      </trkpt>
      <trkpt lat="44.12357" lon="0.45838">
        <ele>113</ele>
        <time>2022-09-15T07:05:21.000Z</time>
      </trkpt>
      <trkpt lat="44.12358" lon="0.45837">
        <ele>113</ele>
        <time>2022-09-15T07:05:22.000Z</time>
      </trkpt>
      <trkpt lat="44.12359" lon="0.45836">
        <ele>113</ele>
        <time>2022-09-15T07:05:23.000Z</time>
      </trkpt>
      <trkpt lat="44.1236" lon="0.45835">
        <ele>113</ele>
        <time>2022-09-15T07:05:24.000Z</time>
      </trkpt>
      <trkpt lat="44.12361" lon="0.45834">
        <ele>113</ele>
        <time>2022-09-15T07:05:25.000Z</time>
      </trkpt>
      <trkpt lat="44.12362" lon="0.45833">
        <ele>113</ele>
        <time>2022-09-15T07:05:26.000Z</time>
      </trkpt>
      <trkpt lat="44.12363" lon="0.45832">
        <ele>113</ele>
        <time>2022-09-15T07:05:27.000Z</time>
      </trkpt>
      <trkpt lat="44.12363" lon="0.45831">
        <ele>113</ele>
        <time>2022-09-15T07:05:28.000Z</time>
      </trkpt>
      <trkpt lat="44.12364" lon="0.45829">
        <ele>113</ele>
        <time>2022-09-15T07:05:29.000Z</time>
      </trkpt>
      <trkpt lat="44.12365" lon="0.45828">
        <ele>113</ele>
        <time>2022-09-15T07:05:30.000Z</time>
      </trkpt>
      <trkpt lat="44.12365" lon="0.45826">
        <ele>112</ele>
        <time>2022-09-15T07:05:31.000Z</time>
      </trkpt>
      <trkpt lat="44.12365" lon="0.45823">
        <ele>111</ele>
        <time>2022-09-15T07:05:32.000Z</time>
      </trkpt>
      <trkpt lat="44.12365" lon="0.45821">
        <ele>110</ele>
        <time>2022-09-15T07:05:33.000Z</time>
      </trkpt>
      <trkpt lat="44.12364" lon="0.45818">
        <ele>109</ele>
        <time>2022-09-15T07:05:34.000Z</time>
      </trkpt>
      <trkpt lat="44.12364" lon="0.45816">
        <ele>109</ele>
        <time>2022-09-15T07:05:35.000Z</time>
      </trkpt>
      <trkpt lat="44.12364" lon="0.45814">
        <ele>109</ele>
        <time>2022-09-15T07:05:36.000Z</time>
      </trkpt>
      <trkpt lat="44.12363" lon="0.45812">
        <ele>107</ele>
        <time>2022-09-15T07:05:37.000Z</time>
      </trkpt>
      <trkpt lat="44.12362" lon="0.4581">
        <ele>105</ele>
        <time>2022-09-15T07:05:38.000Z</time>
      </trkpt>
      <trkpt lat="44.12362" lon="0.45809">
        <ele>104</ele>
        <time>2022-09-15T07:05:39.000Z</time>
      </trkpt>
      <trkpt lat="44.12361" lon="0.45807">
        <ele>102</ele>
        <time>2022-09-15T07:05:40.000Z</time>
      </trkpt>
      <trkpt lat="44.1236" lon="0.45806">
        <ele>100</ele>
        <time>2022-09-15T07:05:41.000Z</time>
      </trkpt>
      <trkpt lat="44.12359" lon="0.45804">
        <ele>98</ele>
        <time>2022-09-15T07:05:42.000Z</time>
      </trkpt>
      <trkpt lat="44.12359" lon="0.45803">
        <ele>98</ele>
        <time>2022-09-15T07:05:43.000Z</time>
      </trkpt>
      <trkpt lat="44.12359" lon="0.45803">
        <ele>97</ele>
        <time>2022-09-15T07:05:44.000Z</time>
      </trkpt>
      <trkpt lat="44.1236" lon="0.45803">
        <ele>97</ele>
        <time>2022-09-15T07:05:45.000Z</time>
      </trkpt>
      <trkpt lat="44.12361" lon="0.45802">
        <ele>97</ele>
        <time>2022-09-15T07:05:46.000Z</time>
      </trkpt>
      <trkpt lat="44.12361" lon="0.45802">
        <ele>96</ele>
        <time>2022-09-15T07:05:47.000Z</time>
      </trkpt>
      <trkpt lat="44.12362" lon="0.45801">
        <ele>96</ele>
        <time>2022-09-15T07:05:48.000Z</time>
      </trkpt>
      <trkpt lat="44.12363" lon="0.45801">
        <ele>96</ele>
        <time>2022-09-15T07:05:49.000Z</time>
      </trkpt>
      <trkpt lat="44.12363" lon="0.45801">
        <ele>95</ele>
        <time>2022-09-15T07:05:50.000Z</time>
      </trkpt>
      <trkpt lat="44.12364" lon="0.45801">
        <ele>94</ele>
        <time>2022-09-15T07:05:51.000Z</time>
      </trkpt>
      <trkpt lat="44.12364" lon="0.458">
        <ele>94</ele>
        <time>2022-09-15T07:05:52.000Z</time>
      </trkpt>
      <trkpt lat="44.12364" lon="0.458">
        <ele>93</ele>
        <time>2022-09-15T07:05:53.000Z</time>
      </trkpt>
      <trkpt lat="44.12365" lon="0.458">
        <ele>94</ele>
        <time>2022-09-15T07:05:54.000Z</time>
      </trkpt>
      <trkpt lat="44.12367" lon="0.45801">
        <ele>94</ele>
        <time>2022-09-15T07:05:55.000Z</time>
      </trkpt>
      <trkpt lat="44.12368" lon="0.45801">
        <ele>94</ele>
        <time>2022-09-15T07:05:56.000Z</time>
      </trkpt>
      <trkpt lat="44.12369" lon="0.45801">
        <ele>93</ele>
        <time>2022-09-15T07:05:57.000Z</time>
      </trkpt>
      <trkpt lat="44.12369" lon="0.458">
        <ele>92</ele>
        <time>2022-09-15T07:05:58.000Z</time>
      </trkpt>
      <trkpt lat="44.1237" lon="0.458">
        <ele>92</ele>
        <time>2022-09-15T07:05:59.000Z</time>
      </trkpt>
      <trkpt lat="44.1237" lon="0.458">
        <ele>92</ele>
        <time>2022-09-15T07:06:00.000Z</time>
      </trkpt>
      <trkpt lat="44.12371" lon="0.458">
        <ele>91</ele>
        <time>2022-09-15T07:06:01.000Z</time>
      </trkpt>
      <trkpt lat="44.12372" lon="0.458">
        <ele>92</ele>
        <time>2022-09-15T07:06:02.000Z</time>
      </trkpt>
      <trkpt lat="44.12373" lon="0.458">
        <ele>92</ele>
        <time>2022-09-15T07:06:03.000Z</time>
      </trkpt>
      <trkpt lat="44.12374" lon="0.45799">
        <ele>93</ele>
        <time>2022-09-15T07:06:04.000Z</time>
      </trkpt>
      <trkpt lat="44.12375" lon="0.45799">
        <ele>94</ele>
        <time>2022-09-15T07:06:05.000Z</time>
      </trkpt>
      <trkpt lat="44.12375" lon="0.45799">
        <ele>94</ele>
        <time>2022-09-15T07:06:06.000Z</time>
      </trkpt>
      <trkpt lat="44.12376" lon="0.45799">
        <ele>95</ele>
        <time>2022-09-15T07:06:07.000Z</time>
      </trkpt>
      <trkpt lat="44.12377" lon="0.45799">
        <ele>97</ele>
        <time>2022-09-15T07:06:08.000Z</time>
      </trkpt>
      <trkpt lat="44.12379" lon="0.45798">
        <ele>96</ele>
        <time>2022-09-15T07:06:09.000Z</time>
      </trkpt>
      <trkpt lat="44.1238" lon="0.45797">
        <ele>96</ele>
        <time>2022-09-15T07:06:10.000Z</time>
      </trkpt>
      <trkpt lat="44.12381" lon="0.45797">
        <ele>96</ele>
        <time>2022-09-15T07:06:11.000Z</time>
      </trkpt>
      <trkpt lat="44.12381" lon="0.45796">
        <ele>95</ele>
        <time>2022-09-15T07:06:12.000Z</time>
      </trkpt>
      <trkpt lat="44.12382" lon="0.45796">
        <ele>96</ele>
        <time>2022-09-15T07:06:13.000Z</time>
      </trkpt>
      <trkpt lat="44.12382" lon="0.45795">
        <ele>96</ele>
        <time>2022-09-15T07:06:14.000Z</time>
      </trkpt>
      <trkpt lat="44.12383" lon="0.45794">
        <ele>95</ele>
        <time>2022-09-15T07:06:15.000Z</time>
      </trkpt>
      <trkpt lat="44.12383" lon="0.45793">
        <ele>95</ele>
        <time>2022-09-15T07:06:16.000Z</time>
      </trkpt>
      <trkpt lat="44.12383" lon="0.45792">
        <ele>94</ele>
        <time>2022-09-15T07:06:17.000Z</time>
      </trkpt>
      <trkpt lat="44.12384" lon="0.45791">
        <ele>94</ele>
        <time>2022-09-15T07:06:18.000Z</time>
      </trkpt>
      <trkpt lat="44.12384" lon="0.4579">
        <ele>94</ele>
        <time>2022-09-15T07:06:19.000Z</time>
      </trkpt>
      <trkpt lat="44.12385" lon="0.45789">
        <ele>94</ele>
        <time>2022-09-15T07:06:20.000Z</time>
      </trkpt>
      <trkpt lat="44.12386" lon="0.45789">
        <ele>94</ele>
        <time>2022-09-15T07:06:21.000Z</time>
      </trkpt>
      <trkpt lat="44.12387" lon="0.45788">
        <ele>94</ele>
        <time>2022-09-15T07:06:22.000Z</time>
      </trkpt>
      <trkpt lat="44.12388" lon="0.45788">
        <ele>94</ele>
        <time>2022-09-15T07:06:23.000Z</time>
      </trkpt>
      <trkpt lat="44.12388" lon="0.45787">
        <ele>94</ele>
        <time>2022-09-15T07:06:24.000Z</time>
      </trkpt>
      <trkpt lat="44.12389" lon="0.45787">
        <ele>93</ele>
        <time>2022-09-15T07:06:25.000Z</time>
      </trkpt>
      <trkpt lat="44.1239" lon="0.45787">
        <ele>92</ele>
        <time>2022-09-15T07:06:26.000Z</time>
      </trkpt>
      <trkpt lat="44.12391" lon="0.45787">
        <ele>92</ele>
        <time>2022-09-15T07:06:27.000Z</time>
      </trkpt>
      <trkpt lat="44.12391" lon="0.45786">
        <ele>92</ele>
        <time>2022-09-15T07:06:28.000Z</time>
      </trkpt>
      <trkpt lat="44.12392" lon="0.45785">
        <ele>92</ele>
        <time>2022-09-15T07:06:29.000Z</time>
      </trkpt>
      <trkpt lat="44.12393" lon="0.45785">
        <ele>93</ele>
        <time>2022-09-15T07:06:30.000Z</time>
      </trkpt>
      <trkpt lat="44.12394" lon="0.45784">
        <ele>93</ele>
        <time>2022-09-15T07:06:31.000Z</time>
      </trkpt>
      <trkpt lat="44.12394" lon="0.45784">
        <ele>93</ele>
        <time>2022-09-15T07:06:32.000Z</time>
      </trkpt>
      <trkpt lat="44.12394" lon="0.45784">
        <ele>95</ele>
        <time>2022-09-15T07:06:33.000Z</time>
      </trkpt>
      <trkpt lat="44.12394" lon="0.45784">
        <ele>96</ele>
        <time>2022-09-15T07:06:34.000Z</time>
      </trkpt>
      <trkpt lat="44.12394" lon="0.45784">
        <ele>97</ele>
        <time>2022-09-15T07:06:35.000Z</time>
      </trkpt>
      <trkpt lat="44.12393" lon="0.45784">
        <ele>102</ele>
        <time>2022-09-15T07:06:36.000Z</time>
      </trkpt>
      <trkpt lat="44.12392" lon="0.45784">
        <ele>105</ele>
        <time>2022-09-15T07:06:37.000Z</time>
      </trkpt>
      <trkpt lat="44.12391" lon="0.45784">
        <ele>106</ele>
        <time>2022-09-15T07:06:38.000Z</time>
      </trkpt>
      <trkpt lat="44.12391" lon="0.45783">
        <ele>107</ele>
        <time>2022-09-15T07:06:39.000Z</time>
      </trkpt>
      <trkpt lat="44.12391" lon="0.45783">
        <ele>108</ele>
        <time>2022-09-15T07:06:40.000Z</time>
      </trkpt>
      <trkpt lat="44.12392" lon="0.45783">
        <ele>108</ele>
        <time>2022-09-15T07:06:41.000Z</time>
      </trkpt>
      <trkpt lat="44.12393" lon="0.45783">
        <ele>109</ele>
        <time>2022-09-15T07:06:42.000Z</time>
      </trkpt>
      <trkpt lat="44.12393" lon="0.45783">
        <ele>109</ele>
        <time>2022-09-15T07:06:43.000Z</time>
      </trkpt>
      <trkpt lat="44.12394" lon="0.45782">
        <ele>109</ele>
        <time>2022-09-15T07:06:44.000Z</time>
      </trkpt>
      <trkpt lat="44.12395" lon="0.45782">
        <ele>109</ele>
        <time>2022-09-15T07:06:45.000Z</time>
      </trkpt>
      <trkpt lat="44.12396" lon="0.45781">
        <ele>109</ele>
        <time>2022-09-15T07:06:46.000Z</time>
      </trkpt>
      <trkpt lat="44.12397" lon="0.4578">
        <ele>110</ele>
        <time>2022-09-15T07:06:47.000Z</time>
      </trkpt>
      <trkpt lat="44.12398" lon="0.4578">
        <ele>110</ele>
        <time>2022-09-15T07:06:48.000Z</time>
      </trkpt>
      <trkpt lat="44.12399" lon="0.45779">
        <ele>110</ele>
        <time>2022-09-15T07:06:49.000Z</time>
      </trkpt>
      <trkpt lat="44.12401" lon="0.45778">
        <ele>111</ele>
        <time>2022-09-15T07:06:50.000Z</time>
      </trkpt>
      <trkpt lat="44.12402" lon="0.45777">
        <ele>112</ele>
        <time>2022-09-15T07:06:51.000Z</time>
      </trkpt>
      <trkpt lat="44.12404" lon="0.45775">
        <ele>112</ele>
        <time>2022-09-15T07:06:52.000Z</time>
      </trkpt>
      <trkpt lat="44.12405" lon="0.45774">
        <ele>112</ele>
        <time>2022-09-15T07:06:53.000Z</time>
      </trkpt>
      <trkpt lat="44.12406" lon="0.45774">
        <ele>113</ele>
        <time>2022-09-15T07:06:54.000Z</time>
      </trkpt>
      <trkpt lat="44.12407" lon="0.45773">
        <ele>113</ele>
        <time>2022-09-15T07:06:55.000Z</time>
      </trkpt>
      <trkpt lat="44.12408" lon="0.45772">
        <ele>113</ele>
        <time>2022-09-15T07:06:56.000Z</time>
      </trkpt>
      <trkpt lat="44.1241" lon="0.45772">
        <ele>113</ele>
        <time>2022-09-15T07:06:57.000Z</time>
      </trkpt>
      <trkpt lat="44.12411" lon="0.45771">
        <ele>112</ele>
        <time>2022-09-15T07:06:58.000Z</time>
      </trkpt>
      <trkpt lat="44.12411" lon="0.45771">
        <ele>113</ele>
        <time>2022-09-15T07:06:59.000Z</time>
      </trkpt>
      <trkpt lat="44.12412" lon="0.4577">
        <ele>113</ele>
        <time>2022-09-15T07:07:00.000Z</time>
      </trkpt>
      <trkpt lat="44.12413" lon="0.4577">
        <ele>113</ele>
        <time>2022-09-15T07:07:01.000Z</time>
      </trkpt>
      <trkpt lat="44.12415" lon="0.45769">
        <ele>112</ele>
        <time>2022-09-15T07:07:02.000Z</time>
      </trkpt>
      <trkpt lat="44.12416" lon="0.45769">
        <ele>112</ele>
        <time>2022-09-15T07:07:03.000Z</time>
      </trkpt>
      <trkpt lat="44.12417" lon="0.45768">
        <ele>112</ele>
        <time>2022-09-15T07:07:04.000Z</time>
      </trkpt>
      <trkpt lat="44.12418" lon="0.45768">
        <ele>113</ele>
        <time>2022-09-15T07:07:05.000Z</time>
      </trkpt>
      <trkpt lat="44.12419" lon="0.45767">
        <ele>112</ele>
        <time>2022-09-15T07:07:06.000Z</time>
      </trkpt>
      <trkpt lat="44.1242" lon="0.45767">
        <ele>112</ele>
        <time>2022-09-15T07:07:07.000Z</time>
      </trkpt>
      <trkpt lat="44.1242" lon="0.45766">
        <ele>111</ele>
        <time>2022-09-15T07:07:08.000Z</time>
      </trkpt>
      <trkpt lat="44.12421" lon="0.45766">
        <ele>111</ele>
        <time>2022-09-15T07:07:09.000Z</time>
      </trkpt>
      <trkpt lat="44.12422" lon="0.45765">
        <ele>111</ele>
        <time>2022-09-15T07:07:10.000Z</time>
      </trkpt>
      <trkpt lat="44.12424" lon="0.45765">
        <ele>111</ele>
        <time>2022-09-15T07:07:11.000Z</time>
      </trkpt>
      <trkpt lat="44.12425" lon="0.45765">
        <ele>111</ele>
        <time>2022-09-15T07:07:12.000Z</time>
      </trkpt>
      <trkpt lat="44.12426" lon="0.45764">
        <ele>111</ele>
        <time>2022-09-15T07:07:13.000Z</time>
      </trkpt>
      <trkpt lat="44.12427" lon="0.45763">
        <ele>111</ele>
        <time>2022-09-15T07:07:14.000Z</time>
      </trkpt>
      <trkpt lat="44.12428" lon="0.45763">
        <ele>110</ele>
        <time>2022-09-15T07:07:15.000Z</time>
      </trkpt>
      <trkpt lat="44.12429" lon="0.45762">
        <ele>111</ele>
        <time>2022-09-15T07:07:16.000Z</time>
      </trkpt>
      <trkpt lat="44.1243" lon="0.45762">
        <ele>111</ele>
        <time>2022-09-15T07:07:17.000Z</time>
      </trkpt>
      <trkpt lat="44.12432" lon="0.45761">
        <ele>111</ele>
        <time>2022-09-15T07:07:18.000Z</time>
      </trkpt>
      <trkpt lat="44.12433" lon="0.45761">
        <ele>110</ele>
        <time>2022-09-15T07:07:19.000Z</time>
      </trkpt>
      <trkpt lat="44.12434" lon="0.4576">
        <ele>110</ele>
        <time>2022-09-15T07:07:20.000Z</time>
      </trkpt>
      <trkpt lat="44.12435" lon="0.4576">
        <ele>110</ele>
        <time>2022-09-15T07:07:21.000Z</time>
      </trkpt>
      <trkpt lat="44.12436" lon="0.4576">
        <ele>110</ele>
        <time>2022-09-15T07:07:22.000Z</time>
      </trkpt>
      <trkpt lat="44.12437" lon="0.45759">
        <ele>110</ele>
        <time>2022-09-15T07:07:23.000Z</time>
      </trkpt>
      <trkpt lat="44.12438" lon="0.45759">
        <ele>110</ele>
        <time>2022-09-15T07:07:24.000Z</time>
      </trkpt>
      <trkpt lat="44.12439" lon="0.45759">
        <ele>110</ele>
        <time>2022-09-15T07:07:25.000Z</time>
      </trkpt>
      <trkpt lat="44.12441" lon="0.45758">
        <ele>110</ele>
        <time>2022-09-15T07:07:26.000Z</time>
      </trkpt>
      <trkpt lat="44.12442" lon="0.45758">
        <ele>110</ele>
        <time>2022-09-15T07:07:27.000Z</time>
      </trkpt>
      <trkpt lat="44.12443" lon="0.45757">
        <ele>110</ele>
        <time>2022-09-15T07:07:28.000Z</time>
      </trkpt>
      <trkpt lat="44.12445" lon="0.45757">
        <ele>111</ele>
        <time>2022-09-15T07:07:29.000Z</time>
      </trkpt>
      <trkpt lat="44.12446" lon="0.45756">
        <ele>111</ele>
        <time>2022-09-15T07:07:30.000Z</time>
      </trkpt>
      <trkpt lat="44.12447" lon="0.45755">
        <ele>112</ele>
        <time>2022-09-15T07:07:31.000Z</time>
      </trkpt>
      <trkpt lat="44.12449" lon="0.45755">
        <ele>112</ele>
        <time>2022-09-15T07:07:32.000Z</time>
      </trkpt>
      <trkpt lat="44.1245" lon="0.45754">
        <ele>112</ele>
        <time>2022-09-15T07:07:33.000Z</time>
      </trkpt>
      <trkpt lat="44.12452" lon="0.45754">
        <ele>113</ele>
        <time>2022-09-15T07:07:34.000Z</time>
      </trkpt>
      <trkpt lat="44.12453" lon="0.45753">
        <ele>113</ele>
        <time>2022-09-15T07:07:35.000Z</time>
      </trkpt>
      <trkpt lat="44.12455" lon="0.45752">
        <ele>113</ele>
        <time>2022-09-15T07:07:36.000Z</time>
      </trkpt>
      <trkpt lat="44.12456" lon="0.45752">
        <ele>114</ele>
        <time>2022-09-15T07:07:37.000Z</time>
      </trkpt>
      <trkpt lat="44.12458" lon="0.45751">
        <ele>115</ele>
        <time>2022-09-15T07:07:38.000Z</time>
      </trkpt>
      <trkpt lat="44.12459" lon="0.4575">
        <ele>115</ele>
        <time>2022-09-15T07:07:39.000Z</time>
      </trkpt>
      <trkpt lat="44.12461" lon="0.4575">
        <ele>115</ele>
        <time>2022-09-15T07:07:40.000Z</time>
      </trkpt>
      <trkpt lat="44.12462" lon="0.45749">
        <ele>115</ele>
        <time>2022-09-15T07:07:41.000Z</time>
      </trkpt>
      <trkpt lat="44.12463" lon="0.45749">
        <ele>116</ele>
        <time>2022-09-15T07:07:42.000Z</time>
      </trkpt>
      <trkpt lat="44.12465" lon="0.45748">
        <ele>116</ele>
        <time>2022-09-15T07:07:43.000Z</time>
      </trkpt>
      <trkpt lat="44.12466" lon="0.45748">
        <ele>116</ele>
        <time>2022-09-15T07:07:44.000Z</time>
      </trkpt>
      <trkpt lat="44.12467" lon="0.45747">
        <ele>117</ele>
        <time>2022-09-15T07:07:45.000Z</time>
      </trkpt>
      <trkpt lat="44.12469" lon="0.45747">
        <ele>117</ele>
        <time>2022-09-15T07:07:46.000Z</time>
      </trkpt>
      <trkpt lat="44.1247" lon="0.45747">
        <ele>118</ele>
        <time>2022-09-15T07:07:47.000Z</time>
      </trkpt>
      <trkpt lat="44.12471" lon="0.45747">
        <ele>118</ele>
        <time>2022-09-15T07:07:48.000Z</time>
      </trkpt>
      <trkpt lat="44.12472" lon="0.45747">
        <ele>118</ele>
        <time>2022-09-15T07:07:49.000Z</time>
      </trkpt>
      <trkpt lat="44.12474" lon="0.45747">
        <ele>118</ele>
        <time>2022-09-15T07:07:50.000Z</time>
      </trkpt>
      <trkpt lat="44.12474" lon="0.45746">
        <ele>118</ele>
        <time>2022-09-15T07:07:51.000Z</time>
      </trkpt>
      <trkpt lat="44.12475" lon="0.45747">
        <ele>118</ele>
        <time>2022-09-15T07:07:52.000Z</time>
      </trkpt>
      <trkpt lat="44.12476" lon="0.45747">
        <ele>118</ele>
        <time>2022-09-15T07:07:53.000Z</time>
      </trkpt>
      <trkpt lat="44.12477" lon="0.45747">
        <ele>118</ele>
        <time>2022-09-15T07:07:54.000Z</time>
      </trkpt>
      <trkpt lat="44.12478" lon="0.45746">
        <ele>119</ele>
        <time>2022-09-15T07:07:55.000Z</time>
      </trkpt>
      <trkpt lat="44.1248" lon="0.45745">
        <ele>118</ele>
        <time>2022-09-15T07:07:56.000Z</time>
      </trkpt>
      <trkpt lat="44.12481" lon="0.45744">
        <ele>118</ele>
        <time>2022-09-15T07:07:57.000Z</time>
      </trkpt>
      <trkpt lat="44.12482" lon="0.45744">
        <ele>119</ele>
        <time>2022-09-15T07:07:58.000Z</time>
      </trkpt>
      <trkpt lat="44.12484" lon="0.45744">
        <ele>119</ele>
        <time>2022-09-15T07:07:59.000Z</time>
      </trkpt>
      <trkpt lat="44.12485" lon="0.45744">
        <ele>119</ele>
        <time>2022-09-15T07:08:00.000Z</time>
      </trkpt>
      <trkpt lat="44.12486" lon="0.45743">
        <ele>120</ele>
        <time>2022-09-15T07:08:01.000Z</time>
      </trkpt>
      <trkpt lat="44.12488" lon="0.45743">
        <ele>120</ele>
        <time>2022-09-15T07:08:02.000Z</time>
      </trkpt>
      <trkpt lat="44.12489" lon="0.45742">
        <ele>120</ele>
        <time>2022-09-15T07:08:03.000Z</time>
      </trkpt>
      <trkpt lat="44.1249" lon="0.45741">
        <ele>121</ele>
        <time>2022-09-15T07:08:04.000Z</time>
      </trkpt>
      <trkpt lat="44.12491" lon="0.45741">
        <ele>121</ele>
        <time>2022-09-15T07:08:05.000Z</time>
      </trkpt>
      <trkpt lat="44.12493" lon="0.4574">
        <ele>121</ele>
        <time>2022-09-15T07:08:06.000Z</time>
      </trkpt>
      <trkpt lat="44.12494" lon="0.4574">
        <ele>122</ele>
        <time>2022-09-15T07:08:07.000Z</time>
      </trkpt>
      <trkpt lat="44.12495" lon="0.45739">
        <ele>122</ele>
        <time>2022-09-15T07:08:08.000Z</time>
      </trkpt>
      <trkpt lat="44.12496" lon="0.45738">
        <ele>123</ele>
        <time>2022-09-15T07:08:09.000Z</time>
      </trkpt>
      <trkpt lat="44.12498" lon="0.45738">
        <ele>122</ele>
        <time>2022-09-15T07:08:10.000Z</time>
      </trkpt>
      <trkpt lat="44.12499" lon="0.45737">
        <ele>123</ele>
        <time>2022-09-15T07:08:11.000Z</time>
      </trkpt>
      <trkpt lat="44.125" lon="0.45737">
        <ele>122</ele>
        <time>2022-09-15T07:08:12.000Z</time>
      </trkpt>
      <trkpt lat="44.12502" lon="0.45736">
        <ele>122</ele>
        <time>2022-09-15T07:08:13.000Z</time>
      </trkpt>
      <trkpt lat="44.12503" lon="0.45736">
        <ele>122</ele>
        <time>2022-09-15T07:08:14.000Z</time>
      </trkpt>
      <trkpt lat="44.12504" lon="0.45736">
        <ele>123</ele>
        <time>2022-09-15T07:08:15.000Z</time>
      </trkpt>
      <trkpt lat="44.12506" lon="0.45736">
        <ele>122</ele>
        <time>2022-09-15T07:08:16.000Z</time>
      </trkpt>
      <trkpt lat="44.12507" lon="0.45735">
        <ele>122</ele>
        <time>2022-09-15T07:08:17.000Z</time>
      </trkpt>
      <trkpt lat="44.12508" lon="0.45734">
        <ele>122</ele>
        <time>2022-09-15T07:08:18.000Z</time>
      </trkpt>
      <trkpt lat="44.12509" lon="0.45734">
        <ele>123</ele>
        <time>2022-09-15T07:08:19.000Z</time>
      </trkpt>
      <trkpt lat="44.1251" lon="0.45734">
        <ele>122</ele>
        <time>2022-09-15T07:08:20.000Z</time>
      </trkpt>
      <trkpt lat="44.12511" lon="0.45734">
        <ele>122</ele>
        <time>2022-09-15T07:08:21.000Z</time>
      </trkpt>
      <trkpt lat="44.12512" lon="0.45734">
        <ele>122</ele>
        <time>2022-09-15T07:08:22.000Z</time>
      </trkpt>
      <trkpt lat="44.12514" lon="0.45734">
        <ele>122</ele>
        <time>2022-09-15T07:08:23.000Z</time>
      </trkpt>
      <trkpt lat="44.12515" lon="0.45733">
        <ele>122</ele>
        <time>2022-09-15T07:08:24.000Z</time>
      </trkpt>
      <trkpt lat="44.12516" lon="0.45733">
        <ele>122</ele>
        <time>2022-09-15T07:08:25.000Z</time>
      </trkpt>
      <trkpt lat="44.12518" lon="0.45733">
        <ele>122</ele>
        <time>2022-09-15T07:08:26.000Z</time>
      </trkpt>
      <trkpt lat="44.12519" lon="0.45732">
        <ele>122</ele>
        <time>2022-09-15T07:08:27.000Z</time>
      </trkpt>
      <trkpt lat="44.1252" lon="0.45732">
        <ele>122</ele>
        <time>2022-09-15T07:08:28.000Z</time>
      </trkpt>
      <trkpt lat="44.12521" lon="0.45732">
        <ele>122</ele>
        <time>2022-09-15T07:08:29.000Z</time>
      </trkpt>
      <trkpt lat="44.12522" lon="0.45732">
        <ele>122</ele>
        <time>2022-09-15T07:08:30.000Z</time>
      </trkpt>
      <trkpt lat="44.12524" lon="0.45732">
        <ele>122</ele>
        <time>2022-09-15T07:08:31.000Z</time>
      </trkpt>
      <trkpt lat="44.12525" lon="0.45732">
        <ele>122</ele>
        <time>2022-09-15T07:08:32.000Z</time>
      </trkpt>
      <trkpt lat="44.12526" lon="0.45731">
        <ele>122</ele>
        <time>2022-09-15T07:08:33.000Z</time>
      </trkpt>
      <trkpt lat="44.12528" lon="0.45731">
        <ele>122</ele>
        <time>2022-09-15T07:08:34.000Z</time>
      </trkpt>
      <trkpt lat="44.12529" lon="0.45731">
        <ele>122</ele>
        <time>2022-09-15T07:08:35.000Z</time>
      </trkpt>
      <trkpt lat="44.1253" lon="0.45731">
        <ele>123</ele>
        <time>2022-09-15T07:08:36.000Z</time>
      </trkpt>
      <trkpt lat="44.12532" lon="0.45731">
        <ele>123</ele>
        <time>2022-09-15T07:08:37.000Z</time>
      </trkpt>
      <trkpt lat="44.12533" lon="0.4573">
        <ele>123</ele>
        <time>2022-09-15T07:08:38.000Z</time>
      </trkpt>
      <trkpt lat="44.12534" lon="0.4573">
        <ele>123</ele>
        <time>2022-09-15T07:08:39.000Z</time>
      </trkpt>
      <trkpt lat="44.12535" lon="0.4573">
        <ele>123</ele>
        <time>2022-09-15T07:08:40.000Z</time>
      </trkpt>
      <trkpt lat="44.12537" lon="0.4573">
        <ele>123</ele>
        <time>2022-09-15T07:08:41.000Z</time>
      </trkpt>
      <trkpt lat="44.12538" lon="0.4573">
        <ele>123</ele>
        <time>2022-09-15T07:08:42.000Z</time>
      </trkpt>
      <trkpt lat="44.12539" lon="0.45731">
        <ele>123</ele>
        <time>2022-09-15T07:08:43.000Z</time>
      </trkpt>
      <trkpt lat="44.12541" lon="0.45731">
        <ele>124</ele>
        <time>2022-09-15T07:08:44.000Z</time>
      </trkpt>
      <trkpt lat="44.12542" lon="0.45731">
        <ele>124</ele>
        <time>2022-09-15T07:08:45.000Z</time>
      </trkpt>
      <trkpt lat="44.12543" lon="0.45731">
        <ele>124</ele>
        <time>2022-09-15T07:08:46.000Z</time>
      </trkpt>
      <trkpt lat="44.12544" lon="0.45731">
        <ele>123</ele>
        <time>2022-09-15T07:08:47.000Z</time>
      </trkpt>
      <trkpt lat="44.12546" lon="0.4573">
        <ele>124</ele>
        <time>2022-09-15T07:08:48.000Z</time>
      </trkpt>
      <trkpt lat="44.12547" lon="0.4573">
        <ele>124</ele>
        <time>2022-09-15T07:08:49.000Z</time>
      </trkpt>
      <trkpt lat="44.12548" lon="0.4573">
        <ele>124</ele>
        <time>2022-09-15T07:08:50.000Z</time>
      </trkpt>
      <trkpt lat="44.1255" lon="0.4573">
        <ele>124</ele>
        <time>2022-09-15T07:08:51.000Z</time>
      </trkpt>
      <trkpt lat="44.12551" lon="0.4573">
        <ele>124</ele>
        <time>2022-09-15T07:08:52.000Z</time>
      </trkpt>
      <trkpt lat="44.12552" lon="0.4573">
        <ele>124</ele>
        <time>2022-09-15T07:08:53.000Z</time>
      </trkpt>
      <trkpt lat="44.12553" lon="0.45731">
        <ele>124</ele>
        <time>2022-09-15T07:08:54.000Z</time>
      </trkpt>
      <trkpt lat="44.12555" lon="0.45731">
        <ele>124</ele>
        <time>2022-09-15T07:08:55.000Z</time>
      </trkpt>
      <trkpt lat="44.12556" lon="0.4573">
        <ele>124</ele>
        <time>2022-09-15T07:08:56.000Z</time>
      </trkpt>
      <trkpt lat="44.12557" lon="0.4573">
        <ele>124</ele>
        <time>2022-09-15T07:08:57.000Z</time>
      </trkpt>
      <trkpt lat="44.12558" lon="0.45729">
        <ele>124</ele>
        <time>2022-09-15T07:08:58.000Z</time>
      </trkpt>
      <trkpt lat="44.1256" lon="0.45728">
        <ele>125</ele>
        <time>2022-09-15T07:08:59.000Z</time>
      </trkpt>
      <trkpt lat="44.12561" lon="0.45728">
        <ele>125</ele>
        <time>2022-09-15T07:09:00.000Z</time>
      </trkpt>
      <trkpt lat="44.12562" lon="0.45728">
        <ele>124</ele>
        <time>2022-09-15T07:09:01.000Z</time>
      </trkpt>
      <trkpt lat="44.12563" lon="0.45728">
        <ele>125</ele>
        <time>2022-09-15T07:09:02.000Z</time>
      </trkpt>
      <trkpt lat="44.12564" lon="0.45728">
        <ele>125</ele>
        <time>2022-09-15T07:09:03.000Z</time>
      </trkpt>
      <trkpt lat="44.12565" lon="0.45727">
        <ele>125</ele>
        <time>2022-09-15T07:09:04.000Z</time>
      </trkpt>
      <trkpt lat="44.12567" lon="0.45727">
        <ele>125</ele>
        <time>2022-09-15T07:09:05.000Z</time>
      </trkpt>
      <trkpt lat="44.12568" lon="0.45727">
        <ele>125</ele>
        <time>2022-09-15T07:09:06.000Z</time>
      </trkpt>
      <trkpt lat="44.12569" lon="0.45726">
        <ele>126</ele>
        <time>2022-09-15T07:09:07.000Z</time>
      </trkpt>
      <trkpt lat="44.1257" lon="0.45725">
        <ele>126</ele>
        <time>2022-09-15T07:09:08.000Z</time>
      </trkpt>
      <trkpt lat="44.12572" lon="0.45725">
        <ele>126</ele>
        <time>2022-09-15T07:09:09.000Z</time>
      </trkpt>
      <trkpt lat="44.12573" lon="0.45724">
        <ele>126</ele>
        <time>2022-09-15T07:09:10.000Z</time>
      </trkpt>
      <trkpt lat="44.12574" lon="0.45724">
        <ele>126</ele>
        <time>2022-09-15T07:09:11.000Z</time>
      </trkpt>
      <trkpt lat="44.12575" lon="0.45723">
        <ele>126</ele>
        <time>2022-09-15T07:09:12.000Z</time>
      </trkpt>
      <trkpt lat="44.12576" lon="0.45723">
        <ele>127</ele>
        <time>2022-09-15T07:09:13.000Z</time>
      </trkpt>
      <trkpt lat="44.12577" lon="0.45723">
        <ele>127</ele>
        <time>2022-09-15T07:09:14.000Z</time>
      </trkpt>
      <trkpt lat="44.12578" lon="0.45723">
        <ele>127</ele>
        <time>2022-09-15T07:09:15.000Z</time>
      </trkpt>
      <trkpt lat="44.12579" lon="0.45723">
        <ele>127</ele>
        <time>2022-09-15T07:09:16.000Z</time>
      </trkpt>
      <trkpt lat="44.1258" lon="0.45723">
        <ele>127</ele>
        <time>2022-09-15T07:09:17.000Z</time>
      </trkpt>
      <trkpt lat="44.12581" lon="0.45723">
        <ele>127</ele>
        <time>2022-09-15T07:09:18.000Z</time>
      </trkpt>
      <trkpt lat="44.12581" lon="0.45723">
        <ele>126</ele>
        <time>2022-09-15T07:09:19.000Z</time>
      </trkpt>
      <trkpt lat="44.12581" lon="0.45722">
        <ele>126</ele>
        <time>2022-09-15T07:09:20.000Z</time>
      </trkpt>
      <trkpt lat="44.12581" lon="0.45722">
        <ele>126</ele>
        <time>2022-09-15T07:09:21.000Z</time>
      </trkpt>
      <trkpt lat="44.12581" lon="0.45722">
        <ele>126</ele>
        <time>2022-09-15T07:09:22.000Z</time>
      </trkpt>
      <trkpt lat="44.12581" lon="0.45722">
        <ele>126</ele>
        <time>2022-09-15T07:09:23.000Z</time>
      </trkpt>
      <trkpt lat="44.12581" lon="0.45722">
        <ele>125</ele>
        <time>2022-09-15T07:09:24.000Z</time>
      </trkpt>
      <trkpt lat="44.12582" lon="0.45722">
        <ele>125</ele>
        <time>2022-09-15T07:09:25.000Z</time>
      </trkpt>
      <trkpt lat="44.12582" lon="0.45722">
        <ele>125</ele>
        <time>2022-09-15T07:09:26.000Z</time>
      </trkpt>
      <trkpt lat="44.12583" lon="0.45722">
        <ele>125</ele>
        <time>2022-09-15T07:09:27.000Z</time>
      </trkpt>
      <trkpt lat="44.12584" lon="0.45721">
        <ele>125</ele>
        <time>2022-09-15T07:09:28.000Z</time>
      </trkpt>
      <trkpt lat="44.12585" lon="0.45721">
        <ele>125</ele>
        <time>2022-09-15T07:09:29.000Z</time>
      </trkpt>
      <trkpt lat="44.12586" lon="0.45721">
        <ele>125</ele>
        <time>2022-09-15T07:09:30.000Z</time>
      </trkpt>
      <trkpt lat="44.12587" lon="0.45721">
        <ele>125</ele>
        <time>2022-09-15T07:09:31.000Z</time>
      </trkpt>
      <trkpt lat="44.12587" lon="0.45721">
        <ele>124</ele>
        <time>2022-09-15T07:09:32.000Z</time>
      </trkpt>
      <trkpt lat="44.12588" lon="0.45721">
        <ele>125</ele>
        <time>2022-09-15T07:09:33.000Z</time>
      </trkpt>
      <trkpt lat="44.12588" lon="0.4572">
        <ele>125</ele>
        <time>2022-09-15T07:09:34.000Z</time>
      </trkpt>
      <trkpt lat="44.12589" lon="0.4572">
        <ele>125</ele>
        <time>2022-09-15T07:09:35.000Z</time>
      </trkpt>
      <trkpt lat="44.1259" lon="0.4572">
        <ele>125</ele>
        <time>2022-09-15T07:09:36.000Z</time>
      </trkpt>
      <trkpt lat="44.1259" lon="0.4572">
        <ele>125</ele>
        <time>2022-09-15T07:09:37.000Z</time>
      </trkpt>
      <trkpt lat="44.12591" lon="0.4572">
        <ele>126</ele>
        <time>2022-09-15T07:09:38.000Z</time>
      </trkpt>
      <trkpt lat="44.12592" lon="0.4572">
        <ele>126</ele>
        <time>2022-09-15T07:09:39.000Z</time>
      </trkpt>
      <trkpt lat="44.12592" lon="0.4572">
        <ele>126</ele>
        <time>2022-09-15T07:09:40.000Z</time>
      </trkpt>
      <trkpt lat="44.12593" lon="0.4572">
        <ele>126</ele>
        <time>2022-09-15T07:09:41.000Z</time>
      </trkpt>
      <trkpt lat="44.12595" lon="0.4572">
        <ele>126</ele>
        <time>2022-09-15T07:09:42.000Z</time>
      </trkpt>
      <trkpt lat="44.12596" lon="0.4572">
        <ele>126</ele>
        <time>2022-09-15T07:09:43.000Z</time>
      </trkpt>
      <trkpt lat="44.12597" lon="0.4572">
        <ele>126</ele>
        <time>2022-09-15T07:09:44.000Z</time>
      </trkpt>
      <trkpt lat="44.12599" lon="0.4572">
        <ele>126</ele>
        <time>2022-09-15T07:09:45.000Z</time>
      </trkpt>
      <trkpt lat="44.126" lon="0.4572">
        <ele>126</ele>
        <time>2022-09-15T07:09:46.000Z</time>
      </trkpt>
      <trkpt lat="44.12602" lon="0.45721">
        <ele>125</ele>
        <time>2022-09-15T07:09:47.000Z</time>
      </trkpt>
      <trkpt lat="44.12603" lon="0.45721">
        <ele>125</ele>
        <time>2022-09-15T07:09:48.000Z</time>
      </trkpt>
      <trkpt lat="44.12605" lon="0.45721">
        <ele>125</ele>
        <time>2022-09-15T07:09:49.000Z</time>
      </trkpt>
      <trkpt lat="44.12606" lon="0.45721">
        <ele>125</ele>
        <time>2022-09-15T07:09:50.000Z</time>
      </trkpt>
      <trkpt lat="44.12607" lon="0.45722">
        <ele>125</ele>
        <time>2022-09-15T07:09:51.000Z</time>
      </trkpt>
      <trkpt lat="44.12608" lon="0.45722">
        <ele>125</ele>
        <time>2022-09-15T07:09:52.000Z</time>
      </trkpt>
      <trkpt lat="44.12609" lon="0.45721">
        <ele>126</ele>
        <time>2022-09-15T07:09:53.000Z</time>
      </trkpt>
      <trkpt lat="44.1261" lon="0.45721">
        <ele>125</ele>
        <time>2022-09-15T07:09:54.000Z</time>
      </trkpt>
      <trkpt lat="44.12611" lon="0.45721">
        <ele>126</ele>
        <time>2022-09-15T07:09:55.000Z</time>
      </trkpt>
      <trkpt lat="44.12612" lon="0.4572">
        <ele>126</ele>
        <time>2022-09-15T07:09:56.000Z</time>
      </trkpt>
      <trkpt lat="44.12613" lon="0.4572">
        <ele>126</ele>
        <time>2022-09-15T07:09:57.000Z</time>
      </trkpt>
      <trkpt lat="44.12614" lon="0.4572">
        <ele>126</ele>
        <time>2022-09-15T07:09:58.000Z</time>
      </trkpt>
      <trkpt lat="44.12615" lon="0.4572">
        <ele>127</ele>
        <time>2022-09-15T07:09:59.000Z</time>
      </trkpt>
      <trkpt lat="44.12617" lon="0.4572">
        <ele>127</ele>
        <time>2022-09-15T07:10:00.000Z</time>
      </trkpt>
      <trkpt lat="44.12618" lon="0.4572">
        <ele>127</ele>
        <time>2022-09-15T07:10:01.000Z</time>
      </trkpt>
      <trkpt lat="44.12619" lon="0.4572">
        <ele>127</ele>
        <time>2022-09-15T07:10:02.000Z</time>
      </trkpt>
      <trkpt lat="44.1262" lon="0.4572">
        <ele>127</ele>
        <time>2022-09-15T07:10:03.000Z</time>
      </trkpt>
      <trkpt lat="44.12622" lon="0.45719">
        <ele>127</ele>
        <time>2022-09-15T07:10:04.000Z</time>
      </trkpt>
      <trkpt lat="44.12623" lon="0.45719">
        <ele>127</ele>
        <time>2022-09-15T07:10:05.000Z</time>
      </trkpt>
      <trkpt lat="44.12624" lon="0.45718">
        <ele>127</ele>
        <time>2022-09-15T07:10:06.000Z</time>
      </trkpt>
      <trkpt lat="44.12625" lon="0.45718">
        <ele>127</ele>
        <time>2022-09-15T07:10:07.000Z</time>
      </trkpt>
      <trkpt lat="44.12626" lon="0.45718">
        <ele>127</ele>
        <time>2022-09-15T07:10:08.000Z</time>
      </trkpt>
      <trkpt lat="44.12627" lon="0.45718">
        <ele>127</ele>
        <time>2022-09-15T07:10:09.000Z</time>
      </trkpt>
      <trkpt lat="44.12628" lon="0.45717">
        <ele>127</ele>
        <time>2022-09-15T07:10:10.000Z</time>
      </trkpt>
      <trkpt lat="44.12629" lon="0.45717">
        <ele>127</ele>
        <time>2022-09-15T07:10:11.000Z</time>
      </trkpt>
      <trkpt lat="44.1263" lon="0.45716">
        <ele>127</ele>
        <time>2022-09-15T07:10:12.000Z</time>
      </trkpt>
      <trkpt lat="44.12631" lon="0.45716">
        <ele>128</ele>
        <time>2022-09-15T07:10:13.000Z</time>
      </trkpt>
      <trkpt lat="44.12632" lon="0.45715">
        <ele>127</ele>
        <time>2022-09-15T07:10:14.000Z</time>
      </trkpt>
      <trkpt lat="44.12633" lon="0.45715">
        <ele>128</ele>
        <time>2022-09-15T07:10:15.000Z</time>
      </trkpt>
      <trkpt lat="44.12634" lon="0.45714">
        <ele>127</ele>
        <time>2022-09-15T07:10:16.000Z</time>
      </trkpt>
      <trkpt lat="44.12635" lon="0.45714">
        <ele>127</ele>
        <time>2022-09-15T07:10:17.000Z</time>
      </trkpt>
      <trkpt lat="44.12635" lon="0.45714">
        <ele>127</ele>
        <time>2022-09-15T07:10:18.000Z</time>
      </trkpt>
      <trkpt lat="44.12635" lon="0.45714">
        <ele>127</ele>
        <time>2022-09-15T07:10:19.000Z</time>
      </trkpt>
      <trkpt lat="44.12635" lon="0.45714">
        <ele>127</ele>
        <time>2022-09-15T07:10:20.000Z</time>
      </trkpt>
      <trkpt lat="44.12635" lon="0.45714">
        <ele>127</ele>
        <time>2022-09-15T07:10:21.000Z</time>
      </trkpt>
      <trkpt lat="44.12635" lon="0.45714">
        <ele>127</ele>
        <time>2022-09-15T07:10:22.000Z</time>
      </trkpt>
      <trkpt lat="44.12638" lon="0.45714">
        <ele>128</ele>
        <time>2022-09-15T07:10:42.094Z</time>
      </trkpt>
      <trkpt lat="44.12639" lon="0.45714">
        <ele>128</ele>
        <time>2022-09-15T07:10:43.094Z</time>
      </trkpt>
      <trkpt lat="44.12639" lon="0.45714">
        <ele>127</ele>
        <time>2022-09-15T07:10:44.094Z</time>
      </trkpt>
      <trkpt lat="44.1264" lon="0.45713">
        <ele>127</ele>
        <time>2022-09-15T07:10:45.094Z</time>
      </trkpt>
      <trkpt lat="44.12642" lon="0.45713">
        <ele>127</ele>
        <time>2022-09-15T07:10:46.094Z</time>
      </trkpt>
      <trkpt lat="44.12643" lon="0.45713">
        <ele>127</ele>
        <time>2022-09-15T07:10:47.094Z</time>
      </trkpt>
      <trkpt lat="44.12644" lon="0.45713">
        <ele>127</ele>
        <time>2022-09-15T07:10:48.094Z</time>
      </trkpt>
      <trkpt lat="44.12645" lon="0.45712">
        <ele>127</ele>
        <time>2022-09-15T07:10:49.094Z</time>
      </trkpt>
      <trkpt lat="44.12646" lon="0.45712">
        <ele>127</ele>
        <time>2022-09-15T07:10:50.094Z</time>
      </trkpt>
      <trkpt lat="44.12647" lon="0.45711">
        <ele>127</ele>
        <time>2022-09-15T07:10:51.094Z</time>
      </trkpt>
      <trkpt lat="44.12648" lon="0.45711">
        <ele>127</ele>
        <time>2022-09-15T07:10:52.094Z</time>
      </trkpt>
      <trkpt lat="44.1265" lon="0.4571">
        <ele>127</ele>
        <time>2022-09-15T07:10:53.094Z</time>
      </trkpt>
      <trkpt lat="44.12651" lon="0.4571">
        <ele>127</ele>
        <time>2022-09-15T07:10:54.094Z</time>
      </trkpt>
      <trkpt lat="44.12652" lon="0.4571">
        <ele>127</ele>
        <time>2022-09-15T07:10:55.094Z</time>
      </trkpt>
      <trkpt lat="44.12653" lon="0.45709">
        <ele>127</ele>
        <time>2022-09-15T07:10:56.094Z</time>
      </trkpt>
      <trkpt lat="44.12654" lon="0.45708">
        <ele>127</ele>
        <time>2022-09-15T07:10:57.094Z</time>
      </trkpt>
      <trkpt lat="44.12656" lon="0.45707">
        <ele>128</ele>
        <time>2022-09-15T07:10:58.094Z</time>
      </trkpt>
      <trkpt lat="44.12657" lon="0.45706">
        <ele>128</ele>
        <time>2022-09-15T07:10:59.094Z</time>
      </trkpt>
      <trkpt lat="44.12658" lon="0.45705">
        <ele>128</ele>
        <time>2022-09-15T07:11:00.094Z</time>
      </trkpt>
      <trkpt lat="44.12659" lon="0.45704">
        <ele>128</ele>
        <time>2022-09-15T07:11:01.094Z</time>
      </trkpt>
      <trkpt lat="44.12661" lon="0.45703">
        <ele>128</ele>
        <time>2022-09-15T07:11:02.094Z</time>
      </trkpt>
      <trkpt lat="44.12662" lon="0.45703">
        <ele>127</ele>
        <time>2022-09-15T07:11:03.094Z</time>
      </trkpt>
      <trkpt lat="44.12663" lon="0.45702">
        <ele>127</ele>
        <time>2022-09-15T07:11:04.094Z</time>
      </trkpt>
      <trkpt lat="44.12665" lon="0.45701">
        <ele>127</ele>
        <time>2022-09-15T07:11:05.094Z</time>
      </trkpt>
      <trkpt lat="44.12666" lon="0.45701">
        <ele>127</ele>
        <time>2022-09-15T07:11:06.094Z</time>
      </trkpt>
      <trkpt lat="44.12667" lon="0.45701">
        <ele>127</ele>
        <time>2022-09-15T07:11:07.094Z</time>
      </trkpt>
      <trkpt lat="44.12668" lon="0.45701">
        <ele>127</ele>
        <time>2022-09-15T07:11:08.094Z</time>
      </trkpt>
      <trkpt lat="44.12669" lon="0.457">
        <ele>126</ele>
        <time>2022-09-15T07:11:09.094Z</time>
      </trkpt>
      <trkpt lat="44.12669" lon="0.45699">
        <ele>127</ele>
        <time>2022-09-15T07:11:10.094Z</time>
      </trkpt>
      <trkpt lat="44.1267" lon="0.45698">
        <ele>127</ele>
        <time>2022-09-15T07:11:11.094Z</time>
      </trkpt>
      <trkpt lat="44.12671" lon="0.45697">
        <ele>127</ele>
        <time>2022-09-15T07:11:12.094Z</time>
      </trkpt>
      <trkpt lat="44.12672" lon="0.45696">
        <ele>127</ele>
        <time>2022-09-15T07:11:13.094Z</time>
      </trkpt>
      <trkpt lat="44.12673" lon="0.45695">
        <ele>127</ele>
        <time>2022-09-15T07:11:14.094Z</time>
      </trkpt>
      <trkpt lat="44.12674" lon="0.45694">
        <ele>127</ele>
        <time>2022-09-15T07:11:15.094Z</time>
      </trkpt>
      <trkpt lat="44.12675" lon="0.45693">
        <ele>127</ele>
        <time>2022-09-15T07:11:16.094Z</time>
      </trkpt>
      <trkpt lat="44.12677" lon="0.45692">
        <ele>127</ele>
        <time>2022-09-15T07:11:17.094Z</time>
      </trkpt>
      <trkpt lat="44.12678" lon="0.45691">
        <ele>127</ele>
        <time>2022-09-15T07:11:18.094Z</time>
      </trkpt>
      <trkpt lat="44.12679" lon="0.4569">
        <ele>127</ele>
        <time>2022-09-15T07:11:19.094Z</time>
      </trkpt>
      <trkpt lat="44.1268" lon="0.45689">
        <ele>127</ele>
        <time>2022-09-15T07:11:20.094Z</time>
      </trkpt>
      <trkpt lat="44.12681" lon="0.45688">
        <ele>127</ele>
        <time>2022-09-15T07:11:21.094Z</time>
      </trkpt>
      <trkpt lat="44.12683" lon="0.45687">
        <ele>127</ele>
        <time>2022-09-15T07:11:22.094Z</time>
      </trkpt>
      <trkpt lat="44.12684" lon="0.45687">
        <ele>128</ele>
        <time>2022-09-15T07:11:23.094Z</time>
      </trkpt>
      <trkpt lat="44.12685" lon="0.45686">
        <ele>127</ele>
        <time>2022-09-15T07:11:24.094Z</time>
      </trkpt>
      <trkpt lat="44.12686" lon="0.45686">
        <ele>128</ele>
        <time>2022-09-15T07:11:25.094Z</time>
      </trkpt>
      <trkpt lat="44.12686" lon="0.45685">
        <ele>128</ele>
        <time>2022-09-15T07:11:26.094Z</time>
      </trkpt>
      <trkpt lat="44.12687" lon="0.45685">
        <ele>127</ele>
        <time>2022-09-15T07:11:27.094Z</time>
      </trkpt>
      <trkpt lat="44.12688" lon="0.45684">
        <ele>128</ele>
        <time>2022-09-15T07:11:28.094Z</time>
      </trkpt>
      <trkpt lat="44.12689" lon="0.45683">
        <ele>127</ele>
        <time>2022-09-15T07:11:29.094Z</time>
      </trkpt>
      <trkpt lat="44.1269" lon="0.45681">
        <ele>127</ele>
        <time>2022-09-15T07:11:30.094Z</time>
      </trkpt>
      <trkpt lat="44.12691" lon="0.4568">
        <ele>127</ele>
        <time>2022-09-15T07:11:31.094Z</time>
      </trkpt>
      <trkpt lat="44.12692" lon="0.45679">
        <ele>127</ele>
        <time>2022-09-15T07:11:32.094Z</time>
      </trkpt>
      <trkpt lat="44.12693" lon="0.45678">
        <ele>126</ele>
        <time>2022-09-15T07:11:33.094Z</time>
      </trkpt>
      <trkpt lat="44.12694" lon="0.45677">
        <ele>126</ele>
        <time>2022-09-15T07:11:34.094Z</time>
      </trkpt>
      <trkpt lat="44.12695" lon="0.45676">
        <ele>126</ele>
        <time>2022-09-15T07:11:35.094Z</time>
      </trkpt>
      <trkpt lat="44.12697" lon="0.45675">
        <ele>126</ele>
        <time>2022-09-15T07:11:36.094Z</time>
      </trkpt>
      <trkpt lat="44.12698" lon="0.45674">
        <ele>126</ele>
        <time>2022-09-15T07:11:37.094Z</time>
      </trkpt>
      <trkpt lat="44.12699" lon="0.45673">
        <ele>126</ele>
        <time>2022-09-15T07:11:38.094Z</time>
      </trkpt>
      <trkpt lat="44.127" lon="0.45672">
        <ele>126</ele>
        <time>2022-09-15T07:11:39.094Z</time>
      </trkpt>
      <trkpt lat="44.12701" lon="0.4567">
        <ele>126</ele>
        <time>2022-09-15T07:11:40.094Z</time>
      </trkpt>
      <trkpt lat="44.12702" lon="0.45669">
        <ele>126</ele>
        <time>2022-09-15T07:11:41.094Z</time>
      </trkpt>
      <trkpt lat="44.12703" lon="0.45668">
        <ele>125</ele>
        <time>2022-09-15T07:11:42.094Z</time>
      </trkpt>
      <trkpt lat="44.12704" lon="0.45667">
        <ele>126</ele>
        <time>2022-09-15T07:11:43.094Z</time>
      </trkpt>
      <trkpt lat="44.12706" lon="0.45666">
        <ele>126</ele>
        <time>2022-09-15T07:11:44.094Z</time>
      </trkpt>
      <trkpt lat="44.12707" lon="0.45665">
        <ele>126</ele>
        <time>2022-09-15T07:11:45.094Z</time>
      </trkpt>
      <trkpt lat="44.12708" lon="0.45664">
        <ele>126</ele>
        <time>2022-09-15T07:11:46.094Z</time>
      </trkpt>
      <trkpt lat="44.12709" lon="0.45663">
        <ele>125</ele>
        <time>2022-09-15T07:11:47.094Z</time>
      </trkpt>
      <trkpt lat="44.12711" lon="0.45662">
        <ele>126</ele>
        <time>2022-09-15T07:11:48.094Z</time>
      </trkpt>
      <trkpt lat="44.12712" lon="0.45661">
        <ele>126</ele>
        <time>2022-09-15T07:11:49.094Z</time>
      </trkpt>
      <trkpt lat="44.12713" lon="0.4566">
        <ele>126</ele>
        <time>2022-09-15T07:11:50.094Z</time>
      </trkpt>
      <trkpt lat="44.12714" lon="0.45659">
        <ele>126</ele>
        <time>2022-09-15T07:11:51.094Z</time>
      </trkpt>
      <trkpt lat="44.12716" lon="0.45659">
        <ele>126</ele>
        <time>2022-09-15T07:11:52.094Z</time>
      </trkpt>
      <trkpt lat="44.12717" lon="0.45659">
        <ele>126</ele>
        <time>2022-09-15T07:11:53.094Z</time>
      </trkpt>
      <trkpt lat="44.12717" lon="0.45658">
        <ele>126</ele>
        <time>2022-09-15T07:11:54.094Z</time>
      </trkpt>
      <trkpt lat="44.12718" lon="0.45657">
        <ele>126</ele>
        <time>2022-09-15T07:11:55.094Z</time>
      </trkpt>
      <trkpt lat="44.12719" lon="0.45655">
        <ele>126</ele>
        <time>2022-09-15T07:11:56.094Z</time>
      </trkpt>
      <trkpt lat="44.1272" lon="0.45654">
        <ele>125</ele>
        <time>2022-09-15T07:11:57.094Z</time>
      </trkpt>
      <trkpt lat="44.12722" lon="0.45653">
        <ele>125</ele>
        <time>2022-09-15T07:11:58.094Z</time>
      </trkpt>
      <trkpt lat="44.12723" lon="0.45652">
        <ele>126</ele>
        <time>2022-09-15T07:11:59.094Z</time>
      </trkpt>
      <trkpt lat="44.12724" lon="0.45651">
        <ele>126</ele>
        <time>2022-09-15T07:12:00.094Z</time>
      </trkpt>
      <trkpt lat="44.12725" lon="0.4565">
        <ele>126</ele>
        <time>2022-09-15T07:12:01.094Z</time>
      </trkpt>
      <trkpt lat="44.12726" lon="0.45649">
        <ele>126</ele>
        <time>2022-09-15T07:12:02.094Z</time>
      </trkpt>
      <trkpt lat="44.12727" lon="0.45648">
        <ele>126</ele>
        <time>2022-09-15T07:12:03.094Z</time>
      </trkpt>
      <trkpt lat="44.12728" lon="0.45647">
        <ele>126</ele>
        <time>2022-09-15T07:12:04.094Z</time>
      </trkpt>
      <trkpt lat="44.1273" lon="0.45647">
        <ele>126</ele>
        <time>2022-09-15T07:12:05.094Z</time>
      </trkpt>
      <trkpt lat="44.12731" lon="0.45646">
        <ele>126</ele>
        <time>2022-09-15T07:12:06.094Z</time>
      </trkpt>
      <trkpt lat="44.12732" lon="0.45645">
        <ele>126</ele>
        <time>2022-09-15T07:12:07.094Z</time>
      </trkpt>
      <trkpt lat="44.12733" lon="0.45645">
        <ele>126</ele>
        <time>2022-09-15T07:12:08.094Z</time>
      </trkpt>
      <trkpt lat="44.12734" lon="0.45644">
        <ele>126</ele>
        <time>2022-09-15T07:12:09.094Z</time>
      </trkpt>
      <trkpt lat="44.12735" lon="0.45643">
        <ele>126</ele>
        <time>2022-09-15T07:12:10.094Z</time>
      </trkpt>
      <trkpt lat="44.12736" lon="0.45643">
        <ele>126</ele>
        <time>2022-09-15T07:12:11.094Z</time>
      </trkpt>
      <trkpt lat="44.12737" lon="0.45642">
        <ele>126</ele>
        <time>2022-09-15T07:12:12.094Z</time>
      </trkpt>
      <trkpt lat="44.12738" lon="0.45641">
        <ele>126</ele>
        <time>2022-09-15T07:12:13.094Z</time>
      </trkpt>
      <trkpt lat="44.12739" lon="0.4564">
        <ele>127</ele>
        <time>2022-09-15T07:12:14.094Z</time>
      </trkpt>
      <trkpt lat="44.1274" lon="0.4564">
        <ele>127</ele>
        <time>2022-09-15T07:12:15.094Z</time>
      </trkpt>
      <trkpt lat="44.12741" lon="0.45639">
        <ele>127</ele>
        <time>2022-09-15T07:12:16.094Z</time>
      </trkpt>
      <trkpt lat="44.12743" lon="0.45638">
        <ele>127</ele>
        <time>2022-09-15T07:12:17.094Z</time>
      </trkpt>
      <trkpt lat="44.12744" lon="0.45638">
        <ele>127</ele>
        <time>2022-09-15T07:12:18.094Z</time>
      </trkpt>
      <trkpt lat="44.12745" lon="0.45637">
        <ele>127</ele>
        <time>2022-09-15T07:12:19.094Z</time>
      </trkpt>
      <trkpt lat="44.12746" lon="0.45636">
        <ele>127</ele>
        <time>2022-09-15T07:12:20.094Z</time>
      </trkpt>
      <trkpt lat="44.12747" lon="0.45635">
        <ele>127</ele>
        <time>2022-09-15T07:12:21.094Z</time>
      </trkpt>
      <trkpt lat="44.12748" lon="0.45635">
        <ele>127</ele>
        <time>2022-09-15T07:12:22.094Z</time>
      </trkpt>
      <trkpt lat="44.12749" lon="0.45634">
        <ele>127</ele>
        <time>2022-09-15T07:12:23.094Z</time>
      </trkpt>
      <trkpt lat="44.1275" lon="0.45633">
        <ele>127</ele>
        <time>2022-09-15T07:12:24.094Z</time>
      </trkpt>
      <trkpt lat="44.12751" lon="0.45633">
        <ele>127</ele>
        <time>2022-09-15T07:12:25.094Z</time>
      </trkpt>
      <trkpt lat="44.12753" lon="0.45632">
        <ele>127</ele>
        <time>2022-09-15T07:12:26.094Z</time>
      </trkpt>
      <trkpt lat="44.12754" lon="0.45632">
        <ele>127</ele>
        <time>2022-09-15T07:12:27.094Z</time>
      </trkpt>
      <trkpt lat="44.12755" lon="0.45631">
        <ele>127</ele>
        <time>2022-09-15T07:12:28.094Z</time>
      </trkpt>
      <trkpt lat="44.12756" lon="0.45631">
        <ele>127</ele>
        <time>2022-09-15T07:12:29.094Z</time>
      </trkpt>
      <trkpt lat="44.12758" lon="0.4563">
        <ele>127</ele>
        <time>2022-09-15T07:12:30.094Z</time>
      </trkpt>
      <trkpt lat="44.12759" lon="0.45629">
        <ele>126</ele>
        <time>2022-09-15T07:12:31.094Z</time>
      </trkpt>
      <trkpt lat="44.1276" lon="0.45628">
        <ele>126</ele>
        <time>2022-09-15T07:12:32.094Z</time>
      </trkpt>
      <trkpt lat="44.12761" lon="0.45627">
        <ele>126</ele>
        <time>2022-09-15T07:12:33.094Z</time>
      </trkpt>
      <trkpt lat="44.12762" lon="0.45626">
        <ele>126</ele>
        <time>2022-09-15T07:12:34.094Z</time>
      </trkpt>
      <trkpt lat="44.12763" lon="0.45626">
        <ele>126</ele>
        <time>2022-09-15T07:12:35.094Z</time>
      </trkpt>
      <trkpt lat="44.12765" lon="0.45626">
        <ele>126</ele>
        <time>2022-09-15T07:12:36.094Z</time>
      </trkpt>
      <trkpt lat="44.12766" lon="0.45625">
        <ele>125</ele>
        <time>2022-09-15T07:12:37.094Z</time>
      </trkpt>
      <trkpt lat="44.12768" lon="0.45625">
        <ele>125</ele>
        <time>2022-09-15T07:12:38.094Z</time>
      </trkpt>
      <trkpt lat="44.12769" lon="0.45624">
        <ele>125</ele>
        <time>2022-09-15T07:12:39.094Z</time>
      </trkpt>
      <trkpt lat="44.12771" lon="0.45624">
        <ele>125</ele>
        <time>2022-09-15T07:12:40.094Z</time>
      </trkpt>
      <trkpt lat="44.12772" lon="0.45623">
        <ele>126</ele>
        <time>2022-09-15T07:12:41.094Z</time>
      </trkpt>
      <trkpt lat="44.12774" lon="0.45623">
        <ele>126</ele>
        <time>2022-09-15T07:12:42.094Z</time>
      </trkpt>
      <trkpt lat="44.12775" lon="0.45623">
        <ele>126</ele>
        <time>2022-09-15T07:12:43.094Z</time>
      </trkpt>
      <trkpt lat="44.12776" lon="0.45622">
        <ele>126</ele>
        <time>2022-09-15T07:12:44.094Z</time>
      </trkpt>
      <trkpt lat="44.12778" lon="0.45622">
        <ele>126</ele>
        <time>2022-09-15T07:12:45.094Z</time>
      </trkpt>
      <trkpt lat="44.12779" lon="0.45622">
        <ele>126</ele>
        <time>2022-09-15T07:12:46.094Z</time>
      </trkpt>
      <trkpt lat="44.1278" lon="0.45621">
        <ele>126</ele>
        <time>2022-09-15T07:12:47.094Z</time>
      </trkpt>
      <trkpt lat="44.12782" lon="0.45621">
        <ele>126</ele>
        <time>2022-09-15T07:12:48.094Z</time>
      </trkpt>
      <trkpt lat="44.12783" lon="0.45621">
        <ele>126</ele>
        <time>2022-09-15T07:12:49.094Z</time>
      </trkpt>
      <trkpt lat="44.12784" lon="0.45621">
        <ele>126</ele>
        <time>2022-09-15T07:12:50.094Z</time>
      </trkpt>
      <trkpt lat="44.12786" lon="0.45621">
        <ele>126</ele>
        <time>2022-09-15T07:12:51.094Z</time>
      </trkpt>
      <trkpt lat="44.12787" lon="0.4562">
        <ele>126</ele>
        <time>2022-09-15T07:12:52.094Z</time>
      </trkpt>
      <trkpt lat="44.12788" lon="0.4562">
        <ele>126</ele>
        <time>2022-09-15T07:12:53.094Z</time>
      </trkpt>
      <trkpt lat="44.1279" lon="0.4562">
        <ele>126</ele>
        <time>2022-09-15T07:12:54.094Z</time>
      </trkpt>
      <trkpt lat="44.12791" lon="0.4562">
        <ele>126</ele>
        <time>2022-09-15T07:12:55.094Z</time>
      </trkpt>
      <trkpt lat="44.12792" lon="0.4562">
        <ele>126</ele>
        <time>2022-09-15T07:12:56.094Z</time>
      </trkpt>
      <trkpt lat="44.12794" lon="0.4562">
        <ele>126</ele>
        <time>2022-09-15T07:12:57.094Z</time>
      </trkpt>
      <trkpt lat="44.12795" lon="0.4562">
        <ele>125</ele>
        <time>2022-09-15T07:12:58.094Z</time>
      </trkpt>
      <trkpt lat="44.12796" lon="0.4562">
        <ele>125</ele>
        <time>2022-09-15T07:12:59.094Z</time>
      </trkpt>
      <trkpt lat="44.12798" lon="0.4562">
        <ele>125</ele>
        <time>2022-09-15T07:13:00.094Z</time>
      </trkpt>
      <trkpt lat="44.12799" lon="0.4562">
        <ele>125</ele>
        <time>2022-09-15T07:13:01.094Z</time>
      </trkpt>
      <trkpt lat="44.128" lon="0.4562">
        <ele>125</ele>
        <time>2022-09-15T07:13:02.094Z</time>
      </trkpt>
      <trkpt lat="44.12801" lon="0.4562">
        <ele>125</ele>
        <time>2022-09-15T07:13:03.094Z</time>
      </trkpt>
      <trkpt lat="44.12803" lon="0.45619">
        <ele>125</ele>
        <time>2022-09-15T07:13:04.094Z</time>
      </trkpt>
      <trkpt lat="44.12804" lon="0.45618">
        <ele>125</ele>
        <time>2022-09-15T07:13:05.094Z</time>
      </trkpt>
      <trkpt lat="44.12805" lon="0.45618">
        <ele>125</ele>
        <time>2022-09-15T07:13:06.094Z</time>
      </trkpt>
      <trkpt lat="44.12806" lon="0.45617">
        <ele>125</ele>
        <time>2022-09-15T07:13:07.094Z</time>
      </trkpt>
      <trkpt lat="44.12807" lon="0.45617">
        <ele>125</ele>
        <time>2022-09-15T07:13:08.094Z</time>
      </trkpt>
      <trkpt lat="44.12809" lon="0.45616">
        <ele>125</ele>
        <time>2022-09-15T07:13:09.094Z</time>
      </trkpt>
      <trkpt lat="44.1281" lon="0.45616">
        <ele>125</ele>
        <time>2022-09-15T07:13:10.094Z</time>
      </trkpt>
      <trkpt lat="44.12811" lon="0.45616">
        <ele>125</ele>
        <time>2022-09-15T07:13:11.094Z</time>
      </trkpt>
      <trkpt lat="44.12812" lon="0.45615">
        <ele>125</ele>
        <time>2022-09-15T07:13:12.094Z</time>
      </trkpt>
      <trkpt lat="44.12814" lon="0.45615">
        <ele>125</ele>
        <time>2022-09-15T07:13:13.094Z</time>
      </trkpt>
      <trkpt lat="44.12815" lon="0.45614">
        <ele>125</ele>
        <time>2022-09-15T07:13:14.094Z</time>
      </trkpt>
      <trkpt lat="44.12816" lon="0.45614">
        <ele>125</ele>
        <time>2022-09-15T07:13:15.094Z</time>
      </trkpt>
      <trkpt lat="44.12817" lon="0.45613">
        <ele>125</ele>
        <time>2022-09-15T07:13:16.094Z</time>
      </trkpt>
      <trkpt lat="44.12819" lon="0.45613">
        <ele>125</ele>
        <time>2022-09-15T07:13:17.094Z</time>
      </trkpt>
      <trkpt lat="44.1282" lon="0.45612">
        <ele>126</ele>
        <time>2022-09-15T07:13:18.094Z</time>
      </trkpt>
      <trkpt lat="44.12821" lon="0.45612">
        <ele>126</ele>
        <time>2022-09-15T07:13:19.094Z</time>
      </trkpt>
      <trkpt lat="44.12822" lon="0.45611">
        <ele>126</ele>
        <time>2022-09-15T07:13:20.094Z</time>
      </trkpt>
      <trkpt lat="44.12824" lon="0.45611">
        <ele>127</ele>
        <time>2022-09-15T07:13:21.094Z</time>
      </trkpt>
      <trkpt lat="44.12825" lon="0.4561">
        <ele>127</ele>
        <time>2022-09-15T07:13:22.094Z</time>
      </trkpt>
      <trkpt lat="44.12826" lon="0.45609">
        <ele>127</ele>
        <time>2022-09-15T07:13:23.094Z</time>
      </trkpt>
      <trkpt lat="44.12827" lon="0.45609">
        <ele>128</ele>
        <time>2022-09-15T07:13:24.094Z</time>
      </trkpt>
      <trkpt lat="44.12828" lon="0.45608">
        <ele>128</ele>
        <time>2022-09-15T07:13:25.094Z</time>
      </trkpt>
      <trkpt lat="44.12829" lon="0.45607">
        <ele>128</ele>
        <time>2022-09-15T07:13:26.094Z</time>
      </trkpt>
      <trkpt lat="44.1283" lon="0.45607">
        <ele>128</ele>
        <time>2022-09-15T07:13:27.094Z</time>
      </trkpt>
      <trkpt lat="44.12831" lon="0.45607">
        <ele>128</ele>
        <time>2022-09-15T07:13:28.094Z</time>
      </trkpt>
      <trkpt lat="44.12833" lon="0.45606">
        <ele>128</ele>
        <time>2022-09-15T07:13:29.094Z</time>
      </trkpt>
      <trkpt lat="44.12834" lon="0.45606">
        <ele>128</ele>
        <time>2022-09-15T07:13:30.094Z</time>
      </trkpt>
      <trkpt lat="44.12835" lon="0.45605">
        <ele>127</ele>
        <time>2022-09-15T07:13:31.094Z</time>
      </trkpt>
      <trkpt lat="44.12837" lon="0.45605">
        <ele>127</ele>
        <time>2022-09-15T07:13:32.094Z</time>
      </trkpt>
      <trkpt lat="44.12838" lon="0.45604">
        <ele>127</ele>
        <time>2022-09-15T07:13:33.094Z</time>
      </trkpt>
      <trkpt lat="44.12839" lon="0.45603">
        <ele>127</ele>
        <time>2022-09-15T07:13:34.094Z</time>
      </trkpt>
      <trkpt lat="44.1284" lon="0.45601">
        <ele>127</ele>
        <time>2022-09-15T07:13:35.094Z</time>
      </trkpt>
      <trkpt lat="44.12841" lon="0.456">
        <ele>127</ele>
        <time>2022-09-15T07:13:36.094Z</time>
      </trkpt>
      <trkpt lat="44.12841" lon="0.45599">
        <ele>127</ele>
        <time>2022-09-15T07:13:37.094Z</time>
      </trkpt>
      <trkpt lat="44.12842" lon="0.45598">
        <ele>127</ele>
        <time>2022-09-15T07:13:38.094Z</time>
      </trkpt>
      <trkpt lat="44.12843" lon="0.45598">
        <ele>127</ele>
        <time>2022-09-15T07:13:39.094Z</time>
      </trkpt>
      <trkpt lat="44.12844" lon="0.45597">
        <ele>126</ele>
        <time>2022-09-15T07:13:40.094Z</time>
      </trkpt>
      <trkpt lat="44.12845" lon="0.45596">
        <ele>126</ele>
        <time>2022-09-15T07:13:41.094Z</time>
      </trkpt>
      <trkpt lat="44.12846" lon="0.45595">
        <ele>126</ele>
        <time>2022-09-15T07:13:42.094Z</time>
      </trkpt>
      <trkpt lat="44.12847" lon="0.45594">
        <ele>126</ele>
        <time>2022-09-15T07:13:43.094Z</time>
      </trkpt>
      <trkpt lat="44.12848" lon="0.45593">
        <ele>125</ele>
        <time>2022-09-15T07:13:44.094Z</time>
      </trkpt>
      <trkpt lat="44.12849" lon="0.45592">
        <ele>125</ele>
        <time>2022-09-15T07:13:45.094Z</time>
      </trkpt>
      <trkpt lat="44.1285" lon="0.45591">
        <ele>125</ele>
        <time>2022-09-15T07:13:46.094Z</time>
      </trkpt>
      <trkpt lat="44.1285" lon="0.4559">
        <ele>125</ele>
        <time>2022-09-15T07:13:47.094Z</time>
      </trkpt>
      <trkpt lat="44.12851" lon="0.45589">
        <ele>125</ele>
        <time>2022-09-15T07:13:48.094Z</time>
      </trkpt>
      <trkpt lat="44.12852" lon="0.45589">
        <ele>124</ele>
        <time>2022-09-15T07:13:49.094Z</time>
      </trkpt>
      <trkpt lat="44.12853" lon="0.45588">
        <ele>124</ele>
        <time>2022-09-15T07:13:50.094Z</time>
      </trkpt>
      <trkpt lat="44.12854" lon="0.45587">
        <ele>124</ele>
        <time>2022-09-15T07:13:51.094Z</time>
      </trkpt>
      <trkpt lat="44.12855" lon="0.45586">
        <ele>124</ele>
        <time>2022-09-15T07:13:52.094Z</time>
      </trkpt>
      <trkpt lat="44.12856" lon="0.45585">
        <ele>124</ele>
        <time>2022-09-15T07:13:53.094Z</time>
      </trkpt>
      <trkpt lat="44.12857" lon="0.45585">
        <ele>123</ele>
        <time>2022-09-15T07:13:54.094Z</time>
      </trkpt>
      <trkpt lat="44.12857" lon="0.45584">
        <ele>123</ele>
        <time>2022-09-15T07:13:55.094Z</time>
      </trkpt>
      <trkpt lat="44.12858" lon="0.45583">
        <ele>122</ele>
        <time>2022-09-15T07:13:56.094Z</time>
      </trkpt>
      <trkpt lat="44.12859" lon="0.45581">
        <ele>122</ele>
        <time>2022-09-15T07:13:57.094Z</time>
      </trkpt>
      <trkpt lat="44.12859" lon="0.4558">
        <ele>122</ele>
        <time>2022-09-15T07:13:58.094Z</time>
      </trkpt>
      <trkpt lat="44.1286" lon="0.45579">
        <ele>122</ele>
        <time>2022-09-15T07:13:59.094Z</time>
      </trkpt>
      <trkpt lat="44.12861" lon="0.45578">
        <ele>122</ele>
        <time>2022-09-15T07:14:00.094Z</time>
      </trkpt>
      <trkpt lat="44.12862" lon="0.45577">
        <ele>122</ele>
        <time>2022-09-15T07:14:01.094Z</time>
      </trkpt>
      <trkpt lat="44.12863" lon="0.45576">
        <ele>122</ele>
        <time>2022-09-15T07:14:02.094Z</time>
      </trkpt>
      <trkpt lat="44.12864" lon="0.45575">
        <ele>121</ele>
        <time>2022-09-15T07:14:03.094Z</time>
      </trkpt>
      <trkpt lat="44.12864" lon="0.45573">
        <ele>122</ele>
        <time>2022-09-15T07:14:04.094Z</time>
      </trkpt>
      <trkpt lat="44.12865" lon="0.45572">
        <ele>121</ele>
        <time>2022-09-15T07:14:05.094Z</time>
      </trkpt>
      <trkpt lat="44.12866" lon="0.45571">
        <ele>122</ele>
        <time>2022-09-15T07:14:06.094Z</time>
      </trkpt>
      <trkpt lat="44.12867" lon="0.4557">
        <ele>121</ele>
        <time>2022-09-15T07:14:07.094Z</time>
      </trkpt>
      <trkpt lat="44.12867" lon="0.45569">
        <ele>122</ele>
        <time>2022-09-15T07:14:08.094Z</time>
      </trkpt>
      <trkpt lat="44.12868" lon="0.45567">
        <ele>122</ele>
        <time>2022-09-15T07:14:09.094Z</time>
      </trkpt>
      <trkpt lat="44.12869" lon="0.45566">
        <ele>122</ele>
        <time>2022-09-15T07:14:10.094Z</time>
      </trkpt>
      <trkpt lat="44.1287" lon="0.45565">
        <ele>121</ele>
        <time>2022-09-15T07:14:11.094Z</time>
      </trkpt>
      <trkpt lat="44.12871" lon="0.45564">
        <ele>121</ele>
        <time>2022-09-15T07:14:12.094Z</time>
      </trkpt>
      <trkpt lat="44.12872" lon="0.45563">
        <ele>122</ele>
        <time>2022-09-15T07:14:13.094Z</time>
      </trkpt>
      <trkpt lat="44.12873" lon="0.45561">
        <ele>122</ele>
        <time>2022-09-15T07:14:14.094Z</time>
      </trkpt>
      <trkpt lat="44.12874" lon="0.4556">
        <ele>122</ele>
        <time>2022-09-15T07:14:15.094Z</time>
      </trkpt>
      <trkpt lat="44.12875" lon="0.45559">
        <ele>121</ele>
        <time>2022-09-15T07:14:16.094Z</time>
      </trkpt>
      <trkpt lat="44.12876" lon="0.45558">
        <ele>121</ele>
        <time>2022-09-15T07:14:17.094Z</time>
      </trkpt>
      <trkpt lat="44.12877" lon="0.45557">
        <ele>121</ele>
        <time>2022-09-15T07:14:18.094Z</time>
      </trkpt>
      <trkpt lat="44.12878" lon="0.45555">
        <ele>121</ele>
        <time>2022-09-15T07:14:19.094Z</time>
      </trkpt>
      <trkpt lat="44.12879" lon="0.45554">
        <ele>120</ele>
        <time>2022-09-15T07:14:20.094Z</time>
      </trkpt>
      <trkpt lat="44.12879" lon="0.45553">
        <ele>120</ele>
        <time>2022-09-15T07:14:21.094Z</time>
      </trkpt>
      <trkpt lat="44.1288" lon="0.45552">
        <ele>120</ele>
        <time>2022-09-15T07:14:22.094Z</time>
      </trkpt>
      <trkpt lat="44.12881" lon="0.4555">
        <ele>120</ele>
        <time>2022-09-15T07:14:23.094Z</time>
      </trkpt>
      <trkpt lat="44.12882" lon="0.45549">
        <ele>121</ele>
        <time>2022-09-15T07:14:24.094Z</time>
      </trkpt>
      <trkpt lat="44.12883" lon="0.45548">
        <ele>121</ele>
        <time>2022-09-15T07:14:25.094Z</time>
      </trkpt>
      <trkpt lat="44.12884" lon="0.45546">
        <ele>121</ele>
        <time>2022-09-15T07:14:26.094Z</time>
      </trkpt>
      <trkpt lat="44.12885" lon="0.45545">
        <ele>121</ele>
        <time>2022-09-15T07:14:27.094Z</time>
      </trkpt>
      <trkpt lat="44.12886" lon="0.45544">
        <ele>121</ele>
        <time>2022-09-15T07:14:28.094Z</time>
      </trkpt>
      <trkpt lat="44.12887" lon="0.45543">
        <ele>121</ele>
        <time>2022-09-15T07:14:29.094Z</time>
      </trkpt>
      <trkpt lat="44.12888" lon="0.45542">
        <ele>121</ele>
        <time>2022-09-15T07:14:30.094Z</time>
      </trkpt>
      <trkpt lat="44.12889" lon="0.45541">
        <ele>121</ele>
        <time>2022-09-15T07:14:31.094Z</time>
      </trkpt>
      <trkpt lat="44.1289" lon="0.4554">
        <ele>121</ele>
        <time>2022-09-15T07:14:32.094Z</time>
      </trkpt>
      <trkpt lat="44.1289" lon="0.45539">
        <ele>120</ele>
        <time>2022-09-15T07:14:33.094Z</time>
      </trkpt>
      <trkpt lat="44.12891" lon="0.45538">
        <ele>120</ele>
        <time>2022-09-15T07:14:34.094Z</time>
      </trkpt>
      <trkpt lat="44.12892" lon="0.45537">
        <ele>120</ele>
        <time>2022-09-15T07:14:35.094Z</time>
      </trkpt>
      <trkpt lat="44.12893" lon="0.45536">
        <ele>120</ele>
        <time>2022-09-15T07:14:36.094Z</time>
      </trkpt>
      <trkpt lat="44.12894" lon="0.45535">
        <ele>120</ele>
        <time>2022-09-15T07:14:37.094Z</time>
      </trkpt>
      <trkpt lat="44.12895" lon="0.45534">
        <ele>121</ele>
        <time>2022-09-15T07:14:38.094Z</time>
      </trkpt>
      <trkpt lat="44.12896" lon="0.45533">
        <ele>121</ele>
        <time>2022-09-15T07:14:39.094Z</time>
      </trkpt>
      <trkpt lat="44.12898" lon="0.45532">
        <ele>121</ele>
        <time>2022-09-15T07:14:40.094Z</time>
      </trkpt>
      <trkpt lat="44.12899" lon="0.45531">
        <ele>121</ele>
        <time>2022-09-15T07:14:41.094Z</time>
      </trkpt>
      <trkpt lat="44.129" lon="0.4553">
        <ele>121</ele>
        <time>2022-09-15T07:14:42.094Z</time>
      </trkpt>
      <trkpt lat="44.12901" lon="0.4553">
        <ele>121</ele>
        <time>2022-09-15T07:14:43.094Z</time>
      </trkpt>
      <trkpt lat="44.12901" lon="0.45529">
        <ele>121</ele>
        <time>2022-09-15T07:14:44.094Z</time>
      </trkpt>
      <trkpt lat="44.12902" lon="0.45528">
        <ele>120</ele>
        <time>2022-09-15T07:14:45.094Z</time>
      </trkpt>
      <trkpt lat="44.12903" lon="0.45527">
        <ele>120</ele>
        <time>2022-09-15T07:14:46.094Z</time>
      </trkpt>
      <trkpt lat="44.12904" lon="0.45526">
        <ele>120</ele>
        <time>2022-09-15T07:14:47.094Z</time>
      </trkpt>
      <trkpt lat="44.12905" lon="0.45525">
        <ele>120</ele>
        <time>2022-09-15T07:14:48.094Z</time>
      </trkpt>
      <trkpt lat="44.12906" lon="0.45524">
        <ele>121</ele>
        <time>2022-09-15T07:14:49.094Z</time>
      </trkpt>
      <trkpt lat="44.12907" lon="0.45523">
        <ele>120</ele>
        <time>2022-09-15T07:14:50.094Z</time>
      </trkpt>
      <trkpt lat="44.12908" lon="0.45522">
        <ele>120</ele>
        <time>2022-09-15T07:14:51.094Z</time>
      </trkpt>
      <trkpt lat="44.12908" lon="0.45521">
        <ele>121</ele>
        <time>2022-09-15T07:14:52.094Z</time>
      </trkpt>
      <trkpt lat="44.1291" lon="0.4552">
        <ele>121</ele>
        <time>2022-09-15T07:14:53.094Z</time>
      </trkpt>
      <trkpt lat="44.12911" lon="0.45519">
        <ele>121</ele>
        <time>2022-09-15T07:14:54.094Z</time>
      </trkpt>
      <trkpt lat="44.12912" lon="0.45517">
        <ele>122</ele>
        <time>2022-09-15T07:14:55.094Z</time>
      </trkpt>
      <trkpt lat="44.12913" lon="0.45516">
        <ele>122</ele>
        <time>2022-09-15T07:14:56.094Z</time>
      </trkpt>
      <trkpt lat="44.12915" lon="0.45514">
        <ele>123</ele>
        <time>2022-09-15T07:14:57.094Z</time>
      </trkpt>
      <trkpt lat="44.12916" lon="0.45512">
        <ele>123</ele>
        <time>2022-09-15T07:14:58.094Z</time>
      </trkpt>
      <trkpt lat="44.12917" lon="0.45511">
        <ele>123</ele>
        <time>2022-09-15T07:14:59.094Z</time>
      </trkpt>
      <trkpt lat="44.12918" lon="0.4551">
        <ele>123</ele>
        <time>2022-09-15T07:15:00.094Z</time>
      </trkpt>
      <trkpt lat="44.12918" lon="0.45509">
        <ele>123</ele>
        <time>2022-09-15T07:15:01.094Z</time>
      </trkpt>
      <trkpt lat="44.12919" lon="0.45508">
        <ele>123</ele>
        <time>2022-09-15T07:15:02.094Z</time>
      </trkpt>
      <trkpt lat="44.12921" lon="0.45506">
        <ele>123</ele>
        <time>2022-09-15T07:15:03.094Z</time>
      </trkpt>
      <trkpt lat="44.12922" lon="0.45505">
        <ele>123</ele>
        <time>2022-09-15T07:15:04.094Z</time>
      </trkpt>
      <trkpt lat="44.12923" lon="0.45504">
        <ele>124</ele>
        <time>2022-09-15T07:15:05.094Z</time>
      </trkpt>
      <trkpt lat="44.12924" lon="0.45503">
        <ele>124</ele>
        <time>2022-09-15T07:15:06.094Z</time>
      </trkpt>
      <trkpt lat="44.12925" lon="0.45502">
        <ele>124</ele>
        <time>2022-09-15T07:15:07.094Z</time>
      </trkpt>
      <trkpt lat="44.12926" lon="0.45502">
        <ele>124</ele>
        <time>2022-09-15T07:15:08.094Z</time>
      </trkpt>
      <trkpt lat="44.12927" lon="0.45501">
        <ele>124</ele>
        <time>2022-09-15T07:15:09.094Z</time>
      </trkpt>
      <trkpt lat="44.12928" lon="0.455">
        <ele>124</ele>
        <time>2022-09-15T07:15:10.094Z</time>
      </trkpt>
      <trkpt lat="44.12929" lon="0.45499">
        <ele>124</ele>
        <time>2022-09-15T07:15:11.094Z</time>
      </trkpt>
      <trkpt lat="44.1293" lon="0.45498">
        <ele>124</ele>
        <time>2022-09-15T07:15:12.094Z</time>
      </trkpt>
      <trkpt lat="44.12931" lon="0.45497">
        <ele>124</ele>
        <time>2022-09-15T07:15:13.094Z</time>
      </trkpt>
      <trkpt lat="44.12932" lon="0.45495">
        <ele>125</ele>
        <time>2022-09-15T07:15:14.094Z</time>
      </trkpt>
      <trkpt lat="44.12933" lon="0.45494">
        <ele>125</ele>
        <time>2022-09-15T07:15:15.094Z</time>
      </trkpt>
      <trkpt lat="44.12934" lon="0.45494">
        <ele>125</ele>
        <time>2022-09-15T07:15:16.094Z</time>
      </trkpt>
      <trkpt lat="44.12935" lon="0.45493">
        <ele>125</ele>
        <time>2022-09-15T07:15:17.094Z</time>
      </trkpt>
      <trkpt lat="44.12936" lon="0.45492">
        <ele>124</ele>
        <time>2022-09-15T07:15:18.094Z</time>
      </trkpt>
      <trkpt lat="44.12937" lon="0.45491">
        <ele>125</ele>
        <time>2022-09-15T07:15:19.094Z</time>
      </trkpt>
      <trkpt lat="44.12938" lon="0.4549">
        <ele>125</ele>
        <time>2022-09-15T07:15:20.094Z</time>
      </trkpt>
      <trkpt lat="44.12939" lon="0.45489">
        <ele>125</ele>
        <time>2022-09-15T07:15:21.094Z</time>
      </trkpt>
      <trkpt lat="44.1294" lon="0.45488">
        <ele>125</ele>
        <time>2022-09-15T07:15:22.094Z</time>
      </trkpt>
      <trkpt lat="44.12942" lon="0.45487">
        <ele>126</ele>
        <time>2022-09-15T07:15:23.094Z</time>
      </trkpt>
      <trkpt lat="44.12942" lon="0.45486">
        <ele>126</ele>
        <time>2022-09-15T07:15:24.094Z</time>
      </trkpt>
      <trkpt lat="44.12944" lon="0.45485">
        <ele>126</ele>
        <time>2022-09-15T07:15:25.094Z</time>
      </trkpt>
      <trkpt lat="44.12944" lon="0.45485">
        <ele>126</ele>
        <time>2022-09-15T07:15:26.094Z</time>
      </trkpt>
      <trkpt lat="44.12945" lon="0.45484">
        <ele>126</ele>
        <time>2022-09-15T07:15:27.094Z</time>
      </trkpt>
      <trkpt lat="44.12946" lon="0.45482">
        <ele>126</ele>
        <time>2022-09-15T07:15:28.094Z</time>
      </trkpt>
      <trkpt lat="44.12947" lon="0.45481">
        <ele>126</ele>
        <time>2022-09-15T07:15:29.094Z</time>
      </trkpt>
      <trkpt lat="44.12948" lon="0.4548">
        <ele>126</ele>
        <time>2022-09-15T07:15:30.094Z</time>
      </trkpt>
      <trkpt lat="44.12949" lon="0.45479">
        <ele>125</ele>
        <time>2022-09-15T07:15:31.094Z</time>
      </trkpt>
      <trkpt lat="44.1295" lon="0.45478">
        <ele>125</ele>
        <time>2022-09-15T07:15:32.094Z</time>
      </trkpt>
      <trkpt lat="44.12951" lon="0.45477">
        <ele>126</ele>
        <time>2022-09-15T07:15:33.094Z</time>
      </trkpt>
      <trkpt lat="44.12952" lon="0.45476">
        <ele>126</ele>
        <time>2022-09-15T07:15:34.094Z</time>
      </trkpt>
      <trkpt lat="44.12953" lon="0.45475">
        <ele>125</ele>
        <time>2022-09-15T07:15:35.094Z</time>
      </trkpt>
      <trkpt lat="44.12954" lon="0.45474">
        <ele>126</ele>
        <time>2022-09-15T07:15:36.094Z</time>
      </trkpt>
      <trkpt lat="44.12955" lon="0.45473">
        <ele>126</ele>
        <time>2022-09-15T07:15:37.094Z</time>
      </trkpt>
      <trkpt lat="44.12956" lon="0.45471">
        <ele>125</ele>
        <time>2022-09-15T07:15:38.094Z</time>
      </trkpt>
      <trkpt lat="44.12957" lon="0.4547">
        <ele>126</ele>
        <time>2022-09-15T07:15:39.094Z</time>
      </trkpt>
      <trkpt lat="44.12958" lon="0.45469">
        <ele>125</ele>
        <time>2022-09-15T07:15:40.094Z</time>
      </trkpt>
      <trkpt lat="44.12959" lon="0.45468">
        <ele>125</ele>
        <time>2022-09-15T07:15:41.094Z</time>
      </trkpt>
      <trkpt lat="44.1296" lon="0.45467">
        <ele>125</ele>
        <time>2022-09-15T07:15:42.094Z</time>
      </trkpt>
      <trkpt lat="44.12961" lon="0.45466">
        <ele>125</ele>
        <time>2022-09-15T07:15:43.094Z</time>
      </trkpt>
      <trkpt lat="44.12962" lon="0.45464">
        <ele>125</ele>
        <time>2022-09-15T07:15:44.094Z</time>
      </trkpt>
      <trkpt lat="44.12963" lon="0.45463">
        <ele>125</ele>
        <time>2022-09-15T07:15:45.094Z</time>
      </trkpt>
      <trkpt lat="44.12964" lon="0.45463">
        <ele>125</ele>
        <time>2022-09-15T07:15:46.094Z</time>
      </trkpt>
      <trkpt lat="44.12965" lon="0.45462">
        <ele>125</ele>
        <time>2022-09-15T07:15:47.094Z</time>
      </trkpt>
      <trkpt lat="44.12967" lon="0.45462">
        <ele>125</ele>
        <time>2022-09-15T07:15:48.094Z</time>
      </trkpt>
      <trkpt lat="44.12968" lon="0.45461">
        <ele>125</ele>
        <time>2022-09-15T07:15:49.094Z</time>
      </trkpt>
      <trkpt lat="44.12969" lon="0.4546">
        <ele>125</ele>
        <time>2022-09-15T07:15:50.094Z</time>
      </trkpt>
      <trkpt lat="44.1297" lon="0.45459">
        <ele>125</ele>
        <time>2022-09-15T07:15:51.094Z</time>
      </trkpt>
      <trkpt lat="44.12971" lon="0.45457">
        <ele>125</ele>
        <time>2022-09-15T07:15:52.094Z</time>
      </trkpt>
      <trkpt lat="44.12972" lon="0.45457">
        <ele>125</ele>
        <time>2022-09-15T07:15:53.094Z</time>
      </trkpt>
      <trkpt lat="44.12973" lon="0.45456">
        <ele>125</ele>
        <time>2022-09-15T07:15:54.094Z</time>
      </trkpt>
      <trkpt lat="44.12974" lon="0.45455">
        <ele>125</ele>
        <time>2022-09-15T07:15:55.094Z</time>
      </trkpt>
      <trkpt lat="44.12975" lon="0.45454">
        <ele>125</ele>
        <time>2022-09-15T07:15:56.094Z</time>
      </trkpt>
      <trkpt lat="44.12976" lon="0.45453">
        <ele>125</ele>
        <time>2022-09-15T07:15:57.094Z</time>
      </trkpt>
      <trkpt lat="44.12977" lon="0.45452">
        <ele>124</ele>
        <time>2022-09-15T07:15:58.094Z</time>
      </trkpt>
      <trkpt lat="44.12978" lon="0.45451">
        <ele>125</ele>
        <time>2022-09-15T07:15:59.094Z</time>
      </trkpt>
      <trkpt lat="44.12979" lon="0.4545">
        <ele>125</ele>
        <time>2022-09-15T07:16:00.094Z</time>
      </trkpt>
      <trkpt lat="44.12979" lon="0.45448">
        <ele>125</ele>
        <time>2022-09-15T07:16:01.094Z</time>
      </trkpt>
      <trkpt lat="44.1298" lon="0.45447">
        <ele>124</ele>
        <time>2022-09-15T07:16:02.094Z</time>
      </trkpt>
      <trkpt lat="44.12981" lon="0.45445">
        <ele>126</ele>
        <time>2022-09-15T07:16:03.094Z</time>
      </trkpt>
      <trkpt lat="44.12982" lon="0.45444">
        <ele>126</ele>
        <time>2022-09-15T07:16:04.094Z</time>
      </trkpt>
      <trkpt lat="44.12983" lon="0.45443">
        <ele>125</ele>
        <time>2022-09-15T07:16:05.094Z</time>
      </trkpt>
      <trkpt lat="44.12985" lon="0.45443">
        <ele>125</ele>
        <time>2022-09-15T07:16:06.094Z</time>
      </trkpt>
      <trkpt lat="44.12986" lon="0.45442">
        <ele>125</ele>
        <time>2022-09-15T07:16:07.094Z</time>
      </trkpt>
      <trkpt lat="44.12986" lon="0.45441">
        <ele>125</ele>
        <time>2022-09-15T07:16:08.094Z</time>
      </trkpt>
      <trkpt lat="44.12988" lon="0.4544">
        <ele>126</ele>
        <time>2022-09-15T07:16:09.094Z</time>
      </trkpt>
      <trkpt lat="44.12989" lon="0.45439">
        <ele>126</ele>
        <time>2022-09-15T07:16:10.094Z</time>
      </trkpt>
      <trkpt lat="44.1299" lon="0.45438">
        <ele>125</ele>
        <time>2022-09-15T07:16:11.094Z</time>
      </trkpt>
      <trkpt lat="44.12991" lon="0.45438">
        <ele>125</ele>
        <time>2022-09-15T07:16:12.094Z</time>
      </trkpt>
      <trkpt lat="44.12992" lon="0.45437">
        <ele>125</ele>
        <time>2022-09-15T07:16:13.094Z</time>
      </trkpt>
      <trkpt lat="44.12993" lon="0.45436">
        <ele>125</ele>
        <time>2022-09-15T07:16:14.094Z</time>
      </trkpt>
      <trkpt lat="44.12994" lon="0.45435">
        <ele>125</ele>
        <time>2022-09-15T07:16:15.094Z</time>
      </trkpt>
      <trkpt lat="44.12995" lon="0.45434">
        <ele>125</ele>
        <time>2022-09-15T07:16:16.094Z</time>
      </trkpt>
      <trkpt lat="44.12996" lon="0.45433">
        <ele>125</ele>
        <time>2022-09-15T07:16:17.094Z</time>
      </trkpt>
      <trkpt lat="44.12996" lon="0.45431">
        <ele>126</ele>
        <time>2022-09-15T07:16:18.094Z</time>
      </trkpt>
      <trkpt lat="44.12997" lon="0.45431">
        <ele>126</ele>
        <time>2022-09-15T07:16:19.094Z</time>
      </trkpt>
      <trkpt lat="44.12999" lon="0.4543">
        <ele>126</ele>
        <time>2022-09-15T07:16:20.094Z</time>
      </trkpt>
      <trkpt lat="44.13" lon="0.45429">
        <ele>126</ele>
        <time>2022-09-15T07:16:21.094Z</time>
      </trkpt>
      <trkpt lat="44.13001" lon="0.45428">
        <ele>125</ele>
        <time>2022-09-15T07:16:22.094Z</time>
      </trkpt>
      <trkpt lat="44.13002" lon="0.45427">
        <ele>125</ele>
        <time>2022-09-15T07:16:23.094Z</time>
      </trkpt>
      <trkpt lat="44.13003" lon="0.45426">
        <ele>125</ele>
        <time>2022-09-15T07:16:24.094Z</time>
      </trkpt>
      <trkpt lat="44.13004" lon="0.45425">
        <ele>125</ele>
        <time>2022-09-15T07:16:25.094Z</time>
      </trkpt>
      <trkpt lat="44.13005" lon="0.45424">
        <ele>125</ele>
        <time>2022-09-15T07:16:26.094Z</time>
      </trkpt>
      <trkpt lat="44.13005" lon="0.45422">
        <ele>125</ele>
        <time>2022-09-15T07:16:27.094Z</time>
      </trkpt>
      <trkpt lat="44.13006" lon="0.45421">
        <ele>125</ele>
        <time>2022-09-15T07:16:28.094Z</time>
      </trkpt>
      <trkpt lat="44.13007" lon="0.4542">
        <ele>125</ele>
        <time>2022-09-15T07:16:29.094Z</time>
      </trkpt>
      <trkpt lat="44.13008" lon="0.45419">
        <ele>125</ele>
        <time>2022-09-15T07:16:30.094Z</time>
      </trkpt>
      <trkpt lat="44.13009" lon="0.45418">
        <ele>126</ele>
        <time>2022-09-15T07:16:31.094Z</time>
      </trkpt>
      <trkpt lat="44.13009" lon="0.45418">
        <ele>126</ele>
        <time>2022-09-15T07:16:32.094Z</time>
      </trkpt>
      <trkpt lat="44.1301" lon="0.45417">
        <ele>126</ele>
        <time>2022-09-15T07:16:33.094Z</time>
      </trkpt>
      <trkpt lat="44.13011" lon="0.45416">
        <ele>125</ele>
        <time>2022-09-15T07:16:34.094Z</time>
      </trkpt>
      <trkpt lat="44.13013" lon="0.45415">
        <ele>125</ele>
        <time>2022-09-15T07:16:35.094Z</time>
      </trkpt>
      <trkpt lat="44.13014" lon="0.45414">
        <ele>125</ele>
        <time>2022-09-15T07:16:36.094Z</time>
      </trkpt>
      <trkpt lat="44.13015" lon="0.45413">
        <ele>125</ele>
        <time>2022-09-15T07:16:37.094Z</time>
      </trkpt>
      <trkpt lat="44.13016" lon="0.45412">
        <ele>125</ele>
        <time>2022-09-15T07:16:38.094Z</time>
      </trkpt>
      <trkpt lat="44.13017" lon="0.45411">
        <ele>125</ele>
        <time>2022-09-15T07:16:39.094Z</time>
      </trkpt>
      <trkpt lat="44.13018" lon="0.4541">
        <ele>125</ele>
        <time>2022-09-15T07:16:40.094Z</time>
      </trkpt>
      <trkpt lat="44.13019" lon="0.45409">
        <ele>124</ele>
        <time>2022-09-15T07:16:41.094Z</time>
      </trkpt>
      <trkpt lat="44.1302" lon="0.45408">
        <ele>124</ele>
        <time>2022-09-15T07:16:42.094Z</time>
      </trkpt>
      <trkpt lat="44.13022" lon="0.45406">
        <ele>124</ele>
        <time>2022-09-15T07:16:43.094Z</time>
      </trkpt>
      <trkpt lat="44.13023" lon="0.45406">
        <ele>124</ele>
        <time>2022-09-15T07:16:44.094Z</time>
      </trkpt>
      <trkpt lat="44.13024" lon="0.45405">
        <ele>124</ele>
        <time>2022-09-15T07:16:45.094Z</time>
      </trkpt>
      <trkpt lat="44.13024" lon="0.45404">
        <ele>123</ele>
        <time>2022-09-15T07:16:46.094Z</time>
      </trkpt>
      <trkpt lat="44.13025" lon="0.45403">
        <ele>123</ele>
        <time>2022-09-15T07:16:47.094Z</time>
      </trkpt>
      <trkpt lat="44.13026" lon="0.45402">
        <ele>123</ele>
        <time>2022-09-15T07:16:48.094Z</time>
      </trkpt>
      <trkpt lat="44.13027" lon="0.45401">
        <ele>123</ele>
        <time>2022-09-15T07:16:49.094Z</time>
      </trkpt>
      <trkpt lat="44.13028" lon="0.454">
        <ele>123</ele>
        <time>2022-09-15T07:16:50.094Z</time>
      </trkpt>
      <trkpt lat="44.13029" lon="0.45399">
        <ele>123</ele>
        <time>2022-09-15T07:16:51.094Z</time>
      </trkpt>
      <trkpt lat="44.13031" lon="0.45398">
        <ele>123</ele>
        <time>2022-09-15T07:16:52.094Z</time>
      </trkpt>
      <trkpt lat="44.13032" lon="0.45397">
        <ele>123</ele>
        <time>2022-09-15T07:16:53.094Z</time>
      </trkpt>
      <trkpt lat="44.13033" lon="0.45396">
        <ele>123</ele>
        <time>2022-09-15T07:16:54.094Z</time>
      </trkpt>
      <trkpt lat="44.13034" lon="0.45395">
        <ele>122</ele>
        <time>2022-09-15T07:16:55.094Z</time>
      </trkpt>
      <trkpt lat="44.13035" lon="0.45394">
        <ele>123</ele>
        <time>2022-09-15T07:16:56.094Z</time>
      </trkpt>
      <trkpt lat="44.13036" lon="0.45393">
        <ele>123</ele>
        <time>2022-09-15T07:16:57.094Z</time>
      </trkpt>
      <trkpt lat="44.13037" lon="0.45392">
        <ele>123</ele>
        <time>2022-09-15T07:16:58.094Z</time>
      </trkpt>
      <trkpt lat="44.13038" lon="0.45391">
        <ele>123</ele>
        <time>2022-09-15T07:16:59.094Z</time>
      </trkpt>
      <trkpt lat="44.13039" lon="0.4539">
        <ele>123</ele>
        <time>2022-09-15T07:17:00.094Z</time>
      </trkpt>
      <trkpt lat="44.1304" lon="0.45389">
        <ele>123</ele>
        <time>2022-09-15T07:17:01.094Z</time>
      </trkpt>
      <trkpt lat="44.13042" lon="0.45388">
        <ele>124</ele>
        <time>2022-09-15T07:17:02.094Z</time>
      </trkpt>
      <trkpt lat="44.13043" lon="0.45387">
        <ele>123</ele>
        <time>2022-09-15T07:17:03.094Z</time>
      </trkpt>
      <trkpt lat="44.13044" lon="0.45386">
        <ele>123</ele>
        <time>2022-09-15T07:17:04.094Z</time>
      </trkpt>
      <trkpt lat="44.13045" lon="0.45385">
        <ele>123</ele>
        <time>2022-09-15T07:17:05.094Z</time>
      </trkpt>
      <trkpt lat="44.13046" lon="0.45384">
        <ele>123</ele>
        <time>2022-09-15T07:17:06.094Z</time>
      </trkpt>
      <trkpt lat="44.13047" lon="0.45382">
        <ele>123</ele>
        <time>2022-09-15T07:17:07.094Z</time>
      </trkpt>
      <trkpt lat="44.13047" lon="0.45381">
        <ele>124</ele>
        <time>2022-09-15T07:17:08.094Z</time>
      </trkpt>
      <trkpt lat="44.13048" lon="0.4538">
        <ele>124</ele>
        <time>2022-09-15T07:17:09.094Z</time>
      </trkpt>
      <trkpt lat="44.13049" lon="0.45379">
        <ele>125</ele>
        <time>2022-09-15T07:17:10.094Z</time>
      </trkpt>
      <trkpt lat="44.1305" lon="0.45378">
        <ele>124</ele>
        <time>2022-09-15T07:17:11.094Z</time>
      </trkpt>
      <trkpt lat="44.13051" lon="0.45377">
        <ele>124</ele>
        <time>2022-09-15T07:17:12.094Z</time>
      </trkpt>
      <trkpt lat="44.13052" lon="0.45376">
        <ele>124</ele>
        <time>2022-09-15T07:17:13.094Z</time>
      </trkpt>
      <trkpt lat="44.13053" lon="0.45375">
        <ele>124</ele>
        <time>2022-09-15T07:17:14.094Z</time>
      </trkpt>
      <trkpt lat="44.13054" lon="0.45374">
        <ele>124</ele>
        <time>2022-09-15T07:17:15.094Z</time>
      </trkpt>
      <trkpt lat="44.13055" lon="0.45372">
        <ele>124</ele>
        <time>2022-09-15T07:17:16.094Z</time>
      </trkpt>
      <trkpt lat="44.13057" lon="0.45371">
        <ele>125</ele>
        <time>2022-09-15T07:17:17.094Z</time>
      </trkpt>
      <trkpt lat="44.13058" lon="0.4537">
        <ele>125</ele>
        <time>2022-09-15T07:17:18.094Z</time>
      </trkpt>
      <trkpt lat="44.13059" lon="0.45369">
        <ele>125</ele>
        <time>2022-09-15T07:17:19.094Z</time>
      </trkpt>
      <trkpt lat="44.1306" lon="0.45368">
        <ele>125</ele>
        <time>2022-09-15T07:17:20.094Z</time>
      </trkpt>
      <trkpt lat="44.13061" lon="0.45367">
        <ele>125</ele>
        <time>2022-09-15T07:17:21.094Z</time>
      </trkpt>
      <trkpt lat="44.13062" lon="0.45366">
        <ele>124</ele>
        <time>2022-09-15T07:17:22.094Z</time>
      </trkpt>
      <trkpt lat="44.13063" lon="0.45366">
        <ele>125</ele>
        <time>2022-09-15T07:17:23.094Z</time>
      </trkpt>
      <trkpt lat="44.13065" lon="0.45365">
        <ele>125</ele>
        <time>2022-09-15T07:17:24.094Z</time>
      </trkpt>
      <trkpt lat="44.13066" lon="0.45364">
        <ele>125</ele>
        <time>2022-09-15T07:17:25.094Z</time>
      </trkpt>
      <trkpt lat="44.13067" lon="0.45364">
        <ele>125</ele>
        <time>2022-09-15T07:17:26.094Z</time>
      </trkpt>
      <trkpt lat="44.13068" lon="0.45363">
        <ele>126</ele>
        <time>2022-09-15T07:17:27.094Z</time>
      </trkpt>
      <trkpt lat="44.13069" lon="0.45362">
        <ele>126</ele>
        <time>2022-09-15T07:17:28.094Z</time>
      </trkpt>
      <trkpt lat="44.13071" lon="0.45361">
        <ele>127</ele>
        <time>2022-09-15T07:17:29.094Z</time>
      </trkpt>
      <trkpt lat="44.13072" lon="0.4536">
        <ele>127</ele>
        <time>2022-09-15T07:17:30.094Z</time>
      </trkpt>
      <trkpt lat="44.13073" lon="0.45359">
        <ele>127</ele>
        <time>2022-09-15T07:17:31.094Z</time>
      </trkpt>
      <trkpt lat="44.13074" lon="0.45358">
        <ele>127</ele>
        <time>2022-09-15T07:17:32.094Z</time>
      </trkpt>
      <trkpt lat="44.13075" lon="0.45357">
        <ele>127</ele>
        <time>2022-09-15T07:17:33.094Z</time>
      </trkpt>
      <trkpt lat="44.13075" lon="0.45356">
        <ele>127</ele>
        <time>2022-09-15T07:17:34.094Z</time>
      </trkpt>
      <trkpt lat="44.13076" lon="0.45355">
        <ele>127</ele>
        <time>2022-09-15T07:17:35.094Z</time>
      </trkpt>
      <trkpt lat="44.13077" lon="0.45354">
        <ele>127</ele>
        <time>2022-09-15T07:17:36.094Z</time>
      </trkpt>
      <trkpt lat="44.13078" lon="0.45353">
        <ele>127</ele>
        <time>2022-09-15T07:17:37.094Z</time>
      </trkpt>
      <trkpt lat="44.13078" lon="0.45352">
        <ele>127</ele>
        <time>2022-09-15T07:17:38.094Z</time>
      </trkpt>
      <trkpt lat="44.13079" lon="0.45351">
        <ele>127</ele>
        <time>2022-09-15T07:17:39.094Z</time>
      </trkpt>
      <trkpt lat="44.13079" lon="0.4535">
        <ele>127</ele>
        <time>2022-09-15T07:17:40.094Z</time>
      </trkpt>
      <trkpt lat="44.1308" lon="0.45349">
        <ele>126</ele>
        <time>2022-09-15T07:17:41.094Z</time>
      </trkpt>
      <trkpt lat="44.13081" lon="0.45348">
        <ele>126</ele>
        <time>2022-09-15T07:17:42.094Z</time>
      </trkpt>
      <trkpt lat="44.13082" lon="0.45347">
        <ele>126</ele>
        <time>2022-09-15T07:17:43.094Z</time>
      </trkpt>
      <trkpt lat="44.13083" lon="0.45346">
        <ele>126</ele>
        <time>2022-09-15T07:17:44.094Z</time>
      </trkpt>
      <trkpt lat="44.13083" lon="0.45345">
        <ele>125</ele>
        <time>2022-09-15T07:17:45.094Z</time>
      </trkpt>
      <trkpt lat="44.13084" lon="0.45344">
        <ele>125</ele>
        <time>2022-09-15T07:17:46.094Z</time>
      </trkpt>
      <trkpt lat="44.13085" lon="0.45343">
        <ele>125</ele>
        <time>2022-09-15T07:17:47.094Z</time>
      </trkpt>
      <trkpt lat="44.13086" lon="0.45342">
        <ele>125</ele>
        <time>2022-09-15T07:17:48.094Z</time>
      </trkpt>
      <trkpt lat="44.13086" lon="0.45341">
        <ele>125</ele>
        <time>2022-09-15T07:17:49.094Z</time>
      </trkpt>
      <trkpt lat="44.13088" lon="0.4534">
        <ele>126</ele>
        <time>2022-09-15T07:17:50.094Z</time>
      </trkpt>
      <trkpt lat="44.13089" lon="0.45338">
        <ele>125</ele>
        <time>2022-09-15T07:17:51.094Z</time>
      </trkpt>
      <trkpt lat="44.1309" lon="0.45337">
        <ele>125</ele>
        <time>2022-09-15T07:17:52.094Z</time>
      </trkpt>
      <trkpt lat="44.1309" lon="0.45336">
        <ele>125</ele>
        <time>2022-09-15T07:17:53.094Z</time>
      </trkpt>
      <trkpt lat="44.13091" lon="0.45335">
        <ele>125</ele>
        <time>2022-09-15T07:17:54.094Z</time>
      </trkpt>
      <trkpt lat="44.13092" lon="0.45334">
        <ele>125</ele>
        <time>2022-09-15T07:17:55.094Z</time>
      </trkpt>
      <trkpt lat="44.13093" lon="0.45333">
        <ele>125</ele>
        <time>2022-09-15T07:17:56.094Z</time>
      </trkpt>
      <trkpt lat="44.13094" lon="0.45332">
        <ele>125</ele>
        <time>2022-09-15T07:17:57.094Z</time>
      </trkpt>
      <trkpt lat="44.13095" lon="0.45331">
        <ele>125</ele>
        <time>2022-09-15T07:17:58.094Z</time>
      </trkpt>
      <trkpt lat="44.13096" lon="0.4533">
        <ele>124</ele>
        <time>2022-09-15T07:17:59.094Z</time>
      </trkpt>
      <trkpt lat="44.13097" lon="0.45328">
        <ele>124</ele>
        <time>2022-09-15T07:18:00.094Z</time>
      </trkpt>
      <trkpt lat="44.13098" lon="0.45327">
        <ele>124</ele>
        <time>2022-09-15T07:18:01.094Z</time>
      </trkpt>
      <trkpt lat="44.13099" lon="0.45326">
        <ele>125</ele>
        <time>2022-09-15T07:18:02.094Z</time>
      </trkpt>
      <trkpt lat="44.131" lon="0.45325">
        <ele>125</ele>
        <time>2022-09-15T07:18:03.094Z</time>
      </trkpt>
      <trkpt lat="44.13101" lon="0.45324">
        <ele>125</ele>
        <time>2022-09-15T07:18:04.094Z</time>
      </trkpt>
      <trkpt lat="44.13101" lon="0.45323">
        <ele>125</ele>
        <time>2022-09-15T07:18:05.094Z</time>
      </trkpt>
      <trkpt lat="44.13102" lon="0.45322">
        <ele>126</ele>
        <time>2022-09-15T07:18:06.094Z</time>
      </trkpt>
      <trkpt lat="44.13103" lon="0.4532">
        <ele>126</ele>
        <time>2022-09-15T07:18:07.094Z</time>
      </trkpt>
      <trkpt lat="44.13105" lon="0.45319">
        <ele>126</ele>
        <time>2022-09-15T07:18:08.094Z</time>
      </trkpt>
      <trkpt lat="44.13106" lon="0.45318">
        <ele>126</ele>
        <time>2022-09-15T07:18:09.094Z</time>
      </trkpt>
      <trkpt lat="44.13107" lon="0.45317">
        <ele>126</ele>
        <time>2022-09-15T07:18:10.094Z</time>
      </trkpt>
      <trkpt lat="44.13108" lon="0.45316">
        <ele>126</ele>
        <time>2022-09-15T07:18:11.094Z</time>
      </trkpt>
      <trkpt lat="44.13109" lon="0.45315">
        <ele>126</ele>
        <time>2022-09-15T07:18:12.094Z</time>
      </trkpt>
      <trkpt lat="44.1311" lon="0.45314">
        <ele>126</ele>
        <time>2022-09-15T07:18:13.094Z</time>
      </trkpt>
      <trkpt lat="44.13111" lon="0.45312">
        <ele>126</ele>
        <time>2022-09-15T07:18:14.094Z</time>
      </trkpt>
      <trkpt lat="44.13111" lon="0.45311">
        <ele>126</ele>
        <time>2022-09-15T07:18:15.094Z</time>
      </trkpt>
      <trkpt lat="44.13112" lon="0.4531">
        <ele>126</ele>
        <time>2022-09-15T07:18:16.094Z</time>
      </trkpt>
      <trkpt lat="44.13113" lon="0.45309">
        <ele>127</ele>
        <time>2022-09-15T07:18:17.094Z</time>
      </trkpt>
      <trkpt lat="44.13114" lon="0.45307">
        <ele>127</ele>
        <time>2022-09-15T07:18:18.094Z</time>
      </trkpt>
      <trkpt lat="44.13115" lon="0.45306">
        <ele>127</ele>
        <time>2022-09-15T07:18:19.094Z</time>
      </trkpt>
      <trkpt lat="44.13116" lon="0.45305">
        <ele>127</ele>
        <time>2022-09-15T07:18:20.094Z</time>
      </trkpt>
      <trkpt lat="44.13116" lon="0.45304">
        <ele>126</ele>
        <time>2022-09-15T07:18:21.094Z</time>
      </trkpt>
      <trkpt lat="44.13117" lon="0.45302">
        <ele>127</ele>
        <time>2022-09-15T07:18:22.094Z</time>
      </trkpt>
      <trkpt lat="44.13118" lon="0.45301">
        <ele>127</ele>
        <time>2022-09-15T07:18:23.094Z</time>
      </trkpt>
      <trkpt lat="44.1312" lon="0.453">
        <ele>127</ele>
        <time>2022-09-15T07:18:24.094Z</time>
      </trkpt>
      <trkpt lat="44.13121" lon="0.45299">
        <ele>127</ele>
        <time>2022-09-15T07:18:25.094Z</time>
      </trkpt>
      <trkpt lat="44.13122" lon="0.45298">
        <ele>127</ele>
        <time>2022-09-15T07:18:26.094Z</time>
      </trkpt>
      <trkpt lat="44.13123" lon="0.45297">
        <ele>127</ele>
        <time>2022-09-15T07:18:27.094Z</time>
      </trkpt>
      <trkpt lat="44.13124" lon="0.45296">
        <ele>127</ele>
        <time>2022-09-15T07:18:28.094Z</time>
      </trkpt>
      <trkpt lat="44.13125" lon="0.45294">
        <ele>127</ele>
        <time>2022-09-15T07:18:29.094Z</time>
      </trkpt>
      <trkpt lat="44.13126" lon="0.45293">
        <ele>127</ele>
        <time>2022-09-15T07:18:30.094Z</time>
      </trkpt>
      <trkpt lat="44.13127" lon="0.45292">
        <ele>127</ele>
        <time>2022-09-15T07:18:31.094Z</time>
      </trkpt>
      <trkpt lat="44.13127" lon="0.45291">
        <ele>126</ele>
        <time>2022-09-15T07:18:32.094Z</time>
      </trkpt>
      <trkpt lat="44.13128" lon="0.4529">
        <ele>126</ele>
        <time>2022-09-15T07:18:33.094Z</time>
      </trkpt>
      <trkpt lat="44.13129" lon="0.45289">
        <ele>126</ele>
        <time>2022-09-15T07:18:34.094Z</time>
      </trkpt>
      <trkpt lat="44.1313" lon="0.45288">
        <ele>126</ele>
        <time>2022-09-15T07:18:35.094Z</time>
      </trkpt>
      <trkpt lat="44.13131" lon="0.45287">
        <ele>126</ele>
        <time>2022-09-15T07:18:36.094Z</time>
      </trkpt>
      <trkpt lat="44.13131" lon="0.45286">
        <ele>125</ele>
        <time>2022-09-15T07:18:37.094Z</time>
      </trkpt>
      <trkpt lat="44.13132" lon="0.45285">
        <ele>125</ele>
        <time>2022-09-15T07:18:38.094Z</time>
      </trkpt>
      <trkpt lat="44.13133" lon="0.45284">
        <ele>125</ele>
        <time>2022-09-15T07:18:39.094Z</time>
      </trkpt>
      <trkpt lat="44.13134" lon="0.45283">
        <ele>124</ele>
        <time>2022-09-15T07:18:40.094Z</time>
      </trkpt>
      <trkpt lat="44.13135" lon="0.45282">
        <ele>125</ele>
        <time>2022-09-15T07:18:41.094Z</time>
      </trkpt>
      <trkpt lat="44.13136" lon="0.4528">
        <ele>125</ele>
        <time>2022-09-15T07:18:42.094Z</time>
      </trkpt>
      <trkpt lat="44.13137" lon="0.45279">
        <ele>125</ele>
        <time>2022-09-15T07:18:43.094Z</time>
      </trkpt>
      <trkpt lat="44.13139" lon="0.45277">
        <ele>126</ele>
        <time>2022-09-15T07:18:44.094Z</time>
      </trkpt>
      <trkpt lat="44.1314" lon="0.45276">
        <ele>126</ele>
        <time>2022-09-15T07:18:45.094Z</time>
      </trkpt>
      <trkpt lat="44.13141" lon="0.45274">
        <ele>126</ele>
        <time>2022-09-15T07:18:46.094Z</time>
      </trkpt>
      <trkpt lat="44.13142" lon="0.45273">
        <ele>126</ele>
        <time>2022-09-15T07:18:47.094Z</time>
      </trkpt>
      <trkpt lat="44.13143" lon="0.45272">
        <ele>126</ele>
        <time>2022-09-15T07:18:48.094Z</time>
      </trkpt>
      <trkpt lat="44.13143" lon="0.45271">
        <ele>126</ele>
        <time>2022-09-15T07:18:49.094Z</time>
      </trkpt>
      <trkpt lat="44.13144" lon="0.4527">
        <ele>126</ele>
        <time>2022-09-15T07:18:50.094Z</time>
      </trkpt>
      <trkpt lat="44.13145" lon="0.45269">
        <ele>127</ele>
        <time>2022-09-15T07:18:51.094Z</time>
      </trkpt>
      <trkpt lat="44.13146" lon="0.45267">
        <ele>127</ele>
        <time>2022-09-15T07:18:52.094Z</time>
      </trkpt>
      <trkpt lat="44.13147" lon="0.45266">
        <ele>126</ele>
        <time>2022-09-15T07:18:53.094Z</time>
      </trkpt>
      <trkpt lat="44.13148" lon="0.45265">
        <ele>127</ele>
        <time>2022-09-15T07:18:54.094Z</time>
      </trkpt>
      <trkpt lat="44.13149" lon="0.45263">
        <ele>127</ele>
        <time>2022-09-15T07:18:55.094Z</time>
      </trkpt>
      <trkpt lat="44.1315" lon="0.45262">
        <ele>127</ele>
        <time>2022-09-15T07:18:56.094Z</time>
      </trkpt>
      <trkpt lat="44.13151" lon="0.45261">
        <ele>127</ele>
        <time>2022-09-15T07:18:57.094Z</time>
      </trkpt>
      <trkpt lat="44.13152" lon="0.4526">
        <ele>127</ele>
        <time>2022-09-15T07:18:58.094Z</time>
      </trkpt>
      <trkpt lat="44.13152" lon="0.45259">
        <ele>127</ele>
        <time>2022-09-15T07:18:59.094Z</time>
      </trkpt>
      <trkpt lat="44.13153" lon="0.45258">
        <ele>127</ele>
        <time>2022-09-15T07:19:00.094Z</time>
      </trkpt>
      <trkpt lat="44.13154" lon="0.45256">
        <ele>127</ele>
        <time>2022-09-15T07:19:01.094Z</time>
      </trkpt>
      <trkpt lat="44.13155" lon="0.45255">
        <ele>127</ele>
        <time>2022-09-15T07:19:02.094Z</time>
      </trkpt>
      <trkpt lat="44.13156" lon="0.45254">
        <ele>127</ele>
        <time>2022-09-15T07:19:03.094Z</time>
      </trkpt>
      <trkpt lat="44.13157" lon="0.45253">
        <ele>127</ele>
        <time>2022-09-15T07:19:04.094Z</time>
      </trkpt>
      <trkpt lat="44.13158" lon="0.45252">
        <ele>127</ele>
        <time>2022-09-15T07:19:05.094Z</time>
      </trkpt>
      <trkpt lat="44.13159" lon="0.4525">
        <ele>127</ele>
        <time>2022-09-15T07:19:06.094Z</time>
      </trkpt>
      <trkpt lat="44.1316" lon="0.45249">
        <ele>127</ele>
        <time>2022-09-15T07:19:07.094Z</time>
      </trkpt>
      <trkpt lat="44.13161" lon="0.45248">
        <ele>127</ele>
        <time>2022-09-15T07:19:08.094Z</time>
      </trkpt>
      <trkpt lat="44.13162" lon="0.45247">
        <ele>126</ele>
        <time>2022-09-15T07:19:09.094Z</time>
      </trkpt>
      <trkpt lat="44.13163" lon="0.45246">
        <ele>127</ele>
        <time>2022-09-15T07:19:10.094Z</time>
      </trkpt>
      <trkpt lat="44.13164" lon="0.45245">
        <ele>127</ele>
        <time>2022-09-15T07:19:11.094Z</time>
      </trkpt>
      <trkpt lat="44.13165" lon="0.45243">
        <ele>126</ele>
        <time>2022-09-15T07:19:12.094Z</time>
      </trkpt>
      <trkpt lat="44.13166" lon="0.45242">
        <ele>126</ele>
        <time>2022-09-15T07:19:13.094Z</time>
      </trkpt>
      <trkpt lat="44.13166" lon="0.45241">
        <ele>126</ele>
        <time>2022-09-15T07:19:14.094Z</time>
      </trkpt>
      <trkpt lat="44.13167" lon="0.4524">
        <ele>125</ele>
        <time>2022-09-15T07:19:15.094Z</time>
      </trkpt>
      <trkpt lat="44.13168" lon="0.45239">
        <ele>125</ele>
        <time>2022-09-15T07:19:16.094Z</time>
      </trkpt>
      <trkpt lat="44.13169" lon="0.45238">
        <ele>125</ele>
        <time>2022-09-15T07:19:17.094Z</time>
      </trkpt>
      <trkpt lat="44.1317" lon="0.45237">
        <ele>125</ele>
        <time>2022-09-15T07:19:18.094Z</time>
      </trkpt>
      <trkpt lat="44.13171" lon="0.45236">
        <ele>126</ele>
        <time>2022-09-15T07:19:19.094Z</time>
      </trkpt>
      <trkpt lat="44.13172" lon="0.45234">
        <ele>125</ele>
        <time>2022-09-15T07:19:20.094Z</time>
      </trkpt>
      <trkpt lat="44.13173" lon="0.45233">
        <ele>126</ele>
        <time>2022-09-15T07:19:21.094Z</time>
      </trkpt>
      <trkpt lat="44.13174" lon="0.45232">
        <ele>126</ele>
        <time>2022-09-15T07:19:22.094Z</time>
      </trkpt>
      <trkpt lat="44.13175" lon="0.4523">
        <ele>126</ele>
        <time>2022-09-15T07:19:23.094Z</time>
      </trkpt>
      <trkpt lat="44.13176" lon="0.45229">
        <ele>126</ele>
        <time>2022-09-15T07:19:24.094Z</time>
      </trkpt>
      <trkpt lat="44.13176" lon="0.45227">
        <ele>126</ele>
        <time>2022-09-15T07:19:25.094Z</time>
      </trkpt>
      <trkpt lat="44.13177" lon="0.45226">
        <ele>126</ele>
        <time>2022-09-15T07:19:26.094Z</time>
      </trkpt>
      <trkpt lat="44.13178" lon="0.45225">
        <ele>126</ele>
        <time>2022-09-15T07:19:27.094Z</time>
      </trkpt>
      <trkpt lat="44.13179" lon="0.45223">
        <ele>125</ele>
        <time>2022-09-15T07:19:28.094Z</time>
      </trkpt>
      <trkpt lat="44.1318" lon="0.45222">
        <ele>125</ele>
        <time>2022-09-15T07:19:29.094Z</time>
      </trkpt>
      <trkpt lat="44.13181" lon="0.4522">
        <ele>125</ele>
        <time>2022-09-15T07:19:30.094Z</time>
      </trkpt>
      <trkpt lat="44.13181" lon="0.45219">
        <ele>125</ele>
        <time>2022-09-15T07:19:31.094Z</time>
      </trkpt>
      <trkpt lat="44.13182" lon="0.45218">
        <ele>125</ele>
        <time>2022-09-15T07:19:32.094Z</time>
      </trkpt>
      <trkpt lat="44.13183" lon="0.45216">
        <ele>125</ele>
        <time>2022-09-15T07:19:33.094Z</time>
      </trkpt>
      <trkpt lat="44.13184" lon="0.45215">
        <ele>125</ele>
        <time>2022-09-15T07:19:34.094Z</time>
      </trkpt>
      <trkpt lat="44.13184" lon="0.45213">
        <ele>125</ele>
        <time>2022-09-15T07:19:35.094Z</time>
      </trkpt>
      <trkpt lat="44.13185" lon="0.45212">
        <ele>125</ele>
        <time>2022-09-15T07:19:36.094Z</time>
      </trkpt>
      <trkpt lat="44.13186" lon="0.45211">
        <ele>125</ele>
        <time>2022-09-15T07:19:37.094Z</time>
      </trkpt>
      <trkpt lat="44.13187" lon="0.45209">
        <ele>124</ele>
        <time>2022-09-15T07:19:38.094Z</time>
      </trkpt>
      <trkpt lat="44.13187" lon="0.45208">
        <ele>124</ele>
        <time>2022-09-15T07:19:39.094Z</time>
      </trkpt>
      <trkpt lat="44.13188" lon="0.45207">
        <ele>124</ele>
        <time>2022-09-15T07:19:40.094Z</time>
      </trkpt>
      <trkpt lat="44.13188" lon="0.45205">
        <ele>124</ele>
        <time>2022-09-15T07:19:41.094Z</time>
      </trkpt>
      <trkpt lat="44.13189" lon="0.45204">
        <ele>124</ele>
        <time>2022-09-15T07:19:42.094Z</time>
      </trkpt>
      <trkpt lat="44.1319" lon="0.45202">
        <ele>124</ele>
        <time>2022-09-15T07:19:43.094Z</time>
      </trkpt>
      <trkpt lat="44.1319" lon="0.45201">
        <ele>124</ele>
        <time>2022-09-15T07:19:44.094Z</time>
      </trkpt>
      <trkpt lat="44.13191" lon="0.452">
        <ele>124</ele>
        <time>2022-09-15T07:19:45.094Z</time>
      </trkpt>
      <trkpt lat="44.13192" lon="0.45198">
        <ele>123</ele>
        <time>2022-09-15T07:19:46.094Z</time>
      </trkpt>
      <trkpt lat="44.13193" lon="0.45197">
        <ele>123</ele>
        <time>2022-09-15T07:19:47.094Z</time>
      </trkpt>
      <trkpt lat="44.13193" lon="0.45195">
        <ele>123</ele>
        <time>2022-09-15T07:19:48.094Z</time>
      </trkpt>
      <trkpt lat="44.13194" lon="0.45193">
        <ele>123</ele>
        <time>2022-09-15T07:19:49.094Z</time>
      </trkpt>
      <trkpt lat="44.13194" lon="0.45192">
        <ele>123</ele>
        <time>2022-09-15T07:19:50.094Z</time>
      </trkpt>
      <trkpt lat="44.13195" lon="0.4519">
        <ele>124</ele>
        <time>2022-09-15T07:19:51.094Z</time>
      </trkpt>
      <trkpt lat="44.13196" lon="0.45189">
        <ele>123</ele>
        <time>2022-09-15T07:19:52.094Z</time>
      </trkpt>
      <trkpt lat="44.13196" lon="0.45187">
        <ele>123</ele>
        <time>2022-09-15T07:19:53.094Z</time>
      </trkpt>
      <trkpt lat="44.13197" lon="0.45186">
        <ele>123</ele>
        <time>2022-09-15T07:19:54.094Z</time>
      </trkpt>
      <trkpt lat="44.13198" lon="0.45185">
        <ele>123</ele>
        <time>2022-09-15T07:19:55.094Z</time>
      </trkpt>
      <trkpt lat="44.13199" lon="0.45183">
        <ele>124</ele>
        <time>2022-09-15T07:19:56.094Z</time>
      </trkpt>
      <trkpt lat="44.13199" lon="0.45182">
        <ele>124</ele>
        <time>2022-09-15T07:19:57.094Z</time>
      </trkpt>
      <trkpt lat="44.132" lon="0.4518">
        <ele>124</ele>
        <time>2022-09-15T07:19:58.094Z</time>
      </trkpt>
      <trkpt lat="44.13201" lon="0.45179">
        <ele>124</ele>
        <time>2022-09-15T07:19:59.094Z</time>
      </trkpt>
      <trkpt lat="44.13202" lon="0.45178">
        <ele>124</ele>
        <time>2022-09-15T07:20:00.094Z</time>
      </trkpt>
      <trkpt lat="44.13203" lon="0.45177">
        <ele>124</ele>
        <time>2022-09-15T07:20:01.094Z</time>
      </trkpt>
      <trkpt lat="44.13203" lon="0.45176">
        <ele>124</ele>
        <time>2022-09-15T07:20:02.094Z</time>
      </trkpt>
      <trkpt lat="44.13204" lon="0.45174">
        <ele>124</ele>
        <time>2022-09-15T07:20:03.094Z</time>
      </trkpt>
      <trkpt lat="44.13205" lon="0.45173">
        <ele>124</ele>
        <time>2022-09-15T07:20:04.094Z</time>
      </trkpt>
      <trkpt lat="44.13206" lon="0.45171">
        <ele>124</ele>
        <time>2022-09-15T07:20:05.094Z</time>
      </trkpt>
      <trkpt lat="44.13206" lon="0.4517">
        <ele>124</ele>
        <time>2022-09-15T07:20:06.094Z</time>
      </trkpt>
      <trkpt lat="44.13207" lon="0.45168">
        <ele>124</ele>
        <time>2022-09-15T07:20:07.094Z</time>
      </trkpt>
      <trkpt lat="44.13207" lon="0.45167">
        <ele>124</ele>
        <time>2022-09-15T07:20:08.094Z</time>
      </trkpt>
      <trkpt lat="44.13208" lon="0.45165">
        <ele>124</ele>
        <time>2022-09-15T07:20:09.094Z</time>
      </trkpt>
      <trkpt lat="44.13209" lon="0.45164">
        <ele>123</ele>
        <time>2022-09-15T07:20:10.094Z</time>
      </trkpt>
      <trkpt lat="44.1321" lon="0.45163">
        <ele>123</ele>
        <time>2022-09-15T07:20:11.094Z</time>
      </trkpt>
      <trkpt lat="44.13211" lon="0.45162">
        <ele>123</ele>
        <time>2022-09-15T07:20:12.094Z</time>
      </trkpt>
      <trkpt lat="44.13211" lon="0.45161">
        <ele>123</ele>
        <time>2022-09-15T07:20:13.094Z</time>
      </trkpt>
      <trkpt lat="44.13212" lon="0.45159">
        <ele>123</ele>
        <time>2022-09-15T07:20:14.094Z</time>
      </trkpt>
      <trkpt lat="44.13213" lon="0.45158">
        <ele>123</ele>
        <time>2022-09-15T07:20:15.094Z</time>
      </trkpt>
      <trkpt lat="44.13214" lon="0.45157">
        <ele>123</ele>
        <time>2022-09-15T07:20:16.094Z</time>
      </trkpt>
      <trkpt lat="44.13215" lon="0.45155">
        <ele>123</ele>
        <time>2022-09-15T07:20:17.094Z</time>
      </trkpt>
      <trkpt lat="44.13216" lon="0.45154">
        <ele>123</ele>
        <time>2022-09-15T07:20:18.094Z</time>
      </trkpt>
      <trkpt lat="44.13217" lon="0.45153">
        <ele>124</ele>
        <time>2022-09-15T07:20:19.094Z</time>
      </trkpt>
      <trkpt lat="44.13217" lon="0.45151">
        <ele>124</ele>
        <time>2022-09-15T07:20:20.094Z</time>
      </trkpt>
      <trkpt lat="44.13218" lon="0.4515">
        <ele>124</ele>
        <time>2022-09-15T07:20:21.094Z</time>
      </trkpt>
      <trkpt lat="44.13219" lon="0.45148">
        <ele>124</ele>
        <time>2022-09-15T07:20:22.094Z</time>
      </trkpt>
      <trkpt lat="44.1322" lon="0.45147">
        <ele>125</ele>
        <time>2022-09-15T07:20:23.094Z</time>
      </trkpt>
      <trkpt lat="44.13221" lon="0.45146">
        <ele>125</ele>
        <time>2022-09-15T07:20:24.094Z</time>
      </trkpt>
      <trkpt lat="44.13222" lon="0.45144">
        <ele>125</ele>
        <time>2022-09-15T07:20:25.094Z</time>
      </trkpt>
      <trkpt lat="44.13223" lon="0.45143">
        <ele>124</ele>
        <time>2022-09-15T07:20:26.094Z</time>
      </trkpt>
      <trkpt lat="44.13224" lon="0.45142">
        <ele>124</ele>
        <time>2022-09-15T07:20:27.094Z</time>
      </trkpt>
      <trkpt lat="44.13225" lon="0.45141">
        <ele>124</ele>
        <time>2022-09-15T07:20:28.094Z</time>
      </trkpt>
      <trkpt lat="44.13226" lon="0.45139">
        <ele>124</ele>
        <time>2022-09-15T07:20:29.094Z</time>
      </trkpt>
      <trkpt lat="44.13226" lon="0.45138">
        <ele>124</ele>
        <time>2022-09-15T07:20:30.094Z</time>
      </trkpt>
      <trkpt lat="44.13227" lon="0.45137">
        <ele>124</ele>
        <time>2022-09-15T07:20:31.094Z</time>
      </trkpt>
      <trkpt lat="44.13228" lon="0.45135">
        <ele>124</ele>
        <time>2022-09-15T07:20:32.094Z</time>
      </trkpt>
      <trkpt lat="44.13228" lon="0.45134">
        <ele>124</ele>
        <time>2022-09-15T07:20:33.094Z</time>
      </trkpt>
      <trkpt lat="44.13229" lon="0.45133">
        <ele>124</ele>
        <time>2022-09-15T07:20:34.094Z</time>
      </trkpt>
      <trkpt lat="44.1323" lon="0.45132">
        <ele>125</ele>
        <time>2022-09-15T07:20:35.094Z</time>
      </trkpt>
      <trkpt lat="44.1323" lon="0.4513">
        <ele>124</ele>
        <time>2022-09-15T07:20:36.094Z</time>
      </trkpt>
      <trkpt lat="44.13231" lon="0.45129">
        <ele>124</ele>
        <time>2022-09-15T07:20:37.094Z</time>
      </trkpt>
      <trkpt lat="44.13232" lon="0.45128">
        <ele>124</ele>
        <time>2022-09-15T07:20:38.094Z</time>
      </trkpt>
      <trkpt lat="44.13232" lon="0.45126">
        <ele>124</ele>
        <time>2022-09-15T07:20:39.094Z</time>
      </trkpt>
      <trkpt lat="44.13233" lon="0.45125">
        <ele>124</ele>
        <time>2022-09-15T07:20:40.094Z</time>
      </trkpt>
      <trkpt lat="44.13234" lon="0.45123">
        <ele>123</ele>
        <time>2022-09-15T07:20:41.094Z</time>
      </trkpt>
      <trkpt lat="44.13234" lon="0.45122">
        <ele>123</ele>
        <time>2022-09-15T07:20:42.094Z</time>
      </trkpt>
      <trkpt lat="44.13235" lon="0.45121">
        <ele>123</ele>
        <time>2022-09-15T07:20:43.094Z</time>
      </trkpt>
      <trkpt lat="44.13236" lon="0.45119">
        <ele>123</ele>
        <time>2022-09-15T07:20:44.094Z</time>
      </trkpt>
      <trkpt lat="44.13236" lon="0.45118">
        <ele>123</ele>
        <time>2022-09-15T07:20:45.094Z</time>
      </trkpt>
      <trkpt lat="44.13237" lon="0.45116">
        <ele>123</ele>
        <time>2022-09-15T07:20:46.094Z</time>
      </trkpt>
      <trkpt lat="44.13238" lon="0.45115">
        <ele>123</ele>
        <time>2022-09-15T07:20:47.094Z</time>
      </trkpt>
      <trkpt lat="44.13239" lon="0.45113">
        <ele>123</ele>
        <time>2022-09-15T07:20:48.094Z</time>
      </trkpt>
      <trkpt lat="44.13239" lon="0.45112">
        <ele>123</ele>
        <time>2022-09-15T07:20:49.094Z</time>
      </trkpt>
      <trkpt lat="44.1324" lon="0.45111">
        <ele>122</ele>
        <time>2022-09-15T07:20:50.094Z</time>
      </trkpt>
      <trkpt lat="44.13241" lon="0.45109">
        <ele>122</ele>
        <time>2022-09-15T07:20:51.094Z</time>
      </trkpt>
      <trkpt lat="44.13241" lon="0.45108">
        <ele>123</ele>
        <time>2022-09-15T07:20:52.094Z</time>
      </trkpt>
      <trkpt lat="44.13242" lon="0.45107">
        <ele>122</ele>
        <time>2022-09-15T07:20:53.094Z</time>
      </trkpt>
      <trkpt lat="44.13243" lon="0.45105">
        <ele>123</ele>
        <time>2022-09-15T07:20:54.094Z</time>
      </trkpt>
      <trkpt lat="44.13243" lon="0.45104">
        <ele>123</ele>
        <time>2022-09-15T07:20:55.094Z</time>
      </trkpt>
      <trkpt lat="44.13244" lon="0.45102">
        <ele>123</ele>
        <time>2022-09-15T07:20:56.094Z</time>
      </trkpt>
      <trkpt lat="44.13245" lon="0.45101">
        <ele>123</ele>
        <time>2022-09-15T07:20:57.094Z</time>
      </trkpt>
      <trkpt lat="44.13245" lon="0.451">
        <ele>122</ele>
        <time>2022-09-15T07:20:58.094Z</time>
      </trkpt>
      <trkpt lat="44.13246" lon="0.45098">
        <ele>122</ele>
        <time>2022-09-15T07:20:59.094Z</time>
      </trkpt>
      <trkpt lat="44.13247" lon="0.45097">
        <ele>122</ele>
        <time>2022-09-15T07:21:00.094Z</time>
      </trkpt>
      <trkpt lat="44.13247" lon="0.45096">
        <ele>122</ele>
        <time>2022-09-15T07:21:01.094Z</time>
      </trkpt>
      <trkpt lat="44.13248" lon="0.45094">
        <ele>122</ele>
        <time>2022-09-15T07:21:02.094Z</time>
      </trkpt>
      <trkpt lat="44.13249" lon="0.45093">
        <ele>122</ele>
        <time>2022-09-15T07:21:03.094Z</time>
      </trkpt>
      <trkpt lat="44.13249" lon="0.45092">
        <ele>122</ele>
        <time>2022-09-15T07:21:04.094Z</time>
      </trkpt>
      <trkpt lat="44.1325" lon="0.4509">
        <ele>122</ele>
        <time>2022-09-15T07:21:05.094Z</time>
      </trkpt>
      <trkpt lat="44.1325" lon="0.45089">
        <ele>122</ele>
        <time>2022-09-15T07:21:06.094Z</time>
      </trkpt>
      <trkpt lat="44.13251" lon="0.45088">
        <ele>122</ele>
        <time>2022-09-15T07:21:07.094Z</time>
      </trkpt>
      <trkpt lat="44.13252" lon="0.45086">
        <ele>122</ele>
        <time>2022-09-15T07:21:08.094Z</time>
      </trkpt>
      <trkpt lat="44.13252" lon="0.45085">
        <ele>122</ele>
        <time>2022-09-15T07:21:09.094Z</time>
      </trkpt>
      <trkpt lat="44.13253" lon="0.45083">
        <ele>122</ele>
        <time>2022-09-15T07:21:10.094Z</time>
      </trkpt>
      <trkpt lat="44.13254" lon="0.45082">
        <ele>122</ele>
        <time>2022-09-15T07:21:11.094Z</time>
      </trkpt>
      <trkpt lat="44.13254" lon="0.4508">
        <ele>122</ele>
        <time>2022-09-15T07:21:12.094Z</time>
      </trkpt>
      <trkpt lat="44.13255" lon="0.45079">
        <ele>122</ele>
        <time>2022-09-15T07:21:13.094Z</time>
      </trkpt>
      <trkpt lat="44.13255" lon="0.45078">
        <ele>122</ele>
        <time>2022-09-15T07:21:14.094Z</time>
      </trkpt>
      <trkpt lat="44.13256" lon="0.45076">
        <ele>122</ele>
        <time>2022-09-15T07:21:15.094Z</time>
      </trkpt>
      <trkpt lat="44.13257" lon="0.45075">
        <ele>121</ele>
        <time>2022-09-15T07:21:16.094Z</time>
      </trkpt>
      <trkpt lat="44.13257" lon="0.45074">
        <ele>121</ele>
        <time>2022-09-15T07:21:17.094Z</time>
      </trkpt>
      <trkpt lat="44.13258" lon="0.45072">
        <ele>121</ele>
        <time>2022-09-15T07:21:18.094Z</time>
      </trkpt>
      <trkpt lat="44.13259" lon="0.45071">
        <ele>121</ele>
        <time>2022-09-15T07:21:19.094Z</time>
      </trkpt>
      <trkpt lat="44.13259" lon="0.4507">
        <ele>121</ele>
        <time>2022-09-15T07:21:20.094Z</time>
      </trkpt>
      <trkpt lat="44.1326" lon="0.45068">
        <ele>121</ele>
        <time>2022-09-15T07:21:21.094Z</time>
      </trkpt>
      <trkpt lat="44.13261" lon="0.45067">
        <ele>121</ele>
        <time>2022-09-15T07:21:22.094Z</time>
      </trkpt>
      <trkpt lat="44.13261" lon="0.45066">
        <ele>121</ele>
        <time>2022-09-15T07:21:23.094Z</time>
      </trkpt>
      <trkpt lat="44.13262" lon="0.45065">
        <ele>121</ele>
        <time>2022-09-15T07:21:24.094Z</time>
      </trkpt>
      <trkpt lat="44.13263" lon="0.45063">
        <ele>121</ele>
        <time>2022-09-15T07:21:25.094Z</time>
      </trkpt>
      <trkpt lat="44.13264" lon="0.45062">
        <ele>121</ele>
        <time>2022-09-15T07:21:26.094Z</time>
      </trkpt>
      <trkpt lat="44.13264" lon="0.45061">
        <ele>121</ele>
        <time>2022-09-15T07:21:27.094Z</time>
      </trkpt>
      <trkpt lat="44.13265" lon="0.45059">
        <ele>121</ele>
        <time>2022-09-15T07:21:28.094Z</time>
      </trkpt>
      <trkpt lat="44.13266" lon="0.45058">
        <ele>120</ele>
        <time>2022-09-15T07:21:29.094Z</time>
      </trkpt>
      <trkpt lat="44.13266" lon="0.45056">
        <ele>121</ele>
        <time>2022-09-15T07:21:30.094Z</time>
      </trkpt>
      <trkpt lat="44.13267" lon="0.45055">
        <ele>120</ele>
        <time>2022-09-15T07:21:31.094Z</time>
      </trkpt>
      <trkpt lat="44.13268" lon="0.45053">
        <ele>120</ele>
        <time>2022-09-15T07:21:32.094Z</time>
      </trkpt>
      <trkpt lat="44.13268" lon="0.45052">
        <ele>121</ele>
        <time>2022-09-15T07:21:33.094Z</time>
      </trkpt>
      <trkpt lat="44.13269" lon="0.45051">
        <ele>121</ele>
        <time>2022-09-15T07:21:34.094Z</time>
      </trkpt>
      <trkpt lat="44.1327" lon="0.45049">
        <ele>121</ele>
        <time>2022-09-15T07:21:35.094Z</time>
      </trkpt>
      <trkpt lat="44.1327" lon="0.45048">
        <ele>121</ele>
        <time>2022-09-15T07:21:36.094Z</time>
      </trkpt>
      <trkpt lat="44.13271" lon="0.45047">
        <ele>121</ele>
        <time>2022-09-15T07:21:37.094Z</time>
      </trkpt>
      <trkpt lat="44.13272" lon="0.45046">
        <ele>120</ele>
        <time>2022-09-15T07:21:38.094Z</time>
      </trkpt>
      <trkpt lat="44.13272" lon="0.45044">
        <ele>120</ele>
        <time>2022-09-15T07:21:39.094Z</time>
      </trkpt>
      <trkpt lat="44.13273" lon="0.45043">
        <ele>120</ele>
        <time>2022-09-15T07:21:40.094Z</time>
      </trkpt>
      <trkpt lat="44.13274" lon="0.45041">
        <ele>120</ele>
        <time>2022-09-15T07:21:41.094Z</time>
      </trkpt>
      <trkpt lat="44.13274" lon="0.4504">
        <ele>120</ele>
        <time>2022-09-15T07:21:42.094Z</time>
      </trkpt>
      <trkpt lat="44.13275" lon="0.45039">
        <ele>120</ele>
        <time>2022-09-15T07:21:43.094Z</time>
      </trkpt>
      <trkpt lat="44.13276" lon="0.45037">
        <ele>120</ele>
        <time>2022-09-15T07:21:44.094Z</time>
      </trkpt>
      <trkpt lat="44.13276" lon="0.45036">
        <ele>120</ele>
        <time>2022-09-15T07:21:45.094Z</time>
      </trkpt>
      <trkpt lat="44.13277" lon="0.45034">
        <ele>120</ele>
        <time>2022-09-15T07:21:46.094Z</time>
      </trkpt>
      <trkpt lat="44.13278" lon="0.45033">
        <ele>120</ele>
        <time>2022-09-15T07:21:47.094Z</time>
      </trkpt>
      <trkpt lat="44.13279" lon="0.45032">
        <ele>120</ele>
        <time>2022-09-15T07:21:48.094Z</time>
      </trkpt>
      <trkpt lat="44.13279" lon="0.4503">
        <ele>121</ele>
        <time>2022-09-15T07:21:49.094Z</time>
      </trkpt>
      <trkpt lat="44.1328" lon="0.45029">
        <ele>121</ele>
        <time>2022-09-15T07:21:50.094Z</time>
      </trkpt>
      <trkpt lat="44.13281" lon="0.45028">
        <ele>121</ele>
        <time>2022-09-15T07:21:51.094Z</time>
      </trkpt>
      <trkpt lat="44.13281" lon="0.45027">
        <ele>120</ele>
        <time>2022-09-15T07:21:52.094Z</time>
      </trkpt>
      <trkpt lat="44.13282" lon="0.45025">
        <ele>120</ele>
        <time>2022-09-15T07:21:53.094Z</time>
      </trkpt>
      <trkpt lat="44.13282" lon="0.45024">
        <ele>120</ele>
        <time>2022-09-15T07:21:54.094Z</time>
      </trkpt>
      <trkpt lat="44.13283" lon="0.45022">
        <ele>120</ele>
        <time>2022-09-15T07:21:55.094Z</time>
      </trkpt>
      <trkpt lat="44.13283" lon="0.4502">
        <ele>121</ele>
        <time>2022-09-15T07:21:56.094Z</time>
      </trkpt>
      <trkpt lat="44.13284" lon="0.45018">
        <ele>121</ele>
        <time>2022-09-15T07:21:57.094Z</time>
      </trkpt>
      <trkpt lat="44.13285" lon="0.45016">
        <ele>121</ele>
        <time>2022-09-15T07:21:58.094Z</time>
      </trkpt>
      <trkpt lat="44.13286" lon="0.45015">
        <ele>122</ele>
        <time>2022-09-15T07:21:59.094Z</time>
      </trkpt>
      <trkpt lat="44.13286" lon="0.45013">
        <ele>122</ele>
        <time>2022-09-15T07:22:00.094Z</time>
      </trkpt>
      <trkpt lat="44.13287" lon="0.45012">
        <ele>122</ele>
        <time>2022-09-15T07:22:01.094Z</time>
      </trkpt>
      <trkpt lat="44.13288" lon="0.45011">
        <ele>122</ele>
        <time>2022-09-15T07:22:02.094Z</time>
      </trkpt>
      <trkpt lat="44.13288" lon="0.45009">
        <ele>122</ele>
        <time>2022-09-15T07:22:03.094Z</time>
      </trkpt>
      <trkpt lat="44.13289" lon="0.45008">
        <ele>122</ele>
        <time>2022-09-15T07:22:04.094Z</time>
      </trkpt>
      <trkpt lat="44.1329" lon="0.45006">
        <ele>122</ele>
        <time>2022-09-15T07:22:05.094Z</time>
      </trkpt>
      <trkpt lat="44.13291" lon="0.45005">
        <ele>123</ele>
        <time>2022-09-15T07:22:06.094Z</time>
      </trkpt>
      <trkpt lat="44.13292" lon="0.45003">
        <ele>123</ele>
        <time>2022-09-15T07:22:07.094Z</time>
      </trkpt>
      <trkpt lat="44.13292" lon="0.45002">
        <ele>123</ele>
        <time>2022-09-15T07:22:08.094Z</time>
      </trkpt>
      <trkpt lat="44.13293" lon="0.45">
        <ele>123</ele>
        <time>2022-09-15T07:22:09.094Z</time>
      </trkpt>
      <trkpt lat="44.13294" lon="0.44999">
        <ele>123</ele>
        <time>2022-09-15T07:22:10.094Z</time>
      </trkpt>
      <trkpt lat="44.13295" lon="0.44997">
        <ele>123</ele>
        <time>2022-09-15T07:22:11.094Z</time>
      </trkpt>
      <trkpt lat="44.13296" lon="0.44996">
        <ele>124</ele>
        <time>2022-09-15T07:22:12.094Z</time>
      </trkpt>
      <trkpt lat="44.13296" lon="0.44994">
        <ele>124</ele>
        <time>2022-09-15T07:22:13.094Z</time>
      </trkpt>
      <trkpt lat="44.13297" lon="0.44993">
        <ele>124</ele>
        <time>2022-09-15T07:22:14.094Z</time>
      </trkpt>
      <trkpt lat="44.13298" lon="0.44992">
        <ele>124</ele>
        <time>2022-09-15T07:22:15.094Z</time>
      </trkpt>
      <trkpt lat="44.13299" lon="0.4499">
        <ele>125</ele>
        <time>2022-09-15T07:22:16.094Z</time>
      </trkpt>
      <trkpt lat="44.133" lon="0.44989">
        <ele>125</ele>
        <time>2022-09-15T07:22:17.094Z</time>
      </trkpt>
      <trkpt lat="44.13301" lon="0.44987">
        <ele>124</ele>
        <time>2022-09-15T07:22:18.094Z</time>
      </trkpt>
      <trkpt lat="44.13302" lon="0.44986">
        <ele>125</ele>
        <time>2022-09-15T07:22:19.094Z</time>
      </trkpt>
      <trkpt lat="44.13303" lon="0.44985">
        <ele>125</ele>
        <time>2022-09-15T07:22:20.094Z</time>
      </trkpt>
      <trkpt lat="44.13303" lon="0.44984">
        <ele>125</ele>
        <time>2022-09-15T07:22:21.094Z</time>
      </trkpt>
      <trkpt lat="44.13304" lon="0.44982">
        <ele>125</ele>
        <time>2022-09-15T07:22:22.094Z</time>
      </trkpt>
      <trkpt lat="44.13305" lon="0.44981">
        <ele>124</ele>
        <time>2022-09-15T07:22:23.094Z</time>
      </trkpt>
      <trkpt lat="44.13306" lon="0.4498">
        <ele>124</ele>
        <time>2022-09-15T07:22:24.094Z</time>
      </trkpt>
      <trkpt lat="44.13307" lon="0.44979">
        <ele>125</ele>
        <time>2022-09-15T07:22:25.094Z</time>
      </trkpt>
      <trkpt lat="44.13308" lon="0.44979">
        <ele>125</ele>
        <time>2022-09-15T07:22:26.094Z</time>
      </trkpt>
      <trkpt lat="44.1331" lon="0.44978">
        <ele>125</ele>
        <time>2022-09-15T07:22:27.094Z</time>
      </trkpt>
      <trkpt lat="44.13311" lon="0.44978">
        <ele>125</ele>
        <time>2022-09-15T07:22:28.094Z</time>
      </trkpt>
      <trkpt lat="44.13312" lon="0.44978">
        <ele>125</ele>
        <time>2022-09-15T07:22:29.094Z</time>
      </trkpt>
      <trkpt lat="44.13312" lon="0.44979">
        <ele>125</ele>
        <time>2022-09-15T07:22:30.094Z</time>
      </trkpt>
      <trkpt lat="44.13313" lon="0.44979">
        <ele>125</ele>
        <time>2022-09-15T07:22:31.094Z</time>
      </trkpt>
      <trkpt lat="44.13314" lon="0.44979">
        <ele>125</ele>
        <time>2022-09-15T07:22:32.094Z</time>
      </trkpt>
      <trkpt lat="44.13315" lon="0.44979">
        <ele>125</ele>
        <time>2022-09-15T07:22:33.094Z</time>
      </trkpt>
      <trkpt lat="44.13315" lon="0.4498">
        <ele>125</ele>
        <time>2022-09-15T07:22:34.094Z</time>
      </trkpt>
      <trkpt lat="44.13316" lon="0.4498">
        <ele>125</ele>
        <time>2022-09-15T07:22:35.094Z</time>
      </trkpt>
      <trkpt lat="44.13316" lon="0.44981">
        <ele>126</ele>
        <time>2022-09-15T07:22:36.094Z</time>
      </trkpt>
      <trkpt lat="44.13316" lon="0.44981">
        <ele>126</ele>
        <time>2022-09-15T07:22:37.094Z</time>
      </trkpt>
      <trkpt lat="44.13317" lon="0.44982">
        <ele>126</ele>
        <time>2022-09-15T07:22:38.094Z</time>
      </trkpt>
      <trkpt lat="44.13317" lon="0.44982">
        <ele>126</ele>
        <time>2022-09-15T07:22:39.094Z</time>
      </trkpt>
      <trkpt lat="44.13317" lon="0.44982">
        <ele>126</ele>
        <time>2022-09-15T07:22:40.094Z</time>
      </trkpt>
      <trkpt lat="44.13317" lon="0.44982">
        <ele>127</ele>
        <time>2022-09-15T07:22:41.094Z</time>
      </trkpt>
      <trkpt lat="44.13317" lon="0.44982">
        <ele>127</ele>
        <time>2022-09-15T07:22:42.094Z</time>
      </trkpt>
      <trkpt lat="44.13318" lon="0.44982">
        <ele>127</ele>
        <time>2022-09-15T07:22:43.094Z</time>
      </trkpt>
      <trkpt lat="44.1332" lon="0.44985">
        <ele>128</ele>
        <time>2022-09-15T07:22:52.102Z</time>
      </trkpt>
      <trkpt lat="44.1332" lon="0.44985">
        <ele>128</ele>
        <time>2022-09-15T07:22:53.102Z</time>
      </trkpt>
      <trkpt lat="44.1332" lon="0.44986">
        <ele>128</ele>
        <time>2022-09-15T07:22:54.102Z</time>
      </trkpt>
      <trkpt lat="44.1332" lon="0.44986">
        <ele>128</ele>
        <time>2022-09-15T07:22:55.102Z</time>
      </trkpt>
      <trkpt lat="44.1332" lon="0.44986">
        <ele>128</ele>
        <time>2022-09-15T07:22:56.102Z</time>
      </trkpt>
      <trkpt lat="44.1332" lon="0.44986">
        <ele>129</ele>
        <time>2022-09-15T07:22:57.102Z</time>
      </trkpt>
      <trkpt lat="44.13318" lon="0.44983">
        <ele>128</ele>
        <time>2022-09-15T07:23:08.114Z</time>
      </trkpt>
      <trkpt lat="44.13318" lon="0.44983">
        <ele>128</ele>
        <time>2022-09-15T07:23:09.114Z</time>
      </trkpt>
      <trkpt lat="44.13318" lon="0.44983">
        <ele>127</ele>
        <time>2022-09-15T07:23:10.114Z</time>
      </trkpt>
      <trkpt lat="44.13318" lon="0.44984">
        <ele>127</ele>
        <time>2022-09-15T07:23:11.114Z</time>
      </trkpt>
      <trkpt lat="44.13318" lon="0.44984">
        <ele>127</ele>
        <time>2022-09-15T07:23:12.114Z</time>
      </trkpt>
      <trkpt lat="44.13319" lon="0.44985">
        <ele>127</ele>
        <time>2022-09-15T07:23:13.114Z</time>
      </trkpt>
      <trkpt lat="44.13319" lon="0.44986">
        <ele>127</ele>
        <time>2022-09-15T07:23:14.114Z</time>
      </trkpt>
      <trkpt lat="44.1332" lon="0.44987">
        <ele>127</ele>
        <time>2022-09-15T07:23:15.114Z</time>
      </trkpt>
      <trkpt lat="44.1332" lon="0.44988">
        <ele>127</ele>
        <time>2022-09-15T07:23:16.114Z</time>
      </trkpt>
      <trkpt lat="44.1332" lon="0.44989">
        <ele>127</ele>
        <time>2022-09-15T07:23:17.114Z</time>
      </trkpt>
      <trkpt lat="44.13321" lon="0.4499">
        <ele>127</ele>
        <time>2022-09-15T07:23:18.114Z</time>
      </trkpt>
      <trkpt lat="44.13322" lon="0.44992">
        <ele>127</ele>
        <time>2022-09-15T07:23:19.114Z</time>
      </trkpt>
      <trkpt lat="44.13322" lon="0.44993">
        <ele>126</ele>
        <time>2022-09-15T07:23:20.114Z</time>
      </trkpt>
      <trkpt lat="44.13323" lon="0.44995">
        <ele>126</ele>
        <time>2022-09-15T07:23:21.114Z</time>
      </trkpt>
      <trkpt lat="44.13324" lon="0.44997">
        <ele>127</ele>
        <time>2022-09-15T07:23:22.114Z</time>
      </trkpt>
      <trkpt lat="44.13324" lon="0.44999">
        <ele>127</ele>
        <time>2022-09-15T07:23:23.114Z</time>
      </trkpt>
      <trkpt lat="44.13324" lon="0.45001">
        <ele>127</ele>
        <time>2022-09-15T07:23:24.114Z</time>
      </trkpt>
      <trkpt lat="44.13324" lon="0.45002">
        <ele>127</ele>
        <time>2022-09-15T07:23:25.114Z</time>
      </trkpt>
      <trkpt lat="44.13324" lon="0.45003">
        <ele>127</ele>
        <time>2022-09-15T07:23:26.114Z</time>
      </trkpt>
      <trkpt lat="44.13323" lon="0.45004">
        <ele>126</ele>
        <time>2022-09-15T07:23:27.114Z</time>
      </trkpt>
      <trkpt lat="44.13323" lon="0.45004">
        <ele>127</ele>
        <time>2022-09-15T07:23:28.114Z</time>
      </trkpt>
      <trkpt lat="44.13323" lon="0.45004">
        <ele>127</ele>
        <time>2022-09-15T07:23:29.114Z</time>
      </trkpt>
      <trkpt lat="44.13323" lon="0.45004">
        <ele>127</ele>
        <time>2022-09-15T07:23:30.114Z</time>
      </trkpt>
      <trkpt lat="44.13323" lon="0.45004">
        <ele>127</ele>
        <time>2022-09-15T07:23:31.114Z</time>
      </trkpt>
      <trkpt lat="44.13323" lon="0.45005">
        <ele>127</ele>
        <time>2022-09-15T07:23:32.114Z</time>
      </trkpt>
      <trkpt lat="44.13327" lon="0.45009">
        <ele>125</ele>
        <time>2022-09-15T07:23:40.126Z</time>
      </trkpt>
      <trkpt lat="44.13328" lon="0.45011">
        <ele>125</ele>
        <time>2022-09-15T07:23:41.126Z</time>
      </trkpt>
      <trkpt lat="44.13329" lon="0.45012">
        <ele>125</ele>
        <time>2022-09-15T07:23:42.126Z</time>
      </trkpt>
      <trkpt lat="44.1333" lon="0.45014">
        <ele>125</ele>
        <time>2022-09-15T07:23:43.126Z</time>
      </trkpt>
      <trkpt lat="44.13331" lon="0.45015">
        <ele>125</ele>
        <time>2022-09-15T07:23:44.126Z</time>
      </trkpt>
      <trkpt lat="44.13331" lon="0.45017">
        <ele>124</ele>
        <time>2022-09-15T07:23:45.126Z</time>
      </trkpt>
      <trkpt lat="44.13332" lon="0.45018">
        <ele>124</ele>
        <time>2022-09-15T07:23:46.126Z</time>
      </trkpt>
      <trkpt lat="44.13333" lon="0.4502">
        <ele>124</ele>
        <time>2022-09-15T07:23:47.126Z</time>
      </trkpt>
      <trkpt lat="44.13334" lon="0.45021">
        <ele>124</ele>
        <time>2022-09-15T07:23:48.126Z</time>
      </trkpt>
      <trkpt lat="44.13335" lon="0.45023">
        <ele>124</ele>
        <time>2022-09-15T07:23:49.126Z</time>
      </trkpt>
      <trkpt lat="44.13336" lon="0.45025">
        <ele>123</ele>
        <time>2022-09-15T07:23:50.126Z</time>
      </trkpt>
      <trkpt lat="44.13336" lon="0.45026">
        <ele>123</ele>
        <time>2022-09-15T07:23:51.126Z</time>
      </trkpt>
      <trkpt lat="44.13337" lon="0.45028">
        <ele>123</ele>
        <time>2022-09-15T07:23:52.126Z</time>
      </trkpt>
      <trkpt lat="44.13338" lon="0.45029">
        <ele>123</ele>
        <time>2022-09-15T07:23:53.126Z</time>
      </trkpt>
      <trkpt lat="44.1334" lon="0.45031">
        <ele>122</ele>
        <time>2022-09-15T07:23:54.126Z</time>
      </trkpt>
      <trkpt lat="44.13341" lon="0.45032">
        <ele>122</ele>
        <time>2022-09-15T07:23:55.126Z</time>
      </trkpt>
      <trkpt lat="44.13342" lon="0.45034">
        <ele>122</ele>
        <time>2022-09-15T07:23:56.126Z</time>
      </trkpt>
      <trkpt lat="44.13342" lon="0.45036">
        <ele>122</ele>
        <time>2022-09-15T07:23:57.126Z</time>
      </trkpt>
      <trkpt lat="44.13343" lon="0.45037">
        <ele>122</ele>
        <time>2022-09-15T07:23:58.126Z</time>
      </trkpt>
      <trkpt lat="44.13343" lon="0.45039">
        <ele>122</ele>
        <time>2022-09-15T07:23:59.126Z</time>
      </trkpt>
      <trkpt lat="44.13344" lon="0.4504">
        <ele>122</ele>
        <time>2022-09-15T07:24:00.126Z</time>
      </trkpt>
      <trkpt lat="44.13345" lon="0.45041">
        <ele>122</ele>
        <time>2022-09-15T07:24:01.126Z</time>
      </trkpt>
      <trkpt lat="44.13346" lon="0.45043">
        <ele>122</ele>
        <time>2022-09-15T07:24:02.126Z</time>
      </trkpt>
      <trkpt lat="44.13347" lon="0.45044">
        <ele>122</ele>
        <time>2022-09-15T07:24:03.126Z</time>
      </trkpt>
      <trkpt lat="44.13347" lon="0.45045">
        <ele>122</ele>
        <time>2022-09-15T07:24:04.126Z</time>
      </trkpt>
      <trkpt lat="44.13348" lon="0.45046">
        <ele>122</ele>
        <time>2022-09-15T07:24:05.126Z</time>
      </trkpt>
      <trkpt lat="44.13349" lon="0.45048">
        <ele>122</ele>
        <time>2022-09-15T07:24:06.126Z</time>
      </trkpt>
      <trkpt lat="44.1335" lon="0.45049">
        <ele>121</ele>
        <time>2022-09-15T07:24:07.126Z</time>
      </trkpt>
      <trkpt lat="44.1335" lon="0.4505">
        <ele>121</ele>
        <time>2022-09-15T07:24:08.126Z</time>
      </trkpt>
      <trkpt lat="44.13351" lon="0.45052">
        <ele>121</ele>
        <time>2022-09-15T07:24:09.126Z</time>
      </trkpt>
      <trkpt lat="44.13352" lon="0.45053">
        <ele>121</ele>
        <time>2022-09-15T07:24:10.126Z</time>
      </trkpt>
      <trkpt lat="44.13353" lon="0.45054">
        <ele>120</ele>
        <time>2022-09-15T07:24:11.126Z</time>
      </trkpt>
      <trkpt lat="44.13353" lon="0.45055">
        <ele>120</ele>
        <time>2022-09-15T07:24:12.126Z</time>
      </trkpt>
      <trkpt lat="44.13354" lon="0.45056">
        <ele>120</ele>
        <time>2022-09-15T07:24:13.126Z</time>
      </trkpt>
      <trkpt lat="44.13355" lon="0.45058">
        <ele>120</ele>
        <time>2022-09-15T07:24:14.126Z</time>
      </trkpt>
      <trkpt lat="44.13355" lon="0.45059">
        <ele>120</ele>
        <time>2022-09-15T07:24:15.126Z</time>
      </trkpt>
      <trkpt lat="44.13356" lon="0.4506">
        <ele>120</ele>
        <time>2022-09-15T07:24:16.126Z</time>
      </trkpt>
      <trkpt lat="44.13357" lon="0.45061">
        <ele>120</ele>
        <time>2022-09-15T07:24:17.126Z</time>
      </trkpt>
      <trkpt lat="44.13358" lon="0.45062">
        <ele>119</ele>
        <time>2022-09-15T07:24:18.126Z</time>
      </trkpt>
      <trkpt lat="44.13358" lon="0.45064">
        <ele>119</ele>
        <time>2022-09-15T07:24:19.126Z</time>
      </trkpt>
      <trkpt lat="44.13359" lon="0.45065">
        <ele>119</ele>
        <time>2022-09-15T07:24:20.126Z</time>
      </trkpt>
      <trkpt lat="44.1336" lon="0.45066">
        <ele>119</ele>
        <time>2022-09-15T07:24:21.126Z</time>
      </trkpt>
      <trkpt lat="44.13361" lon="0.45067">
        <ele>119</ele>
        <time>2022-09-15T07:24:22.126Z</time>
      </trkpt>
      <trkpt lat="44.13361" lon="0.45068">
        <ele>119</ele>
        <time>2022-09-15T07:24:23.126Z</time>
      </trkpt>
      <trkpt lat="44.13362" lon="0.45069">
        <ele>118</ele>
        <time>2022-09-15T07:24:24.126Z</time>
      </trkpt>
      <trkpt lat="44.13363" lon="0.45071">
        <ele>118</ele>
        <time>2022-09-15T07:24:25.126Z</time>
      </trkpt>
      <trkpt lat="44.13364" lon="0.45072">
        <ele>118</ele>
        <time>2022-09-15T07:24:26.126Z</time>
      </trkpt>
      <trkpt lat="44.13364" lon="0.45073">
        <ele>118</ele>
        <time>2022-09-15T07:24:27.126Z</time>
      </trkpt>
      <trkpt lat="44.13365" lon="0.45074">
        <ele>118</ele>
        <time>2022-09-15T07:24:28.126Z</time>
      </trkpt>
      <trkpt lat="44.13366" lon="0.45076">
        <ele>118</ele>
        <time>2022-09-15T07:24:29.126Z</time>
      </trkpt>
      <trkpt lat="44.13367" lon="0.45077">
        <ele>118</ele>
        <time>2022-09-15T07:24:30.126Z</time>
      </trkpt>
      <trkpt lat="44.13368" lon="0.45078">
        <ele>117</ele>
        <time>2022-09-15T07:24:31.126Z</time>
      </trkpt>
      <trkpt lat="44.13368" lon="0.45079">
        <ele>117</ele>
        <time>2022-09-15T07:24:32.126Z</time>
      </trkpt>
      <trkpt lat="44.13369" lon="0.4508">
        <ele>117</ele>
        <time>2022-09-15T07:24:33.126Z</time>
      </trkpt>
      <trkpt lat="44.1337" lon="0.45081">
        <ele>117</ele>
        <time>2022-09-15T07:24:34.126Z</time>
      </trkpt>
      <trkpt lat="44.13371" lon="0.45083">
        <ele>116</ele>
        <time>2022-09-15T07:24:35.126Z</time>
      </trkpt>
      <trkpt lat="44.13372" lon="0.45084">
        <ele>116</ele>
        <time>2022-09-15T07:24:36.126Z</time>
      </trkpt>
      <trkpt lat="44.13373" lon="0.45085">
        <ele>116</ele>
        <time>2022-09-15T07:24:37.126Z</time>
      </trkpt>
      <trkpt lat="44.13374" lon="0.45087">
        <ele>116</ele>
        <time>2022-09-15T07:24:38.126Z</time>
      </trkpt>
      <trkpt lat="44.13375" lon="0.45088">
        <ele>116</ele>
        <time>2022-09-15T07:24:39.126Z</time>
      </trkpt>
      <trkpt lat="44.13375" lon="0.45089">
        <ele>116</ele>
        <time>2022-09-15T07:24:40.126Z</time>
      </trkpt>
      <trkpt lat="44.13376" lon="0.4509">
        <ele>116</ele>
        <time>2022-09-15T07:24:41.126Z</time>
      </trkpt>
      <trkpt lat="44.13377" lon="0.45092">
        <ele>115</ele>
        <time>2022-09-15T07:24:42.126Z</time>
      </trkpt>
      <trkpt lat="44.13378" lon="0.45093">
        <ele>115</ele>
        <time>2022-09-15T07:24:43.126Z</time>
      </trkpt>
      <trkpt lat="44.13378" lon="0.45094">
        <ele>115</ele>
        <time>2022-09-15T07:24:44.126Z</time>
      </trkpt>
      <trkpt lat="44.13379" lon="0.45095">
        <ele>115</ele>
        <time>2022-09-15T07:24:45.126Z</time>
      </trkpt>
      <trkpt lat="44.1338" lon="0.45096">
        <ele>115</ele>
        <time>2022-09-15T07:24:46.126Z</time>
      </trkpt>
      <trkpt lat="44.13381" lon="0.45098">
        <ele>115</ele>
        <time>2022-09-15T07:24:47.126Z</time>
      </trkpt>
      <trkpt lat="44.13382" lon="0.45099">
        <ele>115</ele>
        <time>2022-09-15T07:24:48.126Z</time>
      </trkpt>
      <trkpt lat="44.13383" lon="0.45101">
        <ele>115</ele>
        <time>2022-09-15T07:24:49.126Z</time>
      </trkpt>
      <trkpt lat="44.13384" lon="0.45102">
        <ele>115</ele>
        <time>2022-09-15T07:24:50.126Z</time>
      </trkpt>
      <trkpt lat="44.13385" lon="0.45103">
        <ele>115</ele>
        <time>2022-09-15T07:24:51.126Z</time>
      </trkpt>
      <trkpt lat="44.13385" lon="0.45104">
        <ele>115</ele>
        <time>2022-09-15T07:24:52.126Z</time>
      </trkpt>
      <trkpt lat="44.13386" lon="0.45106">
        <ele>114</ele>
        <time>2022-09-15T07:24:53.126Z</time>
      </trkpt>
      <trkpt lat="44.13387" lon="0.45107">
        <ele>114</ele>
        <time>2022-09-15T07:24:54.126Z</time>
      </trkpt>
      <trkpt lat="44.13388" lon="0.45108">
        <ele>114</ele>
        <time>2022-09-15T07:24:55.126Z</time>
      </trkpt>
      <trkpt lat="44.13389" lon="0.4511">
        <ele>114</ele>
        <time>2022-09-15T07:24:56.126Z</time>
      </trkpt>
      <trkpt lat="44.13389" lon="0.45111">
        <ele>114</ele>
        <time>2022-09-15T07:24:57.126Z</time>
      </trkpt>
      <trkpt lat="44.1339" lon="0.45112">
        <ele>114</ele>
        <time>2022-09-15T07:24:58.126Z</time>
      </trkpt>
      <trkpt lat="44.13391" lon="0.45113">
        <ele>114</ele>
        <time>2022-09-15T07:24:59.126Z</time>
      </trkpt>
      <trkpt lat="44.13392" lon="0.45115">
        <ele>114</ele>
        <time>2022-09-15T07:25:00.126Z</time>
      </trkpt>
      <trkpt lat="44.13393" lon="0.45116">
        <ele>113</ele>
        <time>2022-09-15T07:25:01.126Z</time>
      </trkpt>
      <trkpt lat="44.13393" lon="0.45117">
        <ele>113</ele>
        <time>2022-09-15T07:25:02.126Z</time>
      </trkpt>
      <trkpt lat="44.13394" lon="0.45118">
        <ele>113</ele>
        <time>2022-09-15T07:25:03.126Z</time>
      </trkpt>
      <trkpt lat="44.13395" lon="0.45119">
        <ele>113</ele>
        <time>2022-09-15T07:25:04.126Z</time>
      </trkpt>
      <trkpt lat="44.13396" lon="0.45121">
        <ele>113</ele>
        <time>2022-09-15T07:25:05.126Z</time>
      </trkpt>
      <trkpt lat="44.13396" lon="0.45122">
        <ele>113</ele>
        <time>2022-09-15T07:25:06.126Z</time>
      </trkpt>
      <trkpt lat="44.13397" lon="0.45123">
        <ele>113</ele>
        <time>2022-09-15T07:25:07.126Z</time>
      </trkpt>
      <trkpt lat="44.13398" lon="0.45124">
        <ele>113</ele>
        <time>2022-09-15T07:25:08.126Z</time>
      </trkpt>
      <trkpt lat="44.13399" lon="0.45125">
        <ele>113</ele>
        <time>2022-09-15T07:25:09.126Z</time>
      </trkpt>
      <trkpt lat="44.134" lon="0.45126">
        <ele>113</ele>
        <time>2022-09-15T07:25:10.126Z</time>
      </trkpt>
      <trkpt lat="44.13401" lon="0.45127">
        <ele>113</ele>
        <time>2022-09-15T07:25:11.126Z</time>
      </trkpt>
      <trkpt lat="44.13401" lon="0.45128">
        <ele>113</ele>
        <time>2022-09-15T07:25:12.126Z</time>
      </trkpt>
      <trkpt lat="44.13402" lon="0.45129">
        <ele>112</ele>
        <time>2022-09-15T07:25:13.126Z</time>
      </trkpt>
      <trkpt lat="44.13403" lon="0.4513">
        <ele>112</ele>
        <time>2022-09-15T07:25:14.126Z</time>
      </trkpt>
      <trkpt lat="44.13404" lon="0.45131">
        <ele>112</ele>
        <time>2022-09-15T07:25:15.126Z</time>
      </trkpt>
      <trkpt lat="44.13405" lon="0.45132">
        <ele>112</ele>
        <time>2022-09-15T07:25:16.126Z</time>
      </trkpt>
      <trkpt lat="44.13406" lon="0.45133">
        <ele>112</ele>
        <time>2022-09-15T07:25:17.126Z</time>
      </trkpt>
      <trkpt lat="44.13407" lon="0.45133">
        <ele>112</ele>
        <time>2022-09-15T07:25:18.126Z</time>
      </trkpt>
      <trkpt lat="44.13408" lon="0.45134">
        <ele>112</ele>
        <time>2022-09-15T07:25:19.126Z</time>
      </trkpt>
      <trkpt lat="44.1341" lon="0.45135">
        <ele>113</ele>
        <time>2022-09-15T07:25:20.126Z</time>
      </trkpt>
      <trkpt lat="44.13411" lon="0.45136">
        <ele>112</ele>
        <time>2022-09-15T07:25:21.126Z</time>
      </trkpt>
      <trkpt lat="44.13412" lon="0.45137">
        <ele>113</ele>
        <time>2022-09-15T07:25:22.126Z</time>
      </trkpt>
      <trkpt lat="44.13413" lon="0.45138">
        <ele>113</ele>
        <time>2022-09-15T07:25:23.126Z</time>
      </trkpt>
      <trkpt lat="44.13414" lon="0.45138">
        <ele>113</ele>
        <time>2022-09-15T07:25:24.126Z</time>
      </trkpt>
      <trkpt lat="44.13415" lon="0.45139">
        <ele>113</ele>
        <time>2022-09-15T07:25:25.126Z</time>
      </trkpt>
      <trkpt lat="44.13417" lon="0.4514">
        <ele>113</ele>
        <time>2022-09-15T07:25:26.126Z</time>
      </trkpt>
      <trkpt lat="44.13418" lon="0.45141">
        <ele>113</ele>
        <time>2022-09-15T07:25:27.126Z</time>
      </trkpt>
      <trkpt lat="44.13419" lon="0.45142">
        <ele>113</ele>
        <time>2022-09-15T07:25:28.126Z</time>
      </trkpt>
      <trkpt lat="44.1342" lon="0.45142">
        <ele>113</ele>
        <time>2022-09-15T07:25:29.126Z</time>
      </trkpt>
      <trkpt lat="44.13421" lon="0.45143">
        <ele>113</ele>
        <time>2022-09-15T07:25:30.126Z</time>
      </trkpt>
      <trkpt lat="44.13422" lon="0.45143">
        <ele>112</ele>
        <time>2022-09-15T07:25:31.126Z</time>
      </trkpt>
      <trkpt lat="44.13423" lon="0.45144">
        <ele>112</ele>
        <time>2022-09-15T07:25:32.126Z</time>
      </trkpt>
      <trkpt lat="44.13424" lon="0.45144">
        <ele>112</ele>
        <time>2022-09-15T07:25:33.126Z</time>
      </trkpt>
      <trkpt lat="44.13425" lon="0.45144">
        <ele>112</ele>
        <time>2022-09-15T07:25:34.126Z</time>
      </trkpt>
      <trkpt lat="44.13426" lon="0.45144">
        <ele>112</ele>
        <time>2022-09-15T07:25:35.126Z</time>
      </trkpt>
      <trkpt lat="44.13428" lon="0.45144">
        <ele>112</ele>
        <time>2022-09-15T07:25:36.126Z</time>
      </trkpt>
      <trkpt lat="44.13429" lon="0.45144">
        <ele>111</ele>
        <time>2022-09-15T07:25:37.126Z</time>
      </trkpt>
      <trkpt lat="44.1343" lon="0.45144">
        <ele>111</ele>
        <time>2022-09-15T07:25:38.126Z</time>
      </trkpt>
      <trkpt lat="44.13431" lon="0.45144">
        <ele>111</ele>
        <time>2022-09-15T07:25:39.126Z</time>
      </trkpt>
      <trkpt lat="44.13433" lon="0.45144">
        <ele>111</ele>
        <time>2022-09-15T07:25:40.126Z</time>
      </trkpt>
      <trkpt lat="44.13434" lon="0.45144">
        <ele>111</ele>
        <time>2022-09-15T07:25:41.126Z</time>
      </trkpt>
      <trkpt lat="44.13435" lon="0.45144">
        <ele>111</ele>
        <time>2022-09-15T07:25:42.126Z</time>
      </trkpt>
      <trkpt lat="44.13436" lon="0.45144">
        <ele>111</ele>
        <time>2022-09-15T07:25:43.126Z</time>
      </trkpt>
      <trkpt lat="44.13437" lon="0.45145">
        <ele>111</ele>
        <time>2022-09-15T07:25:44.126Z</time>
      </trkpt>
      <trkpt lat="44.13438" lon="0.45145">
        <ele>111</ele>
        <time>2022-09-15T07:25:45.126Z</time>
      </trkpt>
      <trkpt lat="44.1344" lon="0.45145">
        <ele>110</ele>
        <time>2022-09-15T07:25:46.126Z</time>
      </trkpt>
      <trkpt lat="44.13441" lon="0.45145">
        <ele>110</ele>
        <time>2022-09-15T07:25:47.126Z</time>
      </trkpt>
      <trkpt lat="44.13442" lon="0.45145">
        <ele>110</ele>
        <time>2022-09-15T07:25:48.126Z</time>
      </trkpt>
      <trkpt lat="44.13444" lon="0.45145">
        <ele>110</ele>
        <time>2022-09-15T07:25:49.126Z</time>
      </trkpt>
      <trkpt lat="44.13445" lon="0.45145">
        <ele>110</ele>
        <time>2022-09-15T07:25:50.126Z</time>
      </trkpt>
      <trkpt lat="44.13446" lon="0.45145">
        <ele>110</ele>
        <time>2022-09-15T07:25:51.126Z</time>
      </trkpt>
      <trkpt lat="44.13447" lon="0.45145">
        <ele>110</ele>
        <time>2022-09-15T07:25:52.126Z</time>
      </trkpt>
      <trkpt lat="44.13448" lon="0.45145">
        <ele>110</ele>
        <time>2022-09-15T07:25:53.126Z</time>
      </trkpt>
      <trkpt lat="44.13449" lon="0.45145">
        <ele>109</ele>
        <time>2022-09-15T07:25:54.126Z</time>
      </trkpt>
      <trkpt lat="44.1345" lon="0.45145">
        <ele>110</ele>
        <time>2022-09-15T07:25:55.126Z</time>
      </trkpt>
      <trkpt lat="44.13452" lon="0.45145">
        <ele>110</ele>
        <time>2022-09-15T07:25:56.126Z</time>
      </trkpt>
      <trkpt lat="44.13453" lon="0.45145">
        <ele>109</ele>
        <time>2022-09-15T07:25:57.126Z</time>
      </trkpt>
      <trkpt lat="44.13454" lon="0.45145">
        <ele>108</ele>
        <time>2022-09-15T07:25:58.126Z</time>
      </trkpt>
      <trkpt lat="44.13455" lon="0.45145">
        <ele>108</ele>
        <time>2022-09-15T07:25:59.126Z</time>
      </trkpt>
      <trkpt lat="44.13457" lon="0.45145">
        <ele>108</ele>
        <time>2022-09-15T07:26:00.126Z</time>
      </trkpt>
      <trkpt lat="44.13458" lon="0.45145">
        <ele>108</ele>
        <time>2022-09-15T07:26:01.126Z</time>
      </trkpt>
      <trkpt lat="44.13459" lon="0.45145">
        <ele>108</ele>
        <time>2022-09-15T07:26:02.126Z</time>
      </trkpt>
      <trkpt lat="44.1346" lon="0.45146">
        <ele>108</ele>
        <time>2022-09-15T07:26:03.126Z</time>
      </trkpt>
      <trkpt lat="44.13461" lon="0.45146">
        <ele>108</ele>
        <time>2022-09-15T07:26:04.126Z</time>
      </trkpt>
      <trkpt lat="44.13462" lon="0.45146">
        <ele>108</ele>
        <time>2022-09-15T07:26:05.126Z</time>
      </trkpt>
      <trkpt lat="44.13463" lon="0.45146">
        <ele>108</ele>
        <time>2022-09-15T07:26:06.126Z</time>
      </trkpt>
      <trkpt lat="44.13465" lon="0.45146">
        <ele>108</ele>
        <time>2022-09-15T07:26:07.126Z</time>
      </trkpt>
      <trkpt lat="44.13466" lon="0.45146">
        <ele>108</ele>
        <time>2022-09-15T07:26:08.126Z</time>
      </trkpt>
      <trkpt lat="44.13467" lon="0.45147">
        <ele>107</ele>
        <time>2022-09-15T07:26:09.126Z</time>
      </trkpt>
      <trkpt lat="44.13469" lon="0.45147">
        <ele>107</ele>
        <time>2022-09-15T07:26:10.126Z</time>
      </trkpt>
      <trkpt lat="44.1347" lon="0.45147">
        <ele>107</ele>
        <time>2022-09-15T07:26:11.126Z</time>
      </trkpt>
      <trkpt lat="44.13471" lon="0.45148">
        <ele>107</ele>
        <time>2022-09-15T07:26:12.126Z</time>
      </trkpt>
      <trkpt lat="44.13472" lon="0.45148">
        <ele>107</ele>
        <time>2022-09-15T07:26:13.126Z</time>
      </trkpt>
      <trkpt lat="44.13473" lon="0.45148">
        <ele>107</ele>
        <time>2022-09-15T07:26:14.126Z</time>
      </trkpt>
      <trkpt lat="44.13474" lon="0.45148">
        <ele>107</ele>
        <time>2022-09-15T07:26:15.126Z</time>
      </trkpt>
      <trkpt lat="44.13475" lon="0.45149">
        <ele>107</ele>
        <time>2022-09-15T07:26:16.126Z</time>
      </trkpt>
      <trkpt lat="44.13477" lon="0.45149">
        <ele>107</ele>
        <time>2022-09-15T07:26:17.126Z</time>
      </trkpt>
      <trkpt lat="44.13477" lon="0.45149">
        <ele>107</ele>
        <time>2022-09-15T07:26:18.126Z</time>
      </trkpt>
      <trkpt lat="44.13479" lon="0.4515">
        <ele>107</ele>
        <time>2022-09-15T07:26:19.126Z</time>
      </trkpt>
      <trkpt lat="44.1348" lon="0.4515">
        <ele>107</ele>
        <time>2022-09-15T07:26:20.126Z</time>
      </trkpt>
      <trkpt lat="44.13481" lon="0.4515">
        <ele>107</ele>
        <time>2022-09-15T07:26:21.126Z</time>
      </trkpt>
      <trkpt lat="44.13482" lon="0.45151">
        <ele>107</ele>
        <time>2022-09-15T07:26:22.126Z</time>
      </trkpt>
      <trkpt lat="44.13483" lon="0.45151">
        <ele>107</ele>
        <time>2022-09-15T07:26:23.126Z</time>
      </trkpt>
      <trkpt lat="44.13484" lon="0.45152">
        <ele>107</ele>
        <time>2022-09-15T07:26:24.126Z</time>
      </trkpt>
      <trkpt lat="44.13485" lon="0.45152">
        <ele>107</ele>
        <time>2022-09-15T07:26:25.126Z</time>
      </trkpt>
      <trkpt lat="44.13486" lon="0.45152">
        <ele>107</ele>
        <time>2022-09-15T07:26:26.126Z</time>
      </trkpt>
      <trkpt lat="44.13487" lon="0.45152">
        <ele>107</ele>
        <time>2022-09-15T07:26:27.126Z</time>
      </trkpt>
      <trkpt lat="44.13489" lon="0.45152">
        <ele>107</ele>
        <time>2022-09-15T07:26:28.126Z</time>
      </trkpt>
      <trkpt lat="44.1349" lon="0.45152">
        <ele>107</ele>
        <time>2022-09-15T07:26:29.126Z</time>
      </trkpt>
      <trkpt lat="44.13491" lon="0.45152">
        <ele>107</ele>
        <time>2022-09-15T07:26:30.126Z</time>
      </trkpt>
      <trkpt lat="44.13492" lon="0.45152">
        <ele>107</ele>
        <time>2022-09-15T07:26:31.126Z</time>
      </trkpt>
      <trkpt lat="44.13493" lon="0.45152">
        <ele>107</ele>
        <time>2022-09-15T07:26:32.126Z</time>
      </trkpt>
      <trkpt lat="44.13494" lon="0.45152">
        <ele>107</ele>
        <time>2022-09-15T07:26:33.126Z</time>
      </trkpt>
      <trkpt lat="44.13496" lon="0.45152">
        <ele>107</ele>
        <time>2022-09-15T07:26:34.126Z</time>
      </trkpt>
      <trkpt lat="44.13497" lon="0.45152">
        <ele>107</ele>
        <time>2022-09-15T07:26:35.126Z</time>
      </trkpt>
      <trkpt lat="44.13498" lon="0.45152">
        <ele>107</ele>
        <time>2022-09-15T07:26:36.126Z</time>
      </trkpt>
      <trkpt lat="44.13499" lon="0.45152">
        <ele>107</ele>
        <time>2022-09-15T07:26:37.126Z</time>
      </trkpt>
      <trkpt lat="44.135" lon="0.45152">
        <ele>107</ele>
        <time>2022-09-15T07:26:38.126Z</time>
      </trkpt>
      <trkpt lat="44.13501" lon="0.45151">
        <ele>107</ele>
        <time>2022-09-15T07:26:39.126Z</time>
      </trkpt>
      <trkpt lat="44.13502" lon="0.45151">
        <ele>106</ele>
        <time>2022-09-15T07:26:40.126Z</time>
      </trkpt>
      <trkpt lat="44.13503" lon="0.45151">
        <ele>106</ele>
        <time>2022-09-15T07:26:41.126Z</time>
      </trkpt>
      <trkpt lat="44.13505" lon="0.4515">
        <ele>106</ele>
        <time>2022-09-15T07:26:42.126Z</time>
      </trkpt>
      <trkpt lat="44.13506" lon="0.4515">
        <ele>106</ele>
        <time>2022-09-15T07:26:43.126Z</time>
      </trkpt>
      <trkpt lat="44.13507" lon="0.45149">
        <ele>106</ele>
        <time>2022-09-15T07:26:44.126Z</time>
      </trkpt>
      <trkpt lat="44.13508" lon="0.45149">
        <ele>106</ele>
        <time>2022-09-15T07:26:45.126Z</time>
      </trkpt>
      <trkpt lat="44.13509" lon="0.45148">
        <ele>106</ele>
        <time>2022-09-15T07:26:46.126Z</time>
      </trkpt>
      <trkpt lat="44.1351" lon="0.45148">
        <ele>106</ele>
        <time>2022-09-15T07:26:47.126Z</time>
      </trkpt>
      <trkpt lat="44.13511" lon="0.45147">
        <ele>106</ele>
        <time>2022-09-15T07:26:48.126Z</time>
      </trkpt>
      <trkpt lat="44.13512" lon="0.45147">
        <ele>105</ele>
        <time>2022-09-15T07:26:49.126Z</time>
      </trkpt>
      <trkpt lat="44.13513" lon="0.45147">
        <ele>105</ele>
        <time>2022-09-15T07:26:50.126Z</time>
      </trkpt>
      <trkpt lat="44.13514" lon="0.45147">
        <ele>105</ele>
        <time>2022-09-15T07:26:51.126Z</time>
      </trkpt>
      <trkpt lat="44.13515" lon="0.45146">
        <ele>105</ele>
        <time>2022-09-15T07:26:52.126Z</time>
      </trkpt>
      <trkpt lat="44.13516" lon="0.45145">
        <ele>105</ele>
        <time>2022-09-15T07:26:53.126Z</time>
      </trkpt>
      <trkpt lat="44.13517" lon="0.45144">
        <ele>105</ele>
        <time>2022-09-15T07:26:54.126Z</time>
      </trkpt>
      <trkpt lat="44.13518" lon="0.45143">
        <ele>105</ele>
        <time>2022-09-15T07:26:55.126Z</time>
      </trkpt>
      <trkpt lat="44.1352" lon="0.45142">
        <ele>105</ele>
        <time>2022-09-15T07:26:56.126Z</time>
      </trkpt>
      <trkpt lat="44.13521" lon="0.45142">
        <ele>105</ele>
        <time>2022-09-15T07:26:57.126Z</time>
      </trkpt>
      <trkpt lat="44.13522" lon="0.45141">
        <ele>105</ele>
        <time>2022-09-15T07:26:58.126Z</time>
      </trkpt>
      <trkpt lat="44.13523" lon="0.45141">
        <ele>105</ele>
        <time>2022-09-15T07:26:59.126Z</time>
      </trkpt>
      <trkpt lat="44.13524" lon="0.4514">
        <ele>105</ele>
        <time>2022-09-15T07:27:00.126Z</time>
      </trkpt>
      <trkpt lat="44.13525" lon="0.45139">
        <ele>105</ele>
        <time>2022-09-15T07:27:01.126Z</time>
      </trkpt>
      <trkpt lat="44.13526" lon="0.45139">
        <ele>105</ele>
        <time>2022-09-15T07:27:02.126Z</time>
      </trkpt>
      <trkpt lat="44.13527" lon="0.45138">
        <ele>105</ele>
        <time>2022-09-15T07:27:03.126Z</time>
      </trkpt>
      <trkpt lat="44.13528" lon="0.45138">
        <ele>104</ele>
        <time>2022-09-15T07:27:04.126Z</time>
      </trkpt>
      <trkpt lat="44.13529" lon="0.45137">
        <ele>104</ele>
        <time>2022-09-15T07:27:05.126Z</time>
      </trkpt>
      <trkpt lat="44.13531" lon="0.45137">
        <ele>104</ele>
        <time>2022-09-15T07:27:06.126Z</time>
      </trkpt>
      <trkpt lat="44.13532" lon="0.45136">
        <ele>104</ele>
        <time>2022-09-15T07:27:07.126Z</time>
      </trkpt>
      <trkpt lat="44.13533" lon="0.45136">
        <ele>104</ele>
        <time>2022-09-15T07:27:08.126Z</time>
      </trkpt>
      <trkpt lat="44.13534" lon="0.45135">
        <ele>104</ele>
        <time>2022-09-15T07:27:09.126Z</time>
      </trkpt>
      <trkpt lat="44.13535" lon="0.45135">
        <ele>104</ele>
        <time>2022-09-15T07:27:10.126Z</time>
      </trkpt>
      <trkpt lat="44.13536" lon="0.45134">
        <ele>104</ele>
        <time>2022-09-15T07:27:11.126Z</time>
      </trkpt>
      <trkpt lat="44.13537" lon="0.45134">
        <ele>104</ele>
        <time>2022-09-15T07:27:12.126Z</time>
      </trkpt>
      <trkpt lat="44.13538" lon="0.45133">
        <ele>104</ele>
        <time>2022-09-15T07:27:13.126Z</time>
      </trkpt>
      <trkpt lat="44.13539" lon="0.45133">
        <ele>104</ele>
        <time>2022-09-15T07:27:14.126Z</time>
      </trkpt>
      <trkpt lat="44.13541" lon="0.45132">
        <ele>104</ele>
        <time>2022-09-15T07:27:15.126Z</time>
      </trkpt>
      <trkpt lat="44.13542" lon="0.45132">
        <ele>104</ele>
        <time>2022-09-15T07:27:16.126Z</time>
      </trkpt>
      <trkpt lat="44.13543" lon="0.45131">
        <ele>104</ele>
        <time>2022-09-15T07:27:17.126Z</time>
      </trkpt>
      <trkpt lat="44.13544" lon="0.45131">
        <ele>103</ele>
        <time>2022-09-15T07:27:18.126Z</time>
      </trkpt>
      <trkpt lat="44.13545" lon="0.45131">
        <ele>103</ele>
        <time>2022-09-15T07:27:19.126Z</time>
      </trkpt>
      <trkpt lat="44.13546" lon="0.4513">
        <ele>103</ele>
        <time>2022-09-15T07:27:20.126Z</time>
      </trkpt>
      <trkpt lat="44.13547" lon="0.4513">
        <ele>103</ele>
        <time>2022-09-15T07:27:21.126Z</time>
      </trkpt>
      <trkpt lat="44.13549" lon="0.45129">
        <ele>102</ele>
        <time>2022-09-15T07:27:22.126Z</time>
      </trkpt>
      <trkpt lat="44.1355" lon="0.45129">
        <ele>102</ele>
        <time>2022-09-15T07:27:23.126Z</time>
      </trkpt>
      <trkpt lat="44.13551" lon="0.45129">
        <ele>102</ele>
        <time>2022-09-15T07:27:24.126Z</time>
      </trkpt>
      <trkpt lat="44.13552" lon="0.45129">
        <ele>102</ele>
        <time>2022-09-15T07:27:25.126Z</time>
      </trkpt>
      <trkpt lat="44.13553" lon="0.45128">
        <ele>102</ele>
        <time>2022-09-15T07:27:26.126Z</time>
      </trkpt>
      <trkpt lat="44.13555" lon="0.45128">
        <ele>102</ele>
        <time>2022-09-15T07:27:27.126Z</time>
      </trkpt>
      <trkpt lat="44.13556" lon="0.45128">
        <ele>101</ele>
        <time>2022-09-15T07:27:28.126Z</time>
      </trkpt>
      <trkpt lat="44.13558" lon="0.45127">
        <ele>101</ele>
        <time>2022-09-15T07:27:29.126Z</time>
      </trkpt>
      <trkpt lat="44.13559" lon="0.45127">
        <ele>101</ele>
        <time>2022-09-15T07:27:30.126Z</time>
      </trkpt>
      <trkpt lat="44.1356" lon="0.45127">
        <ele>101</ele>
        <time>2022-09-15T07:27:31.126Z</time>
      </trkpt>
      <trkpt lat="44.13562" lon="0.45127">
        <ele>101</ele>
        <time>2022-09-15T07:27:32.126Z</time>
      </trkpt>
      <trkpt lat="44.13563" lon="0.45127">
        <ele>101</ele>
        <time>2022-09-15T07:27:33.126Z</time>
      </trkpt>
      <trkpt lat="44.13564" lon="0.45127">
        <ele>101</ele>
        <time>2022-09-15T07:27:34.126Z</time>
      </trkpt>
      <trkpt lat="44.13565" lon="0.45127">
        <ele>101</ele>
        <time>2022-09-15T07:27:35.126Z</time>
      </trkpt>
      <trkpt lat="44.13566" lon="0.45127">
        <ele>101</ele>
        <time>2022-09-15T07:27:36.126Z</time>
      </trkpt>
      <trkpt lat="44.13568" lon="0.45127">
        <ele>101</ele>
        <time>2022-09-15T07:27:37.126Z</time>
      </trkpt>
      <trkpt lat="44.13569" lon="0.45127">
        <ele>101</ele>
        <time>2022-09-15T07:27:38.126Z</time>
      </trkpt>
      <trkpt lat="44.1357" lon="0.45127">
        <ele>101</ele>
        <time>2022-09-15T07:27:39.126Z</time>
      </trkpt>
      <trkpt lat="44.13571" lon="0.45128">
        <ele>101</ele>
        <time>2022-09-15T07:27:40.126Z</time>
      </trkpt>
      <trkpt lat="44.13572" lon="0.45128">
        <ele>101</ele>
        <time>2022-09-15T07:27:41.126Z</time>
      </trkpt>
      <trkpt lat="44.13573" lon="0.45128">
        <ele>101</ele>
        <time>2022-09-15T07:27:42.126Z</time>
      </trkpt>
      <trkpt lat="44.13574" lon="0.45128">
        <ele>101</ele>
        <time>2022-09-15T07:27:43.126Z</time>
      </trkpt>
      <trkpt lat="44.13575" lon="0.45129">
        <ele>100</ele>
        <time>2022-09-15T07:27:44.126Z</time>
      </trkpt>
      <trkpt lat="44.13577" lon="0.45129">
        <ele>101</ele>
        <time>2022-09-15T07:27:45.126Z</time>
      </trkpt>
      <trkpt lat="44.13578" lon="0.45129">
        <ele>100</ele>
        <time>2022-09-15T07:27:46.126Z</time>
      </trkpt>
      <trkpt lat="44.13579" lon="0.4513">
        <ele>100</ele>
        <time>2022-09-15T07:27:47.126Z</time>
      </trkpt>
      <trkpt lat="44.1358" lon="0.45131">
        <ele>100</ele>
        <time>2022-09-15T07:27:48.126Z</time>
      </trkpt>
      <trkpt lat="44.13581" lon="0.45131">
        <ele>100</ele>
        <time>2022-09-15T07:27:49.126Z</time>
      </trkpt>
      <trkpt lat="44.13582" lon="0.45132">
        <ele>100</ele>
        <time>2022-09-15T07:27:50.126Z</time>
      </trkpt>
      <trkpt lat="44.13583" lon="0.45133">
        <ele>100</ele>
        <time>2022-09-15T07:27:51.126Z</time>
      </trkpt>
      <trkpt lat="44.13584" lon="0.45133">
        <ele>100</ele>
        <time>2022-09-15T07:27:52.126Z</time>
      </trkpt>
      <trkpt lat="44.13585" lon="0.45134">
        <ele>100</ele>
        <time>2022-09-15T07:27:53.126Z</time>
      </trkpt>
      <trkpt lat="44.13586" lon="0.45135">
        <ele>100</ele>
        <time>2022-09-15T07:27:54.126Z</time>
      </trkpt>
      <trkpt lat="44.13587" lon="0.45135">
        <ele>100</ele>
        <time>2022-09-15T07:27:55.126Z</time>
      </trkpt>
      <trkpt lat="44.13588" lon="0.45136">
        <ele>99</ele>
        <time>2022-09-15T07:27:56.126Z</time>
      </trkpt>
      <trkpt lat="44.13589" lon="0.45137">
        <ele>99</ele>
        <time>2022-09-15T07:27:57.126Z</time>
      </trkpt>
      <trkpt lat="44.1359" lon="0.45138">
        <ele>99</ele>
        <time>2022-09-15T07:27:58.126Z</time>
      </trkpt>
      <trkpt lat="44.13591" lon="0.45139">
        <ele>99</ele>
        <time>2022-09-15T07:27:59.126Z</time>
      </trkpt>
      <trkpt lat="44.13592" lon="0.45139">
        <ele>99</ele>
        <time>2022-09-15T07:28:00.126Z</time>
      </trkpt>
      <trkpt lat="44.13593" lon="0.4514">
        <ele>99</ele>
        <time>2022-09-15T07:28:01.126Z</time>
      </trkpt>
      <trkpt lat="44.13594" lon="0.45141">
        <ele>99</ele>
        <time>2022-09-15T07:28:02.126Z</time>
      </trkpt>
      <trkpt lat="44.13595" lon="0.45142">
        <ele>98</ele>
        <time>2022-09-15T07:28:03.126Z</time>
      </trkpt>
      <trkpt lat="44.13596" lon="0.45143">
        <ele>98</ele>
        <time>2022-09-15T07:28:04.126Z</time>
      </trkpt>
      <trkpt lat="44.13598" lon="0.45143">
        <ele>99</ele>
        <time>2022-09-15T07:28:05.126Z</time>
      </trkpt>
      <trkpt lat="44.13599" lon="0.45144">
        <ele>99</ele>
        <time>2022-09-15T07:28:06.126Z</time>
      </trkpt>
      <trkpt lat="44.136" lon="0.45145">
        <ele>99</ele>
        <time>2022-09-15T07:28:07.126Z</time>
      </trkpt>
      <trkpt lat="44.13601" lon="0.45146">
        <ele>99</ele>
        <time>2022-09-15T07:28:08.126Z</time>
      </trkpt>
      <trkpt lat="44.13602" lon="0.45146">
        <ele>98</ele>
        <time>2022-09-15T07:28:09.126Z</time>
      </trkpt>
      <trkpt lat="44.13603" lon="0.45147">
        <ele>98</ele>
        <time>2022-09-15T07:28:10.126Z</time>
      </trkpt>
      <trkpt lat="44.13604" lon="0.45148">
        <ele>98</ele>
        <time>2022-09-15T07:28:11.126Z</time>
      </trkpt>
      <trkpt lat="44.13605" lon="0.45149">
        <ele>98</ele>
        <time>2022-09-15T07:28:12.126Z</time>
      </trkpt>
      <trkpt lat="44.13606" lon="0.45149">
        <ele>98</ele>
        <time>2022-09-15T07:28:13.126Z</time>
      </trkpt>
      <trkpt lat="44.13607" lon="0.4515">
        <ele>98</ele>
        <time>2022-09-15T07:28:14.126Z</time>
      </trkpt>
      <trkpt lat="44.13608" lon="0.45151">
        <ele>97</ele>
        <time>2022-09-15T07:28:15.126Z</time>
      </trkpt>
      <trkpt lat="44.13609" lon="0.45151">
        <ele>97</ele>
        <time>2022-09-15T07:28:16.126Z</time>
      </trkpt>
      <trkpt lat="44.1361" lon="0.45152">
        <ele>97</ele>
        <time>2022-09-15T07:28:17.126Z</time>
      </trkpt>
      <trkpt lat="44.13611" lon="0.45153">
        <ele>97</ele>
        <time>2022-09-15T07:28:18.126Z</time>
      </trkpt>
      <trkpt lat="44.13612" lon="0.45154">
        <ele>97</ele>
        <time>2022-09-15T07:28:19.126Z</time>
      </trkpt>
      <trkpt lat="44.13613" lon="0.45154">
        <ele>97</ele>
        <time>2022-09-15T07:28:20.126Z</time>
      </trkpt>
      <trkpt lat="44.13615" lon="0.45155">
        <ele>97</ele>
        <time>2022-09-15T07:28:21.126Z</time>
      </trkpt>
      <trkpt lat="44.13616" lon="0.45156">
        <ele>97</ele>
        <time>2022-09-15T07:28:22.126Z</time>
      </trkpt>
      <trkpt lat="44.13617" lon="0.45157">
        <ele>97</ele>
        <time>2022-09-15T07:28:23.126Z</time>
      </trkpt>
      <trkpt lat="44.13618" lon="0.45158">
        <ele>97</ele>
        <time>2022-09-15T07:28:24.126Z</time>
      </trkpt>
      <trkpt lat="44.13619" lon="0.45159">
        <ele>97</ele>
        <time>2022-09-15T07:28:25.126Z</time>
      </trkpt>
      <trkpt lat="44.1362" lon="0.45159">
        <ele>97</ele>
        <time>2022-09-15T07:28:26.126Z</time>
      </trkpt>
      <trkpt lat="44.13621" lon="0.4516">
        <ele>97</ele>
        <time>2022-09-15T07:28:27.126Z</time>
      </trkpt>
      <trkpt lat="44.13622" lon="0.45161">
        <ele>97</ele>
        <time>2022-09-15T07:28:28.126Z</time>
      </trkpt>
      <trkpt lat="44.13624" lon="0.45162">
        <ele>98</ele>
        <time>2022-09-15T07:28:29.126Z</time>
      </trkpt>
      <trkpt lat="44.13625" lon="0.45163">
        <ele>97</ele>
        <time>2022-09-15T07:28:30.126Z</time>
      </trkpt>
      <trkpt lat="44.13626" lon="0.45164">
        <ele>97</ele>
        <time>2022-09-15T07:28:31.126Z</time>
      </trkpt>
      <trkpt lat="44.13627" lon="0.45164">
        <ele>97</ele>
        <time>2022-09-15T07:28:32.126Z</time>
      </trkpt>
      <trkpt lat="44.13628" lon="0.45165">
        <ele>97</ele>
        <time>2022-09-15T07:28:33.126Z</time>
      </trkpt>
      <trkpt lat="44.13629" lon="0.45166">
        <ele>97</ele>
        <time>2022-09-15T07:28:34.126Z</time>
      </trkpt>
      <trkpt lat="44.1363" lon="0.45167">
        <ele>96</ele>
        <time>2022-09-15T07:28:35.126Z</time>
      </trkpt>
      <trkpt lat="44.13631" lon="0.45168">
        <ele>96</ele>
        <time>2022-09-15T07:28:36.126Z</time>
      </trkpt>
      <trkpt lat="44.13633" lon="0.45168">
        <ele>96</ele>
        <time>2022-09-15T07:28:37.126Z</time>
      </trkpt>
      <trkpt lat="44.13634" lon="0.45169">
        <ele>96</ele>
        <time>2022-09-15T07:28:38.126Z</time>
      </trkpt>
      <trkpt lat="44.13635" lon="0.4517">
        <ele>96</ele>
        <time>2022-09-15T07:28:39.126Z</time>
      </trkpt>
      <trkpt lat="44.13636" lon="0.45171">
        <ele>96</ele>
        <time>2022-09-15T07:28:40.126Z</time>
      </trkpt>
      <trkpt lat="44.13637" lon="0.45172">
        <ele>96</ele>
        <time>2022-09-15T07:28:41.126Z</time>
      </trkpt>
      <trkpt lat="44.13638" lon="0.45173">
        <ele>95</ele>
        <time>2022-09-15T07:28:42.126Z</time>
      </trkpt>
      <trkpt lat="44.13639" lon="0.45174">
        <ele>96</ele>
        <time>2022-09-15T07:28:43.126Z</time>
      </trkpt>
      <trkpt lat="44.1364" lon="0.45174">
        <ele>95</ele>
        <time>2022-09-15T07:28:44.126Z</time>
      </trkpt>
      <trkpt lat="44.13641" lon="0.45175">
        <ele>96</ele>
        <time>2022-09-15T07:28:45.126Z</time>
      </trkpt>
      <trkpt lat="44.13642" lon="0.45176">
        <ele>96</ele>
        <time>2022-09-15T07:28:46.126Z</time>
      </trkpt>
      <trkpt lat="44.13643" lon="0.45177">
        <ele>95</ele>
        <time>2022-09-15T07:28:47.126Z</time>
      </trkpt>
      <trkpt lat="44.13645" lon="0.45178">
        <ele>95</ele>
        <time>2022-09-15T07:28:48.126Z</time>
      </trkpt>
      <trkpt lat="44.13646" lon="0.45179">
        <ele>95</ele>
        <time>2022-09-15T07:28:49.126Z</time>
      </trkpt>
      <trkpt lat="44.13647" lon="0.45179">
        <ele>95</ele>
        <time>2022-09-15T07:28:50.126Z</time>
      </trkpt>
      <trkpt lat="44.13648" lon="0.4518">
        <ele>95</ele>
        <time>2022-09-15T07:28:51.126Z</time>
      </trkpt>
      <trkpt lat="44.13649" lon="0.45181">
        <ele>95</ele>
        <time>2022-09-15T07:28:52.126Z</time>
      </trkpt>
      <trkpt lat="44.13651" lon="0.45182">
        <ele>95</ele>
        <time>2022-09-15T07:28:53.126Z</time>
      </trkpt>
      <trkpt lat="44.13652" lon="0.45183">
        <ele>95</ele>
        <time>2022-09-15T07:28:54.126Z</time>
      </trkpt>
      <trkpt lat="44.13653" lon="0.45183">
        <ele>95</ele>
        <time>2022-09-15T07:28:55.126Z</time>
      </trkpt>
      <trkpt lat="44.13654" lon="0.45184">
        <ele>95</ele>
        <time>2022-09-15T07:28:56.126Z</time>
      </trkpt>
      <trkpt lat="44.13655" lon="0.45185">
        <ele>94</ele>
        <time>2022-09-15T07:28:57.126Z</time>
      </trkpt>
      <trkpt lat="44.13656" lon="0.45186">
        <ele>94</ele>
        <time>2022-09-15T07:28:58.126Z</time>
      </trkpt>
      <trkpt lat="44.13657" lon="0.45187">
        <ele>94</ele>
        <time>2022-09-15T07:28:59.126Z</time>
      </trkpt>
      <trkpt lat="44.13658" lon="0.45187">
        <ele>94</ele>
        <time>2022-09-15T07:29:00.126Z</time>
      </trkpt>
      <trkpt lat="44.13659" lon="0.45188">
        <ele>94</ele>
        <time>2022-09-15T07:29:01.126Z</time>
      </trkpt>
      <trkpt lat="44.13661" lon="0.45189">
        <ele>94</ele>
        <time>2022-09-15T07:29:02.126Z</time>
      </trkpt>
      <trkpt lat="44.13662" lon="0.4519">
        <ele>94</ele>
        <time>2022-09-15T07:29:03.126Z</time>
      </trkpt>
      <trkpt lat="44.13663" lon="0.4519">
        <ele>94</ele>
        <time>2022-09-15T07:29:04.126Z</time>
      </trkpt>
      <trkpt lat="44.13664" lon="0.45191">
        <ele>94</ele>
        <time>2022-09-15T07:29:05.126Z</time>
      </trkpt>
      <trkpt lat="44.13665" lon="0.45192">
        <ele>94</ele>
        <time>2022-09-15T07:29:06.126Z</time>
      </trkpt>
      <trkpt lat="44.13666" lon="0.45193">
        <ele>94</ele>
        <time>2022-09-15T07:29:07.126Z</time>
      </trkpt>
      <trkpt lat="44.13667" lon="0.45193">
        <ele>94</ele>
        <time>2022-09-15T07:29:08.126Z</time>
      </trkpt>
      <trkpt lat="44.13668" lon="0.45194">
        <ele>93</ele>
        <time>2022-09-15T07:29:09.126Z</time>
      </trkpt>
      <trkpt lat="44.1367" lon="0.45195">
        <ele>93</ele>
        <time>2022-09-15T07:29:10.126Z</time>
      </trkpt>
      <trkpt lat="44.13671" lon="0.45195">
        <ele>93</ele>
        <time>2022-09-15T07:29:11.126Z</time>
      </trkpt>
      <trkpt lat="44.13672" lon="0.45196">
        <ele>93</ele>
        <time>2022-09-15T07:29:12.126Z</time>
      </trkpt>
      <trkpt lat="44.13673" lon="0.45197">
        <ele>93</ele>
        <time>2022-09-15T07:29:13.126Z</time>
      </trkpt>
      <trkpt lat="44.13675" lon="0.45198">
        <ele>93</ele>
        <time>2022-09-15T07:29:14.126Z</time>
      </trkpt>
      <trkpt lat="44.13676" lon="0.45199">
        <ele>93</ele>
        <time>2022-09-15T07:29:15.126Z</time>
      </trkpt>
      <trkpt lat="44.13677" lon="0.45199">
        <ele>93</ele>
        <time>2022-09-15T07:29:16.126Z</time>
      </trkpt>
      <trkpt lat="44.13678" lon="0.452">
        <ele>93</ele>
        <time>2022-09-15T07:29:17.126Z</time>
      </trkpt>
      <trkpt lat="44.13679" lon="0.45201">
        <ele>93</ele>
        <time>2022-09-15T07:29:18.126Z</time>
      </trkpt>
      <trkpt lat="44.1368" lon="0.45202">
        <ele>93</ele>
        <time>2022-09-15T07:29:19.126Z</time>
      </trkpt>
      <trkpt lat="44.13681" lon="0.45202">
        <ele>93</ele>
        <time>2022-09-15T07:29:20.126Z</time>
      </trkpt>
      <trkpt lat="44.13683" lon="0.45203">
        <ele>93</ele>
        <time>2022-09-15T07:29:21.126Z</time>
      </trkpt>
      <trkpt lat="44.13684" lon="0.45203">
        <ele>92</ele>
        <time>2022-09-15T07:29:22.126Z</time>
      </trkpt>
      <trkpt lat="44.13685" lon="0.45204">
        <ele>92</ele>
        <time>2022-09-15T07:29:23.126Z</time>
      </trkpt>
      <trkpt lat="44.13686" lon="0.45205">
        <ele>92</ele>
        <time>2022-09-15T07:29:24.126Z</time>
      </trkpt>
      <trkpt lat="44.13687" lon="0.45206">
        <ele>92</ele>
        <time>2022-09-15T07:29:25.126Z</time>
      </trkpt>
      <trkpt lat="44.13688" lon="0.45207">
        <ele>92</ele>
        <time>2022-09-15T07:29:26.126Z</time>
      </trkpt>
      <trkpt lat="44.13689" lon="0.45208">
        <ele>92</ele>
        <time>2022-09-15T07:29:27.126Z</time>
      </trkpt>
      <trkpt lat="44.13691" lon="0.45209">
        <ele>91</ele>
        <time>2022-09-15T07:29:28.126Z</time>
      </trkpt>
      <trkpt lat="44.13692" lon="0.4521">
        <ele>91</ele>
        <time>2022-09-15T07:29:29.126Z</time>
      </trkpt>
      <trkpt lat="44.13693" lon="0.4521">
        <ele>91</ele>
        <time>2022-09-15T07:29:30.126Z</time>
      </trkpt>
      <trkpt lat="44.13694" lon="0.45211">
        <ele>91</ele>
        <time>2022-09-15T07:29:31.126Z</time>
      </trkpt>
      <trkpt lat="44.13695" lon="0.45212">
        <ele>91</ele>
        <time>2022-09-15T07:29:32.126Z</time>
      </trkpt>
      <trkpt lat="44.13697" lon="0.45213">
        <ele>92</ele>
        <time>2022-09-15T07:29:33.126Z</time>
      </trkpt>
      <trkpt lat="44.13698" lon="0.45214">
        <ele>91</ele>
        <time>2022-09-15T07:29:34.126Z</time>
      </trkpt>
      <trkpt lat="44.13699" lon="0.45215">
        <ele>91</ele>
        <time>2022-09-15T07:29:35.126Z</time>
      </trkpt>
      <trkpt lat="44.137" lon="0.45215">
        <ele>91</ele>
        <time>2022-09-15T07:29:36.126Z</time>
      </trkpt>
      <trkpt lat="44.13701" lon="0.45216">
        <ele>91</ele>
        <time>2022-09-15T07:29:37.126Z</time>
      </trkpt>
      <trkpt lat="44.13702" lon="0.45217">
        <ele>91</ele>
        <time>2022-09-15T07:29:38.126Z</time>
      </trkpt>
      <trkpt lat="44.13704" lon="0.45218">
        <ele>91</ele>
        <time>2022-09-15T07:29:39.126Z</time>
      </trkpt>
      <trkpt lat="44.13705" lon="0.45219">
        <ele>91</ele>
        <time>2022-09-15T07:29:40.126Z</time>
      </trkpt>
      <trkpt lat="44.13706" lon="0.45219">
        <ele>91</ele>
        <time>2022-09-15T07:29:41.126Z</time>
      </trkpt>
      <trkpt lat="44.13707" lon="0.4522">
        <ele>90</ele>
        <time>2022-09-15T07:29:42.126Z</time>
      </trkpt>
      <trkpt lat="44.13708" lon="0.45221">
        <ele>90</ele>
        <time>2022-09-15T07:29:43.126Z</time>
      </trkpt>
      <trkpt lat="44.13709" lon="0.45221">
        <ele>90</ele>
        <time>2022-09-15T07:29:44.126Z</time>
      </trkpt>
      <trkpt lat="44.1371" lon="0.45222">
        <ele>90</ele>
        <time>2022-09-15T07:29:45.126Z</time>
      </trkpt>
      <trkpt lat="44.13711" lon="0.45222">
        <ele>90</ele>
        <time>2022-09-15T07:29:46.126Z</time>
      </trkpt>
      <trkpt lat="44.13712" lon="0.45223">
        <ele>90</ele>
        <time>2022-09-15T07:29:47.126Z</time>
      </trkpt>
      <trkpt lat="44.13713" lon="0.45224">
        <ele>90</ele>
        <time>2022-09-15T07:29:48.126Z</time>
      </trkpt>
      <trkpt lat="44.13714" lon="0.45225">
        <ele>90</ele>
        <time>2022-09-15T07:29:49.126Z</time>
      </trkpt>
      <trkpt lat="44.13715" lon="0.45225">
        <ele>90</ele>
        <time>2022-09-15T07:29:50.126Z</time>
      </trkpt>
      <trkpt lat="44.13716" lon="0.45226">
        <ele>90</ele>
        <time>2022-09-15T07:29:51.126Z</time>
      </trkpt>
      <trkpt lat="44.13717" lon="0.45227">
        <ele>89</ele>
        <time>2022-09-15T07:29:52.126Z</time>
      </trkpt>
      <trkpt lat="44.13718" lon="0.45228">
        <ele>89</ele>
        <time>2022-09-15T07:29:53.126Z</time>
      </trkpt>
      <trkpt lat="44.1372" lon="0.45228">
        <ele>89</ele>
        <time>2022-09-15T07:29:54.126Z</time>
      </trkpt>
      <trkpt lat="44.13721" lon="0.4523">
        <ele>88</ele>
        <time>2022-09-15T07:29:55.126Z</time>
      </trkpt>
      <trkpt lat="44.13722" lon="0.45231">
        <ele>89</ele>
        <time>2022-09-15T07:29:56.126Z</time>
      </trkpt>
      <trkpt lat="44.13724" lon="0.45232">
        <ele>88</ele>
        <time>2022-09-15T07:29:57.126Z</time>
      </trkpt>
      <trkpt lat="44.13725" lon="0.45232">
        <ele>88</ele>
        <time>2022-09-15T07:29:58.126Z</time>
      </trkpt>
      <trkpt lat="44.13726" lon="0.45233">
        <ele>88</ele>
        <time>2022-09-15T07:29:59.126Z</time>
      </trkpt>
      <trkpt lat="44.13727" lon="0.45234">
        <ele>88</ele>
        <time>2022-09-15T07:30:00.126Z</time>
      </trkpt>
      <trkpt lat="44.13728" lon="0.45235">
        <ele>88</ele>
        <time>2022-09-15T07:30:01.126Z</time>
      </trkpt>
      <trkpt lat="44.13729" lon="0.45235">
        <ele>88</ele>
        <time>2022-09-15T07:30:02.126Z</time>
      </trkpt>
      <trkpt lat="44.1373" lon="0.45237">
        <ele>88</ele>
        <time>2022-09-15T07:30:03.126Z</time>
      </trkpt>
      <trkpt lat="44.13731" lon="0.45238">
        <ele>88</ele>
        <time>2022-09-15T07:30:04.126Z</time>
      </trkpt>
      <trkpt lat="44.13732" lon="0.45238">
        <ele>87</ele>
        <time>2022-09-15T07:30:05.126Z</time>
      </trkpt>
      <trkpt lat="44.13734" lon="0.45239">
        <ele>87</ele>
        <time>2022-09-15T07:30:06.126Z</time>
      </trkpt>
      <trkpt lat="44.13735" lon="0.4524">
        <ele>87</ele>
        <time>2022-09-15T07:30:07.126Z</time>
      </trkpt>
      <trkpt lat="44.13736" lon="0.45241">
        <ele>87</ele>
        <time>2022-09-15T07:30:08.126Z</time>
      </trkpt>
      <trkpt lat="44.13737" lon="0.45241">
        <ele>87</ele>
        <time>2022-09-15T07:30:09.126Z</time>
      </trkpt>
      <trkpt lat="44.13738" lon="0.45242">
        <ele>87</ele>
        <time>2022-09-15T07:30:10.126Z</time>
      </trkpt>
      <trkpt lat="44.13739" lon="0.45243">
        <ele>87</ele>
        <time>2022-09-15T07:30:11.126Z</time>
      </trkpt>
      <trkpt lat="44.13741" lon="0.45243">
        <ele>88</ele>
        <time>2022-09-15T07:30:12.126Z</time>
      </trkpt>
      <trkpt lat="44.13742" lon="0.45244">
        <ele>88</ele>
        <time>2022-09-15T07:30:13.126Z</time>
      </trkpt>
      <trkpt lat="44.13743" lon="0.45245">
        <ele>88</ele>
        <time>2022-09-15T07:30:14.126Z</time>
      </trkpt>
      <trkpt lat="44.13745" lon="0.45245">
        <ele>88</ele>
        <time>2022-09-15T07:30:15.126Z</time>
      </trkpt>
      <trkpt lat="44.13746" lon="0.45246">
        <ele>87</ele>
        <time>2022-09-15T07:30:16.126Z</time>
      </trkpt>
      <trkpt lat="44.13747" lon="0.45247">
        <ele>87</ele>
        <time>2022-09-15T07:30:17.126Z</time>
      </trkpt>
      <trkpt lat="44.13748" lon="0.45248">
        <ele>86</ele>
        <time>2022-09-15T07:30:18.126Z</time>
      </trkpt>
      <trkpt lat="44.13749" lon="0.45248">
        <ele>86</ele>
        <time>2022-09-15T07:30:19.126Z</time>
      </trkpt>
      <trkpt lat="44.1375" lon="0.45249">
        <ele>86</ele>
        <time>2022-09-15T07:30:20.126Z</time>
      </trkpt>
      <trkpt lat="44.13751" lon="0.45249">
        <ele>86</ele>
        <time>2022-09-15T07:30:21.126Z</time>
      </trkpt>
      <trkpt lat="44.13752" lon="0.4525">
        <ele>86</ele>
        <time>2022-09-15T07:30:22.126Z</time>
      </trkpt>
      <trkpt lat="44.13753" lon="0.4525">
        <ele>86</ele>
        <time>2022-09-15T07:30:23.126Z</time>
      </trkpt>
      <trkpt lat="44.13754" lon="0.45251">
        <ele>86</ele>
        <time>2022-09-15T07:30:24.126Z</time>
      </trkpt>
      <trkpt lat="44.13756" lon="0.45251">
        <ele>85</ele>
        <time>2022-09-15T07:30:25.126Z</time>
      </trkpt>
      <trkpt lat="44.13757" lon="0.45252">
        <ele>86</ele>
        <time>2022-09-15T07:30:26.126Z</time>
      </trkpt>
      <trkpt lat="44.13758" lon="0.45253">
        <ele>86</ele>
        <time>2022-09-15T07:30:27.126Z</time>
      </trkpt>
      <trkpt lat="44.13759" lon="0.45254">
        <ele>86</ele>
        <time>2022-09-15T07:30:28.126Z</time>
      </trkpt>
      <trkpt lat="44.1376" lon="0.45255">
        <ele>86</ele>
        <time>2022-09-15T07:30:29.126Z</time>
      </trkpt>
      <trkpt lat="44.13761" lon="0.45256">
        <ele>86</ele>
        <time>2022-09-15T07:30:30.126Z</time>
      </trkpt>
      <trkpt lat="44.13762" lon="0.45256">
        <ele>85</ele>
        <time>2022-09-15T07:30:31.126Z</time>
      </trkpt>
      <trkpt lat="44.13763" lon="0.45257">
        <ele>86</ele>
        <time>2022-09-15T07:30:32.126Z</time>
      </trkpt>
      <trkpt lat="44.13764" lon="0.45258">
        <ele>86</ele>
        <time>2022-09-15T07:30:33.126Z</time>
      </trkpt>
      <trkpt lat="44.13766" lon="0.45258">
        <ele>85</ele>
        <time>2022-09-15T07:30:34.126Z</time>
      </trkpt>
      <trkpt lat="44.13766" lon="0.45259">
        <ele>85</ele>
        <time>2022-09-15T07:30:35.126Z</time>
      </trkpt>
      <trkpt lat="44.13767" lon="0.4526">
        <ele>85</ele>
        <time>2022-09-15T07:30:36.126Z</time>
      </trkpt>
      <trkpt lat="44.13768" lon="0.45261">
        <ele>85</ele>
        <time>2022-09-15T07:30:37.126Z</time>
      </trkpt>
      <trkpt lat="44.13769" lon="0.45262">
        <ele>85</ele>
        <time>2022-09-15T07:30:38.126Z</time>
      </trkpt>
      <trkpt lat="44.1377" lon="0.45263">
        <ele>85</ele>
        <time>2022-09-15T07:30:39.126Z</time>
      </trkpt>
      <trkpt lat="44.13771" lon="0.45264">
        <ele>85</ele>
        <time>2022-09-15T07:30:40.126Z</time>
      </trkpt>
      <trkpt lat="44.13772" lon="0.45265">
        <ele>84</ele>
        <time>2022-09-15T07:30:41.126Z</time>
      </trkpt>
      <trkpt lat="44.13773" lon="0.45266">
        <ele>84</ele>
        <time>2022-09-15T07:30:42.126Z</time>
      </trkpt>
      <trkpt lat="44.13774" lon="0.45266">
        <ele>84</ele>
        <time>2022-09-15T07:30:43.126Z</time>
      </trkpt>
      <trkpt lat="44.13775" lon="0.45267">
        <ele>84</ele>
        <time>2022-09-15T07:30:44.126Z</time>
      </trkpt>
      <trkpt lat="44.13776" lon="0.45268">
        <ele>84</ele>
        <time>2022-09-15T07:30:45.126Z</time>
      </trkpt>
      <trkpt lat="44.13777" lon="0.45269">
        <ele>84</ele>
        <time>2022-09-15T07:30:46.126Z</time>
      </trkpt>
      <trkpt lat="44.13778" lon="0.4527">
        <ele>84</ele>
        <time>2022-09-15T07:30:47.126Z</time>
      </trkpt>
      <trkpt lat="44.13779" lon="0.45271">
        <ele>84</ele>
        <time>2022-09-15T07:30:48.126Z</time>
      </trkpt>
      <trkpt lat="44.13781" lon="0.45272">
        <ele>84</ele>
        <time>2022-09-15T07:30:49.126Z</time>
      </trkpt>
      <trkpt lat="44.13782" lon="0.45273">
        <ele>83</ele>
        <time>2022-09-15T07:30:50.126Z</time>
      </trkpt>
      <trkpt lat="44.13782" lon="0.45274">
        <ele>83</ele>
        <time>2022-09-15T07:30:51.126Z</time>
      </trkpt>
      <trkpt lat="44.13783" lon="0.45274">
        <ele>83</ele>
        <time>2022-09-15T07:30:52.126Z</time>
      </trkpt>
      <trkpt lat="44.13784" lon="0.45275">
        <ele>83</ele>
        <time>2022-09-15T07:30:53.126Z</time>
      </trkpt>
      <trkpt lat="44.13786" lon="0.45276">
        <ele>82</ele>
        <time>2022-09-15T07:30:54.126Z</time>
      </trkpt>
      <trkpt lat="44.13787" lon="0.45277">
        <ele>82</ele>
        <time>2022-09-15T07:30:55.126Z</time>
      </trkpt>
      <trkpt lat="44.13788" lon="0.45277">
        <ele>82</ele>
        <time>2022-09-15T07:30:56.126Z</time>
      </trkpt>
      <trkpt lat="44.13789" lon="0.45278">
        <ele>82</ele>
        <time>2022-09-15T07:30:57.126Z</time>
      </trkpt>
      <trkpt lat="44.1379" lon="0.45279">
        <ele>82</ele>
        <time>2022-09-15T07:30:58.126Z</time>
      </trkpt>
      <trkpt lat="44.13791" lon="0.4528">
        <ele>82</ele>
        <time>2022-09-15T07:30:59.126Z</time>
      </trkpt>
      <trkpt lat="44.13792" lon="0.4528">
        <ele>82</ele>
        <time>2022-09-15T07:31:00.126Z</time>
      </trkpt>
      <trkpt lat="44.13792" lon="0.45281">
        <ele>82</ele>
        <time>2022-09-15T07:31:01.126Z</time>
      </trkpt>
      <trkpt lat="44.13793" lon="0.45281">
        <ele>81</ele>
        <time>2022-09-15T07:31:02.126Z</time>
      </trkpt>
      <trkpt lat="44.13794" lon="0.45282">
        <ele>82</ele>
        <time>2022-09-15T07:31:03.126Z</time>
      </trkpt>
      <trkpt lat="44.13795" lon="0.45282">
        <ele>82</ele>
        <time>2022-09-15T07:31:04.126Z</time>
      </trkpt>
      <trkpt lat="44.13796" lon="0.45283">
        <ele>82</ele>
        <time>2022-09-15T07:31:05.126Z</time>
      </trkpt>
      <trkpt lat="44.13797" lon="0.45284">
        <ele>82</ele>
        <time>2022-09-15T07:31:06.126Z</time>
      </trkpt>
      <trkpt lat="44.13798" lon="0.45285">
        <ele>82</ele>
        <time>2022-09-15T07:31:07.126Z</time>
      </trkpt>
      <trkpt lat="44.13799" lon="0.45286">
        <ele>82</ele>
        <time>2022-09-15T07:31:08.126Z</time>
      </trkpt>
      <trkpt lat="44.138" lon="0.45286">
        <ele>82</ele>
        <time>2022-09-15T07:31:09.126Z</time>
      </trkpt>
      <trkpt lat="44.13801" lon="0.45287">
        <ele>82</ele>
        <time>2022-09-15T07:31:10.126Z</time>
      </trkpt>
      <trkpt lat="44.13802" lon="0.45288">
        <ele>82</ele>
        <time>2022-09-15T07:31:11.126Z</time>
      </trkpt>
      <trkpt lat="44.13803" lon="0.45289">
        <ele>82</ele>
        <time>2022-09-15T07:31:12.126Z</time>
      </trkpt>
      <trkpt lat="44.13804" lon="0.4529">
        <ele>82</ele>
        <time>2022-09-15T07:31:13.126Z</time>
      </trkpt>
      <trkpt lat="44.13805" lon="0.45291">
        <ele>82</ele>
        <time>2022-09-15T07:31:14.126Z</time>
      </trkpt>
      <trkpt lat="44.13806" lon="0.45292">
        <ele>83</ele>
        <time>2022-09-15T07:31:15.126Z</time>
      </trkpt>
      <trkpt lat="44.13807" lon="0.45293">
        <ele>83</ele>
        <time>2022-09-15T07:31:16.126Z</time>
      </trkpt>
      <trkpt lat="44.13809" lon="0.45293">
        <ele>82</ele>
        <time>2022-09-15T07:31:17.126Z</time>
      </trkpt>
      <trkpt lat="44.13809" lon="0.45294">
        <ele>82</ele>
        <time>2022-09-15T07:31:18.126Z</time>
      </trkpt>
      <trkpt lat="44.1381" lon="0.45295">
        <ele>81</ele>
        <time>2022-09-15T07:31:19.126Z</time>
      </trkpt>
      <trkpt lat="44.13811" lon="0.45295">
        <ele>81</ele>
        <time>2022-09-15T07:31:20.126Z</time>
      </trkpt>
      <trkpt lat="44.13812" lon="0.45296">
        <ele>81</ele>
        <time>2022-09-15T07:31:21.126Z</time>
      </trkpt>
      <trkpt lat="44.13813" lon="0.45296">
        <ele>81</ele>
        <time>2022-09-15T07:31:22.126Z</time>
      </trkpt>
      <trkpt lat="44.13814" lon="0.45297">
        <ele>81</ele>
        <time>2022-09-15T07:31:23.126Z</time>
      </trkpt>
      <trkpt lat="44.13814" lon="0.45298">
        <ele>81</ele>
        <time>2022-09-15T07:31:24.126Z</time>
      </trkpt>
      <trkpt lat="44.13815" lon="0.453">
        <ele>81</ele>
        <time>2022-09-15T07:31:25.126Z</time>
      </trkpt>
      <trkpt lat="44.13817" lon="0.45301">
        <ele>81</ele>
        <time>2022-09-15T07:31:26.126Z</time>
      </trkpt>
      <trkpt lat="44.13818" lon="0.45302">
        <ele>81</ele>
        <time>2022-09-15T07:31:27.126Z</time>
      </trkpt>
      <trkpt lat="44.13819" lon="0.45303">
        <ele>80</ele>
        <time>2022-09-15T07:31:28.126Z</time>
      </trkpt>
      <trkpt lat="44.1382" lon="0.45304">
        <ele>80</ele>
        <time>2022-09-15T07:31:29.126Z</time>
      </trkpt>
      <trkpt lat="44.13821" lon="0.45304">
        <ele>80</ele>
        <time>2022-09-15T07:31:30.126Z</time>
      </trkpt>
      <trkpt lat="44.13822" lon="0.45305">
        <ele>80</ele>
        <time>2022-09-15T07:31:31.126Z</time>
      </trkpt>
      <trkpt lat="44.13823" lon="0.45306">
        <ele>80</ele>
        <time>2022-09-15T07:31:32.126Z</time>
      </trkpt>
      <trkpt lat="44.13824" lon="0.45307">
        <ele>80</ele>
        <time>2022-09-15T07:31:33.126Z</time>
      </trkpt>
      <trkpt lat="44.13825" lon="0.45309">
        <ele>80</ele>
        <time>2022-09-15T07:31:34.126Z</time>
      </trkpt>
      <trkpt lat="44.13826" lon="0.45311">
        <ele>80</ele>
        <time>2022-09-15T07:31:35.126Z</time>
      </trkpt>
      <trkpt lat="44.13827" lon="0.45312">
        <ele>80</ele>
        <time>2022-09-15T07:31:36.126Z</time>
      </trkpt>
      <trkpt lat="44.13827" lon="0.45313">
        <ele>80</ele>
        <time>2022-09-15T07:31:37.126Z</time>
      </trkpt>
      <trkpt lat="44.13828" lon="0.45314">
        <ele>79</ele>
        <time>2022-09-15T07:31:38.126Z</time>
      </trkpt>
      <trkpt lat="44.13829" lon="0.45315">
        <ele>79</ele>
        <time>2022-09-15T07:31:39.126Z</time>
      </trkpt>
      <trkpt lat="44.1383" lon="0.45316">
        <ele>79</ele>
        <time>2022-09-15T07:31:40.126Z</time>
      </trkpt>
      <trkpt lat="44.13831" lon="0.45317">
        <ele>79</ele>
        <time>2022-09-15T07:31:41.126Z</time>
      </trkpt>
      <trkpt lat="44.13832" lon="0.45318">
        <ele>79</ele>
        <time>2022-09-15T07:31:42.126Z</time>
      </trkpt>
      <trkpt lat="44.13833" lon="0.45319">
        <ele>78</ele>
        <time>2022-09-15T07:31:43.126Z</time>
      </trkpt>
      <trkpt lat="44.13834" lon="0.4532">
        <ele>78</ele>
        <time>2022-09-15T07:31:44.126Z</time>
      </trkpt>
      <trkpt lat="44.13836" lon="0.45321">
        <ele>78</ele>
        <time>2022-09-15T07:31:45.126Z</time>
      </trkpt>
      <trkpt lat="44.13837" lon="0.45322">
        <ele>78</ele>
        <time>2022-09-15T07:31:46.126Z</time>
      </trkpt>
      <trkpt lat="44.13838" lon="0.45323">
        <ele>78</ele>
        <time>2022-09-15T07:31:47.126Z</time>
      </trkpt>
      <trkpt lat="44.13839" lon="0.45323">
        <ele>77</ele>
        <time>2022-09-15T07:31:48.126Z</time>
      </trkpt>
      <trkpt lat="44.1384" lon="0.45324">
        <ele>77</ele>
        <time>2022-09-15T07:31:49.126Z</time>
      </trkpt>
      <trkpt lat="44.13841" lon="0.45326">
        <ele>77</ele>
        <time>2022-09-15T07:31:50.126Z</time>
      </trkpt>
      <trkpt lat="44.13842" lon="0.45327">
        <ele>77</ele>
        <time>2022-09-15T07:31:51.126Z</time>
      </trkpt>
      <trkpt lat="44.13843" lon="0.45327">
        <ele>77</ele>
        <time>2022-09-15T07:31:52.126Z</time>
      </trkpt>
      <trkpt lat="44.13844" lon="0.45328">
        <ele>77</ele>
        <time>2022-09-15T07:31:53.126Z</time>
      </trkpt>
      <trkpt lat="44.13845" lon="0.45329">
        <ele>77</ele>
        <time>2022-09-15T07:31:54.126Z</time>
      </trkpt>
      <trkpt lat="44.13847" lon="0.4533">
        <ele>77</ele>
        <time>2022-09-15T07:31:55.126Z</time>
      </trkpt>
      <trkpt lat="44.13848" lon="0.45331">
        <ele>77</ele>
        <time>2022-09-15T07:31:56.126Z</time>
      </trkpt>
      <trkpt lat="44.13849" lon="0.45331">
        <ele>77</ele>
        <time>2022-09-15T07:31:57.126Z</time>
      </trkpt>
      <trkpt lat="44.1385" lon="0.45332">
        <ele>76</ele>
        <time>2022-09-15T07:31:58.126Z</time>
      </trkpt>
      <trkpt lat="44.13851" lon="0.45333">
        <ele>77</ele>
        <time>2022-09-15T07:31:59.126Z</time>
      </trkpt>
      <trkpt lat="44.13852" lon="0.45334">
        <ele>76</ele>
        <time>2022-09-15T07:32:00.126Z</time>
      </trkpt>
      <trkpt lat="44.13853" lon="0.45335">
        <ele>76</ele>
        <time>2022-09-15T07:32:01.126Z</time>
      </trkpt>
      <trkpt lat="44.13854" lon="0.45336">
        <ele>76</ele>
        <time>2022-09-15T07:32:02.126Z</time>
      </trkpt>
      <trkpt lat="44.13855" lon="0.45336">
        <ele>76</ele>
        <time>2022-09-15T07:32:03.126Z</time>
      </trkpt>
      <trkpt lat="44.13856" lon="0.45337">
        <ele>76</ele>
        <time>2022-09-15T07:32:04.126Z</time>
      </trkpt>
      <trkpt lat="44.13857" lon="0.45338">
        <ele>76</ele>
        <time>2022-09-15T07:32:05.126Z</time>
      </trkpt>
      <trkpt lat="44.13858" lon="0.45339">
        <ele>76</ele>
        <time>2022-09-15T07:32:06.126Z</time>
      </trkpt>
      <trkpt lat="44.13859" lon="0.45339">
        <ele>76</ele>
        <time>2022-09-15T07:32:07.126Z</time>
      </trkpt>
      <trkpt lat="44.1386" lon="0.4534">
        <ele>76</ele>
        <time>2022-09-15T07:32:08.126Z</time>
      </trkpt>
      <trkpt lat="44.13861" lon="0.45341">
        <ele>76</ele>
        <time>2022-09-15T07:32:09.126Z</time>
      </trkpt>
      <trkpt lat="44.13863" lon="0.45342">
        <ele>76</ele>
        <time>2022-09-15T07:32:10.126Z</time>
      </trkpt>
      <trkpt lat="44.13864" lon="0.45343">
        <ele>77</ele>
        <time>2022-09-15T07:32:11.126Z</time>
      </trkpt>
      <trkpt lat="44.13865" lon="0.45344">
        <ele>76</ele>
        <time>2022-09-15T07:32:12.126Z</time>
      </trkpt>
      <trkpt lat="44.13865" lon="0.45344">
        <ele>76</ele>
        <time>2022-09-15T07:32:13.126Z</time>
      </trkpt>
      <trkpt lat="44.13866" lon="0.45345">
        <ele>76</ele>
        <time>2022-09-15T07:32:14.126Z</time>
      </trkpt>
      <trkpt lat="44.13867" lon="0.45346">
        <ele>76</ele>
        <time>2022-09-15T07:32:15.126Z</time>
      </trkpt>
      <trkpt lat="44.13868" lon="0.45347">
        <ele>76</ele>
        <time>2022-09-15T07:32:16.126Z</time>
      </trkpt>
      <trkpt lat="44.13869" lon="0.45347">
        <ele>76</ele>
        <time>2022-09-15T07:32:17.126Z</time>
      </trkpt>
      <trkpt lat="44.1387" lon="0.45348">
        <ele>76</ele>
        <time>2022-09-15T07:32:18.126Z</time>
      </trkpt>
      <trkpt lat="44.13871" lon="0.45349">
        <ele>76</ele>
        <time>2022-09-15T07:32:19.126Z</time>
      </trkpt>
      <trkpt lat="44.13872" lon="0.4535">
        <ele>76</ele>
        <time>2022-09-15T07:32:20.126Z</time>
      </trkpt>
      <trkpt lat="44.13873" lon="0.4535">
        <ele>76</ele>
        <time>2022-09-15T07:32:21.126Z</time>
      </trkpt>
      <trkpt lat="44.13874" lon="0.45351">
        <ele>76</ele>
        <time>2022-09-15T07:32:22.126Z</time>
      </trkpt>
      <trkpt lat="44.13875" lon="0.45352">
        <ele>75</ele>
        <time>2022-09-15T07:32:23.126Z</time>
      </trkpt>
      <trkpt lat="44.13876" lon="0.45353">
        <ele>76</ele>
        <time>2022-09-15T07:32:24.126Z</time>
      </trkpt>
      <trkpt lat="44.13877" lon="0.45353">
        <ele>76</ele>
        <time>2022-09-15T07:32:25.126Z</time>
      </trkpt>
      <trkpt lat="44.13878" lon="0.45354">
        <ele>76</ele>
        <time>2022-09-15T07:32:26.126Z</time>
      </trkpt>
      <trkpt lat="44.13878" lon="0.45354">
        <ele>75</ele>
        <time>2022-09-15T07:32:27.126Z</time>
      </trkpt>
      <trkpt lat="44.13879" lon="0.45355">
        <ele>76</ele>
        <time>2022-09-15T07:32:28.126Z</time>
      </trkpt>
      <trkpt lat="44.1388" lon="0.45355">
        <ele>75</ele>
        <time>2022-09-15T07:32:29.126Z</time>
      </trkpt>
      <trkpt lat="44.13881" lon="0.45356">
        <ele>76</ele>
        <time>2022-09-15T07:32:30.126Z</time>
      </trkpt>
      <trkpt lat="44.13882" lon="0.45357">
        <ele>75</ele>
        <time>2022-09-15T07:32:31.126Z</time>
      </trkpt>
      <trkpt lat="44.13883" lon="0.45358">
        <ele>75</ele>
        <time>2022-09-15T07:32:32.126Z</time>
      </trkpt>
      <trkpt lat="44.13884" lon="0.45359">
        <ele>75</ele>
        <time>2022-09-15T07:32:33.126Z</time>
      </trkpt>
      <trkpt lat="44.13885" lon="0.4536">
        <ele>75</ele>
        <time>2022-09-15T07:32:34.126Z</time>
      </trkpt>
      <trkpt lat="44.13886" lon="0.45361">
        <ele>75</ele>
        <time>2022-09-15T07:32:35.126Z</time>
      </trkpt>
      <trkpt lat="44.13886" lon="0.45361">
        <ele>75</ele>
        <time>2022-09-15T07:32:36.126Z</time>
      </trkpt>
      <trkpt lat="44.13887" lon="0.45362">
        <ele>75</ele>
        <time>2022-09-15T07:32:37.126Z</time>
      </trkpt>
      <trkpt lat="44.13888" lon="0.45363">
        <ele>75</ele>
        <time>2022-09-15T07:32:38.126Z</time>
      </trkpt>
      <trkpt lat="44.1389" lon="0.45364">
        <ele>75</ele>
        <time>2022-09-15T07:32:39.126Z</time>
      </trkpt>
      <trkpt lat="44.13891" lon="0.45365">
        <ele>75</ele>
        <time>2022-09-15T07:32:40.126Z</time>
      </trkpt>
      <trkpt lat="44.13892" lon="0.45366">
        <ele>75</ele>
        <time>2022-09-15T07:32:41.126Z</time>
      </trkpt>
      <trkpt lat="44.13893" lon="0.45366">
        <ele>75</ele>
        <time>2022-09-15T07:32:42.126Z</time>
      </trkpt>
      <trkpt lat="44.13894" lon="0.45367">
        <ele>75</ele>
        <time>2022-09-15T07:32:43.126Z</time>
      </trkpt>
      <trkpt lat="44.13895" lon="0.45368">
        <ele>75</ele>
        <time>2022-09-15T07:32:44.126Z</time>
      </trkpt>
      <trkpt lat="44.13896" lon="0.45369">
        <ele>75</ele>
        <time>2022-09-15T07:32:45.126Z</time>
      </trkpt>
      <trkpt lat="44.13897" lon="0.4537">
        <ele>74</ele>
        <time>2022-09-15T07:32:46.126Z</time>
      </trkpt>
      <trkpt lat="44.13898" lon="0.45371">
        <ele>74</ele>
        <time>2022-09-15T07:32:47.126Z</time>
      </trkpt>
      <trkpt lat="44.13899" lon="0.45372">
        <ele>74</ele>
        <time>2022-09-15T07:32:48.126Z</time>
      </trkpt>
      <trkpt lat="44.139" lon="0.45373">
        <ele>74</ele>
        <time>2022-09-15T07:32:49.126Z</time>
      </trkpt>
      <trkpt lat="44.13901" lon="0.45374">
        <ele>74</ele>
        <time>2022-09-15T07:32:50.126Z</time>
      </trkpt>
      <trkpt lat="44.13902" lon="0.45375">
        <ele>74</ele>
        <time>2022-09-15T07:32:51.126Z</time>
      </trkpt>
      <trkpt lat="44.13903" lon="0.45376">
        <ele>74</ele>
        <time>2022-09-15T07:32:52.126Z</time>
      </trkpt>
      <trkpt lat="44.13904" lon="0.45377">
        <ele>74</ele>
        <time>2022-09-15T07:32:53.126Z</time>
      </trkpt>
      <trkpt lat="44.13905" lon="0.45377">
        <ele>74</ele>
        <time>2022-09-15T07:32:54.126Z</time>
      </trkpt>
      <trkpt lat="44.13906" lon="0.45378">
        <ele>74</ele>
        <time>2022-09-15T07:32:55.126Z</time>
      </trkpt>
      <trkpt lat="44.13907" lon="0.45379">
        <ele>74</ele>
        <time>2022-09-15T07:32:56.126Z</time>
      </trkpt>
      <trkpt lat="44.13908" lon="0.4538">
        <ele>74</ele>
        <time>2022-09-15T07:32:57.126Z</time>
      </trkpt>
      <trkpt lat="44.13908" lon="0.45381">
        <ele>74</ele>
        <time>2022-09-15T07:32:58.126Z</time>
      </trkpt>
      <trkpt lat="44.13909" lon="0.45382">
        <ele>74</ele>
        <time>2022-09-15T07:32:59.126Z</time>
      </trkpt>
      <trkpt lat="44.1391" lon="0.45383">
        <ele>74</ele>
        <time>2022-09-15T07:33:00.126Z</time>
      </trkpt>
      <trkpt lat="44.13911" lon="0.45383">
        <ele>74</ele>
        <time>2022-09-15T07:33:01.126Z</time>
      </trkpt>
      <trkpt lat="44.13912" lon="0.45384">
        <ele>74</ele>
        <time>2022-09-15T07:33:02.126Z</time>
      </trkpt>
      <trkpt lat="44.13913" lon="0.45385">
        <ele>74</ele>
        <time>2022-09-15T07:33:03.126Z</time>
      </trkpt>
      <trkpt lat="44.13914" lon="0.45386">
        <ele>73</ele>
        <time>2022-09-15T07:33:04.126Z</time>
      </trkpt>
      <trkpt lat="44.13915" lon="0.45387">
        <ele>73</ele>
        <time>2022-09-15T07:33:05.126Z</time>
      </trkpt>
      <trkpt lat="44.13916" lon="0.45388">
        <ele>73</ele>
        <time>2022-09-15T07:33:06.126Z</time>
      </trkpt>
      <trkpt lat="44.13917" lon="0.45388">
        <ele>73</ele>
        <time>2022-09-15T07:33:07.126Z</time>
      </trkpt>
      <trkpt lat="44.13918" lon="0.45389">
        <ele>73</ele>
        <time>2022-09-15T07:33:08.126Z</time>
      </trkpt>
      <trkpt lat="44.13919" lon="0.4539">
        <ele>73</ele>
        <time>2022-09-15T07:33:09.126Z</time>
      </trkpt>
      <trkpt lat="44.1392" lon="0.45391">
        <ele>73</ele>
        <time>2022-09-15T07:33:10.126Z</time>
      </trkpt>
      <trkpt lat="44.1392" lon="0.45391">
        <ele>73</ele>
        <time>2022-09-15T07:33:11.126Z</time>
      </trkpt>
      <trkpt lat="44.13921" lon="0.45392">
        <ele>73</ele>
        <time>2022-09-15T07:33:12.126Z</time>
      </trkpt>
      <trkpt lat="44.13922" lon="0.45393">
        <ele>73</ele>
        <time>2022-09-15T07:33:13.126Z</time>
      </trkpt>
      <trkpt lat="44.13923" lon="0.45394">
        <ele>72</ele>
        <time>2022-09-15T07:33:14.126Z</time>
      </trkpt>
      <trkpt lat="44.13924" lon="0.45395">
        <ele>72</ele>
        <time>2022-09-15T07:33:15.126Z</time>
      </trkpt>
      <trkpt lat="44.13925" lon="0.45396">
        <ele>72</ele>
        <time>2022-09-15T07:33:16.126Z</time>
      </trkpt>
      <trkpt lat="44.13926" lon="0.45397">
        <ele>72</ele>
        <time>2022-09-15T07:33:17.126Z</time>
      </trkpt>
      <trkpt lat="44.13927" lon="0.45397">
        <ele>72</ele>
        <time>2022-09-15T07:33:18.126Z</time>
      </trkpt>
      <trkpt lat="44.13928" lon="0.45398">
        <ele>72</ele>
        <time>2022-09-15T07:33:19.126Z</time>
      </trkpt>
      <trkpt lat="44.13929" lon="0.45399">
        <ele>72</ele>
        <time>2022-09-15T07:33:20.126Z</time>
      </trkpt>
      <trkpt lat="44.1393" lon="0.454">
        <ele>71</ele>
        <time>2022-09-15T07:33:21.126Z</time>
      </trkpt>
      <trkpt lat="44.13931" lon="0.454">
        <ele>71</ele>
        <time>2022-09-15T07:33:22.126Z</time>
      </trkpt>
      <trkpt lat="44.13932" lon="0.45401">
        <ele>71</ele>
        <time>2022-09-15T07:33:23.126Z</time>
      </trkpt>
      <trkpt lat="44.13933" lon="0.45402">
        <ele>71</ele>
        <time>2022-09-15T07:33:24.126Z</time>
      </trkpt>
      <trkpt lat="44.13934" lon="0.45403">
        <ele>71</ele>
        <time>2022-09-15T07:33:25.126Z</time>
      </trkpt>
      <trkpt lat="44.13935" lon="0.45404">
        <ele>71</ele>
        <time>2022-09-15T07:33:26.126Z</time>
      </trkpt>
      <trkpt lat="44.13936" lon="0.45405">
        <ele>71</ele>
        <time>2022-09-15T07:33:27.126Z</time>
      </trkpt>
      <trkpt lat="44.13937" lon="0.45406">
        <ele>71</ele>
        <time>2022-09-15T07:33:28.126Z</time>
      </trkpt>
      <trkpt lat="44.13938" lon="0.45406">
        <ele>71</ele>
        <time>2022-09-15T07:33:29.126Z</time>
      </trkpt>
      <trkpt lat="44.13939" lon="0.45407">
        <ele>71</ele>
        <time>2022-09-15T07:33:30.126Z</time>
      </trkpt>
      <trkpt lat="44.1394" lon="0.45408">
        <ele>71</ele>
        <time>2022-09-15T07:33:31.126Z</time>
      </trkpt>
      <trkpt lat="44.13941" lon="0.45409">
        <ele>70</ele>
        <time>2022-09-15T07:33:32.126Z</time>
      </trkpt>
      <trkpt lat="44.13942" lon="0.4541">
        <ele>70</ele>
        <time>2022-09-15T07:33:33.126Z</time>
      </trkpt>
      <trkpt lat="44.13943" lon="0.45411">
        <ele>70</ele>
        <time>2022-09-15T07:33:34.126Z</time>
      </trkpt>
      <trkpt lat="44.13944" lon="0.45411">
        <ele>70</ele>
        <time>2022-09-15T07:33:35.126Z</time>
      </trkpt>
      <trkpt lat="44.13945" lon="0.45412">
        <ele>69</ele>
        <time>2022-09-15T07:33:36.126Z</time>
      </trkpt>
      <trkpt lat="44.13946" lon="0.45413">
        <ele>70</ele>
        <time>2022-09-15T07:33:37.126Z</time>
      </trkpt>
      <trkpt lat="44.13947" lon="0.45415">
        <ele>69</ele>
        <time>2022-09-15T07:33:38.126Z</time>
      </trkpt>
      <trkpt lat="44.13948" lon="0.45416">
        <ele>69</ele>
        <time>2022-09-15T07:33:39.126Z</time>
      </trkpt>
      <trkpt lat="44.13949" lon="0.45416">
        <ele>69</ele>
        <time>2022-09-15T07:33:40.126Z</time>
      </trkpt>
      <trkpt lat="44.1395" lon="0.45417">
        <ele>69</ele>
        <time>2022-09-15T07:33:41.126Z</time>
      </trkpt>
      <trkpt lat="44.13951" lon="0.45417">
        <ele>69</ele>
        <time>2022-09-15T07:33:42.126Z</time>
      </trkpt>
      <trkpt lat="44.13952" lon="0.45417">
        <ele>69</ele>
        <time>2022-09-15T07:33:43.126Z</time>
      </trkpt>
      <trkpt lat="44.13954" lon="0.45418">
        <ele>69</ele>
        <time>2022-09-15T07:33:44.126Z</time>
      </trkpt>
      <trkpt lat="44.13955" lon="0.45417">
        <ele>69</ele>
        <time>2022-09-15T07:33:45.126Z</time>
      </trkpt>
      <trkpt lat="44.13956" lon="0.45417">
        <ele>68</ele>
        <time>2022-09-15T07:33:46.126Z</time>
      </trkpt>
      <trkpt lat="44.13957" lon="0.45417">
        <ele>68</ele>
        <time>2022-09-15T07:33:47.126Z</time>
      </trkpt>
      <trkpt lat="44.13959" lon="0.45416">
        <ele>68</ele>
        <time>2022-09-15T07:33:48.126Z</time>
      </trkpt>
      <trkpt lat="44.1396" lon="0.45416">
        <ele>68</ele>
        <time>2022-09-15T07:33:49.126Z</time>
      </trkpt>
      <trkpt lat="44.13961" lon="0.45414">
        <ele>68</ele>
        <time>2022-09-15T07:33:50.126Z</time>
      </trkpt>
      <trkpt lat="44.13962" lon="0.45413">
        <ele>68</ele>
        <time>2022-09-15T07:33:51.126Z</time>
      </trkpt>
      <trkpt lat="44.13963" lon="0.45412">
        <ele>68</ele>
        <time>2022-09-15T07:33:52.126Z</time>
      </trkpt>
      <trkpt lat="44.13964" lon="0.45411">
        <ele>68</ele>
        <time>2022-09-15T07:33:53.126Z</time>
      </trkpt>
      <trkpt lat="44.13965" lon="0.4541">
        <ele>68</ele>
        <time>2022-09-15T07:33:54.126Z</time>
      </trkpt>
      <trkpt lat="44.13966" lon="0.45409">
        <ele>68</ele>
        <time>2022-09-15T07:33:55.126Z</time>
      </trkpt>
      <trkpt lat="44.13967" lon="0.45408">
        <ele>68</ele>
        <time>2022-09-15T07:33:56.126Z</time>
      </trkpt>
      <trkpt lat="44.13968" lon="0.45407">
        <ele>68</ele>
        <time>2022-09-15T07:33:57.126Z</time>
      </trkpt>
      <trkpt lat="44.13969" lon="0.45407">
        <ele>68</ele>
        <time>2022-09-15T07:33:58.126Z</time>
      </trkpt>
      <trkpt lat="44.1397" lon="0.45406">
        <ele>67</ele>
        <time>2022-09-15T07:33:59.126Z</time>
      </trkpt>
      <trkpt lat="44.1397" lon="0.45406">
        <ele>67</ele>
        <time>2022-09-15T07:34:00.126Z</time>
      </trkpt>
      <trkpt lat="44.13971" lon="0.45406">
        <ele>67</ele>
        <time>2022-09-15T07:34:01.126Z</time>
      </trkpt>
      <trkpt lat="44.13971" lon="0.45406">
        <ele>67</ele>
        <time>2022-09-15T07:34:02.126Z</time>
      </trkpt>
      <trkpt lat="44.13971" lon="0.45405">
        <ele>67</ele>
        <time>2022-09-15T07:34:03.126Z</time>
      </trkpt>
      <trkpt lat="44.13971" lon="0.45404">
        <ele>67</ele>
        <time>2022-09-15T07:34:04.126Z</time>
      </trkpt>
      <trkpt lat="44.13972" lon="0.45403">
        <ele>67</ele>
        <time>2022-09-15T07:34:05.126Z</time>
      </trkpt>
      <trkpt lat="44.13973" lon="0.45403">
        <ele>67</ele>
        <time>2022-09-15T07:34:06.126Z</time>
      </trkpt>
      <trkpt lat="44.13974" lon="0.45402">
        <ele>66</ele>
        <time>2022-09-15T07:34:07.126Z</time>
      </trkpt>
      <trkpt lat="44.13974" lon="0.45402">
        <ele>66</ele>
        <time>2022-09-15T07:34:08.126Z</time>
      </trkpt>
      <trkpt lat="44.13975" lon="0.45402">
        <ele>66</ele>
        <time>2022-09-15T07:34:09.126Z</time>
      </trkpt>
      <trkpt lat="44.13975" lon="0.45402">
        <ele>66</ele>
        <time>2022-09-15T07:34:10.126Z</time>
      </trkpt>
      <trkpt lat="44.13976" lon="0.45402">
        <ele>66</ele>
        <time>2022-09-15T07:34:11.126Z</time>
      </trkpt>
      <trkpt lat="44.13976" lon="0.45401">
        <ele>66</ele>
        <time>2022-09-15T07:34:12.126Z</time>
      </trkpt>
      <trkpt lat="44.13976" lon="0.45401">
        <ele>66</ele>
        <time>2022-09-15T07:34:13.126Z</time>
      </trkpt>
      <trkpt lat="44.13977" lon="0.454">
        <ele>67</ele>
        <time>2022-09-15T07:34:14.126Z</time>
      </trkpt>
      <trkpt lat="44.13977" lon="0.454">
        <ele>67</ele>
        <time>2022-09-15T07:34:15.126Z</time>
      </trkpt>
      <trkpt lat="44.13977" lon="0.454">
        <ele>67</ele>
        <time>2022-09-15T07:34:16.126Z</time>
      </trkpt>
      <trkpt lat="44.13977" lon="0.454">
        <ele>68</ele>
        <time>2022-09-15T07:34:17.126Z</time>
      </trkpt>
      <trkpt lat="44.13977" lon="0.454">
        <ele>68</ele>
        <time>2022-09-15T07:34:18.126Z</time>
      </trkpt>
      <trkpt lat="44.13977" lon="0.454">
        <ele>68</ele>
        <time>2022-09-15T07:34:19.126Z</time>
      </trkpt>
      <trkpt lat="44.13977" lon="0.454">
        <ele>68</ele>
        <time>2022-09-15T07:34:20.126Z</time>
      </trkpt>
      <trkpt lat="44.13977" lon="0.454">
        <ele>68</ele>
        <time>2022-09-15T07:34:21.126Z</time>
      </trkpt>
      <trkpt lat="44.13976" lon="0.45399">
        <ele>66</ele>
        <time>2022-09-15T07:35:34.142Z</time>
      </trkpt>
      <trkpt lat="44.13976" lon="0.45398">
        <ele>66</ele>
        <time>2022-09-15T07:35:35.142Z</time>
      </trkpt>
      <trkpt lat="44.13977" lon="0.45398">
        <ele>66</ele>
        <time>2022-09-15T07:35:36.142Z</time>
      </trkpt>
      <trkpt lat="44.13977" lon="0.45398">
        <ele>66</ele>
        <time>2022-09-15T07:35:37.142Z</time>
      </trkpt>
      <trkpt lat="44.13978" lon="0.45397">
        <ele>66</ele>
        <time>2022-09-15T07:35:38.142Z</time>
      </trkpt>
      <trkpt lat="44.13978" lon="0.45397">
        <ele>66</ele>
        <time>2022-09-15T07:35:39.142Z</time>
      </trkpt>
      <trkpt lat="44.13979" lon="0.45396">
        <ele>66</ele>
        <time>2022-09-15T07:35:40.142Z</time>
      </trkpt>
      <trkpt lat="44.13979" lon="0.45396">
        <ele>66</ele>
        <time>2022-09-15T07:35:41.142Z</time>
      </trkpt>
      <trkpt lat="44.1398" lon="0.45395">
        <ele>66</ele>
        <time>2022-09-15T07:35:42.142Z</time>
      </trkpt>
      <trkpt lat="44.13981" lon="0.45394">
        <ele>66</ele>
        <time>2022-09-15T07:35:43.142Z</time>
      </trkpt>
      <trkpt lat="44.13982" lon="0.45393">
        <ele>66</ele>
        <time>2022-09-15T07:35:44.142Z</time>
      </trkpt>
      <trkpt lat="44.13983" lon="0.45393">
        <ele>67</ele>
        <time>2022-09-15T07:35:45.142Z</time>
      </trkpt>
      <trkpt lat="44.13984" lon="0.45392">
        <ele>67</ele>
        <time>2022-09-15T07:35:46.142Z</time>
      </trkpt>
      <trkpt lat="44.13985" lon="0.45391">
        <ele>67</ele>
        <time>2022-09-15T07:35:47.142Z</time>
      </trkpt>
      <trkpt lat="44.13986" lon="0.4539">
        <ele>67</ele>
        <time>2022-09-15T07:35:48.142Z</time>
      </trkpt>
      <trkpt lat="44.13987" lon="0.45389">
        <ele>67</ele>
        <time>2022-09-15T07:35:49.142Z</time>
      </trkpt>
      <trkpt lat="44.13988" lon="0.45388">
        <ele>67</ele>
        <time>2022-09-15T07:35:50.142Z</time>
      </trkpt>
      <trkpt lat="44.13989" lon="0.45388">
        <ele>67</ele>
        <time>2022-09-15T07:35:51.142Z</time>
      </trkpt>
      <trkpt lat="44.1399" lon="0.45387">
        <ele>67</ele>
        <time>2022-09-15T07:35:52.142Z</time>
      </trkpt>
      <trkpt lat="44.13992" lon="0.45386">
        <ele>67</ele>
        <time>2022-09-15T07:35:53.142Z</time>
      </trkpt>
      <trkpt lat="44.13993" lon="0.45385">
        <ele>67</ele>
        <time>2022-09-15T07:35:54.142Z</time>
      </trkpt>
      <trkpt lat="44.13994" lon="0.45384">
        <ele>67</ele>
        <time>2022-09-15T07:35:55.142Z</time>
      </trkpt>
      <trkpt lat="44.13995" lon="0.45383">
        <ele>67</ele>
        <time>2022-09-15T07:35:56.142Z</time>
      </trkpt>
      <trkpt lat="44.13996" lon="0.45383">
        <ele>67</ele>
        <time>2022-09-15T07:35:57.142Z</time>
      </trkpt>
      <trkpt lat="44.13997" lon="0.45382">
        <ele>67</ele>
        <time>2022-09-15T07:35:58.142Z</time>
      </trkpt>
      <trkpt lat="44.13997" lon="0.45381">
        <ele>67</ele>
        <time>2022-09-15T07:35:59.142Z</time>
      </trkpt>
      <trkpt lat="44.13998" lon="0.45381">
        <ele>66</ele>
        <time>2022-09-15T07:36:00.142Z</time>
      </trkpt>
      <trkpt lat="44.13999" lon="0.4538">
        <ele>66</ele>
        <time>2022-09-15T07:36:01.142Z</time>
      </trkpt>
      <trkpt lat="44.14" lon="0.45379">
        <ele>66</ele>
        <time>2022-09-15T07:36:02.142Z</time>
      </trkpt>
      <trkpt lat="44.14001" lon="0.45378">
        <ele>65</ele>
        <time>2022-09-15T07:36:03.142Z</time>
      </trkpt>
      <trkpt lat="44.14002" lon="0.45377">
        <ele>65</ele>
        <time>2022-09-15T07:36:04.142Z</time>
      </trkpt>
      <trkpt lat="44.14003" lon="0.45377">
        <ele>65</ele>
        <time>2022-09-15T07:36:05.142Z</time>
      </trkpt>
      <trkpt lat="44.14004" lon="0.45376">
        <ele>65</ele>
        <time>2022-09-15T07:36:06.142Z</time>
      </trkpt>
      <trkpt lat="44.14005" lon="0.45375">
        <ele>65</ele>
        <time>2022-09-15T07:36:07.142Z</time>
      </trkpt>
      <trkpt lat="44.14006" lon="0.45374">
        <ele>65</ele>
        <time>2022-09-15T07:36:08.142Z</time>
      </trkpt>
      <trkpt lat="44.14007" lon="0.45373">
        <ele>65</ele>
        <time>2022-09-15T07:36:09.142Z</time>
      </trkpt>
      <trkpt lat="44.14008" lon="0.45373">
        <ele>65</ele>
        <time>2022-09-15T07:36:10.142Z</time>
      </trkpt>
      <trkpt lat="44.14009" lon="0.45372">
        <ele>65</ele>
        <time>2022-09-15T07:36:11.142Z</time>
      </trkpt>
      <trkpt lat="44.1401" lon="0.45372">
        <ele>65</ele>
        <time>2022-09-15T07:36:12.142Z</time>
      </trkpt>
      <trkpt lat="44.14011" lon="0.45371">
        <ele>65</ele>
        <time>2022-09-15T07:36:13.142Z</time>
      </trkpt>
      <trkpt lat="44.14012" lon="0.45371">
        <ele>65</ele>
        <time>2022-09-15T07:36:14.142Z</time>
      </trkpt>
      <trkpt lat="44.14013" lon="0.4537">
        <ele>65</ele>
        <time>2022-09-15T07:36:15.142Z</time>
      </trkpt>
      <trkpt lat="44.14014" lon="0.4537">
        <ele>65</ele>
        <time>2022-09-15T07:36:16.142Z</time>
      </trkpt>
      <trkpt lat="44.14015" lon="0.45369">
        <ele>65</ele>
        <time>2022-09-15T07:36:17.142Z</time>
      </trkpt>
      <trkpt lat="44.14016" lon="0.45369">
        <ele>64</ele>
        <time>2022-09-15T07:36:18.142Z</time>
      </trkpt>
      <trkpt lat="44.14017" lon="0.45368">
        <ele>64</ele>
        <time>2022-09-15T07:36:19.142Z</time>
      </trkpt>
      <trkpt lat="44.14018" lon="0.45368">
        <ele>64</ele>
        <time>2022-09-15T07:36:20.142Z</time>
      </trkpt>
      <trkpt lat="44.14019" lon="0.45367">
        <ele>64</ele>
        <time>2022-09-15T07:36:21.142Z</time>
      </trkpt>
      <trkpt lat="44.1402" lon="0.45367">
        <ele>64</ele>
        <time>2022-09-15T07:36:22.142Z</time>
      </trkpt>
      <trkpt lat="44.14021" lon="0.45367">
        <ele>64</ele>
        <time>2022-09-15T07:36:23.142Z</time>
      </trkpt>
      <trkpt lat="44.14022" lon="0.45367">
        <ele>64</ele>
        <time>2022-09-15T07:36:24.142Z</time>
      </trkpt>
      <trkpt lat="44.14023" lon="0.45366">
        <ele>64</ele>
        <time>2022-09-15T07:36:25.142Z</time>
      </trkpt>
      <trkpt lat="44.14024" lon="0.45366">
        <ele>64</ele>
        <time>2022-09-15T07:36:26.142Z</time>
      </trkpt>
      <trkpt lat="44.14025" lon="0.45365">
        <ele>63</ele>
        <time>2022-09-15T07:36:27.142Z</time>
      </trkpt>
      <trkpt lat="44.14026" lon="0.45365">
        <ele>63</ele>
        <time>2022-09-15T07:36:28.142Z</time>
      </trkpt>
      <trkpt lat="44.14028" lon="0.45365">
        <ele>63</ele>
        <time>2022-09-15T07:36:29.142Z</time>
      </trkpt>
      <trkpt lat="44.14029" lon="0.45364">
        <ele>63</ele>
        <time>2022-09-15T07:36:30.142Z</time>
      </trkpt>
      <trkpt lat="44.1403" lon="0.45364">
        <ele>63</ele>
        <time>2022-09-15T07:36:31.142Z</time>
      </trkpt>
      <trkpt lat="44.14032" lon="0.45365">
        <ele>63</ele>
        <time>2022-09-15T07:36:32.142Z</time>
      </trkpt>
      <trkpt lat="44.14033" lon="0.45365">
        <ele>63</ele>
        <time>2022-09-15T07:36:33.142Z</time>
      </trkpt>
      <trkpt lat="44.14034" lon="0.45365">
        <ele>63</ele>
        <time>2022-09-15T07:36:34.142Z</time>
      </trkpt>
      <trkpt lat="44.14035" lon="0.45366">
        <ele>63</ele>
        <time>2022-09-15T07:36:35.142Z</time>
      </trkpt>
      <trkpt lat="44.14036" lon="0.45367">
        <ele>63</ele>
        <time>2022-09-15T07:36:36.142Z</time>
      </trkpt>
      <trkpt lat="44.14037" lon="0.45367">
        <ele>63</ele>
        <time>2022-09-15T07:36:37.142Z</time>
      </trkpt>
      <trkpt lat="44.14038" lon="0.45368">
        <ele>63</ele>
        <time>2022-09-15T07:36:38.142Z</time>
      </trkpt>
      <trkpt lat="44.14039" lon="0.45369">
        <ele>63</ele>
        <time>2022-09-15T07:36:39.142Z</time>
      </trkpt>
      <trkpt lat="44.1404" lon="0.4537">
        <ele>63</ele>
        <time>2022-09-15T07:36:40.142Z</time>
      </trkpt>
      <trkpt lat="44.14041" lon="0.4537">
        <ele>63</ele>
        <time>2022-09-15T07:36:41.142Z</time>
      </trkpt>
      <trkpt lat="44.14042" lon="0.45371">
        <ele>62</ele>
        <time>2022-09-15T07:36:42.142Z</time>
      </trkpt>
      <trkpt lat="44.14043" lon="0.45372">
        <ele>62</ele>
        <time>2022-09-15T07:36:43.142Z</time>
      </trkpt>
      <trkpt lat="44.14044" lon="0.45373">
        <ele>62</ele>
        <time>2022-09-15T07:36:44.142Z</time>
      </trkpt>
      <trkpt lat="44.14045" lon="0.45374">
        <ele>62</ele>
        <time>2022-09-15T07:36:45.142Z</time>
      </trkpt>
      <trkpt lat="44.14046" lon="0.45375">
        <ele>63</ele>
        <time>2022-09-15T07:36:46.142Z</time>
      </trkpt>
      <trkpt lat="44.14047" lon="0.45376">
        <ele>63</ele>
        <time>2022-09-15T07:36:47.142Z</time>
      </trkpt>
      <trkpt lat="44.14048" lon="0.45377">
        <ele>63</ele>
        <time>2022-09-15T07:36:48.142Z</time>
      </trkpt>
      <trkpt lat="44.14048" lon="0.45378">
        <ele>62</ele>
        <time>2022-09-15T07:36:49.142Z</time>
      </trkpt>
      <trkpt lat="44.14049" lon="0.45379">
        <ele>62</ele>
        <time>2022-09-15T07:36:50.142Z</time>
      </trkpt>
      <trkpt lat="44.14049" lon="0.4538">
        <ele>61</ele>
        <time>2022-09-15T07:36:51.142Z</time>
      </trkpt>
      <trkpt lat="44.1405" lon="0.4538">
        <ele>61</ele>
        <time>2022-09-15T07:36:52.142Z</time>
      </trkpt>
      <trkpt lat="44.14051" lon="0.45381">
        <ele>61</ele>
        <time>2022-09-15T07:36:53.142Z</time>
      </trkpt>
      <trkpt lat="44.14052" lon="0.45381">
        <ele>61</ele>
        <time>2022-09-15T07:36:54.142Z</time>
      </trkpt>
      <trkpt lat="44.14053" lon="0.45382">
        <ele>61</ele>
        <time>2022-09-15T07:36:55.142Z</time>
      </trkpt>
      <trkpt lat="44.14054" lon="0.45383">
        <ele>61</ele>
        <time>2022-09-15T07:36:56.142Z</time>
      </trkpt>
      <trkpt lat="44.14054" lon="0.45384">
        <ele>61</ele>
        <time>2022-09-15T07:36:57.142Z</time>
      </trkpt>
      <trkpt lat="44.14055" lon="0.45385">
        <ele>61</ele>
        <time>2022-09-15T07:36:58.142Z</time>
      </trkpt>
      <trkpt lat="44.14056" lon="0.45387">
        <ele>61</ele>
        <time>2022-09-15T07:36:59.142Z</time>
      </trkpt>
      <trkpt lat="44.14057" lon="0.45388">
        <ele>61</ele>
        <time>2022-09-15T07:37:00.142Z</time>
      </trkpt>
      <trkpt lat="44.14058" lon="0.45389">
        <ele>60</ele>
        <time>2022-09-15T07:37:01.142Z</time>
      </trkpt>
      <trkpt lat="44.14059" lon="0.4539">
        <ele>61</ele>
        <time>2022-09-15T07:37:02.142Z</time>
      </trkpt>
      <trkpt lat="44.1406" lon="0.45391">
        <ele>61</ele>
        <time>2022-09-15T07:37:03.142Z</time>
      </trkpt>
      <trkpt lat="44.14061" lon="0.45392">
        <ele>61</ele>
        <time>2022-09-15T07:37:04.142Z</time>
      </trkpt>
      <trkpt lat="44.14062" lon="0.45393">
        <ele>61</ele>
        <time>2022-09-15T07:37:05.142Z</time>
      </trkpt>
      <trkpt lat="44.14063" lon="0.45394">
        <ele>60</ele>
        <time>2022-09-15T07:37:06.142Z</time>
      </trkpt>
      <trkpt lat="44.14064" lon="0.45395">
        <ele>60</ele>
        <time>2022-09-15T07:37:07.142Z</time>
      </trkpt>
      <trkpt lat="44.14065" lon="0.45396">
        <ele>61</ele>
        <time>2022-09-15T07:37:08.142Z</time>
      </trkpt>
      <trkpt lat="44.14066" lon="0.45397">
        <ele>61</ele>
        <time>2022-09-15T07:37:09.142Z</time>
      </trkpt>
      <trkpt lat="44.14067" lon="0.45398">
        <ele>61</ele>
        <time>2022-09-15T07:37:10.142Z</time>
      </trkpt>
      <trkpt lat="44.14068" lon="0.45399">
        <ele>61</ele>
        <time>2022-09-15T07:37:11.142Z</time>
      </trkpt>
      <trkpt lat="44.14068" lon="0.454">
        <ele>61</ele>
        <time>2022-09-15T07:37:12.142Z</time>
      </trkpt>
      <trkpt lat="44.14069" lon="0.45402">
        <ele>60</ele>
        <time>2022-09-15T07:37:13.142Z</time>
      </trkpt>
      <trkpt lat="44.14071" lon="0.45403">
        <ele>61</ele>
        <time>2022-09-15T07:37:14.142Z</time>
      </trkpt>
      <trkpt lat="44.14072" lon="0.45404">
        <ele>60</ele>
        <time>2022-09-15T07:37:15.142Z</time>
      </trkpt>
      <trkpt lat="44.14073" lon="0.45405">
        <ele>60</ele>
        <time>2022-09-15T07:37:16.142Z</time>
      </trkpt>
      <trkpt lat="44.14074" lon="0.45406">
        <ele>60</ele>
        <time>2022-09-15T07:37:17.142Z</time>
      </trkpt>
      <trkpt lat="44.14074" lon="0.45407">
        <ele>60</ele>
        <time>2022-09-15T07:37:18.142Z</time>
      </trkpt>
      <trkpt lat="44.14075" lon="0.45408">
        <ele>60</ele>
        <time>2022-09-15T07:37:19.142Z</time>
      </trkpt>
      <trkpt lat="44.14076" lon="0.45408">
        <ele>60</ele>
        <time>2022-09-15T07:37:20.142Z</time>
      </trkpt>
      <trkpt lat="44.14077" lon="0.45409">
        <ele>59</ele>
        <time>2022-09-15T07:37:21.142Z</time>
      </trkpt>
      <trkpt lat="44.14078" lon="0.4541">
        <ele>60</ele>
        <time>2022-09-15T07:37:22.142Z</time>
      </trkpt>
      <trkpt lat="44.14078" lon="0.45412">
        <ele>60</ele>
        <time>2022-09-15T07:37:23.142Z</time>
      </trkpt>
      <trkpt lat="44.14079" lon="0.45413">
        <ele>60</ele>
        <time>2022-09-15T07:37:24.142Z</time>
      </trkpt>
      <trkpt lat="44.1408" lon="0.45414">
        <ele>60</ele>
        <time>2022-09-15T07:37:25.142Z</time>
      </trkpt>
      <trkpt lat="44.14081" lon="0.45415">
        <ele>60</ele>
        <time>2022-09-15T07:37:26.142Z</time>
      </trkpt>
      <trkpt lat="44.14082" lon="0.45416">
        <ele>60</ele>
        <time>2022-09-15T07:37:27.142Z</time>
      </trkpt>
      <trkpt lat="44.14083" lon="0.45418">
        <ele>60</ele>
        <time>2022-09-15T07:37:28.142Z</time>
      </trkpt>
      <trkpt lat="44.14084" lon="0.45419">
        <ele>59</ele>
        <time>2022-09-15T07:37:29.142Z</time>
      </trkpt>
      <trkpt lat="44.14084" lon="0.4542">
        <ele>58</ele>
        <time>2022-09-15T07:37:30.142Z</time>
      </trkpt>
      <trkpt lat="44.14085" lon="0.45422">
        <ele>59</ele>
        <time>2022-09-15T07:37:31.142Z</time>
      </trkpt>
      <trkpt lat="44.14085" lon="0.45423">
        <ele>58</ele>
        <time>2022-09-15T07:37:32.142Z</time>
      </trkpt>
      <trkpt lat="44.14086" lon="0.45424">
        <ele>58</ele>
        <time>2022-09-15T07:37:33.142Z</time>
      </trkpt>
      <trkpt lat="44.14086" lon="0.45425">
        <ele>57</ele>
        <time>2022-09-15T07:37:34.142Z</time>
      </trkpt>
      <trkpt lat="44.14086" lon="0.45427">
        <ele>57</ele>
        <time>2022-09-15T07:37:35.142Z</time>
      </trkpt>
      <trkpt lat="44.14087" lon="0.45428">
        <ele>57</ele>
        <time>2022-09-15T07:37:36.142Z</time>
      </trkpt>
      <trkpt lat="44.14087" lon="0.45429">
        <ele>56</ele>
        <time>2022-09-15T07:37:37.142Z</time>
      </trkpt>
      <trkpt lat="44.14088" lon="0.4543">
        <ele>55</ele>
        <time>2022-09-15T07:37:38.142Z</time>
      </trkpt>
      <trkpt lat="44.14089" lon="0.4543">
        <ele>56</ele>
        <time>2022-09-15T07:37:39.142Z</time>
      </trkpt>
      <trkpt lat="44.14089" lon="0.45431">
        <ele>57</ele>
        <time>2022-09-15T07:37:40.142Z</time>
      </trkpt>
      <trkpt lat="44.1409" lon="0.45433">
        <ele>58</ele>
        <time>2022-09-15T07:37:41.142Z</time>
      </trkpt>
      <trkpt lat="44.1409" lon="0.45434">
        <ele>57</ele>
        <time>2022-09-15T07:37:42.142Z</time>
      </trkpt>
      <trkpt lat="44.14091" lon="0.45436">
        <ele>57</ele>
        <time>2022-09-15T07:37:43.142Z</time>
      </trkpt>
      <trkpt lat="44.14092" lon="0.45437">
        <ele>57</ele>
        <time>2022-09-15T07:37:44.142Z</time>
      </trkpt>
      <trkpt lat="44.14093" lon="0.45439">
        <ele>57</ele>
        <time>2022-09-15T07:37:45.142Z</time>
      </trkpt>
      <trkpt lat="44.14093" lon="0.4544">
        <ele>58</ele>
        <time>2022-09-15T07:37:46.142Z</time>
      </trkpt>
      <trkpt lat="44.14094" lon="0.45441">
        <ele>58</ele>
        <time>2022-09-15T07:37:47.142Z</time>
      </trkpt>
      <trkpt lat="44.14095" lon="0.45443">
        <ele>58</ele>
        <time>2022-09-15T07:37:48.142Z</time>
      </trkpt>
      <trkpt lat="44.14095" lon="0.45444">
        <ele>59</ele>
        <time>2022-09-15T07:37:49.142Z</time>
      </trkpt>
      <trkpt lat="44.14096" lon="0.45445">
        <ele>59</ele>
        <time>2022-09-15T07:37:50.142Z</time>
      </trkpt>
      <trkpt lat="44.14097" lon="0.45447">
        <ele>59</ele>
        <time>2022-09-15T07:37:51.142Z</time>
      </trkpt>
      <trkpt lat="44.14097" lon="0.45449">
        <ele>59</ele>
        <time>2022-09-15T07:37:52.142Z</time>
      </trkpt>
      <trkpt lat="44.14098" lon="0.4545">
        <ele>59</ele>
        <time>2022-09-15T07:37:53.142Z</time>
      </trkpt>
      <trkpt lat="44.14099" lon="0.45452">
        <ele>59</ele>
        <time>2022-09-15T07:37:54.142Z</time>
      </trkpt>
      <trkpt lat="44.14099" lon="0.45454">
        <ele>57</ele>
        <time>2022-09-15T07:37:55.142Z</time>
      </trkpt>
      <trkpt lat="44.14099" lon="0.45455">
        <ele>57</ele>
        <time>2022-09-15T07:37:56.142Z</time>
      </trkpt>
      <trkpt lat="44.141" lon="0.45457">
        <ele>57</ele>
        <time>2022-09-15T07:37:57.142Z</time>
      </trkpt>
      <trkpt lat="44.141" lon="0.45458">
        <ele>57</ele>
        <time>2022-09-15T07:37:58.142Z</time>
      </trkpt>
      <trkpt lat="44.14101" lon="0.45459">
        <ele>57</ele>
        <time>2022-09-15T07:37:59.142Z</time>
      </trkpt>
      <trkpt lat="44.14102" lon="0.45461">
        <ele>57</ele>
        <time>2022-09-15T07:38:00.142Z</time>
      </trkpt>
      <trkpt lat="44.14103" lon="0.45462">
        <ele>57</ele>
        <time>2022-09-15T07:38:01.142Z</time>
      </trkpt>
      <trkpt lat="44.14103" lon="0.45464">
        <ele>57</ele>
        <time>2022-09-15T07:38:02.142Z</time>
      </trkpt>
      <trkpt lat="44.14104" lon="0.45466">
        <ele>57</ele>
        <time>2022-09-15T07:38:03.142Z</time>
      </trkpt>
      <trkpt lat="44.14104" lon="0.45467">
        <ele>57</ele>
        <time>2022-09-15T07:38:04.142Z</time>
      </trkpt>
      <trkpt lat="44.14105" lon="0.45469">
        <ele>58</ele>
        <time>2022-09-15T07:38:05.142Z</time>
      </trkpt>
      <trkpt lat="44.14105" lon="0.4547">
        <ele>58</ele>
        <time>2022-09-15T07:38:06.142Z</time>
      </trkpt>
      <trkpt lat="44.14106" lon="0.45471">
        <ele>58</ele>
        <time>2022-09-15T07:38:07.142Z</time>
      </trkpt>
      <trkpt lat="44.14106" lon="0.45473">
        <ele>57</ele>
        <time>2022-09-15T07:38:08.142Z</time>
      </trkpt>
      <trkpt lat="44.14107" lon="0.45474">
        <ele>57</ele>
        <time>2022-09-15T07:38:09.142Z</time>
      </trkpt>
      <trkpt lat="44.14107" lon="0.45476">
        <ele>57</ele>
        <time>2022-09-15T07:38:10.142Z</time>
      </trkpt>
      <trkpt lat="44.14108" lon="0.45478">
        <ele>57</ele>
        <time>2022-09-15T07:38:11.142Z</time>
      </trkpt>
      <trkpt lat="44.14108" lon="0.45479">
        <ele>56</ele>
        <time>2022-09-15T07:38:12.142Z</time>
      </trkpt>
      <trkpt lat="44.14109" lon="0.45481">
        <ele>57</ele>
        <time>2022-09-15T07:38:13.142Z</time>
      </trkpt>
      <trkpt lat="44.1411" lon="0.45482">
        <ele>57</ele>
        <time>2022-09-15T07:38:14.142Z</time>
      </trkpt>
      <trkpt lat="44.1411" lon="0.45484">
        <ele>57</ele>
        <time>2022-09-15T07:38:15.142Z</time>
      </trkpt>
      <trkpt lat="44.14111" lon="0.45485">
        <ele>57</ele>
        <time>2022-09-15T07:38:16.142Z</time>
      </trkpt>
      <trkpt lat="44.14111" lon="0.45487">
        <ele>57</ele>
        <time>2022-09-15T07:38:17.142Z</time>
      </trkpt>
      <trkpt lat="44.14112" lon="0.45488">
        <ele>57</ele>
        <time>2022-09-15T07:38:18.142Z</time>
      </trkpt>
      <trkpt lat="44.14112" lon="0.4549">
        <ele>57</ele>
        <time>2022-09-15T07:38:19.142Z</time>
      </trkpt>
      <trkpt lat="44.14113" lon="0.45491">
        <ele>57</ele>
        <time>2022-09-15T07:38:20.142Z</time>
      </trkpt>
      <trkpt lat="44.14113" lon="0.45492">
        <ele>57</ele>
        <time>2022-09-15T07:38:21.142Z</time>
      </trkpt>
      <trkpt lat="44.14114" lon="0.45494">
        <ele>57</ele>
        <time>2022-09-15T07:38:22.142Z</time>
      </trkpt>
      <trkpt lat="44.14115" lon="0.45495">
        <ele>57</ele>
        <time>2022-09-15T07:38:23.142Z</time>
      </trkpt>
      <trkpt lat="44.14115" lon="0.45496">
        <ele>57</ele>
        <time>2022-09-15T07:38:24.142Z</time>
      </trkpt>
      <trkpt lat="44.14116" lon="0.45498">
        <ele>56</ele>
        <time>2022-09-15T07:38:25.142Z</time>
      </trkpt>
      <trkpt lat="44.14116" lon="0.45499">
        <ele>56</ele>
        <time>2022-09-15T07:38:26.142Z</time>
      </trkpt>
      <trkpt lat="44.14117" lon="0.45501">
        <ele>56</ele>
        <time>2022-09-15T07:38:27.142Z</time>
      </trkpt>
      <trkpt lat="44.14117" lon="0.45502">
        <ele>55</ele>
        <time>2022-09-15T07:38:28.142Z</time>
      </trkpt>
      <trkpt lat="44.14118" lon="0.45504">
        <ele>56</ele>
        <time>2022-09-15T07:38:29.142Z</time>
      </trkpt>
      <trkpt lat="44.14119" lon="0.45506">
        <ele>56</ele>
        <time>2022-09-15T07:38:30.142Z</time>
      </trkpt>
      <trkpt lat="44.1412" lon="0.45507">
        <ele>56</ele>
        <time>2022-09-15T07:38:31.142Z</time>
      </trkpt>
      <trkpt lat="44.14121" lon="0.45509">
        <ele>56</ele>
        <time>2022-09-15T07:38:32.142Z</time>
      </trkpt>
      <trkpt lat="44.14121" lon="0.4551">
        <ele>56</ele>
        <time>2022-09-15T07:38:33.142Z</time>
      </trkpt>
      <trkpt lat="44.14122" lon="0.45511">
        <ele>56</ele>
        <time>2022-09-15T07:38:34.142Z</time>
      </trkpt>
      <trkpt lat="44.14123" lon="0.45513">
        <ele>56</ele>
        <time>2022-09-15T07:38:35.142Z</time>
      </trkpt>
      <trkpt lat="44.14124" lon="0.45514">
        <ele>56</ele>
        <time>2022-09-15T07:38:36.142Z</time>
      </trkpt>
      <trkpt lat="44.14124" lon="0.45516">
        <ele>56</ele>
        <time>2022-09-15T07:38:37.142Z</time>
      </trkpt>
      <trkpt lat="44.14125" lon="0.45518">
        <ele>55</ele>
        <time>2022-09-15T07:38:38.142Z</time>
      </trkpt>
      <trkpt lat="44.14126" lon="0.45519">
        <ele>55</ele>
        <time>2022-09-15T07:38:39.142Z</time>
      </trkpt>
      <trkpt lat="44.14126" lon="0.45521">
        <ele>56</ele>
        <time>2022-09-15T07:38:40.142Z</time>
      </trkpt>
      <trkpt lat="44.14127" lon="0.45522">
        <ele>56</ele>
        <time>2022-09-15T07:38:41.142Z</time>
      </trkpt>
      <trkpt lat="44.14128" lon="0.45523">
        <ele>57</ele>
        <time>2022-09-15T07:38:42.142Z</time>
      </trkpt>
      <trkpt lat="44.14128" lon="0.45525">
        <ele>57</ele>
        <time>2022-09-15T07:38:43.142Z</time>
      </trkpt>
      <trkpt lat="44.14129" lon="0.45527">
        <ele>57</ele>
        <time>2022-09-15T07:38:44.142Z</time>
      </trkpt>
      <trkpt lat="44.1413" lon="0.45528">
        <ele>56</ele>
        <time>2022-09-15T07:38:45.142Z</time>
      </trkpt>
      <trkpt lat="44.1413" lon="0.4553">
        <ele>56</ele>
        <time>2022-09-15T07:38:46.142Z</time>
      </trkpt>
      <trkpt lat="44.14131" lon="0.45531">
        <ele>56</ele>
        <time>2022-09-15T07:38:47.142Z</time>
      </trkpt>
      <trkpt lat="44.14131" lon="0.45532">
        <ele>56</ele>
        <time>2022-09-15T07:38:48.142Z</time>
      </trkpt>
      <trkpt lat="44.14132" lon="0.45533">
        <ele>56</ele>
        <time>2022-09-15T07:38:49.142Z</time>
      </trkpt>
      <trkpt lat="44.14133" lon="0.45535">
        <ele>56</ele>
        <time>2022-09-15T07:38:50.142Z</time>
      </trkpt>
      <trkpt lat="44.14133" lon="0.45536">
        <ele>56</ele>
        <time>2022-09-15T07:38:51.142Z</time>
      </trkpt>
      <trkpt lat="44.14134" lon="0.45538">
        <ele>55</ele>
        <time>2022-09-15T07:38:52.142Z</time>
      </trkpt>
      <trkpt lat="44.14134" lon="0.45539">
        <ele>55</ele>
        <time>2022-09-15T07:38:53.142Z</time>
      </trkpt>
      <trkpt lat="44.14135" lon="0.4554">
        <ele>55</ele>
        <time>2022-09-15T07:38:54.142Z</time>
      </trkpt>
      <trkpt lat="44.14136" lon="0.45541">
        <ele>55</ele>
        <time>2022-09-15T07:38:55.142Z</time>
      </trkpt>
      <trkpt lat="44.14136" lon="0.45543">
        <ele>55</ele>
        <time>2022-09-15T07:38:56.142Z</time>
      </trkpt>
      <trkpt lat="44.14137" lon="0.45544">
        <ele>55</ele>
        <time>2022-09-15T07:38:57.142Z</time>
      </trkpt>
      <trkpt lat="44.14137" lon="0.45546">
        <ele>55</ele>
        <time>2022-09-15T07:38:58.142Z</time>
      </trkpt>
      <trkpt lat="44.14138" lon="0.45547">
        <ele>55</ele>
        <time>2022-09-15T07:38:59.142Z</time>
      </trkpt>
      <trkpt lat="44.14138" lon="0.45548">
        <ele>56</ele>
        <time>2022-09-15T07:39:00.142Z</time>
      </trkpt>
      <trkpt lat="44.14139" lon="0.4555">
        <ele>56</ele>
        <time>2022-09-15T07:39:01.142Z</time>
      </trkpt>
      <trkpt lat="44.1414" lon="0.45551">
        <ele>55</ele>
        <time>2022-09-15T07:39:02.142Z</time>
      </trkpt>
      <trkpt lat="44.1414" lon="0.45552">
        <ele>55</ele>
        <time>2022-09-15T07:39:03.142Z</time>
      </trkpt>
      <trkpt lat="44.14141" lon="0.45554">
        <ele>56</ele>
        <time>2022-09-15T07:39:04.142Z</time>
      </trkpt>
      <trkpt lat="44.14142" lon="0.45555">
        <ele>56</ele>
        <time>2022-09-15T07:39:05.142Z</time>
      </trkpt>
      <trkpt lat="44.14143" lon="0.45556">
        <ele>56</ele>
        <time>2022-09-15T07:39:06.142Z</time>
      </trkpt>
      <trkpt lat="44.14143" lon="0.45558">
        <ele>56</ele>
        <time>2022-09-15T07:39:07.142Z</time>
      </trkpt>
      <trkpt lat="44.14144" lon="0.45559">
        <ele>55</ele>
        <time>2022-09-15T07:39:08.142Z</time>
      </trkpt>
      <trkpt lat="44.14144" lon="0.4556">
        <ele>55</ele>
        <time>2022-09-15T07:39:09.142Z</time>
      </trkpt>
      <trkpt lat="44.14145" lon="0.45562">
        <ele>56</ele>
        <time>2022-09-15T07:39:10.142Z</time>
      </trkpt>
      <trkpt lat="44.14145" lon="0.45564">
        <ele>56</ele>
        <time>2022-09-15T07:39:11.142Z</time>
      </trkpt>
      <trkpt lat="44.14146" lon="0.45565">
        <ele>56</ele>
        <time>2022-09-15T07:39:12.142Z</time>
      </trkpt>
      <trkpt lat="44.14147" lon="0.45566">
        <ele>56</ele>
        <time>2022-09-15T07:39:13.142Z</time>
      </trkpt>
      <trkpt lat="44.14148" lon="0.45567">
        <ele>56</ele>
        <time>2022-09-15T07:39:14.142Z</time>
      </trkpt>
      <trkpt lat="44.14148" lon="0.45569">
        <ele>56</ele>
        <time>2022-09-15T07:39:15.142Z</time>
      </trkpt>
      <trkpt lat="44.14149" lon="0.4557">
        <ele>56</ele>
        <time>2022-09-15T07:39:16.142Z</time>
      </trkpt>
      <trkpt lat="44.14149" lon="0.45572">
        <ele>56</ele>
        <time>2022-09-15T07:39:17.142Z</time>
      </trkpt>
      <trkpt lat="44.1415" lon="0.45574">
        <ele>56</ele>
        <time>2022-09-15T07:39:18.142Z</time>
      </trkpt>
      <trkpt lat="44.14151" lon="0.45575">
        <ele>56</ele>
        <time>2022-09-15T07:39:19.142Z</time>
      </trkpt>
      <trkpt lat="44.14151" lon="0.45576">
        <ele>55</ele>
        <time>2022-09-15T07:39:20.142Z</time>
      </trkpt>
      <trkpt lat="44.14152" lon="0.45577">
        <ele>56</ele>
        <time>2022-09-15T07:39:21.142Z</time>
      </trkpt>
      <trkpt lat="44.14153" lon="0.45579">
        <ele>56</ele>
        <time>2022-09-15T07:39:22.142Z</time>
      </trkpt>
      <trkpt lat="44.14153" lon="0.45581">
        <ele>56</ele>
        <time>2022-09-15T07:39:23.142Z</time>
      </trkpt>
      <trkpt lat="44.14154" lon="0.45582">
        <ele>56</ele>
        <time>2022-09-15T07:39:24.142Z</time>
      </trkpt>
      <trkpt lat="44.14155" lon="0.45584">
        <ele>56</ele>
        <time>2022-09-15T07:39:25.142Z</time>
      </trkpt>
      <trkpt lat="44.14155" lon="0.45585">
        <ele>56</ele>
        <time>2022-09-15T07:39:26.142Z</time>
      </trkpt>
      <trkpt lat="44.14156" lon="0.45586">
        <ele>55</ele>
        <time>2022-09-15T07:39:27.142Z</time>
      </trkpt>
      <trkpt lat="44.14157" lon="0.45588">
        <ele>55</ele>
        <time>2022-09-15T07:39:28.142Z</time>
      </trkpt>
      <trkpt lat="44.14157" lon="0.45589">
        <ele>56</ele>
        <time>2022-09-15T07:39:29.142Z</time>
      </trkpt>
      <trkpt lat="44.14158" lon="0.45591">
        <ele>56</ele>
        <time>2022-09-15T07:39:30.142Z</time>
      </trkpt>
      <trkpt lat="44.14159" lon="0.45592">
        <ele>56</ele>
        <time>2022-09-15T07:39:31.142Z</time>
      </trkpt>
      <trkpt lat="44.14159" lon="0.45594">
        <ele>55</ele>
        <time>2022-09-15T07:39:32.142Z</time>
      </trkpt>
      <trkpt lat="44.1416" lon="0.45595">
        <ele>55</ele>
        <time>2022-09-15T07:39:33.142Z</time>
      </trkpt>
      <trkpt lat="44.1416" lon="0.45596">
        <ele>55</ele>
        <time>2022-09-15T07:39:34.142Z</time>
      </trkpt>
      <trkpt lat="44.14161" lon="0.45598">
        <ele>55</ele>
        <time>2022-09-15T07:39:35.142Z</time>
      </trkpt>
      <trkpt lat="44.14161" lon="0.45599">
        <ele>55</ele>
        <time>2022-09-15T07:39:36.142Z</time>
      </trkpt>
      <trkpt lat="44.14162" lon="0.456">
        <ele>55</ele>
        <time>2022-09-15T07:39:37.142Z</time>
      </trkpt>
      <trkpt lat="44.14163" lon="0.45602">
        <ele>55</ele>
        <time>2022-09-15T07:39:38.142Z</time>
      </trkpt>
      <trkpt lat="44.14163" lon="0.45603">
        <ele>55</ele>
        <time>2022-09-15T07:39:39.142Z</time>
      </trkpt>
      <trkpt lat="44.14164" lon="0.45604">
        <ele>55</ele>
        <time>2022-09-15T07:39:40.142Z</time>
      </trkpt>
      <trkpt lat="44.14164" lon="0.45605">
        <ele>55</ele>
        <time>2022-09-15T07:39:41.142Z</time>
      </trkpt>
      <trkpt lat="44.14165" lon="0.45606">
        <ele>55</ele>
        <time>2022-09-15T07:39:42.142Z</time>
      </trkpt>
      <trkpt lat="44.14165" lon="0.45607">
        <ele>54</ele>
        <time>2022-09-15T07:39:43.142Z</time>
      </trkpt>
      <trkpt lat="44.14166" lon="0.45608">
        <ele>55</ele>
        <time>2022-09-15T07:39:44.142Z</time>
      </trkpt>
      <trkpt lat="44.14167" lon="0.45609">
        <ele>55</ele>
        <time>2022-09-15T07:39:45.142Z</time>
      </trkpt>
      <trkpt lat="44.14167" lon="0.4561">
        <ele>55</ele>
        <time>2022-09-15T07:39:46.142Z</time>
      </trkpt>
      <trkpt lat="44.14168" lon="0.45611">
        <ele>55</ele>
        <time>2022-09-15T07:39:47.142Z</time>
      </trkpt>
      <trkpt lat="44.14168" lon="0.45612">
        <ele>55</ele>
        <time>2022-09-15T07:39:48.142Z</time>
      </trkpt>
      <trkpt lat="44.14168" lon="0.45612">
        <ele>55</ele>
        <time>2022-09-15T07:39:49.142Z</time>
      </trkpt>
      <trkpt lat="44.14168" lon="0.45613">
        <ele>55</ele>
        <time>2022-09-15T07:39:50.142Z</time>
      </trkpt>
      <trkpt lat="44.14169" lon="0.45614">
        <ele>55</ele>
        <time>2022-09-15T07:39:51.142Z</time>
      </trkpt>
      <trkpt lat="44.14169" lon="0.45614">
        <ele>55</ele>
        <time>2022-09-15T07:39:52.142Z</time>
      </trkpt>
      <trkpt lat="44.14169" lon="0.45615">
        <ele>55</ele>
        <time>2022-09-15T07:39:53.142Z</time>
      </trkpt>
      <trkpt lat="44.1417" lon="0.45615">
        <ele>55</ele>
        <time>2022-09-15T07:39:54.142Z</time>
      </trkpt>
      <trkpt lat="44.1417" lon="0.45616">
        <ele>55</ele>
        <time>2022-09-15T07:39:55.142Z</time>
      </trkpt>
      <trkpt lat="44.14171" lon="0.45616">
        <ele>55</ele>
        <time>2022-09-15T07:39:56.142Z</time>
      </trkpt>
      <trkpt lat="44.14171" lon="0.45617">
        <ele>55</ele>
        <time>2022-09-15T07:39:57.142Z</time>
      </trkpt>
      <trkpt lat="44.14171" lon="0.45618">
        <ele>55</ele>
        <time>2022-09-15T07:39:58.142Z</time>
      </trkpt>
      <trkpt lat="44.14172" lon="0.45618">
        <ele>55</ele>
        <time>2022-09-15T07:39:59.142Z</time>
      </trkpt>
      <trkpt lat="44.14172" lon="0.45619">
        <ele>55</ele>
        <time>2022-09-15T07:40:00.142Z</time>
      </trkpt>
      <trkpt lat="44.14172" lon="0.4562">
        <ele>55</ele>
        <time>2022-09-15T07:40:01.142Z</time>
      </trkpt>
      <trkpt lat="44.14172" lon="0.4562">
        <ele>54</ele>
        <time>2022-09-15T07:40:02.142Z</time>
      </trkpt>
      <trkpt lat="44.14173" lon="0.45621">
        <ele>54</ele>
        <time>2022-09-15T07:40:03.142Z</time>
      </trkpt>
      <trkpt lat="44.14173" lon="0.45622">
        <ele>54</ele>
        <time>2022-09-15T07:40:04.142Z</time>
      </trkpt>
      <trkpt lat="44.14174" lon="0.45623">
        <ele>55</ele>
        <time>2022-09-15T07:40:05.142Z</time>
      </trkpt>
      <trkpt lat="44.14175" lon="0.45623">
        <ele>55</ele>
        <time>2022-09-15T07:40:06.142Z</time>
      </trkpt>
      <trkpt lat="44.14176" lon="0.45624">
        <ele>55</ele>
        <time>2022-09-15T07:40:07.142Z</time>
      </trkpt>
      <trkpt lat="44.14176" lon="0.45624">
        <ele>55</ele>
        <time>2022-09-15T07:40:08.142Z</time>
      </trkpt>
      <trkpt lat="44.14177" lon="0.45625">
        <ele>55</ele>
        <time>2022-09-15T07:40:09.142Z</time>
      </trkpt>
      <trkpt lat="44.14178" lon="0.45626">
        <ele>55</ele>
        <time>2022-09-15T07:40:10.142Z</time>
      </trkpt>
      <trkpt lat="44.14179" lon="0.45627">
        <ele>55</ele>
        <time>2022-09-15T07:40:11.142Z</time>
      </trkpt>
      <trkpt lat="44.1418" lon="0.45628">
        <ele>55</ele>
        <time>2022-09-15T07:40:12.142Z</time>
      </trkpt>
      <trkpt lat="44.1418" lon="0.45629">
        <ele>55</ele>
        <time>2022-09-15T07:40:13.142Z</time>
      </trkpt>
      <trkpt lat="44.14181" lon="0.4563">
        <ele>56</ele>
        <time>2022-09-15T07:40:14.142Z</time>
      </trkpt>
      <trkpt lat="44.14182" lon="0.45631">
        <ele>56</ele>
        <time>2022-09-15T07:40:15.142Z</time>
      </trkpt>
      <trkpt lat="44.14183" lon="0.45632">
        <ele>56</ele>
        <time>2022-09-15T07:40:16.142Z</time>
      </trkpt>
      <trkpt lat="44.14184" lon="0.45633">
        <ele>57</ele>
        <time>2022-09-15T07:40:17.142Z</time>
      </trkpt>
      <trkpt lat="44.14185" lon="0.45634">
        <ele>58</ele>
        <time>2022-09-15T07:40:18.142Z</time>
      </trkpt>
      <trkpt lat="44.14187" lon="0.45635">
        <ele>58</ele>
        <time>2022-09-15T07:40:19.142Z</time>
      </trkpt>
      <trkpt lat="44.14188" lon="0.45636">
        <ele>58</ele>
        <time>2022-09-15T07:40:20.142Z</time>
      </trkpt>
      <trkpt lat="44.14189" lon="0.45637">
        <ele>58</ele>
        <time>2022-09-15T07:40:21.142Z</time>
      </trkpt>
      <trkpt lat="44.1419" lon="0.45638">
        <ele>59</ele>
        <time>2022-09-15T07:40:22.142Z</time>
      </trkpt>
      <trkpt lat="44.1419" lon="0.45639">
        <ele>59</ele>
        <time>2022-09-15T07:40:23.142Z</time>
      </trkpt>
      <trkpt lat="44.14191" lon="0.45639">
        <ele>59</ele>
        <time>2022-09-15T07:40:24.142Z</time>
      </trkpt>
      <trkpt lat="44.14192" lon="0.4564">
        <ele>59</ele>
        <time>2022-09-15T07:40:25.142Z</time>
      </trkpt>
      <trkpt lat="44.14193" lon="0.45641">
        <ele>59</ele>
        <time>2022-09-15T07:40:26.142Z</time>
      </trkpt>
      <trkpt lat="44.14194" lon="0.45642">
        <ele>59</ele>
        <time>2022-09-15T07:40:27.142Z</time>
      </trkpt>
      <trkpt lat="44.14194" lon="0.45642">
        <ele>60</ele>
        <time>2022-09-15T07:40:28.142Z</time>
      </trkpt>
      <trkpt lat="44.14195" lon="0.45643">
        <ele>60</ele>
        <time>2022-09-15T07:40:29.142Z</time>
      </trkpt>
      <trkpt lat="44.14196" lon="0.45643">
        <ele>60</ele>
        <time>2022-09-15T07:40:30.142Z</time>
      </trkpt>
      <trkpt lat="44.14197" lon="0.45644">
        <ele>60</ele>
        <time>2022-09-15T07:40:31.142Z</time>
      </trkpt>
      <trkpt lat="44.14197" lon="0.45645">
        <ele>60</ele>
        <time>2022-09-15T07:40:32.142Z</time>
      </trkpt>
      <trkpt lat="44.14198" lon="0.45646">
        <ele>60</ele>
        <time>2022-09-15T07:40:33.142Z</time>
      </trkpt>
      <trkpt lat="44.14199" lon="0.45647">
        <ele>60</ele>
        <time>2022-09-15T07:40:34.142Z</time>
      </trkpt>
      <trkpt lat="44.14199" lon="0.45648">
        <ele>60</ele>
        <time>2022-09-15T07:40:35.142Z</time>
      </trkpt>
      <trkpt lat="44.142" lon="0.4565">
        <ele>60</ele>
        <time>2022-09-15T07:40:36.142Z</time>
      </trkpt>
      <trkpt lat="44.142" lon="0.45651">
        <ele>60</ele>
        <time>2022-09-15T07:40:37.142Z</time>
      </trkpt>
      <trkpt lat="44.142" lon="0.45653">
        <ele>60</ele>
        <time>2022-09-15T07:40:38.142Z</time>
      </trkpt>
      <trkpt lat="44.142" lon="0.45654">
        <ele>60</ele>
        <time>2022-09-15T07:40:39.142Z</time>
      </trkpt>
      <trkpt lat="44.14199" lon="0.45656">
        <ele>60</ele>
        <time>2022-09-15T07:40:40.142Z</time>
      </trkpt>
      <trkpt lat="44.14199" lon="0.45657">
        <ele>60</ele>
        <time>2022-09-15T07:40:41.142Z</time>
      </trkpt>
      <trkpt lat="44.14198" lon="0.45659">
        <ele>60</ele>
        <time>2022-09-15T07:40:42.142Z</time>
      </trkpt>
      <trkpt lat="44.14198" lon="0.4566">
        <ele>60</ele>
        <time>2022-09-15T07:40:43.142Z</time>
      </trkpt>
      <trkpt lat="44.14197" lon="0.45661">
        <ele>60</ele>
        <time>2022-09-15T07:40:44.142Z</time>
      </trkpt>
      <trkpt lat="44.14197" lon="0.45662">
        <ele>60</ele>
        <time>2022-09-15T07:40:45.142Z</time>
      </trkpt>
      <trkpt lat="44.14197" lon="0.45663">
        <ele>60</ele>
        <time>2022-09-15T07:40:46.142Z</time>
      </trkpt>
      <trkpt lat="44.14196" lon="0.45664">
        <ele>61</ele>
        <time>2022-09-15T07:40:47.142Z</time>
      </trkpt>
      <trkpt lat="44.14196" lon="0.45665">
        <ele>60</ele>
        <time>2022-09-15T07:40:48.142Z</time>
      </trkpt>
      <trkpt lat="44.14196" lon="0.45664">
        <ele>60</ele>
        <time>2022-09-15T07:40:49.142Z</time>
      </trkpt>
      <trkpt lat="44.14196" lon="0.45664">
        <ele>60</ele>
        <time>2022-09-15T07:40:50.142Z</time>
      </trkpt>
      <trkpt lat="44.14196" lon="0.45664">
        <ele>60</ele>
        <time>2022-09-15T07:40:52.142Z</time>
      </trkpt>
      <trkpt lat="44.14196" lon="0.45664">
        <ele>60</ele>
        <time>2022-09-15T07:40:53.142Z</time>
      </trkpt>
      <trkpt lat="44.14198" lon="0.45664">
        <ele>62</ele>
        <time>2022-09-15T07:41:00.162Z</time>
      </trkpt>
      <trkpt lat="44.14199" lon="0.45664">
        <ele>62</ele>
        <time>2022-09-15T07:41:01.162Z</time>
      </trkpt>
      <trkpt lat="44.14201" lon="0.45664">
        <ele>62</ele>
        <time>2022-09-15T07:41:02.162Z</time>
      </trkpt>
      <trkpt lat="44.14202" lon="0.45664">
        <ele>62</ele>
        <time>2022-09-15T07:41:03.162Z</time>
      </trkpt>
      <trkpt lat="44.14203" lon="0.45665">
        <ele>62</ele>
        <time>2022-09-15T07:41:04.162Z</time>
      </trkpt>
      <trkpt lat="44.14204" lon="0.45665">
        <ele>62</ele>
        <time>2022-09-15T07:41:05.162Z</time>
      </trkpt>
      <trkpt lat="44.14205" lon="0.45665">
        <ele>62</ele>
        <time>2022-09-15T07:41:06.162Z</time>
      </trkpt>
      <trkpt lat="44.14206" lon="0.45666">
        <ele>61</ele>
        <time>2022-09-15T07:41:07.162Z</time>
      </trkpt>
      <trkpt lat="44.14207" lon="0.45667">
        <ele>61</ele>
        <time>2022-09-15T07:41:08.162Z</time>
      </trkpt>
      <trkpt lat="44.14207" lon="0.45668">
        <ele>61</ele>
        <time>2022-09-15T07:41:09.162Z</time>
      </trkpt>
      <trkpt lat="44.14208" lon="0.45669">
        <ele>61</ele>
        <time>2022-09-15T07:41:10.162Z</time>
      </trkpt>
      <trkpt lat="44.14208" lon="0.4567">
        <ele>61</ele>
        <time>2022-09-15T07:41:11.162Z</time>
      </trkpt>
      <trkpt lat="44.14208" lon="0.45672">
        <ele>61</ele>
        <time>2022-09-15T07:41:12.162Z</time>
      </trkpt>
      <trkpt lat="44.14207" lon="0.45673">
        <ele>61</ele>
        <time>2022-09-15T07:41:13.162Z</time>
      </trkpt>
      <trkpt lat="44.14207" lon="0.45675">
        <ele>61</ele>
        <time>2022-09-15T07:41:14.162Z</time>
      </trkpt>
      <trkpt lat="44.14206" lon="0.45676">
        <ele>61</ele>
        <time>2022-09-15T07:41:15.162Z</time>
      </trkpt>
      <trkpt lat="44.14206" lon="0.45677">
        <ele>61</ele>
        <time>2022-09-15T07:41:16.162Z</time>
      </trkpt>
      <trkpt lat="44.14205" lon="0.45678">
        <ele>60</ele>
        <time>2022-09-15T07:41:17.162Z</time>
      </trkpt>
      <trkpt lat="44.14205" lon="0.45679">
        <ele>61</ele>
        <time>2022-09-15T07:41:18.162Z</time>
      </trkpt>
      <trkpt lat="44.14204" lon="0.4568">
        <ele>60</ele>
        <time>2022-09-15T07:41:19.162Z</time>
      </trkpt>
      <trkpt lat="44.14204" lon="0.45682">
        <ele>60</ele>
        <time>2022-09-15T07:41:20.162Z</time>
      </trkpt>
      <trkpt lat="44.14204" lon="0.45684">
        <ele>60</ele>
        <time>2022-09-15T07:41:21.162Z</time>
      </trkpt>
      <trkpt lat="44.14203" lon="0.45685">
        <ele>60</ele>
        <time>2022-09-15T07:41:22.162Z</time>
      </trkpt>
      <trkpt lat="44.14202" lon="0.45687">
        <ele>60</ele>
        <time>2022-09-15T07:41:23.162Z</time>
      </trkpt>
      <trkpt lat="44.14202" lon="0.45688">
        <ele>59</ele>
        <time>2022-09-15T07:41:24.162Z</time>
      </trkpt>
      <trkpt lat="44.14201" lon="0.4569">
        <ele>59</ele>
        <time>2022-09-15T07:41:25.162Z</time>
      </trkpt>
      <trkpt lat="44.14201" lon="0.45691">
        <ele>58</ele>
        <time>2022-09-15T07:41:26.162Z</time>
      </trkpt>
      <trkpt lat="44.142" lon="0.45693">
        <ele>58</ele>
        <time>2022-09-15T07:41:27.162Z</time>
      </trkpt>
      <trkpt lat="44.142" lon="0.45694">
        <ele>58</ele>
        <time>2022-09-15T07:41:28.162Z</time>
      </trkpt>
      <trkpt lat="44.14199" lon="0.45695">
        <ele>58</ele>
        <time>2022-09-15T07:41:29.162Z</time>
      </trkpt>
      <trkpt lat="44.14199" lon="0.45696">
        <ele>58</ele>
        <time>2022-09-15T07:41:30.162Z</time>
      </trkpt>
      <trkpt lat="44.14198" lon="0.45697">
        <ele>58</ele>
        <time>2022-09-15T07:41:31.162Z</time>
      </trkpt>
      <trkpt lat="44.14198" lon="0.45698">
        <ele>59</ele>
        <time>2022-09-15T07:41:32.162Z</time>
      </trkpt>
      <trkpt lat="44.14198" lon="0.45699">
        <ele>59</ele>
        <time>2022-09-15T07:41:33.162Z</time>
      </trkpt>
      <trkpt lat="44.14198" lon="0.457">
        <ele>60</ele>
        <time>2022-09-15T07:41:34.162Z</time>
      </trkpt>
      <trkpt lat="44.14197" lon="0.45701">
        <ele>60</ele>
        <time>2022-09-15T07:41:35.162Z</time>
      </trkpt>
      <trkpt lat="44.14197" lon="0.45703">
        <ele>60</ele>
        <time>2022-09-15T07:41:36.162Z</time>
      </trkpt>
      <trkpt lat="44.14197" lon="0.45706">
        <ele>61</ele>
        <time>2022-09-15T07:41:37.162Z</time>
      </trkpt>
      <trkpt lat="44.14197" lon="0.45709">
        <ele>60</ele>
        <time>2022-09-15T07:41:38.162Z</time>
      </trkpt>
      <trkpt lat="44.14196" lon="0.45712">
        <ele>60</ele>
        <time>2022-09-15T07:41:39.162Z</time>
      </trkpt>
      <trkpt lat="44.14196" lon="0.45715">
        <ele>60</ele>
        <time>2022-09-15T07:41:40.162Z</time>
      </trkpt>
      <trkpt lat="44.14195" lon="0.45718">
        <ele>59</ele>
        <time>2022-09-15T07:41:41.162Z</time>
      </trkpt>
      <trkpt lat="44.14195" lon="0.4572">
        <ele>59</ele>
        <time>2022-09-15T07:41:42.162Z</time>
      </trkpt>
      <trkpt lat="44.14194" lon="0.45722">
        <ele>59</ele>
        <time>2022-09-15T07:41:43.162Z</time>
      </trkpt>
      <trkpt lat="44.14193" lon="0.45723">
        <ele>59</ele>
        <time>2022-09-15T07:41:44.162Z</time>
      </trkpt>
      <trkpt lat="44.14193" lon="0.45724">
        <ele>59</ele>
        <time>2022-09-15T07:41:45.162Z</time>
      </trkpt>
      <trkpt lat="44.14193" lon="0.45725">
        <ele>60</ele>
        <time>2022-09-15T07:41:46.162Z</time>
      </trkpt>
      <trkpt lat="44.14193" lon="0.45725">
        <ele>61</ele>
        <time>2022-09-15T07:41:47.162Z</time>
      </trkpt>
      <trkpt lat="44.14193" lon="0.45726">
        <ele>62</ele>
        <time>2022-09-15T07:41:48.162Z</time>
      </trkpt>
      <trkpt lat="44.14193" lon="0.45726">
        <ele>62</ele>
        <time>2022-09-15T07:41:49.162Z</time>
      </trkpt>
      <trkpt lat="44.14193" lon="0.45726">
        <ele>62</ele>
        <time>2022-09-15T07:41:50.162Z</time>
      </trkpt>
      <trkpt lat="44.14192" lon="0.45727">
        <ele>62</ele>
        <time>2022-09-15T07:41:51.162Z</time>
      </trkpt>
      <trkpt lat="44.14192" lon="0.45727">
        <ele>62</ele>
        <time>2022-09-15T07:41:52.162Z</time>
      </trkpt>
      <trkpt lat="44.14192" lon="0.45733">
        <ele>64</ele>
        <time>2022-09-15T07:42:15.182Z</time>
      </trkpt>
      <trkpt lat="44.14192" lon="0.45734">
        <ele>64</ele>
        <time>2022-09-15T07:42:16.182Z</time>
      </trkpt>
      <trkpt lat="44.14191" lon="0.45736">
        <ele>64</ele>
        <time>2022-09-15T07:42:17.182Z</time>
      </trkpt>
      <trkpt lat="44.14191" lon="0.45737">
        <ele>64</ele>
        <time>2022-09-15T07:42:18.182Z</time>
      </trkpt>
      <trkpt lat="44.14191" lon="0.45739">
        <ele>64</ele>
        <time>2022-09-15T07:42:19.182Z</time>
      </trkpt>
      <trkpt lat="44.1419" lon="0.4574">
        <ele>64</ele>
        <time>2022-09-15T07:42:20.182Z</time>
      </trkpt>
      <trkpt lat="44.1419" lon="0.45742">
        <ele>64</ele>
        <time>2022-09-15T07:42:21.182Z</time>
      </trkpt>
      <trkpt lat="44.1419" lon="0.45743">
        <ele>64</ele>
        <time>2022-09-15T07:42:22.182Z</time>
      </trkpt>
      <trkpt lat="44.14189" lon="0.45744">
        <ele>63</ele>
        <time>2022-09-15T07:42:23.182Z</time>
      </trkpt>
      <trkpt lat="44.14189" lon="0.45746">
        <ele>63</ele>
        <time>2022-09-15T07:42:24.182Z</time>
      </trkpt>
      <trkpt lat="44.14189" lon="0.45747">
        <ele>63</ele>
        <time>2022-09-15T07:42:25.182Z</time>
      </trkpt>
      <trkpt lat="44.14188" lon="0.45748">
        <ele>63</ele>
        <time>2022-09-15T07:42:26.182Z</time>
      </trkpt>
      <trkpt lat="44.14188" lon="0.45749">
        <ele>62</ele>
        <time>2022-09-15T07:42:27.182Z</time>
      </trkpt>
      <trkpt lat="44.14188" lon="0.4575">
        <ele>62</ele>
        <time>2022-09-15T07:42:28.182Z</time>
      </trkpt>
      <trkpt lat="44.14187" lon="0.45752">
        <ele>62</ele>
        <time>2022-09-15T07:42:29.182Z</time>
      </trkpt>
      <trkpt lat="44.14187" lon="0.45753">
        <ele>62</ele>
        <time>2022-09-15T07:42:30.182Z</time>
      </trkpt>
      <trkpt lat="44.14187" lon="0.45754">
        <ele>62</ele>
        <time>2022-09-15T07:42:31.182Z</time>
      </trkpt>
      <trkpt lat="44.14187" lon="0.45756">
        <ele>61</ele>
        <time>2022-09-15T07:42:32.182Z</time>
      </trkpt>
      <trkpt lat="44.14186" lon="0.45758">
        <ele>61</ele>
        <time>2022-09-15T07:42:33.182Z</time>
      </trkpt>
      <trkpt lat="44.14186" lon="0.45759">
        <ele>60</ele>
        <time>2022-09-15T07:42:34.182Z</time>
      </trkpt>
      <trkpt lat="44.14185" lon="0.45761">
        <ele>60</ele>
        <time>2022-09-15T07:42:35.182Z</time>
      </trkpt>
      <trkpt lat="44.14185" lon="0.45763">
        <ele>59</ele>
        <time>2022-09-15T07:42:36.182Z</time>
      </trkpt>
      <trkpt lat="44.14185" lon="0.45765">
        <ele>60</ele>
        <time>2022-09-15T07:42:37.182Z</time>
      </trkpt>
      <trkpt lat="44.14185" lon="0.45767">
        <ele>60</ele>
        <time>2022-09-15T07:42:38.182Z</time>
      </trkpt>
      <trkpt lat="44.14186" lon="0.4577">
        <ele>60</ele>
        <time>2022-09-15T07:42:39.182Z</time>
      </trkpt>
      <trkpt lat="44.14186" lon="0.45772">
        <ele>61</ele>
        <time>2022-09-15T07:42:40.182Z</time>
      </trkpt>
      <trkpt lat="44.14187" lon="0.45775">
        <ele>61</ele>
        <time>2022-09-15T07:42:41.182Z</time>
      </trkpt>
      <trkpt lat="44.14187" lon="0.45776">
        <ele>62</ele>
        <time>2022-09-15T07:42:42.182Z</time>
      </trkpt>
      <trkpt lat="44.14188" lon="0.45778">
        <ele>62</ele>
        <time>2022-09-15T07:42:43.182Z</time>
      </trkpt>
      <trkpt lat="44.14188" lon="0.45779">
        <ele>62</ele>
        <time>2022-09-15T07:42:44.182Z</time>
      </trkpt>
      <trkpt lat="44.14188" lon="0.4578">
        <ele>62</ele>
        <time>2022-09-15T07:42:45.182Z</time>
      </trkpt>
      <trkpt lat="44.14189" lon="0.45782">
        <ele>63</ele>
        <time>2022-09-15T07:42:46.182Z</time>
      </trkpt>
      <trkpt lat="44.14189" lon="0.45783">
        <ele>62</ele>
        <time>2022-09-15T07:42:47.182Z</time>
      </trkpt>
      <trkpt lat="44.1419" lon="0.45784">
        <ele>63</ele>
        <time>2022-09-15T07:42:48.182Z</time>
      </trkpt>
      <trkpt lat="44.1419" lon="0.45786">
        <ele>62</ele>
        <time>2022-09-15T07:42:49.182Z</time>
      </trkpt>
      <trkpt lat="44.14191" lon="0.45787">
        <ele>62</ele>
        <time>2022-09-15T07:42:50.182Z</time>
      </trkpt>
      <trkpt lat="44.14192" lon="0.45788">
        <ele>62</ele>
        <time>2022-09-15T07:42:51.182Z</time>
      </trkpt>
      <trkpt lat="44.14193" lon="0.4579">
        <ele>62</ele>
        <time>2022-09-15T07:42:52.182Z</time>
      </trkpt>
      <trkpt lat="44.14194" lon="0.45791">
        <ele>62</ele>
        <time>2022-09-15T07:42:53.182Z</time>
      </trkpt>
      <trkpt lat="44.14195" lon="0.45792">
        <ele>63</ele>
        <time>2022-09-15T07:42:54.182Z</time>
      </trkpt>
      <trkpt lat="44.14196" lon="0.45793">
        <ele>64</ele>
        <time>2022-09-15T07:42:55.182Z</time>
      </trkpt>
      <trkpt lat="44.14197" lon="0.45794">
        <ele>64</ele>
        <time>2022-09-15T07:42:56.182Z</time>
      </trkpt>
      <trkpt lat="44.14198" lon="0.45796">
        <ele>65</ele>
        <time>2022-09-15T07:42:57.182Z</time>
      </trkpt>
      <trkpt lat="44.142" lon="0.45797">
        <ele>65</ele>
        <time>2022-09-15T07:42:58.182Z</time>
      </trkpt>
      <trkpt lat="44.14202" lon="0.45798">
        <ele>65</ele>
        <time>2022-09-15T07:42:59.182Z</time>
      </trkpt>
      <trkpt lat="44.14203" lon="0.45799">
        <ele>65</ele>
        <time>2022-09-15T07:43:00.182Z</time>
      </trkpt>
      <trkpt lat="44.14204" lon="0.458">
        <ele>66</ele>
        <time>2022-09-15T07:43:01.182Z</time>
      </trkpt>
      <trkpt lat="44.14205" lon="0.45801">
        <ele>66</ele>
        <time>2022-09-15T07:43:02.182Z</time>
      </trkpt>
      <trkpt lat="44.14207" lon="0.45802">
        <ele>67</ele>
        <time>2022-09-15T07:43:03.182Z</time>
      </trkpt>
      <trkpt lat="44.14208" lon="0.45802">
        <ele>67</ele>
        <time>2022-09-15T07:43:04.182Z</time>
      </trkpt>
      <trkpt lat="44.14209" lon="0.45803">
        <ele>68</ele>
        <time>2022-09-15T07:43:05.182Z</time>
      </trkpt>
      <trkpt lat="44.1421" lon="0.45804">
        <ele>68</ele>
        <time>2022-09-15T07:43:06.182Z</time>
      </trkpt>
      <trkpt lat="44.1421" lon="0.45805">
        <ele>70</ele>
        <time>2022-09-15T07:43:07.182Z</time>
      </trkpt>
      <trkpt lat="44.1421" lon="0.45805">
        <ele>70</ele>
        <time>2022-09-15T07:43:08.182Z</time>
      </trkpt>
      <trkpt lat="44.14211" lon="0.45806">
        <ele>70</ele>
        <time>2022-09-15T07:43:09.182Z</time>
      </trkpt>
      <trkpt lat="44.14212" lon="0.45806">
        <ele>70</ele>
        <time>2022-09-15T07:43:10.182Z</time>
      </trkpt>
      <trkpt lat="44.14212" lon="0.45806">
        <ele>70</ele>
        <time>2022-09-15T07:43:11.182Z</time>
      </trkpt>
      <trkpt lat="44.14213" lon="0.45806">
        <ele>71</ele>
        <time>2022-09-15T07:43:12.182Z</time>
      </trkpt>
      <trkpt lat="44.14214" lon="0.45806">
        <ele>71</ele>
        <time>2022-09-15T07:43:13.182Z</time>
      </trkpt>
      <trkpt lat="44.14215" lon="0.45806">
        <ele>71</ele>
        <time>2022-09-15T07:43:14.182Z</time>
      </trkpt>
      <trkpt lat="44.14215" lon="0.45805">
        <ele>70</ele>
        <time>2022-09-15T07:43:15.182Z</time>
      </trkpt>
      <trkpt lat="44.14216" lon="0.45805">
        <ele>71</ele>
        <time>2022-09-15T07:43:16.182Z</time>
      </trkpt>
      <trkpt lat="44.14217" lon="0.45805">
        <ele>72</ele>
        <time>2022-09-15T07:43:17.182Z</time>
      </trkpt>
      <trkpt lat="44.14217" lon="0.45805">
        <ele>72</ele>
        <time>2022-09-15T07:43:18.182Z</time>
      </trkpt>
      <trkpt lat="44.14218" lon="0.45805">
        <ele>72</ele>
        <time>2022-09-15T07:43:19.182Z</time>
      </trkpt>
      <trkpt lat="44.14219" lon="0.45805">
        <ele>72</ele>
        <time>2022-09-15T07:43:20.182Z</time>
      </trkpt>
      <trkpt lat="44.14219" lon="0.45805">
        <ele>71</ele>
        <time>2022-09-15T07:43:21.182Z</time>
      </trkpt>
      <trkpt lat="44.1422" lon="0.45805">
        <ele>72</ele>
        <time>2022-09-15T07:43:22.182Z</time>
      </trkpt>
      <trkpt lat="44.14221" lon="0.45805">
        <ele>72</ele>
        <time>2022-09-15T07:43:23.182Z</time>
      </trkpt>
      <trkpt lat="44.14222" lon="0.45805">
        <ele>72</ele>
        <time>2022-09-15T07:43:24.182Z</time>
      </trkpt>
      <trkpt lat="44.14223" lon="0.45805">
        <ele>72</ele>
        <time>2022-09-15T07:43:25.182Z</time>
      </trkpt>
      <trkpt lat="44.14224" lon="0.45806">
        <ele>71</ele>
        <time>2022-09-15T07:43:26.182Z</time>
      </trkpt>
      <trkpt lat="44.14225" lon="0.45806">
        <ele>72</ele>
        <time>2022-09-15T07:43:27.182Z</time>
      </trkpt>
      <trkpt lat="44.14226" lon="0.45806">
        <ele>72</ele>
        <time>2022-09-15T07:43:28.182Z</time>
      </trkpt>
      <trkpt lat="44.14227" lon="0.45807">
        <ele>72</ele>
        <time>2022-09-15T07:43:29.182Z</time>
      </trkpt>
      <trkpt lat="44.14228" lon="0.45807">
        <ele>72</ele>
        <time>2022-09-15T07:43:30.182Z</time>
      </trkpt>
      <trkpt lat="44.14229" lon="0.45807">
        <ele>72</ele>
        <time>2022-09-15T07:43:31.182Z</time>
      </trkpt>
      <trkpt lat="44.1423" lon="0.45808">
        <ele>72</ele>
        <time>2022-09-15T07:43:32.182Z</time>
      </trkpt>
      <trkpt lat="44.14231" lon="0.45808">
        <ele>72</ele>
        <time>2022-09-15T07:43:33.182Z</time>
      </trkpt>
      <trkpt lat="44.14232" lon="0.45808">
        <ele>72</ele>
        <time>2022-09-15T07:43:34.182Z</time>
      </trkpt>
      <trkpt lat="44.14233" lon="0.45809">
        <ele>72</ele>
        <time>2022-09-15T07:43:35.182Z</time>
      </trkpt>
      <trkpt lat="44.14234" lon="0.45809">
        <ele>72</ele>
        <time>2022-09-15T07:43:36.182Z</time>
      </trkpt>
      <trkpt lat="44.14235" lon="0.45809">
        <ele>72</ele>
        <time>2022-09-15T07:43:37.182Z</time>
      </trkpt>
      <trkpt lat="44.14236" lon="0.4581">
        <ele>72</ele>
        <time>2022-09-15T07:43:38.182Z</time>
      </trkpt>
      <trkpt lat="44.14237" lon="0.4581">
        <ele>72</ele>
        <time>2022-09-15T07:43:39.182Z</time>
      </trkpt>
      <trkpt lat="44.14238" lon="0.4581">
        <ele>72</ele>
        <time>2022-09-15T07:43:40.182Z</time>
      </trkpt>
      <trkpt lat="44.14239" lon="0.4581">
        <ele>72</ele>
        <time>2022-09-15T07:43:41.182Z</time>
      </trkpt>
      <trkpt lat="44.1424" lon="0.4581">
        <ele>72</ele>
        <time>2022-09-15T07:43:42.182Z</time>
      </trkpt>
      <trkpt lat="44.14241" lon="0.4581">
        <ele>72</ele>
        <time>2022-09-15T07:43:43.182Z</time>
      </trkpt>
      <trkpt lat="44.14243" lon="0.4581">
        <ele>71</ele>
        <time>2022-09-15T07:43:44.182Z</time>
      </trkpt>
      <trkpt lat="44.14244" lon="0.45809">
        <ele>71</ele>
        <time>2022-09-15T07:43:45.182Z</time>
      </trkpt>
      <trkpt lat="44.14245" lon="0.45809">
        <ele>71</ele>
        <time>2022-09-15T07:43:46.182Z</time>
      </trkpt>
      <trkpt lat="44.14246" lon="0.45808">
        <ele>71</ele>
        <time>2022-09-15T07:43:47.182Z</time>
      </trkpt>
      <trkpt lat="44.14248" lon="0.45808">
        <ele>71</ele>
        <time>2022-09-15T07:43:48.182Z</time>
      </trkpt>
      <trkpt lat="44.14249" lon="0.45808">
        <ele>71</ele>
        <time>2022-09-15T07:43:49.182Z</time>
      </trkpt>
      <trkpt lat="44.1425" lon="0.45807">
        <ele>71</ele>
        <time>2022-09-15T07:43:50.182Z</time>
      </trkpt>
      <trkpt lat="44.14251" lon="0.45807">
        <ele>70</ele>
        <time>2022-09-15T07:43:51.182Z</time>
      </trkpt>
      <trkpt lat="44.14253" lon="0.45806">
        <ele>70</ele>
        <time>2022-09-15T07:43:52.182Z</time>
      </trkpt>
      <trkpt lat="44.14254" lon="0.45806">
        <ele>70</ele>
        <time>2022-09-15T07:43:53.182Z</time>
      </trkpt>
      <trkpt lat="44.14255" lon="0.45806">
        <ele>70</ele>
        <time>2022-09-15T07:43:54.182Z</time>
      </trkpt>
      <trkpt lat="44.14256" lon="0.45805">
        <ele>69</ele>
        <time>2022-09-15T07:43:55.182Z</time>
      </trkpt>
      <trkpt lat="44.14257" lon="0.45805">
        <ele>69</ele>
        <time>2022-09-15T07:43:56.182Z</time>
      </trkpt>
      <trkpt lat="44.14258" lon="0.45805">
        <ele>69</ele>
        <time>2022-09-15T07:43:57.182Z</time>
      </trkpt>
      <trkpt lat="44.14259" lon="0.45805">
        <ele>69</ele>
        <time>2022-09-15T07:43:58.182Z</time>
      </trkpt>
      <trkpt lat="44.1426" lon="0.45805">
        <ele>69</ele>
        <time>2022-09-15T07:43:59.182Z</time>
      </trkpt>
      <trkpt lat="44.14261" lon="0.45805">
        <ele>69</ele>
        <time>2022-09-15T07:44:00.182Z</time>
      </trkpt>
      <trkpt lat="44.14262" lon="0.45804">
        <ele>69</ele>
        <time>2022-09-15T07:44:01.182Z</time>
      </trkpt>
      <trkpt lat="44.14263" lon="0.45804">
        <ele>69</ele>
        <time>2022-09-15T07:44:02.182Z</time>
      </trkpt>
      <trkpt lat="44.14264" lon="0.45804">
        <ele>69</ele>
        <time>2022-09-15T07:44:03.182Z</time>
      </trkpt>
      <trkpt lat="44.14265" lon="0.45804">
        <ele>68</ele>
        <time>2022-09-15T07:44:04.182Z</time>
      </trkpt>
      <trkpt lat="44.14267" lon="0.45803">
        <ele>68</ele>
        <time>2022-09-15T07:44:05.182Z</time>
      </trkpt>
      <trkpt lat="44.14268" lon="0.45803">
        <ele>68</ele>
        <time>2022-09-15T07:44:06.182Z</time>
      </trkpt>
      <trkpt lat="44.14269" lon="0.45803">
        <ele>68</ele>
        <time>2022-09-15T07:44:07.182Z</time>
      </trkpt>
      <trkpt lat="44.1427" lon="0.45803">
        <ele>68</ele>
        <time>2022-09-15T07:44:08.182Z</time>
      </trkpt>
      <trkpt lat="44.14271" lon="0.45802">
        <ele>68</ele>
        <time>2022-09-15T07:44:09.182Z</time>
      </trkpt>
      <trkpt lat="44.14272" lon="0.45802">
        <ele>68</ele>
        <time>2022-09-15T07:44:10.182Z</time>
      </trkpt>
      <trkpt lat="44.14273" lon="0.45801">
        <ele>68</ele>
        <time>2022-09-15T07:44:11.182Z</time>
      </trkpt>
      <trkpt lat="44.14274" lon="0.45801">
        <ele>68</ele>
        <time>2022-09-15T07:44:12.182Z</time>
      </trkpt>
      <trkpt lat="44.14275" lon="0.458">
        <ele>68</ele>
        <time>2022-09-15T07:44:13.182Z</time>
      </trkpt>
      <trkpt lat="44.14276" lon="0.458">
        <ele>68</ele>
        <time>2022-09-15T07:44:14.182Z</time>
      </trkpt>
      <trkpt lat="44.14277" lon="0.458">
        <ele>68</ele>
        <time>2022-09-15T07:44:15.182Z</time>
      </trkpt>
      <trkpt lat="44.14278" lon="0.45799">
        <ele>68</ele>
        <time>2022-09-15T07:44:16.182Z</time>
      </trkpt>
      <trkpt lat="44.14279" lon="0.45799">
        <ele>68</ele>
        <time>2022-09-15T07:44:17.182Z</time>
      </trkpt>
      <trkpt lat="44.1428" lon="0.45799">
        <ele>68</ele>
        <time>2022-09-15T07:44:18.182Z</time>
      </trkpt>
      <trkpt lat="44.14281" lon="0.45798">
        <ele>68</ele>
        <time>2022-09-15T07:44:19.182Z</time>
      </trkpt>
      <trkpt lat="44.14282" lon="0.45798">
        <ele>68</ele>
        <time>2022-09-15T07:44:20.182Z</time>
      </trkpt>
      <trkpt lat="44.14283" lon="0.45798">
        <ele>68</ele>
        <time>2022-09-15T07:44:21.182Z</time>
      </trkpt>
      <trkpt lat="44.14284" lon="0.45798">
        <ele>68</ele>
        <time>2022-09-15T07:44:22.182Z</time>
      </trkpt>
      <trkpt lat="44.14286" lon="0.45797">
        <ele>68</ele>
        <time>2022-09-15T07:44:23.182Z</time>
      </trkpt>
      <trkpt lat="44.14287" lon="0.45797">
        <ele>68</ele>
        <time>2022-09-15T07:44:24.182Z</time>
      </trkpt>
      <trkpt lat="44.14288" lon="0.45797">
        <ele>68</ele>
        <time>2022-09-15T07:44:25.182Z</time>
      </trkpt>
      <trkpt lat="44.14289" lon="0.45797">
        <ele>69</ele>
        <time>2022-09-15T07:44:26.182Z</time>
      </trkpt>
      <trkpt lat="44.1429" lon="0.45796">
        <ele>69</ele>
        <time>2022-09-15T07:44:27.182Z</time>
      </trkpt>
      <trkpt lat="44.14291" lon="0.45796">
        <ele>68</ele>
        <time>2022-09-15T07:44:28.182Z</time>
      </trkpt>
      <trkpt lat="44.14292" lon="0.45796">
        <ele>68</ele>
        <time>2022-09-15T07:44:29.182Z</time>
      </trkpt>
      <trkpt lat="44.14294" lon="0.45795">
        <ele>68</ele>
        <time>2022-09-15T07:44:30.182Z</time>
      </trkpt>
      <trkpt lat="44.14295" lon="0.45795">
        <ele>68</ele>
        <time>2022-09-15T07:44:31.182Z</time>
      </trkpt>
      <trkpt lat="44.14296" lon="0.45795">
        <ele>69</ele>
        <time>2022-09-15T07:44:32.182Z</time>
      </trkpt>
      <trkpt lat="44.14297" lon="0.45795">
        <ele>69</ele>
        <time>2022-09-15T07:44:33.182Z</time>
      </trkpt>
      <trkpt lat="44.14298" lon="0.45794">
        <ele>69</ele>
        <time>2022-09-15T07:44:34.182Z</time>
      </trkpt>
      <trkpt lat="44.14299" lon="0.45794">
        <ele>69</ele>
        <time>2022-09-15T07:44:35.182Z</time>
      </trkpt>
      <trkpt lat="44.143" lon="0.45794">
        <ele>69</ele>
        <time>2022-09-15T07:44:36.182Z</time>
      </trkpt>
      <trkpt lat="44.14301" lon="0.45793">
        <ele>69</ele>
        <time>2022-09-15T07:44:37.182Z</time>
      </trkpt>
      <trkpt lat="44.14302" lon="0.45793">
        <ele>69</ele>
        <time>2022-09-15T07:44:38.182Z</time>
      </trkpt>
      <trkpt lat="44.14304" lon="0.45792">
        <ele>69</ele>
        <time>2022-09-15T07:44:39.182Z</time>
      </trkpt>
      <trkpt lat="44.14305" lon="0.45792">
        <ele>69</ele>
        <time>2022-09-15T07:44:40.182Z</time>
      </trkpt>
      <trkpt lat="44.14306" lon="0.45792">
        <ele>69</ele>
        <time>2022-09-15T07:44:41.182Z</time>
      </trkpt>
      <trkpt lat="44.14307" lon="0.45792">
        <ele>69</ele>
        <time>2022-09-15T07:44:42.182Z</time>
      </trkpt>
      <trkpt lat="44.14308" lon="0.45791">
        <ele>69</ele>
        <time>2022-09-15T07:44:43.182Z</time>
      </trkpt>
      <trkpt lat="44.14309" lon="0.45791">
        <ele>69</ele>
        <time>2022-09-15T07:44:44.182Z</time>
      </trkpt>
      <trkpt lat="44.1431" lon="0.45791">
        <ele>69</ele>
        <time>2022-09-15T07:44:45.182Z</time>
      </trkpt>
      <trkpt lat="44.14312" lon="0.4579">
        <ele>69</ele>
        <time>2022-09-15T07:44:46.182Z</time>
      </trkpt>
      <trkpt lat="44.14313" lon="0.4579">
        <ele>70</ele>
        <time>2022-09-15T07:44:47.182Z</time>
      </trkpt>
      <trkpt lat="44.14314" lon="0.4579">
        <ele>70</ele>
        <time>2022-09-15T07:44:48.182Z</time>
      </trkpt>
      <trkpt lat="44.14315" lon="0.45789">
        <ele>70</ele>
        <time>2022-09-15T07:44:49.182Z</time>
      </trkpt>
      <trkpt lat="44.14316" lon="0.45789">
        <ele>71</ele>
        <time>2022-09-15T07:44:50.182Z</time>
      </trkpt>
      <trkpt lat="44.14317" lon="0.45789">
        <ele>71</ele>
        <time>2022-09-15T07:44:51.182Z</time>
      </trkpt>
      <trkpt lat="44.14319" lon="0.45789">
        <ele>71</ele>
        <time>2022-09-15T07:44:52.182Z</time>
      </trkpt>
      <trkpt lat="44.1432" lon="0.45789">
        <ele>71</ele>
        <time>2022-09-15T07:44:53.182Z</time>
      </trkpt>
      <trkpt lat="44.14321" lon="0.45788">
        <ele>71</ele>
        <time>2022-09-15T07:44:54.182Z</time>
      </trkpt>
      <trkpt lat="44.14322" lon="0.45788">
        <ele>71</ele>
        <time>2022-09-15T07:44:55.182Z</time>
      </trkpt>
      <trkpt lat="44.14323" lon="0.45788">
        <ele>71</ele>
        <time>2022-09-15T07:44:56.182Z</time>
      </trkpt>
      <trkpt lat="44.14324" lon="0.45787">
        <ele>72</ele>
        <time>2022-09-15T07:44:57.182Z</time>
      </trkpt>
      <trkpt lat="44.14325" lon="0.45787">
        <ele>71</ele>
        <time>2022-09-15T07:44:58.182Z</time>
      </trkpt>
      <trkpt lat="44.14327" lon="0.45787">
        <ele>72</ele>
        <time>2022-09-15T07:44:59.182Z</time>
      </trkpt>
      <trkpt lat="44.14328" lon="0.45787">
        <ele>72</ele>
        <time>2022-09-15T07:45:00.182Z</time>
      </trkpt>
      <trkpt lat="44.14329" lon="0.45786">
        <ele>72</ele>
        <time>2022-09-15T07:45:01.182Z</time>
      </trkpt>
      <trkpt lat="44.1433" lon="0.45786">
        <ele>72</ele>
        <time>2022-09-15T07:45:02.182Z</time>
      </trkpt>
      <trkpt lat="44.14331" lon="0.45786">
        <ele>72</ele>
        <time>2022-09-15T07:45:03.182Z</time>
      </trkpt>
      <trkpt lat="44.14332" lon="0.45785">
        <ele>72</ele>
        <time>2022-09-15T07:45:04.182Z</time>
      </trkpt>
      <trkpt lat="44.14333" lon="0.45785">
        <ele>72</ele>
        <time>2022-09-15T07:45:05.182Z</time>
      </trkpt>
      <trkpt lat="44.14334" lon="0.45785">
        <ele>72</ele>
        <time>2022-09-15T07:45:06.182Z</time>
      </trkpt>
      <trkpt lat="44.14335" lon="0.45785">
        <ele>73</ele>
        <time>2022-09-15T07:45:07.182Z</time>
      </trkpt>
      <trkpt lat="44.14336" lon="0.45784">
        <ele>73</ele>
        <time>2022-09-15T07:45:08.182Z</time>
      </trkpt>
      <trkpt lat="44.14337" lon="0.45784">
        <ele>73</ele>
        <time>2022-09-15T07:45:09.182Z</time>
      </trkpt>
      <trkpt lat="44.14338" lon="0.45784">
        <ele>73</ele>
        <time>2022-09-15T07:45:10.182Z</time>
      </trkpt>
      <trkpt lat="44.14339" lon="0.45784">
        <ele>73</ele>
        <time>2022-09-15T07:45:11.182Z</time>
      </trkpt>
      <trkpt lat="44.1434" lon="0.45783">
        <ele>73</ele>
        <time>2022-09-15T07:45:12.182Z</time>
      </trkpt>
      <trkpt lat="44.14341" lon="0.45783">
        <ele>73</ele>
        <time>2022-09-15T07:45:13.182Z</time>
      </trkpt>
      <trkpt lat="44.14343" lon="0.45783">
        <ele>73</ele>
        <time>2022-09-15T07:45:14.182Z</time>
      </trkpt>
      <trkpt lat="44.14344" lon="0.45783">
        <ele>74</ele>
        <time>2022-09-15T07:45:15.182Z</time>
      </trkpt>
      <trkpt lat="44.14345" lon="0.45783">
        <ele>74</ele>
        <time>2022-09-15T07:45:16.182Z</time>
      </trkpt>
      <trkpt lat="44.14346" lon="0.45783">
        <ele>74</ele>
        <time>2022-09-15T07:45:17.182Z</time>
      </trkpt>
      <trkpt lat="44.14347" lon="0.45783">
        <ele>74</ele>
        <time>2022-09-15T07:45:18.182Z</time>
      </trkpt>
      <trkpt lat="44.14348" lon="0.45783">
        <ele>74</ele>
        <time>2022-09-15T07:45:19.182Z</time>
      </trkpt>
      <trkpt lat="44.14349" lon="0.45783">
        <ele>74</ele>
        <time>2022-09-15T07:45:20.182Z</time>
      </trkpt>
      <trkpt lat="44.1435" lon="0.45783">
        <ele>75</ele>
        <time>2022-09-15T07:45:21.182Z</time>
      </trkpt>
      <trkpt lat="44.14351" lon="0.45782">
        <ele>75</ele>
        <time>2022-09-15T07:45:22.182Z</time>
      </trkpt>
      <trkpt lat="44.14352" lon="0.45782">
        <ele>75</ele>
        <time>2022-09-15T07:45:23.182Z</time>
      </trkpt>
      <trkpt lat="44.14353" lon="0.45782">
        <ele>76</ele>
        <time>2022-09-15T07:45:24.182Z</time>
      </trkpt>
      <trkpt lat="44.14354" lon="0.45782">
        <ele>76</ele>
        <time>2022-09-15T07:45:25.182Z</time>
      </trkpt>
      <trkpt lat="44.14355" lon="0.45782">
        <ele>76</ele>
        <time>2022-09-15T07:45:26.182Z</time>
      </trkpt>
      <trkpt lat="44.14356" lon="0.45781">
        <ele>76</ele>
        <time>2022-09-15T07:45:27.182Z</time>
      </trkpt>
      <trkpt lat="44.14357" lon="0.45781">
        <ele>76</ele>
        <time>2022-09-15T07:45:28.182Z</time>
      </trkpt>
      <trkpt lat="44.14358" lon="0.4578">
        <ele>77</ele>
        <time>2022-09-15T07:45:29.182Z</time>
      </trkpt>
      <trkpt lat="44.14359" lon="0.45779">
        <ele>77</ele>
        <time>2022-09-15T07:45:30.182Z</time>
      </trkpt>
      <trkpt lat="44.14359" lon="0.45779">
        <ele>77</ele>
        <time>2022-09-15T07:45:31.182Z</time>
      </trkpt>
      <trkpt lat="44.1436" lon="0.45778">
        <ele>77</ele>
        <time>2022-09-15T07:45:32.182Z</time>
      </trkpt>
      <trkpt lat="44.1436" lon="0.45777">
        <ele>77</ele>
        <time>2022-09-15T07:45:33.182Z</time>
      </trkpt>
      <trkpt lat="44.14361" lon="0.45777">
        <ele>77</ele>
        <time>2022-09-15T07:45:34.182Z</time>
      </trkpt>
      <trkpt lat="44.14361" lon="0.45775">
        <ele>77</ele>
        <time>2022-09-15T07:45:35.182Z</time>
      </trkpt>
      <trkpt lat="44.14361" lon="0.45774">
        <ele>77</ele>
        <time>2022-09-15T07:45:36.182Z</time>
      </trkpt>
      <trkpt lat="44.14361" lon="0.45773">
        <ele>78</ele>
        <time>2022-09-15T07:45:37.182Z</time>
      </trkpt>
      <trkpt lat="44.14361" lon="0.45772">
        <ele>78</ele>
        <time>2022-09-15T07:45:38.182Z</time>
      </trkpt>
      <trkpt lat="44.14362" lon="0.45771">
        <ele>77</ele>
        <time>2022-09-15T07:45:39.182Z</time>
      </trkpt>
      <trkpt lat="44.14362" lon="0.45769">
        <ele>78</ele>
        <time>2022-09-15T07:45:40.182Z</time>
      </trkpt>
      <trkpt lat="44.14362" lon="0.45768">
        <ele>78</ele>
        <time>2022-09-15T07:45:41.182Z</time>
      </trkpt>
      <trkpt lat="44.14362" lon="0.45767">
        <ele>78</ele>
        <time>2022-09-15T07:45:42.182Z</time>
      </trkpt>
      <trkpt lat="44.14363" lon="0.45766">
        <ele>78</ele>
        <time>2022-09-15T07:45:43.182Z</time>
      </trkpt>
      <trkpt lat="44.14363" lon="0.45765">
        <ele>78</ele>
        <time>2022-09-15T07:45:44.182Z</time>
      </trkpt>
      <trkpt lat="44.14364" lon="0.45764">
        <ele>78</ele>
        <time>2022-09-15T07:45:45.182Z</time>
      </trkpt>
      <trkpt lat="44.14364" lon="0.45763">
        <ele>79</ele>
        <time>2022-09-15T07:45:46.182Z</time>
      </trkpt>
      <trkpt lat="44.14364" lon="0.45762">
        <ele>79</ele>
        <time>2022-09-15T07:45:47.182Z</time>
      </trkpt>
      <trkpt lat="44.14365" lon="0.45761">
        <ele>79</ele>
        <time>2022-09-15T07:45:48.182Z</time>
      </trkpt>
      <trkpt lat="44.14365" lon="0.45759">
        <ele>80</ele>
        <time>2022-09-15T07:45:49.182Z</time>
      </trkpt>
      <trkpt lat="44.14365" lon="0.45758">
        <ele>80</ele>
        <time>2022-09-15T07:45:50.182Z</time>
      </trkpt>
      <trkpt lat="44.14366" lon="0.45756">
        <ele>80</ele>
        <time>2022-09-15T07:45:51.182Z</time>
      </trkpt>
      <trkpt lat="44.14366" lon="0.45755">
        <ele>81</ele>
        <time>2022-09-15T07:45:52.182Z</time>
      </trkpt>
      <trkpt lat="44.14367" lon="0.45754">
        <ele>81</ele>
        <time>2022-09-15T07:45:53.182Z</time>
      </trkpt>
      <trkpt lat="44.14368" lon="0.45753">
        <ele>81</ele>
        <time>2022-09-15T07:45:54.182Z</time>
      </trkpt>
      <trkpt lat="44.14369" lon="0.45752">
        <ele>81</ele>
        <time>2022-09-15T07:45:55.182Z</time>
      </trkpt>
      <trkpt lat="44.1437" lon="0.45752">
        <ele>81</ele>
        <time>2022-09-15T07:45:56.182Z</time>
      </trkpt>
      <trkpt lat="44.1437" lon="0.45751">
        <ele>81</ele>
        <time>2022-09-15T07:45:57.182Z</time>
      </trkpt>
      <trkpt lat="44.14371" lon="0.45751">
        <ele>81</ele>
        <time>2022-09-15T07:45:58.182Z</time>
      </trkpt>
      <trkpt lat="44.14372" lon="0.4575">
        <ele>82</ele>
        <time>2022-09-15T07:45:59.182Z</time>
      </trkpt>
      <trkpt lat="44.14373" lon="0.4575">
        <ele>82</ele>
        <time>2022-09-15T07:46:00.182Z</time>
      </trkpt>
      <trkpt lat="44.14374" lon="0.4575">
        <ele>82</ele>
        <time>2022-09-15T07:46:01.182Z</time>
      </trkpt>
      <trkpt lat="44.14375" lon="0.4575">
        <ele>82</ele>
        <time>2022-09-15T07:46:02.182Z</time>
      </trkpt>
      <trkpt lat="44.14375" lon="0.4575">
        <ele>83</ele>
        <time>2022-09-15T07:46:03.182Z</time>
      </trkpt>
      <trkpt lat="44.14376" lon="0.4575">
        <ele>82</ele>
        <time>2022-09-15T07:46:04.182Z</time>
      </trkpt>
      <trkpt lat="44.14377" lon="0.45751">
        <ele>82</ele>
        <time>2022-09-15T07:46:05.182Z</time>
      </trkpt>
      <trkpt lat="44.14378" lon="0.45751">
        <ele>82</ele>
        <time>2022-09-15T07:46:06.182Z</time>
      </trkpt>
      <trkpt lat="44.14379" lon="0.45751">
        <ele>83</ele>
        <time>2022-09-15T07:46:07.182Z</time>
      </trkpt>
      <trkpt lat="44.1438" lon="0.45751">
        <ele>83</ele>
        <time>2022-09-15T07:46:08.182Z</time>
      </trkpt>
      <trkpt lat="44.1438" lon="0.4575">
        <ele>84</ele>
        <time>2022-09-15T07:46:09.182Z</time>
      </trkpt>
      <trkpt lat="44.14381" lon="0.45751">
        <ele>84</ele>
        <time>2022-09-15T07:46:10.182Z</time>
      </trkpt>
      <trkpt lat="44.14381" lon="0.45751">
        <ele>84</ele>
        <time>2022-09-15T07:46:11.182Z</time>
      </trkpt>
      <trkpt lat="44.14382" lon="0.45751">
        <ele>84</ele>
        <time>2022-09-15T07:46:12.182Z</time>
      </trkpt>
      <trkpt lat="44.14383" lon="0.45751">
        <ele>84</ele>
        <time>2022-09-15T07:46:13.182Z</time>
      </trkpt>
      <trkpt lat="44.14384" lon="0.45752">
        <ele>85</ele>
        <time>2022-09-15T07:46:14.182Z</time>
      </trkpt>
      <trkpt lat="44.14384" lon="0.45752">
        <ele>85</ele>
        <time>2022-09-15T07:46:15.182Z</time>
      </trkpt>
      <trkpt lat="44.14385" lon="0.45753">
        <ele>85</ele>
        <time>2022-09-15T07:46:16.182Z</time>
      </trkpt>
      <trkpt lat="44.14386" lon="0.45753">
        <ele>84</ele>
        <time>2022-09-15T07:46:17.182Z</time>
      </trkpt>
      <trkpt lat="44.14387" lon="0.45754">
        <ele>83</ele>
        <time>2022-09-15T07:46:18.182Z</time>
      </trkpt>
      <trkpt lat="44.14387" lon="0.45755">
        <ele>83</ele>
        <time>2022-09-15T07:46:19.182Z</time>
      </trkpt>
      <trkpt lat="44.14388" lon="0.45756">
        <ele>83</ele>
        <time>2022-09-15T07:46:20.182Z</time>
      </trkpt>
      <trkpt lat="44.14389" lon="0.45757">
        <ele>83</ele>
        <time>2022-09-15T07:46:21.182Z</time>
      </trkpt>
      <trkpt lat="44.14389" lon="0.45758">
        <ele>83</ele>
        <time>2022-09-15T07:46:22.182Z</time>
      </trkpt>
      <trkpt lat="44.14389" lon="0.45759">
        <ele>82</ele>
        <time>2022-09-15T07:46:23.182Z</time>
      </trkpt>
      <trkpt lat="44.14389" lon="0.45759">
        <ele>82</ele>
        <time>2022-09-15T07:46:24.182Z</time>
      </trkpt>
      <trkpt lat="44.14389" lon="0.4576">
        <ele>83</ele>
        <time>2022-09-15T07:46:25.182Z</time>
      </trkpt>
      <trkpt lat="44.14389" lon="0.45762">
        <ele>84</ele>
        <time>2022-09-15T07:46:26.182Z</time>
      </trkpt>
      <trkpt lat="44.1439" lon="0.45763">
        <ele>84</ele>
        <time>2022-09-15T07:46:27.182Z</time>
      </trkpt>
      <trkpt lat="44.1439" lon="0.45764">
        <ele>85</ele>
        <time>2022-09-15T07:46:28.182Z</time>
      </trkpt>
      <trkpt lat="44.14391" lon="0.45765">
        <ele>85</ele>
        <time>2022-09-15T07:46:29.182Z</time>
      </trkpt>
      <trkpt lat="44.14391" lon="0.45766">
        <ele>85</ele>
        <time>2022-09-15T07:46:30.182Z</time>
      </trkpt>
      <trkpt lat="44.14392" lon="0.45768">
        <ele>85</ele>
        <time>2022-09-15T07:46:31.182Z</time>
      </trkpt>
      <trkpt lat="44.14392" lon="0.45769">
        <ele>86</ele>
        <time>2022-09-15T07:46:32.182Z</time>
      </trkpt>
      <trkpt lat="44.14392" lon="0.4577">
        <ele>86</ele>
        <time>2022-09-15T07:46:33.182Z</time>
      </trkpt>
      <trkpt lat="44.14393" lon="0.45771">
        <ele>87</ele>
        <time>2022-09-15T07:46:34.182Z</time>
      </trkpt>
      <trkpt lat="44.14394" lon="0.45772">
        <ele>87</ele>
        <time>2022-09-15T07:46:35.182Z</time>
      </trkpt>
      <trkpt lat="44.14395" lon="0.45773">
        <ele>87</ele>
        <time>2022-09-15T07:46:36.182Z</time>
      </trkpt>
      <trkpt lat="44.14396" lon="0.45774">
        <ele>87</ele>
        <time>2022-09-15T07:46:37.182Z</time>
      </trkpt>
      <trkpt lat="44.14397" lon="0.45775">
        <ele>88</ele>
        <time>2022-09-15T07:46:38.182Z</time>
      </trkpt>
      <trkpt lat="44.14397" lon="0.45777">
        <ele>88</ele>
        <time>2022-09-15T07:46:39.182Z</time>
      </trkpt>
      <trkpt lat="44.14398" lon="0.45778">
        <ele>88</ele>
        <time>2022-09-15T07:46:40.182Z</time>
      </trkpt>
      <trkpt lat="44.14398" lon="0.45779">
        <ele>88</ele>
        <time>2022-09-15T07:46:41.182Z</time>
      </trkpt>
      <trkpt lat="44.14399" lon="0.4578">
        <ele>89</ele>
        <time>2022-09-15T07:46:42.182Z</time>
      </trkpt>
      <trkpt lat="44.14399" lon="0.4578">
        <ele>90</ele>
        <time>2022-09-15T07:46:43.182Z</time>
      </trkpt>
      <trkpt lat="44.144" lon="0.45781">
        <ele>90</ele>
        <time>2022-09-15T07:46:44.182Z</time>
      </trkpt>
      <trkpt lat="44.144" lon="0.45782">
        <ele>90</ele>
        <time>2022-09-15T07:46:45.182Z</time>
      </trkpt>
      <trkpt lat="44.144" lon="0.45782">
        <ele>89</ele>
        <time>2022-09-15T07:46:46.182Z</time>
      </trkpt>
      <trkpt lat="44.144" lon="0.45783">
        <ele>90</ele>
        <time>2022-09-15T07:46:47.182Z</time>
      </trkpt>
      <trkpt lat="44.144" lon="0.45783">
        <ele>90</ele>
        <time>2022-09-15T07:46:48.182Z</time>
      </trkpt>
      <trkpt lat="44.144" lon="0.45783">
        <ele>89</ele>
        <time>2022-09-15T07:46:49.182Z</time>
      </trkpt>
      <trkpt lat="44.144" lon="0.45783">
        <ele>89</ele>
        <time>2022-09-15T07:46:50.182Z</time>
      </trkpt>
      <trkpt lat="44.144" lon="0.45783">
        <ele>89</ele>
        <time>2022-09-15T07:46:51.182Z</time>
      </trkpt>
      <trkpt lat="44.144" lon="0.45783">
        <ele>89</ele>
        <time>2022-09-15T07:46:52.182Z</time>
      </trkpt>
      <trkpt lat="44.14397" lon="0.45782">
        <ele>88</ele>
        <time>2022-09-15T07:47:10.077Z</time>
      </trkpt>
      <trkpt lat="44.14397" lon="0.45781">
        <ele>88</ele>
        <time>2022-09-15T07:47:11.077Z</time>
      </trkpt>
      <trkpt lat="44.14396" lon="0.45781">
        <ele>88</ele>
        <time>2022-09-15T07:47:12.077Z</time>
      </trkpt>
      <trkpt lat="44.14396" lon="0.4578">
        <ele>88</ele>
        <time>2022-09-15T07:47:13.077Z</time>
      </trkpt>
      <trkpt lat="44.14396" lon="0.4578">
        <ele>88</ele>
        <time>2022-09-15T07:47:15.077Z</time>
      </trkpt>
      <trkpt lat="44.14397" lon="0.4578">
        <ele>88</ele>
        <time>2022-09-15T07:47:16.077Z</time>
      </trkpt>
      <trkpt lat="44.14397" lon="0.4578">
        <ele>88</ele>
        <time>2022-09-15T07:47:17.077Z</time>
      </trkpt>
      <trkpt lat="44.14397" lon="0.4578">
        <ele>89</ele>
        <time>2022-09-15T07:47:18.077Z</time>
      </trkpt>
      <trkpt lat="44.14397" lon="0.4578">
        <ele>89</ele>
        <time>2022-09-15T07:47:19.077Z</time>
      </trkpt>
      <trkpt lat="44.14399" lon="0.45781">
        <ele>92</ele>
        <time>2022-09-15T07:48:07.093Z</time>
      </trkpt>
      <trkpt lat="44.144" lon="0.45781">
        <ele>91</ele>
        <time>2022-09-15T07:48:08.093Z</time>
      </trkpt>
      <trkpt lat="44.144" lon="0.45782">
        <ele>91</ele>
        <time>2022-09-15T07:48:09.093Z</time>
      </trkpt>
      <trkpt lat="44.144" lon="0.45782">
        <ele>91</ele>
        <time>2022-09-15T07:48:10.093Z</time>
      </trkpt>
      <trkpt lat="44.144" lon="0.45782">
        <ele>91</ele>
        <time>2022-09-15T07:48:11.093Z</time>
      </trkpt>
      <trkpt lat="44.144" lon="0.45782">
        <ele>92</ele>
        <time>2022-09-15T07:48:13.093Z</time>
      </trkpt>
      <trkpt lat="44.144" lon="0.45782">
        <ele>92</ele>
        <time>2022-09-15T07:48:14.093Z</time>
      </trkpt>
      <trkpt lat="44.14399" lon="0.45782">
        <ele>94</ele>
        <time>2022-09-15T07:48:15.093Z</time>
      </trkpt>
      <trkpt lat="44.14399" lon="0.45782">
        <ele>94</ele>
        <time>2022-09-15T07:48:16.093Z</time>
      </trkpt>
      <trkpt lat="44.14403" lon="0.45782">
        <ele>93</ele>
        <time>2022-09-15T07:48:42.113Z</time>
      </trkpt>
      <trkpt lat="44.14403" lon="0.45783">
        <ele>93</ele>
        <time>2022-09-15T07:48:43.113Z</time>
      </trkpt>
      <trkpt lat="44.14403" lon="0.45783">
        <ele>92</ele>
        <time>2022-09-15T07:48:44.113Z</time>
      </trkpt>
      <trkpt lat="44.14403" lon="0.45783">
        <ele>92</ele>
        <time>2022-09-15T07:48:45.113Z</time>
      </trkpt>
      <trkpt lat="44.14404" lon="0.45783">
        <ele>92</ele>
        <time>2022-09-15T07:48:46.113Z</time>
      </trkpt>
      <trkpt lat="44.14404" lon="0.45783">
        <ele>92</ele>
        <time>2022-09-15T07:48:47.113Z</time>
      </trkpt>
      <trkpt lat="44.14405" lon="0.45784">
        <ele>90</ele>
        <time>2022-09-15T07:48:48.113Z</time>
      </trkpt>
      <trkpt lat="44.14406" lon="0.45785">
        <ele>91</ele>
        <time>2022-09-15T07:48:49.113Z</time>
      </trkpt>
      <trkpt lat="44.14407" lon="0.45787">
        <ele>91</ele>
        <time>2022-09-15T07:48:50.113Z</time>
      </trkpt>
      <trkpt lat="44.14408" lon="0.45788">
        <ele>91</ele>
        <time>2022-09-15T07:48:51.113Z</time>
      </trkpt>
      <trkpt lat="44.14409" lon="0.45788">
        <ele>90</ele>
        <time>2022-09-15T07:48:52.113Z</time>
      </trkpt>
      <trkpt lat="44.1441" lon="0.45789">
        <ele>90</ele>
        <time>2022-09-15T07:48:53.113Z</time>
      </trkpt>
      <trkpt lat="44.14411" lon="0.4579">
        <ele>90</ele>
        <time>2022-09-15T07:48:54.113Z</time>
      </trkpt>
      <trkpt lat="44.14411" lon="0.45791">
        <ele>90</ele>
        <time>2022-09-15T07:48:55.113Z</time>
      </trkpt>
      <trkpt lat="44.14412" lon="0.45792">
        <ele>90</ele>
        <time>2022-09-15T07:48:56.113Z</time>
      </trkpt>
      <trkpt lat="44.14413" lon="0.45793">
        <ele>90</ele>
        <time>2022-09-15T07:48:57.113Z</time>
      </trkpt>
      <trkpt lat="44.14414" lon="0.45794">
        <ele>90</ele>
        <time>2022-09-15T07:48:58.113Z</time>
      </trkpt>
      <trkpt lat="44.14416" lon="0.45795">
        <ele>90</ele>
        <time>2022-09-15T07:48:59.113Z</time>
      </trkpt>
      <trkpt lat="44.14416" lon="0.45796">
        <ele>89</ele>
        <time>2022-09-15T07:49:00.113Z</time>
      </trkpt>
      <trkpt lat="44.14417" lon="0.45797">
        <ele>89</ele>
        <time>2022-09-15T07:49:01.113Z</time>
      </trkpt>
      <trkpt lat="44.14419" lon="0.458">
        <ele>89</ele>
        <time>2022-09-15T07:49:02.113Z</time>
      </trkpt>
      <trkpt lat="44.1442" lon="0.45801">
        <ele>90</ele>
        <time>2022-09-15T07:49:04.113Z</time>
      </trkpt>
      <trkpt lat="44.14421" lon="0.45802">
        <ele>90</ele>
        <time>2022-09-15T07:49:05.113Z</time>
      </trkpt>
      <trkpt lat="44.14422" lon="0.45804">
        <ele>90</ele>
        <time>2022-09-15T07:49:06.113Z</time>
      </trkpt>
      <trkpt lat="44.14423" lon="0.45805">
        <ele>90</ele>
        <time>2022-09-15T07:49:07.113Z</time>
      </trkpt>
      <trkpt lat="44.14424" lon="0.45806">
        <ele>90</ele>
        <time>2022-09-15T07:49:08.113Z</time>
      </trkpt>
      <trkpt lat="44.14425" lon="0.45807">
        <ele>90</ele>
        <time>2022-09-15T07:49:09.113Z</time>
      </trkpt>
      <trkpt lat="44.14427" lon="0.45808">
        <ele>89</ele>
        <time>2022-09-15T07:49:10.113Z</time>
      </trkpt>
      <trkpt lat="44.14428" lon="0.45809">
        <ele>89</ele>
        <time>2022-09-15T07:49:11.113Z</time>
      </trkpt>
      <trkpt lat="44.14429" lon="0.4581">
        <ele>90</ele>
        <time>2022-09-15T07:49:12.113Z</time>
      </trkpt>
      <trkpt lat="44.14429" lon="0.45811">
        <ele>90</ele>
        <time>2022-09-15T07:49:13.113Z</time>
      </trkpt>
      <trkpt lat="44.1443" lon="0.45811">
        <ele>90</ele>
        <time>2022-09-15T07:49:14.113Z</time>
      </trkpt>
      <trkpt lat="44.1443" lon="0.45812">
        <ele>90</ele>
        <time>2022-09-15T07:49:15.113Z</time>
      </trkpt>
      <trkpt lat="44.14431" lon="0.45812">
        <ele>89</ele>
        <time>2022-09-15T07:49:16.113Z</time>
      </trkpt>
      <trkpt lat="44.14432" lon="0.45813">
        <ele>90</ele>
        <time>2022-09-15T07:49:17.113Z</time>
      </trkpt>
      <trkpt lat="44.14432" lon="0.45814">
        <ele>89</ele>
        <time>2022-09-15T07:49:18.113Z</time>
      </trkpt>
      <trkpt lat="44.14433" lon="0.45815">
        <ele>89</ele>
        <time>2022-09-15T07:49:19.113Z</time>
      </trkpt>
      <trkpt lat="44.14433" lon="0.45816">
        <ele>89</ele>
        <time>2022-09-15T07:49:20.113Z</time>
      </trkpt>
      <trkpt lat="44.14433" lon="0.45817">
        <ele>89</ele>
        <time>2022-09-15T07:49:21.113Z</time>
      </trkpt>
      <trkpt lat="44.14434" lon="0.45818">
        <ele>89</ele>
        <time>2022-09-15T07:49:22.113Z</time>
      </trkpt>
      <trkpt lat="44.14434" lon="0.45819">
        <ele>89</ele>
        <time>2022-09-15T07:49:23.113Z</time>
      </trkpt>
      <trkpt lat="44.14435" lon="0.45821">
        <ele>89</ele>
        <time>2022-09-15T07:49:24.113Z</time>
      </trkpt>
      <trkpt lat="44.14436" lon="0.45822">
        <ele>89</ele>
        <time>2022-09-15T07:49:25.113Z</time>
      </trkpt>
      <trkpt lat="44.14436" lon="0.45823">
        <ele>89</ele>
        <time>2022-09-15T07:49:26.113Z</time>
      </trkpt>
      <trkpt lat="44.14437" lon="0.45824">
        <ele>88</ele>
        <time>2022-09-15T07:49:27.113Z</time>
      </trkpt>
      <trkpt lat="44.14438" lon="0.45825">
        <ele>88</ele>
        <time>2022-09-15T07:49:28.113Z</time>
      </trkpt>
      <trkpt lat="44.14438" lon="0.45826">
        <ele>89</ele>
        <time>2022-09-15T07:49:29.113Z</time>
      </trkpt>
      <trkpt lat="44.14439" lon="0.45827">
        <ele>89</ele>
        <time>2022-09-15T07:49:30.113Z</time>
      </trkpt>
      <trkpt lat="44.1444" lon="0.4583">
        <ele>89</ele>
        <time>2022-09-15T07:49:31.113Z</time>
      </trkpt>
      <trkpt lat="44.14441" lon="0.45831">
        <ele>89</ele>
        <time>2022-09-15T07:49:33.113Z</time>
      </trkpt>
      <trkpt lat="44.14441" lon="0.45832">
        <ele>90</ele>
        <time>2022-09-15T07:49:34.113Z</time>
      </trkpt>
      <trkpt lat="44.14444" lon="0.45835">
        <ele>90</ele>
        <time>2022-09-15T07:49:35.113Z</time>
      </trkpt>
      <trkpt lat="44.14445" lon="0.45836">
        <ele>91</ele>
        <time>2022-09-15T07:49:37.113Z</time>
      </trkpt>
      <trkpt lat="44.14446" lon="0.45837">
        <ele>91</ele>
        <time>2022-09-15T07:49:38.113Z</time>
      </trkpt>
      <trkpt lat="44.14446" lon="0.45838">
        <ele>91</ele>
        <time>2022-09-15T07:49:39.113Z</time>
      </trkpt>
      <trkpt lat="44.14447" lon="0.45839">
        <ele>91</ele>
        <time>2022-09-15T07:49:40.113Z</time>
      </trkpt>
      <trkpt lat="44.14447" lon="0.4584">
        <ele>92</ele>
        <time>2022-09-15T07:49:41.113Z</time>
      </trkpt>
      <trkpt lat="44.14448" lon="0.45842">
        <ele>93</ele>
        <time>2022-09-15T07:49:42.113Z</time>
      </trkpt>
      <trkpt lat="44.14449" lon="0.45843">
        <ele>93</ele>
        <time>2022-09-15T07:49:43.113Z</time>
      </trkpt>
      <trkpt lat="44.14449" lon="0.45845">
        <ele>93</ele>
        <time>2022-09-15T07:49:44.113Z</time>
      </trkpt>
      <trkpt lat="44.1445" lon="0.45846">
        <ele>92</ele>
        <time>2022-09-15T07:49:45.113Z</time>
      </trkpt>
      <trkpt lat="44.14451" lon="0.45847">
        <ele>92</ele>
        <time>2022-09-15T07:49:46.113Z</time>
      </trkpt>
      <trkpt lat="44.14452" lon="0.45848">
        <ele>93</ele>
        <time>2022-09-15T07:49:47.113Z</time>
      </trkpt>
      <trkpt lat="44.14453" lon="0.45849">
        <ele>93</ele>
        <time>2022-09-15T07:49:48.113Z</time>
      </trkpt>
      <trkpt lat="44.14454" lon="0.4585">
        <ele>94</ele>
        <time>2022-09-15T07:49:49.113Z</time>
      </trkpt>
      <trkpt lat="44.14455" lon="0.45851">
        <ele>94</ele>
        <time>2022-09-15T07:49:50.113Z</time>
      </trkpt>
      <trkpt lat="44.14456" lon="0.45852">
        <ele>94</ele>
        <time>2022-09-15T07:49:51.113Z</time>
      </trkpt>
      <trkpt lat="44.14456" lon="0.45854">
        <ele>94</ele>
        <time>2022-09-15T07:49:52.113Z</time>
      </trkpt>
      <trkpt lat="44.14457" lon="0.45855">
        <ele>95</ele>
        <time>2022-09-15T07:49:53.113Z</time>
      </trkpt>
      <trkpt lat="44.14458" lon="0.45856">
        <ele>95</ele>
        <time>2022-09-15T07:49:54.113Z</time>
      </trkpt>
      <trkpt lat="44.14459" lon="0.45857">
        <ele>94</ele>
        <time>2022-09-15T07:49:55.113Z</time>
      </trkpt>
      <trkpt lat="44.1446" lon="0.45858">
        <ele>94</ele>
        <time>2022-09-15T07:49:56.113Z</time>
      </trkpt>
      <trkpt lat="44.1446" lon="0.45859">
        <ele>94</ele>
        <time>2022-09-15T07:49:57.113Z</time>
      </trkpt>
      <trkpt lat="44.14461" lon="0.45859">
        <ele>94</ele>
        <time>2022-09-15T07:49:58.113Z</time>
      </trkpt>
      <trkpt lat="44.14462" lon="0.4586">
        <ele>94</ele>
        <time>2022-09-15T07:49:59.113Z</time>
      </trkpt>
      <trkpt lat="44.14463" lon="0.45863">
        <ele>94</ele>
        <time>2022-09-15T07:50:00.113Z</time>
      </trkpt>
      <trkpt lat="44.14464" lon="0.45864">
        <ele>94</ele>
        <time>2022-09-15T07:50:02.113Z</time>
      </trkpt>
      <trkpt lat="44.14464" lon="0.45865">
        <ele>94</ele>
        <time>2022-09-15T07:50:03.113Z</time>
      </trkpt>
      <trkpt lat="44.14465" lon="0.45866">
        <ele>94</ele>
        <time>2022-09-15T07:50:04.113Z</time>
      </trkpt>
      <trkpt lat="44.14466" lon="0.45867">
        <ele>94</ele>
        <time>2022-09-15T07:50:05.113Z</time>
      </trkpt>
      <trkpt lat="44.14466" lon="0.45869">
        <ele>94</ele>
        <time>2022-09-15T07:50:06.113Z</time>
      </trkpt>
      <trkpt lat="44.14466" lon="0.4587">
        <ele>94</ele>
        <time>2022-09-15T07:50:07.113Z</time>
      </trkpt>
      <trkpt lat="44.14467" lon="0.45872">
        <ele>94</ele>
        <time>2022-09-15T07:50:08.113Z</time>
      </trkpt>
      <trkpt lat="44.14468" lon="0.45874">
        <ele>94</ele>
        <time>2022-09-15T07:50:09.113Z</time>
      </trkpt>
      <trkpt lat="44.14468" lon="0.45875">
        <ele>94</ele>
        <time>2022-09-15T07:50:10.113Z</time>
      </trkpt>
      <trkpt lat="44.1447" lon="0.45878">
        <ele>94</ele>
        <time>2022-09-15T07:50:11.113Z</time>
      </trkpt>
      <trkpt lat="44.14471" lon="0.45879">
        <ele>94</ele>
        <time>2022-09-15T07:50:13.113Z</time>
      </trkpt>
      <trkpt lat="44.14471" lon="0.4588">
        <ele>94</ele>
        <time>2022-09-15T07:50:14.113Z</time>
      </trkpt>
      <trkpt lat="44.14472" lon="0.45881">
        <ele>95</ele>
        <time>2022-09-15T07:50:15.113Z</time>
      </trkpt>
      <trkpt lat="44.14473" lon="0.45882">
        <ele>95</ele>
        <time>2022-09-15T07:50:16.113Z</time>
      </trkpt>
      <trkpt lat="44.14473" lon="0.45883">
        <ele>95</ele>
        <time>2022-09-15T07:50:17.113Z</time>
      </trkpt>
      <trkpt lat="44.14473" lon="0.45885">
        <ele>95</ele>
        <time>2022-09-15T07:50:18.113Z</time>
      </trkpt>
      <trkpt lat="44.14474" lon="0.45886">
        <ele>95</ele>
        <time>2022-09-15T07:50:19.113Z</time>
      </trkpt>
      <trkpt lat="44.14475" lon="0.45888">
        <ele>95</ele>
        <time>2022-09-15T07:50:20.113Z</time>
      </trkpt>
      <trkpt lat="44.14475" lon="0.45889">
        <ele>95</ele>
        <time>2022-09-15T07:50:21.113Z</time>
      </trkpt>
      <trkpt lat="44.14476" lon="0.45891">
        <ele>95</ele>
        <time>2022-09-15T07:50:22.113Z</time>
      </trkpt>
      <trkpt lat="44.14476" lon="0.45893">
        <ele>94</ele>
        <time>2022-09-15T07:50:24.113Z</time>
      </trkpt>
      <trkpt lat="44.14476" lon="0.45894">
        <ele>94</ele>
        <time>2022-09-15T07:50:25.113Z</time>
      </trkpt>
      <trkpt lat="44.14477" lon="0.45896">
        <ele>94</ele>
        <time>2022-09-15T07:50:26.113Z</time>
      </trkpt>
      <trkpt lat="44.14477" lon="0.45897">
        <ele>95</ele>
        <time>2022-09-15T07:50:27.113Z</time>
      </trkpt>
      <trkpt lat="44.14478" lon="0.45898">
        <ele>95</ele>
        <time>2022-09-15T07:50:28.113Z</time>
      </trkpt>
      <trkpt lat="44.14479" lon="0.45901">
        <ele>95</ele>
        <time>2022-09-15T07:50:29.113Z</time>
      </trkpt>
      <trkpt lat="44.1448" lon="0.45903">
        <ele>95</ele>
        <time>2022-09-15T07:50:31.113Z</time>
      </trkpt>
      <trkpt lat="44.14481" lon="0.45905">
        <ele>96</ele>
        <time>2022-09-15T07:50:32.113Z</time>
      </trkpt>
      <trkpt lat="44.14482" lon="0.45907">
        <ele>96</ele>
        <time>2022-09-15T07:50:33.113Z</time>
      </trkpt>
      <trkpt lat="44.14483" lon="0.45908">
        <ele>96</ele>
        <time>2022-09-15T07:50:34.113Z</time>
      </trkpt>
      <trkpt lat="44.14483" lon="0.45909">
        <ele>96</ele>
        <time>2022-09-15T07:50:35.113Z</time>
      </trkpt>
      <trkpt lat="44.14484" lon="0.4591">
        <ele>96</ele>
        <time>2022-09-15T07:50:36.113Z</time>
      </trkpt>
      <trkpt lat="44.14484" lon="0.45911">
        <ele>96</ele>
        <time>2022-09-15T07:50:37.113Z</time>
      </trkpt>
      <trkpt lat="44.14485" lon="0.45912">
        <ele>95</ele>
        <time>2022-09-15T07:50:38.113Z</time>
      </trkpt>
      <trkpt lat="44.14485" lon="0.45913">
        <ele>95</ele>
        <time>2022-09-15T07:50:39.113Z</time>
      </trkpt>
      <trkpt lat="44.14486" lon="0.45914">
        <ele>95</ele>
        <time>2022-09-15T07:50:40.113Z</time>
      </trkpt>
      <trkpt lat="44.14486" lon="0.45914">
        <ele>95</ele>
        <time>2022-09-15T07:50:41.113Z</time>
      </trkpt>
      <trkpt lat="44.14487" lon="0.45915">
        <ele>95</ele>
        <time>2022-09-15T07:50:42.113Z</time>
      </trkpt>
      <trkpt lat="44.14488" lon="0.45916">
        <ele>96</ele>
        <time>2022-09-15T07:50:43.113Z</time>
      </trkpt>
      <trkpt lat="44.14489" lon="0.45917">
        <ele>96</ele>
        <time>2022-09-15T07:50:44.113Z</time>
      </trkpt>
      <trkpt lat="44.1449" lon="0.45918">
        <ele>95</ele>
        <time>2022-09-15T07:50:45.113Z</time>
      </trkpt>
      <trkpt lat="44.14491" lon="0.45919">
        <ele>95</ele>
        <time>2022-09-15T07:50:46.113Z</time>
      </trkpt>
      <trkpt lat="44.14491" lon="0.4592">
        <ele>95</ele>
        <time>2022-09-15T07:50:47.113Z</time>
      </trkpt>
      <trkpt lat="44.14492" lon="0.45922">
        <ele>95</ele>
        <time>2022-09-15T07:50:48.113Z</time>
      </trkpt>
      <trkpt lat="44.14493" lon="0.45923">
        <ele>96</ele>
        <time>2022-09-15T07:50:49.113Z</time>
      </trkpt>
      <trkpt lat="44.14493" lon="0.45924">
        <ele>95</ele>
        <time>2022-09-15T07:50:50.113Z</time>
      </trkpt>
      <trkpt lat="44.14495" lon="0.45926">
        <ele>95</ele>
        <time>2022-09-15T07:50:51.113Z</time>
      </trkpt>
      <trkpt lat="44.14495" lon="0.45927">
        <ele>95</ele>
        <time>2022-09-15T07:50:53.113Z</time>
      </trkpt>
      <trkpt lat="44.14496" lon="0.45928">
        <ele>94</ele>
        <time>2022-09-15T07:50:54.113Z</time>
      </trkpt>
      <trkpt lat="44.14497" lon="0.45929">
        <ele>95</ele>
        <time>2022-09-15T07:50:55.113Z</time>
      </trkpt>
      <trkpt lat="44.14497" lon="0.4593">
        <ele>95</ele>
        <time>2022-09-15T07:50:56.113Z</time>
      </trkpt>
      <trkpt lat="44.14498" lon="0.45931">
        <ele>95</ele>
        <time>2022-09-15T07:50:57.113Z</time>
      </trkpt>
      <trkpt lat="44.14499" lon="0.45933">
        <ele>94</ele>
        <time>2022-09-15T07:50:58.113Z</time>
      </trkpt>
      <trkpt lat="44.145" lon="0.45935">
        <ele>94</ele>
        <time>2022-09-15T07:50:59.113Z</time>
      </trkpt>
      <trkpt lat="44.14501" lon="0.45937">
        <ele>94</ele>
        <time>2022-09-15T07:51:00.113Z</time>
      </trkpt>
      <trkpt lat="44.14501" lon="0.45938">
        <ele>95</ele>
        <time>2022-09-15T07:51:01.113Z</time>
      </trkpt>
      <trkpt lat="44.14502" lon="0.4594">
        <ele>94</ele>
        <time>2022-09-15T07:51:02.113Z</time>
      </trkpt>
      <trkpt lat="44.14503" lon="0.45941">
        <ele>94</ele>
        <time>2022-09-15T07:51:03.113Z</time>
      </trkpt>
      <trkpt lat="44.14504" lon="0.45943">
        <ele>94</ele>
        <time>2022-09-15T07:51:04.113Z</time>
      </trkpt>
      <trkpt lat="44.14505" lon="0.45945">
        <ele>94</ele>
        <time>2022-09-15T07:51:05.113Z</time>
      </trkpt>
      <trkpt lat="44.14506" lon="0.45946">
        <ele>93</ele>
        <time>2022-09-15T07:51:06.113Z</time>
      </trkpt>
      <trkpt lat="44.14507" lon="0.45947">
        <ele>93</ele>
        <time>2022-09-15T07:51:07.113Z</time>
      </trkpt>
      <trkpt lat="44.14508" lon="0.45948">
        <ele>93</ele>
        <time>2022-09-15T07:51:08.113Z</time>
      </trkpt>
      <trkpt lat="44.14509" lon="0.45951">
        <ele>92</ele>
        <time>2022-09-15T07:51:09.113Z</time>
      </trkpt>
      <trkpt lat="44.1451" lon="0.45952">
        <ele>93</ele>
        <time>2022-09-15T07:51:11.113Z</time>
      </trkpt>
      <trkpt lat="44.14511" lon="0.45953">
        <ele>93</ele>
        <time>2022-09-15T07:51:12.113Z</time>
      </trkpt>
      <trkpt lat="44.14512" lon="0.45954">
        <ele>94</ele>
        <time>2022-09-15T07:51:13.113Z</time>
      </trkpt>
      <trkpt lat="44.14513" lon="0.45956">
        <ele>94</ele>
        <time>2022-09-15T07:51:14.113Z</time>
      </trkpt>
      <trkpt lat="44.14513" lon="0.45957">
        <ele>94</ele>
        <time>2022-09-15T07:51:15.113Z</time>
      </trkpt>
      <trkpt lat="44.14514" lon="0.45959">
        <ele>94</ele>
        <time>2022-09-15T07:51:16.113Z</time>
      </trkpt>
      <trkpt lat="44.14515" lon="0.4596">
        <ele>94</ele>
        <time>2022-09-15T07:51:17.113Z</time>
      </trkpt>
      <trkpt lat="44.14515" lon="0.45961">
        <ele>94</ele>
        <time>2022-09-15T07:51:18.113Z</time>
      </trkpt>
      <trkpt lat="44.14516" lon="0.45961">
        <ele>94</ele>
        <time>2022-09-15T07:51:19.113Z</time>
      </trkpt>
      <trkpt lat="44.14517" lon="0.45962">
        <ele>95</ele>
        <time>2022-09-15T07:51:20.113Z</time>
      </trkpt>
      <trkpt lat="44.14518" lon="0.45963">
        <ele>95</ele>
        <time>2022-09-15T07:51:21.113Z</time>
      </trkpt>
      <trkpt lat="44.14519" lon="0.45964">
        <ele>95</ele>
        <time>2022-09-15T07:51:23.113Z</time>
      </trkpt>
      <trkpt lat="44.1452" lon="0.45965">
        <ele>95</ele>
        <time>2022-09-15T07:51:24.113Z</time>
      </trkpt>
      <trkpt lat="44.1452" lon="0.45966">
        <ele>94</ele>
        <time>2022-09-15T07:51:25.113Z</time>
      </trkpt>
      <trkpt lat="44.14521" lon="0.45967">
        <ele>94</ele>
        <time>2022-09-15T07:51:26.113Z</time>
      </trkpt>
      <trkpt lat="44.14523" lon="0.4597">
        <ele>94</ele>
        <time>2022-09-15T07:51:27.113Z</time>
      </trkpt>
      <trkpt lat="44.14524" lon="0.45971">
        <ele>94</ele>
        <time>2022-09-15T07:51:29.113Z</time>
      </trkpt>
      <trkpt lat="44.14525" lon="0.45972">
        <ele>94</ele>
        <time>2022-09-15T07:51:30.113Z</time>
      </trkpt>
      <trkpt lat="44.14526" lon="0.45973">
        <ele>95</ele>
        <time>2022-09-15T07:51:31.113Z</time>
      </trkpt>
      <trkpt lat="44.14526" lon="0.45974">
        <ele>95</ele>
        <time>2022-09-15T07:51:32.113Z</time>
      </trkpt>
      <trkpt lat="44.14527" lon="0.45975">
        <ele>95</ele>
        <time>2022-09-15T07:51:33.113Z</time>
      </trkpt>
      <trkpt lat="44.14528" lon="0.45976">
        <ele>95</ele>
        <time>2022-09-15T07:51:34.113Z</time>
      </trkpt>
      <trkpt lat="44.14529" lon="0.45977">
        <ele>95</ele>
        <time>2022-09-15T07:51:35.113Z</time>
      </trkpt>
      <trkpt lat="44.1453" lon="0.45979">
        <ele>95</ele>
        <time>2022-09-15T07:51:36.113Z</time>
      </trkpt>
      <trkpt lat="44.14531" lon="0.4598">
        <ele>96</ele>
        <time>2022-09-15T07:51:37.113Z</time>
      </trkpt>
      <trkpt lat="44.14532" lon="0.45981">
        <ele>96</ele>
        <time>2022-09-15T07:51:38.113Z</time>
      </trkpt>
      <trkpt lat="44.14533" lon="0.45983">
        <ele>96</ele>
        <time>2022-09-15T07:51:39.113Z</time>
      </trkpt>
      <trkpt lat="44.14534" lon="0.45984">
        <ele>96</ele>
        <time>2022-09-15T07:51:41.113Z</time>
      </trkpt>
      <trkpt lat="44.14535" lon="0.45986">
        <ele>96</ele>
        <time>2022-09-15T07:51:42.113Z</time>
      </trkpt>
      <trkpt lat="44.14536" lon="0.45987">
        <ele>96</ele>
        <time>2022-09-15T07:51:43.113Z</time>
      </trkpt>
      <trkpt lat="44.14536" lon="0.45988">
        <ele>96</ele>
        <time>2022-09-15T07:51:44.113Z</time>
      </trkpt>
      <trkpt lat="44.14538" lon="0.4599">
        <ele>96</ele>
        <time>2022-09-15T07:51:45.113Z</time>
      </trkpt>
      <trkpt lat="44.14538" lon="0.45991">
        <ele>96</ele>
        <time>2022-09-15T07:51:47.113Z</time>
      </trkpt>
      <trkpt lat="44.14539" lon="0.45991">
        <ele>96</ele>
        <time>2022-09-15T07:51:48.113Z</time>
      </trkpt>
      <trkpt lat="44.1454" lon="0.45993">
        <ele>96</ele>
        <time>2022-09-15T07:51:49.113Z</time>
      </trkpt>
      <trkpt lat="44.14541" lon="0.45995">
        <ele>96</ele>
        <time>2022-09-15T07:51:51.113Z</time>
      </trkpt>
      <trkpt lat="44.14542" lon="0.45995">
        <ele>97</ele>
        <time>2022-09-15T07:51:52.113Z</time>
      </trkpt>
      <trkpt lat="44.14543" lon="0.45996">
        <ele>97</ele>
        <time>2022-09-15T07:51:53.113Z</time>
      </trkpt>
      <trkpt lat="44.14544" lon="0.45998">
        <ele>97</ele>
        <time>2022-09-15T07:51:54.113Z</time>
      </trkpt>
      <trkpt lat="44.14546" lon="0.45999">
        <ele>96</ele>
        <time>2022-09-15T07:51:55.113Z</time>
      </trkpt>
      <trkpt lat="44.14547" lon="0.46001">
        <ele>97</ele>
        <time>2022-09-15T07:51:56.113Z</time>
      </trkpt>
      <trkpt lat="44.14548" lon="0.46002">
        <ele>97</ele>
        <time>2022-09-15T07:51:57.113Z</time>
      </trkpt>
      <trkpt lat="44.14549" lon="0.46003">
        <ele>96</ele>
        <time>2022-09-15T07:51:58.113Z</time>
      </trkpt>
      <trkpt lat="44.1455" lon="0.46005">
        <ele>97</ele>
        <time>2022-09-15T07:51:59.113Z</time>
      </trkpt>
      <trkpt lat="44.14552" lon="0.46008">
        <ele>97</ele>
        <time>2022-09-15T07:52:00.113Z</time>
      </trkpt>
      <trkpt lat="44.14553" lon="0.46009">
        <ele>98</ele>
        <time>2022-09-15T07:52:02.113Z</time>
      </trkpt>
      <trkpt lat="44.14554" lon="0.4601">
        <ele>97</ele>
        <time>2022-09-15T07:52:03.113Z</time>
      </trkpt>
      <trkpt lat="44.14554" lon="0.46012">
        <ele>97</ele>
        <time>2022-09-15T07:52:04.113Z</time>
      </trkpt>
      <trkpt lat="44.14555" lon="0.46013">
        <ele>98</ele>
        <time>2022-09-15T07:52:05.113Z</time>
      </trkpt>
      <trkpt lat="44.14556" lon="0.46014">
        <ele>98</ele>
        <time>2022-09-15T07:52:06.113Z</time>
      </trkpt>
      <trkpt lat="44.14557" lon="0.46018">
        <ele>98</ele>
        <time>2022-09-15T07:52:07.113Z</time>
      </trkpt>
      <trkpt lat="44.14558" lon="0.46019">
        <ele>98</ele>
        <time>2022-09-15T07:52:09.113Z</time>
      </trkpt>
      <trkpt lat="44.14559" lon="0.4602">
        <ele>98</ele>
        <time>2022-09-15T07:52:10.113Z</time>
      </trkpt>
      <trkpt lat="44.14559" lon="0.46022">
        <ele>98</ele>
        <time>2022-09-15T07:52:11.113Z</time>
      </trkpt>
      <trkpt lat="44.1456" lon="0.46023">
        <ele>98</ele>
        <time>2022-09-15T07:52:12.113Z</time>
      </trkpt>
      <trkpt lat="44.1456" lon="0.46025">
        <ele>98</ele>
        <time>2022-09-15T07:52:13.113Z</time>
      </trkpt>
      <trkpt lat="44.14561" lon="0.46027">
        <ele>99</ele>
        <time>2022-09-15T07:52:14.113Z</time>
      </trkpt>
      <trkpt lat="44.14561" lon="0.46028">
        <ele>98</ele>
        <time>2022-09-15T07:52:15.113Z</time>
      </trkpt>
      <trkpt lat="44.14562" lon="0.4603">
        <ele>98</ele>
        <time>2022-09-15T07:52:16.113Z</time>
      </trkpt>
      <trkpt lat="44.14562" lon="0.46031">
        <ele>98</ele>
        <time>2022-09-15T07:52:17.113Z</time>
      </trkpt>
      <trkpt lat="44.14563" lon="0.46034">
        <ele>98</ele>
        <time>2022-09-15T07:52:18.113Z</time>
      </trkpt>
      <trkpt lat="44.14563" lon="0.46036">
        <ele>99</ele>
        <time>2022-09-15T07:52:20.113Z</time>
      </trkpt>
      <trkpt lat="44.14564" lon="0.46038">
        <ele>99</ele>
        <time>2022-09-15T07:52:21.113Z</time>
      </trkpt>
      <trkpt lat="44.14564" lon="0.4604">
        <ele>99</ele>
        <time>2022-09-15T07:52:22.113Z</time>
      </trkpt>
      <trkpt lat="44.14565" lon="0.46041">
        <ele>99</ele>
        <time>2022-09-15T07:52:23.113Z</time>
      </trkpt>
      <trkpt lat="44.14566" lon="0.46043">
        <ele>99</ele>
        <time>2022-09-15T07:52:24.113Z</time>
      </trkpt>
      <trkpt lat="44.14566" lon="0.46044">
        <ele>99</ele>
        <time>2022-09-15T07:52:25.113Z</time>
      </trkpt>
      <trkpt lat="44.14566" lon="0.46046">
        <ele>100</ele>
        <time>2022-09-15T07:52:26.113Z</time>
      </trkpt>
      <trkpt lat="44.14566" lon="0.46047">
        <ele>100</ele>
        <time>2022-09-15T07:52:27.113Z</time>
      </trkpt>
      <trkpt lat="44.14567" lon="0.46049">
        <ele>100</ele>
        <time>2022-09-15T07:52:28.113Z</time>
      </trkpt>
      <trkpt lat="44.14568" lon="0.46052">
        <ele>100</ele>
        <time>2022-09-15T07:52:29.113Z</time>
      </trkpt>
      <trkpt lat="44.14568" lon="0.46054">
        <ele>100</ele>
        <time>2022-09-15T07:52:31.113Z</time>
      </trkpt>
      <trkpt lat="44.14569" lon="0.46055">
        <ele>100</ele>
        <time>2022-09-15T07:52:32.113Z</time>
      </trkpt>
      <trkpt lat="44.1457" lon="0.46056">
        <ele>100</ele>
        <time>2022-09-15T07:52:33.113Z</time>
      </trkpt>
      <trkpt lat="44.1457" lon="0.46057">
        <ele>101</ele>
        <time>2022-09-15T07:52:34.113Z</time>
      </trkpt>
      <trkpt lat="44.14571" lon="0.46059">
        <ele>101</ele>
        <time>2022-09-15T07:52:35.113Z</time>
      </trkpt>
      <trkpt lat="44.14572" lon="0.46062">
        <ele>101</ele>
        <time>2022-09-15T07:52:36.113Z</time>
      </trkpt>
      <trkpt lat="44.14572" lon="0.46064">
        <ele>101</ele>
        <time>2022-09-15T07:52:38.113Z</time>
      </trkpt>
      <trkpt lat="44.14572" lon="0.46065">
        <ele>101</ele>
        <time>2022-09-15T07:52:39.113Z</time>
      </trkpt>
      <trkpt lat="44.14573" lon="0.46068">
        <ele>101</ele>
        <time>2022-09-15T07:52:40.113Z</time>
      </trkpt>
      <trkpt lat="44.14574" lon="0.4607">
        <ele>101</ele>
        <time>2022-09-15T07:52:42.113Z</time>
      </trkpt>
      <trkpt lat="44.14574" lon="0.46071">
        <ele>102</ele>
        <time>2022-09-15T07:52:43.113Z</time>
      </trkpt>
      <trkpt lat="44.14575" lon="0.46072">
        <ele>102</ele>
        <time>2022-09-15T07:52:44.113Z</time>
      </trkpt>
      <trkpt lat="44.14575" lon="0.46074">
        <ele>101</ele>
        <time>2022-09-15T07:52:45.113Z</time>
      </trkpt>
      <trkpt lat="44.14576" lon="0.46075">
        <ele>101</ele>
        <time>2022-09-15T07:52:46.113Z</time>
      </trkpt>
      <trkpt lat="44.14576" lon="0.46077">
        <ele>101</ele>
        <time>2022-09-15T07:52:47.113Z</time>
      </trkpt>
      <trkpt lat="44.14577" lon="0.46078">
        <ele>101</ele>
        <time>2022-09-15T07:52:49.113Z</time>
      </trkpt>
      <trkpt lat="44.14577" lon="0.4608">
        <ele>101</ele>
        <time>2022-09-15T07:52:50.113Z</time>
      </trkpt>
      <trkpt lat="44.14578" lon="0.46081">
        <ele>101</ele>
        <time>2022-09-15T07:52:51.113Z</time>
      </trkpt>
      <trkpt lat="44.14578" lon="0.46082">
        <ele>101</ele>
        <time>2022-09-15T07:52:52.113Z</time>
      </trkpt>
      <trkpt lat="44.14579" lon="0.46083">
        <ele>102</ele>
        <time>2022-09-15T07:52:53.113Z</time>
      </trkpt>
      <trkpt lat="44.14579" lon="0.46085">
        <ele>102</ele>
        <time>2022-09-15T07:52:54.113Z</time>
      </trkpt>
      <trkpt lat="44.1458" lon="0.46086">
        <ele>102</ele>
        <time>2022-09-15T07:52:55.113Z</time>
      </trkpt>
      <trkpt lat="44.14581" lon="0.46087">
        <ele>102</ele>
        <time>2022-09-15T07:52:56.113Z</time>
      </trkpt>
      <trkpt lat="44.14581" lon="0.46089">
        <ele>102</ele>
        <time>2022-09-15T07:52:57.113Z</time>
      </trkpt>
      <trkpt lat="44.14582" lon="0.4609">
        <ele>102</ele>
        <time>2022-09-15T07:52:58.113Z</time>
      </trkpt>
      <trkpt lat="44.14582" lon="0.46091">
        <ele>102</ele>
        <time>2022-09-15T07:52:59.113Z</time>
      </trkpt>
      <trkpt lat="44.14583" lon="0.46092">
        <ele>102</ele>
        <time>2022-09-15T07:53:00.113Z</time>
      </trkpt>
      <trkpt lat="44.14584" lon="0.46093">
        <ele>102</ele>
        <time>2022-09-15T07:53:01.113Z</time>
      </trkpt>
      <trkpt lat="44.14584" lon="0.46094">
        <ele>102</ele>
        <time>2022-09-15T07:53:02.113Z</time>
      </trkpt>
      <trkpt lat="44.14585" lon="0.46095">
        <ele>102</ele>
        <time>2022-09-15T07:53:03.113Z</time>
      </trkpt>
      <trkpt lat="44.14585" lon="0.46096">
        <ele>102</ele>
        <time>2022-09-15T07:53:04.113Z</time>
      </trkpt>
      <trkpt lat="44.14586" lon="0.46097">
        <ele>102</ele>
        <time>2022-09-15T07:53:05.113Z</time>
      </trkpt>
      <trkpt lat="44.14587" lon="0.46098">
        <ele>102</ele>
        <time>2022-09-15T07:53:06.113Z</time>
      </trkpt>
      <trkpt lat="44.14588" lon="0.46099">
        <ele>102</ele>
        <time>2022-09-15T07:53:07.113Z</time>
      </trkpt>
      <trkpt lat="44.14588" lon="0.461">
        <ele>101</ele>
        <time>2022-09-15T07:53:08.113Z</time>
      </trkpt>
      <trkpt lat="44.1459" lon="0.46101">
        <ele>101</ele>
        <time>2022-09-15T07:53:09.113Z</time>
      </trkpt>
      <trkpt lat="44.14591" lon="0.46102">
        <ele>101</ele>
        <time>2022-09-15T07:53:11.113Z</time>
      </trkpt>
      <trkpt lat="44.14592" lon="0.46103">
        <ele>100</ele>
        <time>2022-09-15T07:53:12.113Z</time>
      </trkpt>
      <trkpt lat="44.14593" lon="0.46104">
        <ele>101</ele>
        <time>2022-09-15T07:53:13.113Z</time>
      </trkpt>
      <trkpt lat="44.14594" lon="0.46105">
        <ele>101</ele>
        <time>2022-09-15T07:53:14.113Z</time>
      </trkpt>
      <trkpt lat="44.14595" lon="0.46106">
        <ele>101</ele>
        <time>2022-09-15T07:53:15.113Z</time>
      </trkpt>
      <trkpt lat="44.14597" lon="0.46107">
        <ele>100</ele>
        <time>2022-09-15T07:53:16.113Z</time>
      </trkpt>
      <trkpt lat="44.14598" lon="0.46108">
        <ele>100</ele>
        <time>2022-09-15T07:53:18.113Z</time>
      </trkpt>
      <trkpt lat="44.14599" lon="0.46109">
        <ele>100</ele>
        <time>2022-09-15T07:53:19.113Z</time>
      </trkpt>
      <trkpt lat="44.146" lon="0.46109">
        <ele>100</ele>
        <time>2022-09-15T07:53:20.113Z</time>
      </trkpt>
      <trkpt lat="44.14601" lon="0.4611">
        <ele>100</ele>
        <time>2022-09-15T07:53:21.113Z</time>
      </trkpt>
      <trkpt lat="44.14602" lon="0.4611">
        <ele>100</ele>
        <time>2022-09-15T07:53:22.113Z</time>
      </trkpt>
      <trkpt lat="44.14603" lon="0.46111">
        <ele>100</ele>
        <time>2022-09-15T07:53:23.113Z</time>
      </trkpt>
      <trkpt lat="44.14604" lon="0.46112">
        <ele>100</ele>
        <time>2022-09-15T07:53:24.113Z</time>
      </trkpt>
      <trkpt lat="44.14606" lon="0.46112">
        <ele>100</ele>
        <time>2022-09-15T07:53:25.113Z</time>
      </trkpt>
      <trkpt lat="44.14607" lon="0.46113">
        <ele>100</ele>
        <time>2022-09-15T07:53:26.113Z</time>
      </trkpt>
      <trkpt lat="44.14608" lon="0.46113">
        <ele>100</ele>
        <time>2022-09-15T07:53:27.113Z</time>
      </trkpt>
      <trkpt lat="44.14609" lon="0.46114">
        <ele>100</ele>
        <time>2022-09-15T07:53:28.113Z</time>
      </trkpt>
      <trkpt lat="44.1461" lon="0.46114">
        <ele>100</ele>
        <time>2022-09-15T07:53:29.113Z</time>
      </trkpt>
      <trkpt lat="44.14611" lon="0.46114">
        <ele>100</ele>
        <time>2022-09-15T07:53:30.113Z</time>
      </trkpt>
      <trkpt lat="44.14612" lon="0.46115">
        <ele>100</ele>
        <time>2022-09-15T07:53:31.113Z</time>
      </trkpt>
      <trkpt lat="44.14613" lon="0.46115">
        <ele>101</ele>
        <time>2022-09-15T07:53:32.113Z</time>
      </trkpt>
      <trkpt lat="44.14615" lon="0.46115">
        <ele>100</ele>
        <time>2022-09-15T07:53:33.113Z</time>
      </trkpt>
      <trkpt lat="44.14616" lon="0.46116">
        <ele>100</ele>
        <time>2022-09-15T07:53:34.113Z</time>
      </trkpt>
      <trkpt lat="44.14617" lon="0.46116">
        <ele>100</ele>
        <time>2022-09-15T07:53:35.113Z</time>
      </trkpt>
      <trkpt lat="44.14618" lon="0.46116">
        <ele>100</ele>
        <time>2022-09-15T07:53:36.113Z</time>
      </trkpt>
      <trkpt lat="44.1462" lon="0.46116">
        <ele>100</ele>
        <time>2022-09-15T07:53:37.113Z</time>
      </trkpt>
      <trkpt lat="44.14622" lon="0.46116">
        <ele>100</ele>
        <time>2022-09-15T07:53:38.113Z</time>
      </trkpt>
      <trkpt lat="44.14623" lon="0.46116">
        <ele>100</ele>
        <time>2022-09-15T07:53:40.113Z</time>
      </trkpt>
      <trkpt lat="44.14624" lon="0.46116">
        <ele>101</ele>
        <time>2022-09-15T07:53:41.113Z</time>
      </trkpt>
      <trkpt lat="44.14625" lon="0.46116">
        <ele>101</ele>
        <time>2022-09-15T07:53:42.113Z</time>
      </trkpt>
      <trkpt lat="44.14627" lon="0.46116">
        <ele>100</ele>
        <time>2022-09-15T07:53:43.113Z</time>
      </trkpt>
      <trkpt lat="44.14628" lon="0.46116">
        <ele>100</ele>
        <time>2022-09-15T07:53:44.113Z</time>
      </trkpt>
      <trkpt lat="44.1463" lon="0.46116">
        <ele>101</ele>
        <time>2022-09-15T07:53:45.113Z</time>
      </trkpt>
      <trkpt lat="44.14631" lon="0.46116">
        <ele>101</ele>
        <time>2022-09-15T07:53:47.113Z</time>
      </trkpt>
      <trkpt lat="44.14632" lon="0.46116">
        <ele>101</ele>
        <time>2022-09-15T07:53:48.113Z</time>
      </trkpt>
      <trkpt lat="44.14635" lon="0.46115">
        <ele>101</ele>
        <time>2022-09-15T07:53:49.113Z</time>
      </trkpt>
      <trkpt lat="44.14636" lon="0.46115">
        <ele>101</ele>
        <time>2022-09-15T07:53:51.113Z</time>
      </trkpt>
      <trkpt lat="44.14637" lon="0.46115">
        <ele>101</ele>
        <time>2022-09-15T07:53:52.113Z</time>
      </trkpt>
      <trkpt lat="44.14639" lon="0.46115">
        <ele>101</ele>
        <time>2022-09-15T07:53:53.113Z</time>
      </trkpt>
      <trkpt lat="44.1464" lon="0.46115">
        <ele>102</ele>
        <time>2022-09-15T07:53:54.113Z</time>
      </trkpt>
      <trkpt lat="44.14641" lon="0.46115">
        <ele>102</ele>
        <time>2022-09-15T07:53:55.113Z</time>
      </trkpt>
      <trkpt lat="44.14644" lon="0.46115">
        <ele>102</ele>
        <time>2022-09-15T07:53:56.113Z</time>
      </trkpt>
      <trkpt lat="44.14645" lon="0.46115">
        <ele>102</ele>
        <time>2022-09-15T07:53:58.113Z</time>
      </trkpt>
      <trkpt lat="44.14646" lon="0.46115">
        <ele>102</ele>
        <time>2022-09-15T07:53:59.113Z</time>
      </trkpt>
      <trkpt lat="44.14647" lon="0.46115">
        <ele>102</ele>
        <time>2022-09-15T07:54:00.113Z</time>
      </trkpt>
      <trkpt lat="44.14648" lon="0.46115">
        <ele>102</ele>
        <time>2022-09-15T07:54:01.113Z</time>
      </trkpt>
      <trkpt lat="44.1465" lon="0.46115">
        <ele>102</ele>
        <time>2022-09-15T07:54:02.113Z</time>
      </trkpt>
      <trkpt lat="44.14651" lon="0.46115">
        <ele>102</ele>
        <time>2022-09-15T07:54:03.113Z</time>
      </trkpt>
      <trkpt lat="44.14652" lon="0.46115">
        <ele>102</ele>
        <time>2022-09-15T07:54:04.113Z</time>
      </trkpt>
      <trkpt lat="44.14653" lon="0.46115">
        <ele>102</ele>
        <time>2022-09-15T07:54:05.113Z</time>
      </trkpt>
      <trkpt lat="44.14654" lon="0.46115">
        <ele>102</ele>
        <time>2022-09-15T07:54:06.113Z</time>
      </trkpt>
      <trkpt lat="44.14656" lon="0.46114">
        <ele>102</ele>
        <time>2022-09-15T07:54:07.113Z</time>
      </trkpt>
      <trkpt lat="44.14658" lon="0.46114">
        <ele>102</ele>
        <time>2022-09-15T07:54:09.113Z</time>
      </trkpt>
      <trkpt lat="44.14659" lon="0.46114">
        <ele>102</ele>
        <time>2022-09-15T07:54:10.113Z</time>
      </trkpt>
      <trkpt lat="44.1466" lon="0.46114">
        <ele>102</ele>
        <time>2022-09-15T07:54:11.113Z</time>
      </trkpt>
      <trkpt lat="44.14661" lon="0.46114">
        <ele>102</ele>
        <time>2022-09-15T07:54:12.113Z</time>
      </trkpt>
      <trkpt lat="44.14662" lon="0.46114">
        <ele>102</ele>
        <time>2022-09-15T07:54:13.113Z</time>
      </trkpt>
      <trkpt lat="44.14663" lon="0.46113">
        <ele>102</ele>
        <time>2022-09-15T07:54:14.113Z</time>
      </trkpt>
      <trkpt lat="44.14664" lon="0.46113">
        <ele>102</ele>
        <time>2022-09-15T07:54:15.113Z</time>
      </trkpt>
      <trkpt lat="44.14665" lon="0.46113">
        <ele>103</ele>
        <time>2022-09-15T07:54:16.113Z</time>
      </trkpt>
      <trkpt lat="44.14667" lon="0.46113">
        <ele>103</ele>
        <time>2022-09-15T07:54:17.113Z</time>
      </trkpt>
      <trkpt lat="44.14669" lon="0.46112">
        <ele>103</ele>
        <time>2022-09-15T07:54:18.113Z</time>
      </trkpt>
      <trkpt lat="44.1467" lon="0.46112">
        <ele>104</ele>
        <time>2022-09-15T07:54:20.113Z</time>
      </trkpt>
      <trkpt lat="44.14671" lon="0.46112">
        <ele>103</ele>
        <time>2022-09-15T07:54:21.113Z</time>
      </trkpt>
      <trkpt lat="44.14672" lon="0.46111">
        <ele>103</ele>
        <time>2022-09-15T07:54:22.113Z</time>
      </trkpt>
      <trkpt lat="44.14673" lon="0.46111">
        <ele>104</ele>
        <time>2022-09-15T07:54:23.113Z</time>
      </trkpt>
      <trkpt lat="44.14674" lon="0.46111">
        <ele>104</ele>
        <time>2022-09-15T07:54:24.113Z</time>
      </trkpt>
      <trkpt lat="44.14676" lon="0.4611">
        <ele>104</ele>
        <time>2022-09-15T07:54:25.113Z</time>
      </trkpt>
      <trkpt lat="44.14677" lon="0.4611">
        <ele>104</ele>
        <time>2022-09-15T07:54:27.113Z</time>
      </trkpt>
      <trkpt lat="44.14678" lon="0.4611">
        <ele>104</ele>
        <time>2022-09-15T07:54:28.113Z</time>
      </trkpt>
      <trkpt lat="44.14679" lon="0.4611">
        <ele>105</ele>
        <time>2022-09-15T07:54:29.113Z</time>
      </trkpt>
      <trkpt lat="44.1468" lon="0.4611">
        <ele>105</ele>
        <time>2022-09-15T07:54:30.113Z</time>
      </trkpt>
      <trkpt lat="44.14681" lon="0.4611">
        <ele>105</ele>
        <time>2022-09-15T07:54:31.113Z</time>
      </trkpt>
      <trkpt lat="44.14683" lon="0.46109">
        <ele>105</ele>
        <time>2022-09-15T07:54:32.113Z</time>
      </trkpt>
      <trkpt lat="44.14684" lon="0.46109">
        <ele>105</ele>
        <time>2022-09-15T07:54:33.113Z</time>
      </trkpt>
      <trkpt lat="44.14685" lon="0.46109">
        <ele>105</ele>
        <time>2022-09-15T07:54:34.113Z</time>
      </trkpt>
      <trkpt lat="44.14686" lon="0.46109">
        <ele>105</ele>
        <time>2022-09-15T07:54:35.113Z</time>
      </trkpt>
      <trkpt lat="44.14688" lon="0.46109">
        <ele>106</ele>
        <time>2022-09-15T07:54:36.113Z</time>
      </trkpt>
      <trkpt lat="44.14689" lon="0.46108">
        <ele>106</ele>
        <time>2022-09-15T07:54:38.113Z</time>
      </trkpt>
      <trkpt lat="44.1469" lon="0.46108">
        <ele>105</ele>
        <time>2022-09-15T07:54:39.113Z</time>
      </trkpt>
      <trkpt lat="44.14691" lon="0.46108">
        <ele>106</ele>
        <time>2022-09-15T07:54:40.113Z</time>
      </trkpt>
      <trkpt lat="44.14692" lon="0.46108">
        <ele>106</ele>
        <time>2022-09-15T07:54:41.113Z</time>
      </trkpt>
      <trkpt lat="44.14693" lon="0.46108">
        <ele>106</ele>
        <time>2022-09-15T07:54:42.113Z</time>
      </trkpt>
      <trkpt lat="44.14694" lon="0.46107">
        <ele>106</ele>
        <time>2022-09-15T07:54:43.113Z</time>
      </trkpt>
      <trkpt lat="44.14695" lon="0.46107">
        <ele>106</ele>
        <time>2022-09-15T07:54:44.113Z</time>
      </trkpt>
      <trkpt lat="44.14696" lon="0.46107">
        <ele>107</ele>
        <time>2022-09-15T07:54:45.113Z</time>
      </trkpt>
      <trkpt lat="44.14697" lon="0.46107">
        <ele>107</ele>
        <time>2022-09-15T07:54:46.113Z</time>
      </trkpt>
      <trkpt lat="44.14698" lon="0.46107">
        <ele>107</ele>
        <time>2022-09-15T07:54:47.113Z</time>
      </trkpt>
      <trkpt lat="44.14699" lon="0.46107">
        <ele>107</ele>
        <time>2022-09-15T07:54:48.113Z</time>
      </trkpt>
      <trkpt lat="44.147" lon="0.46106">
        <ele>108</ele>
        <time>2022-09-15T07:54:49.113Z</time>
      </trkpt>
      <trkpt lat="44.14701" lon="0.46106">
        <ele>108</ele>
        <time>2022-09-15T07:54:50.113Z</time>
      </trkpt>
      <trkpt lat="44.14702" lon="0.46106">
        <ele>108</ele>
        <time>2022-09-15T07:54:51.113Z</time>
      </trkpt>
      <trkpt lat="44.14703" lon="0.46106">
        <ele>108</ele>
        <time>2022-09-15T07:54:52.113Z</time>
      </trkpt>
      <trkpt lat="44.14705" lon="0.46105">
        <ele>108</ele>
        <time>2022-09-15T07:54:53.113Z</time>
      </trkpt>
      <trkpt lat="44.14707" lon="0.46105">
        <ele>109</ele>
        <time>2022-09-15T07:54:54.113Z</time>
      </trkpt>
      <trkpt lat="44.14708" lon="0.46105">
        <ele>109</ele>
        <time>2022-09-15T07:54:56.113Z</time>
      </trkpt>
      <trkpt lat="44.14709" lon="0.46105">
        <ele>109</ele>
        <time>2022-09-15T07:54:57.113Z</time>
      </trkpt>
      <trkpt lat="44.1471" lon="0.46105">
        <ele>109</ele>
        <time>2022-09-15T07:54:58.113Z</time>
      </trkpt>
      <trkpt lat="44.14711" lon="0.46104">
        <ele>109</ele>
        <time>2022-09-15T07:54:59.113Z</time>
      </trkpt>
      <trkpt lat="44.14712" lon="0.46104">
        <ele>109</ele>
        <time>2022-09-15T07:55:00.113Z</time>
      </trkpt>
      <trkpt lat="44.14713" lon="0.46104">
        <ele>109</ele>
        <time>2022-09-15T07:55:01.113Z</time>
      </trkpt>
      <trkpt lat="44.14714" lon="0.46104">
        <ele>109</ele>
        <time>2022-09-15T07:55:02.113Z</time>
      </trkpt>
      <trkpt lat="44.14715" lon="0.46104">
        <ele>109</ele>
        <time>2022-09-15T07:55:03.113Z</time>
      </trkpt>
      <trkpt lat="44.14716" lon="0.46104">
        <ele>109</ele>
        <time>2022-09-15T07:55:04.113Z</time>
      </trkpt>
      <trkpt lat="44.14718" lon="0.46103">
        <ele>110</ele>
        <time>2022-09-15T07:55:05.113Z</time>
      </trkpt>
      <trkpt lat="44.14719" lon="0.46103">
        <ele>110</ele>
        <time>2022-09-15T07:55:07.113Z</time>
      </trkpt>
      <trkpt lat="44.1472" lon="0.46103">
        <ele>111</ele>
        <time>2022-09-15T07:55:08.113Z</time>
      </trkpt>
      <trkpt lat="44.14721" lon="0.46103">
        <ele>110</ele>
        <time>2022-09-15T07:55:09.113Z</time>
      </trkpt>
      <trkpt lat="44.14722" lon="0.46102">
        <ele>111</ele>
        <time>2022-09-15T07:55:10.113Z</time>
      </trkpt>
      <trkpt lat="44.14723" lon="0.46102">
        <ele>110</ele>
        <time>2022-09-15T07:55:11.113Z</time>
      </trkpt>
      <trkpt lat="44.14724" lon="0.46102">
        <ele>110</ele>
        <time>2022-09-15T07:55:12.113Z</time>
      </trkpt>
      <trkpt lat="44.14726" lon="0.46102">
        <ele>110</ele>
        <time>2022-09-15T07:55:13.113Z</time>
      </trkpt>
      <trkpt lat="44.14727" lon="0.46102">
        <ele>109</ele>
        <time>2022-09-15T07:55:14.113Z</time>
      </trkpt>
      <trkpt lat="44.14728" lon="0.46102">
        <ele>109</ele>
        <time>2022-09-15T07:55:15.113Z</time>
      </trkpt>
      <trkpt lat="44.1473" lon="0.46102">
        <ele>109</ele>
        <time>2022-09-15T07:55:16.113Z</time>
      </trkpt>
      <trkpt lat="44.14731" lon="0.46102">
        <ele>109</ele>
        <time>2022-09-15T07:55:18.113Z</time>
      </trkpt>
      <trkpt lat="44.14732" lon="0.46102">
        <ele>109</ele>
        <time>2022-09-15T07:55:19.113Z</time>
      </trkpt>
      <trkpt lat="44.14734" lon="0.46102">
        <ele>109</ele>
        <time>2022-09-15T07:55:20.113Z</time>
      </trkpt>
      <trkpt lat="44.14735" lon="0.46102">
        <ele>109</ele>
        <time>2022-09-15T07:55:21.113Z</time>
      </trkpt>
      <trkpt lat="44.14736" lon="0.46102">
        <ele>109</ele>
        <time>2022-09-15T07:55:22.113Z</time>
      </trkpt>
      <trkpt lat="44.14737" lon="0.46102">
        <ele>109</ele>
        <time>2022-09-15T07:55:23.113Z</time>
      </trkpt>
      <trkpt lat="44.14738" lon="0.46101">
        <ele>109</ele>
        <time>2022-09-15T07:55:24.113Z</time>
      </trkpt>
      <trkpt lat="44.14739" lon="0.46101">
        <ele>110</ele>
        <time>2022-09-15T07:55:25.113Z</time>
      </trkpt>
      <trkpt lat="44.14741" lon="0.46101">
        <ele>110</ele>
        <time>2022-09-15T07:55:26.113Z</time>
      </trkpt>
      <trkpt lat="44.14743" lon="0.46101">
        <ele>110</ele>
        <time>2022-09-15T07:55:27.113Z</time>
      </trkpt>
      <trkpt lat="44.14744" lon="0.46101">
        <ele>110</ele>
        <time>2022-09-15T07:55:29.113Z</time>
      </trkpt>
      <trkpt lat="44.14745" lon="0.46101">
        <ele>110</ele>
        <time>2022-09-15T07:55:30.113Z</time>
      </trkpt>
      <trkpt lat="44.14747" lon="0.46101">
        <ele>110</ele>
        <time>2022-09-15T07:55:31.113Z</time>
      </trkpt>
      <trkpt lat="44.14748" lon="0.46101">
        <ele>110</ele>
        <time>2022-09-15T07:55:32.113Z</time>
      </trkpt>
      <trkpt lat="44.14749" lon="0.46101">
        <ele>110</ele>
        <time>2022-09-15T07:55:33.113Z</time>
      </trkpt>
      <trkpt lat="44.14752" lon="0.46101">
        <ele>110</ele>
        <time>2022-09-15T07:55:34.113Z</time>
      </trkpt>
      <trkpt lat="44.14753" lon="0.46101">
        <ele>110</ele>
        <time>2022-09-15T07:55:36.113Z</time>
      </trkpt>
      <trkpt lat="44.14754" lon="0.46101">
        <ele>110</ele>
        <time>2022-09-15T07:55:37.113Z</time>
      </trkpt>
      <trkpt lat="44.14755" lon="0.46101">
        <ele>110</ele>
        <time>2022-09-15T07:55:38.113Z</time>
      </trkpt>
      <trkpt lat="44.14756" lon="0.46101">
        <ele>110</ele>
        <time>2022-09-15T07:55:39.113Z</time>
      </trkpt>
      <trkpt lat="44.14757" lon="0.46101">
        <ele>110</ele>
        <time>2022-09-15T07:55:40.113Z</time>
      </trkpt>
      <trkpt lat="44.14759" lon="0.46101">
        <ele>110</ele>
        <time>2022-09-15T07:55:41.113Z</time>
      </trkpt>
      <trkpt lat="44.1476" lon="0.46101">
        <ele>110</ele>
        <time>2022-09-15T07:55:42.113Z</time>
      </trkpt>
      <trkpt lat="44.14761" lon="0.46101">
        <ele>110</ele>
        <time>2022-09-15T07:55:43.113Z</time>
      </trkpt>
      <trkpt lat="44.14762" lon="0.46101">
        <ele>110</ele>
        <time>2022-09-15T07:55:44.113Z</time>
      </trkpt>
      <trkpt lat="44.14765" lon="0.46102">
        <ele>111</ele>
        <time>2022-09-15T07:55:45.113Z</time>
      </trkpt>
      <trkpt lat="44.14766" lon="0.46102">
        <ele>111</ele>
        <time>2022-09-15T07:55:47.113Z</time>
      </trkpt>
      <trkpt lat="44.14767" lon="0.46102">
        <ele>111</ele>
        <time>2022-09-15T07:55:48.113Z</time>
      </trkpt>
      <trkpt lat="44.14768" lon="0.46102">
        <ele>111</ele>
        <time>2022-09-15T07:55:49.113Z</time>
      </trkpt>
      <trkpt lat="44.14769" lon="0.46102">
        <ele>111</ele>
        <time>2022-09-15T07:55:50.113Z</time>
      </trkpt>
      <trkpt lat="44.14771" lon="0.46102">
        <ele>111</ele>
        <time>2022-09-15T07:55:51.113Z</time>
      </trkpt>
      <trkpt lat="44.14772" lon="0.46102">
        <ele>111</ele>
        <time>2022-09-15T07:55:52.113Z</time>
      </trkpt>
      <trkpt lat="44.14773" lon="0.46102">
        <ele>111</ele>
        <time>2022-09-15T07:55:53.113Z</time>
      </trkpt>
      <trkpt lat="44.14774" lon="0.46103">
        <ele>111</ele>
        <time>2022-09-15T07:55:54.113Z</time>
      </trkpt>
      <trkpt lat="44.14775" lon="0.46103">
        <ele>112</ele>
        <time>2022-09-15T07:55:55.113Z</time>
      </trkpt>
      <trkpt lat="44.14778" lon="0.46104">
        <ele>112</ele>
        <time>2022-09-15T07:55:56.113Z</time>
      </trkpt>
      <trkpt lat="44.14779" lon="0.46104">
        <ele>112</ele>
        <time>2022-09-15T07:55:58.113Z</time>
      </trkpt>
      <trkpt lat="44.1478" lon="0.46104">
        <ele>112</ele>
        <time>2022-09-15T07:55:59.113Z</time>
      </trkpt>
      <trkpt lat="44.14781" lon="0.46104">
        <ele>112</ele>
        <time>2022-09-15T07:56:00.113Z</time>
      </trkpt>
      <trkpt lat="44.14782" lon="0.46104">
        <ele>112</ele>
        <time>2022-09-15T07:56:01.113Z</time>
      </trkpt>
      <trkpt lat="44.14784" lon="0.46105">
        <ele>113</ele>
        <time>2022-09-15T07:56:02.113Z</time>
      </trkpt>
      <trkpt lat="44.14786" lon="0.46105">
        <ele>113</ele>
        <time>2022-09-15T07:56:03.113Z</time>
      </trkpt>
      <trkpt lat="44.14787" lon="0.46105">
        <ele>113</ele>
        <time>2022-09-15T07:56:05.113Z</time>
      </trkpt>
      <trkpt lat="44.14788" lon="0.46105">
        <ele>112</ele>
        <time>2022-09-15T07:56:06.113Z</time>
      </trkpt>
      <trkpt lat="44.1479" lon="0.46105">
        <ele>113</ele>
        <time>2022-09-15T07:56:07.113Z</time>
      </trkpt>
      <trkpt lat="44.14791" lon="0.46106">
        <ele>113</ele>
        <time>2022-09-15T07:56:09.113Z</time>
      </trkpt>
      <trkpt lat="44.14792" lon="0.46106">
        <ele>113</ele>
        <time>2022-09-15T07:56:10.113Z</time>
      </trkpt>
      <trkpt lat="44.14793" lon="0.46106">
        <ele>113</ele>
        <time>2022-09-15T07:56:11.113Z</time>
      </trkpt>
      <trkpt lat="44.14794" lon="0.46106">
        <ele>113</ele>
        <time>2022-09-15T07:56:12.113Z</time>
      </trkpt>
      <trkpt lat="44.14796" lon="0.46106">
        <ele>113</ele>
        <time>2022-09-15T07:56:13.113Z</time>
      </trkpt>
      <trkpt lat="44.14798" lon="0.46107">
        <ele>114</ele>
        <time>2022-09-15T07:56:14.113Z</time>
      </trkpt>
      <trkpt lat="44.14799" lon="0.46107">
        <ele>114</ele>
        <time>2022-09-15T07:56:16.113Z</time>
      </trkpt>
      <trkpt lat="44.148" lon="0.46108">
        <ele>114</ele>
        <time>2022-09-15T07:56:17.113Z</time>
      </trkpt>
      <trkpt lat="44.14802" lon="0.46108">
        <ele>114</ele>
        <time>2022-09-15T07:56:18.113Z</time>
      </trkpt>
      <trkpt lat="44.14804" lon="0.46109">
        <ele>114</ele>
        <time>2022-09-15T07:56:19.113Z</time>
      </trkpt>
      <trkpt lat="44.14806" lon="0.46109">
        <ele>114</ele>
        <time>2022-09-15T07:56:21.113Z</time>
      </trkpt>
      <trkpt lat="44.14807" lon="0.46109">
        <ele>114</ele>
        <time>2022-09-15T07:56:22.113Z</time>
      </trkpt>
      <trkpt lat="44.14808" lon="0.46109">
        <ele>115</ele>
        <time>2022-09-15T07:56:23.113Z</time>
      </trkpt>
      <trkpt lat="44.14809" lon="0.4611">
        <ele>115</ele>
        <time>2022-09-15T07:56:24.113Z</time>
      </trkpt>
      <trkpt lat="44.14812" lon="0.4611">
        <ele>115</ele>
        <time>2022-09-15T07:56:25.113Z</time>
      </trkpt>
      <trkpt lat="44.14813" lon="0.4611">
        <ele>115</ele>
        <time>2022-09-15T07:56:27.113Z</time>
      </trkpt>
      <trkpt lat="44.14814" lon="0.4611">
        <ele>115</ele>
        <time>2022-09-15T07:56:28.113Z</time>
      </trkpt>
      <trkpt lat="44.14815" lon="0.4611">
        <ele>115</ele>
        <time>2022-09-15T07:56:29.113Z</time>
      </trkpt>
      <trkpt lat="44.14816" lon="0.4611">
        <ele>115</ele>
        <time>2022-09-15T07:56:30.113Z</time>
      </trkpt>
      <trkpt lat="44.14817" lon="0.4611">
        <ele>115</ele>
        <time>2022-09-15T07:56:31.113Z</time>
      </trkpt>
      <trkpt lat="44.14819" lon="0.4611">
        <ele>116</ele>
        <time>2022-09-15T07:56:32.113Z</time>
      </trkpt>
      <trkpt lat="44.1482" lon="0.46111">
        <ele>115</ele>
        <time>2022-09-15T07:56:33.113Z</time>
      </trkpt>
      <trkpt lat="44.14822" lon="0.46111">
        <ele>116</ele>
        <time>2022-09-15T07:56:34.113Z</time>
      </trkpt>
      <trkpt lat="44.14824" lon="0.46111">
        <ele>116</ele>
        <time>2022-09-15T07:56:36.113Z</time>
      </trkpt>
      <trkpt lat="44.14826" lon="0.46111">
        <ele>116</ele>
        <time>2022-09-15T07:56:38.113Z</time>
      </trkpt>
      <trkpt lat="44.14827" lon="0.46112">
        <ele>116</ele>
        <time>2022-09-15T07:56:39.113Z</time>
      </trkpt>
      <trkpt lat="44.14828" lon="0.46112">
        <ele>116</ele>
        <time>2022-09-15T07:56:40.113Z</time>
      </trkpt>
      <trkpt lat="44.1483" lon="0.46112">
        <ele>117</ele>
        <time>2022-09-15T07:56:41.113Z</time>
      </trkpt>
      <trkpt lat="44.14833" lon="0.46112">
        <ele>117</ele>
        <time>2022-09-15T07:56:43.113Z</time>
      </trkpt>
      <trkpt lat="44.14834" lon="0.46112">
        <ele>117</ele>
        <time>2022-09-15T07:56:45.113Z</time>
      </trkpt>
      <trkpt lat="44.14835" lon="0.46113">
        <ele>117</ele>
        <time>2022-09-15T07:56:46.113Z</time>
      </trkpt>
      <trkpt lat="44.14836" lon="0.46113">
        <ele>116</ele>
        <time>2022-09-15T07:56:47.113Z</time>
      </trkpt>
      <trkpt lat="44.14837" lon="0.46113">
        <ele>117</ele>
        <time>2022-09-15T07:56:48.113Z</time>
      </trkpt>
      <trkpt lat="44.14839" lon="0.46113">
        <ele>117</ele>
        <time>2022-09-15T07:56:49.113Z</time>
      </trkpt>
      <trkpt lat="44.1484" lon="0.46113">
        <ele>117</ele>
        <time>2022-09-15T07:56:51.113Z</time>
      </trkpt>
      <trkpt lat="44.14841" lon="0.46114">
        <ele>117</ele>
        <time>2022-09-15T07:56:52.113Z</time>
      </trkpt>
      <trkpt lat="44.14843" lon="0.46114">
        <ele>118</ele>
        <time>2022-09-15T07:56:53.113Z</time>
      </trkpt>
      <trkpt lat="44.14844" lon="0.46114">
        <ele>118</ele>
        <time>2022-09-15T07:56:54.113Z</time>
      </trkpt>
      <trkpt lat="44.14846" lon="0.46113">
        <ele>118</ele>
        <time>2022-09-15T07:56:55.113Z</time>
      </trkpt>
      <trkpt lat="44.14847" lon="0.46112">
        <ele>118</ele>
        <time>2022-09-15T07:56:57.113Z</time>
      </trkpt>
      <trkpt lat="44.14848" lon="0.46112">
        <ele>118</ele>
        <time>2022-09-15T07:56:58.113Z</time>
      </trkpt>
      <trkpt lat="44.14849" lon="0.46111">
        <ele>118</ele>
        <time>2022-09-15T07:56:59.113Z</time>
      </trkpt>
      <trkpt lat="44.1485" lon="0.46111">
        <ele>118</ele>
        <time>2022-09-15T07:57:00.113Z</time>
      </trkpt>
      <trkpt lat="44.14852" lon="0.46112">
        <ele>117</ele>
        <time>2022-09-15T07:57:01.113Z</time>
      </trkpt>
      <trkpt lat="44.14854" lon="0.46113">
        <ele>117</ele>
        <time>2022-09-15T07:57:03.113Z</time>
      </trkpt>
      <trkpt lat="44.14856" lon="0.46114">
        <ele>117</ele>
        <time>2022-09-15T07:57:05.113Z</time>
      </trkpt>
      <trkpt lat="44.14858" lon="0.46115">
        <ele>118</ele>
        <time>2022-09-15T07:57:07.113Z</time>
      </trkpt>
      <trkpt lat="44.14859" lon="0.46116">
        <ele>118</ele>
        <time>2022-09-15T07:57:09.113Z</time>
      </trkpt>
      <trkpt lat="44.1486" lon="0.46116">
        <ele>118</ele>
        <time>2022-09-15T07:57:11.113Z</time>
      </trkpt>
      <trkpt lat="44.14862" lon="0.46117">
        <ele>118</ele>
        <time>2022-09-15T07:57:12.113Z</time>
      </trkpt>
      <trkpt lat="44.14863" lon="0.46117">
        <ele>119</ele>
        <time>2022-09-15T07:57:14.113Z</time>
      </trkpt>
      <trkpt lat="44.14865" lon="0.46117">
        <ele>118</ele>
        <time>2022-09-15T07:57:15.113Z</time>
      </trkpt>
      <trkpt lat="44.14866" lon="0.46117">
        <ele>119</ele>
        <time>2022-09-15T07:57:17.113Z</time>
      </trkpt>
      <trkpt lat="44.14869" lon="0.46117">
        <ele>119</ele>
        <time>2022-09-15T07:57:18.113Z</time>
      </trkpt>
      <trkpt lat="44.1487" lon="0.46117">
        <ele>119</ele>
        <time>2022-09-15T07:57:19.113Z</time>
      </trkpt>
      <trkpt lat="44.14871" lon="0.46116">
        <ele>119</ele>
        <time>2022-09-15T07:57:21.113Z</time>
      </trkpt>
      <trkpt lat="44.14872" lon="0.46116">
        <ele>119</ele>
        <time>2022-09-15T07:57:22.113Z</time>
      </trkpt>
      <trkpt lat="44.14872" lon="0.46115">
        <ele>118</ele>
        <time>2022-09-15T07:57:23.113Z</time>
      </trkpt>
      <trkpt lat="44.14872" lon="0.46114">
        <ele>118</ele>
        <time>2022-09-15T07:57:24.113Z</time>
      </trkpt>
      <trkpt lat="44.14872" lon="0.46112">
        <ele>118</ele>
        <time>2022-09-15T07:57:25.113Z</time>
      </trkpt>
      <trkpt lat="44.14872" lon="0.46111">
        <ele>118</ele>
        <time>2022-09-15T07:57:26.113Z</time>
      </trkpt>
      <trkpt lat="44.14872" lon="0.46108">
        <ele>118</ele>
        <time>2022-09-15T07:57:27.113Z</time>
      </trkpt>
      <trkpt lat="44.14871" lon="0.46107">
        <ele>118</ele>
        <time>2022-09-15T07:57:29.113Z</time>
      </trkpt>
      <trkpt lat="44.14871" lon="0.46103">
        <ele>118</ele>
        <time>2022-09-15T07:57:30.113Z</time>
      </trkpt>
      <trkpt lat="44.14871" lon="0.46101">
        <ele>119</ele>
        <time>2022-09-15T07:57:32.113Z</time>
      </trkpt>
      <trkpt lat="44.1487" lon="0.46097">
        <ele>119</ele>
        <time>2022-09-15T07:57:34.113Z</time>
      </trkpt>
      <trkpt lat="44.1487" lon="0.46096">
        <ele>119</ele>
        <time>2022-09-15T07:57:35.113Z</time>
      </trkpt>
      <trkpt lat="44.14869" lon="0.46093">
        <ele>119</ele>
        <time>2022-09-15T07:57:37.113Z</time>
      </trkpt>
      <trkpt lat="44.14869" lon="0.46091">
        <ele>119</ele>
        <time>2022-09-15T07:57:38.113Z</time>
      </trkpt>
      <trkpt lat="44.14868" lon="0.4609">
        <ele>119</ele>
        <time>2022-09-15T07:57:39.113Z</time>
      </trkpt>
      <trkpt lat="44.14867" lon="0.46087">
        <ele>119</ele>
        <time>2022-09-15T07:57:41.113Z</time>
      </trkpt>
      <trkpt lat="44.14867" lon="0.46084">
        <ele>119</ele>
        <time>2022-09-15T07:57:43.113Z</time>
      </trkpt>
      <trkpt lat="44.14866" lon="0.46081">
        <ele>119</ele>
        <time>2022-09-15T07:57:45.113Z</time>
      </trkpt>
      <trkpt lat="44.14865" lon="0.46079">
        <ele>119</ele>
        <time>2022-09-15T07:57:47.113Z</time>
      </trkpt>
      <trkpt lat="44.14865" lon="0.46078">
        <ele>119</ele>
        <time>2022-09-15T07:57:48.113Z</time>
      </trkpt>
      <trkpt lat="44.14865" lon="0.46077">
        <ele>119</ele>
        <time>2022-09-15T07:57:49.113Z</time>
      </trkpt>
      <trkpt lat="44.14865" lon="0.46075">
        <ele>119</ele>
        <time>2022-09-15T07:57:50.113Z</time>
      </trkpt>
      <trkpt lat="44.14864" lon="0.46074">
        <ele>119</ele>
        <time>2022-09-15T07:57:51.113Z</time>
      </trkpt>
      <trkpt lat="44.14864" lon="0.46072">
        <ele>119</ele>
        <time>2022-09-15T07:57:52.113Z</time>
      </trkpt>
      <trkpt lat="44.14864" lon="0.46071">
        <ele>119</ele>
        <time>2022-09-15T07:57:53.113Z</time>
      </trkpt>
      <trkpt lat="44.14863" lon="0.46069">
        <ele>119</ele>
        <time>2022-09-15T07:57:54.113Z</time>
      </trkpt>
      <trkpt lat="44.14863" lon="0.46067">
        <ele>119</ele>
        <time>2022-09-15T07:57:55.113Z</time>
      </trkpt>
      <trkpt lat="44.14862" lon="0.46065">
        <ele>119</ele>
        <time>2022-09-15T07:57:56.113Z</time>
      </trkpt>
      <trkpt lat="44.14862" lon="0.46064">
        <ele>119</ele>
        <time>2022-09-15T07:57:58.113Z</time>
      </trkpt>
      <trkpt lat="44.14862" lon="0.46063">
        <ele>119</ele>
        <time>2022-09-15T07:57:59.113Z</time>
      </trkpt>
      <trkpt lat="44.14861" lon="0.46062">
        <ele>119</ele>
        <time>2022-09-15T07:58:00.113Z</time>
      </trkpt>
      <trkpt lat="44.14861" lon="0.4606">
        <ele>119</ele>
        <time>2022-09-15T07:58:01.113Z</time>
      </trkpt>
      <trkpt lat="44.14861" lon="0.46059">
        <ele>119</ele>
        <time>2022-09-15T07:58:02.113Z</time>
      </trkpt>
      <trkpt lat="44.1486" lon="0.46058">
        <ele>120</ele>
        <time>2022-09-15T07:58:03.113Z</time>
      </trkpt>
      <trkpt lat="44.1486" lon="0.46057">
        <ele>120</ele>
        <time>2022-09-15T07:58:04.113Z</time>
      </trkpt>
      <trkpt lat="44.14859" lon="0.46056">
        <ele>120</ele>
        <time>2022-09-15T07:58:05.113Z</time>
      </trkpt>
      <trkpt lat="44.14859" lon="0.46054">
        <ele>120</ele>
        <time>2022-09-15T07:58:06.113Z</time>
      </trkpt>
      <trkpt lat="44.14858" lon="0.46053">
        <ele>120</ele>
        <time>2022-09-15T07:58:07.113Z</time>
      </trkpt>
      <trkpt lat="44.14858" lon="0.46052">
        <ele>120</ele>
        <time>2022-09-15T07:58:08.113Z</time>
      </trkpt>
      <trkpt lat="44.14857" lon="0.46049">
        <ele>120</ele>
        <time>2022-09-15T07:58:09.113Z</time>
      </trkpt>
      <trkpt lat="44.14856" lon="0.46048">
        <ele>119</ele>
        <time>2022-09-15T07:58:11.113Z</time>
      </trkpt>
      <trkpt lat="44.14856" lon="0.46047">
        <ele>119</ele>
        <time>2022-09-15T07:58:12.113Z</time>
      </trkpt>
      <trkpt lat="44.14855" lon="0.46043">
        <ele>120</ele>
        <time>2022-09-15T07:58:13.113Z</time>
      </trkpt>
      <trkpt lat="44.14854" lon="0.4604">
        <ele>119</ele>
        <time>2022-09-15T07:58:15.113Z</time>
      </trkpt>
      <trkpt lat="44.14854" lon="0.46039">
        <ele>119</ele>
        <time>2022-09-15T07:58:17.113Z</time>
      </trkpt>
      <trkpt lat="44.14854" lon="0.46037">
        <ele>120</ele>
        <time>2022-09-15T07:58:18.113Z</time>
      </trkpt>
      <trkpt lat="44.14855" lon="0.46036">
        <ele>120</ele>
        <time>2022-09-15T07:58:19.113Z</time>
      </trkpt>
      <trkpt lat="44.14856" lon="0.46033">
        <ele>120</ele>
        <time>2022-09-15T07:58:20.113Z</time>
      </trkpt>
      <trkpt lat="44.14857" lon="0.46031">
        <ele>120</ele>
        <time>2022-09-15T07:58:22.113Z</time>
      </trkpt>
      <trkpt lat="44.14858" lon="0.4603">
        <ele>120</ele>
        <time>2022-09-15T07:58:23.113Z</time>
      </trkpt>
      <trkpt lat="44.14859" lon="0.4603">
        <ele>120</ele>
        <time>2022-09-15T07:58:24.113Z</time>
      </trkpt>
      <trkpt lat="44.14862" lon="0.4603">
        <ele>120</ele>
        <time>2022-09-15T07:58:25.113Z</time>
      </trkpt>
      <trkpt lat="44.14863" lon="0.4603">
        <ele>121</ele>
        <time>2022-09-15T07:58:27.113Z</time>
      </trkpt>
      <trkpt lat="44.14865" lon="0.4603">
        <ele>121</ele>
        <time>2022-09-15T07:58:28.113Z</time>
      </trkpt>
      <trkpt lat="44.14866" lon="0.4603">
        <ele>121</ele>
        <time>2022-09-15T07:58:29.113Z</time>
      </trkpt>
      <trkpt lat="44.14867" lon="0.46029">
        <ele>121</ele>
        <time>2022-09-15T07:58:30.113Z</time>
      </trkpt>
      <trkpt lat="44.14868" lon="0.46029">
        <ele>120</ele>
        <time>2022-09-15T07:58:31.113Z</time>
      </trkpt>
      <trkpt lat="44.1487" lon="0.46028">
        <ele>121</ele>
        <time>2022-09-15T07:58:32.113Z</time>
      </trkpt>
      <trkpt lat="44.14871" lon="0.46028">
        <ele>121</ele>
        <time>2022-09-15T07:58:34.113Z</time>
      </trkpt>
      <trkpt lat="44.14872" lon="0.46027">
        <ele>121</ele>
        <time>2022-09-15T07:58:35.113Z</time>
      </trkpt>
      <trkpt lat="44.14874" lon="0.46027">
        <ele>121</ele>
        <time>2022-09-15T07:58:36.113Z</time>
      </trkpt>
      <trkpt lat="44.14875" lon="0.46026">
        <ele>122</ele>
        <time>2022-09-15T07:58:38.113Z</time>
      </trkpt>
      <trkpt lat="44.14876" lon="0.46026">
        <ele>122</ele>
        <time>2022-09-15T07:58:39.113Z</time>
      </trkpt>
      <trkpt lat="44.14878" lon="0.46025">
        <ele>122</ele>
        <time>2022-09-15T07:58:40.113Z</time>
      </trkpt>
      <trkpt lat="44.14879" lon="0.46024">
        <ele>122</ele>
        <time>2022-09-15T07:58:42.113Z</time>
      </trkpt>
      <trkpt lat="44.14881" lon="0.46023">
        <ele>123</ele>
        <time>2022-09-15T07:58:43.113Z</time>
      </trkpt>
      <trkpt lat="44.14883" lon="0.46023">
        <ele>123</ele>
        <time>2022-09-15T07:58:45.113Z</time>
      </trkpt>
      <trkpt lat="44.14885" lon="0.46023">
        <ele>124</ele>
        <time>2022-09-15T07:58:46.113Z</time>
      </trkpt>
      <trkpt lat="44.14886" lon="0.46022">
        <ele>124</ele>
        <time>2022-09-15T07:58:48.113Z</time>
      </trkpt>
      <trkpt lat="44.14887" lon="0.46022">
        <ele>124</ele>
        <time>2022-09-15T07:58:49.113Z</time>
      </trkpt>
      <trkpt lat="44.14889" lon="0.46022">
        <ele>124</ele>
        <time>2022-09-15T07:58:50.113Z</time>
      </trkpt>
      <trkpt lat="44.1489" lon="0.46022">
        <ele>124</ele>
        <time>2022-09-15T07:58:51.113Z</time>
      </trkpt>
      <trkpt lat="44.14891" lon="0.46022">
        <ele>124</ele>
        <time>2022-09-15T07:58:52.113Z</time>
      </trkpt>
      <trkpt lat="44.14892" lon="0.46022">
        <ele>125</ele>
        <time>2022-09-15T07:58:53.113Z</time>
      </trkpt>
      <trkpt lat="44.14894" lon="0.46023">
        <ele>125</ele>
        <time>2022-09-15T07:58:54.113Z</time>
      </trkpt>
      <trkpt lat="44.14895" lon="0.46024">
        <ele>125</ele>
        <time>2022-09-15T07:58:56.113Z</time>
      </trkpt>
      <trkpt lat="44.14896" lon="0.46024">
        <ele>126</ele>
        <time>2022-09-15T07:58:57.113Z</time>
      </trkpt>
      <trkpt lat="44.14897" lon="0.46025">
        <ele>126</ele>
        <time>2022-09-15T07:58:58.113Z</time>
      </trkpt>
      <trkpt lat="44.14898" lon="0.46026">
        <ele>126</ele>
        <time>2022-09-15T07:58:59.113Z</time>
      </trkpt>
      <trkpt lat="44.14899" lon="0.46026">
        <ele>126</ele>
        <time>2022-09-15T07:59:00.113Z</time>
      </trkpt>
      <trkpt lat="44.14901" lon="0.46028">
        <ele>126</ele>
        <time>2022-09-15T07:59:01.113Z</time>
      </trkpt>
      <trkpt lat="44.14902" lon="0.46029">
        <ele>126</ele>
        <time>2022-09-15T07:59:03.113Z</time>
      </trkpt>
      <trkpt lat="44.14903" lon="0.4603">
        <ele>126</ele>
        <time>2022-09-15T07:59:04.113Z</time>
      </trkpt>
      <trkpt lat="44.14905" lon="0.46031">
        <ele>127</ele>
        <time>2022-09-15T07:59:05.113Z</time>
      </trkpt>
      <trkpt lat="44.14907" lon="0.46033">
        <ele>127</ele>
        <time>2022-09-15T07:59:07.113Z</time>
      </trkpt>
      <trkpt lat="44.14908" lon="0.46034">
        <ele>127</ele>
        <time>2022-09-15T07:59:08.113Z</time>
      </trkpt>
      <trkpt lat="44.14909" lon="0.46035">
        <ele>127</ele>
        <time>2022-09-15T07:59:10.113Z</time>
      </trkpt>
      <trkpt lat="44.14909" lon="0.46035">
        <ele>128</ele>
        <time>2022-09-15T07:59:11.113Z</time>
      </trkpt>
      <trkpt lat="44.1491" lon="0.46036">
        <ele>128</ele>
        <time>2022-09-15T07:59:12.113Z</time>
      </trkpt>
      <trkpt lat="44.14911" lon="0.46037">
        <ele>128</ele>
        <time>2022-09-15T07:59:13.113Z</time>
      </trkpt>
      <trkpt lat="44.14912" lon="0.46037">
        <ele>128</ele>
        <time>2022-09-15T07:59:14.113Z</time>
      </trkpt>
      <trkpt lat="44.14913" lon="0.46038">
        <ele>128</ele>
        <time>2022-09-15T07:59:15.113Z</time>
      </trkpt>
      <trkpt lat="44.14914" lon="0.46039">
        <ele>128</ele>
        <time>2022-09-15T07:59:16.113Z</time>
      </trkpt>
      <trkpt lat="44.14915" lon="0.46039">
        <ele>128</ele>
        <time>2022-09-15T07:59:17.113Z</time>
      </trkpt>
      <trkpt lat="44.14916" lon="0.4604">
        <ele>128</ele>
        <time>2022-09-15T07:59:18.113Z</time>
      </trkpt>
      <trkpt lat="44.14917" lon="0.46041">
        <ele>128</ele>
        <time>2022-09-15T07:59:19.113Z</time>
      </trkpt>
      <trkpt lat="44.14918" lon="0.46041">
        <ele>128</ele>
        <time>2022-09-15T07:59:20.113Z</time>
      </trkpt>
      <trkpt lat="44.14918" lon="0.46041">
        <ele>127</ele>
        <time>2022-09-15T07:59:21.113Z</time>
      </trkpt>
      <trkpt lat="44.14919" lon="0.46041">
        <ele>127</ele>
        <time>2022-09-15T07:59:23.113Z</time>
      </trkpt>
      <trkpt lat="44.1492" lon="0.46041">
        <ele>128</ele>
        <time>2022-09-15T07:59:24.113Z</time>
      </trkpt>
      <trkpt lat="44.14921" lon="0.46041">
        <ele>128</ele>
        <time>2022-09-15T07:59:25.113Z</time>
      </trkpt>
      <trkpt lat="44.14923" lon="0.46042">
        <ele>128</ele>
        <time>2022-09-15T07:59:26.113Z</time>
      </trkpt>
      <trkpt lat="44.14924" lon="0.46042">
        <ele>128</ele>
        <time>2022-09-15T07:59:27.113Z</time>
      </trkpt>
      <trkpt lat="44.14925" lon="0.46042">
        <ele>128</ele>
        <time>2022-09-15T07:59:29.113Z</time>
      </trkpt>
      <trkpt lat="44.14926" lon="0.46043">
        <ele>129</ele>
        <time>2022-09-15T07:59:30.113Z</time>
      </trkpt>
      <trkpt lat="44.14927" lon="0.46044">
        <ele>129</ele>
        <time>2022-09-15T07:59:32.113Z</time>
      </trkpt>
      <trkpt lat="44.14927" lon="0.46044">
        <ele>129</ele>
        <time>2022-09-15T07:59:33.113Z</time>
      </trkpt>
      <trkpt lat="44.14927" lon="0.46043">
        <ele>129</ele>
        <time>2022-09-15T07:59:34.113Z</time>
      </trkpt>
      <trkpt lat="44.14928" lon="0.46043">
        <ele>129</ele>
        <time>2022-09-15T07:59:36.113Z</time>
      </trkpt>
      <trkpt lat="44.14929" lon="0.46043">
        <ele>129</ele>
        <time>2022-09-15T07:59:37.113Z</time>
      </trkpt>
      <trkpt lat="44.1493" lon="0.46044">
        <ele>130</ele>
        <time>2022-09-15T07:59:38.113Z</time>
      </trkpt>
      <trkpt lat="44.14931" lon="0.46044">
        <ele>130</ele>
        <time>2022-09-15T07:59:39.113Z</time>
      </trkpt>
      <trkpt lat="44.14932" lon="0.46044">
        <ele>130</ele>
        <time>2022-09-15T07:59:40.113Z</time>
      </trkpt>
      <trkpt lat="44.14933" lon="0.46044">
        <ele>130</ele>
        <time>2022-09-15T07:59:41.113Z</time>
      </trkpt>
      <trkpt lat="44.14935" lon="0.46045">
        <ele>130</ele>
        <time>2022-09-15T07:59:43.113Z</time>
      </trkpt>
      <trkpt lat="44.14937" lon="0.46045">
        <ele>130</ele>
        <time>2022-09-15T07:59:44.113Z</time>
      </trkpt>
      <trkpt lat="44.14937" lon="0.46046">
        <ele>130</ele>
        <time>2022-09-15T07:59:45.113Z</time>
      </trkpt>
      <trkpt lat="44.14938" lon="0.46046">
        <ele>130</ele>
        <time>2022-09-15T07:59:46.113Z</time>
      </trkpt>
      <trkpt lat="44.1494" lon="0.46046">
        <ele>130</ele>
        <time>2022-09-15T07:59:48.113Z</time>
      </trkpt>
      <trkpt lat="44.14941" lon="0.46046">
        <ele>130</ele>
        <time>2022-09-15T07:59:49.113Z</time>
      </trkpt>
      <trkpt lat="44.14942" lon="0.46047">
        <ele>130</ele>
        <time>2022-09-15T07:59:50.113Z</time>
      </trkpt>
      <trkpt lat="44.14944" lon="0.46047">
        <ele>130</ele>
        <time>2022-09-15T07:59:51.113Z</time>
      </trkpt>
      <trkpt lat="44.14945" lon="0.46048">
        <ele>130</ele>
        <time>2022-09-15T07:59:52.113Z</time>
      </trkpt>
      <trkpt lat="44.14946" lon="0.46048">
        <ele>130</ele>
        <time>2022-09-15T07:59:54.113Z</time>
      </trkpt>
      <trkpt lat="44.14947" lon="0.46048">
        <ele>131</ele>
        <time>2022-09-15T07:59:55.113Z</time>
      </trkpt>
      <trkpt lat="44.14948" lon="0.46048">
        <ele>130</ele>
        <time>2022-09-15T07:59:56.113Z</time>
      </trkpt>
      <trkpt lat="44.14949" lon="0.46048">
        <ele>130</ele>
        <time>2022-09-15T07:59:57.113Z</time>
      </trkpt>
      <trkpt lat="44.1495" lon="0.46049">
        <ele>130</ele>
        <time>2022-09-15T07:59:58.113Z</time>
      </trkpt>
      <trkpt lat="44.14951" lon="0.46049">
        <ele>131</ele>
        <time>2022-09-15T07:59:59.113Z</time>
      </trkpt>
      <trkpt lat="44.14952" lon="0.4605">
        <ele>130</ele>
        <time>2022-09-15T08:00:00.113Z</time>
      </trkpt>
      <trkpt lat="44.14953" lon="0.4605">
        <ele>130</ele>
        <time>2022-09-15T08:00:01.113Z</time>
      </trkpt>
      <trkpt lat="44.14955" lon="0.46051">
        <ele>130</ele>
        <time>2022-09-15T08:00:03.113Z</time>
      </trkpt>
      <trkpt lat="44.14956" lon="0.46051">
        <ele>130</ele>
        <time>2022-09-15T08:00:04.113Z</time>
      </trkpt>
      <trkpt lat="44.14956" lon="0.46052">
        <ele>130</ele>
        <time>2022-09-15T08:00:05.113Z</time>
      </trkpt>
      <trkpt lat="44.14958" lon="0.46052">
        <ele>130</ele>
        <time>2022-09-15T08:00:07.113Z</time>
      </trkpt>
      <trkpt lat="44.14959" lon="0.46053">
        <ele>130</ele>
        <time>2022-09-15T08:00:08.113Z</time>
      </trkpt>
      <trkpt lat="44.14959" lon="0.46053">
        <ele>130</ele>
        <time>2022-09-15T08:00:09.113Z</time>
      </trkpt>
      <trkpt lat="44.1496" lon="0.46054">
        <ele>130</ele>
        <time>2022-09-15T08:00:10.113Z</time>
      </trkpt>
      <trkpt lat="44.14961" lon="0.46055">
        <ele>130</ele>
        <time>2022-09-15T08:00:11.113Z</time>
      </trkpt>
      <trkpt lat="44.14962" lon="0.46055">
        <ele>130</ele>
        <time>2022-09-15T08:00:12.113Z</time>
      </trkpt>
      <trkpt lat="44.14962" lon="0.46056">
        <ele>129</ele>
        <time>2022-09-15T08:00:13.113Z</time>
      </trkpt>
      <trkpt lat="44.14963" lon="0.46056">
        <ele>130</ele>
        <time>2022-09-15T08:00:14.113Z</time>
      </trkpt>
      <trkpt lat="44.14964" lon="0.46057">
        <ele>129</ele>
        <time>2022-09-15T08:00:16.113Z</time>
      </trkpt>
      <trkpt lat="44.14965" lon="0.46057">
        <ele>129</ele>
        <time>2022-09-15T08:00:17.113Z</time>
      </trkpt>
      <trkpt lat="44.14967" lon="0.46058">
        <ele>128</ele>
        <time>2022-09-15T08:00:18.113Z</time>
      </trkpt>
      <trkpt lat="44.14968" lon="0.46059">
        <ele>128</ele>
        <time>2022-09-15T08:00:20.113Z</time>
      </trkpt>
      <trkpt lat="44.1497" lon="0.4606">
        <ele>128</ele>
        <time>2022-09-15T08:00:21.113Z</time>
      </trkpt>
      <trkpt lat="44.14971" lon="0.4606">
        <ele>129</ele>
        <time>2022-09-15T08:00:23.113Z</time>
      </trkpt>
      <trkpt lat="44.14972" lon="0.46061">
        <ele>129</ele>
        <time>2022-09-15T08:00:24.113Z</time>
      </trkpt>
      <trkpt lat="44.14973" lon="0.46061">
        <ele>130</ele>
        <time>2022-09-15T08:00:25.113Z</time>
      </trkpt>
      <trkpt lat="44.14974" lon="0.46061">
        <ele>130</ele>
        <time>2022-09-15T08:00:26.113Z</time>
      </trkpt>
      <trkpt lat="44.14975" lon="0.46062">
        <ele>129</ele>
        <time>2022-09-15T08:00:27.113Z</time>
      </trkpt>
      <trkpt lat="44.14977" lon="0.46063">
        <ele>129</ele>
        <time>2022-09-15T08:00:29.113Z</time>
      </trkpt>
      <trkpt lat="44.14978" lon="0.46063">
        <ele>129</ele>
        <time>2022-09-15T08:00:31.113Z</time>
      </trkpt>
      <trkpt lat="44.14981" lon="0.46064">
        <ele>130</ele>
        <time>2022-09-15T08:00:32.113Z</time>
      </trkpt>
      <trkpt lat="44.14982" lon="0.46065">
        <ele>129</ele>
        <time>2022-09-15T08:00:34.113Z</time>
      </trkpt>
      <trkpt lat="44.14984" lon="0.46065">
        <ele>130</ele>
        <time>2022-09-15T08:00:35.113Z</time>
      </trkpt>
      <trkpt lat="44.14985" lon="0.46066">
        <ele>129</ele>
        <time>2022-09-15T08:00:36.113Z</time>
      </trkpt>
      <trkpt lat="44.14986" lon="0.46066">
        <ele>130</ele>
        <time>2022-09-15T08:00:37.113Z</time>
      </trkpt>
      <trkpt lat="44.14987" lon="0.46067">
        <ele>129</ele>
        <time>2022-09-15T08:00:38.113Z</time>
      </trkpt>
      <trkpt lat="44.14989" lon="0.46067">
        <ele>130</ele>
        <time>2022-09-15T08:00:39.113Z</time>
      </trkpt>
      <trkpt lat="44.1499" lon="0.46068">
        <ele>130</ele>
        <time>2022-09-15T08:00:40.113Z</time>
      </trkpt>
      <trkpt lat="44.14991" lon="0.46068">
        <ele>130</ele>
        <time>2022-09-15T08:00:42.113Z</time>
      </trkpt>
      <trkpt lat="44.14994" lon="0.4607">
        <ele>130</ele>
        <time>2022-09-15T08:00:43.113Z</time>
      </trkpt>
      <trkpt lat="44.14996" lon="0.46071">
        <ele>130</ele>
        <time>2022-09-15T08:00:45.113Z</time>
      </trkpt>
      <trkpt lat="44.14997" lon="0.46071">
        <ele>130</ele>
        <time>2022-09-15T08:00:47.113Z</time>
      </trkpt>
      <trkpt lat="44.15" lon="0.46072">
        <ele>130</ele>
        <time>2022-09-15T08:00:48.113Z</time>
      </trkpt>
      <trkpt lat="44.15002" lon="0.46074">
        <ele>130</ele>
        <time>2022-09-15T08:00:50.113Z</time>
      </trkpt>
      <trkpt lat="44.15003" lon="0.46074">
        <ele>130</ele>
        <time>2022-09-15T08:00:52.113Z</time>
      </trkpt>
      <trkpt lat="44.15004" lon="0.46075">
        <ele>130</ele>
        <time>2022-09-15T08:00:53.113Z</time>
      </trkpt>
      <trkpt lat="44.15005" lon="0.46075">
        <ele>130</ele>
        <time>2022-09-15T08:00:54.113Z</time>
      </trkpt>
      <trkpt lat="44.15006" lon="0.46076">
        <ele>130</ele>
        <time>2022-09-15T08:00:55.113Z</time>
      </trkpt>
      <trkpt lat="44.15008" lon="0.46077">
        <ele>130</ele>
        <time>2022-09-15T08:00:56.113Z</time>
      </trkpt>
      <trkpt lat="44.1501" lon="0.46078">
        <ele>130</ele>
        <time>2022-09-15T08:00:57.113Z</time>
      </trkpt>
      <trkpt lat="44.15011" lon="0.46079">
        <ele>130</ele>
        <time>2022-09-15T08:00:59.113Z</time>
      </trkpt>
      <trkpt lat="44.15012" lon="0.46079">
        <ele>130</ele>
        <time>2022-09-15T08:01:00.113Z</time>
      </trkpt>
      <trkpt lat="44.15014" lon="0.4608">
        <ele>130</ele>
        <time>2022-09-15T08:01:01.113Z</time>
      </trkpt>
      <trkpt lat="44.15016" lon="0.46081">
        <ele>131</ele>
        <time>2022-09-15T08:01:03.113Z</time>
      </trkpt>
      <trkpt lat="44.15017" lon="0.46082">
        <ele>131</ele>
        <time>2022-09-15T08:01:04.113Z</time>
      </trkpt>
      <trkpt lat="44.15018" lon="0.46083">
        <ele>131</ele>
        <time>2022-09-15T08:01:05.113Z</time>
      </trkpt>
      <trkpt lat="44.15019" lon="0.46083">
        <ele>131</ele>
        <time>2022-09-15T08:01:06.113Z</time>
      </trkpt>
      <trkpt lat="44.1502" lon="0.46085">
        <ele>130</ele>
        <time>2022-09-15T08:01:07.113Z</time>
      </trkpt>
      <trkpt lat="44.15021" lon="0.46086">
        <ele>130</ele>
        <time>2022-09-15T08:01:08.113Z</time>
      </trkpt>
      <trkpt lat="44.15022" lon="0.46088">
        <ele>130</ele>
        <time>2022-09-15T08:01:10.113Z</time>
      </trkpt>
      <trkpt lat="44.15022" lon="0.46089">
        <ele>131</ele>
        <time>2022-09-15T08:01:11.113Z</time>
      </trkpt>
      <trkpt lat="44.15023" lon="0.4609">
        <ele>131</ele>
        <time>2022-09-15T08:01:12.113Z</time>
      </trkpt>
      <trkpt lat="44.15023" lon="0.46091">
        <ele>131</ele>
        <time>2022-09-15T08:01:14.113Z</time>
      </trkpt>
      <trkpt lat="44.15024" lon="0.46091">
        <ele>131</ele>
        <time>2022-09-15T08:01:15.113Z</time>
      </trkpt>
      <trkpt lat="44.15024" lon="0.46091">
        <ele>131</ele>
        <time>2022-09-15T08:01:16.113Z</time>
      </trkpt>
      <trkpt lat="44.15024" lon="0.46091">
        <ele>132</ele>
        <time>2022-09-15T08:01:18.113Z</time>
      </trkpt>
      <trkpt lat="44.15025" lon="0.4609">
        <ele>132</ele>
        <time>2022-09-15T08:01:19.113Z</time>
      </trkpt>
      <trkpt lat="44.15026" lon="0.46089">
        <ele>132</ele>
        <time>2022-09-15T08:01:20.113Z</time>
      </trkpt>
      <trkpt lat="44.15027" lon="0.46089">
        <ele>132</ele>
        <time>2022-09-15T08:01:22.113Z</time>
      </trkpt>
      <trkpt lat="44.15028" lon="0.46089">
        <ele>132</ele>
        <time>2022-09-15T08:01:23.113Z</time>
      </trkpt>
      <trkpt lat="44.15029" lon="0.46089">
        <ele>132</ele>
        <time>2022-09-15T08:01:24.113Z</time>
      </trkpt>
      <trkpt lat="44.1503" lon="0.46089">
        <ele>132</ele>
        <time>2022-09-15T08:01:26.113Z</time>
      </trkpt>
      <trkpt lat="44.1503" lon="0.46089">
        <ele>132</ele>
        <time>2022-09-15T08:01:27.113Z</time>
      </trkpt>
      <trkpt lat="44.1503" lon="0.46089">
        <ele>132</ele>
        <time>2022-09-15T08:01:29.113Z</time>
      </trkpt>
      <trkpt lat="44.15031" lon="0.46089">
        <ele>132</ele>
        <time>2022-09-15T08:01:30.113Z</time>
      </trkpt>
      <trkpt lat="44.15031" lon="0.4609">
        <ele>132</ele>
        <time>2022-09-15T08:01:32.113Z</time>
      </trkpt>
      <trkpt lat="44.15031" lon="0.4609">
        <ele>132</ele>
        <time>2022-09-15T08:01:33.113Z</time>
      </trkpt>
      <trkpt lat="44.15031" lon="0.4609">
        <ele>132</ele>
        <time>2022-09-15T08:01:35.113Z</time>
      </trkpt>
      <trkpt lat="44.15031" lon="0.4609">
        <ele>132</ele>
        <time>2022-09-15T08:01:36.113Z</time>
      </trkpt>
      <trkpt lat="44.15031" lon="0.4609">
        <ele>132</ele>
        <time>2022-09-15T08:01:37.113Z</time>
      </trkpt>
      <trkpt lat="44.15031" lon="0.4609">
        <ele>132</ele>
        <time>2022-09-15T08:01:38.113Z</time>
      </trkpt>
      <trkpt lat="44.15031" lon="0.4609">
        <ele>132</ele>
        <time>2022-09-15T08:01:39.113Z</time>
      </trkpt>
      <trkpt lat="44.15031" lon="0.46089">
        <ele>132</ele>
        <time>2022-09-15T08:01:46.129Z</time>
      </trkpt>
      <trkpt lat="44.15031" lon="0.46089">
        <ele>133</ele>
        <time>2022-09-15T08:01:48.129Z</time>
      </trkpt>
      <trkpt lat="44.15031" lon="0.46089">
        <ele>134</ele>
        <time>2022-09-15T08:01:49.129Z</time>
      </trkpt>
      <trkpt lat="44.15032" lon="0.46088">
        <ele>134</ele>
        <time>2022-09-15T08:01:51.129Z</time>
      </trkpt>
      <trkpt lat="44.15033" lon="0.46088">
        <ele>134</ele>
        <time>2022-09-15T08:01:52.129Z</time>
      </trkpt>
      <trkpt lat="44.15034" lon="0.46088">
        <ele>134</ele>
        <time>2022-09-15T08:01:53.129Z</time>
      </trkpt>
      <trkpt lat="44.15034" lon="0.46089">
        <ele>133</ele>
        <time>2022-09-15T08:01:54.129Z</time>
      </trkpt>
      <trkpt lat="44.15034" lon="0.46089">
        <ele>134</ele>
        <time>2022-09-15T08:01:56.129Z</time>
      </trkpt>
      <trkpt lat="44.15034" lon="0.46089">
        <ele>134</ele>
        <time>2022-09-15T08:01:57.129Z</time>
      </trkpt>
      <trkpt lat="44.15034" lon="0.46089">
        <ele>133</ele>
        <time>2022-09-15T08:01:59.129Z</time>
      </trkpt>
      <trkpt lat="44.15034" lon="0.46089">
        <ele>134</ele>
        <time>2022-09-15T08:02:00.129Z</time>
      </trkpt>
      <trkpt lat="44.15035" lon="0.46089">
        <ele>134</ele>
        <time>2022-09-15T08:02:01.129Z</time>
      </trkpt>
      <trkpt lat="44.15035" lon="0.4609">
        <ele>133</ele>
        <time>2022-09-15T08:02:03.129Z</time>
      </trkpt>
      <trkpt lat="44.15035" lon="0.4609">
        <ele>133</ele>
        <time>2022-09-15T08:02:04.129Z</time>
      </trkpt>
      <trkpt lat="44.15035" lon="0.4609">
        <ele>134</ele>
        <time>2022-09-15T08:02:06.129Z</time>
      </trkpt>
      <trkpt lat="44.15035" lon="0.4609">
        <ele>133</ele>
        <time>2022-09-15T08:02:07.129Z</time>
      </trkpt>
      <trkpt lat="44.15035" lon="0.4609">
        <ele>133</ele>
        <time>2022-09-15T08:02:08.129Z</time>
      </trkpt>
      <trkpt lat="44.15036" lon="0.46089">
        <ele>133</ele>
        <time>2022-09-15T08:02:09.129Z</time>
      </trkpt>
      <trkpt lat="44.15037" lon="0.46089">
        <ele>133</ele>
        <time>2022-09-15T08:02:10.129Z</time>
      </trkpt>
      <trkpt lat="44.15038" lon="0.46089">
        <ele>133</ele>
        <time>2022-09-15T08:02:11.129Z</time>
      </trkpt>
      <trkpt lat="44.1504" lon="0.46089">
        <ele>133</ele>
        <time>2022-09-15T08:02:13.129Z</time>
      </trkpt>
      <trkpt lat="44.1504" lon="0.46089">
        <ele>133</ele>
        <time>2022-09-15T08:02:15.129Z</time>
      </trkpt>
      <trkpt lat="44.15042" lon="0.46089">
        <ele>133</ele>
        <time>2022-09-15T08:02:16.129Z</time>
      </trkpt>
      <trkpt lat="44.15044" lon="0.46089">
        <ele>133</ele>
        <time>2022-09-15T08:02:18.129Z</time>
      </trkpt>
      <trkpt lat="44.15046" lon="0.46089">
        <ele>133</ele>
        <time>2022-09-15T08:02:19.129Z</time>
      </trkpt>
      <trkpt lat="44.15047" lon="0.46089">
        <ele>133</ele>
        <time>2022-09-15T08:02:20.129Z</time>
      </trkpt>
      <trkpt lat="44.15048" lon="0.46089">
        <ele>133</ele>
        <time>2022-09-15T08:02:21.129Z</time>
      </trkpt>
      <trkpt lat="44.15049" lon="0.46089">
        <ele>134</ele>
        <time>2022-09-15T08:02:23.129Z</time>
      </trkpt>
      <trkpt lat="44.1505" lon="0.46089">
        <ele>133</ele>
        <time>2022-09-15T08:02:24.129Z</time>
      </trkpt>
      <trkpt lat="44.15051" lon="0.46089">
        <ele>132</ele>
        <time>2022-09-15T08:02:25.129Z</time>
      </trkpt>
      <trkpt lat="44.15052" lon="0.46089">
        <ele>133</ele>
        <time>2022-09-15T08:02:26.129Z</time>
      </trkpt>
      <trkpt lat="44.15054" lon="0.46089">
        <ele>132</ele>
        <time>2022-09-15T08:02:28.129Z</time>
      </trkpt>
      <trkpt lat="44.15056" lon="0.46089">
        <ele>132</ele>
        <time>2022-09-15T08:02:30.129Z</time>
      </trkpt>
      <trkpt lat="44.15058" lon="0.46089">
        <ele>132</ele>
        <time>2022-09-15T08:02:32.129Z</time>
      </trkpt>
      <trkpt lat="44.15059" lon="0.46089">
        <ele>132</ele>
        <time>2022-09-15T08:02:34.129Z</time>
      </trkpt>
      <trkpt lat="44.15061" lon="0.46089">
        <ele>132</ele>
        <time>2022-09-15T08:02:35.129Z</time>
      </trkpt>
      <trkpt lat="44.15062" lon="0.46089">
        <ele>132</ele>
        <time>2022-09-15T08:02:36.129Z</time>
      </trkpt>
      <trkpt lat="44.15064" lon="0.4609">
        <ele>132</ele>
        <time>2022-09-15T08:02:37.129Z</time>
      </trkpt>
      <trkpt lat="44.15066" lon="0.4609">
        <ele>132</ele>
        <time>2022-09-15T08:02:38.129Z</time>
      </trkpt>
      <trkpt lat="44.15067" lon="0.4609">
        <ele>132</ele>
        <time>2022-09-15T08:02:39.129Z</time>
      </trkpt>
      <trkpt lat="44.15069" lon="0.4609">
        <ele>132</ele>
        <time>2022-09-15T08:02:41.129Z</time>
      </trkpt>
      <trkpt lat="44.1507" lon="0.4609">
        <ele>132</ele>
        <time>2022-09-15T08:02:42.129Z</time>
      </trkpt>
      <trkpt lat="44.15071" lon="0.4609">
        <ele>132</ele>
        <time>2022-09-15T08:02:43.129Z</time>
      </trkpt>
      <trkpt lat="44.15073" lon="0.4609">
        <ele>133</ele>
        <time>2022-09-15T08:02:44.129Z</time>
      </trkpt>
      <trkpt lat="44.15074" lon="0.4609">
        <ele>133</ele>
        <time>2022-09-15T08:02:45.129Z</time>
      </trkpt>
      <trkpt lat="44.15076" lon="0.4609">
        <ele>133</ele>
        <time>2022-09-15T08:02:47.129Z</time>
      </trkpt>
      <trkpt lat="44.15077" lon="0.4609">
        <ele>133</ele>
        <time>2022-09-15T08:02:48.129Z</time>
      </trkpt>
      <trkpt lat="44.15079" lon="0.4609">
        <ele>133</ele>
        <time>2022-09-15T08:02:50.129Z</time>
      </trkpt>
      <trkpt lat="44.1508" lon="0.46091">
        <ele>134</ele>
        <time>2022-09-15T08:02:51.129Z</time>
      </trkpt>
      <trkpt lat="44.15081" lon="0.46092">
        <ele>134</ele>
        <time>2022-09-15T08:02:52.129Z</time>
      </trkpt>
      <trkpt lat="44.15082" lon="0.46093">
        <ele>134</ele>
        <time>2022-09-15T08:02:54.129Z</time>
      </trkpt>
      <trkpt lat="44.15083" lon="0.46095">
        <ele>134</ele>
        <time>2022-09-15T08:02:55.129Z</time>
      </trkpt>
      <trkpt lat="44.15084" lon="0.46098">
        <ele>134</ele>
        <time>2022-09-15T08:02:57.129Z</time>
      </trkpt>
      <trkpt lat="44.15084" lon="0.46099">
        <ele>134</ele>
        <time>2022-09-15T08:02:58.129Z</time>
      </trkpt>
      <trkpt lat="44.15085" lon="0.46102">
        <ele>135</ele>
        <time>2022-09-15T08:03:00.129Z</time>
      </trkpt>
      <trkpt lat="44.15085" lon="0.46103">
        <ele>135</ele>
        <time>2022-09-15T08:03:01.129Z</time>
      </trkpt>
      <trkpt lat="44.15085" lon="0.46105">
        <ele>135</ele>
        <time>2022-09-15T08:03:02.129Z</time>
      </trkpt>
      <trkpt lat="44.15086" lon="0.46106">
        <ele>135</ele>
        <time>2022-09-15T08:03:03.129Z</time>
      </trkpt>
      <trkpt lat="44.15086" lon="0.46108">
        <ele>136</ele>
        <time>2022-09-15T08:03:04.129Z</time>
      </trkpt>
      <trkpt lat="44.15086" lon="0.4611">
        <ele>135</ele>
        <time>2022-09-15T08:03:05.129Z</time>
      </trkpt>
      <trkpt lat="44.15087" lon="0.46112">
        <ele>135</ele>
        <time>2022-09-15T08:03:06.129Z</time>
      </trkpt>
      <trkpt lat="44.15087" lon="0.46114">
        <ele>136</ele>
        <time>2022-09-15T08:03:07.129Z</time>
      </trkpt>
      <trkpt lat="44.15087" lon="0.46116">
        <ele>136</ele>
        <time>2022-09-15T08:03:08.129Z</time>
      </trkpt>
      <trkpt lat="44.15088" lon="0.46118">
        <ele>136</ele>
        <time>2022-09-15T08:03:09.129Z</time>
      </trkpt>
      <trkpt lat="44.15088" lon="0.4612">
        <ele>136</ele>
        <time>2022-09-15T08:03:10.129Z</time>
      </trkpt>
      <trkpt lat="44.15089" lon="0.46122">
        <ele>136</ele>
        <time>2022-09-15T08:03:11.129Z</time>
      </trkpt>
      <trkpt lat="44.15089" lon="0.46123">
        <ele>136</ele>
        <time>2022-09-15T08:03:12.129Z</time>
      </trkpt>
      <trkpt lat="44.1509" lon="0.46125">
        <ele>136</ele>
        <time>2022-09-15T08:03:13.129Z</time>
      </trkpt>
      <trkpt lat="44.15091" lon="0.46128">
        <ele>136</ele>
        <time>2022-09-15T08:03:15.129Z</time>
      </trkpt>
      <trkpt lat="44.15091" lon="0.4613">
        <ele>137</ele>
        <time>2022-09-15T08:03:17.129Z</time>
      </trkpt>
      <trkpt lat="44.15092" lon="0.46132">
        <ele>137</ele>
        <time>2022-09-15T08:03:18.129Z</time>
      </trkpt>
      <trkpt lat="44.15093" lon="0.46135">
        <ele>137</ele>
        <time>2022-09-15T08:03:19.129Z</time>
      </trkpt>
      <trkpt lat="44.15094" lon="0.46136">
        <ele>137</ele>
        <time>2022-09-15T08:03:21.129Z</time>
      </trkpt>
      <trkpt lat="44.15094" lon="0.46138">
        <ele>137</ele>
        <time>2022-09-15T08:03:22.129Z</time>
      </trkpt>
      <trkpt lat="44.15095" lon="0.46139">
        <ele>137</ele>
        <time>2022-09-15T08:03:23.129Z</time>
      </trkpt>
      <trkpt lat="44.15095" lon="0.46141">
        <ele>137</ele>
        <time>2022-09-15T08:03:24.129Z</time>
      </trkpt>
      <trkpt lat="44.15096" lon="0.46144">
        <ele>137</ele>
        <time>2022-09-15T08:03:25.129Z</time>
      </trkpt>
      <trkpt lat="44.15096" lon="0.46146">
        <ele>137</ele>
        <time>2022-09-15T08:03:26.129Z</time>
      </trkpt>
      <trkpt lat="44.15096" lon="0.46147">
        <ele>137</ele>
        <time>2022-09-15T08:03:27.129Z</time>
      </trkpt>
      <trkpt lat="44.15097" lon="0.46149">
        <ele>137</ele>
        <time>2022-09-15T08:03:29.129Z</time>
      </trkpt>
      <trkpt lat="44.15097" lon="0.46152">
        <ele>137</ele>
        <time>2022-09-15T08:03:30.129Z</time>
      </trkpt>
      <trkpt lat="44.15098" lon="0.46153">
        <ele>137</ele>
        <time>2022-09-15T08:03:31.129Z</time>
      </trkpt>
      <trkpt lat="44.15098" lon="0.46154">
        <ele>137</ele>
        <time>2022-09-15T08:03:33.129Z</time>
      </trkpt>
      <trkpt lat="44.15098" lon="0.46156">
        <ele>137</ele>
        <time>2022-09-15T08:03:34.129Z</time>
      </trkpt>
      <trkpt lat="44.15099" lon="0.46157">
        <ele>137</ele>
        <time>2022-09-15T08:03:35.129Z</time>
      </trkpt>
      <trkpt lat="44.151" lon="0.4616">
        <ele>137</ele>
        <time>2022-09-15T08:03:36.129Z</time>
      </trkpt>
      <trkpt lat="44.151" lon="0.46162">
        <ele>137</ele>
        <time>2022-09-15T08:03:37.129Z</time>
      </trkpt>
      <trkpt lat="44.151" lon="0.46163">
        <ele>137</ele>
        <time>2022-09-15T08:03:39.129Z</time>
      </trkpt>
      <trkpt lat="44.15101" lon="0.46164">
        <ele>137</ele>
        <time>2022-09-15T08:03:40.129Z</time>
      </trkpt>
      <trkpt lat="44.15101" lon="0.46167">
        <ele>138</ele>
        <time>2022-09-15T08:03:41.129Z</time>
      </trkpt>
      <trkpt lat="44.15103" lon="0.4617">
        <ele>138</ele>
        <time>2022-09-15T08:03:43.129Z</time>
      </trkpt>
      <trkpt lat="44.15103" lon="0.46172">
        <ele>138</ele>
        <time>2022-09-15T08:03:44.129Z</time>
      </trkpt>
      <trkpt lat="44.15104" lon="0.46173">
        <ele>138</ele>
        <time>2022-09-15T08:03:45.129Z</time>
      </trkpt>
      <trkpt lat="44.15105" lon="0.46176">
        <ele>138</ele>
        <time>2022-09-15T08:03:47.129Z</time>
      </trkpt>
      <trkpt lat="44.15105" lon="0.46178">
        <ele>138</ele>
        <time>2022-09-15T08:03:48.129Z</time>
      </trkpt>
      <trkpt lat="44.15106" lon="0.46179">
        <ele>138</ele>
        <time>2022-09-15T08:03:49.129Z</time>
      </trkpt>
      <trkpt lat="44.15107" lon="0.46181">
        <ele>138</ele>
        <time>2022-09-15T08:03:51.129Z</time>
      </trkpt>
      <trkpt lat="44.15107" lon="0.46182">
        <ele>138</ele>
        <time>2022-09-15T08:03:52.129Z</time>
      </trkpt>
      <trkpt lat="44.15108" lon="0.46185">
        <ele>138</ele>
        <time>2022-09-15T08:03:53.129Z</time>
      </trkpt>
      <trkpt lat="44.15109" lon="0.46187">
        <ele>138</ele>
        <time>2022-09-15T08:03:55.129Z</time>
      </trkpt>
      <trkpt lat="44.15109" lon="0.46188">
        <ele>139</ele>
        <time>2022-09-15T08:03:56.129Z</time>
      </trkpt>
      <trkpt lat="44.1511" lon="0.4619">
        <ele>139</ele>
        <time>2022-09-15T08:03:57.129Z</time>
      </trkpt>
      <trkpt lat="44.15111" lon="0.46191">
        <ele>139</ele>
        <time>2022-09-15T08:03:58.129Z</time>
      </trkpt>
      <trkpt lat="44.15111" lon="0.46193">
        <ele>139</ele>
        <time>2022-09-15T08:03:59.129Z</time>
      </trkpt>
      <trkpt lat="44.15112" lon="0.46194">
        <ele>139</ele>
        <time>2022-09-15T08:04:00.129Z</time>
      </trkpt>
      <trkpt lat="44.15113" lon="0.46197">
        <ele>139</ele>
        <time>2022-09-15T08:04:01.129Z</time>
      </trkpt>
      <trkpt lat="44.15113" lon="0.46199">
        <ele>139</ele>
        <time>2022-09-15T08:04:03.129Z</time>
      </trkpt>
      <trkpt lat="44.15114" lon="0.462">
        <ele>139</ele>
        <time>2022-09-15T08:04:04.129Z</time>
      </trkpt>
      <trkpt lat="44.15114" lon="0.46202">
        <ele>139</ele>
        <time>2022-09-15T08:04:05.129Z</time>
      </trkpt>
      <trkpt lat="44.15115" lon="0.46205">
        <ele>139</ele>
        <time>2022-09-15T08:04:06.129Z</time>
      </trkpt>
      <trkpt lat="44.15115" lon="0.46207">
        <ele>139</ele>
        <time>2022-09-15T08:04:08.129Z</time>
      </trkpt>
      <trkpt lat="44.15116" lon="0.46208">
        <ele>139</ele>
        <time>2022-09-15T08:04:09.129Z</time>
      </trkpt>
      <trkpt lat="44.15116" lon="0.46211">
        <ele>139</ele>
        <time>2022-09-15T08:04:10.129Z</time>
      </trkpt>
      <trkpt lat="44.15116" lon="0.46213">
        <ele>139</ele>
        <time>2022-09-15T08:04:11.129Z</time>
      </trkpt>
      <trkpt lat="44.15116" lon="0.46215">
        <ele>139</ele>
        <time>2022-09-15T08:04:12.129Z</time>
      </trkpt>
      <trkpt lat="44.15116" lon="0.46217">
        <ele>139</ele>
        <time>2022-09-15T08:04:13.129Z</time>
      </trkpt>
      <trkpt lat="44.15115" lon="0.4622">
        <ele>139</ele>
        <time>2022-09-15T08:04:15.129Z</time>
      </trkpt>
      <trkpt lat="44.15115" lon="0.46222">
        <ele>140</ele>
        <time>2022-09-15T08:04:16.129Z</time>
      </trkpt>
      <trkpt lat="44.15115" lon="0.46223">
        <ele>140</ele>
        <time>2022-09-15T08:04:17.129Z</time>
      </trkpt>
      <trkpt lat="44.15115" lon="0.46225">
        <ele>140</ele>
        <time>2022-09-15T08:04:19.129Z</time>
      </trkpt>
      <trkpt lat="44.15114" lon="0.46226">
        <ele>140</ele>
        <time>2022-09-15T08:04:20.129Z</time>
      </trkpt>
      <trkpt lat="44.15114" lon="0.46229">
        <ele>140</ele>
        <time>2022-09-15T08:04:21.129Z</time>
      </trkpt>
      <trkpt lat="44.15114" lon="0.46231">
        <ele>140</ele>
        <time>2022-09-15T08:04:23.129Z</time>
      </trkpt>
      <trkpt lat="44.15113" lon="0.46232">
        <ele>140</ele>
        <time>2022-09-15T08:04:24.129Z</time>
      </trkpt>
      <trkpt lat="44.15113" lon="0.46236">
        <ele>140</ele>
        <time>2022-09-15T08:04:25.129Z</time>
      </trkpt>
      <trkpt lat="44.15112" lon="0.46237">
        <ele>139</ele>
        <time>2022-09-15T08:04:27.129Z</time>
      </trkpt>
      <trkpt lat="44.15112" lon="0.4624">
        <ele>139</ele>
        <time>2022-09-15T08:04:28.129Z</time>
      </trkpt>
      <trkpt lat="44.15111" lon="0.46241">
        <ele>139</ele>
        <time>2022-09-15T08:04:30.129Z</time>
      </trkpt>
      <trkpt lat="44.15111" lon="0.46244">
        <ele>139</ele>
        <time>2022-09-15T08:04:31.129Z</time>
      </trkpt>
      <trkpt lat="44.1511" lon="0.46246">
        <ele>139</ele>
        <time>2022-09-15T08:04:32.129Z</time>
      </trkpt>
      <trkpt lat="44.1511" lon="0.46247">
        <ele>139</ele>
        <time>2022-09-15T08:04:33.129Z</time>
      </trkpt>
      <trkpt lat="44.1511" lon="0.4625">
        <ele>138</ele>
        <time>2022-09-15T08:04:35.129Z</time>
      </trkpt>
      <trkpt lat="44.15109" lon="0.46251">
        <ele>138</ele>
        <time>2022-09-15T08:04:36.129Z</time>
      </trkpt>
      <trkpt lat="44.15109" lon="0.46253">
        <ele>138</ele>
        <time>2022-09-15T08:04:37.129Z</time>
      </trkpt>
      <trkpt lat="44.15109" lon="0.46254">
        <ele>138</ele>
        <time>2022-09-15T08:04:38.129Z</time>
      </trkpt>
      <trkpt lat="44.15108" lon="0.46256">
        <ele>138</ele>
        <time>2022-09-15T08:04:39.129Z</time>
      </trkpt>
      <trkpt lat="44.15108" lon="0.46257">
        <ele>138</ele>
        <time>2022-09-15T08:04:41.129Z</time>
      </trkpt>
      <trkpt lat="44.15107" lon="0.4626">
        <ele>138</ele>
        <time>2022-09-15T08:04:42.129Z</time>
      </trkpt>
      <trkpt lat="44.15107" lon="0.46262">
        <ele>138</ele>
        <time>2022-09-15T08:04:44.129Z</time>
      </trkpt>
      <trkpt lat="44.15106" lon="0.46265">
        <ele>138</ele>
        <time>2022-09-15T08:04:45.129Z</time>
      </trkpt>
      <trkpt lat="44.15106" lon="0.46267">
        <ele>138</ele>
        <time>2022-09-15T08:04:46.129Z</time>
      </trkpt>
      <trkpt lat="44.15106" lon="0.4627">
        <ele>137</ele>
        <time>2022-09-15T08:04:48.129Z</time>
      </trkpt>
      <trkpt lat="44.15105" lon="0.46271">
        <ele>137</ele>
        <time>2022-09-15T08:04:49.129Z</time>
      </trkpt>
      <trkpt lat="44.15105" lon="0.46273">
        <ele>137</ele>
        <time>2022-09-15T08:04:50.129Z</time>
      </trkpt>
      <trkpt lat="44.15105" lon="0.46274">
        <ele>137</ele>
        <time>2022-09-15T08:04:51.129Z</time>
      </trkpt>
      <trkpt lat="44.15104" lon="0.46276">
        <ele>137</ele>
        <time>2022-09-15T08:04:53.129Z</time>
      </trkpt>
      <trkpt lat="44.15104" lon="0.46278">
        <ele>137</ele>
        <time>2022-09-15T08:04:54.129Z</time>
      </trkpt>
      <trkpt lat="44.15103" lon="0.46281">
        <ele>137</ele>
        <time>2022-09-15T08:04:55.129Z</time>
      </trkpt>
      <trkpt lat="44.15103" lon="0.46284">
        <ele>137</ele>
        <time>2022-09-15T08:04:57.129Z</time>
      </trkpt>
      <trkpt lat="44.15102" lon="0.46286">
        <ele>137</ele>
        <time>2022-09-15T08:04:59.129Z</time>
      </trkpt>
      <trkpt lat="44.15102" lon="0.46289">
        <ele>137</ele>
        <time>2022-09-15T08:05:00.129Z</time>
      </trkpt>
      <trkpt lat="44.15101" lon="0.4629">
        <ele>137</ele>
        <time>2022-09-15T08:05:02.129Z</time>
      </trkpt>
      <trkpt lat="44.15101" lon="0.46292">
        <ele>137</ele>
        <time>2022-09-15T08:05:03.129Z</time>
      </trkpt>
      <trkpt lat="44.151" lon="0.46295">
        <ele>137</ele>
        <time>2022-09-15T08:05:04.129Z</time>
      </trkpt>
      <trkpt lat="44.151" lon="0.46298">
        <ele>137</ele>
        <time>2022-09-15T08:05:06.129Z</time>
      </trkpt>
      <trkpt lat="44.15099" lon="0.463">
        <ele>137</ele>
        <time>2022-09-15T08:05:07.129Z</time>
      </trkpt>
      <trkpt lat="44.15099" lon="0.46301">
        <ele>137</ele>
        <time>2022-09-15T08:05:08.129Z</time>
      </trkpt>
      <trkpt lat="44.15098" lon="0.46303">
        <ele>137</ele>
        <time>2022-09-15T08:05:10.129Z</time>
      </trkpt>
      <trkpt lat="44.15098" lon="0.46304">
        <ele>136</ele>
        <time>2022-09-15T08:05:11.129Z</time>
      </trkpt>
      <trkpt lat="44.15097" lon="0.46308">
        <ele>136</ele>
        <time>2022-09-15T08:05:12.129Z</time>
      </trkpt>
      <trkpt lat="44.15097" lon="0.46309">
        <ele>135</ele>
        <time>2022-09-15T08:05:14.129Z</time>
      </trkpt>
      <trkpt lat="44.15097" lon="0.46312">
        <ele>136</ele>
        <time>2022-09-15T08:05:15.129Z</time>
      </trkpt>
      <trkpt lat="44.15096" lon="0.46314">
        <ele>136</ele>
        <time>2022-09-15T08:05:16.129Z</time>
      </trkpt>
      <trkpt lat="44.15095" lon="0.46317">
        <ele>135</ele>
        <time>2022-09-15T08:05:18.129Z</time>
      </trkpt>
      <trkpt lat="44.15095" lon="0.46319">
        <ele>136</ele>
        <time>2022-09-15T08:05:19.129Z</time>
      </trkpt>
      <trkpt lat="44.15095" lon="0.4632">
        <ele>136</ele>
        <time>2022-09-15T08:05:20.129Z</time>
      </trkpt>
      <trkpt lat="44.15094" lon="0.46322">
        <ele>136</ele>
        <time>2022-09-15T08:05:21.129Z</time>
      </trkpt>
      <trkpt lat="44.15094" lon="0.46324">
        <ele>136</ele>
        <time>2022-09-15T08:05:22.129Z</time>
      </trkpt>
      <trkpt lat="44.15094" lon="0.46325">
        <ele>136</ele>
        <time>2022-09-15T08:05:24.129Z</time>
      </trkpt>
      <trkpt lat="44.15093" lon="0.46328">
        <ele>136</ele>
        <time>2022-09-15T08:05:25.129Z</time>
      </trkpt>
      <trkpt lat="44.15092" lon="0.4633">
        <ele>136</ele>
        <time>2022-09-15T08:05:26.129Z</time>
      </trkpt>
      <trkpt lat="44.15091" lon="0.46333">
        <ele>136</ele>
        <time>2022-09-15T08:05:28.129Z</time>
      </trkpt>
      <trkpt lat="44.15091" lon="0.46335">
        <ele>136</ele>
        <time>2022-09-15T08:05:30.129Z</time>
      </trkpt>
      <trkpt lat="44.1509" lon="0.46339">
        <ele>136</ele>
        <time>2022-09-15T08:05:31.129Z</time>
      </trkpt>
      <trkpt lat="44.1509" lon="0.46341">
        <ele>136</ele>
        <time>2022-09-15T08:05:33.129Z</time>
      </trkpt>
      <trkpt lat="44.15089" lon="0.46344">
        <ele>137</ele>
        <time>2022-09-15T08:05:34.129Z</time>
      </trkpt>
      <trkpt lat="44.15089" lon="0.46345">
        <ele>137</ele>
        <time>2022-09-15T08:05:35.129Z</time>
      </trkpt>
      <trkpt lat="44.15088" lon="0.46349">
        <ele>137</ele>
        <time>2022-09-15T08:05:37.129Z</time>
      </trkpt>
      <trkpt lat="44.15088" lon="0.46351">
        <ele>137</ele>
        <time>2022-09-15T08:05:38.129Z</time>
      </trkpt>
      <trkpt lat="44.15088" lon="0.46353">
        <ele>137</ele>
        <time>2022-09-15T08:05:39.129Z</time>
      </trkpt>
      <trkpt lat="44.15087" lon="0.46355">
        <ele>137</ele>
        <time>2022-09-15T08:05:40.129Z</time>
      </trkpt>
      <trkpt lat="44.15087" lon="0.46356">
        <ele>137</ele>
        <time>2022-09-15T08:05:41.129Z</time>
      </trkpt>
      <trkpt lat="44.15087" lon="0.4636">
        <ele>137</ele>
        <time>2022-09-15T08:05:43.129Z</time>
      </trkpt>
      <trkpt lat="44.15086" lon="0.46362">
        <ele>137</ele>
        <time>2022-09-15T08:05:44.129Z</time>
      </trkpt>
      <trkpt lat="44.15086" lon="0.46363">
        <ele>137</ele>
        <time>2022-09-15T08:05:45.129Z</time>
      </trkpt>
      <trkpt lat="44.15086" lon="0.46365">
        <ele>137</ele>
        <time>2022-09-15T08:05:47.129Z</time>
      </trkpt>
      <trkpt lat="44.15085" lon="0.46368">
        <ele>137</ele>
        <time>2022-09-15T08:05:48.129Z</time>
      </trkpt>
      <trkpt lat="44.15085" lon="0.46372">
        <ele>137</ele>
        <time>2022-09-15T08:05:50.129Z</time>
      </trkpt>
      <trkpt lat="44.15085" lon="0.46373">
        <ele>137</ele>
        <time>2022-09-15T08:05:51.129Z</time>
      </trkpt>
      <trkpt lat="44.15085" lon="0.46375">
        <ele>137</ele>
        <time>2022-09-15T08:05:52.129Z</time>
      </trkpt>
      <trkpt lat="44.15085" lon="0.46376">
        <ele>137</ele>
        <time>2022-09-15T08:05:53.129Z</time>
      </trkpt>
      <trkpt lat="44.15085" lon="0.46378">
        <ele>137</ele>
        <time>2022-09-15T08:05:54.129Z</time>
      </trkpt>
      <trkpt lat="44.15085" lon="0.4638">
        <ele>137</ele>
        <time>2022-09-15T08:05:55.129Z</time>
      </trkpt>
      <trkpt lat="44.15085" lon="0.46381">
        <ele>137</ele>
        <time>2022-09-15T08:05:56.129Z</time>
      </trkpt>
      <trkpt lat="44.15085" lon="0.46383">
        <ele>137</ele>
        <time>2022-09-15T08:05:57.129Z</time>
      </trkpt>
      <trkpt lat="44.15085" lon="0.46385">
        <ele>137</ele>
        <time>2022-09-15T08:05:58.129Z</time>
      </trkpt>
      <trkpt lat="44.15084" lon="0.46388">
        <ele>137</ele>
        <time>2022-09-15T08:06:00.129Z</time>
      </trkpt>
      <trkpt lat="44.15084" lon="0.46389">
        <ele>138</ele>
        <time>2022-09-15T08:06:01.129Z</time>
      </trkpt>
      <trkpt lat="44.15084" lon="0.46391">
        <ele>138</ele>
        <time>2022-09-15T08:06:02.129Z</time>
      </trkpt>
      <trkpt lat="44.15084" lon="0.46393">
        <ele>138</ele>
        <time>2022-09-15T08:06:03.129Z</time>
      </trkpt>
      <trkpt lat="44.15084" lon="0.46394">
        <ele>138</ele>
        <time>2022-09-15T08:06:04.129Z</time>
      </trkpt>
      <trkpt lat="44.15084" lon="0.46396">
        <ele>138</ele>
        <time>2022-09-15T08:06:05.129Z</time>
      </trkpt>
      <trkpt lat="44.15084" lon="0.46398">
        <ele>138</ele>
        <time>2022-09-15T08:06:06.129Z</time>
      </trkpt>
      <trkpt lat="44.15084" lon="0.46401">
        <ele>138</ele>
        <time>2022-09-15T08:06:08.129Z</time>
      </trkpt>
      <trkpt lat="44.15084" lon="0.46403">
        <ele>138</ele>
        <time>2022-09-15T08:06:09.129Z</time>
      </trkpt>
      <trkpt lat="44.15084" lon="0.46404">
        <ele>138</ele>
        <time>2022-09-15T08:06:10.129Z</time>
      </trkpt>
      <trkpt lat="44.15084" lon="0.46406">
        <ele>138</ele>
        <time>2022-09-15T08:06:11.129Z</time>
      </trkpt>
      <trkpt lat="44.15084" lon="0.46408">
        <ele>138</ele>
        <time>2022-09-15T08:06:12.129Z</time>
      </trkpt>
      <trkpt lat="44.15084" lon="0.46409">
        <ele>137</ele>
        <time>2022-09-15T08:06:13.129Z</time>
      </trkpt>
      <trkpt lat="44.15084" lon="0.46411">
        <ele>137</ele>
        <time>2022-09-15T08:06:15.129Z</time>
      </trkpt>
      <trkpt lat="44.15084" lon="0.46413">
        <ele>137</ele>
        <time>2022-09-15T08:06:16.129Z</time>
      </trkpt>
      <trkpt lat="44.15084" lon="0.46417">
        <ele>137</ele>
        <time>2022-09-15T08:06:17.129Z</time>
      </trkpt>
      <trkpt lat="44.15084" lon="0.46418">
        <ele>137</ele>
        <time>2022-09-15T08:06:18.129Z</time>
      </trkpt>
      <trkpt lat="44.15084" lon="0.4642">
        <ele>137</ele>
        <time>2022-09-15T08:06:20.129Z</time>
      </trkpt>
      <trkpt lat="44.15084" lon="0.46423">
        <ele>137</ele>
        <time>2022-09-15T08:06:21.129Z</time>
      </trkpt>
      <trkpt lat="44.15084" lon="0.46425">
        <ele>137</ele>
        <time>2022-09-15T08:06:22.129Z</time>
      </trkpt>
      <trkpt lat="44.15085" lon="0.46429">
        <ele>137</ele>
        <time>2022-09-15T08:06:24.129Z</time>
      </trkpt>
      <trkpt lat="44.15085" lon="0.46431">
        <ele>137</ele>
        <time>2022-09-15T08:06:25.129Z</time>
      </trkpt>
      <trkpt lat="44.15085" lon="0.46432">
        <ele>137</ele>
        <time>2022-09-15T08:06:26.129Z</time>
      </trkpt>
      <trkpt lat="44.15085" lon="0.46434">
        <ele>137</ele>
        <time>2022-09-15T08:06:27.129Z</time>
      </trkpt>
      <trkpt lat="44.15085" lon="0.46436">
        <ele>137</ele>
        <time>2022-09-15T08:06:28.129Z</time>
      </trkpt>
      <trkpt lat="44.15085" lon="0.46437">
        <ele>137</ele>
        <time>2022-09-15T08:06:30.129Z</time>
      </trkpt>
      <trkpt lat="44.15085" lon="0.46439">
        <ele>136</ele>
        <time>2022-09-15T08:06:31.129Z</time>
      </trkpt>
      <trkpt lat="44.15085" lon="0.46441">
        <ele>137</ele>
        <time>2022-09-15T08:06:32.129Z</time>
      </trkpt>
      <trkpt lat="44.15085" lon="0.46443">
        <ele>137</ele>
        <time>2022-09-15T08:06:33.129Z</time>
      </trkpt>
      <trkpt lat="44.15086" lon="0.46445">
        <ele>137</ele>
        <time>2022-09-15T08:06:34.129Z</time>
      </trkpt>
      <trkpt lat="44.15085" lon="0.46448">
        <ele>137</ele>
        <time>2022-09-15T08:06:35.129Z</time>
      </trkpt>
      <trkpt lat="44.15085" lon="0.4645">
        <ele>136</ele>
        <time>2022-09-15T08:06:36.129Z</time>
      </trkpt>
      <trkpt lat="44.15085" lon="0.46452">
        <ele>136</ele>
        <time>2022-09-15T08:06:37.129Z</time>
      </trkpt>
      <trkpt lat="44.15085" lon="0.46453">
        <ele>136</ele>
        <time>2022-09-15T08:06:39.129Z</time>
      </trkpt>
      <trkpt lat="44.15085" lon="0.46457">
        <ele>136</ele>
        <time>2022-09-15T08:06:40.129Z</time>
      </trkpt>
      <trkpt lat="44.15085" lon="0.46459">
        <ele>136</ele>
        <time>2022-09-15T08:06:42.129Z</time>
      </trkpt>
      <trkpt lat="44.15085" lon="0.46462">
        <ele>137</ele>
        <time>2022-09-15T08:06:43.129Z</time>
      </trkpt>
      <trkpt lat="44.15086" lon="0.46464">
        <ele>137</ele>
        <time>2022-09-15T08:06:44.129Z</time>
      </trkpt>
      <trkpt lat="44.15086" lon="0.46467">
        <ele>137</ele>
        <time>2022-09-15T08:06:46.129Z</time>
      </trkpt>
      <trkpt lat="44.15086" lon="0.46471">
        <ele>137</ele>
        <time>2022-09-15T08:06:48.129Z</time>
      </trkpt>
      <trkpt lat="44.15086" lon="0.46472">
        <ele>136</ele>
        <time>2022-09-15T08:06:49.129Z</time>
      </trkpt>
      <trkpt lat="44.15086" lon="0.46474">
        <ele>137</ele>
        <time>2022-09-15T08:06:50.129Z</time>
      </trkpt>
      <trkpt lat="44.15086" lon="0.46478">
        <ele>136</ele>
        <time>2022-09-15T08:06:52.129Z</time>
      </trkpt>
      <trkpt lat="44.15087" lon="0.46479">
        <ele>136</ele>
        <time>2022-09-15T08:06:53.129Z</time>
      </trkpt>
      <trkpt lat="44.15087" lon="0.4648">
        <ele>136</ele>
        <time>2022-09-15T08:06:54.129Z</time>
      </trkpt>
      <trkpt lat="44.15087" lon="0.46481">
        <ele>136</ele>
        <time>2022-09-15T08:06:55.129Z</time>
      </trkpt>
      <trkpt lat="44.15087" lon="0.46484">
        <ele>136</ele>
        <time>2022-09-15T08:06:57.129Z</time>
      </trkpt>
      <trkpt lat="44.15087" lon="0.46485">
        <ele>136</ele>
        <time>2022-09-15T08:06:58.129Z</time>
      </trkpt>
      <trkpt lat="44.15088" lon="0.46486">
        <ele>135</ele>
        <time>2022-09-15T08:07:00.129Z</time>
      </trkpt>
      <trkpt lat="44.15088" lon="0.46486">
        <ele>135</ele>
        <time>2022-09-15T08:07:01.129Z</time>
      </trkpt>
      <trkpt lat="44.15089" lon="0.46487">
        <ele>135</ele>
        <time>2022-09-15T08:07:02.129Z</time>
      </trkpt>
      <trkpt lat="44.15089" lon="0.46489">
        <ele>136</ele>
        <time>2022-09-15T08:07:03.129Z</time>
      </trkpt>
      <trkpt lat="44.15089" lon="0.4649">
        <ele>136</ele>
        <time>2022-09-15T08:07:04.129Z</time>
      </trkpt>
      <trkpt lat="44.1509" lon="0.46491">
        <ele>136</ele>
        <time>2022-09-15T08:07:05.129Z</time>
      </trkpt>
      <trkpt lat="44.1509" lon="0.46492">
        <ele>136</ele>
        <time>2022-09-15T08:07:06.129Z</time>
      </trkpt>
      <trkpt lat="44.1509" lon="0.46495">
        <ele>136</ele>
        <time>2022-09-15T08:07:08.129Z</time>
      </trkpt>
      <trkpt lat="44.1509" lon="0.46496">
        <ele>136</ele>
        <time>2022-09-15T08:07:09.129Z</time>
      </trkpt>
      <trkpt lat="44.15091" lon="0.46497">
        <ele>136</ele>
        <time>2022-09-15T08:07:10.129Z</time>
      </trkpt>
      <trkpt lat="44.15091" lon="0.46499">
        <ele>136</ele>
        <time>2022-09-15T08:07:11.129Z</time>
      </trkpt>
      <trkpt lat="44.15091" lon="0.465">
        <ele>136</ele>
        <time>2022-09-15T08:07:12.129Z</time>
      </trkpt>
      <trkpt lat="44.15091" lon="0.46502">
        <ele>136</ele>
        <time>2022-09-15T08:07:13.129Z</time>
      </trkpt>
      <trkpt lat="44.15092" lon="0.46504">
        <ele>136</ele>
        <time>2022-09-15T08:07:14.129Z</time>
      </trkpt>
      <trkpt lat="44.15092" lon="0.46505">
        <ele>136</ele>
        <time>2022-09-15T08:07:15.129Z</time>
      </trkpt>
      <trkpt lat="44.15092" lon="0.46507">
        <ele>136</ele>
        <time>2022-09-15T08:07:16.129Z</time>
      </trkpt>
      <trkpt lat="44.15092" lon="0.4651">
        <ele>136</ele>
        <time>2022-09-15T08:07:18.129Z</time>
      </trkpt>
      <trkpt lat="44.15092" lon="0.46512">
        <ele>135</ele>
        <time>2022-09-15T08:07:19.129Z</time>
      </trkpt>
      <trkpt lat="44.15092" lon="0.46513">
        <ele>135</ele>
        <time>2022-09-15T08:07:20.129Z</time>
      </trkpt>
      <trkpt lat="44.15092" lon="0.46517">
        <ele>135</ele>
        <time>2022-09-15T08:07:22.129Z</time>
      </trkpt>
      <trkpt lat="44.15092" lon="0.4652">
        <ele>134</ele>
        <time>2022-09-15T08:07:24.129Z</time>
      </trkpt>
      <trkpt lat="44.15093" lon="0.46521">
        <ele>134</ele>
        <time>2022-09-15T08:07:25.129Z</time>
      </trkpt>
      <trkpt lat="44.15093" lon="0.46523">
        <ele>134</ele>
        <time>2022-09-15T08:07:26.129Z</time>
      </trkpt>
      <trkpt lat="44.15094" lon="0.46524">
        <ele>135</ele>
        <time>2022-09-15T08:07:27.129Z</time>
      </trkpt>
      <trkpt lat="44.15095" lon="0.46526">
        <ele>135</ele>
        <time>2022-09-15T08:07:28.129Z</time>
      </trkpt>
      <trkpt lat="44.15096" lon="0.46529">
        <ele>135</ele>
        <time>2022-09-15T08:07:30.129Z</time>
      </trkpt>
      <trkpt lat="44.15097" lon="0.4653">
        <ele>135</ele>
        <time>2022-09-15T08:07:31.129Z</time>
      </trkpt>
      <trkpt lat="44.15097" lon="0.46532">
        <ele>135</ele>
        <time>2022-09-15T08:07:32.129Z</time>
      </trkpt>
      <trkpt lat="44.15098" lon="0.46533">
        <ele>135</ele>
        <time>2022-09-15T08:07:33.129Z</time>
      </trkpt>
      <trkpt lat="44.15098" lon="0.46534">
        <ele>135</ele>
        <time>2022-09-15T08:07:34.129Z</time>
      </trkpt>
      <trkpt lat="44.15098" lon="0.46536">
        <ele>135</ele>
        <time>2022-09-15T08:07:35.129Z</time>
      </trkpt>
      <trkpt lat="44.151" lon="0.46538">
        <ele>135</ele>
        <time>2022-09-15T08:07:37.129Z</time>
      </trkpt>
      <trkpt lat="44.15101" lon="0.4654">
        <ele>135</ele>
        <time>2022-09-15T08:07:39.129Z</time>
      </trkpt>
      <trkpt lat="44.15102" lon="0.46542">
        <ele>135</ele>
        <time>2022-09-15T08:07:40.129Z</time>
      </trkpt>
      <trkpt lat="44.15103" lon="0.46545">
        <ele>135</ele>
        <time>2022-09-15T08:07:41.129Z</time>
      </trkpt>
      <trkpt lat="44.15104" lon="0.46546">
        <ele>135</ele>
        <time>2022-09-15T08:07:42.129Z</time>
      </trkpt>
      <trkpt lat="44.15105" lon="0.46548">
        <ele>135</ele>
        <time>2022-09-15T08:07:43.129Z</time>
      </trkpt>
      <trkpt lat="44.15105" lon="0.46549">
        <ele>135</ele>
        <time>2022-09-15T08:07:44.129Z</time>
      </trkpt>
      <trkpt lat="44.15106" lon="0.46552">
        <ele>136</ele>
        <time>2022-09-15T08:07:46.129Z</time>
      </trkpt>
      <trkpt lat="44.15107" lon="0.46555">
        <ele>136</ele>
        <time>2022-09-15T08:07:48.129Z</time>
      </trkpt>
      <trkpt lat="44.15108" lon="0.46557">
        <ele>136</ele>
        <time>2022-09-15T08:07:49.129Z</time>
      </trkpt>
      <trkpt lat="44.15109" lon="0.46559">
        <ele>136</ele>
        <time>2022-09-15T08:07:50.129Z</time>
      </trkpt>
      <trkpt lat="44.1511" lon="0.46561">
        <ele>136</ele>
        <time>2022-09-15T08:07:52.129Z</time>
      </trkpt>
      <trkpt lat="44.1511" lon="0.46563">
        <ele>136</ele>
        <time>2022-09-15T08:07:53.129Z</time>
      </trkpt>
      <trkpt lat="44.15112" lon="0.46566">
        <ele>136</ele>
        <time>2022-09-15T08:07:55.129Z</time>
      </trkpt>
      <trkpt lat="44.15113" lon="0.46567">
        <ele>136</ele>
        <time>2022-09-15T08:07:56.129Z</time>
      </trkpt>
      <trkpt lat="44.15113" lon="0.46569">
        <ele>135</ele>
        <time>2022-09-15T08:07:57.129Z</time>
      </trkpt>
      <trkpt lat="44.15114" lon="0.4657">
        <ele>135</ele>
        <time>2022-09-15T08:07:59.129Z</time>
      </trkpt>
      <trkpt lat="44.15115" lon="0.46572">
        <ele>135</ele>
        <time>2022-09-15T08:08:00.129Z</time>
      </trkpt>
      <trkpt lat="44.15116" lon="0.46573">
        <ele>135</ele>
        <time>2022-09-15T08:08:01.129Z</time>
      </trkpt>
      <trkpt lat="44.15116" lon="0.46575">
        <ele>134</ele>
        <time>2022-09-15T08:08:02.129Z</time>
      </trkpt>
      <trkpt lat="44.15116" lon="0.46576">
        <ele>134</ele>
        <time>2022-09-15T08:08:03.129Z</time>
      </trkpt>
      <trkpt lat="44.15117" lon="0.46577">
        <ele>134</ele>
        <time>2022-09-15T08:08:04.129Z</time>
      </trkpt>
      <trkpt lat="44.15117" lon="0.46578">
        <ele>134</ele>
        <time>2022-09-15T08:08:05.129Z</time>
      </trkpt>
      <trkpt lat="44.15118" lon="0.4658">
        <ele>134</ele>
        <time>2022-09-15T08:08:06.129Z</time>
      </trkpt>
      <trkpt lat="44.15118" lon="0.46581">
        <ele>134</ele>
        <time>2022-09-15T08:08:07.129Z</time>
      </trkpt>
      <trkpt lat="44.15119" lon="0.46582">
        <ele>134</ele>
        <time>2022-09-15T08:08:08.129Z</time>
      </trkpt>
      <trkpt lat="44.15119" lon="0.46583">
        <ele>134</ele>
        <time>2022-09-15T08:08:09.129Z</time>
      </trkpt>
      <trkpt lat="44.15119" lon="0.46584">
        <ele>134</ele>
        <time>2022-09-15T08:08:10.129Z</time>
      </trkpt>
      <trkpt lat="44.1512" lon="0.46585">
        <ele>134</ele>
        <time>2022-09-15T08:08:11.129Z</time>
      </trkpt>
      <trkpt lat="44.1512" lon="0.46586">
        <ele>134</ele>
        <time>2022-09-15T08:08:12.129Z</time>
      </trkpt>
      <trkpt lat="44.15121" lon="0.46587">
        <ele>134</ele>
        <time>2022-09-15T08:08:13.129Z</time>
      </trkpt>
      <trkpt lat="44.15122" lon="0.46588">
        <ele>134</ele>
        <time>2022-09-15T08:08:14.129Z</time>
      </trkpt>
      <trkpt lat="44.15122" lon="0.4659">
        <ele>134</ele>
        <time>2022-09-15T08:08:15.129Z</time>
      </trkpt>
      <trkpt lat="44.15123" lon="0.46591">
        <ele>134</ele>
        <time>2022-09-15T08:08:16.129Z</time>
      </trkpt>
      <trkpt lat="44.15123" lon="0.46592">
        <ele>134</ele>
        <time>2022-09-15T08:08:17.129Z</time>
      </trkpt>
      <trkpt lat="44.15124" lon="0.46593">
        <ele>134</ele>
        <time>2022-09-15T08:08:18.129Z</time>
      </trkpt>
      <trkpt lat="44.15125" lon="0.46595">
        <ele>133</ele>
        <time>2022-09-15T08:08:20.129Z</time>
      </trkpt>
      <trkpt lat="44.15125" lon="0.46596">
        <ele>134</ele>
        <time>2022-09-15T08:08:21.129Z</time>
      </trkpt>
      <trkpt lat="44.15126" lon="0.46597">
        <ele>134</ele>
        <time>2022-09-15T08:08:22.129Z</time>
      </trkpt>
      <trkpt lat="44.15127" lon="0.46598">
        <ele>134</ele>
        <time>2022-09-15T08:08:24.129Z</time>
      </trkpt>
      <trkpt lat="44.15128" lon="0.46599">
        <ele>134</ele>
        <time>2022-09-15T08:08:25.129Z</time>
      </trkpt>
      <trkpt lat="44.15128" lon="0.466">
        <ele>134</ele>
        <time>2022-09-15T08:08:26.129Z</time>
      </trkpt>
      <trkpt lat="44.15129" lon="0.466">
        <ele>133</ele>
        <time>2022-09-15T08:08:27.129Z</time>
      </trkpt>
      <trkpt lat="44.15129" lon="0.46601">
        <ele>133</ele>
        <time>2022-09-15T08:08:28.129Z</time>
      </trkpt>
      <trkpt lat="44.1513" lon="0.46603">
        <ele>133</ele>
        <time>2022-09-15T08:08:30.129Z</time>
      </trkpt>
      <trkpt lat="44.15131" lon="0.46604">
        <ele>133</ele>
        <time>2022-09-15T08:08:31.129Z</time>
      </trkpt>
      <trkpt lat="44.15132" lon="0.46605">
        <ele>133</ele>
        <time>2022-09-15T08:08:32.129Z</time>
      </trkpt>
      <trkpt lat="44.15133" lon="0.46606">
        <ele>133</ele>
        <time>2022-09-15T08:08:33.129Z</time>
      </trkpt>
      <trkpt lat="44.15134" lon="0.46606">
        <ele>133</ele>
        <time>2022-09-15T08:08:34.129Z</time>
      </trkpt>
      <trkpt lat="44.15135" lon="0.46607">
        <ele>134</ele>
        <time>2022-09-15T08:08:35.129Z</time>
      </trkpt>
      <trkpt lat="44.15136" lon="0.46609">
        <ele>134</ele>
        <time>2022-09-15T08:08:36.129Z</time>
      </trkpt>
      <trkpt lat="44.15137" lon="0.4661">
        <ele>133</ele>
        <time>2022-09-15T08:08:37.129Z</time>
      </trkpt>
      <trkpt lat="44.15138" lon="0.46611">
        <ele>134</ele>
        <time>2022-09-15T08:08:38.129Z</time>
      </trkpt>
      <trkpt lat="44.15139" lon="0.46613">
        <ele>133</ele>
        <time>2022-09-15T08:08:39.129Z</time>
      </trkpt>
      <trkpt lat="44.1514" lon="0.46614">
        <ele>134</ele>
        <time>2022-09-15T08:08:40.129Z</time>
      </trkpt>
      <trkpt lat="44.15141" lon="0.46615">
        <ele>134</ele>
        <time>2022-09-15T08:08:41.129Z</time>
      </trkpt>
      <trkpt lat="44.15142" lon="0.46616">
        <ele>134</ele>
        <time>2022-09-15T08:08:42.129Z</time>
      </trkpt>
      <trkpt lat="44.15142" lon="0.46617">
        <ele>134</ele>
        <time>2022-09-15T08:08:43.129Z</time>
      </trkpt>
      <trkpt lat="44.15144" lon="0.46621">
        <ele>134</ele>
        <time>2022-09-15T08:08:45.129Z</time>
      </trkpt>
      <trkpt lat="44.15144" lon="0.46623">
        <ele>134</ele>
        <time>2022-09-15T08:08:46.129Z</time>
      </trkpt>
      <trkpt lat="44.15144" lon="0.46624">
        <ele>134</ele>
        <time>2022-09-15T08:08:47.129Z</time>
      </trkpt>
      <trkpt lat="44.15145" lon="0.46626">
        <ele>134</ele>
        <time>2022-09-15T08:08:48.129Z</time>
      </trkpt>
      <trkpt lat="44.15145" lon="0.46627">
        <ele>134</ele>
        <time>2022-09-15T08:08:49.129Z</time>
      </trkpt>
      <trkpt lat="44.15146" lon="0.46628">
        <ele>134</ele>
        <time>2022-09-15T08:08:51.129Z</time>
      </trkpt>
      <trkpt lat="44.15147" lon="0.46631">
        <ele>134</ele>
        <time>2022-09-15T08:08:52.129Z</time>
      </trkpt>
      <trkpt lat="44.15148" lon="0.46633">
        <ele>134</ele>
        <time>2022-09-15T08:08:53.129Z</time>
      </trkpt>
      <trkpt lat="44.15149" lon="0.46634">
        <ele>134</ele>
        <time>2022-09-15T08:08:54.129Z</time>
      </trkpt>
      <trkpt lat="44.15149" lon="0.46636">
        <ele>134</ele>
        <time>2022-09-15T08:08:55.129Z</time>
      </trkpt>
      <trkpt lat="44.1515" lon="0.46637">
        <ele>134</ele>
        <time>2022-09-15T08:08:56.129Z</time>
      </trkpt>
      <trkpt lat="44.15151" lon="0.46638">
        <ele>134</ele>
        <time>2022-09-15T08:08:57.129Z</time>
      </trkpt>
      <trkpt lat="44.15151" lon="0.4664">
        <ele>134</ele>
        <time>2022-09-15T08:08:58.129Z</time>
      </trkpt>
      <trkpt lat="44.15153" lon="0.46642">
        <ele>134</ele>
        <time>2022-09-15T08:09:00.129Z</time>
      </trkpt>
      <trkpt lat="44.15153" lon="0.46643">
        <ele>133</ele>
        <time>2022-09-15T08:09:01.129Z</time>
      </trkpt>
      <trkpt lat="44.15154" lon="0.46645">
        <ele>134</ele>
        <time>2022-09-15T08:09:02.129Z</time>
      </trkpt>
      <trkpt lat="44.15155" lon="0.46646">
        <ele>133</ele>
        <time>2022-09-15T08:09:03.129Z</time>
      </trkpt>
      <trkpt lat="44.15156" lon="0.46648">
        <ele>133</ele>
        <time>2022-09-15T08:09:04.129Z</time>
      </trkpt>
      <trkpt lat="44.15156" lon="0.46649">
        <ele>133</ele>
        <time>2022-09-15T08:09:05.129Z</time>
      </trkpt>
      <trkpt lat="44.15157" lon="0.46651">
        <ele>133</ele>
        <time>2022-09-15T08:09:06.129Z</time>
      </trkpt>
      <trkpt lat="44.15157" lon="0.46652">
        <ele>133</ele>
        <time>2022-09-15T08:09:07.129Z</time>
      </trkpt>
      <trkpt lat="44.15158" lon="0.46653">
        <ele>133</ele>
        <time>2022-09-15T08:09:08.129Z</time>
      </trkpt>
      <trkpt lat="44.15159" lon="0.46654">
        <ele>133</ele>
        <time>2022-09-15T08:09:09.129Z</time>
      </trkpt>
      <trkpt lat="44.15159" lon="0.46655">
        <ele>133</ele>
        <time>2022-09-15T08:09:10.129Z</time>
      </trkpt>
      <trkpt lat="44.1516" lon="0.46657">
        <ele>133</ele>
        <time>2022-09-15T08:09:11.129Z</time>
      </trkpt>
      <trkpt lat="44.15161" lon="0.46658">
        <ele>133</ele>
        <time>2022-09-15T08:09:12.129Z</time>
      </trkpt>
      <trkpt lat="44.15161" lon="0.46659">
        <ele>132</ele>
        <time>2022-09-15T08:09:13.129Z</time>
      </trkpt>
      <trkpt lat="44.15162" lon="0.46661">
        <ele>132</ele>
        <time>2022-09-15T08:09:14.129Z</time>
      </trkpt>
      <trkpt lat="44.15163" lon="0.46662">
        <ele>132</ele>
        <time>2022-09-15T08:09:15.129Z</time>
      </trkpt>
      <trkpt lat="44.15163" lon="0.46663">
        <ele>132</ele>
        <time>2022-09-15T08:09:16.129Z</time>
      </trkpt>
      <trkpt lat="44.15164" lon="0.46664">
        <ele>132</ele>
        <time>2022-09-15T08:09:17.129Z</time>
      </trkpt>
      <trkpt lat="44.15165" lon="0.46665">
        <ele>132</ele>
        <time>2022-09-15T08:09:18.129Z</time>
      </trkpt>
      <trkpt lat="44.15165" lon="0.46667">
        <ele>132</ele>
        <time>2022-09-15T08:09:19.129Z</time>
      </trkpt>
      <trkpt lat="44.15166" lon="0.46668">
        <ele>132</ele>
        <time>2022-09-15T08:09:20.129Z</time>
      </trkpt>
      <trkpt lat="44.15167" lon="0.4667">
        <ele>132</ele>
        <time>2022-09-15T08:09:21.129Z</time>
      </trkpt>
      <trkpt lat="44.15168" lon="0.46671">
        <ele>131</ele>
        <time>2022-09-15T08:09:22.129Z</time>
      </trkpt>
      <trkpt lat="44.15169" lon="0.46674">
        <ele>131</ele>
        <time>2022-09-15T08:09:24.129Z</time>
      </trkpt>
      <trkpt lat="44.1517" lon="0.46675">
        <ele>131</ele>
        <time>2022-09-15T08:09:25.129Z</time>
      </trkpt>
      <trkpt lat="44.15171" lon="0.46676">
        <ele>131</ele>
        <time>2022-09-15T08:09:26.129Z</time>
      </trkpt>
      <trkpt lat="44.15171" lon="0.46678">
        <ele>131</ele>
        <time>2022-09-15T08:09:27.129Z</time>
      </trkpt>
      <trkpt lat="44.15172" lon="0.46679">
        <ele>130</ele>
        <time>2022-09-15T08:09:28.129Z</time>
      </trkpt>
      <trkpt lat="44.15174" lon="0.46682">
        <ele>130</ele>
        <time>2022-09-15T08:09:30.129Z</time>
      </trkpt>
      <trkpt lat="44.15175" lon="0.46683">
        <ele>130</ele>
        <time>2022-09-15T08:09:31.129Z</time>
      </trkpt>
      <trkpt lat="44.15175" lon="0.46684">
        <ele>130</ele>
        <time>2022-09-15T08:09:32.129Z</time>
      </trkpt>
      <trkpt lat="44.15176" lon="0.46685">
        <ele>130</ele>
        <time>2022-09-15T08:09:33.129Z</time>
      </trkpt>
      <trkpt lat="44.15177" lon="0.46687">
        <ele>130</ele>
        <time>2022-09-15T08:09:34.129Z</time>
      </trkpt>
      <trkpt lat="44.15178" lon="0.46688">
        <ele>130</ele>
        <time>2022-09-15T08:09:35.129Z</time>
      </trkpt>
      <trkpt lat="44.15178" lon="0.4669">
        <ele>130</ele>
        <time>2022-09-15T08:09:36.129Z</time>
      </trkpt>
      <trkpt lat="44.1518" lon="0.46692">
        <ele>130</ele>
        <time>2022-09-15T08:09:38.129Z</time>
      </trkpt>
      <trkpt lat="44.1518" lon="0.46694">
        <ele>130</ele>
        <time>2022-09-15T08:09:39.129Z</time>
      </trkpt>
      <trkpt lat="44.15181" lon="0.46695">
        <ele>130</ele>
        <time>2022-09-15T08:09:40.129Z</time>
      </trkpt>
      <trkpt lat="44.15182" lon="0.46696">
        <ele>130</ele>
        <time>2022-09-15T08:09:41.129Z</time>
      </trkpt>
      <trkpt lat="44.15182" lon="0.46697">
        <ele>130</ele>
        <time>2022-09-15T08:09:42.129Z</time>
      </trkpt>
      <trkpt lat="44.15183" lon="0.46699">
        <ele>130</ele>
        <time>2022-09-15T08:09:43.129Z</time>
      </trkpt>
      <trkpt lat="44.15184" lon="0.467">
        <ele>130</ele>
        <time>2022-09-15T08:09:44.129Z</time>
      </trkpt>
      <trkpt lat="44.15185" lon="0.46701">
        <ele>130</ele>
        <time>2022-09-15T08:09:45.129Z</time>
      </trkpt>
      <trkpt lat="44.15186" lon="0.46703">
        <ele>130</ele>
        <time>2022-09-15T08:09:46.129Z</time>
      </trkpt>
      <trkpt lat="44.15186" lon="0.46704">
        <ele>130</ele>
        <time>2022-09-15T08:09:47.129Z</time>
      </trkpt>
      <trkpt lat="44.15187" lon="0.46706">
        <ele>130</ele>
        <time>2022-09-15T08:09:48.129Z</time>
      </trkpt>
      <trkpt lat="44.15188" lon="0.46707">
        <ele>130</ele>
        <time>2022-09-15T08:09:49.129Z</time>
      </trkpt>
      <trkpt lat="44.15188" lon="0.46708">
        <ele>129</ele>
        <time>2022-09-15T08:09:50.129Z</time>
      </trkpt>
      <trkpt lat="44.15189" lon="0.4671">
        <ele>130</ele>
        <time>2022-09-15T08:09:51.129Z</time>
      </trkpt>
      <trkpt lat="44.1519" lon="0.46711">
        <ele>130</ele>
        <time>2022-09-15T08:09:52.129Z</time>
      </trkpt>
      <trkpt lat="44.1519" lon="0.46712">
        <ele>130</ele>
        <time>2022-09-15T08:09:53.129Z</time>
      </trkpt>
      <trkpt lat="44.15191" lon="0.46714">
        <ele>130</ele>
        <time>2022-09-15T08:09:54.129Z</time>
      </trkpt>
      <trkpt lat="44.15192" lon="0.46715">
        <ele>130</ele>
        <time>2022-09-15T08:09:55.129Z</time>
      </trkpt>
      <trkpt lat="44.15192" lon="0.46716">
        <ele>130</ele>
        <time>2022-09-15T08:09:56.129Z</time>
      </trkpt>
      <trkpt lat="44.15193" lon="0.46717">
        <ele>130</ele>
        <time>2022-09-15T08:09:57.129Z</time>
      </trkpt>
      <trkpt lat="44.15193" lon="0.46718">
        <ele>130</ele>
        <time>2022-09-15T08:09:58.129Z</time>
      </trkpt>
      <trkpt lat="44.15195" lon="0.46721">
        <ele>130</ele>
        <time>2022-09-15T08:10:00.129Z</time>
      </trkpt>
      <trkpt lat="44.15196" lon="0.46722">
        <ele>130</ele>
        <time>2022-09-15T08:10:01.129Z</time>
      </trkpt>
      <trkpt lat="44.15196" lon="0.46723">
        <ele>131</ele>
        <time>2022-09-15T08:10:02.129Z</time>
      </trkpt>
      <trkpt lat="44.15197" lon="0.46725">
        <ele>131</ele>
        <time>2022-09-15T08:10:03.129Z</time>
      </trkpt>
      <trkpt lat="44.15197" lon="0.46726">
        <ele>131</ele>
        <time>2022-09-15T08:10:04.129Z</time>
      </trkpt>
      <trkpt lat="44.15198" lon="0.46727">
        <ele>131</ele>
        <time>2022-09-15T08:10:05.129Z</time>
      </trkpt>
      <trkpt lat="44.15199" lon="0.46728">
        <ele>131</ele>
        <time>2022-09-15T08:10:06.129Z</time>
      </trkpt>
      <trkpt lat="44.152" lon="0.46729">
        <ele>131</ele>
        <time>2022-09-15T08:10:07.129Z</time>
      </trkpt>
      <trkpt lat="44.152" lon="0.4673">
        <ele>131</ele>
        <time>2022-09-15T08:10:08.129Z</time>
      </trkpt>
      <trkpt lat="44.15201" lon="0.46731">
        <ele>131</ele>
        <time>2022-09-15T08:10:09.129Z</time>
      </trkpt>
      <trkpt lat="44.15202" lon="0.46733">
        <ele>131</ele>
        <time>2022-09-15T08:10:10.129Z</time>
      </trkpt>
      <trkpt lat="44.15203" lon="0.46734">
        <ele>131</ele>
        <time>2022-09-15T08:10:11.129Z</time>
      </trkpt>
      <trkpt lat="44.15204" lon="0.46735">
        <ele>131</ele>
        <time>2022-09-15T08:10:12.129Z</time>
      </trkpt>
      <trkpt lat="44.15204" lon="0.46737">
        <ele>131</ele>
        <time>2022-09-15T08:10:13.129Z</time>
      </trkpt>
      <trkpt lat="44.15205" lon="0.46739">
        <ele>131</ele>
        <time>2022-09-15T08:10:15.129Z</time>
      </trkpt>
      <trkpt lat="44.15206" lon="0.4674">
        <ele>130</ele>
        <time>2022-09-15T08:10:16.129Z</time>
      </trkpt>
      <trkpt lat="44.15206" lon="0.46742">
        <ele>131</ele>
        <time>2022-09-15T08:10:17.129Z</time>
      </trkpt>
      <trkpt lat="44.15207" lon="0.46743">
        <ele>131</ele>
        <time>2022-09-15T08:10:18.129Z</time>
      </trkpt>
      <trkpt lat="44.15208" lon="0.46745">
        <ele>130</ele>
        <time>2022-09-15T08:10:19.129Z</time>
      </trkpt>
      <trkpt lat="44.15209" lon="0.46746">
        <ele>131</ele>
        <time>2022-09-15T08:10:20.129Z</time>
      </trkpt>
      <trkpt lat="44.15209" lon="0.46747">
        <ele>131</ele>
        <time>2022-09-15T08:10:21.129Z</time>
      </trkpt>
      <trkpt lat="44.1521" lon="0.46748">
        <ele>131</ele>
        <time>2022-09-15T08:10:22.129Z</time>
      </trkpt>
      <trkpt lat="44.15211" lon="0.46751">
        <ele>131</ele>
        <time>2022-09-15T08:10:24.129Z</time>
      </trkpt>
      <trkpt lat="44.15212" lon="0.46752">
        <ele>131</ele>
        <time>2022-09-15T08:10:25.129Z</time>
      </trkpt>
      <trkpt lat="44.15212" lon="0.46754">
        <ele>131</ele>
        <time>2022-09-15T08:10:26.129Z</time>
      </trkpt>
      <trkpt lat="44.15213" lon="0.46755">
        <ele>131</ele>
        <time>2022-09-15T08:10:27.129Z</time>
      </trkpt>
      <trkpt lat="44.15213" lon="0.46756">
        <ele>132</ele>
        <time>2022-09-15T08:10:28.129Z</time>
      </trkpt>
      <trkpt lat="44.15215" lon="0.46759">
        <ele>132</ele>
        <time>2022-09-15T08:10:30.129Z</time>
      </trkpt>
      <trkpt lat="44.15215" lon="0.4676">
        <ele>132</ele>
        <time>2022-09-15T08:10:31.129Z</time>
      </trkpt>
      <trkpt lat="44.15216" lon="0.46761">
        <ele>132</ele>
        <time>2022-09-15T08:10:32.129Z</time>
      </trkpt>
      <trkpt lat="44.15216" lon="0.46763">
        <ele>133</ele>
        <time>2022-09-15T08:10:33.129Z</time>
      </trkpt>
      <trkpt lat="44.15217" lon="0.46764">
        <ele>132</ele>
        <time>2022-09-15T08:10:34.129Z</time>
      </trkpt>
      <trkpt lat="44.15217" lon="0.46766">
        <ele>132</ele>
        <time>2022-09-15T08:10:35.129Z</time>
      </trkpt>
      <trkpt lat="44.15218" lon="0.46767">
        <ele>132</ele>
        <time>2022-09-15T08:10:36.129Z</time>
      </trkpt>
      <trkpt lat="44.15218" lon="0.46768">
        <ele>132</ele>
        <time>2022-09-15T08:10:37.129Z</time>
      </trkpt>
      <trkpt lat="44.15219" lon="0.4677">
        <ele>133</ele>
        <time>2022-09-15T08:10:38.129Z</time>
      </trkpt>
      <trkpt lat="44.15219" lon="0.46771">
        <ele>133</ele>
        <time>2022-09-15T08:10:39.129Z</time>
      </trkpt>
      <trkpt lat="44.1522" lon="0.46772">
        <ele>133</ele>
        <time>2022-09-15T08:10:40.129Z</time>
      </trkpt>
      <trkpt lat="44.1522" lon="0.46773">
        <ele>133</ele>
        <time>2022-09-15T08:10:41.129Z</time>
      </trkpt>
      <trkpt lat="44.15221" lon="0.46775">
        <ele>133</ele>
        <time>2022-09-15T08:10:42.129Z</time>
      </trkpt>
      <trkpt lat="44.15221" lon="0.46776">
        <ele>133</ele>
        <time>2022-09-15T08:10:43.129Z</time>
      </trkpt>
      <trkpt lat="44.15222" lon="0.46778">
        <ele>133</ele>
        <time>2022-09-15T08:10:44.129Z</time>
      </trkpt>
      <trkpt lat="44.15222" lon="0.46779">
        <ele>133</ele>
        <time>2022-09-15T08:10:45.129Z</time>
      </trkpt>
      <trkpt lat="44.15223" lon="0.4678">
        <ele>133</ele>
        <time>2022-09-15T08:10:46.129Z</time>
      </trkpt>
      <trkpt lat="44.15224" lon="0.46782">
        <ele>133</ele>
        <time>2022-09-15T08:10:48.129Z</time>
      </trkpt>
      <trkpt lat="44.15225" lon="0.46783">
        <ele>133</ele>
        <time>2022-09-15T08:10:49.129Z</time>
      </trkpt>
      <trkpt lat="44.15225" lon="0.46784">
        <ele>133</ele>
        <time>2022-09-15T08:10:50.129Z</time>
      </trkpt>
      <trkpt lat="44.15226" lon="0.46785">
        <ele>133</ele>
        <time>2022-09-15T08:10:51.129Z</time>
      </trkpt>
      <trkpt lat="44.15227" lon="0.46786">
        <ele>133</ele>
        <time>2022-09-15T08:10:52.129Z</time>
      </trkpt>
      <trkpt lat="44.15227" lon="0.46787">
        <ele>133</ele>
        <time>2022-09-15T08:10:53.129Z</time>
      </trkpt>
      <trkpt lat="44.15228" lon="0.46788">
        <ele>133</ele>
        <time>2022-09-15T08:10:54.129Z</time>
      </trkpt>
      <trkpt lat="44.1523" lon="0.46789">
        <ele>133</ele>
        <time>2022-09-15T08:10:56.129Z</time>
      </trkpt>
      <trkpt lat="44.15231" lon="0.4679">
        <ele>133</ele>
        <time>2022-09-15T08:10:57.129Z</time>
      </trkpt>
      <trkpt lat="44.15231" lon="0.46791">
        <ele>134</ele>
        <time>2022-09-15T08:10:58.129Z</time>
      </trkpt>
      <trkpt lat="44.15233" lon="0.46793">
        <ele>134</ele>
        <time>2022-09-15T08:11:00.129Z</time>
      </trkpt>
      <trkpt lat="44.15233" lon="0.46795">
        <ele>134</ele>
        <time>2022-09-15T08:11:01.129Z</time>
      </trkpt>
      <trkpt lat="44.15234" lon="0.46796">
        <ele>133</ele>
        <time>2022-09-15T08:11:02.129Z</time>
      </trkpt>
      <trkpt lat="44.15235" lon="0.46797">
        <ele>133</ele>
        <time>2022-09-15T08:11:03.129Z</time>
      </trkpt>
      <trkpt lat="44.15235" lon="0.46798">
        <ele>133</ele>
        <time>2022-09-15T08:11:04.129Z</time>
      </trkpt>
      <trkpt lat="44.15235" lon="0.46799">
        <ele>133</ele>
        <time>2022-09-15T08:11:05.129Z</time>
      </trkpt>
      <trkpt lat="44.15236" lon="0.468">
        <ele>133</ele>
        <time>2022-09-15T08:11:06.129Z</time>
      </trkpt>
      <trkpt lat="44.15236" lon="0.46802">
        <ele>133</ele>
        <time>2022-09-15T08:11:07.129Z</time>
      </trkpt>
      <trkpt lat="44.15236" lon="0.46803">
        <ele>133</ele>
        <time>2022-09-15T08:11:08.129Z</time>
      </trkpt>
      <trkpt lat="44.15237" lon="0.46804">
        <ele>133</ele>
        <time>2022-09-15T08:11:09.129Z</time>
      </trkpt>
      <trkpt lat="44.15236" lon="0.46805">
        <ele>133</ele>
        <time>2022-09-15T08:11:10.129Z</time>
      </trkpt>
      <trkpt lat="44.15236" lon="0.46805">
        <ele>132</ele>
        <time>2022-09-15T08:11:11.129Z</time>
      </trkpt>
      <trkpt lat="44.15236" lon="0.46806">
        <ele>132</ele>
        <time>2022-09-15T08:11:12.129Z</time>
      </trkpt>
      <trkpt lat="44.15236" lon="0.46806">
        <ele>132</ele>
        <time>2022-09-15T08:11:13.129Z</time>
      </trkpt>
      <trkpt lat="44.15236" lon="0.46807">
        <ele>132</ele>
        <time>2022-09-15T08:11:14.129Z</time>
      </trkpt>
      <trkpt lat="44.15236" lon="0.46808">
        <ele>132</ele>
        <time>2022-09-15T08:11:15.129Z</time>
      </trkpt>
      <trkpt lat="44.15235" lon="0.46809">
        <ele>132</ele>
        <time>2022-09-15T08:11:16.129Z</time>
      </trkpt>
      <trkpt lat="44.15235" lon="0.4681">
        <ele>132</ele>
        <time>2022-09-15T08:11:17.129Z</time>
      </trkpt>
      <trkpt lat="44.15234" lon="0.46811">
        <ele>131</ele>
        <time>2022-09-15T08:11:18.129Z</time>
      </trkpt>
      <trkpt lat="44.15234" lon="0.46812">
        <ele>131</ele>
        <time>2022-09-15T08:11:19.129Z</time>
      </trkpt>
      <trkpt lat="44.15234" lon="0.46813">
        <ele>130</ele>
        <time>2022-09-15T08:11:20.129Z</time>
      </trkpt>
      <trkpt lat="44.15233" lon="0.46814">
        <ele>130</ele>
        <time>2022-09-15T08:11:21.129Z</time>
      </trkpt>
      <trkpt lat="44.15233" lon="0.46815">
        <ele>130</ele>
        <time>2022-09-15T08:11:22.129Z</time>
      </trkpt>
      <trkpt lat="44.15233" lon="0.46816">
        <ele>130</ele>
        <time>2022-09-15T08:11:23.129Z</time>
      </trkpt>
      <trkpt lat="44.15232" lon="0.46817">
        <ele>131</ele>
        <time>2022-09-15T08:11:24.129Z</time>
      </trkpt>
      <trkpt lat="44.15232" lon="0.46818">
        <ele>130</ele>
        <time>2022-09-15T08:11:25.129Z</time>
      </trkpt>
      <trkpt lat="44.15231" lon="0.46819">
        <ele>130</ele>
        <time>2022-09-15T08:11:26.129Z</time>
      </trkpt>
      <trkpt lat="44.15231" lon="0.4682">
        <ele>130</ele>
        <time>2022-09-15T08:11:27.129Z</time>
      </trkpt>
      <trkpt lat="44.1523" lon="0.46821">
        <ele>130</ele>
        <time>2022-09-15T08:11:28.129Z</time>
      </trkpt>
      <trkpt lat="44.1523" lon="0.46821">
        <ele>129</ele>
        <time>2022-09-15T08:11:29.129Z</time>
      </trkpt>
      <trkpt lat="44.1523" lon="0.46821">
        <ele>129</ele>
        <time>2022-09-15T08:11:30.129Z</time>
      </trkpt>
      <trkpt lat="44.1523" lon="0.46821">
        <ele>129</ele>
        <time>2022-09-15T08:11:31.129Z</time>
      </trkpt>
      <trkpt lat="44.1523" lon="0.46821">
        <ele>129</ele>
        <time>2022-09-15T08:11:32.129Z</time>
      </trkpt>
      <trkpt lat="44.1523" lon="0.46821">
        <ele>129</ele>
        <time>2022-09-15T08:11:33.129Z</time>
      </trkpt>
      <trkpt lat="44.1523" lon="0.46821">
        <ele>129</ele>
        <time>2022-09-15T08:11:34.129Z</time>
      </trkpt>
      <trkpt lat="44.15226" lon="0.46823">
        <ele>128</ele>
        <time>2022-09-15T08:11:48.144Z</time>
      </trkpt>
      <trkpt lat="44.15225" lon="0.46824">
        <ele>128</ele>
        <time>2022-09-15T08:11:49.144Z</time>
      </trkpt>
      <trkpt lat="44.15225" lon="0.46825">
        <ele>128</ele>
        <time>2022-09-15T08:11:50.144Z</time>
      </trkpt>
      <trkpt lat="44.15224" lon="0.46826">
        <ele>128</ele>
        <time>2022-09-15T08:11:51.144Z</time>
      </trkpt>
      <trkpt lat="44.15223" lon="0.46827">
        <ele>128</ele>
        <time>2022-09-15T08:11:52.144Z</time>
      </trkpt>
      <trkpt lat="44.15223" lon="0.46828">
        <ele>128</ele>
        <time>2022-09-15T08:11:53.144Z</time>
      </trkpt>
      <trkpt lat="44.15223" lon="0.46828">
        <ele>129</ele>
        <time>2022-09-15T08:11:54.144Z</time>
      </trkpt>
      <trkpt lat="44.15222" lon="0.46828">
        <ele>129</ele>
        <time>2022-09-15T08:11:55.144Z</time>
      </trkpt>
      <trkpt lat="44.15222" lon="0.46828">
        <ele>129</ele>
        <time>2022-09-15T08:11:56.144Z</time>
      </trkpt>
      <trkpt lat="44.15222" lon="0.46828">
        <ele>129</ele>
        <time>2022-09-15T08:11:57.144Z</time>
      </trkpt>
      <trkpt lat="44.15222" lon="0.46828">
        <ele>129</ele>
        <time>2022-09-15T08:11:58.144Z</time>
      </trkpt>
      <trkpt lat="44.15222" lon="0.46829">
        <ele>130</ele>
        <time>2022-09-15T08:11:59.144Z</time>
      </trkpt>
      <trkpt lat="44.15222" lon="0.46829">
        <ele>130</ele>
        <time>2022-09-15T08:12:00.144Z</time>
      </trkpt>
      <trkpt lat="44.15219" lon="0.46833">
        <ele>127</ele>
        <time>2022-09-15T08:12:20.163Z</time>
      </trkpt>
      <trkpt lat="44.15219" lon="0.46834">
        <ele>126</ele>
        <time>2022-09-15T08:12:21.163Z</time>
      </trkpt>
      <trkpt lat="44.15218" lon="0.46834">
        <ele>126</ele>
        <time>2022-09-15T08:12:22.163Z</time>
      </trkpt>
      <trkpt lat="44.15218" lon="0.46835">
        <ele>126</ele>
        <time>2022-09-15T08:12:24.163Z</time>
      </trkpt>
      <trkpt lat="44.15218" lon="0.46835">
        <ele>126</ele>
        <time>2022-09-15T08:12:25.163Z</time>
      </trkpt>
      <trkpt lat="44.15218" lon="0.46835">
        <ele>126</ele>
        <time>2022-09-15T08:12:26.163Z</time>
      </trkpt>
      <trkpt lat="44.15218" lon="0.46835">
        <ele>126</ele>
        <time>2022-09-15T08:12:27.163Z</time>
      </trkpt>
      <trkpt lat="44.15218" lon="0.46835">
        <ele>126</ele>
        <time>2022-09-15T08:12:28.163Z</time>
      </trkpt>
      <trkpt lat="44.15219" lon="0.46837">
        <ele>127</ele>
        <time>2022-09-15T08:12:30.163Z</time>
      </trkpt>
      <trkpt lat="44.15219" lon="0.46839">
        <ele>127</ele>
        <time>2022-09-15T08:12:31.163Z</time>
      </trkpt>
      <trkpt lat="44.15219" lon="0.4684">
        <ele>127</ele>
        <time>2022-09-15T08:12:32.163Z</time>
      </trkpt>
      <trkpt lat="44.15219" lon="0.46841">
        <ele>128</ele>
        <time>2022-09-15T08:12:33.163Z</time>
      </trkpt>
      <trkpt lat="44.15219" lon="0.46843">
        <ele>128</ele>
        <time>2022-09-15T08:12:34.163Z</time>
      </trkpt>
      <trkpt lat="44.15219" lon="0.46844">
        <ele>129</ele>
        <time>2022-09-15T08:12:35.163Z</time>
      </trkpt>
      <trkpt lat="44.15218" lon="0.46845">
        <ele>128</ele>
        <time>2022-09-15T08:12:36.163Z</time>
      </trkpt>
      <trkpt lat="44.15218" lon="0.46847">
        <ele>128</ele>
        <time>2022-09-15T08:12:37.163Z</time>
      </trkpt>
      <trkpt lat="44.15218" lon="0.46848">
        <ele>128</ele>
        <time>2022-09-15T08:12:38.163Z</time>
      </trkpt>
      <trkpt lat="44.15217" lon="0.46848">
        <ele>128</ele>
        <time>2022-09-15T08:12:39.163Z</time>
      </trkpt>
      <trkpt lat="44.15217" lon="0.46849">
        <ele>128</ele>
        <time>2022-09-15T08:12:40.163Z</time>
      </trkpt>
      <trkpt lat="44.15217" lon="0.4685">
        <ele>128</ele>
        <time>2022-09-15T08:12:41.163Z</time>
      </trkpt>
      <trkpt lat="44.15217" lon="0.46851">
        <ele>128</ele>
        <time>2022-09-15T08:12:42.163Z</time>
      </trkpt>
      <trkpt lat="44.15216" lon="0.46852">
        <ele>128</ele>
        <time>2022-09-15T08:12:43.163Z</time>
      </trkpt>
      <trkpt lat="44.15216" lon="0.46853">
        <ele>128</ele>
        <time>2022-09-15T08:12:44.163Z</time>
      </trkpt>
      <trkpt lat="44.15215" lon="0.46854">
        <ele>128</ele>
        <time>2022-09-15T08:12:45.163Z</time>
      </trkpt>
      <trkpt lat="44.15215" lon="0.46855">
        <ele>127</ele>
        <time>2022-09-15T08:12:46.163Z</time>
      </trkpt>
      <trkpt lat="44.15214" lon="0.46856">
        <ele>128</ele>
        <time>2022-09-15T08:12:47.163Z</time>
      </trkpt>
      <trkpt lat="44.15213" lon="0.46857">
        <ele>128</ele>
        <time>2022-09-15T08:12:48.163Z</time>
      </trkpt>
      <trkpt lat="44.15213" lon="0.46859">
        <ele>128</ele>
        <time>2022-09-15T08:12:49.163Z</time>
      </trkpt>
      <trkpt lat="44.15212" lon="0.4686">
        <ele>128</ele>
        <time>2022-09-15T08:12:50.163Z</time>
      </trkpt>
      <trkpt lat="44.15212" lon="0.46861">
        <ele>128</ele>
        <time>2022-09-15T08:12:51.163Z</time>
      </trkpt>
      <trkpt lat="44.15211" lon="0.46863">
        <ele>128</ele>
        <time>2022-09-15T08:12:52.163Z</time>
      </trkpt>
      <trkpt lat="44.15211" lon="0.46864">
        <ele>129</ele>
        <time>2022-09-15T08:12:53.163Z</time>
      </trkpt>
      <trkpt lat="44.1521" lon="0.46865">
        <ele>128</ele>
        <time>2022-09-15T08:12:54.163Z</time>
      </trkpt>
      <trkpt lat="44.15209" lon="0.46866">
        <ele>128</ele>
        <time>2022-09-15T08:12:55.163Z</time>
      </trkpt>
      <trkpt lat="44.15209" lon="0.46867">
        <ele>129</ele>
        <time>2022-09-15T08:12:56.163Z</time>
      </trkpt>
      <trkpt lat="44.15208" lon="0.46868">
        <ele>128</ele>
        <time>2022-09-15T08:12:57.163Z</time>
      </trkpt>
      <trkpt lat="44.15207" lon="0.46869">
        <ele>128</ele>
        <time>2022-09-15T08:12:58.163Z</time>
      </trkpt>
      <trkpt lat="44.15206" lon="0.4687">
        <ele>128</ele>
        <time>2022-09-15T08:12:59.163Z</time>
      </trkpt>
      <trkpt lat="44.15205" lon="0.46871">
        <ele>128</ele>
        <time>2022-09-15T08:13:00.163Z</time>
      </trkpt>
      <trkpt lat="44.15204" lon="0.46872">
        <ele>128</ele>
        <time>2022-09-15T08:13:01.163Z</time>
      </trkpt>
      <trkpt lat="44.15204" lon="0.46873">
        <ele>128</ele>
        <time>2022-09-15T08:13:02.163Z</time>
      </trkpt>
      <trkpt lat="44.15203" lon="0.46874">
        <ele>128</ele>
        <time>2022-09-15T08:13:03.163Z</time>
      </trkpt>
      <trkpt lat="44.15202" lon="0.46875">
        <ele>128</ele>
        <time>2022-09-15T08:13:04.163Z</time>
      </trkpt>
      <trkpt lat="44.15201" lon="0.46875">
        <ele>128</ele>
        <time>2022-09-15T08:13:05.163Z</time>
      </trkpt>
      <trkpt lat="44.15201" lon="0.46876">
        <ele>128</ele>
        <time>2022-09-15T08:13:06.163Z</time>
      </trkpt>
      <trkpt lat="44.15201" lon="0.46877">
        <ele>128</ele>
        <time>2022-09-15T08:13:07.163Z</time>
      </trkpt>
      <trkpt lat="44.152" lon="0.46878">
        <ele>129</ele>
        <time>2022-09-15T08:13:08.163Z</time>
      </trkpt>
      <trkpt lat="44.15199" lon="0.46878">
        <ele>128</ele>
        <time>2022-09-15T08:13:09.163Z</time>
      </trkpt>
      <trkpt lat="44.15199" lon="0.46879">
        <ele>129</ele>
        <time>2022-09-15T08:13:10.163Z</time>
      </trkpt>
      <trkpt lat="44.15198" lon="0.4688">
        <ele>129</ele>
        <time>2022-09-15T08:13:11.163Z</time>
      </trkpt>
      <trkpt lat="44.15197" lon="0.46881">
        <ele>129</ele>
        <time>2022-09-15T08:13:12.163Z</time>
      </trkpt>
      <trkpt lat="44.15196" lon="0.46882">
        <ele>128</ele>
        <time>2022-09-15T08:13:13.163Z</time>
      </trkpt>
      <trkpt lat="44.15195" lon="0.46882">
        <ele>127</ele>
        <time>2022-09-15T08:13:14.163Z</time>
      </trkpt>
      <trkpt lat="44.15194" lon="0.46883">
        <ele>127</ele>
        <time>2022-09-15T08:13:15.163Z</time>
      </trkpt>
      <trkpt lat="44.15193" lon="0.46884">
        <ele>127</ele>
        <time>2022-09-15T08:13:16.163Z</time>
      </trkpt>
      <trkpt lat="44.15192" lon="0.46885">
        <ele>127</ele>
        <time>2022-09-15T08:13:17.163Z</time>
      </trkpt>
      <trkpt lat="44.15191" lon="0.46886">
        <ele>127</ele>
        <time>2022-09-15T08:13:18.163Z</time>
      </trkpt>
      <trkpt lat="44.1519" lon="0.46887">
        <ele>127</ele>
        <time>2022-09-15T08:13:19.163Z</time>
      </trkpt>
      <trkpt lat="44.15189" lon="0.46888">
        <ele>127</ele>
        <time>2022-09-15T08:13:20.163Z</time>
      </trkpt>
      <trkpt lat="44.15189" lon="0.46889">
        <ele>128</ele>
        <time>2022-09-15T08:13:21.163Z</time>
      </trkpt>
      <trkpt lat="44.15188" lon="0.4689">
        <ele>128</ele>
        <time>2022-09-15T08:13:22.163Z</time>
      </trkpt>
      <trkpt lat="44.15188" lon="0.46891">
        <ele>129</ele>
        <time>2022-09-15T08:13:23.163Z</time>
      </trkpt>
      <trkpt lat="44.15187" lon="0.46892">
        <ele>128</ele>
        <time>2022-09-15T08:13:24.163Z</time>
      </trkpt>
      <trkpt lat="44.15186" lon="0.46893">
        <ele>129</ele>
        <time>2022-09-15T08:13:25.163Z</time>
      </trkpt>
      <trkpt lat="44.15186" lon="0.46894">
        <ele>129</ele>
        <time>2022-09-15T08:13:26.163Z</time>
      </trkpt>
      <trkpt lat="44.15185" lon="0.46895">
        <ele>129</ele>
        <time>2022-09-15T08:13:27.163Z</time>
      </trkpt>
      <trkpt lat="44.15184" lon="0.46896">
        <ele>128</ele>
        <time>2022-09-15T08:13:28.163Z</time>
      </trkpt>
      <trkpt lat="44.15183" lon="0.46897">
        <ele>129</ele>
        <time>2022-09-15T08:13:29.163Z</time>
      </trkpt>
      <trkpt lat="44.15183" lon="0.46897">
        <ele>129</ele>
        <time>2022-09-15T08:13:30.163Z</time>
      </trkpt>
      <trkpt lat="44.15183" lon="0.46897">
        <ele>129</ele>
        <time>2022-09-15T08:13:31.163Z</time>
      </trkpt>
      <trkpt lat="44.15183" lon="0.46897">
        <ele>129</ele>
        <time>2022-09-15T08:13:32.163Z</time>
      </trkpt>
      <trkpt lat="44.15183" lon="0.46897">
        <ele>129</ele>
        <time>2022-09-15T08:13:33.163Z</time>
      </trkpt>
      <trkpt lat="44.15183" lon="0.46897">
        <ele>129</ele>
        <time>2022-09-15T08:13:34.163Z</time>
      </trkpt>
      <trkpt lat="44.15185" lon="0.469">
        <ele>130</ele>
        <time>2022-09-15T08:13:55.171Z</time>
      </trkpt>
      <trkpt lat="44.15185" lon="0.46901">
        <ele>130</ele>
        <time>2022-09-15T08:13:56.171Z</time>
      </trkpt>
      <trkpt lat="44.15185" lon="0.46903">
        <ele>130</ele>
        <time>2022-09-15T08:13:57.171Z</time>
      </trkpt>
      <trkpt lat="44.15185" lon="0.46904">
        <ele>131</ele>
        <time>2022-09-15T08:13:58.171Z</time>
      </trkpt>
      <trkpt lat="44.15184" lon="0.46905">
        <ele>131</ele>
        <time>2022-09-15T08:13:59.171Z</time>
      </trkpt>
      <trkpt lat="44.15184" lon="0.46907">
        <ele>132</ele>
        <time>2022-09-15T08:14:00.171Z</time>
      </trkpt>
      <trkpt lat="44.15184" lon="0.46909">
        <ele>132</ele>
        <time>2022-09-15T08:14:01.171Z</time>
      </trkpt>
      <trkpt lat="44.15184" lon="0.46911">
        <ele>132</ele>
        <time>2022-09-15T08:14:02.171Z</time>
      </trkpt>
      <trkpt lat="44.15184" lon="0.46912">
        <ele>133</ele>
        <time>2022-09-15T08:14:03.171Z</time>
      </trkpt>
      <trkpt lat="44.15184" lon="0.46914">
        <ele>133</ele>
        <time>2022-09-15T08:14:04.171Z</time>
      </trkpt>
      <trkpt lat="44.15183" lon="0.46915">
        <ele>133</ele>
        <time>2022-09-15T08:14:05.171Z</time>
      </trkpt>
      <trkpt lat="44.15183" lon="0.46916">
        <ele>134</ele>
        <time>2022-09-15T08:14:06.171Z</time>
      </trkpt>
      <trkpt lat="44.15183" lon="0.46918">
        <ele>134</ele>
        <time>2022-09-15T08:14:07.171Z</time>
      </trkpt>
      <trkpt lat="44.15183" lon="0.46919">
        <ele>134</ele>
        <time>2022-09-15T08:14:08.171Z</time>
      </trkpt>
      <trkpt lat="44.15183" lon="0.46921">
        <ele>134</ele>
        <time>2022-09-15T08:14:09.171Z</time>
      </trkpt>
      <trkpt lat="44.15183" lon="0.46922">
        <ele>134</ele>
        <time>2022-09-15T08:14:10.171Z</time>
      </trkpt>
      <trkpt lat="44.15183" lon="0.46923">
        <ele>135</ele>
        <time>2022-09-15T08:14:11.171Z</time>
      </trkpt>
      <trkpt lat="44.15182" lon="0.46925">
        <ele>135</ele>
        <time>2022-09-15T08:14:12.171Z</time>
      </trkpt>
      <trkpt lat="44.15182" lon="0.46926">
        <ele>135</ele>
        <time>2022-09-15T08:14:13.171Z</time>
      </trkpt>
      <trkpt lat="44.15181" lon="0.46928">
        <ele>135</ele>
        <time>2022-09-15T08:14:14.171Z</time>
      </trkpt>
      <trkpt lat="44.15181" lon="0.46929">
        <ele>136</ele>
        <time>2022-09-15T08:14:15.171Z</time>
      </trkpt>
      <trkpt lat="44.15181" lon="0.46931">
        <ele>136</ele>
        <time>2022-09-15T08:14:16.171Z</time>
      </trkpt>
      <trkpt lat="44.1518" lon="0.46932">
        <ele>137</ele>
        <time>2022-09-15T08:14:17.171Z</time>
      </trkpt>
      <trkpt lat="44.1518" lon="0.46933">
        <ele>136</ele>
        <time>2022-09-15T08:14:18.171Z</time>
      </trkpt>
      <trkpt lat="44.1518" lon="0.46935">
        <ele>137</ele>
        <time>2022-09-15T08:14:19.171Z</time>
      </trkpt>
      <trkpt lat="44.1518" lon="0.46937">
        <ele>137</ele>
        <time>2022-09-15T08:14:20.171Z</time>
      </trkpt>
      <trkpt lat="44.1518" lon="0.46939">
        <ele>137</ele>
        <time>2022-09-15T08:14:21.171Z</time>
      </trkpt>
      <trkpt lat="44.15179" lon="0.46941">
        <ele>138</ele>
        <time>2022-09-15T08:14:22.171Z</time>
      </trkpt>
      <trkpt lat="44.15179" lon="0.46944">
        <ele>137</ele>
        <time>2022-09-15T08:14:24.171Z</time>
      </trkpt>
      <trkpt lat="44.15178" lon="0.46945">
        <ele>138</ele>
        <time>2022-09-15T08:14:25.171Z</time>
      </trkpt>
      <trkpt lat="44.15178" lon="0.46947">
        <ele>138</ele>
        <time>2022-09-15T08:14:26.171Z</time>
      </trkpt>
      <trkpt lat="44.15178" lon="0.46948">
        <ele>138</ele>
        <time>2022-09-15T08:14:27.171Z</time>
      </trkpt>
      <trkpt lat="44.15177" lon="0.46949">
        <ele>138</ele>
        <time>2022-09-15T08:14:28.171Z</time>
      </trkpt>
      <trkpt lat="44.15177" lon="0.46951">
        <ele>138</ele>
        <time>2022-09-15T08:14:29.171Z</time>
      </trkpt>
      <trkpt lat="44.15177" lon="0.46952">
        <ele>138</ele>
        <time>2022-09-15T08:14:30.171Z</time>
      </trkpt>
      <trkpt lat="44.15176" lon="0.46953">
        <ele>138</ele>
        <time>2022-09-15T08:14:31.171Z</time>
      </trkpt>
      <trkpt lat="44.15176" lon="0.46955">
        <ele>138</ele>
        <time>2022-09-15T08:14:32.171Z</time>
      </trkpt>
      <trkpt lat="44.15176" lon="0.46956">
        <ele>139</ele>
        <time>2022-09-15T08:14:33.171Z</time>
      </trkpt>
      <trkpt lat="44.15175" lon="0.46957">
        <ele>139</ele>
        <time>2022-09-15T08:14:34.171Z</time>
      </trkpt>
      <trkpt lat="44.15175" lon="0.46958">
        <ele>139</ele>
        <time>2022-09-15T08:14:35.171Z</time>
      </trkpt>
      <trkpt lat="44.15174" lon="0.46959">
        <ele>139</ele>
        <time>2022-09-15T08:14:36.171Z</time>
      </trkpt>
      <trkpt lat="44.15174" lon="0.4696">
        <ele>139</ele>
        <time>2022-09-15T08:14:37.171Z</time>
      </trkpt>
      <trkpt lat="44.15174" lon="0.46962">
        <ele>139</ele>
        <time>2022-09-15T08:14:38.171Z</time>
      </trkpt>
      <trkpt lat="44.15173" lon="0.46963">
        <ele>139</ele>
        <time>2022-09-15T08:14:39.171Z</time>
      </trkpt>
      <trkpt lat="44.15173" lon="0.46964">
        <ele>139</ele>
        <time>2022-09-15T08:14:40.171Z</time>
      </trkpt>
      <trkpt lat="44.15173" lon="0.46966">
        <ele>139</ele>
        <time>2022-09-15T08:14:41.171Z</time>
      </trkpt>
      <trkpt lat="44.15173" lon="0.46967">
        <ele>139</ele>
        <time>2022-09-15T08:14:42.171Z</time>
      </trkpt>
      <trkpt lat="44.15172" lon="0.46969">
        <ele>139</ele>
        <time>2022-09-15T08:14:43.171Z</time>
      </trkpt>
      <trkpt lat="44.15172" lon="0.4697">
        <ele>139</ele>
        <time>2022-09-15T08:14:44.171Z</time>
      </trkpt>
      <trkpt lat="44.15172" lon="0.46972">
        <ele>139</ele>
        <time>2022-09-15T08:14:45.171Z</time>
      </trkpt>
      <trkpt lat="44.15171" lon="0.46973">
        <ele>139</ele>
        <time>2022-09-15T08:14:46.171Z</time>
      </trkpt>
      <trkpt lat="44.15171" lon="0.46974">
        <ele>139</ele>
        <time>2022-09-15T08:14:47.171Z</time>
      </trkpt>
      <trkpt lat="44.1517" lon="0.46976">
        <ele>139</ele>
        <time>2022-09-15T08:14:48.171Z</time>
      </trkpt>
      <trkpt lat="44.15169" lon="0.46977">
        <ele>139</ele>
        <time>2022-09-15T08:14:49.171Z</time>
      </trkpt>
      <trkpt lat="44.15168" lon="0.46978">
        <ele>139</ele>
        <time>2022-09-15T08:14:50.171Z</time>
      </trkpt>
      <trkpt lat="44.15167" lon="0.46979">
        <ele>139</ele>
        <time>2022-09-15T08:14:51.171Z</time>
      </trkpt>
      <trkpt lat="44.15166" lon="0.4698">
        <ele>140</ele>
        <time>2022-09-15T08:14:52.171Z</time>
      </trkpt>
      <trkpt lat="44.15165" lon="0.46981">
        <ele>140</ele>
        <time>2022-09-15T08:14:53.171Z</time>
      </trkpt>
      <trkpt lat="44.15165" lon="0.46982">
        <ele>139</ele>
        <time>2022-09-15T08:14:54.171Z</time>
      </trkpt>
      <trkpt lat="44.15164" lon="0.46983">
        <ele>140</ele>
        <time>2022-09-15T08:14:55.171Z</time>
      </trkpt>
      <trkpt lat="44.15163" lon="0.46984">
        <ele>139</ele>
        <time>2022-09-15T08:14:56.171Z</time>
      </trkpt>
      <trkpt lat="44.15163" lon="0.46986">
        <ele>139</ele>
        <time>2022-09-15T08:14:57.171Z</time>
      </trkpt>
      <trkpt lat="44.15162" lon="0.46987">
        <ele>140</ele>
        <time>2022-09-15T08:14:58.171Z</time>
      </trkpt>
      <trkpt lat="44.15161" lon="0.4699">
        <ele>140</ele>
        <time>2022-09-15T08:15:00.171Z</time>
      </trkpt>
      <trkpt lat="44.15161" lon="0.46991">
        <ele>140</ele>
        <time>2022-09-15T08:15:01.171Z</time>
      </trkpt>
      <trkpt lat="44.15161" lon="0.46993">
        <ele>141</ele>
        <time>2022-09-15T08:15:02.171Z</time>
      </trkpt>
      <trkpt lat="44.1516" lon="0.46995">
        <ele>141</ele>
        <time>2022-09-15T08:15:03.171Z</time>
      </trkpt>
      <trkpt lat="44.1516" lon="0.46996">
        <ele>140</ele>
        <time>2022-09-15T08:15:04.171Z</time>
      </trkpt>
      <trkpt lat="44.1516" lon="0.46998">
        <ele>141</ele>
        <time>2022-09-15T08:15:05.171Z</time>
      </trkpt>
      <trkpt lat="44.15159" lon="0.46999">
        <ele>141</ele>
        <time>2022-09-15T08:15:06.171Z</time>
      </trkpt>
      <trkpt lat="44.15159" lon="0.47">
        <ele>141</ele>
        <time>2022-09-15T08:15:07.171Z</time>
      </trkpt>
      <trkpt lat="44.15159" lon="0.47002">
        <ele>141</ele>
        <time>2022-09-15T08:15:08.171Z</time>
      </trkpt>
      <trkpt lat="44.15158" lon="0.47003">
        <ele>141</ele>
        <time>2022-09-15T08:15:09.171Z</time>
      </trkpt>
      <trkpt lat="44.15158" lon="0.47005">
        <ele>141</ele>
        <time>2022-09-15T08:15:10.171Z</time>
      </trkpt>
      <trkpt lat="44.15157" lon="0.47006">
        <ele>141</ele>
        <time>2022-09-15T08:15:11.171Z</time>
      </trkpt>
      <trkpt lat="44.15157" lon="0.47007">
        <ele>141</ele>
        <time>2022-09-15T08:15:12.171Z</time>
      </trkpt>
      <trkpt lat="44.15156" lon="0.47009">
        <ele>141</ele>
        <time>2022-09-15T08:15:13.171Z</time>
      </trkpt>
      <trkpt lat="44.15156" lon="0.4701">
        <ele>141</ele>
        <time>2022-09-15T08:15:14.171Z</time>
      </trkpt>
      <trkpt lat="44.15155" lon="0.47011">
        <ele>141</ele>
        <time>2022-09-15T08:15:15.171Z</time>
      </trkpt>
      <trkpt lat="44.15155" lon="0.47013">
        <ele>141</ele>
        <time>2022-09-15T08:15:16.171Z</time>
      </trkpt>
      <trkpt lat="44.15155" lon="0.47014">
        <ele>141</ele>
        <time>2022-09-15T08:15:17.171Z</time>
      </trkpt>
      <trkpt lat="44.15154" lon="0.47015">
        <ele>141</ele>
        <time>2022-09-15T08:15:18.171Z</time>
      </trkpt>
      <trkpt lat="44.15154" lon="0.47016">
        <ele>142</ele>
        <time>2022-09-15T08:15:19.171Z</time>
      </trkpt>
      <trkpt lat="44.15154" lon="0.47017">
        <ele>141</ele>
        <time>2022-09-15T08:15:20.171Z</time>
      </trkpt>
      <trkpt lat="44.15153" lon="0.47019">
        <ele>141</ele>
        <time>2022-09-15T08:15:21.171Z</time>
      </trkpt>
      <trkpt lat="44.15153" lon="0.4702">
        <ele>142</ele>
        <time>2022-09-15T08:15:22.171Z</time>
      </trkpt>
      <trkpt lat="44.15153" lon="0.47021">
        <ele>142</ele>
        <time>2022-09-15T08:15:23.171Z</time>
      </trkpt>
      <trkpt lat="44.15152" lon="0.47021">
        <ele>141</ele>
        <time>2022-09-15T08:15:24.171Z</time>
      </trkpt>
      <trkpt lat="44.15152" lon="0.47022">
        <ele>141</ele>
        <time>2022-09-15T08:15:25.171Z</time>
      </trkpt>
      <trkpt lat="44.15152" lon="0.47023">
        <ele>141</ele>
        <time>2022-09-15T08:15:26.171Z</time>
      </trkpt>
      <trkpt lat="44.15152" lon="0.47023">
        <ele>141</ele>
        <time>2022-09-15T08:15:27.171Z</time>
      </trkpt>
      <trkpt lat="44.15152" lon="0.47024">
        <ele>141</ele>
        <time>2022-09-15T08:15:28.171Z</time>
      </trkpt>
      <trkpt lat="44.15151" lon="0.47025">
        <ele>141</ele>
        <time>2022-09-15T08:15:29.171Z</time>
      </trkpt>
      <trkpt lat="44.15151" lon="0.47026">
        <ele>140</ele>
        <time>2022-09-15T08:15:30.171Z</time>
      </trkpt>
      <trkpt lat="44.15151" lon="0.47027">
        <ele>141</ele>
        <time>2022-09-15T08:15:31.171Z</time>
      </trkpt>
      <trkpt lat="44.15151" lon="0.47027">
        <ele>141</ele>
        <time>2022-09-15T08:15:32.171Z</time>
      </trkpt>
      <trkpt lat="44.1515" lon="0.47028">
        <ele>141</ele>
        <time>2022-09-15T08:15:33.171Z</time>
      </trkpt>
      <trkpt lat="44.1515" lon="0.47029">
        <ele>141</ele>
        <time>2022-09-15T08:15:34.171Z</time>
      </trkpt>
      <trkpt lat="44.1515" lon="0.47029">
        <ele>141</ele>
        <time>2022-09-15T08:15:35.171Z</time>
      </trkpt>
      <trkpt lat="44.1515" lon="0.47029">
        <ele>141</ele>
        <time>2022-09-15T08:15:36.171Z</time>
      </trkpt>
      <trkpt lat="44.1515" lon="0.47029">
        <ele>141</ele>
        <time>2022-09-15T08:15:37.171Z</time>
      </trkpt>
      <trkpt lat="44.1515" lon="0.47029">
        <ele>141</ele>
        <time>2022-09-15T08:15:38.171Z</time>
      </trkpt>
      <trkpt lat="44.1515" lon="0.47029">
        <ele>141</ele>
        <time>2022-09-15T08:15:39.171Z</time>
      </trkpt>
      <trkpt lat="44.1515" lon="0.4703">
        <ele>141</ele>
        <time>2022-09-15T08:15:40.171Z</time>
      </trkpt>
      <trkpt lat="44.1515" lon="0.4703">
        <ele>142</ele>
        <time>2022-09-15T08:15:41.171Z</time>
      </trkpt>
      <trkpt lat="44.15149" lon="0.47031">
        <ele>141</ele>
        <time>2022-09-15T08:15:42.171Z</time>
      </trkpt>
      <trkpt lat="44.15149" lon="0.47032">
        <ele>141</ele>
        <time>2022-09-15T08:15:43.171Z</time>
      </trkpt>
      <trkpt lat="44.15149" lon="0.47033">
        <ele>141</ele>
        <time>2022-09-15T08:15:44.171Z</time>
      </trkpt>
      <trkpt lat="44.15149" lon="0.47034">
        <ele>142</ele>
        <time>2022-09-15T08:15:45.171Z</time>
      </trkpt>
      <trkpt lat="44.15148" lon="0.47035">
        <ele>142</ele>
        <time>2022-09-15T08:15:46.171Z</time>
      </trkpt>
      <trkpt lat="44.15148" lon="0.47036">
        <ele>143</ele>
        <time>2022-09-15T08:15:47.171Z</time>
      </trkpt>
      <trkpt lat="44.15148" lon="0.47037">
        <ele>143</ele>
        <time>2022-09-15T08:15:48.171Z</time>
      </trkpt>
      <trkpt lat="44.15147" lon="0.47038">
        <ele>143</ele>
        <time>2022-09-15T08:15:49.171Z</time>
      </trkpt>
      <trkpt lat="44.15147" lon="0.47039">
        <ele>143</ele>
        <time>2022-09-15T08:15:50.171Z</time>
      </trkpt>
      <trkpt lat="44.15147" lon="0.47039">
        <ele>142</ele>
        <time>2022-09-15T08:15:51.171Z</time>
      </trkpt>
      <trkpt lat="44.15147" lon="0.4704">
        <ele>142</ele>
        <time>2022-09-15T08:15:52.171Z</time>
      </trkpt>
      <trkpt lat="44.15147" lon="0.4704">
        <ele>143</ele>
        <time>2022-09-15T08:15:53.171Z</time>
      </trkpt>
      <trkpt lat="44.15146" lon="0.4704">
        <ele>143</ele>
        <time>2022-09-15T08:15:54.171Z</time>
      </trkpt>
      <trkpt lat="44.15146" lon="0.47038">
        <ele>142</ele>
        <time>2022-09-15T08:16:17.186Z</time>
      </trkpt>
      <trkpt lat="44.15146" lon="0.47038">
        <ele>142</ele>
        <time>2022-09-15T08:16:18.186Z</time>
      </trkpt>
      <trkpt lat="44.15146" lon="0.47038">
        <ele>142</ele>
        <time>2022-09-15T08:16:19.186Z</time>
      </trkpt>
      <trkpt lat="44.15146" lon="0.47037">
        <ele>142</ele>
        <time>2022-09-15T08:16:20.186Z</time>
      </trkpt>
      <trkpt lat="44.15146" lon="0.47037">
        <ele>142</ele>
        <time>2022-09-15T08:16:21.186Z</time>
      </trkpt>
      <trkpt lat="44.15147" lon="0.47036">
        <ele>142</ele>
        <time>2022-09-15T08:16:22.186Z</time>
      </trkpt>
      <trkpt lat="44.15147" lon="0.47034">
        <ele>141</ele>
        <time>2022-09-15T08:16:23.186Z</time>
      </trkpt>
      <trkpt lat="44.15147" lon="0.47033">
        <ele>142</ele>
        <time>2022-09-15T08:16:24.186Z</time>
      </trkpt>
      <trkpt lat="44.15148" lon="0.47032">
        <ele>141</ele>
        <time>2022-09-15T08:16:25.186Z</time>
      </trkpt>
      <trkpt lat="44.15148" lon="0.47031">
        <ele>142</ele>
        <time>2022-09-15T08:16:26.186Z</time>
      </trkpt>
      <trkpt lat="44.15148" lon="0.47031">
        <ele>142</ele>
        <time>2022-09-15T08:16:27.186Z</time>
      </trkpt>
      <trkpt lat="44.15149" lon="0.4703">
        <ele>142</ele>
        <time>2022-09-15T08:16:28.186Z</time>
      </trkpt>
      <trkpt lat="44.15149" lon="0.47029">
        <ele>142</ele>
        <time>2022-09-15T08:16:29.186Z</time>
      </trkpt>
      <trkpt lat="44.15149" lon="0.47028">
        <ele>142</ele>
        <time>2022-09-15T08:16:30.186Z</time>
      </trkpt>
      <trkpt lat="44.1515" lon="0.47027">
        <ele>142</ele>
        <time>2022-09-15T08:16:31.186Z</time>
      </trkpt>
      <trkpt lat="44.1515" lon="0.47026">
        <ele>142</ele>
        <time>2022-09-15T08:16:32.186Z</time>
      </trkpt>
      <trkpt lat="44.15151" lon="0.47025">
        <ele>142</ele>
        <time>2022-09-15T08:16:33.186Z</time>
      </trkpt>
      <trkpt lat="44.15151" lon="0.47025">
        <ele>142</ele>
        <time>2022-09-15T08:16:34.186Z</time>
      </trkpt>
      <trkpt lat="44.15151" lon="0.47025">
        <ele>142</ele>
        <time>2022-09-15T08:16:35.186Z</time>
      </trkpt>
      <trkpt lat="44.15152" lon="0.47024">
        <ele>142</ele>
        <time>2022-09-15T08:16:36.186Z</time>
      </trkpt>
      <trkpt lat="44.15152" lon="0.47024">
        <ele>142</ele>
        <time>2022-09-15T08:16:37.186Z</time>
      </trkpt>
      <trkpt lat="44.15152" lon="0.47024">
        <ele>142</ele>
        <time>2022-09-15T08:16:38.186Z</time>
      </trkpt>
      <trkpt lat="44.15153" lon="0.47024">
        <ele>142</ele>
        <time>2022-09-15T08:16:39.186Z</time>
      </trkpt>
      <trkpt lat="44.15153" lon="0.47023">
        <ele>142</ele>
        <time>2022-09-15T08:16:40.186Z</time>
      </trkpt>
      <trkpt lat="44.15153" lon="0.47023">
        <ele>142</ele>
        <time>2022-09-15T08:16:41.186Z</time>
      </trkpt>
      <trkpt lat="44.15154" lon="0.47022">
        <ele>142</ele>
        <time>2022-09-15T08:16:42.186Z</time>
      </trkpt>
      <trkpt lat="44.15154" lon="0.47022">
        <ele>142</ele>
        <time>2022-09-15T08:16:43.186Z</time>
      </trkpt>
      <trkpt lat="44.15154" lon="0.47021">
        <ele>142</ele>
        <time>2022-09-15T08:16:44.186Z</time>
      </trkpt>
      <trkpt lat="44.15154" lon="0.47021">
        <ele>142</ele>
        <time>2022-09-15T08:16:45.186Z</time>
      </trkpt>
      <trkpt lat="44.15154" lon="0.4702">
        <ele>142</ele>
        <time>2022-09-15T08:16:46.186Z</time>
      </trkpt>
      <trkpt lat="44.15154" lon="0.4702">
        <ele>143</ele>
        <time>2022-09-15T08:16:47.186Z</time>
      </trkpt>
      <trkpt lat="44.15154" lon="0.47019">
        <ele>143</ele>
        <time>2022-09-15T08:16:48.186Z</time>
      </trkpt>
      <trkpt lat="44.15154" lon="0.47019">
        <ele>143</ele>
        <time>2022-09-15T08:16:49.186Z</time>
      </trkpt>
      <trkpt lat="44.15154" lon="0.47019">
        <ele>143</ele>
        <time>2022-09-15T08:16:50.186Z</time>
      </trkpt>
      <trkpt lat="44.15154" lon="0.47019">
        <ele>143</ele>
        <time>2022-09-15T08:16:51.186Z</time>
      </trkpt>
      <trkpt lat="44.15153" lon="0.47018">
        <ele>143</ele>
        <time>2022-09-15T08:16:52.186Z</time>
      </trkpt>
      <trkpt lat="44.15153" lon="0.47018">
        <ele>143</ele>
        <time>2022-09-15T08:16:53.186Z</time>
      </trkpt>
      <trkpt lat="44.15153" lon="0.47018">
        <ele>143</ele>
        <time>2022-09-15T08:16:54.186Z</time>
      </trkpt>
      <trkpt lat="44.15153" lon="0.47018">
        <ele>143</ele>
        <time>2022-09-15T08:16:55.186Z</time>
      </trkpt>
      <trkpt lat="44.15153" lon="0.47018">
        <ele>143</ele>
        <time>2022-09-15T08:16:56.186Z</time>
      </trkpt>
      <trkpt lat="44.15153" lon="0.47018">
        <ele>143</ele>
        <time>2022-09-15T08:16:57.186Z</time>
      </trkpt>
      <trkpt lat="44.15153" lon="0.47021">
        <ele>142</ele>
        <time>2022-09-15T08:17:08.213Z</time>
      </trkpt>
      <trkpt lat="44.15153" lon="0.47021">
        <ele>142</ele>
        <time>2022-09-15T08:17:09.213Z</time>
      </trkpt>
      <trkpt lat="44.15153" lon="0.47022">
        <ele>142</ele>
        <time>2022-09-15T08:17:10.213Z</time>
      </trkpt>
      <trkpt lat="44.15153" lon="0.47022">
        <ele>142</ele>
        <time>2022-09-15T08:17:11.213Z</time>
      </trkpt>
      <trkpt lat="44.15153" lon="0.47022">
        <ele>142</ele>
        <time>2022-09-15T08:17:12.213Z</time>
      </trkpt>
      <trkpt lat="44.15153" lon="0.47022">
        <ele>142</ele>
        <time>2022-09-15T08:17:13.213Z</time>
      </trkpt>
      <trkpt lat="44.15153" lon="0.47022">
        <ele>142</ele>
        <time>2022-09-15T08:17:14.213Z</time>
      </trkpt>
      <trkpt lat="44.15153" lon="0.47022">
        <ele>142</ele>
        <time>2022-09-15T08:17:15.213Z</time>
      </trkpt>
      <trkpt lat="44.15153" lon="0.47022">
        <ele>142</ele>
        <time>2022-09-15T08:17:16.213Z</time>
      </trkpt>
      <trkpt lat="44.15153" lon="0.47022">
        <ele>145</ele>
        <time>2022-09-15T08:18:32.228Z</time>
      </trkpt>
      <trkpt lat="44.15153" lon="0.47022">
        <ele>145</ele>
        <time>2022-09-15T08:18:33.228Z</time>
      </trkpt>
      <trkpt lat="44.15153" lon="0.47022">
        <ele>145</ele>
        <time>2022-09-15T08:18:34.228Z</time>
      </trkpt>
      <trkpt lat="44.15153" lon="0.47022">
        <ele>145</ele>
        <time>2022-09-15T08:18:35.228Z</time>
      </trkpt>
      <trkpt lat="44.15153" lon="0.47022">
        <ele>145</ele>
        <time>2022-09-15T08:18:36.228Z</time>
      </trkpt>
      <trkpt lat="44.15153" lon="0.47022">
        <ele>145</ele>
        <time>2022-09-15T08:18:37.228Z</time>
      </trkpt>
      <trkpt lat="44.15152" lon="0.47023">
        <ele>146</ele>
        <time>2022-09-15T08:21:38.255Z</time>
      </trkpt>
      <trkpt lat="44.15151" lon="0.47023">
        <ele>145</ele>
        <time>2022-09-15T08:21:39.255Z</time>
      </trkpt>
      <trkpt lat="44.15151" lon="0.47024">
        <ele>145</ele>
        <time>2022-09-15T08:21:40.255Z</time>
      </trkpt>
      <trkpt lat="44.15151" lon="0.47025">
        <ele>145</ele>
        <time>2022-09-15T08:21:41.255Z</time>
      </trkpt>
      <trkpt lat="44.15151" lon="0.47027">
        <ele>145</ele>
        <time>2022-09-15T08:21:42.255Z</time>
      </trkpt>
      <trkpt lat="44.1515" lon="0.47028">
        <ele>144</ele>
        <time>2022-09-15T08:21:43.255Z</time>
      </trkpt>
      <trkpt lat="44.1515" lon="0.4703">
        <ele>144</ele>
        <time>2022-09-15T08:21:44.255Z</time>
      </trkpt>
      <trkpt lat="44.1515" lon="0.47031">
        <ele>144</ele>
        <time>2022-09-15T08:21:45.255Z</time>
      </trkpt>
      <trkpt lat="44.1515" lon="0.47033">
        <ele>145</ele>
        <time>2022-09-15T08:21:46.255Z</time>
      </trkpt>
      <trkpt lat="44.1515" lon="0.47034">
        <ele>144</ele>
        <time>2022-09-15T08:21:47.255Z</time>
      </trkpt>
      <trkpt lat="44.15149" lon="0.47035">
        <ele>144</ele>
        <time>2022-09-15T08:21:48.255Z</time>
      </trkpt>
      <trkpt lat="44.15149" lon="0.47037">
        <ele>144</ele>
        <time>2022-09-15T08:21:49.255Z</time>
      </trkpt>
      <trkpt lat="44.15148" lon="0.47038">
        <ele>144</ele>
        <time>2022-09-15T08:21:50.255Z</time>
      </trkpt>
      <trkpt lat="44.15147" lon="0.47038">
        <ele>144</ele>
        <time>2022-09-15T08:21:51.255Z</time>
      </trkpt>
      <trkpt lat="44.15146" lon="0.47039">
        <ele>144</ele>
        <time>2022-09-15T08:21:52.255Z</time>
      </trkpt>
      <trkpt lat="44.15145" lon="0.4704">
        <ele>144</ele>
        <time>2022-09-15T08:21:53.255Z</time>
      </trkpt>
      <trkpt lat="44.15145" lon="0.4704">
        <ele>144</ele>
        <time>2022-09-15T08:21:54.255Z</time>
      </trkpt>
      <trkpt lat="44.15144" lon="0.47041">
        <ele>144</ele>
        <time>2022-09-15T08:21:55.255Z</time>
      </trkpt>
      <trkpt lat="44.15144" lon="0.47041">
        <ele>144</ele>
        <time>2022-09-15T08:21:56.255Z</time>
      </trkpt>
      <trkpt lat="44.15143" lon="0.47041">
        <ele>144</ele>
        <time>2022-09-15T08:21:57.255Z</time>
      </trkpt>
      <trkpt lat="44.15143" lon="0.47041">
        <ele>144</ele>
        <time>2022-09-15T08:21:58.255Z</time>
      </trkpt>
      <trkpt lat="44.15142" lon="0.47041">
        <ele>144</ele>
        <time>2022-09-15T08:21:59.255Z</time>
      </trkpt>
      <trkpt lat="44.15141" lon="0.4704">
        <ele>144</ele>
        <time>2022-09-15T08:22:00.255Z</time>
      </trkpt>
      <trkpt lat="44.15141" lon="0.4704">
        <ele>144</ele>
        <time>2022-09-15T08:22:01.255Z</time>
      </trkpt>
      <trkpt lat="44.1514" lon="0.4704">
        <ele>144</ele>
        <time>2022-09-15T08:22:02.255Z</time>
      </trkpt>
      <trkpt lat="44.15139" lon="0.4704">
        <ele>144</ele>
        <time>2022-09-15T08:22:03.255Z</time>
      </trkpt>
      <trkpt lat="44.15139" lon="0.4704">
        <ele>144</ele>
        <time>2022-09-15T08:22:04.255Z</time>
      </trkpt>
      <trkpt lat="44.15138" lon="0.4704">
        <ele>144</ele>
        <time>2022-09-15T08:22:05.255Z</time>
      </trkpt>
      <trkpt lat="44.15137" lon="0.47039">
        <ele>143</ele>
        <time>2022-09-15T08:22:06.255Z</time>
      </trkpt>
      <trkpt lat="44.15136" lon="0.47039">
        <ele>144</ele>
        <time>2022-09-15T08:22:07.255Z</time>
      </trkpt>
      <trkpt lat="44.15135" lon="0.47038">
        <ele>144</ele>
        <time>2022-09-15T08:22:08.255Z</time>
      </trkpt>
      <trkpt lat="44.15134" lon="0.47038">
        <ele>144</ele>
        <time>2022-09-15T08:22:09.255Z</time>
      </trkpt>
      <trkpt lat="44.15132" lon="0.47038">
        <ele>144</ele>
        <time>2022-09-15T08:22:10.255Z</time>
      </trkpt>
      <trkpt lat="44.15131" lon="0.47037">
        <ele>144</ele>
        <time>2022-09-15T08:22:11.255Z</time>
      </trkpt>
      <trkpt lat="44.1513" lon="0.47037">
        <ele>144</ele>
        <time>2022-09-15T08:22:12.255Z</time>
      </trkpt>
      <trkpt lat="44.15129" lon="0.47037">
        <ele>144</ele>
        <time>2022-09-15T08:22:13.255Z</time>
      </trkpt>
      <trkpt lat="44.15127" lon="0.47037">
        <ele>144</ele>
        <time>2022-09-15T08:22:14.255Z</time>
      </trkpt>
      <trkpt lat="44.15126" lon="0.47037">
        <ele>144</ele>
        <time>2022-09-15T08:22:15.255Z</time>
      </trkpt>
      <trkpt lat="44.15125" lon="0.47037">
        <ele>144</ele>
        <time>2022-09-15T08:22:16.255Z</time>
      </trkpt>
      <trkpt lat="44.15123" lon="0.47037">
        <ele>143</ele>
        <time>2022-09-15T08:22:17.255Z</time>
      </trkpt>
      <trkpt lat="44.15122" lon="0.47037">
        <ele>143</ele>
        <time>2022-09-15T08:22:18.255Z</time>
      </trkpt>
      <trkpt lat="44.15121" lon="0.47037">
        <ele>143</ele>
        <time>2022-09-15T08:22:19.255Z</time>
      </trkpt>
      <trkpt lat="44.1512" lon="0.47038">
        <ele>143</ele>
        <time>2022-09-15T08:22:20.255Z</time>
      </trkpt>
      <trkpt lat="44.1512" lon="0.47038">
        <ele>142</ele>
        <time>2022-09-15T08:22:21.255Z</time>
      </trkpt>
      <trkpt lat="44.15118" lon="0.47038">
        <ele>142</ele>
        <time>2022-09-15T08:22:22.255Z</time>
      </trkpt>
      <trkpt lat="44.15118" lon="0.47038">
        <ele>142</ele>
        <time>2022-09-15T08:22:23.255Z</time>
      </trkpt>
      <trkpt lat="44.15117" lon="0.47037">
        <ele>142</ele>
        <time>2022-09-15T08:22:24.255Z</time>
      </trkpt>
      <trkpt lat="44.15116" lon="0.47038">
        <ele>142</ele>
        <time>2022-09-15T08:22:25.255Z</time>
      </trkpt>
      <trkpt lat="44.15115" lon="0.47038">
        <ele>142</ele>
        <time>2022-09-15T08:22:26.255Z</time>
      </trkpt>
      <trkpt lat="44.15114" lon="0.47038">
        <ele>142</ele>
        <time>2022-09-15T08:22:27.255Z</time>
      </trkpt>
      <trkpt lat="44.15113" lon="0.47039">
        <ele>142</ele>
        <time>2022-09-15T08:22:28.255Z</time>
      </trkpt>
      <trkpt lat="44.15112" lon="0.4704">
        <ele>141</ele>
        <time>2022-09-15T08:22:29.255Z</time>
      </trkpt>
      <trkpt lat="44.15112" lon="0.47041">
        <ele>141</ele>
        <time>2022-09-15T08:22:30.255Z</time>
      </trkpt>
      <trkpt lat="44.15111" lon="0.47042">
        <ele>141</ele>
        <time>2022-09-15T08:22:31.255Z</time>
      </trkpt>
      <trkpt lat="44.1511" lon="0.47042">
        <ele>140</ele>
        <time>2022-09-15T08:22:32.255Z</time>
      </trkpt>
      <trkpt lat="44.15108" lon="0.47043">
        <ele>140</ele>
        <time>2022-09-15T08:22:33.255Z</time>
      </trkpt>
      <trkpt lat="44.15107" lon="0.47043">
        <ele>140</ele>
        <time>2022-09-15T08:22:34.255Z</time>
      </trkpt>
      <trkpt lat="44.15106" lon="0.47044">
        <ele>140</ele>
        <time>2022-09-15T08:22:35.255Z</time>
      </trkpt>
      <trkpt lat="44.15106" lon="0.47045">
        <ele>140</ele>
        <time>2022-09-15T08:22:36.255Z</time>
      </trkpt>
      <trkpt lat="44.15105" lon="0.47046">
        <ele>140</ele>
        <time>2022-09-15T08:22:37.255Z</time>
      </trkpt>
      <trkpt lat="44.15104" lon="0.47046">
        <ele>140</ele>
        <time>2022-09-15T08:22:38.255Z</time>
      </trkpt>
      <trkpt lat="44.15102" lon="0.47047">
        <ele>140</ele>
        <time>2022-09-15T08:22:39.255Z</time>
      </trkpt>
      <trkpt lat="44.15101" lon="0.47048">
        <ele>140</ele>
        <time>2022-09-15T08:22:40.255Z</time>
      </trkpt>
      <trkpt lat="44.151" lon="0.47048">
        <ele>139</ele>
        <time>2022-09-15T08:22:41.255Z</time>
      </trkpt>
      <trkpt lat="44.15099" lon="0.47049">
        <ele>140</ele>
        <time>2022-09-15T08:22:42.255Z</time>
      </trkpt>
      <trkpt lat="44.15098" lon="0.4705">
        <ele>140</ele>
        <time>2022-09-15T08:22:43.255Z</time>
      </trkpt>
      <trkpt lat="44.15097" lon="0.47051">
        <ele>140</ele>
        <time>2022-09-15T08:22:44.255Z</time>
      </trkpt>
      <trkpt lat="44.15096" lon="0.47053">
        <ele>140</ele>
        <time>2022-09-15T08:22:45.255Z</time>
      </trkpt>
      <trkpt lat="44.15095" lon="0.47054">
        <ele>140</ele>
        <time>2022-09-15T08:22:46.255Z</time>
      </trkpt>
      <trkpt lat="44.15094" lon="0.47054">
        <ele>140</ele>
        <time>2022-09-15T08:22:47.255Z</time>
      </trkpt>
      <trkpt lat="44.15092" lon="0.47055">
        <ele>139</ele>
        <time>2022-09-15T08:22:48.255Z</time>
      </trkpt>
      <trkpt lat="44.15092" lon="0.47056">
        <ele>139</ele>
        <time>2022-09-15T08:22:49.255Z</time>
      </trkpt>
      <trkpt lat="44.15091" lon="0.47056">
        <ele>140</ele>
        <time>2022-09-15T08:22:50.255Z</time>
      </trkpt>
      <trkpt lat="44.1509" lon="0.47058">
        <ele>140</ele>
        <time>2022-09-15T08:22:51.255Z</time>
      </trkpt>
      <trkpt lat="44.15089" lon="0.47059">
        <ele>140</ele>
        <time>2022-09-15T08:22:52.255Z</time>
      </trkpt>
      <trkpt lat="44.15088" lon="0.4706">
        <ele>140</ele>
        <time>2022-09-15T08:22:53.255Z</time>
      </trkpt>
      <trkpt lat="44.15087" lon="0.47061">
        <ele>140</ele>
        <time>2022-09-15T08:22:54.255Z</time>
      </trkpt>
      <trkpt lat="44.15085" lon="0.47062">
        <ele>140</ele>
        <time>2022-09-15T08:22:55.255Z</time>
      </trkpt>
      <trkpt lat="44.15084" lon="0.47063">
        <ele>140</ele>
        <time>2022-09-15T08:22:56.255Z</time>
      </trkpt>
      <trkpt lat="44.15083" lon="0.47063">
        <ele>140</ele>
        <time>2022-09-15T08:22:57.255Z</time>
      </trkpt>
      <trkpt lat="44.15082" lon="0.47064">
        <ele>140</ele>
        <time>2022-09-15T08:22:58.255Z</time>
      </trkpt>
      <trkpt lat="44.15081" lon="0.47065">
        <ele>139</ele>
        <time>2022-09-15T08:22:59.255Z</time>
      </trkpt>
      <trkpt lat="44.1508" lon="0.47066">
        <ele>139</ele>
        <time>2022-09-15T08:23:00.255Z</time>
      </trkpt>
      <trkpt lat="44.15079" lon="0.47067">
        <ele>139</ele>
        <time>2022-09-15T08:23:01.255Z</time>
      </trkpt>
      <trkpt lat="44.15078" lon="0.47067">
        <ele>139</ele>
        <time>2022-09-15T08:23:02.255Z</time>
      </trkpt>
      <trkpt lat="44.15077" lon="0.47068">
        <ele>139</ele>
        <time>2022-09-15T08:23:03.255Z</time>
      </trkpt>
      <trkpt lat="44.15076" lon="0.47069">
        <ele>139</ele>
        <time>2022-09-15T08:23:04.255Z</time>
      </trkpt>
      <trkpt lat="44.15075" lon="0.4707">
        <ele>139</ele>
        <time>2022-09-15T08:23:05.255Z</time>
      </trkpt>
      <trkpt lat="44.15073" lon="0.47071">
        <ele>139</ele>
        <time>2022-09-15T08:23:06.255Z</time>
      </trkpt>
      <trkpt lat="44.15072" lon="0.47071">
        <ele>139</ele>
        <time>2022-09-15T08:23:07.255Z</time>
      </trkpt>
      <trkpt lat="44.15071" lon="0.47072">
        <ele>139</ele>
        <time>2022-09-15T08:23:08.255Z</time>
      </trkpt>
      <trkpt lat="44.1507" lon="0.47073">
        <ele>139</ele>
        <time>2022-09-15T08:23:09.255Z</time>
      </trkpt>
      <trkpt lat="44.15069" lon="0.47073">
        <ele>139</ele>
        <time>2022-09-15T08:23:10.255Z</time>
      </trkpt>
      <trkpt lat="44.15068" lon="0.47074">
        <ele>139</ele>
        <time>2022-09-15T08:23:11.255Z</time>
      </trkpt>
      <trkpt lat="44.15067" lon="0.47074">
        <ele>139</ele>
        <time>2022-09-15T08:23:12.255Z</time>
      </trkpt>
      <trkpt lat="44.15066" lon="0.47075">
        <ele>139</ele>
        <time>2022-09-15T08:23:13.255Z</time>
      </trkpt>
      <trkpt lat="44.15065" lon="0.47076">
        <ele>139</ele>
        <time>2022-09-15T08:23:14.255Z</time>
      </trkpt>
      <trkpt lat="44.15064" lon="0.47076">
        <ele>139</ele>
        <time>2022-09-15T08:23:15.255Z</time>
      </trkpt>
      <trkpt lat="44.15063" lon="0.47077">
        <ele>139</ele>
        <time>2022-09-15T08:23:16.255Z</time>
      </trkpt>
      <trkpt lat="44.15062" lon="0.47077">
        <ele>139</ele>
        <time>2022-09-15T08:23:17.255Z</time>
      </trkpt>
      <trkpt lat="44.1506" lon="0.47078">
        <ele>139</ele>
        <time>2022-09-15T08:23:18.255Z</time>
      </trkpt>
      <trkpt lat="44.15059" lon="0.47078">
        <ele>138</ele>
        <time>2022-09-15T08:23:19.255Z</time>
      </trkpt>
      <trkpt lat="44.15058" lon="0.47079">
        <ele>138</ele>
        <time>2022-09-15T08:23:20.255Z</time>
      </trkpt>
      <trkpt lat="44.15057" lon="0.47079">
        <ele>138</ele>
        <time>2022-09-15T08:23:21.255Z</time>
      </trkpt>
      <trkpt lat="44.15056" lon="0.47079">
        <ele>137</ele>
        <time>2022-09-15T08:23:22.255Z</time>
      </trkpt>
      <trkpt lat="44.15055" lon="0.47079">
        <ele>137</ele>
        <time>2022-09-15T08:23:23.255Z</time>
      </trkpt>
      <trkpt lat="44.15054" lon="0.47079">
        <ele>137</ele>
        <time>2022-09-15T08:23:24.255Z</time>
      </trkpt>
      <trkpt lat="44.15053" lon="0.47079">
        <ele>137</ele>
        <time>2022-09-15T08:23:25.255Z</time>
      </trkpt>
      <trkpt lat="44.15052" lon="0.47079">
        <ele>137</ele>
        <time>2022-09-15T08:23:26.255Z</time>
      </trkpt>
      <trkpt lat="44.15051" lon="0.47079">
        <ele>137</ele>
        <time>2022-09-15T08:23:27.255Z</time>
      </trkpt>
      <trkpt lat="44.1505" lon="0.47079">
        <ele>137</ele>
        <time>2022-09-15T08:23:28.255Z</time>
      </trkpt>
      <trkpt lat="44.15049" lon="0.47079">
        <ele>137</ele>
        <time>2022-09-15T08:23:29.255Z</time>
      </trkpt>
      <trkpt lat="44.15047" lon="0.47079">
        <ele>137</ele>
        <time>2022-09-15T08:23:30.255Z</time>
      </trkpt>
      <trkpt lat="44.15046" lon="0.47079">
        <ele>136</ele>
        <time>2022-09-15T08:23:31.255Z</time>
      </trkpt>
      <trkpt lat="44.15045" lon="0.47079">
        <ele>136</ele>
        <time>2022-09-15T08:23:32.255Z</time>
      </trkpt>
      <trkpt lat="44.15044" lon="0.47079">
        <ele>136</ele>
        <time>2022-09-15T08:23:33.255Z</time>
      </trkpt>
      <trkpt lat="44.15043" lon="0.47079">
        <ele>136</ele>
        <time>2022-09-15T08:23:34.255Z</time>
      </trkpt>
      <trkpt lat="44.15042" lon="0.47078">
        <ele>136</ele>
        <time>2022-09-15T08:23:35.255Z</time>
      </trkpt>
      <trkpt lat="44.1504" lon="0.47078">
        <ele>136</ele>
        <time>2022-09-15T08:23:36.255Z</time>
      </trkpt>
      <trkpt lat="44.15039" lon="0.47077">
        <ele>136</ele>
        <time>2022-09-15T08:23:37.255Z</time>
      </trkpt>
      <trkpt lat="44.15038" lon="0.47077">
        <ele>136</ele>
        <time>2022-09-15T08:23:38.255Z</time>
      </trkpt>
      <trkpt lat="44.15037" lon="0.47076">
        <ele>136</ele>
        <time>2022-09-15T08:23:39.255Z</time>
      </trkpt>
      <trkpt lat="44.15036" lon="0.47076">
        <ele>136</ele>
        <time>2022-09-15T08:23:40.255Z</time>
      </trkpt>
      <trkpt lat="44.15035" lon="0.47075">
        <ele>135</ele>
        <time>2022-09-15T08:23:41.255Z</time>
      </trkpt>
      <trkpt lat="44.15034" lon="0.47074">
        <ele>135</ele>
        <time>2022-09-15T08:23:42.255Z</time>
      </trkpt>
      <trkpt lat="44.15033" lon="0.47073">
        <ele>135</ele>
        <time>2022-09-15T08:23:43.255Z</time>
      </trkpt>
      <trkpt lat="44.15031" lon="0.47073">
        <ele>135</ele>
        <time>2022-09-15T08:23:44.255Z</time>
      </trkpt>
      <trkpt lat="44.1503" lon="0.47072">
        <ele>135</ele>
        <time>2022-09-15T08:23:45.255Z</time>
      </trkpt>
      <trkpt lat="44.15029" lon="0.47071">
        <ele>135</ele>
        <time>2022-09-15T08:23:46.255Z</time>
      </trkpt>
      <trkpt lat="44.15028" lon="0.4707">
        <ele>135</ele>
        <time>2022-09-15T08:23:47.255Z</time>
      </trkpt>
      <trkpt lat="44.15027" lon="0.47069">
        <ele>135</ele>
        <time>2022-09-15T08:23:48.255Z</time>
      </trkpt>
      <trkpt lat="44.15026" lon="0.47068">
        <ele>135</ele>
        <time>2022-09-15T08:23:49.255Z</time>
      </trkpt>
      <trkpt lat="44.15025" lon="0.47067">
        <ele>135</ele>
        <time>2022-09-15T08:23:50.255Z</time>
      </trkpt>
      <trkpt lat="44.15024" lon="0.47066">
        <ele>135</ele>
        <time>2022-09-15T08:23:51.255Z</time>
      </trkpt>
      <trkpt lat="44.15023" lon="0.47065">
        <ele>135</ele>
        <time>2022-09-15T08:23:52.255Z</time>
      </trkpt>
      <trkpt lat="44.15022" lon="0.47064">
        <ele>135</ele>
        <time>2022-09-15T08:23:53.255Z</time>
      </trkpt>
      <trkpt lat="44.15021" lon="0.47063">
        <ele>135</ele>
        <time>2022-09-15T08:23:54.255Z</time>
      </trkpt>
      <trkpt lat="44.1502" lon="0.47062">
        <ele>135</ele>
        <time>2022-09-15T08:23:55.255Z</time>
      </trkpt>
      <trkpt lat="44.15019" lon="0.47061">
        <ele>135</ele>
        <time>2022-09-15T08:23:56.255Z</time>
      </trkpt>
      <trkpt lat="44.15017" lon="0.4706">
        <ele>135</ele>
        <time>2022-09-15T08:23:57.255Z</time>
      </trkpt>
      <trkpt lat="44.15016" lon="0.47059">
        <ele>135</ele>
        <time>2022-09-15T08:23:58.255Z</time>
      </trkpt>
      <trkpt lat="44.15016" lon="0.47058">
        <ele>135</ele>
        <time>2022-09-15T08:23:59.255Z</time>
      </trkpt>
      <trkpt lat="44.15015" lon="0.47057">
        <ele>135</ele>
        <time>2022-09-15T08:24:00.255Z</time>
      </trkpt>
      <trkpt lat="44.15014" lon="0.47056">
        <ele>135</ele>
        <time>2022-09-15T08:24:01.255Z</time>
      </trkpt>
      <trkpt lat="44.15012" lon="0.47055">
        <ele>135</ele>
        <time>2022-09-15T08:24:02.255Z</time>
      </trkpt>
      <trkpt lat="44.15011" lon="0.47054">
        <ele>134</ele>
        <time>2022-09-15T08:24:03.255Z</time>
      </trkpt>
      <trkpt lat="44.1501" lon="0.47053">
        <ele>134</ele>
        <time>2022-09-15T08:24:04.255Z</time>
      </trkpt>
      <trkpt lat="44.15009" lon="0.47052">
        <ele>134</ele>
        <time>2022-09-15T08:24:05.255Z</time>
      </trkpt>
      <trkpt lat="44.15008" lon="0.4705">
        <ele>134</ele>
        <time>2022-09-15T08:24:06.255Z</time>
      </trkpt>
      <trkpt lat="44.15007" lon="0.4705">
        <ele>134</ele>
        <time>2022-09-15T08:24:07.255Z</time>
      </trkpt>
      <trkpt lat="44.15006" lon="0.47049">
        <ele>134</ele>
        <time>2022-09-15T08:24:08.255Z</time>
      </trkpt>
      <trkpt lat="44.15005" lon="0.47048">
        <ele>134</ele>
        <time>2022-09-15T08:24:09.255Z</time>
      </trkpt>
      <trkpt lat="44.15004" lon="0.47047">
        <ele>135</ele>
        <time>2022-09-15T08:24:10.255Z</time>
      </trkpt>
      <trkpt lat="44.15003" lon="0.47046">
        <ele>135</ele>
        <time>2022-09-15T08:24:11.255Z</time>
      </trkpt>
      <trkpt lat="44.15002" lon="0.47045">
        <ele>135</ele>
        <time>2022-09-15T08:24:12.255Z</time>
      </trkpt>
      <trkpt lat="44.15001" lon="0.47044">
        <ele>134</ele>
        <time>2022-09-15T08:24:13.255Z</time>
      </trkpt>
      <trkpt lat="44.15" lon="0.47043">
        <ele>134</ele>
        <time>2022-09-15T08:24:14.255Z</time>
      </trkpt>
      <trkpt lat="44.14999" lon="0.47042">
        <ele>134</ele>
        <time>2022-09-15T08:24:15.255Z</time>
      </trkpt>
      <trkpt lat="44.14998" lon="0.4704">
        <ele>134</ele>
        <time>2022-09-15T08:24:16.255Z</time>
      </trkpt>
      <trkpt lat="44.14997" lon="0.47039">
        <ele>134</ele>
        <time>2022-09-15T08:24:17.255Z</time>
      </trkpt>
      <trkpt lat="44.14996" lon="0.47039">
        <ele>134</ele>
        <time>2022-09-15T08:24:18.255Z</time>
      </trkpt>
      <trkpt lat="44.14995" lon="0.47038">
        <ele>134</ele>
        <time>2022-09-15T08:24:19.255Z</time>
      </trkpt>
      <trkpt lat="44.14994" lon="0.47037">
        <ele>134</ele>
        <time>2022-09-15T08:24:20.255Z</time>
      </trkpt>
      <trkpt lat="44.14993" lon="0.47036">
        <ele>134</ele>
        <time>2022-09-15T08:24:21.255Z</time>
      </trkpt>
      <trkpt lat="44.14992" lon="0.47035">
        <ele>135</ele>
        <time>2022-09-15T08:24:22.255Z</time>
      </trkpt>
      <trkpt lat="44.1499" lon="0.47033">
        <ele>134</ele>
        <time>2022-09-15T08:24:23.255Z</time>
      </trkpt>
      <trkpt lat="44.14989" lon="0.47032">
        <ele>134</ele>
        <time>2022-09-15T08:24:24.255Z</time>
      </trkpt>
      <trkpt lat="44.14988" lon="0.47031">
        <ele>134</ele>
        <time>2022-09-15T08:24:25.255Z</time>
      </trkpt>
      <trkpt lat="44.14987" lon="0.4703">
        <ele>134</ele>
        <time>2022-09-15T08:24:26.255Z</time>
      </trkpt>
      <trkpt lat="44.14986" lon="0.47029">
        <ele>134</ele>
        <time>2022-09-15T08:24:27.255Z</time>
      </trkpt>
      <trkpt lat="44.14985" lon="0.47029">
        <ele>134</ele>
        <time>2022-09-15T08:24:28.255Z</time>
      </trkpt>
      <trkpt lat="44.14984" lon="0.47028">
        <ele>134</ele>
        <time>2022-09-15T08:24:29.255Z</time>
      </trkpt>
      <trkpt lat="44.14983" lon="0.47027">
        <ele>134</ele>
        <time>2022-09-15T08:24:30.255Z</time>
      </trkpt>
      <trkpt lat="44.14982" lon="0.47026">
        <ele>134</ele>
        <time>2022-09-15T08:24:31.255Z</time>
      </trkpt>
      <trkpt lat="44.14982" lon="0.47025">
        <ele>134</ele>
        <time>2022-09-15T08:24:32.255Z</time>
      </trkpt>
      <trkpt lat="44.14981" lon="0.47024">
        <ele>134</ele>
        <time>2022-09-15T08:24:33.255Z</time>
      </trkpt>
      <trkpt lat="44.14981" lon="0.47024">
        <ele>134</ele>
        <time>2022-09-15T08:24:34.255Z</time>
      </trkpt>
      <trkpt lat="44.1498" lon="0.47024">
        <ele>133</ele>
        <time>2022-09-15T08:24:35.255Z</time>
      </trkpt>
      <trkpt lat="44.14979" lon="0.47023">
        <ele>133</ele>
        <time>2022-09-15T08:24:36.255Z</time>
      </trkpt>
      <trkpt lat="44.14978" lon="0.47022">
        <ele>133</ele>
        <time>2022-09-15T08:24:37.255Z</time>
      </trkpt>
      <trkpt lat="44.14977" lon="0.47021">
        <ele>133</ele>
        <time>2022-09-15T08:24:38.255Z</time>
      </trkpt>
      <trkpt lat="44.14976" lon="0.4702">
        <ele>133</ele>
        <time>2022-09-15T08:24:39.255Z</time>
      </trkpt>
      <trkpt lat="44.14975" lon="0.47019">
        <ele>133</ele>
        <time>2022-09-15T08:24:40.255Z</time>
      </trkpt>
      <trkpt lat="44.14974" lon="0.47018">
        <ele>133</ele>
        <time>2022-09-15T08:24:41.255Z</time>
      </trkpt>
      <trkpt lat="44.14973" lon="0.47017">
        <ele>133</ele>
        <time>2022-09-15T08:24:42.255Z</time>
      </trkpt>
      <trkpt lat="44.14972" lon="0.47016">
        <ele>133</ele>
        <time>2022-09-15T08:24:43.255Z</time>
      </trkpt>
      <trkpt lat="44.14971" lon="0.47015">
        <ele>132</ele>
        <time>2022-09-15T08:24:44.255Z</time>
      </trkpt>
      <trkpt lat="44.1497" lon="0.47014">
        <ele>132</ele>
        <time>2022-09-15T08:24:45.255Z</time>
      </trkpt>
      <trkpt lat="44.1497" lon="0.47013">
        <ele>131</ele>
        <time>2022-09-15T08:24:46.255Z</time>
      </trkpt>
      <trkpt lat="44.14969" lon="0.47012">
        <ele>131</ele>
        <time>2022-09-15T08:24:47.255Z</time>
      </trkpt>
      <trkpt lat="44.14968" lon="0.47011">
        <ele>131</ele>
        <time>2022-09-15T08:24:48.255Z</time>
      </trkpt>
      <trkpt lat="44.14967" lon="0.4701">
        <ele>130</ele>
        <time>2022-09-15T08:24:49.255Z</time>
      </trkpt>
      <trkpt lat="44.14966" lon="0.47009">
        <ele>130</ele>
        <time>2022-09-15T08:24:50.255Z</time>
      </trkpt>
      <trkpt lat="44.14965" lon="0.47008">
        <ele>129</ele>
        <time>2022-09-15T08:24:51.255Z</time>
      </trkpt>
      <trkpt lat="44.14964" lon="0.47007">
        <ele>129</ele>
        <time>2022-09-15T08:24:52.255Z</time>
      </trkpt>
      <trkpt lat="44.14963" lon="0.47005">
        <ele>129</ele>
        <time>2022-09-15T08:24:53.255Z</time>
      </trkpt>
      <trkpt lat="44.14963" lon="0.47004">
        <ele>129</ele>
        <time>2022-09-15T08:24:54.255Z</time>
      </trkpt>
      <trkpt lat="44.14962" lon="0.47004">
        <ele>129</ele>
        <time>2022-09-15T08:24:55.255Z</time>
      </trkpt>
      <trkpt lat="44.1496" lon="0.47003">
        <ele>128</ele>
        <time>2022-09-15T08:24:56.255Z</time>
      </trkpt>
      <trkpt lat="44.14959" lon="0.47002">
        <ele>128</ele>
        <time>2022-09-15T08:24:57.255Z</time>
      </trkpt>
      <trkpt lat="44.14958" lon="0.47001">
        <ele>128</ele>
        <time>2022-09-15T08:24:58.255Z</time>
      </trkpt>
      <trkpt lat="44.14957" lon="0.47">
        <ele>128</ele>
        <time>2022-09-15T08:24:59.255Z</time>
      </trkpt>
      <trkpt lat="44.14956" lon="0.46999">
        <ele>128</ele>
        <time>2022-09-15T08:25:00.255Z</time>
      </trkpt>
      <trkpt lat="44.14955" lon="0.46998">
        <ele>128</ele>
        <time>2022-09-15T08:25:01.255Z</time>
      </trkpt>
      <trkpt lat="44.14954" lon="0.46997">
        <ele>128</ele>
        <time>2022-09-15T08:25:02.255Z</time>
      </trkpt>
      <trkpt lat="44.14953" lon="0.46996">
        <ele>128</ele>
        <time>2022-09-15T08:25:03.255Z</time>
      </trkpt>
      <trkpt lat="44.14952" lon="0.46996">
        <ele>128</ele>
        <time>2022-09-15T08:25:04.255Z</time>
      </trkpt>
      <trkpt lat="44.14951" lon="0.46995">
        <ele>128</ele>
        <time>2022-09-15T08:25:05.255Z</time>
      </trkpt>
      <trkpt lat="44.1495" lon="0.46995">
        <ele>128</ele>
        <time>2022-09-15T08:25:06.255Z</time>
      </trkpt>
      <trkpt lat="44.14949" lon="0.46995">
        <ele>129</ele>
        <time>2022-09-15T08:25:07.255Z</time>
      </trkpt>
      <trkpt lat="44.14949" lon="0.46995">
        <ele>129</ele>
        <time>2022-09-15T08:25:08.255Z</time>
      </trkpt>
      <trkpt lat="44.14948" lon="0.46995">
        <ele>129</ele>
        <time>2022-09-15T08:25:09.255Z</time>
      </trkpt>
      <trkpt lat="44.14948" lon="0.46995">
        <ele>129</ele>
        <time>2022-09-15T08:25:10.255Z</time>
      </trkpt>
      <trkpt lat="44.14948" lon="0.46994">
        <ele>129</ele>
        <time>2022-09-15T08:25:11.255Z</time>
      </trkpt>
      <trkpt lat="44.14947" lon="0.46994">
        <ele>129</ele>
        <time>2022-09-15T08:25:12.255Z</time>
      </trkpt>
      <trkpt lat="44.14947" lon="0.46994">
        <ele>129</ele>
        <time>2022-09-15T08:25:13.255Z</time>
      </trkpt>
      <trkpt lat="44.14946" lon="0.46993">
        <ele>129</ele>
        <time>2022-09-15T08:25:14.255Z</time>
      </trkpt>
      <trkpt lat="44.14946" lon="0.46993">
        <ele>129</ele>
        <time>2022-09-15T08:25:15.255Z</time>
      </trkpt>
      <trkpt lat="44.14945" lon="0.46993">
        <ele>129</ele>
        <time>2022-09-15T08:25:16.255Z</time>
      </trkpt>
      <trkpt lat="44.14944" lon="0.46992">
        <ele>129</ele>
        <time>2022-09-15T08:25:17.255Z</time>
      </trkpt>
      <trkpt lat="44.14943" lon="0.46992">
        <ele>129</ele>
        <time>2022-09-15T08:25:18.255Z</time>
      </trkpt>
      <trkpt lat="44.14943" lon="0.46991">
        <ele>129</ele>
        <time>2022-09-15T08:25:19.255Z</time>
      </trkpt>
      <trkpt lat="44.14941" lon="0.46991">
        <ele>129</ele>
        <time>2022-09-15T08:25:20.255Z</time>
      </trkpt>
      <trkpt lat="44.1494" lon="0.4699">
        <ele>130</ele>
        <time>2022-09-15T08:25:21.255Z</time>
      </trkpt>
      <trkpt lat="44.14939" lon="0.4699">
        <ele>129</ele>
        <time>2022-09-15T08:25:22.255Z</time>
      </trkpt>
      <trkpt lat="44.14937" lon="0.4699">
        <ele>129</ele>
        <time>2022-09-15T08:25:23.255Z</time>
      </trkpt>
      <trkpt lat="44.14936" lon="0.4699">
        <ele>129</ele>
        <time>2022-09-15T08:25:24.255Z</time>
      </trkpt>
      <trkpt lat="44.14935" lon="0.46989">
        <ele>129</ele>
        <time>2022-09-15T08:25:25.255Z</time>
      </trkpt>
      <trkpt lat="44.14934" lon="0.46989">
        <ele>129</ele>
        <time>2022-09-15T08:25:26.255Z</time>
      </trkpt>
      <trkpt lat="44.14933" lon="0.46989">
        <ele>129</ele>
        <time>2022-09-15T08:25:27.255Z</time>
      </trkpt>
      <trkpt lat="44.14931" lon="0.46989">
        <ele>129</ele>
        <time>2022-09-15T08:25:28.255Z</time>
      </trkpt>
      <trkpt lat="44.1493" lon="0.46988">
        <ele>129</ele>
        <time>2022-09-15T08:25:29.255Z</time>
      </trkpt>
      <trkpt lat="44.14929" lon="0.46988">
        <ele>129</ele>
        <time>2022-09-15T08:25:30.255Z</time>
      </trkpt>
      <trkpt lat="44.14928" lon="0.46988">
        <ele>129</ele>
        <time>2022-09-15T08:25:31.255Z</time>
      </trkpt>
      <trkpt lat="44.14926" lon="0.46988">
        <ele>129</ele>
        <time>2022-09-15T08:25:32.255Z</time>
      </trkpt>
      <trkpt lat="44.14925" lon="0.46988">
        <ele>128</ele>
        <time>2022-09-15T08:25:33.255Z</time>
      </trkpt>
      <trkpt lat="44.14924" lon="0.46988">
        <ele>128</ele>
        <time>2022-09-15T08:25:34.255Z</time>
      </trkpt>
      <trkpt lat="44.14922" lon="0.46988">
        <ele>128</ele>
        <time>2022-09-15T08:25:35.255Z</time>
      </trkpt>
      <trkpt lat="44.14921" lon="0.46988">
        <ele>127</ele>
        <time>2022-09-15T08:25:36.255Z</time>
      </trkpt>
      <trkpt lat="44.1492" lon="0.46987">
        <ele>127</ele>
        <time>2022-09-15T08:25:37.255Z</time>
      </trkpt>
      <trkpt lat="44.14918" lon="0.46987">
        <ele>127</ele>
        <time>2022-09-15T08:25:38.255Z</time>
      </trkpt>
      <trkpt lat="44.14917" lon="0.46987">
        <ele>127</ele>
        <time>2022-09-15T08:25:39.255Z</time>
      </trkpt>
      <trkpt lat="44.14916" lon="0.46987">
        <ele>127</ele>
        <time>2022-09-15T08:25:40.255Z</time>
      </trkpt>
      <trkpt lat="44.14914" lon="0.46987">
        <ele>127</ele>
        <time>2022-09-15T08:25:41.255Z</time>
      </trkpt>
      <trkpt lat="44.14913" lon="0.46987">
        <ele>127</ele>
        <time>2022-09-15T08:25:42.255Z</time>
      </trkpt>
      <trkpt lat="44.14912" lon="0.46987">
        <ele>127</ele>
        <time>2022-09-15T08:25:43.255Z</time>
      </trkpt>
      <trkpt lat="44.14911" lon="0.46988">
        <ele>128</ele>
        <time>2022-09-15T08:25:44.255Z</time>
      </trkpt>
      <trkpt lat="44.14909" lon="0.46987">
        <ele>128</ele>
        <time>2022-09-15T08:25:45.255Z</time>
      </trkpt>
      <trkpt lat="44.14908" lon="0.46987">
        <ele>128</ele>
        <time>2022-09-15T08:25:46.255Z</time>
      </trkpt>
      <trkpt lat="44.14907" lon="0.46987">
        <ele>128</ele>
        <time>2022-09-15T08:25:47.255Z</time>
      </trkpt>
      <trkpt lat="44.14905" lon="0.46987">
        <ele>127</ele>
        <time>2022-09-15T08:25:48.255Z</time>
      </trkpt>
      <trkpt lat="44.14904" lon="0.46987">
        <ele>127</ele>
        <time>2022-09-15T08:25:49.255Z</time>
      </trkpt>
      <trkpt lat="44.14903" lon="0.46987">
        <ele>127</ele>
        <time>2022-09-15T08:25:50.255Z</time>
      </trkpt>
      <trkpt lat="44.14902" lon="0.46988">
        <ele>128</ele>
        <time>2022-09-15T08:25:51.255Z</time>
      </trkpt>
      <trkpt lat="44.149" lon="0.46988">
        <ele>128</ele>
        <time>2022-09-15T08:25:52.255Z</time>
      </trkpt>
      <trkpt lat="44.14899" lon="0.46988">
        <ele>128</ele>
        <time>2022-09-15T08:25:53.255Z</time>
      </trkpt>
      <trkpt lat="44.14898" lon="0.46988">
        <ele>127</ele>
        <time>2022-09-15T08:25:54.255Z</time>
      </trkpt>
      <trkpt lat="44.14897" lon="0.46987">
        <ele>127</ele>
        <time>2022-09-15T08:25:55.255Z</time>
      </trkpt>
      <trkpt lat="44.14896" lon="0.46986">
        <ele>127</ele>
        <time>2022-09-15T08:25:56.255Z</time>
      </trkpt>
      <trkpt lat="44.14895" lon="0.46986">
        <ele>127</ele>
        <time>2022-09-15T08:25:57.255Z</time>
      </trkpt>
      <trkpt lat="44.14894" lon="0.46985">
        <ele>127</ele>
        <time>2022-09-15T08:25:58.255Z</time>
      </trkpt>
      <trkpt lat="44.14893" lon="0.46985">
        <ele>127</ele>
        <time>2022-09-15T08:25:59.255Z</time>
      </trkpt>
      <trkpt lat="44.14892" lon="0.46984">
        <ele>127</ele>
        <time>2022-09-15T08:26:00.255Z</time>
      </trkpt>
      <trkpt lat="44.1489" lon="0.46983">
        <ele>126</ele>
        <time>2022-09-15T08:26:01.255Z</time>
      </trkpt>
      <trkpt lat="44.14889" lon="0.46983">
        <ele>126</ele>
        <time>2022-09-15T08:26:02.255Z</time>
      </trkpt>
      <trkpt lat="44.14888" lon="0.46982">
        <ele>126</ele>
        <time>2022-09-15T08:26:03.255Z</time>
      </trkpt>
      <trkpt lat="44.14887" lon="0.46981">
        <ele>126</ele>
        <time>2022-09-15T08:26:04.255Z</time>
      </trkpt>
      <trkpt lat="44.14886" lon="0.4698">
        <ele>126</ele>
        <time>2022-09-15T08:26:05.255Z</time>
      </trkpt>
      <trkpt lat="44.14885" lon="0.4698">
        <ele>126</ele>
        <time>2022-09-15T08:26:06.255Z</time>
      </trkpt>
      <trkpt lat="44.14884" lon="0.46979">
        <ele>126</ele>
        <time>2022-09-15T08:26:07.255Z</time>
      </trkpt>
      <trkpt lat="44.14883" lon="0.46978">
        <ele>126</ele>
        <time>2022-09-15T08:26:08.255Z</time>
      </trkpt>
      <trkpt lat="44.14881" lon="0.46978">
        <ele>126</ele>
        <time>2022-09-15T08:26:09.255Z</time>
      </trkpt>
      <trkpt lat="44.1488" lon="0.46977">
        <ele>126</ele>
        <time>2022-09-15T08:26:10.255Z</time>
      </trkpt>
      <trkpt lat="44.14879" lon="0.46976">
        <ele>126</ele>
        <time>2022-09-15T08:26:11.255Z</time>
      </trkpt>
      <trkpt lat="44.14878" lon="0.46976">
        <ele>127</ele>
        <time>2022-09-15T08:26:12.255Z</time>
      </trkpt>
      <trkpt lat="44.14876" lon="0.46976">
        <ele>127</ele>
        <time>2022-09-15T08:26:13.255Z</time>
      </trkpt>
      <trkpt lat="44.14875" lon="0.46976">
        <ele>127</ele>
        <time>2022-09-15T08:26:14.255Z</time>
      </trkpt>
      <trkpt lat="44.14874" lon="0.46975">
        <ele>127</ele>
        <time>2022-09-15T08:26:15.255Z</time>
      </trkpt>
      <trkpt lat="44.14873" lon="0.46975">
        <ele>126</ele>
        <time>2022-09-15T08:26:16.255Z</time>
      </trkpt>
      <trkpt lat="44.14872" lon="0.46974">
        <ele>126</ele>
        <time>2022-09-15T08:26:17.255Z</time>
      </trkpt>
      <trkpt lat="44.14871" lon="0.46974">
        <ele>127</ele>
        <time>2022-09-15T08:26:18.255Z</time>
      </trkpt>
      <trkpt lat="44.14869" lon="0.46973">
        <ele>127</ele>
        <time>2022-09-15T08:26:19.255Z</time>
      </trkpt>
      <trkpt lat="44.14868" lon="0.46972">
        <ele>127</ele>
        <time>2022-09-15T08:26:20.255Z</time>
      </trkpt>
      <trkpt lat="44.14867" lon="0.46972">
        <ele>127</ele>
        <time>2022-09-15T08:26:21.255Z</time>
      </trkpt>
      <trkpt lat="44.14865" lon="0.46971">
        <ele>127</ele>
        <time>2022-09-15T08:26:22.255Z</time>
      </trkpt>
      <trkpt lat="44.14864" lon="0.4697">
        <ele>127</ele>
        <time>2022-09-15T08:26:23.255Z</time>
      </trkpt>
      <trkpt lat="44.14863" lon="0.4697">
        <ele>127</ele>
        <time>2022-09-15T08:26:24.255Z</time>
      </trkpt>
      <trkpt lat="44.14862" lon="0.46969">
        <ele>127</ele>
        <time>2022-09-15T08:26:25.255Z</time>
      </trkpt>
      <trkpt lat="44.14861" lon="0.46969">
        <ele>127</ele>
        <time>2022-09-15T08:26:26.255Z</time>
      </trkpt>
      <trkpt lat="44.14859" lon="0.46969">
        <ele>128</ele>
        <time>2022-09-15T08:26:27.255Z</time>
      </trkpt>
      <trkpt lat="44.14858" lon="0.46968">
        <ele>127</ele>
        <time>2022-09-15T08:26:28.255Z</time>
      </trkpt>
      <trkpt lat="44.14857" lon="0.46968">
        <ele>127</ele>
        <time>2022-09-15T08:26:29.255Z</time>
      </trkpt>
      <trkpt lat="44.14856" lon="0.46968">
        <ele>127</ele>
        <time>2022-09-15T08:26:30.255Z</time>
      </trkpt>
      <trkpt lat="44.14854" lon="0.46967">
        <ele>127</ele>
        <time>2022-09-15T08:26:31.255Z</time>
      </trkpt>
      <trkpt lat="44.14853" lon="0.46966">
        <ele>127</ele>
        <time>2022-09-15T08:26:32.255Z</time>
      </trkpt>
      <trkpt lat="44.14852" lon="0.46966">
        <ele>127</ele>
        <time>2022-09-15T08:26:33.255Z</time>
      </trkpt>
      <trkpt lat="44.14851" lon="0.46966">
        <ele>127</ele>
        <time>2022-09-15T08:26:34.255Z</time>
      </trkpt>
      <trkpt lat="44.1485" lon="0.46965">
        <ele>127</ele>
        <time>2022-09-15T08:26:35.255Z</time>
      </trkpt>
      <trkpt lat="44.14848" lon="0.46965">
        <ele>128</ele>
        <time>2022-09-15T08:26:36.255Z</time>
      </trkpt>
      <trkpt lat="44.14847" lon="0.46964">
        <ele>128</ele>
        <time>2022-09-15T08:26:37.255Z</time>
      </trkpt>
      <trkpt lat="44.14846" lon="0.46964">
        <ele>127</ele>
        <time>2022-09-15T08:26:38.255Z</time>
      </trkpt>
      <trkpt lat="44.14844" lon="0.46963">
        <ele>128</ele>
        <time>2022-09-15T08:26:39.255Z</time>
      </trkpt>
      <trkpt lat="44.14843" lon="0.46963">
        <ele>128</ele>
        <time>2022-09-15T08:26:40.255Z</time>
      </trkpt>
      <trkpt lat="44.14842" lon="0.46962">
        <ele>128</ele>
        <time>2022-09-15T08:26:41.255Z</time>
      </trkpt>
      <trkpt lat="44.14841" lon="0.46961">
        <ele>128</ele>
        <time>2022-09-15T08:26:42.255Z</time>
      </trkpt>
      <trkpt lat="44.1484" lon="0.46961">
        <ele>128</ele>
        <time>2022-09-15T08:26:43.255Z</time>
      </trkpt>
      <trkpt lat="44.14839" lon="0.4696">
        <ele>128</ele>
        <time>2022-09-15T08:26:44.255Z</time>
      </trkpt>
      <trkpt lat="44.14838" lon="0.4696">
        <ele>128</ele>
        <time>2022-09-15T08:26:45.255Z</time>
      </trkpt>
      <trkpt lat="44.14836" lon="0.46959">
        <ele>128</ele>
        <time>2022-09-15T08:26:46.255Z</time>
      </trkpt>
      <trkpt lat="44.14835" lon="0.46959">
        <ele>127</ele>
        <time>2022-09-15T08:26:47.255Z</time>
      </trkpt>
      <trkpt lat="44.14834" lon="0.46958">
        <ele>127</ele>
        <time>2022-09-15T08:26:48.255Z</time>
      </trkpt>
      <trkpt lat="44.14833" lon="0.46957">
        <ele>127</ele>
        <time>2022-09-15T08:26:49.255Z</time>
      </trkpt>
      <trkpt lat="44.14832" lon="0.46957">
        <ele>127</ele>
        <time>2022-09-15T08:26:50.255Z</time>
      </trkpt>
      <trkpt lat="44.14831" lon="0.46956">
        <ele>127</ele>
        <time>2022-09-15T08:26:51.255Z</time>
      </trkpt>
      <trkpt lat="44.1483" lon="0.46956">
        <ele>128</ele>
        <time>2022-09-15T08:26:52.255Z</time>
      </trkpt>
      <trkpt lat="44.14829" lon="0.46955">
        <ele>128</ele>
        <time>2022-09-15T08:26:53.255Z</time>
      </trkpt>
      <trkpt lat="44.14828" lon="0.46955">
        <ele>128</ele>
        <time>2022-09-15T08:26:54.255Z</time>
      </trkpt>
      <trkpt lat="44.14826" lon="0.46954">
        <ele>127</ele>
        <time>2022-09-15T08:26:55.255Z</time>
      </trkpt>
      <trkpt lat="44.14825" lon="0.46954">
        <ele>127</ele>
        <time>2022-09-15T08:26:56.255Z</time>
      </trkpt>
      <trkpt lat="44.14824" lon="0.46953">
        <ele>127</ele>
        <time>2022-09-15T08:26:57.255Z</time>
      </trkpt>
      <trkpt lat="44.14823" lon="0.46953">
        <ele>127</ele>
        <time>2022-09-15T08:26:58.255Z</time>
      </trkpt>
      <trkpt lat="44.14822" lon="0.46953">
        <ele>128</ele>
        <time>2022-09-15T08:26:59.255Z</time>
      </trkpt>
      <trkpt lat="44.14821" lon="0.46952">
        <ele>128</ele>
        <time>2022-09-15T08:27:00.255Z</time>
      </trkpt>
      <trkpt lat="44.1482" lon="0.46952">
        <ele>128</ele>
        <time>2022-09-15T08:27:01.255Z</time>
      </trkpt>
      <trkpt lat="44.14819" lon="0.46952">
        <ele>128</ele>
        <time>2022-09-15T08:27:02.255Z</time>
      </trkpt>
      <trkpt lat="44.14818" lon="0.46951">
        <ele>128</ele>
        <time>2022-09-15T08:27:03.255Z</time>
      </trkpt>
      <trkpt lat="44.14817" lon="0.4695">
        <ele>128</ele>
        <time>2022-09-15T08:27:04.255Z</time>
      </trkpt>
      <trkpt lat="44.14815" lon="0.4695">
        <ele>128</ele>
        <time>2022-09-15T08:27:05.255Z</time>
      </trkpt>
      <trkpt lat="44.14814" lon="0.46949">
        <ele>128</ele>
        <time>2022-09-15T08:27:06.255Z</time>
      </trkpt>
      <trkpt lat="44.14813" lon="0.46948">
        <ele>129</ele>
        <time>2022-09-15T08:27:07.255Z</time>
      </trkpt>
      <trkpt lat="44.14812" lon="0.46948">
        <ele>129</ele>
        <time>2022-09-15T08:27:08.255Z</time>
      </trkpt>
      <trkpt lat="44.14811" lon="0.46947">
        <ele>128</ele>
        <time>2022-09-15T08:27:09.255Z</time>
      </trkpt>
      <trkpt lat="44.1481" lon="0.46946">
        <ele>129</ele>
        <time>2022-09-15T08:27:10.255Z</time>
      </trkpt>
      <trkpt lat="44.14809" lon="0.46946">
        <ele>129</ele>
        <time>2022-09-15T08:27:11.255Z</time>
      </trkpt>
      <trkpt lat="44.14808" lon="0.46945">
        <ele>129</ele>
        <time>2022-09-15T08:27:12.255Z</time>
      </trkpt>
      <trkpt lat="44.14807" lon="0.46945">
        <ele>129</ele>
        <time>2022-09-15T08:27:13.255Z</time>
      </trkpt>
      <trkpt lat="44.14806" lon="0.46944">
        <ele>129</ele>
        <time>2022-09-15T08:27:14.255Z</time>
      </trkpt>
      <trkpt lat="44.14805" lon="0.46944">
        <ele>129</ele>
        <time>2022-09-15T08:27:15.255Z</time>
      </trkpt>
      <trkpt lat="44.14804" lon="0.46943">
        <ele>129</ele>
        <time>2022-09-15T08:27:16.255Z</time>
      </trkpt>
      <trkpt lat="44.14803" lon="0.46943">
        <ele>129</ele>
        <time>2022-09-15T08:27:17.255Z</time>
      </trkpt>
      <trkpt lat="44.14802" lon="0.46942">
        <ele>129</ele>
        <time>2022-09-15T08:27:18.255Z</time>
      </trkpt>
      <trkpt lat="44.14801" lon="0.46941">
        <ele>129</ele>
        <time>2022-09-15T08:27:19.255Z</time>
      </trkpt>
      <trkpt lat="44.148" lon="0.46941">
        <ele>129</ele>
        <time>2022-09-15T08:27:20.255Z</time>
      </trkpt>
      <trkpt lat="44.14799" lon="0.4694">
        <ele>130</ele>
        <time>2022-09-15T08:27:21.255Z</time>
      </trkpt>
      <trkpt lat="44.14798" lon="0.46939">
        <ele>129</ele>
        <time>2022-09-15T08:27:22.255Z</time>
      </trkpt>
      <trkpt lat="44.14797" lon="0.46939">
        <ele>129</ele>
        <time>2022-09-15T08:27:23.255Z</time>
      </trkpt>
      <trkpt lat="44.14796" lon="0.46938">
        <ele>129</ele>
        <time>2022-09-15T08:27:24.255Z</time>
      </trkpt>
      <trkpt lat="44.14795" lon="0.46937">
        <ele>129</ele>
        <time>2022-09-15T08:27:25.255Z</time>
      </trkpt>
      <trkpt lat="44.14794" lon="0.46937">
        <ele>130</ele>
        <time>2022-09-15T08:27:26.255Z</time>
      </trkpt>
      <trkpt lat="44.14792" lon="0.46936">
        <ele>130</ele>
        <time>2022-09-15T08:27:27.255Z</time>
      </trkpt>
      <trkpt lat="44.14791" lon="0.46936">
        <ele>130</ele>
        <time>2022-09-15T08:27:28.255Z</time>
      </trkpt>
      <trkpt lat="44.1479" lon="0.46935">
        <ele>129</ele>
        <time>2022-09-15T08:27:29.255Z</time>
      </trkpt>
      <trkpt lat="44.14789" lon="0.46934">
        <ele>129</ele>
        <time>2022-09-15T08:27:30.255Z</time>
      </trkpt>
      <trkpt lat="44.14788" lon="0.46934">
        <ele>129</ele>
        <time>2022-09-15T08:27:31.255Z</time>
      </trkpt>
      <trkpt lat="44.14787" lon="0.46933">
        <ele>129</ele>
        <time>2022-09-15T08:27:32.255Z</time>
      </trkpt>
      <trkpt lat="44.14786" lon="0.46933">
        <ele>129</ele>
        <time>2022-09-15T08:27:33.255Z</time>
      </trkpt>
      <trkpt lat="44.14785" lon="0.46933">
        <ele>130</ele>
        <time>2022-09-15T08:27:34.255Z</time>
      </trkpt>
      <trkpt lat="44.14784" lon="0.46932">
        <ele>130</ele>
        <time>2022-09-15T08:27:35.255Z</time>
      </trkpt>
      <trkpt lat="44.14783" lon="0.46931">
        <ele>130</ele>
        <time>2022-09-15T08:27:36.255Z</time>
      </trkpt>
      <trkpt lat="44.14782" lon="0.46931">
        <ele>130</ele>
        <time>2022-09-15T08:27:37.255Z</time>
      </trkpt>
      <trkpt lat="44.14781" lon="0.4693">
        <ele>130</ele>
        <time>2022-09-15T08:27:38.255Z</time>
      </trkpt>
      <trkpt lat="44.14781" lon="0.46929">
        <ele>131</ele>
        <time>2022-09-15T08:27:39.255Z</time>
      </trkpt>
      <trkpt lat="44.1478" lon="0.46928">
        <ele>131</ele>
        <time>2022-09-15T08:27:40.255Z</time>
      </trkpt>
      <trkpt lat="44.1478" lon="0.46928">
        <ele>131</ele>
        <time>2022-09-15T08:27:41.255Z</time>
      </trkpt>
      <trkpt lat="44.14779" lon="0.46927">
        <ele>131</ele>
        <time>2022-09-15T08:27:42.255Z</time>
      </trkpt>
      <trkpt lat="44.14779" lon="0.46927">
        <ele>131</ele>
        <time>2022-09-15T08:27:43.255Z</time>
      </trkpt>
      <trkpt lat="44.14778" lon="0.46926">
        <ele>130</ele>
        <time>2022-09-15T08:27:44.255Z</time>
      </trkpt>
      <trkpt lat="44.14777" lon="0.46926">
        <ele>130</ele>
        <time>2022-09-15T08:27:45.255Z</time>
      </trkpt>
      <trkpt lat="44.14776" lon="0.46926">
        <ele>131</ele>
        <time>2022-09-15T08:27:46.255Z</time>
      </trkpt>
      <trkpt lat="44.14775" lon="0.46926">
        <ele>130</ele>
        <time>2022-09-15T08:27:47.255Z</time>
      </trkpt>
      <trkpt lat="44.14774" lon="0.46926">
        <ele>130</ele>
        <time>2022-09-15T08:27:48.255Z</time>
      </trkpt>
      <trkpt lat="44.14773" lon="0.46926">
        <ele>130</ele>
        <time>2022-09-15T08:27:49.255Z</time>
      </trkpt>
      <trkpt lat="44.14772" lon="0.46926">
        <ele>130</ele>
        <time>2022-09-15T08:27:50.255Z</time>
      </trkpt>
      <trkpt lat="44.14771" lon="0.46926">
        <ele>131</ele>
        <time>2022-09-15T08:27:51.255Z</time>
      </trkpt>
      <trkpt lat="44.1477" lon="0.46925">
        <ele>131</ele>
        <time>2022-09-15T08:27:52.255Z</time>
      </trkpt>
      <trkpt lat="44.14769" lon="0.46925">
        <ele>131</ele>
        <time>2022-09-15T08:27:53.255Z</time>
      </trkpt>
      <trkpt lat="44.14767" lon="0.46925">
        <ele>131</ele>
        <time>2022-09-15T08:27:54.255Z</time>
      </trkpt>
      <trkpt lat="44.14766" lon="0.46925">
        <ele>131</ele>
        <time>2022-09-15T08:27:55.255Z</time>
      </trkpt>
      <trkpt lat="44.14765" lon="0.46925">
        <ele>131</ele>
        <time>2022-09-15T08:27:56.255Z</time>
      </trkpt>
      <trkpt lat="44.14764" lon="0.46925">
        <ele>131</ele>
        <time>2022-09-15T08:27:57.255Z</time>
      </trkpt>
      <trkpt lat="44.14763" lon="0.46925">
        <ele>131</ele>
        <time>2022-09-15T08:27:58.255Z</time>
      </trkpt>
      <trkpt lat="44.14762" lon="0.46925">
        <ele>131</ele>
        <time>2022-09-15T08:27:59.255Z</time>
      </trkpt>
      <trkpt lat="44.14761" lon="0.46924">
        <ele>131</ele>
        <time>2022-09-15T08:28:00.255Z</time>
      </trkpt>
      <trkpt lat="44.14759" lon="0.46924">
        <ele>131</ele>
        <time>2022-09-15T08:28:01.255Z</time>
      </trkpt>
      <trkpt lat="44.14758" lon="0.46923">
        <ele>131</ele>
        <time>2022-09-15T08:28:02.255Z</time>
      </trkpt>
      <trkpt lat="44.14757" lon="0.46923">
        <ele>131</ele>
        <time>2022-09-15T08:28:03.255Z</time>
      </trkpt>
      <trkpt lat="44.14757" lon="0.46923">
        <ele>131</ele>
        <time>2022-09-15T08:28:04.255Z</time>
      </trkpt>
      <trkpt lat="44.14756" lon="0.46923">
        <ele>130</ele>
        <time>2022-09-15T08:28:05.255Z</time>
      </trkpt>
      <trkpt lat="44.14756" lon="0.46923">
        <ele>130</ele>
        <time>2022-09-15T08:28:06.255Z</time>
      </trkpt>
      <trkpt lat="44.14756" lon="0.46923">
        <ele>130</ele>
        <time>2022-09-15T08:28:07.255Z</time>
      </trkpt>
      <trkpt lat="44.14756" lon="0.46922">
        <ele>130</ele>
        <time>2022-09-15T08:28:08.255Z</time>
      </trkpt>
      <trkpt lat="44.14756" lon="0.46922">
        <ele>131</ele>
        <time>2022-09-15T08:28:09.255Z</time>
      </trkpt>
      <trkpt lat="44.14756" lon="0.46922">
        <ele>131</ele>
        <time>2022-09-15T08:28:10.255Z</time>
      </trkpt>
      <trkpt lat="44.14755" lon="0.46922">
        <ele>131</ele>
        <time>2022-09-15T08:28:11.255Z</time>
      </trkpt>
      <trkpt lat="44.14755" lon="0.46922">
        <ele>130</ele>
        <time>2022-09-15T08:28:12.255Z</time>
      </trkpt>
      <trkpt lat="44.14754" lon="0.46922">
        <ele>130</ele>
        <time>2022-09-15T08:28:13.255Z</time>
      </trkpt>
      <trkpt lat="44.14753" lon="0.46922">
        <ele>130</ele>
        <time>2022-09-15T08:28:14.255Z</time>
      </trkpt>
      <trkpt lat="44.14752" lon="0.46922">
        <ele>130</ele>
        <time>2022-09-15T08:28:15.255Z</time>
      </trkpt>
      <trkpt lat="44.14751" lon="0.46921">
        <ele>129</ele>
        <time>2022-09-15T08:28:16.255Z</time>
      </trkpt>
      <trkpt lat="44.1475" lon="0.46921">
        <ele>129</ele>
        <time>2022-09-15T08:28:17.255Z</time>
      </trkpt>
      <trkpt lat="44.14749" lon="0.4692">
        <ele>129</ele>
        <time>2022-09-15T08:28:18.255Z</time>
      </trkpt>
      <trkpt lat="44.14747" lon="0.4692">
        <ele>130</ele>
        <time>2022-09-15T08:28:19.255Z</time>
      </trkpt>
      <trkpt lat="44.14746" lon="0.4692">
        <ele>130</ele>
        <time>2022-09-15T08:28:20.255Z</time>
      </trkpt>
      <trkpt lat="44.14745" lon="0.4692">
        <ele>130</ele>
        <time>2022-09-15T08:28:21.255Z</time>
      </trkpt>
      <trkpt lat="44.14743" lon="0.4692">
        <ele>129</ele>
        <time>2022-09-15T08:28:22.255Z</time>
      </trkpt>
      <trkpt lat="44.14742" lon="0.46919">
        <ele>129</ele>
        <time>2022-09-15T08:28:23.255Z</time>
      </trkpt>
      <trkpt lat="44.14741" lon="0.46918">
        <ele>129</ele>
        <time>2022-09-15T08:28:24.255Z</time>
      </trkpt>
      <trkpt lat="44.14739" lon="0.46918">
        <ele>128</ele>
        <time>2022-09-15T08:28:25.255Z</time>
      </trkpt>
      <trkpt lat="44.14738" lon="0.46917">
        <ele>129</ele>
        <time>2022-09-15T08:28:26.255Z</time>
      </trkpt>
      <trkpt lat="44.14737" lon="0.46917">
        <ele>128</ele>
        <time>2022-09-15T08:28:27.255Z</time>
      </trkpt>
      <trkpt lat="44.14735" lon="0.46916">
        <ele>128</ele>
        <time>2022-09-15T08:28:28.255Z</time>
      </trkpt>
      <trkpt lat="44.14734" lon="0.46916">
        <ele>128</ele>
        <time>2022-09-15T08:28:29.255Z</time>
      </trkpt>
      <trkpt lat="44.14732" lon="0.46915">
        <ele>128</ele>
        <time>2022-09-15T08:28:30.255Z</time>
      </trkpt>
      <trkpt lat="44.14731" lon="0.46915">
        <ele>128</ele>
        <time>2022-09-15T08:28:31.255Z</time>
      </trkpt>
      <trkpt lat="44.14729" lon="0.46914">
        <ele>128</ele>
        <time>2022-09-15T08:28:32.255Z</time>
      </trkpt>
      <trkpt lat="44.14728" lon="0.46914">
        <ele>128</ele>
        <time>2022-09-15T08:28:33.255Z</time>
      </trkpt>
      <trkpt lat="44.14726" lon="0.46913">
        <ele>128</ele>
        <time>2022-09-15T08:28:34.255Z</time>
      </trkpt>
      <trkpt lat="44.14725" lon="0.46913">
        <ele>128</ele>
        <time>2022-09-15T08:28:35.255Z</time>
      </trkpt>
      <trkpt lat="44.14724" lon="0.46912">
        <ele>128</ele>
        <time>2022-09-15T08:28:36.255Z</time>
      </trkpt>
      <trkpt lat="44.14722" lon="0.46912">
        <ele>127</ele>
        <time>2022-09-15T08:28:37.255Z</time>
      </trkpt>
      <trkpt lat="44.14721" lon="0.46912">
        <ele>127</ele>
        <time>2022-09-15T08:28:38.255Z</time>
      </trkpt>
      <trkpt lat="44.1472" lon="0.46911">
        <ele>127</ele>
        <time>2022-09-15T08:28:39.255Z</time>
      </trkpt>
      <trkpt lat="44.14719" lon="0.46911">
        <ele>127</ele>
        <time>2022-09-15T08:28:40.255Z</time>
      </trkpt>
      <trkpt lat="44.14718" lon="0.46911">
        <ele>127</ele>
        <time>2022-09-15T08:28:41.255Z</time>
      </trkpt>
      <trkpt lat="44.14717" lon="0.46911">
        <ele>127</ele>
        <time>2022-09-15T08:28:42.255Z</time>
      </trkpt>
      <trkpt lat="44.14717" lon="0.46911">
        <ele>127</ele>
        <time>2022-09-15T08:28:43.255Z</time>
      </trkpt>
      <trkpt lat="44.14716" lon="0.4691">
        <ele>126</ele>
        <time>2022-09-15T08:28:44.255Z</time>
      </trkpt>
      <trkpt lat="44.14716" lon="0.4691">
        <ele>126</ele>
        <time>2022-09-15T08:28:45.255Z</time>
      </trkpt>
      <trkpt lat="44.14716" lon="0.4691">
        <ele>126</ele>
        <time>2022-09-15T08:28:46.255Z</time>
      </trkpt>
      <trkpt lat="44.14716" lon="0.4691">
        <ele>126</ele>
        <time>2022-09-15T08:28:47.255Z</time>
      </trkpt>
      <trkpt lat="44.14716" lon="0.4691">
        <ele>126</ele>
        <time>2022-09-15T08:28:48.255Z</time>
      </trkpt>
      <trkpt lat="44.14716" lon="0.4691">
        <ele>126</ele>
        <time>2022-09-15T08:28:49.255Z</time>
      </trkpt>
      <trkpt lat="44.14715" lon="0.46911">
        <ele>126</ele>
        <time>2022-09-15T08:28:50.255Z</time>
      </trkpt>
      <trkpt lat="44.14715" lon="0.46911">
        <ele>126</ele>
        <time>2022-09-15T08:28:51.255Z</time>
      </trkpt>
      <trkpt lat="44.14714" lon="0.46911">
        <ele>125</ele>
        <time>2022-09-15T08:28:52.255Z</time>
      </trkpt>
      <trkpt lat="44.14713" lon="0.46911">
        <ele>125</ele>
        <time>2022-09-15T08:28:53.255Z</time>
      </trkpt>
      <trkpt lat="44.14712" lon="0.46911">
        <ele>125</ele>
        <time>2022-09-15T08:28:54.255Z</time>
      </trkpt>
      <trkpt lat="44.14711" lon="0.46911">
        <ele>124</ele>
        <time>2022-09-15T08:28:55.255Z</time>
      </trkpt>
      <trkpt lat="44.1471" lon="0.4691">
        <ele>124</ele>
        <time>2022-09-15T08:28:56.255Z</time>
      </trkpt>
      <trkpt lat="44.1471" lon="0.4691">
        <ele>124</ele>
        <time>2022-09-15T08:28:57.255Z</time>
      </trkpt>
      <trkpt lat="44.14709" lon="0.4691">
        <ele>124</ele>
        <time>2022-09-15T08:28:58.255Z</time>
      </trkpt>
      <trkpt lat="44.14708" lon="0.4691">
        <ele>123</ele>
        <time>2022-09-15T08:28:59.255Z</time>
      </trkpt>
      <trkpt lat="44.14708" lon="0.46911">
        <ele>123</ele>
        <time>2022-09-15T08:29:00.255Z</time>
      </trkpt>
      <trkpt lat="44.14707" lon="0.46911">
        <ele>123</ele>
        <time>2022-09-15T08:29:01.255Z</time>
      </trkpt>
      <trkpt lat="44.14706" lon="0.46911">
        <ele>123</ele>
        <time>2022-09-15T08:29:02.255Z</time>
      </trkpt>
      <trkpt lat="44.14705" lon="0.46911">
        <ele>123</ele>
        <time>2022-09-15T08:29:03.255Z</time>
      </trkpt>
      <trkpt lat="44.14705" lon="0.46911">
        <ele>122</ele>
        <time>2022-09-15T08:29:04.255Z</time>
      </trkpt>
      <trkpt lat="44.14704" lon="0.46911">
        <ele>122</ele>
        <time>2022-09-15T08:29:05.255Z</time>
      </trkpt>
      <trkpt lat="44.14704" lon="0.46911">
        <ele>122</ele>
        <time>2022-09-15T08:29:06.255Z</time>
      </trkpt>
      <trkpt lat="44.14703" lon="0.46911">
        <ele>122</ele>
        <time>2022-09-15T08:29:07.255Z</time>
      </trkpt>
      <trkpt lat="44.14703" lon="0.46911">
        <ele>122</ele>
        <time>2022-09-15T08:29:08.255Z</time>
      </trkpt>
      <trkpt lat="44.14702" lon="0.46914">
        <ele>122</ele>
        <time>2022-09-15T08:29:18.275Z</time>
      </trkpt>
      <trkpt lat="44.14701" lon="0.46914">
        <ele>122</ele>
        <time>2022-09-15T08:29:19.275Z</time>
      </trkpt>
      <trkpt lat="44.14701" lon="0.46914">
        <ele>121</ele>
        <time>2022-09-15T08:29:20.275Z</time>
      </trkpt>
      <trkpt lat="44.147" lon="0.46915">
        <ele>121</ele>
        <time>2022-09-15T08:29:21.275Z</time>
      </trkpt>
      <trkpt lat="44.14699" lon="0.46915">
        <ele>121</ele>
        <time>2022-09-15T08:29:22.275Z</time>
      </trkpt>
      <trkpt lat="44.14698" lon="0.46916">
        <ele>121</ele>
        <time>2022-09-15T08:29:23.275Z</time>
      </trkpt>
      <trkpt lat="44.14696" lon="0.46916">
        <ele>121</ele>
        <time>2022-09-15T08:29:24.275Z</time>
      </trkpt>
      <trkpt lat="44.14695" lon="0.46917">
        <ele>121</ele>
        <time>2022-09-15T08:29:25.275Z</time>
      </trkpt>
      <trkpt lat="44.14694" lon="0.46917">
        <ele>121</ele>
        <time>2022-09-15T08:29:26.275Z</time>
      </trkpt>
      <trkpt lat="44.14693" lon="0.46917">
        <ele>121</ele>
        <time>2022-09-15T08:29:27.275Z</time>
      </trkpt>
      <trkpt lat="44.14692" lon="0.46918">
        <ele>121</ele>
        <time>2022-09-15T08:29:28.275Z</time>
      </trkpt>
      <trkpt lat="44.14691" lon="0.46918">
        <ele>120</ele>
        <time>2022-09-15T08:29:29.275Z</time>
      </trkpt>
      <trkpt lat="44.1469" lon="0.46919">
        <ele>120</ele>
        <time>2022-09-15T08:29:30.275Z</time>
      </trkpt>
      <trkpt lat="44.14689" lon="0.46919">
        <ele>120</ele>
        <time>2022-09-15T08:29:31.275Z</time>
      </trkpt>
      <trkpt lat="44.14688" lon="0.4692">
        <ele>120</ele>
        <time>2022-09-15T08:29:32.275Z</time>
      </trkpt>
      <trkpt lat="44.14686" lon="0.4692">
        <ele>119</ele>
        <time>2022-09-15T08:29:33.275Z</time>
      </trkpt>
      <trkpt lat="44.14685" lon="0.4692">
        <ele>120</ele>
        <time>2022-09-15T08:29:34.275Z</time>
      </trkpt>
      <trkpt lat="44.14684" lon="0.46919">
        <ele>120</ele>
        <time>2022-09-15T08:29:35.275Z</time>
      </trkpt>
      <trkpt lat="44.14683" lon="0.46919">
        <ele>119</ele>
        <time>2022-09-15T08:29:36.275Z</time>
      </trkpt>
      <trkpt lat="44.14682" lon="0.46919">
        <ele>119</ele>
        <time>2022-09-15T08:29:37.275Z</time>
      </trkpt>
      <trkpt lat="44.1468" lon="0.46919">
        <ele>119</ele>
        <time>2022-09-15T08:29:38.275Z</time>
      </trkpt>
      <trkpt lat="44.14679" lon="0.46919">
        <ele>119</ele>
        <time>2022-09-15T08:29:39.275Z</time>
      </trkpt>
      <trkpt lat="44.14678" lon="0.46919">
        <ele>120</ele>
        <time>2022-09-15T08:29:40.275Z</time>
      </trkpt>
      <trkpt lat="44.14677" lon="0.46919">
        <ele>120</ele>
        <time>2022-09-15T08:29:41.275Z</time>
      </trkpt>
      <trkpt lat="44.14675" lon="0.46919">
        <ele>119</ele>
        <time>2022-09-15T08:29:42.275Z</time>
      </trkpt>
      <trkpt lat="44.14674" lon="0.46919">
        <ele>119</ele>
        <time>2022-09-15T08:29:43.275Z</time>
      </trkpt>
      <trkpt lat="44.14673" lon="0.46918">
        <ele>119</ele>
        <time>2022-09-15T08:29:44.275Z</time>
      </trkpt>
      <trkpt lat="44.14672" lon="0.46918">
        <ele>119</ele>
        <time>2022-09-15T08:29:45.275Z</time>
      </trkpt>
      <trkpt lat="44.14669" lon="0.46917">
        <ele>118</ele>
        <time>2022-09-15T08:29:46.275Z</time>
      </trkpt>
      <trkpt lat="44.14668" lon="0.46916">
        <ele>118</ele>
        <time>2022-09-15T08:29:48.275Z</time>
      </trkpt>
      <trkpt lat="44.14667" lon="0.46916">
        <ele>118</ele>
        <time>2022-09-15T08:29:49.275Z</time>
      </trkpt>
      <trkpt lat="44.14666" lon="0.46916">
        <ele>118</ele>
        <time>2022-09-15T08:29:50.275Z</time>
      </trkpt>
      <trkpt lat="44.14664" lon="0.46915">
        <ele>118</ele>
        <time>2022-09-15T08:29:51.275Z</time>
      </trkpt>
      <trkpt lat="44.14663" lon="0.46915">
        <ele>118</ele>
        <time>2022-09-15T08:29:52.275Z</time>
      </trkpt>
      <trkpt lat="44.14662" lon="0.46914">
        <ele>118</ele>
        <time>2022-09-15T08:29:53.275Z</time>
      </trkpt>
      <trkpt lat="44.14661" lon="0.46914">
        <ele>118</ele>
        <time>2022-09-15T08:29:54.275Z</time>
      </trkpt>
      <trkpt lat="44.1466" lon="0.46913">
        <ele>118</ele>
        <time>2022-09-15T08:29:55.275Z</time>
      </trkpt>
      <trkpt lat="44.14659" lon="0.46913">
        <ele>118</ele>
        <time>2022-09-15T08:29:56.275Z</time>
      </trkpt>
      <trkpt lat="44.14657" lon="0.46912">
        <ele>118</ele>
        <time>2022-09-15T08:29:57.275Z</time>
      </trkpt>
      <trkpt lat="44.14656" lon="0.46912">
        <ele>117</ele>
        <time>2022-09-15T08:29:58.275Z</time>
      </trkpt>
      <trkpt lat="44.14655" lon="0.46911">
        <ele>117</ele>
        <time>2022-09-15T08:29:59.275Z</time>
      </trkpt>
      <trkpt lat="44.14654" lon="0.46911">
        <ele>117</ele>
        <time>2022-09-15T08:30:00.275Z</time>
      </trkpt>
      <trkpt lat="44.14653" lon="0.4691">
        <ele>117</ele>
        <time>2022-09-15T08:30:01.275Z</time>
      </trkpt>
      <trkpt lat="44.14651" lon="0.4691">
        <ele>117</ele>
        <time>2022-09-15T08:30:02.275Z</time>
      </trkpt>
      <trkpt lat="44.1465" lon="0.46909">
        <ele>118</ele>
        <time>2022-09-15T08:30:03.275Z</time>
      </trkpt>
      <trkpt lat="44.14649" lon="0.46909">
        <ele>118</ele>
        <time>2022-09-15T08:30:04.275Z</time>
      </trkpt>
      <trkpt lat="44.14648" lon="0.46909">
        <ele>118</ele>
        <time>2022-09-15T08:30:05.275Z</time>
      </trkpt>
      <trkpt lat="44.14647" lon="0.46908">
        <ele>118</ele>
        <time>2022-09-15T08:30:06.275Z</time>
      </trkpt>
      <trkpt lat="44.14645" lon="0.46908">
        <ele>118</ele>
        <time>2022-09-15T08:30:07.275Z</time>
      </trkpt>
      <trkpt lat="44.14644" lon="0.46907">
        <ele>118</ele>
        <time>2022-09-15T08:30:08.275Z</time>
      </trkpt>
      <trkpt lat="44.14643" lon="0.46907">
        <ele>118</ele>
        <time>2022-09-15T08:30:09.275Z</time>
      </trkpt>
      <trkpt lat="44.14642" lon="0.46906">
        <ele>118</ele>
        <time>2022-09-15T08:30:10.275Z</time>
      </trkpt>
      <trkpt lat="44.14641" lon="0.46906">
        <ele>118</ele>
        <time>2022-09-15T08:30:11.275Z</time>
      </trkpt>
      <trkpt lat="44.14639" lon="0.46906">
        <ele>118</ele>
        <time>2022-09-15T08:30:12.275Z</time>
      </trkpt>
      <trkpt lat="44.14638" lon="0.46906">
        <ele>118</ele>
        <time>2022-09-15T08:30:13.275Z</time>
      </trkpt>
      <trkpt lat="44.14637" lon="0.46905">
        <ele>118</ele>
        <time>2022-09-15T08:30:14.275Z</time>
      </trkpt>
      <trkpt lat="44.14636" lon="0.46905">
        <ele>118</ele>
        <time>2022-09-15T08:30:15.275Z</time>
      </trkpt>
      <trkpt lat="44.14634" lon="0.46904">
        <ele>119</ele>
        <time>2022-09-15T08:30:16.275Z</time>
      </trkpt>
      <trkpt lat="44.14633" lon="0.46904">
        <ele>119</ele>
        <time>2022-09-15T08:30:17.275Z</time>
      </trkpt>
      <trkpt lat="44.14632" lon="0.46903">
        <ele>119</ele>
        <time>2022-09-15T08:30:18.275Z</time>
      </trkpt>
      <trkpt lat="44.1463" lon="0.46903">
        <ele>119</ele>
        <time>2022-09-15T08:30:19.275Z</time>
      </trkpt>
      <trkpt lat="44.14629" lon="0.46902">
        <ele>119</ele>
        <time>2022-09-15T08:30:20.275Z</time>
      </trkpt>
      <trkpt lat="44.14628" lon="0.46902">
        <ele>119</ele>
        <time>2022-09-15T08:30:21.275Z</time>
      </trkpt>
      <trkpt lat="44.14626" lon="0.46902">
        <ele>120</ele>
        <time>2022-09-15T08:30:22.275Z</time>
      </trkpt>
      <trkpt lat="44.14625" lon="0.46901">
        <ele>120</ele>
        <time>2022-09-15T08:30:23.275Z</time>
      </trkpt>
      <trkpt lat="44.14624" lon="0.46901">
        <ele>121</ele>
        <time>2022-09-15T08:30:24.275Z</time>
      </trkpt>
      <trkpt lat="44.14623" lon="0.469">
        <ele>121</ele>
        <time>2022-09-15T08:30:25.275Z</time>
      </trkpt>
      <trkpt lat="44.14621" lon="0.469">
        <ele>122</ele>
        <time>2022-09-15T08:30:26.275Z</time>
      </trkpt>
      <trkpt lat="44.1462" lon="0.46899">
        <ele>122</ele>
        <time>2022-09-15T08:30:27.275Z</time>
      </trkpt>
      <trkpt lat="44.14619" lon="0.46898">
        <ele>122</ele>
        <time>2022-09-15T08:30:28.275Z</time>
      </trkpt>
      <trkpt lat="44.14618" lon="0.46898">
        <ele>122</ele>
        <time>2022-09-15T08:30:29.275Z</time>
      </trkpt>
      <trkpt lat="44.14616" lon="0.46897">
        <ele>122</ele>
        <time>2022-09-15T08:30:30.275Z</time>
      </trkpt>
      <trkpt lat="44.14615" lon="0.46897">
        <ele>122</ele>
        <time>2022-09-15T08:30:31.275Z</time>
      </trkpt>
      <trkpt lat="44.14614" lon="0.46896">
        <ele>123</ele>
        <time>2022-09-15T08:30:32.275Z</time>
      </trkpt>
      <trkpt lat="44.14613" lon="0.46895">
        <ele>123</ele>
        <time>2022-09-15T08:30:33.275Z</time>
      </trkpt>
      <trkpt lat="44.14612" lon="0.46895">
        <ele>123</ele>
        <time>2022-09-15T08:30:34.275Z</time>
      </trkpt>
      <trkpt lat="44.14611" lon="0.46894">
        <ele>123</ele>
        <time>2022-09-15T08:30:35.275Z</time>
      </trkpt>
      <trkpt lat="44.1461" lon="0.46894">
        <ele>123</ele>
        <time>2022-09-15T08:30:36.275Z</time>
      </trkpt>
      <trkpt lat="44.14609" lon="0.46893">
        <ele>123</ele>
        <time>2022-09-15T08:30:37.275Z</time>
      </trkpt>
      <trkpt lat="44.14608" lon="0.46893">
        <ele>124</ele>
        <time>2022-09-15T08:30:38.275Z</time>
      </trkpt>
      <trkpt lat="44.14607" lon="0.46893">
        <ele>124</ele>
        <time>2022-09-15T08:30:39.275Z</time>
      </trkpt>
      <trkpt lat="44.14606" lon="0.46892">
        <ele>124</ele>
        <time>2022-09-15T08:30:40.275Z</time>
      </trkpt>
      <trkpt lat="44.14605" lon="0.46892">
        <ele>124</ele>
        <time>2022-09-15T08:30:41.275Z</time>
      </trkpt>
      <trkpt lat="44.14604" lon="0.46891">
        <ele>124</ele>
        <time>2022-09-15T08:30:42.275Z</time>
      </trkpt>
      <trkpt lat="44.14602" lon="0.4689">
        <ele>125</ele>
        <time>2022-09-15T08:30:43.275Z</time>
      </trkpt>
      <trkpt lat="44.14601" lon="0.46889">
        <ele>125</ele>
        <time>2022-09-15T08:30:44.275Z</time>
      </trkpt>
      <trkpt lat="44.146" lon="0.46889">
        <ele>125</ele>
        <time>2022-09-15T08:30:45.275Z</time>
      </trkpt>
      <trkpt lat="44.14599" lon="0.46888">
        <ele>125</ele>
        <time>2022-09-15T08:30:46.275Z</time>
      </trkpt>
      <trkpt lat="44.14598" lon="0.46888">
        <ele>126</ele>
        <time>2022-09-15T08:30:47.275Z</time>
      </trkpt>
      <trkpt lat="44.14597" lon="0.46887">
        <ele>126</ele>
        <time>2022-09-15T08:30:48.275Z</time>
      </trkpt>
      <trkpt lat="44.14596" lon="0.46887">
        <ele>126</ele>
        <time>2022-09-15T08:30:49.275Z</time>
      </trkpt>
      <trkpt lat="44.14595" lon="0.46886">
        <ele>126</ele>
        <time>2022-09-15T08:30:50.275Z</time>
      </trkpt>
      <trkpt lat="44.14594" lon="0.46885">
        <ele>126</ele>
        <time>2022-09-15T08:30:51.275Z</time>
      </trkpt>
      <trkpt lat="44.14593" lon="0.46885">
        <ele>125</ele>
        <time>2022-09-15T08:30:52.275Z</time>
      </trkpt>
      <trkpt lat="44.14592" lon="0.46885">
        <ele>126</ele>
        <time>2022-09-15T08:30:53.275Z</time>
      </trkpt>
      <trkpt lat="44.14591" lon="0.46884">
        <ele>126</ele>
        <time>2022-09-15T08:30:54.275Z</time>
      </trkpt>
      <trkpt lat="44.14589" lon="0.46884">
        <ele>126</ele>
        <time>2022-09-15T08:30:55.275Z</time>
      </trkpt>
      <trkpt lat="44.14588" lon="0.46884">
        <ele>127</ele>
        <time>2022-09-15T08:30:57.275Z</time>
      </trkpt>
      <trkpt lat="44.14588" lon="0.46883">
        <ele>126</ele>
        <time>2022-09-15T08:30:58.275Z</time>
      </trkpt>
      <trkpt lat="44.14587" lon="0.46883">
        <ele>126</ele>
        <time>2022-09-15T08:30:59.275Z</time>
      </trkpt>
      <trkpt lat="44.14586" lon="0.46882">
        <ele>126</ele>
        <time>2022-09-15T08:31:00.275Z</time>
      </trkpt>
      <trkpt lat="44.14585" lon="0.46882">
        <ele>126</ele>
        <time>2022-09-15T08:31:01.275Z</time>
      </trkpt>
      <trkpt lat="44.14582" lon="0.46881">
        <ele>127</ele>
        <time>2022-09-15T08:31:02.275Z</time>
      </trkpt>
      <trkpt lat="44.14582" lon="0.46881">
        <ele>127</ele>
        <time>2022-09-15T08:31:04.275Z</time>
      </trkpt>
      <trkpt lat="44.1458" lon="0.46881">
        <ele>128</ele>
        <time>2022-09-15T08:31:05.275Z</time>
      </trkpt>
      <trkpt lat="44.14578" lon="0.4688">
        <ele>128</ele>
        <time>2022-09-15T08:31:06.275Z</time>
      </trkpt>
      <trkpt lat="44.14577" lon="0.4688">
        <ele>128</ele>
        <time>2022-09-15T08:31:08.275Z</time>
      </trkpt>
      <trkpt lat="44.14576" lon="0.4688">
        <ele>128</ele>
        <time>2022-09-15T08:31:09.275Z</time>
      </trkpt>
      <trkpt lat="44.14574" lon="0.4688">
        <ele>129</ele>
        <time>2022-09-15T08:31:10.275Z</time>
      </trkpt>
      <trkpt lat="44.14573" lon="0.4688">
        <ele>129</ele>
        <time>2022-09-15T08:31:11.275Z</time>
      </trkpt>
      <trkpt lat="44.14572" lon="0.4688">
        <ele>129</ele>
        <time>2022-09-15T08:31:12.275Z</time>
      </trkpt>
      <trkpt lat="44.1457" lon="0.46879">
        <ele>129</ele>
        <time>2022-09-15T08:31:13.275Z</time>
      </trkpt>
      <trkpt lat="44.14567" lon="0.46879">
        <ele>129</ele>
        <time>2022-09-15T08:31:15.275Z</time>
      </trkpt>
      <trkpt lat="44.14565" lon="0.46878">
        <ele>129</ele>
        <time>2022-09-15T08:31:17.275Z</time>
      </trkpt>
      <trkpt lat="44.14563" lon="0.46878">
        <ele>129</ele>
        <time>2022-09-15T08:31:19.275Z</time>
      </trkpt>
      <trkpt lat="44.14561" lon="0.46876">
        <ele>129</ele>
        <time>2022-09-15T08:31:21.275Z</time>
      </trkpt>
      <trkpt lat="44.14559" lon="0.46876">
        <ele>129</ele>
        <time>2022-09-15T08:31:22.275Z</time>
      </trkpt>
      <trkpt lat="44.14557" lon="0.46875">
        <ele>129</ele>
        <time>2022-09-15T08:31:24.275Z</time>
      </trkpt>
      <trkpt lat="44.14556" lon="0.46874">
        <ele>129</ele>
        <time>2022-09-15T08:31:25.275Z</time>
      </trkpt>
      <trkpt lat="44.14555" lon="0.46874">
        <ele>128</ele>
        <time>2022-09-15T08:31:26.275Z</time>
      </trkpt>
      <trkpt lat="44.14554" lon="0.46873">
        <ele>128</ele>
        <time>2022-09-15T08:31:27.275Z</time>
      </trkpt>
      <trkpt lat="44.14553" lon="0.46873">
        <ele>129</ele>
        <time>2022-09-15T08:31:28.275Z</time>
      </trkpt>
      <trkpt lat="44.14551" lon="0.46873">
        <ele>129</ele>
        <time>2022-09-15T08:31:30.275Z</time>
      </trkpt>
      <trkpt lat="44.1455" lon="0.46872">
        <ele>129</ele>
        <time>2022-09-15T08:31:31.275Z</time>
      </trkpt>
      <trkpt lat="44.14549" lon="0.46872">
        <ele>129</ele>
        <time>2022-09-15T08:31:32.275Z</time>
      </trkpt>
      <trkpt lat="44.14548" lon="0.46871">
        <ele>129</ele>
        <time>2022-09-15T08:31:33.275Z</time>
      </trkpt>
      <trkpt lat="44.14547" lon="0.46871">
        <ele>129</ele>
        <time>2022-09-15T08:31:34.275Z</time>
      </trkpt>
      <trkpt lat="44.14544" lon="0.4687">
        <ele>129</ele>
        <time>2022-09-15T08:31:35.275Z</time>
      </trkpt>
      <trkpt lat="44.14543" lon="0.4687">
        <ele>129</ele>
        <time>2022-09-15T08:31:37.275Z</time>
      </trkpt>
      <trkpt lat="44.14542" lon="0.46869">
        <ele>129</ele>
        <time>2022-09-15T08:31:38.275Z</time>
      </trkpt>
      <trkpt lat="44.14539" lon="0.46869">
        <ele>130</ele>
        <time>2022-09-15T08:31:39.275Z</time>
      </trkpt>
      <trkpt lat="44.14538" lon="0.46869">
        <ele>130</ele>
        <time>2022-09-15T08:31:40.275Z</time>
      </trkpt>
      <trkpt lat="44.14537" lon="0.46869">
        <ele>130</ele>
        <time>2022-09-15T08:31:41.275Z</time>
      </trkpt>
      <trkpt lat="44.14536" lon="0.46868">
        <ele>130</ele>
        <time>2022-09-15T08:31:42.275Z</time>
      </trkpt>
      <trkpt lat="44.14535" lon="0.46868">
        <ele>130</ele>
        <time>2022-09-15T08:31:44.275Z</time>
      </trkpt>
      <trkpt lat="44.14534" lon="0.46867">
        <ele>130</ele>
        <time>2022-09-15T08:31:45.275Z</time>
      </trkpt>
      <trkpt lat="44.14533" lon="0.46867">
        <ele>130</ele>
        <time>2022-09-15T08:31:46.275Z</time>
      </trkpt>
      <trkpt lat="44.14531" lon="0.46866">
        <ele>130</ele>
        <time>2022-09-15T08:31:47.275Z</time>
      </trkpt>
      <trkpt lat="44.1453" lon="0.46866">
        <ele>130</ele>
        <time>2022-09-15T08:31:48.275Z</time>
      </trkpt>
      <trkpt lat="44.14529" lon="0.46866">
        <ele>130</ele>
        <time>2022-09-15T08:31:49.275Z</time>
      </trkpt>
      <trkpt lat="44.14528" lon="0.46865">
        <ele>130</ele>
        <time>2022-09-15T08:31:50.275Z</time>
      </trkpt>
      <trkpt lat="44.14527" lon="0.46865">
        <ele>130</ele>
        <time>2022-09-15T08:31:51.275Z</time>
      </trkpt>
      <trkpt lat="44.14526" lon="0.46864">
        <ele>130</ele>
        <time>2022-09-15T08:31:52.275Z</time>
      </trkpt>
      <trkpt lat="44.14523" lon="0.46863">
        <ele>131</ele>
        <time>2022-09-15T08:31:53.275Z</time>
      </trkpt>
      <trkpt lat="44.14522" lon="0.46863">
        <ele>131</ele>
        <time>2022-09-15T08:31:55.275Z</time>
      </trkpt>
      <trkpt lat="44.14521" lon="0.46863">
        <ele>131</ele>
        <time>2022-09-15T08:31:56.275Z</time>
      </trkpt>
      <trkpt lat="44.1452" lon="0.46862">
        <ele>131</ele>
        <time>2022-09-15T08:31:57.275Z</time>
      </trkpt>
      <trkpt lat="44.14519" lon="0.46862">
        <ele>131</ele>
        <time>2022-09-15T08:31:58.275Z</time>
      </trkpt>
      <trkpt lat="44.14518" lon="0.46862">
        <ele>132</ele>
        <time>2022-09-15T08:31:59.275Z</time>
      </trkpt>
      <trkpt lat="44.14517" lon="0.46862">
        <ele>131</ele>
        <time>2022-09-15T08:32:00.275Z</time>
      </trkpt>
      <trkpt lat="44.14516" lon="0.46861">
        <ele>131</ele>
        <time>2022-09-15T08:32:01.275Z</time>
      </trkpt>
      <trkpt lat="44.14515" lon="0.46861">
        <ele>131</ele>
        <time>2022-09-15T08:32:02.275Z</time>
      </trkpt>
      <trkpt lat="44.14514" lon="0.4686">
        <ele>131</ele>
        <time>2022-09-15T08:32:03.275Z</time>
      </trkpt>
      <trkpt lat="44.14512" lon="0.46858">
        <ele>131</ele>
        <time>2022-09-15T08:32:04.275Z</time>
      </trkpt>
      <trkpt lat="44.14511" lon="0.46857">
        <ele>131</ele>
        <time>2022-09-15T08:32:06.275Z</time>
      </trkpt>
      <trkpt lat="44.1451" lon="0.46857">
        <ele>131</ele>
        <time>2022-09-15T08:32:07.275Z</time>
      </trkpt>
      <trkpt lat="44.1451" lon="0.46856">
        <ele>131</ele>
        <time>2022-09-15T08:32:08.275Z</time>
      </trkpt>
      <trkpt lat="44.14508" lon="0.46854">
        <ele>131</ele>
        <time>2022-09-15T08:32:09.275Z</time>
      </trkpt>
      <trkpt lat="44.14507" lon="0.46854">
        <ele>131</ele>
        <time>2022-09-15T08:32:10.275Z</time>
      </trkpt>
      <trkpt lat="44.14506" lon="0.46853">
        <ele>131</ele>
        <time>2022-09-15T08:32:11.275Z</time>
      </trkpt>
      <trkpt lat="44.14504" lon="0.46852">
        <ele>132</ele>
        <time>2022-09-15T08:32:12.275Z</time>
      </trkpt>
      <trkpt lat="44.14503" lon="0.46852">
        <ele>132</ele>
        <time>2022-09-15T08:32:14.275Z</time>
      </trkpt>
      <trkpt lat="44.14501" lon="0.4685">
        <ele>131</ele>
        <time>2022-09-15T08:32:15.275Z</time>
      </trkpt>
      <trkpt lat="44.14499" lon="0.46848">
        <ele>132</ele>
        <time>2022-09-15T08:32:17.275Z</time>
      </trkpt>
      <trkpt lat="44.14498" lon="0.46847">
        <ele>132</ele>
        <time>2022-09-15T08:32:18.275Z</time>
      </trkpt>
      <trkpt lat="44.14497" lon="0.46846">
        <ele>132</ele>
        <time>2022-09-15T08:32:19.275Z</time>
      </trkpt>
      <trkpt lat="44.14496" lon="0.46845">
        <ele>131</ele>
        <time>2022-09-15T08:32:21.275Z</time>
      </trkpt>
      <trkpt lat="44.14494" lon="0.46842">
        <ele>131</ele>
        <time>2022-09-15T08:32:22.275Z</time>
      </trkpt>
      <trkpt lat="44.14493" lon="0.46841">
        <ele>131</ele>
        <time>2022-09-15T08:32:24.275Z</time>
      </trkpt>
      <trkpt lat="44.14493" lon="0.4684">
        <ele>131</ele>
        <time>2022-09-15T08:32:25.275Z</time>
      </trkpt>
      <trkpt lat="44.14491" lon="0.46839">
        <ele>131</ele>
        <time>2022-09-15T08:32:26.275Z</time>
      </trkpt>
      <trkpt lat="44.1449" lon="0.46838">
        <ele>131</ele>
        <time>2022-09-15T08:32:28.275Z</time>
      </trkpt>
      <trkpt lat="44.14489" lon="0.46837">
        <ele>132</ele>
        <time>2022-09-15T08:32:29.275Z</time>
      </trkpt>
      <trkpt lat="44.14488" lon="0.46836">
        <ele>131</ele>
        <time>2022-09-15T08:32:30.275Z</time>
      </trkpt>
      <trkpt lat="44.14487" lon="0.46835">
        <ele>132</ele>
        <time>2022-09-15T08:32:31.275Z</time>
      </trkpt>
      <trkpt lat="44.14486" lon="0.46835">
        <ele>132</ele>
        <time>2022-09-15T08:32:32.275Z</time>
      </trkpt>
      <trkpt lat="44.14484" lon="0.46835">
        <ele>132</ele>
        <time>2022-09-15T08:32:33.275Z</time>
      </trkpt>
      <trkpt lat="44.14483" lon="0.46834">
        <ele>132</ele>
        <time>2022-09-15T08:32:35.275Z</time>
      </trkpt>
      <trkpt lat="44.14482" lon="0.46833">
        <ele>132</ele>
        <time>2022-09-15T08:32:36.275Z</time>
      </trkpt>
      <trkpt lat="44.14481" lon="0.46832">
        <ele>132</ele>
        <time>2022-09-15T08:32:37.275Z</time>
      </trkpt>
      <trkpt lat="44.1448" lon="0.46831">
        <ele>132</ele>
        <time>2022-09-15T08:32:38.275Z</time>
      </trkpt>
      <trkpt lat="44.14479" lon="0.4683">
        <ele>132</ele>
        <time>2022-09-15T08:32:39.275Z</time>
      </trkpt>
      <trkpt lat="44.14478" lon="0.46829">
        <ele>132</ele>
        <time>2022-09-15T08:32:41.275Z</time>
      </trkpt>
      <trkpt lat="44.14477" lon="0.46829">
        <ele>131</ele>
        <time>2022-09-15T08:32:42.275Z</time>
      </trkpt>
      <trkpt lat="44.14476" lon="0.46828">
        <ele>131</ele>
        <time>2022-09-15T08:32:43.275Z</time>
      </trkpt>
      <trkpt lat="44.14475" lon="0.46826">
        <ele>131</ele>
        <time>2022-09-15T08:32:44.275Z</time>
      </trkpt>
      <trkpt lat="44.14474" lon="0.46825">
        <ele>131</ele>
        <time>2022-09-15T08:32:45.275Z</time>
      </trkpt>
      <trkpt lat="44.14473" lon="0.46824">
        <ele>130</ele>
        <time>2022-09-15T08:32:47.275Z</time>
      </trkpt>
      <trkpt lat="44.14472" lon="0.46823">
        <ele>130</ele>
        <time>2022-09-15T08:32:48.275Z</time>
      </trkpt>
      <trkpt lat="44.14472" lon="0.46822">
        <ele>130</ele>
        <time>2022-09-15T08:32:49.275Z</time>
      </trkpt>
      <trkpt lat="44.14471" lon="0.46821">
        <ele>130</ele>
        <time>2022-09-15T08:32:50.275Z</time>
      </trkpt>
      <trkpt lat="44.14469" lon="0.46819">
        <ele>129</ele>
        <time>2022-09-15T08:32:51.275Z</time>
      </trkpt>
      <trkpt lat="44.14468" lon="0.46818">
        <ele>130</ele>
        <time>2022-09-15T08:32:53.275Z</time>
      </trkpt>
      <trkpt lat="44.14468" lon="0.46818">
        <ele>130</ele>
        <time>2022-09-15T08:32:54.275Z</time>
      </trkpt>
      <trkpt lat="44.14467" lon="0.46818">
        <ele>130</ele>
        <time>2022-09-15T08:32:55.275Z</time>
      </trkpt>
      <trkpt lat="44.14467" lon="0.46818">
        <ele>130</ele>
        <time>2022-09-15T08:32:56.275Z</time>
      </trkpt>
      <trkpt lat="44.14467" lon="0.46818">
        <ele>130</ele>
        <time>2022-09-15T08:32:57.275Z</time>
      </trkpt>
      <trkpt lat="44.14467" lon="0.46818">
        <ele>130</ele>
        <time>2022-09-15T08:32:58.275Z</time>
      </trkpt>
      <trkpt lat="44.14467" lon="0.46818">
        <ele>130</ele>
        <time>2022-09-15T08:33:00.275Z</time>
      </trkpt>
      <trkpt lat="44.14467" lon="0.46818">
        <ele>130</ele>
        <time>2022-09-15T08:33:01.275Z</time>
      </trkpt>
      <trkpt lat="44.14467" lon="0.46818">
        <ele>130</ele>
        <time>2022-09-15T08:33:02.275Z</time>
      </trkpt>
      <trkpt lat="44.14464" lon="0.46812">
        <ele>130</ele>
        <time>2022-09-15T08:33:22.279Z</time>
      </trkpt>
      <trkpt lat="44.14464" lon="0.46811">
        <ele>130</ele>
        <time>2022-09-15T08:33:23.279Z</time>
      </trkpt>
      <trkpt lat="44.14462" lon="0.46809">
        <ele>130</ele>
        <time>2022-09-15T08:33:24.279Z</time>
      </trkpt>
      <trkpt lat="44.14461" lon="0.46808">
        <ele>130</ele>
        <time>2022-09-15T08:33:25.279Z</time>
      </trkpt>
      <trkpt lat="44.14461" lon="0.46807">
        <ele>130</ele>
        <time>2022-09-15T08:33:26.279Z</time>
      </trkpt>
      <trkpt lat="44.1446" lon="0.46806">
        <ele>129</ele>
        <time>2022-09-15T08:33:28.279Z</time>
      </trkpt>
      <trkpt lat="44.14459" lon="0.46806">
        <ele>129</ele>
        <time>2022-09-15T08:33:29.279Z</time>
      </trkpt>
      <trkpt lat="44.14458" lon="0.46804">
        <ele>129</ele>
        <time>2022-09-15T08:33:30.279Z</time>
      </trkpt>
      <trkpt lat="44.14457" lon="0.46802">
        <ele>129</ele>
        <time>2022-09-15T08:33:31.279Z</time>
      </trkpt>
      <trkpt lat="44.14456" lon="0.46801">
        <ele>129</ele>
        <time>2022-09-15T08:33:32.279Z</time>
      </trkpt>
      <trkpt lat="44.14455" lon="0.46799">
        <ele>129</ele>
        <time>2022-09-15T08:33:33.279Z</time>
      </trkpt>
      <trkpt lat="44.14454" lon="0.46798">
        <ele>128</ele>
        <time>2022-09-15T08:33:34.279Z</time>
      </trkpt>
      <trkpt lat="44.14453" lon="0.46797">
        <ele>128</ele>
        <time>2022-09-15T08:33:35.279Z</time>
      </trkpt>
      <trkpt lat="44.14452" lon="0.46796">
        <ele>128</ele>
        <time>2022-09-15T08:33:36.279Z</time>
      </trkpt>
      <trkpt lat="44.14451" lon="0.46794">
        <ele>127</ele>
        <time>2022-09-15T08:33:38.279Z</time>
      </trkpt>
      <trkpt lat="44.1445" lon="0.46793">
        <ele>127</ele>
        <time>2022-09-15T08:33:39.279Z</time>
      </trkpt>
      <trkpt lat="44.14449" lon="0.46792">
        <ele>127</ele>
        <time>2022-09-15T08:33:40.279Z</time>
      </trkpt>
      <trkpt lat="44.14448" lon="0.46791">
        <ele>127</ele>
        <time>2022-09-15T08:33:41.279Z</time>
      </trkpt>
      <trkpt lat="44.14447" lon="0.4679">
        <ele>128</ele>
        <time>2022-09-15T08:33:42.279Z</time>
      </trkpt>
      <trkpt lat="44.14446" lon="0.46788">
        <ele>127</ele>
        <time>2022-09-15T08:33:43.279Z</time>
      </trkpt>
      <trkpt lat="44.14444" lon="0.46786">
        <ele>128</ele>
        <time>2022-09-15T08:33:45.279Z</time>
      </trkpt>
      <trkpt lat="44.14444" lon="0.46785">
        <ele>128</ele>
        <time>2022-09-15T08:33:46.279Z</time>
      </trkpt>
      <trkpt lat="44.14442" lon="0.46783">
        <ele>128</ele>
        <time>2022-09-15T08:33:48.279Z</time>
      </trkpt>
      <trkpt lat="44.14442" lon="0.46782">
        <ele>128</ele>
        <time>2022-09-15T08:33:50.279Z</time>
      </trkpt>
      <trkpt lat="44.1444" lon="0.4678">
        <ele>127</ele>
        <time>2022-09-15T08:33:51.279Z</time>
      </trkpt>
      <trkpt lat="44.14439" lon="0.46778">
        <ele>127</ele>
        <time>2022-09-15T08:33:53.279Z</time>
      </trkpt>
      <trkpt lat="44.14438" lon="0.46777">
        <ele>127</ele>
        <time>2022-09-15T08:33:54.279Z</time>
      </trkpt>
      <trkpt lat="44.14437" lon="0.46776">
        <ele>127</ele>
        <time>2022-09-15T08:33:56.279Z</time>
      </trkpt>
      <trkpt lat="44.14435" lon="0.46774">
        <ele>127</ele>
        <time>2022-09-15T08:33:57.279Z</time>
      </trkpt>
      <trkpt lat="44.14435" lon="0.46774">
        <ele>126</ele>
        <time>2022-09-15T08:33:59.279Z</time>
      </trkpt>
      <trkpt lat="44.14433" lon="0.46772">
        <ele>126</ele>
        <time>2022-09-15T08:34:00.279Z</time>
      </trkpt>
      <trkpt lat="44.14433" lon="0.46771">
        <ele>126</ele>
        <time>2022-09-15T08:34:02.279Z</time>
      </trkpt>
      <trkpt lat="44.14433" lon="0.4677">
        <ele>126</ele>
        <time>2022-09-15T08:34:03.279Z</time>
      </trkpt>
      <trkpt lat="44.14433" lon="0.4677">
        <ele>126</ele>
        <time>2022-09-15T08:34:04.279Z</time>
      </trkpt>
      <trkpt lat="44.14433" lon="0.4677">
        <ele>126</ele>
        <time>2022-09-15T08:34:05.279Z</time>
      </trkpt>
      <trkpt lat="44.14433" lon="0.4677">
        <ele>126</ele>
        <time>2022-09-15T08:34:06.279Z</time>
      </trkpt>
      <trkpt lat="44.14433" lon="0.4677">
        <ele>126</ele>
        <time>2022-09-15T08:34:07.279Z</time>
      </trkpt>
      <trkpt lat="44.14433" lon="0.4677">
        <ele>126</ele>
        <time>2022-09-15T08:34:09.279Z</time>
      </trkpt>
      <trkpt lat="44.14432" lon="0.46768">
        <ele>128</ele>
        <time>2022-09-15T08:34:43.287Z</time>
      </trkpt>
      <trkpt lat="44.1443" lon="0.46766">
        <ele>128</ele>
        <time>2022-09-15T08:34:44.287Z</time>
      </trkpt>
      <trkpt lat="44.14428" lon="0.46763">
        <ele>129</ele>
        <time>2022-09-15T08:34:46.287Z</time>
      </trkpt>
      <trkpt lat="44.14426" lon="0.4676">
        <ele>129</ele>
        <time>2022-09-15T08:34:48.287Z</time>
      </trkpt>
      <trkpt lat="44.14425" lon="0.46759">
        <ele>129</ele>
        <time>2022-09-15T08:34:49.287Z</time>
      </trkpt>
      <trkpt lat="44.14424" lon="0.46758">
        <ele>129</ele>
        <time>2022-09-15T08:34:50.287Z</time>
      </trkpt>
      <trkpt lat="44.14423" lon="0.46757">
        <ele>129</ele>
        <time>2022-09-15T08:34:51.287Z</time>
      </trkpt>
      <trkpt lat="44.14422" lon="0.46756">
        <ele>129</ele>
        <time>2022-09-15T08:34:52.287Z</time>
      </trkpt>
      <trkpt lat="44.14421" lon="0.46755">
        <ele>129</ele>
        <time>2022-09-15T08:34:53.287Z</time>
      </trkpt>
      <trkpt lat="44.1442" lon="0.46753">
        <ele>129</ele>
        <time>2022-09-15T08:34:54.287Z</time>
      </trkpt>
      <trkpt lat="44.14419" lon="0.46752">
        <ele>129</ele>
        <time>2022-09-15T08:34:55.287Z</time>
      </trkpt>
      <trkpt lat="44.14418" lon="0.4675">
        <ele>128</ele>
        <time>2022-09-15T08:34:56.287Z</time>
      </trkpt>
      <trkpt lat="44.14417" lon="0.46749">
        <ele>128</ele>
        <time>2022-09-15T08:34:57.287Z</time>
      </trkpt>
      <trkpt lat="44.14416" lon="0.46748">
        <ele>128</ele>
        <time>2022-09-15T08:34:59.287Z</time>
      </trkpt>
      <trkpt lat="44.14414" lon="0.46745">
        <ele>128</ele>
        <time>2022-09-15T08:35:00.287Z</time>
      </trkpt>
      <trkpt lat="44.14413" lon="0.46744">
        <ele>128</ele>
        <time>2022-09-15T08:35:01.287Z</time>
      </trkpt>
      <trkpt lat="44.14412" lon="0.46744">
        <ele>128</ele>
        <time>2022-09-15T08:35:02.287Z</time>
      </trkpt>
      <trkpt lat="44.1441" lon="0.46743">
        <ele>128</ele>
        <time>2022-09-15T08:35:03.287Z</time>
      </trkpt>
      <trkpt lat="44.14409" lon="0.46742">
        <ele>128</ele>
        <time>2022-09-15T08:35:04.287Z</time>
      </trkpt>
      <trkpt lat="44.14408" lon="0.46741">
        <ele>128</ele>
        <time>2022-09-15T08:35:05.287Z</time>
      </trkpt>
      <trkpt lat="44.14407" lon="0.4674">
        <ele>127</ele>
        <time>2022-09-15T08:35:06.287Z</time>
      </trkpt>
      <trkpt lat="44.14406" lon="0.46739">
        <ele>127</ele>
        <time>2022-09-15T08:35:07.287Z</time>
      </trkpt>
      <trkpt lat="44.14404" lon="0.46738">
        <ele>127</ele>
        <time>2022-09-15T08:35:09.287Z</time>
      </trkpt>
      <trkpt lat="44.14402" lon="0.46737">
        <ele>127</ele>
        <time>2022-09-15T08:35:10.287Z</time>
      </trkpt>
      <trkpt lat="44.14401" lon="0.46737">
        <ele>127</ele>
        <time>2022-09-15T08:35:11.287Z</time>
      </trkpt>
      <trkpt lat="44.144" lon="0.46736">
        <ele>127</ele>
        <time>2022-09-15T08:35:12.287Z</time>
      </trkpt>
      <trkpt lat="44.14399" lon="0.46735">
        <ele>127</ele>
        <time>2022-09-15T08:35:13.287Z</time>
      </trkpt>
      <trkpt lat="44.14396" lon="0.46734">
        <ele>127</ele>
        <time>2022-09-15T08:35:15.287Z</time>
      </trkpt>
      <trkpt lat="44.14394" lon="0.46733">
        <ele>127</ele>
        <time>2022-09-15T08:35:16.287Z</time>
      </trkpt>
      <trkpt lat="44.14393" lon="0.46733">
        <ele>127</ele>
        <time>2022-09-15T08:35:17.287Z</time>
      </trkpt>
      <trkpt lat="44.14391" lon="0.46732">
        <ele>128</ele>
        <time>2022-09-15T08:35:18.287Z</time>
      </trkpt>
      <trkpt lat="44.1439" lon="0.46732">
        <ele>128</ele>
        <time>2022-09-15T08:35:19.287Z</time>
      </trkpt>
      <trkpt lat="44.14388" lon="0.46731">
        <ele>128</ele>
        <time>2022-09-15T08:35:20.287Z</time>
      </trkpt>
      <trkpt lat="44.14387" lon="0.46731">
        <ele>128</ele>
        <time>2022-09-15T08:35:21.287Z</time>
      </trkpt>
      <trkpt lat="44.14386" lon="0.4673">
        <ele>128</ele>
        <time>2022-09-15T08:35:22.287Z</time>
      </trkpt>
      <trkpt lat="44.14383" lon="0.46728">
        <ele>128</ele>
        <time>2022-09-15T08:35:24.287Z</time>
      </trkpt>
      <trkpt lat="44.14381" lon="0.46728">
        <ele>128</ele>
        <time>2022-09-15T08:35:25.287Z</time>
      </trkpt>
      <trkpt lat="44.14379" lon="0.46727">
        <ele>128</ele>
        <time>2022-09-15T08:35:26.287Z</time>
      </trkpt>
      <trkpt lat="44.14377" lon="0.46727">
        <ele>128</ele>
        <time>2022-09-15T08:35:27.287Z</time>
      </trkpt>
      <trkpt lat="44.14376" lon="0.46726">
        <ele>128</ele>
        <time>2022-09-15T08:35:28.287Z</time>
      </trkpt>
      <trkpt lat="44.14373" lon="0.46725">
        <ele>129</ele>
        <time>2022-09-15T08:35:30.287Z</time>
      </trkpt>
      <trkpt lat="44.14371" lon="0.46725">
        <ele>129</ele>
        <time>2022-09-15T08:35:31.287Z</time>
      </trkpt>
      <trkpt lat="44.1437" lon="0.46724">
        <ele>129</ele>
        <time>2022-09-15T08:35:32.287Z</time>
      </trkpt>
      <trkpt lat="44.14368" lon="0.46723">
        <ele>129</ele>
        <time>2022-09-15T08:35:33.287Z</time>
      </trkpt>
      <trkpt lat="44.14367" lon="0.46722">
        <ele>129</ele>
        <time>2022-09-15T08:35:34.287Z</time>
      </trkpt>
      <trkpt lat="44.14366" lon="0.46722">
        <ele>128</ele>
        <time>2022-09-15T08:35:35.287Z</time>
      </trkpt>
      <trkpt lat="44.14364" lon="0.46721">
        <ele>128</ele>
        <time>2022-09-15T08:35:36.287Z</time>
      </trkpt>
      <trkpt lat="44.14363" lon="0.46721">
        <ele>128</ele>
        <time>2022-09-15T08:35:37.287Z</time>
      </trkpt>
      <trkpt lat="44.14362" lon="0.46721">
        <ele>128</ele>
        <time>2022-09-15T08:35:38.287Z</time>
      </trkpt>
      <trkpt lat="44.1436" lon="0.4672">
        <ele>129</ele>
        <time>2022-09-15T08:35:39.287Z</time>
      </trkpt>
      <trkpt lat="44.14359" lon="0.4672">
        <ele>128</ele>
        <time>2022-09-15T08:35:40.287Z</time>
      </trkpt>
      <trkpt lat="44.14357" lon="0.46719">
        <ele>128</ele>
        <time>2022-09-15T08:35:41.287Z</time>
      </trkpt>
      <trkpt lat="44.14356" lon="0.46719">
        <ele>128</ele>
        <time>2022-09-15T08:35:42.287Z</time>
      </trkpt>
      <trkpt lat="44.14355" lon="0.46718">
        <ele>128</ele>
        <time>2022-09-15T08:35:43.287Z</time>
      </trkpt>
      <trkpt lat="44.14354" lon="0.46717">
        <ele>128</ele>
        <time>2022-09-15T08:35:44.287Z</time>
      </trkpt>
      <trkpt lat="44.14352" lon="0.46716">
        <ele>128</ele>
        <time>2022-09-15T08:35:45.287Z</time>
      </trkpt>
      <trkpt lat="44.14351" lon="0.46716">
        <ele>128</ele>
        <time>2022-09-15T08:35:46.287Z</time>
      </trkpt>
      <trkpt lat="44.1435" lon="0.46715">
        <ele>127</ele>
        <time>2022-09-15T08:35:47.287Z</time>
      </trkpt>
      <trkpt lat="44.14348" lon="0.46714">
        <ele>127</ele>
        <time>2022-09-15T08:35:48.287Z</time>
      </trkpt>
      <trkpt lat="44.14347" lon="0.46713">
        <ele>128</ele>
        <time>2022-09-15T08:35:49.287Z</time>
      </trkpt>
      <trkpt lat="44.14344" lon="0.46712">
        <ele>128</ele>
        <time>2022-09-15T08:35:51.287Z</time>
      </trkpt>
      <trkpt lat="44.14343" lon="0.46712">
        <ele>128</ele>
        <time>2022-09-15T08:35:52.287Z</time>
      </trkpt>
      <trkpt lat="44.14342" lon="0.46712">
        <ele>128</ele>
        <time>2022-09-15T08:35:53.287Z</time>
      </trkpt>
      <trkpt lat="44.1434" lon="0.46711">
        <ele>128</ele>
        <time>2022-09-15T08:35:54.287Z</time>
      </trkpt>
      <trkpt lat="44.14339" lon="0.4671">
        <ele>128</ele>
        <time>2022-09-15T08:35:55.287Z</time>
      </trkpt>
      <trkpt lat="44.14338" lon="0.4671">
        <ele>128</ele>
        <time>2022-09-15T08:35:56.287Z</time>
      </trkpt>
      <trkpt lat="44.14336" lon="0.4671">
        <ele>128</ele>
        <time>2022-09-15T08:35:57.287Z</time>
      </trkpt>
      <trkpt lat="44.14335" lon="0.46709">
        <ele>128</ele>
        <time>2022-09-15T08:35:58.287Z</time>
      </trkpt>
      <trkpt lat="44.14332" lon="0.46709">
        <ele>129</ele>
        <time>2022-09-15T08:36:00.287Z</time>
      </trkpt>
      <trkpt lat="44.14331" lon="0.46708">
        <ele>129</ele>
        <time>2022-09-15T08:36:01.287Z</time>
      </trkpt>
      <trkpt lat="44.1433" lon="0.46708">
        <ele>129</ele>
        <time>2022-09-15T08:36:02.287Z</time>
      </trkpt>
      <trkpt lat="44.14329" lon="0.46708">
        <ele>129</ele>
        <time>2022-09-15T08:36:03.287Z</time>
      </trkpt>
      <trkpt lat="44.14328" lon="0.46708">
        <ele>129</ele>
        <time>2022-09-15T08:36:04.287Z</time>
      </trkpt>
      <trkpt lat="44.14326" lon="0.46707">
        <ele>129</ele>
        <time>2022-09-15T08:36:05.287Z</time>
      </trkpt>
      <trkpt lat="44.14325" lon="0.46707">
        <ele>128</ele>
        <time>2022-09-15T08:36:06.287Z</time>
      </trkpt>
      <trkpt lat="44.14324" lon="0.46706">
        <ele>129</ele>
        <time>2022-09-15T08:36:07.287Z</time>
      </trkpt>
      <trkpt lat="44.14323" lon="0.46705">
        <ele>129</ele>
        <time>2022-09-15T08:36:08.287Z</time>
      </trkpt>
      <trkpt lat="44.14322" lon="0.46705">
        <ele>129</ele>
        <time>2022-09-15T08:36:09.287Z</time>
      </trkpt>
      <trkpt lat="44.14321" lon="0.46704">
        <ele>129</ele>
        <time>2022-09-15T08:36:10.287Z</time>
      </trkpt>
      <trkpt lat="44.1432" lon="0.46704">
        <ele>129</ele>
        <time>2022-09-15T08:36:12.287Z</time>
      </trkpt>
      <trkpt lat="44.1432" lon="0.46704">
        <ele>129</ele>
        <time>2022-09-15T08:36:13.287Z</time>
      </trkpt>
      <trkpt lat="44.1432" lon="0.46704">
        <ele>129</ele>
        <time>2022-09-15T08:36:14.287Z</time>
      </trkpt>
      <trkpt lat="44.1432" lon="0.46704">
        <ele>129</ele>
        <time>2022-09-15T08:36:15.287Z</time>
      </trkpt>
      <trkpt lat="44.14319" lon="0.46703">
        <ele>129</ele>
        <time>2022-09-15T08:36:17.287Z</time>
      </trkpt>
      <trkpt lat="44.14318" lon="0.46703">
        <ele>129</ele>
        <time>2022-09-15T08:36:18.287Z</time>
      </trkpt>
      <trkpt lat="44.14318" lon="0.46702">
        <ele>129</ele>
        <time>2022-09-15T08:36:19.287Z</time>
      </trkpt>
      <trkpt lat="44.14318" lon="0.46702">
        <ele>129</ele>
        <time>2022-09-15T08:36:20.287Z</time>
      </trkpt>
      <trkpt lat="44.14317" lon="0.46701">
        <ele>129</ele>
        <time>2022-09-15T08:36:22.287Z</time>
      </trkpt>
      <trkpt lat="44.14317" lon="0.46701">
        <ele>129</ele>
        <time>2022-09-15T08:36:24.287Z</time>
      </trkpt>
      <trkpt lat="44.14317" lon="0.46701">
        <ele>130</ele>
        <time>2022-09-15T08:36:25.287Z</time>
      </trkpt>
      <trkpt lat="44.14317" lon="0.46701">
        <ele>130</ele>
        <time>2022-09-15T08:36:26.287Z</time>
      </trkpt>
      <trkpt lat="44.14317" lon="0.46701">
        <ele>130</ele>
        <time>2022-09-15T08:36:27.287Z</time>
      </trkpt>
      <trkpt lat="44.14317" lon="0.46701">
        <ele>130</ele>
        <time>2022-09-15T08:36:28.287Z</time>
      </trkpt>
      <trkpt lat="44.14317" lon="0.46701">
        <ele>129</ele>
        <time>2022-09-15T08:36:29.287Z</time>
      </trkpt>
      <trkpt lat="44.14312" lon="0.46698">
        <ele>130</ele>
        <time>2022-09-15T08:36:58.170Z</time>
      </trkpt>
      <trkpt lat="44.14311" lon="0.46697">
        <ele>130</ele>
        <time>2022-09-15T08:36:59.170Z</time>
      </trkpt>
      <trkpt lat="44.1431" lon="0.46697">
        <ele>130</ele>
        <time>2022-09-15T08:37:00.170Z</time>
      </trkpt>
      <trkpt lat="44.14309" lon="0.46696">
        <ele>129</ele>
        <time>2022-09-15T08:37:01.170Z</time>
      </trkpt>
      <trkpt lat="44.14307" lon="0.46696">
        <ele>129</ele>
        <time>2022-09-15T08:37:02.170Z</time>
      </trkpt>
      <trkpt lat="44.14306" lon="0.46695">
        <ele>129</ele>
        <time>2022-09-15T08:37:03.170Z</time>
      </trkpt>
      <trkpt lat="44.14305" lon="0.46695">
        <ele>130</ele>
        <time>2022-09-15T08:37:04.170Z</time>
      </trkpt>
      <trkpt lat="44.14304" lon="0.46695">
        <ele>131</ele>
        <time>2022-09-15T08:37:05.170Z</time>
      </trkpt>
      <trkpt lat="44.14303" lon="0.46694">
        <ele>131</ele>
        <time>2022-09-15T08:37:06.170Z</time>
      </trkpt>
      <trkpt lat="44.14303" lon="0.46694">
        <ele>130</ele>
        <time>2022-09-15T08:37:07.170Z</time>
      </trkpt>
      <trkpt lat="44.14302" lon="0.46693">
        <ele>130</ele>
        <time>2022-09-15T08:37:08.170Z</time>
      </trkpt>
      <trkpt lat="44.14301" lon="0.46693">
        <ele>130</ele>
        <time>2022-09-15T08:37:09.170Z</time>
      </trkpt>
      <trkpt lat="44.14299" lon="0.46692">
        <ele>130</ele>
        <time>2022-09-15T08:37:10.170Z</time>
      </trkpt>
      <trkpt lat="44.14298" lon="0.46692">
        <ele>130</ele>
        <time>2022-09-15T08:37:11.170Z</time>
      </trkpt>
      <trkpt lat="44.14297" lon="0.46691">
        <ele>130</ele>
        <time>2022-09-15T08:37:12.170Z</time>
      </trkpt>
      <trkpt lat="44.14296" lon="0.46691">
        <ele>130</ele>
        <time>2022-09-15T08:37:13.170Z</time>
      </trkpt>
      <trkpt lat="44.14295" lon="0.4669">
        <ele>130</ele>
        <time>2022-09-15T08:37:14.170Z</time>
      </trkpt>
      <trkpt lat="44.14294" lon="0.46689">
        <ele>131</ele>
        <time>2022-09-15T08:37:15.170Z</time>
      </trkpt>
      <trkpt lat="44.14293" lon="0.46688">
        <ele>131</ele>
        <time>2022-09-15T08:37:16.170Z</time>
      </trkpt>
      <trkpt lat="44.14292" lon="0.46687">
        <ele>131</ele>
        <time>2022-09-15T08:37:17.170Z</time>
      </trkpt>
      <trkpt lat="44.14291" lon="0.46686">
        <ele>132</ele>
        <time>2022-09-15T08:37:18.170Z</time>
      </trkpt>
      <trkpt lat="44.1429" lon="0.46685">
        <ele>132</ele>
        <time>2022-09-15T08:37:19.170Z</time>
      </trkpt>
      <trkpt lat="44.14289" lon="0.46684">
        <ele>132</ele>
        <time>2022-09-15T08:37:20.170Z</time>
      </trkpt>
      <trkpt lat="44.14289" lon="0.46683">
        <ele>132</ele>
        <time>2022-09-15T08:37:21.170Z</time>
      </trkpt>
      <trkpt lat="44.14288" lon="0.46683">
        <ele>132</ele>
        <time>2022-09-15T08:37:22.170Z</time>
      </trkpt>
      <trkpt lat="44.14287" lon="0.46682">
        <ele>132</ele>
        <time>2022-09-15T08:37:23.170Z</time>
      </trkpt>
      <trkpt lat="44.14286" lon="0.46681">
        <ele>133</ele>
        <time>2022-09-15T08:37:24.170Z</time>
      </trkpt>
      <trkpt lat="44.14285" lon="0.4668">
        <ele>133</ele>
        <time>2022-09-15T08:37:25.170Z</time>
      </trkpt>
      <trkpt lat="44.14284" lon="0.46679">
        <ele>133</ele>
        <time>2022-09-15T08:37:26.170Z</time>
      </trkpt>
      <trkpt lat="44.14283" lon="0.46678">
        <ele>132</ele>
        <time>2022-09-15T08:37:27.170Z</time>
      </trkpt>
      <trkpt lat="44.14282" lon="0.46678">
        <ele>132</ele>
        <time>2022-09-15T08:37:28.170Z</time>
      </trkpt>
      <trkpt lat="44.14281" lon="0.46677">
        <ele>132</ele>
        <time>2022-09-15T08:37:29.170Z</time>
      </trkpt>
      <trkpt lat="44.1428" lon="0.46676">
        <ele>132</ele>
        <time>2022-09-15T08:37:30.170Z</time>
      </trkpt>
      <trkpt lat="44.14279" lon="0.46676">
        <ele>132</ele>
        <time>2022-09-15T08:37:31.170Z</time>
      </trkpt>
      <trkpt lat="44.14278" lon="0.46676">
        <ele>133</ele>
        <time>2022-09-15T08:37:32.170Z</time>
      </trkpt>
      <trkpt lat="44.14277" lon="0.46677">
        <ele>133</ele>
        <time>2022-09-15T08:37:33.170Z</time>
      </trkpt>
      <trkpt lat="44.14276" lon="0.46677">
        <ele>133</ele>
        <time>2022-09-15T08:37:34.170Z</time>
      </trkpt>
      <trkpt lat="44.14274" lon="0.46676">
        <ele>133</ele>
        <time>2022-09-15T08:37:35.170Z</time>
      </trkpt>
      <trkpt lat="44.14273" lon="0.46676">
        <ele>132</ele>
        <time>2022-09-15T08:37:36.170Z</time>
      </trkpt>
      <trkpt lat="44.14272" lon="0.46676">
        <ele>132</ele>
        <time>2022-09-15T08:37:37.170Z</time>
      </trkpt>
      <trkpt lat="44.14271" lon="0.46677">
        <ele>131</ele>
        <time>2022-09-15T08:37:38.170Z</time>
      </trkpt>
      <trkpt lat="44.1427" lon="0.46677">
        <ele>131</ele>
        <time>2022-09-15T08:37:39.170Z</time>
      </trkpt>
      <trkpt lat="44.14269" lon="0.46678">
        <ele>130</ele>
        <time>2022-09-15T08:37:40.170Z</time>
      </trkpt>
      <trkpt lat="44.14268" lon="0.46678">
        <ele>130</ele>
        <time>2022-09-15T08:37:41.170Z</time>
      </trkpt>
      <trkpt lat="44.14267" lon="0.46679">
        <ele>130</ele>
        <time>2022-09-15T08:37:42.170Z</time>
      </trkpt>
      <trkpt lat="44.14266" lon="0.4668">
        <ele>129</ele>
        <time>2022-09-15T08:37:43.170Z</time>
      </trkpt>
      <trkpt lat="44.14265" lon="0.46681">
        <ele>129</ele>
        <time>2022-09-15T08:37:44.170Z</time>
      </trkpt>
      <trkpt lat="44.14264" lon="0.46681">
        <ele>129</ele>
        <time>2022-09-15T08:37:45.170Z</time>
      </trkpt>
      <trkpt lat="44.14263" lon="0.46682">
        <ele>130</ele>
        <time>2022-09-15T08:37:46.170Z</time>
      </trkpt>
      <trkpt lat="44.14262" lon="0.46683">
        <ele>129</ele>
        <time>2022-09-15T08:37:47.170Z</time>
      </trkpt>
      <trkpt lat="44.14261" lon="0.46684">
        <ele>129</ele>
        <time>2022-09-15T08:37:48.170Z</time>
      </trkpt>
      <trkpt lat="44.14261" lon="0.46686">
        <ele>129</ele>
        <time>2022-09-15T08:37:49.170Z</time>
      </trkpt>
      <trkpt lat="44.1426" lon="0.46687">
        <ele>129</ele>
        <time>2022-09-15T08:37:50.170Z</time>
      </trkpt>
      <trkpt lat="44.14259" lon="0.46688">
        <ele>130</ele>
        <time>2022-09-15T08:37:51.170Z</time>
      </trkpt>
      <trkpt lat="44.14259" lon="0.46689">
        <ele>130</ele>
        <time>2022-09-15T08:37:52.170Z</time>
      </trkpt>
      <trkpt lat="44.14258" lon="0.4669">
        <ele>131</ele>
        <time>2022-09-15T08:37:53.170Z</time>
      </trkpt>
      <trkpt lat="44.14258" lon="0.46692">
        <ele>130</ele>
        <time>2022-09-15T08:37:54.170Z</time>
      </trkpt>
      <trkpt lat="44.14258" lon="0.46693">
        <ele>130</ele>
        <time>2022-09-15T08:37:55.170Z</time>
      </trkpt>
      <trkpt lat="44.14257" lon="0.46694">
        <ele>130</ele>
        <time>2022-09-15T08:37:56.170Z</time>
      </trkpt>
      <trkpt lat="44.14257" lon="0.46696">
        <ele>130</ele>
        <time>2022-09-15T08:37:57.170Z</time>
      </trkpt>
      <trkpt lat="44.14256" lon="0.46697">
        <ele>130</ele>
        <time>2022-09-15T08:37:58.170Z</time>
      </trkpt>
      <trkpt lat="44.14256" lon="0.46698">
        <ele>130</ele>
        <time>2022-09-15T08:37:59.170Z</time>
      </trkpt>
      <trkpt lat="44.14256" lon="0.46699">
        <ele>130</ele>
        <time>2022-09-15T08:38:00.170Z</time>
      </trkpt>
      <trkpt lat="44.14255" lon="0.46701">
        <ele>129</ele>
        <time>2022-09-15T08:38:01.170Z</time>
      </trkpt>
      <trkpt lat="44.14255" lon="0.46701">
        <ele>129</ele>
        <time>2022-09-15T08:38:02.170Z</time>
      </trkpt>
      <trkpt lat="44.14255" lon="0.46702">
        <ele>129</ele>
        <time>2022-09-15T08:38:03.170Z</time>
      </trkpt>
      <trkpt lat="44.14255" lon="0.46702">
        <ele>129</ele>
        <time>2022-09-15T08:38:04.170Z</time>
      </trkpt>
      <trkpt lat="44.14255" lon="0.46703">
        <ele>129</ele>
        <time>2022-09-15T08:38:05.170Z</time>
      </trkpt>
      <trkpt lat="44.14255" lon="0.46703">
        <ele>129</ele>
        <time>2022-09-15T08:38:06.170Z</time>
      </trkpt>
      <trkpt lat="44.14255" lon="0.46703">
        <ele>129</ele>
        <time>2022-09-15T08:38:07.170Z</time>
      </trkpt>
      <trkpt lat="44.14255" lon="0.46703">
        <ele>129</ele>
        <time>2022-09-15T08:38:08.170Z</time>
      </trkpt>
      <trkpt lat="44.14255" lon="0.46704">
        <ele>129</ele>
        <time>2022-09-15T08:38:09.170Z</time>
      </trkpt>
      <trkpt lat="44.14254" lon="0.46705">
        <ele>129</ele>
        <time>2022-09-15T08:38:10.170Z</time>
      </trkpt>
      <trkpt lat="44.14254" lon="0.46706">
        <ele>130</ele>
        <time>2022-09-15T08:38:11.170Z</time>
      </trkpt>
      <trkpt lat="44.14253" lon="0.46707">
        <ele>129</ele>
        <time>2022-09-15T08:38:12.170Z</time>
      </trkpt>
      <trkpt lat="44.14252" lon="0.46708">
        <ele>128</ele>
        <time>2022-09-15T08:38:13.170Z</time>
      </trkpt>
      <trkpt lat="44.14251" lon="0.46709">
        <ele>128</ele>
        <time>2022-09-15T08:38:14.170Z</time>
      </trkpt>
      <trkpt lat="44.1425" lon="0.4671">
        <ele>129</ele>
        <time>2022-09-15T08:38:15.170Z</time>
      </trkpt>
      <trkpt lat="44.14249" lon="0.46711">
        <ele>129</ele>
        <time>2022-09-15T08:38:16.170Z</time>
      </trkpt>
      <trkpt lat="44.14248" lon="0.46712">
        <ele>128</ele>
        <time>2022-09-15T08:38:17.170Z</time>
      </trkpt>
      <trkpt lat="44.14247" lon="0.46714">
        <ele>128</ele>
        <time>2022-09-15T08:38:18.170Z</time>
      </trkpt>
      <trkpt lat="44.14246" lon="0.46715">
        <ele>128</ele>
        <time>2022-09-15T08:38:19.170Z</time>
      </trkpt>
      <trkpt lat="44.14245" lon="0.46716">
        <ele>128</ele>
        <time>2022-09-15T08:38:20.170Z</time>
      </trkpt>
      <trkpt lat="44.14244" lon="0.46718">
        <ele>128</ele>
        <time>2022-09-15T08:38:21.170Z</time>
      </trkpt>
      <trkpt lat="44.14243" lon="0.46719">
        <ele>128</ele>
        <time>2022-09-15T08:38:22.170Z</time>
      </trkpt>
      <trkpt lat="44.14243" lon="0.46721">
        <ele>128</ele>
        <time>2022-09-15T08:38:23.170Z</time>
      </trkpt>
      <trkpt lat="44.14242" lon="0.46722">
        <ele>129</ele>
        <time>2022-09-15T08:38:24.170Z</time>
      </trkpt>
      <trkpt lat="44.14241" lon="0.46724">
        <ele>129</ele>
        <time>2022-09-15T08:38:25.170Z</time>
      </trkpt>
      <trkpt lat="44.14241" lon="0.46725">
        <ele>129</ele>
        <time>2022-09-15T08:38:26.170Z</time>
      </trkpt>
      <trkpt lat="44.1424" lon="0.46727">
        <ele>129</ele>
        <time>2022-09-15T08:38:27.170Z</time>
      </trkpt>
      <trkpt lat="44.14239" lon="0.46728">
        <ele>129</ele>
        <time>2022-09-15T08:38:28.170Z</time>
      </trkpt>
      <trkpt lat="44.14239" lon="0.46729">
        <ele>129</ele>
        <time>2022-09-15T08:38:29.170Z</time>
      </trkpt>
      <trkpt lat="44.14238" lon="0.46731">
        <ele>129</ele>
        <time>2022-09-15T08:38:30.170Z</time>
      </trkpt>
      <trkpt lat="44.14238" lon="0.46732">
        <ele>129</ele>
        <time>2022-09-15T08:38:31.170Z</time>
      </trkpt>
      <trkpt lat="44.14238" lon="0.46733">
        <ele>128</ele>
        <time>2022-09-15T08:38:32.170Z</time>
      </trkpt>
      <trkpt lat="44.14237" lon="0.46735">
        <ele>128</ele>
        <time>2022-09-15T08:38:33.170Z</time>
      </trkpt>
      <trkpt lat="44.14237" lon="0.46736">
        <ele>129</ele>
        <time>2022-09-15T08:38:34.170Z</time>
      </trkpt>
      <trkpt lat="44.14236" lon="0.46738">
        <ele>129</ele>
        <time>2022-09-15T08:38:35.170Z</time>
      </trkpt>
      <trkpt lat="44.14236" lon="0.46739">
        <ele>129</ele>
        <time>2022-09-15T08:38:36.170Z</time>
      </trkpt>
      <trkpt lat="44.14235" lon="0.4674">
        <ele>129</ele>
        <time>2022-09-15T08:38:37.170Z</time>
      </trkpt>
      <trkpt lat="44.14234" lon="0.46741">
        <ele>130</ele>
        <time>2022-09-15T08:38:38.170Z</time>
      </trkpt>
      <trkpt lat="44.14234" lon="0.46743">
        <ele>130</ele>
        <time>2022-09-15T08:38:39.170Z</time>
      </trkpt>
      <trkpt lat="44.14233" lon="0.46744">
        <ele>130</ele>
        <time>2022-09-15T08:38:40.170Z</time>
      </trkpt>
      <trkpt lat="44.14233" lon="0.46745">
        <ele>130</ele>
        <time>2022-09-15T08:38:41.170Z</time>
      </trkpt>
      <trkpt lat="44.14232" lon="0.46747">
        <ele>130</ele>
        <time>2022-09-15T08:38:42.170Z</time>
      </trkpt>
      <trkpt lat="44.14232" lon="0.46749">
        <ele>130</ele>
        <time>2022-09-15T08:38:43.170Z</time>
      </trkpt>
      <trkpt lat="44.14231" lon="0.4675">
        <ele>131</ele>
        <time>2022-09-15T08:38:44.170Z</time>
      </trkpt>
      <trkpt lat="44.14231" lon="0.46752">
        <ele>130</ele>
        <time>2022-09-15T08:38:45.170Z</time>
      </trkpt>
      <trkpt lat="44.14231" lon="0.46753">
        <ele>130</ele>
        <time>2022-09-15T08:38:46.170Z</time>
      </trkpt>
      <trkpt lat="44.1423" lon="0.46754">
        <ele>130</ele>
        <time>2022-09-15T08:38:47.170Z</time>
      </trkpt>
      <trkpt lat="44.14229" lon="0.46755">
        <ele>130</ele>
        <time>2022-09-15T08:38:48.170Z</time>
      </trkpt>
      <trkpt lat="44.14228" lon="0.46755">
        <ele>130</ele>
        <time>2022-09-15T08:38:49.170Z</time>
      </trkpt>
      <trkpt lat="44.14227" lon="0.46755">
        <ele>130</ele>
        <time>2022-09-15T08:38:50.170Z</time>
      </trkpt>
      <trkpt lat="44.14227" lon="0.46755">
        <ele>130</ele>
        <time>2022-09-15T08:38:51.170Z</time>
      </trkpt>
      <trkpt lat="44.14226" lon="0.46755">
        <ele>130</ele>
        <time>2022-09-15T08:38:52.170Z</time>
      </trkpt>
      <trkpt lat="44.14225" lon="0.46755">
        <ele>130</ele>
        <time>2022-09-15T08:38:53.170Z</time>
      </trkpt>
      <trkpt lat="44.14224" lon="0.46755">
        <ele>130</ele>
        <time>2022-09-15T08:38:54.170Z</time>
      </trkpt>
      <trkpt lat="44.14223" lon="0.46755">
        <ele>130</ele>
        <time>2022-09-15T08:38:55.170Z</time>
      </trkpt>
      <trkpt lat="44.14222" lon="0.46756">
        <ele>129</ele>
        <time>2022-09-15T08:38:56.170Z</time>
      </trkpt>
      <trkpt lat="44.14221" lon="0.46756">
        <ele>130</ele>
        <time>2022-09-15T08:38:57.170Z</time>
      </trkpt>
      <trkpt lat="44.14219" lon="0.46758">
        <ele>129</ele>
        <time>2022-09-15T08:38:58.170Z</time>
      </trkpt>
      <trkpt lat="44.14218" lon="0.46759">
        <ele>129</ele>
        <time>2022-09-15T08:38:59.170Z</time>
      </trkpt>
      <trkpt lat="44.14217" lon="0.4676">
        <ele>129</ele>
        <time>2022-09-15T08:39:00.170Z</time>
      </trkpt>
      <trkpt lat="44.14216" lon="0.46761">
        <ele>129</ele>
        <time>2022-09-15T08:39:01.170Z</time>
      </trkpt>
      <trkpt lat="44.14216" lon="0.46761">
        <ele>129</ele>
        <time>2022-09-15T08:39:02.170Z</time>
      </trkpt>
      <trkpt lat="44.14216" lon="0.46761">
        <ele>129</ele>
        <time>2022-09-15T08:39:03.170Z</time>
      </trkpt>
      <trkpt lat="44.14218" lon="0.46759">
        <ele>129</ele>
        <time>2022-09-15T08:39:34.182Z</time>
      </trkpt>
      <trkpt lat="44.14218" lon="0.46759">
        <ele>129</ele>
        <time>2022-09-15T08:39:35.182Z</time>
      </trkpt>
      <trkpt lat="44.14219" lon="0.46759">
        <ele>130</ele>
        <time>2022-09-15T08:39:36.182Z</time>
      </trkpt>
      <trkpt lat="44.1422" lon="0.46759">
        <ele>130</ele>
        <time>2022-09-15T08:39:37.182Z</time>
      </trkpt>
      <trkpt lat="44.14221" lon="0.46759">
        <ele>130</ele>
        <time>2022-09-15T08:39:38.182Z</time>
      </trkpt>
      <trkpt lat="44.14221" lon="0.46759">
        <ele>130</ele>
        <time>2022-09-15T08:39:39.182Z</time>
      </trkpt>
      <trkpt lat="44.14222" lon="0.46759">
        <ele>129</ele>
        <time>2022-09-15T08:39:40.182Z</time>
      </trkpt>
      <trkpt lat="44.14223" lon="0.46759">
        <ele>129</ele>
        <time>2022-09-15T08:39:41.182Z</time>
      </trkpt>
      <trkpt lat="44.14223" lon="0.46759">
        <ele>129</ele>
        <time>2022-09-15T08:39:42.182Z</time>
      </trkpt>
      <trkpt lat="44.14223" lon="0.46759">
        <ele>129</ele>
        <time>2022-09-15T08:39:43.182Z</time>
      </trkpt>
      <trkpt lat="44.14223" lon="0.46759">
        <ele>129</ele>
        <time>2022-09-15T08:39:44.182Z</time>
      </trkpt>
      <trkpt lat="44.14223" lon="0.46759">
        <ele>129</ele>
        <time>2022-09-15T08:39:45.182Z</time>
      </trkpt>
      <trkpt lat="44.14223" lon="0.46759">
        <ele>129</ele>
        <time>2022-09-15T08:39:46.182Z</time>
      </trkpt>
      <trkpt lat="44.14222" lon="0.46759">
        <ele>129</ele>
        <time>2022-09-15T08:39:47.182Z</time>
      </trkpt>
      <trkpt lat="44.14222" lon="0.46759">
        <ele>130</ele>
        <time>2022-09-15T08:39:48.182Z</time>
      </trkpt>
      <trkpt lat="44.14222" lon="0.46759">
        <ele>130</ele>
        <time>2022-09-15T08:39:49.182Z</time>
      </trkpt>
      <trkpt lat="44.14222" lon="0.46759">
        <ele>130</ele>
        <time>2022-09-15T08:39:50.182Z</time>
      </trkpt>
      <trkpt lat="44.14222" lon="0.46759">
        <ele>130</ele>
        <time>2022-09-15T08:39:51.182Z</time>
      </trkpt>
      <trkpt lat="44.14222" lon="0.46759">
        <ele>130</ele>
        <time>2022-09-15T08:39:52.182Z</time>
      </trkpt>
      <trkpt lat="44.14219" lon="0.4676">
        <ele>128</ele>
        <time>2022-09-15T08:40:00.198Z</time>
      </trkpt>
      <trkpt lat="44.14217" lon="0.4676">
        <ele>128</ele>
        <time>2022-09-15T08:40:01.198Z</time>
      </trkpt>
      <trkpt lat="44.14216" lon="0.4676">
        <ele>128</ele>
        <time>2022-09-15T08:40:02.198Z</time>
      </trkpt>
      <trkpt lat="44.14215" lon="0.46761">
        <ele>128</ele>
        <time>2022-09-15T08:40:03.198Z</time>
      </trkpt>
      <trkpt lat="44.14214" lon="0.46761">
        <ele>128</ele>
        <time>2022-09-15T08:40:04.198Z</time>
      </trkpt>
      <trkpt lat="44.14213" lon="0.46762">
        <ele>127</ele>
        <time>2022-09-15T08:40:05.198Z</time>
      </trkpt>
      <trkpt lat="44.14213" lon="0.46764">
        <ele>127</ele>
        <time>2022-09-15T08:40:06.198Z</time>
      </trkpt>
      <trkpt lat="44.14212" lon="0.46765">
        <ele>126</ele>
        <time>2022-09-15T08:40:07.198Z</time>
      </trkpt>
      <trkpt lat="44.14211" lon="0.46766">
        <ele>125</ele>
        <time>2022-09-15T08:40:08.198Z</time>
      </trkpt>
      <trkpt lat="44.1421" lon="0.46767">
        <ele>125</ele>
        <time>2022-09-15T08:40:09.198Z</time>
      </trkpt>
      <trkpt lat="44.14209" lon="0.46767">
        <ele>125</ele>
        <time>2022-09-15T08:40:10.198Z</time>
      </trkpt>
      <trkpt lat="44.14208" lon="0.46768">
        <ele>125</ele>
        <time>2022-09-15T08:40:11.198Z</time>
      </trkpt>
      <trkpt lat="44.14207" lon="0.46768">
        <ele>125</ele>
        <time>2022-09-15T08:40:12.198Z</time>
      </trkpt>
      <trkpt lat="44.14206" lon="0.46769">
        <ele>125</ele>
        <time>2022-09-15T08:40:13.198Z</time>
      </trkpt>
      <trkpt lat="44.14205" lon="0.46769">
        <ele>125</ele>
        <time>2022-09-15T08:40:14.198Z</time>
      </trkpt>
      <trkpt lat="44.14204" lon="0.46769">
        <ele>125</ele>
        <time>2022-09-15T08:40:15.198Z</time>
      </trkpt>
      <trkpt lat="44.14203" lon="0.46769">
        <ele>125</ele>
        <time>2022-09-15T08:40:16.198Z</time>
      </trkpt>
      <trkpt lat="44.14202" lon="0.46769">
        <ele>125</ele>
        <time>2022-09-15T08:40:17.198Z</time>
      </trkpt>
      <trkpt lat="44.142" lon="0.46769">
        <ele>125</ele>
        <time>2022-09-15T08:40:18.198Z</time>
      </trkpt>
      <trkpt lat="44.14199" lon="0.46769">
        <ele>125</ele>
        <time>2022-09-15T08:40:19.198Z</time>
      </trkpt>
      <trkpt lat="44.14198" lon="0.46768">
        <ele>125</ele>
        <time>2022-09-15T08:40:20.198Z</time>
      </trkpt>
      <trkpt lat="44.14197" lon="0.46768">
        <ele>126</ele>
        <time>2022-09-15T08:40:21.198Z</time>
      </trkpt>
      <trkpt lat="44.14196" lon="0.46768">
        <ele>126</ele>
        <time>2022-09-15T08:40:22.198Z</time>
      </trkpt>
      <trkpt lat="44.14195" lon="0.46768">
        <ele>126</ele>
        <time>2022-09-15T08:40:23.198Z</time>
      </trkpt>
      <trkpt lat="44.14194" lon="0.46767">
        <ele>126</ele>
        <time>2022-09-15T08:40:24.198Z</time>
      </trkpt>
      <trkpt lat="44.14193" lon="0.46767">
        <ele>126</ele>
        <time>2022-09-15T08:40:25.198Z</time>
      </trkpt>
      <trkpt lat="44.14192" lon="0.46767">
        <ele>126</ele>
        <time>2022-09-15T08:40:26.198Z</time>
      </trkpt>
      <trkpt lat="44.14191" lon="0.46766">
        <ele>126</ele>
        <time>2022-09-15T08:40:27.198Z</time>
      </trkpt>
      <trkpt lat="44.1419" lon="0.46766">
        <ele>125</ele>
        <time>2022-09-15T08:40:28.198Z</time>
      </trkpt>
      <trkpt lat="44.1419" lon="0.46766">
        <ele>126</ele>
        <time>2022-09-15T08:40:29.198Z</time>
      </trkpt>
      <trkpt lat="44.1419" lon="0.46766">
        <ele>125</ele>
        <time>2022-09-15T08:40:30.198Z</time>
      </trkpt>
      <trkpt lat="44.1419" lon="0.46766">
        <ele>125</ele>
        <time>2022-09-15T08:40:31.198Z</time>
      </trkpt>
      <trkpt lat="44.1419" lon="0.46766">
        <ele>125</ele>
        <time>2022-09-15T08:40:32.198Z</time>
      </trkpt>
      <trkpt lat="44.1419" lon="0.46766">
        <ele>125</ele>
        <time>2022-09-15T08:40:33.198Z</time>
      </trkpt>
      <trkpt lat="44.14191" lon="0.46766">
        <ele>125</ele>
        <time>2022-09-15T08:40:34.198Z</time>
      </trkpt>
      <trkpt lat="44.14191" lon="0.46766">
        <ele>125</ele>
        <time>2022-09-15T08:40:35.198Z</time>
      </trkpt>
      <trkpt lat="44.14191" lon="0.46766">
        <ele>125</ele>
        <time>2022-09-15T08:40:36.198Z</time>
      </trkpt>
      <trkpt lat="44.1419" lon="0.46766">
        <ele>125</ele>
        <time>2022-09-15T08:40:37.198Z</time>
      </trkpt>
      <trkpt lat="44.14189" lon="0.46766">
        <ele>125</ele>
        <time>2022-09-15T08:40:38.198Z</time>
      </trkpt>
      <trkpt lat="44.14187" lon="0.46766">
        <ele>125</ele>
        <time>2022-09-15T08:40:39.198Z</time>
      </trkpt>
      <trkpt lat="44.14186" lon="0.46766">
        <ele>125</ele>
        <time>2022-09-15T08:40:40.198Z</time>
      </trkpt>
      <trkpt lat="44.14185" lon="0.46766">
        <ele>125</ele>
        <time>2022-09-15T08:40:41.198Z</time>
      </trkpt>
      <trkpt lat="44.14184" lon="0.46766">
        <ele>125</ele>
        <time>2022-09-15T08:40:42.198Z</time>
      </trkpt>
      <trkpt lat="44.14183" lon="0.46766">
        <ele>125</ele>
        <time>2022-09-15T08:40:43.198Z</time>
      </trkpt>
      <trkpt lat="44.14182" lon="0.46766">
        <ele>125</ele>
        <time>2022-09-15T08:40:44.198Z</time>
      </trkpt>
      <trkpt lat="44.1418" lon="0.46765">
        <ele>124</ele>
        <time>2022-09-15T08:40:45.198Z</time>
      </trkpt>
      <trkpt lat="44.14179" lon="0.46765">
        <ele>124</ele>
        <time>2022-09-15T08:40:46.198Z</time>
      </trkpt>
      <trkpt lat="44.14178" lon="0.46765">
        <ele>124</ele>
        <time>2022-09-15T08:40:47.198Z</time>
      </trkpt>
      <trkpt lat="44.14176" lon="0.46765">
        <ele>124</ele>
        <time>2022-09-15T08:40:48.198Z</time>
      </trkpt>
      <trkpt lat="44.14175" lon="0.46765">
        <ele>124</ele>
        <time>2022-09-15T08:40:49.198Z</time>
      </trkpt>
      <trkpt lat="44.14174" lon="0.46764">
        <ele>124</ele>
        <time>2022-09-15T08:40:50.198Z</time>
      </trkpt>
      <trkpt lat="44.14172" lon="0.46764">
        <ele>124</ele>
        <time>2022-09-15T08:40:51.198Z</time>
      </trkpt>
      <trkpt lat="44.14171" lon="0.46764">
        <ele>124</ele>
        <time>2022-09-15T08:40:52.198Z</time>
      </trkpt>
      <trkpt lat="44.1417" lon="0.46763">
        <ele>124</ele>
        <time>2022-09-15T08:40:53.198Z</time>
      </trkpt>
      <trkpt lat="44.14169" lon="0.46762">
        <ele>124</ele>
        <time>2022-09-15T08:40:54.198Z</time>
      </trkpt>
      <trkpt lat="44.14168" lon="0.46762">
        <ele>123</ele>
        <time>2022-09-15T08:40:55.198Z</time>
      </trkpt>
      <trkpt lat="44.14167" lon="0.46762">
        <ele>123</ele>
        <time>2022-09-15T08:40:56.198Z</time>
      </trkpt>
      <trkpt lat="44.14166" lon="0.46761">
        <ele>123</ele>
        <time>2022-09-15T08:40:57.198Z</time>
      </trkpt>
      <trkpt lat="44.14165" lon="0.46761">
        <ele>123</ele>
        <time>2022-09-15T08:40:58.198Z</time>
      </trkpt>
      <trkpt lat="44.14163" lon="0.46761">
        <ele>122</ele>
        <time>2022-09-15T08:40:59.198Z</time>
      </trkpt>
      <trkpt lat="44.14162" lon="0.46761">
        <ele>122</ele>
        <time>2022-09-15T08:41:00.198Z</time>
      </trkpt>
      <trkpt lat="44.14161" lon="0.46761">
        <ele>122</ele>
        <time>2022-09-15T08:41:01.198Z</time>
      </trkpt>
      <trkpt lat="44.1416" lon="0.46761">
        <ele>122</ele>
        <time>2022-09-15T08:41:02.198Z</time>
      </trkpt>
      <trkpt lat="44.14158" lon="0.46761">
        <ele>121</ele>
        <time>2022-09-15T08:41:03.198Z</time>
      </trkpt>
      <trkpt lat="44.14157" lon="0.46761">
        <ele>121</ele>
        <time>2022-09-15T08:41:04.198Z</time>
      </trkpt>
      <trkpt lat="44.14156" lon="0.46761">
        <ele>121</ele>
        <time>2022-09-15T08:41:05.198Z</time>
      </trkpt>
      <trkpt lat="44.14155" lon="0.46761">
        <ele>121</ele>
        <time>2022-09-15T08:41:06.198Z</time>
      </trkpt>
      <trkpt lat="44.14154" lon="0.46761">
        <ele>121</ele>
        <time>2022-09-15T08:41:07.198Z</time>
      </trkpt>
      <trkpt lat="44.14153" lon="0.4676">
        <ele>120</ele>
        <time>2022-09-15T08:41:08.198Z</time>
      </trkpt>
      <trkpt lat="44.14152" lon="0.4676">
        <ele>120</ele>
        <time>2022-09-15T08:41:09.198Z</time>
      </trkpt>
      <trkpt lat="44.14151" lon="0.4676">
        <ele>120</ele>
        <time>2022-09-15T08:41:10.198Z</time>
      </trkpt>
      <trkpt lat="44.1415" lon="0.4676">
        <ele>120</ele>
        <time>2022-09-15T08:41:11.198Z</time>
      </trkpt>
      <trkpt lat="44.14149" lon="0.4676">
        <ele>120</ele>
        <time>2022-09-15T08:41:12.198Z</time>
      </trkpt>
      <trkpt lat="44.14148" lon="0.4676">
        <ele>119</ele>
        <time>2022-09-15T08:41:13.198Z</time>
      </trkpt>
      <trkpt lat="44.14147" lon="0.4676">
        <ele>119</ele>
        <time>2022-09-15T08:41:14.198Z</time>
      </trkpt>
      <trkpt lat="44.14146" lon="0.4676">
        <ele>119</ele>
        <time>2022-09-15T08:41:15.198Z</time>
      </trkpt>
      <trkpt lat="44.14145" lon="0.4676">
        <ele>119</ele>
        <time>2022-09-15T08:41:16.198Z</time>
      </trkpt>
      <trkpt lat="44.14144" lon="0.4676">
        <ele>118</ele>
        <time>2022-09-15T08:41:17.198Z</time>
      </trkpt>
      <trkpt lat="44.14143" lon="0.46759">
        <ele>118</ele>
        <time>2022-09-15T08:41:18.198Z</time>
      </trkpt>
      <trkpt lat="44.14142" lon="0.46759">
        <ele>118</ele>
        <time>2022-09-15T08:41:19.198Z</time>
      </trkpt>
      <trkpt lat="44.14141" lon="0.46759">
        <ele>118</ele>
        <time>2022-09-15T08:41:20.198Z</time>
      </trkpt>
      <trkpt lat="44.14141" lon="0.46759">
        <ele>117</ele>
        <time>2022-09-15T08:41:21.198Z</time>
      </trkpt>
      <trkpt lat="44.14141" lon="0.46759">
        <ele>118</ele>
        <time>2022-09-15T08:41:22.198Z</time>
      </trkpt>
      <trkpt lat="44.14141" lon="0.46759">
        <ele>118</ele>
        <time>2022-09-15T08:41:23.198Z</time>
      </trkpt>
      <trkpt lat="44.1414" lon="0.46759">
        <ele>118</ele>
        <time>2022-09-15T08:41:24.198Z</time>
      </trkpt>
      <trkpt lat="44.1414" lon="0.46759">
        <ele>118</ele>
        <time>2022-09-15T08:41:25.198Z</time>
      </trkpt>
      <trkpt lat="44.14139" lon="0.46759">
        <ele>118</ele>
        <time>2022-09-15T08:41:26.198Z</time>
      </trkpt>
      <trkpt lat="44.14139" lon="0.46759">
        <ele>118</ele>
        <time>2022-09-15T08:41:27.198Z</time>
      </trkpt>
      <trkpt lat="44.14138" lon="0.4676">
        <ele>117</ele>
        <time>2022-09-15T08:41:28.198Z</time>
      </trkpt>
      <trkpt lat="44.14137" lon="0.4676">
        <ele>117</ele>
        <time>2022-09-15T08:41:29.198Z</time>
      </trkpt>
      <trkpt lat="44.14136" lon="0.46761">
        <ele>117</ele>
        <time>2022-09-15T08:41:30.198Z</time>
      </trkpt>
      <trkpt lat="44.14135" lon="0.46761">
        <ele>117</ele>
        <time>2022-09-15T08:41:31.198Z</time>
      </trkpt>
      <trkpt lat="44.14134" lon="0.4676">
        <ele>117</ele>
        <time>2022-09-15T08:41:32.198Z</time>
      </trkpt>
      <trkpt lat="44.14133" lon="0.4676">
        <ele>117</ele>
        <time>2022-09-15T08:41:33.198Z</time>
      </trkpt>
      <trkpt lat="44.14133" lon="0.4676">
        <ele>117</ele>
        <time>2022-09-15T08:41:34.198Z</time>
      </trkpt>
      <trkpt lat="44.14132" lon="0.4676">
        <ele>117</ele>
        <time>2022-09-15T08:41:35.198Z</time>
      </trkpt>
      <trkpt lat="44.14131" lon="0.4676">
        <ele>117</ele>
        <time>2022-09-15T08:41:36.198Z</time>
      </trkpt>
      <trkpt lat="44.1413" lon="0.4676">
        <ele>116</ele>
        <time>2022-09-15T08:41:37.198Z</time>
      </trkpt>
      <trkpt lat="44.14129" lon="0.46759">
        <ele>116</ele>
        <time>2022-09-15T08:41:38.198Z</time>
      </trkpt>
      <trkpt lat="44.14129" lon="0.46759">
        <ele>116</ele>
        <time>2022-09-15T08:41:39.198Z</time>
      </trkpt>
      <trkpt lat="44.14128" lon="0.46758">
        <ele>116</ele>
        <time>2022-09-15T08:41:40.198Z</time>
      </trkpt>
      <trkpt lat="44.14127" lon="0.46759">
        <ele>117</ele>
        <time>2022-09-15T08:41:41.198Z</time>
      </trkpt>
      <trkpt lat="44.14126" lon="0.46759">
        <ele>116</ele>
        <time>2022-09-15T08:41:42.198Z</time>
      </trkpt>
      <trkpt lat="44.14125" lon="0.46759">
        <ele>116</ele>
        <time>2022-09-15T08:41:43.198Z</time>
      </trkpt>
      <trkpt lat="44.14123" lon="0.46759">
        <ele>116</ele>
        <time>2022-09-15T08:41:44.198Z</time>
      </trkpt>
      <trkpt lat="44.14122" lon="0.46759">
        <ele>116</ele>
        <time>2022-09-15T08:41:45.198Z</time>
      </trkpt>
      <trkpt lat="44.14121" lon="0.46759">
        <ele>116</ele>
        <time>2022-09-15T08:41:46.198Z</time>
      </trkpt>
      <trkpt lat="44.1412" lon="0.46759">
        <ele>115</ele>
        <time>2022-09-15T08:41:47.198Z</time>
      </trkpt>
      <trkpt lat="44.14119" lon="0.46758">
        <ele>115</ele>
        <time>2022-09-15T08:41:48.198Z</time>
      </trkpt>
      <trkpt lat="44.14118" lon="0.46758">
        <ele>115</ele>
        <time>2022-09-15T08:41:49.198Z</time>
      </trkpt>
      <trkpt lat="44.14117" lon="0.46758">
        <ele>115</ele>
        <time>2022-09-15T08:41:50.198Z</time>
      </trkpt>
      <trkpt lat="44.14116" lon="0.46758">
        <ele>115</ele>
        <time>2022-09-15T08:41:51.198Z</time>
      </trkpt>
      <trkpt lat="44.14114" lon="0.46758">
        <ele>115</ele>
        <time>2022-09-15T08:41:52.198Z</time>
      </trkpt>
      <trkpt lat="44.14113" lon="0.46758">
        <ele>115</ele>
        <time>2022-09-15T08:41:53.198Z</time>
      </trkpt>
      <trkpt lat="44.14111" lon="0.46758">
        <ele>115</ele>
        <time>2022-09-15T08:41:54.198Z</time>
      </trkpt>
      <trkpt lat="44.1411" lon="0.46758">
        <ele>115</ele>
        <time>2022-09-15T08:41:55.198Z</time>
      </trkpt>
      <trkpt lat="44.14109" lon="0.46758">
        <ele>114</ele>
        <time>2022-09-15T08:41:56.198Z</time>
      </trkpt>
      <trkpt lat="44.14108" lon="0.46758">
        <ele>115</ele>
        <time>2022-09-15T08:41:57.198Z</time>
      </trkpt>
      <trkpt lat="44.14107" lon="0.46757">
        <ele>114</ele>
        <time>2022-09-15T08:41:58.198Z</time>
      </trkpt>
      <trkpt lat="44.14106" lon="0.46757">
        <ele>115</ele>
        <time>2022-09-15T08:41:59.198Z</time>
      </trkpt>
      <trkpt lat="44.14104" lon="0.46757">
        <ele>114</ele>
        <time>2022-09-15T08:42:00.198Z</time>
      </trkpt>
      <trkpt lat="44.14103" lon="0.46757">
        <ele>115</ele>
        <time>2022-09-15T08:42:01.198Z</time>
      </trkpt>
      <trkpt lat="44.14102" lon="0.46757">
        <ele>115</ele>
        <time>2022-09-15T08:42:02.198Z</time>
      </trkpt>
      <trkpt lat="44.14101" lon="0.46757">
        <ele>115</ele>
        <time>2022-09-15T08:42:03.198Z</time>
      </trkpt>
      <trkpt lat="44.141" lon="0.46757">
        <ele>114</ele>
        <time>2022-09-15T08:42:04.198Z</time>
      </trkpt>
      <trkpt lat="44.14099" lon="0.46757">
        <ele>114</ele>
        <time>2022-09-15T08:42:05.198Z</time>
      </trkpt>
      <trkpt lat="44.14098" lon="0.46757">
        <ele>114</ele>
        <time>2022-09-15T08:42:06.198Z</time>
      </trkpt>
      <trkpt lat="44.14097" lon="0.46757">
        <ele>114</ele>
        <time>2022-09-15T08:42:07.198Z</time>
      </trkpt>
      <trkpt lat="44.14096" lon="0.46757">
        <ele>114</ele>
        <time>2022-09-15T08:42:08.198Z</time>
      </trkpt>
      <trkpt lat="44.14095" lon="0.46757">
        <ele>114</ele>
        <time>2022-09-15T08:42:09.198Z</time>
      </trkpt>
      <trkpt lat="44.14094" lon="0.46757">
        <ele>113</ele>
        <time>2022-09-15T08:42:10.198Z</time>
      </trkpt>
      <trkpt lat="44.14093" lon="0.46756">
        <ele>113</ele>
        <time>2022-09-15T08:42:11.198Z</time>
      </trkpt>
      <trkpt lat="44.14092" lon="0.46756">
        <ele>113</ele>
        <time>2022-09-15T08:42:12.198Z</time>
      </trkpt>
      <trkpt lat="44.14091" lon="0.46756">
        <ele>113</ele>
        <time>2022-09-15T08:42:13.198Z</time>
      </trkpt>
      <trkpt lat="44.14091" lon="0.46756">
        <ele>113</ele>
        <time>2022-09-15T08:42:14.198Z</time>
      </trkpt>
      <trkpt lat="44.1409" lon="0.46756">
        <ele>113</ele>
        <time>2022-09-15T08:42:15.198Z</time>
      </trkpt>
      <trkpt lat="44.14088" lon="0.46756">
        <ele>113</ele>
        <time>2022-09-15T08:42:16.198Z</time>
      </trkpt>
      <trkpt lat="44.14087" lon="0.46756">
        <ele>112</ele>
        <time>2022-09-15T08:42:17.198Z</time>
      </trkpt>
      <trkpt lat="44.14086" lon="0.46756">
        <ele>112</ele>
        <time>2022-09-15T08:42:18.198Z</time>
      </trkpt>
      <trkpt lat="44.14085" lon="0.46756">
        <ele>112</ele>
        <time>2022-09-15T08:42:19.198Z</time>
      </trkpt>
      <trkpt lat="44.14084" lon="0.46756">
        <ele>112</ele>
        <time>2022-09-15T08:42:20.198Z</time>
      </trkpt>
      <trkpt lat="44.14083" lon="0.46756">
        <ele>112</ele>
        <time>2022-09-15T08:42:21.198Z</time>
      </trkpt>
      <trkpt lat="44.14082" lon="0.46757">
        <ele>112</ele>
        <time>2022-09-15T08:42:22.198Z</time>
      </trkpt>
      <trkpt lat="44.14081" lon="0.46757">
        <ele>112</ele>
        <time>2022-09-15T08:42:23.198Z</time>
      </trkpt>
      <trkpt lat="44.1408" lon="0.46758">
        <ele>113</ele>
        <time>2022-09-15T08:42:24.198Z</time>
      </trkpt>
      <trkpt lat="44.14079" lon="0.46759">
        <ele>113</ele>
        <time>2022-09-15T08:42:25.198Z</time>
      </trkpt>
      <trkpt lat="44.14078" lon="0.4676">
        <ele>112</ele>
        <time>2022-09-15T08:42:26.198Z</time>
      </trkpt>
      <trkpt lat="44.14078" lon="0.46762">
        <ele>112</ele>
        <time>2022-09-15T08:42:27.198Z</time>
      </trkpt>
      <trkpt lat="44.14078" lon="0.46763">
        <ele>112</ele>
        <time>2022-09-15T08:42:28.198Z</time>
      </trkpt>
      <trkpt lat="44.14078" lon="0.46764">
        <ele>112</ele>
        <time>2022-09-15T08:42:29.198Z</time>
      </trkpt>
      <trkpt lat="44.14078" lon="0.46765">
        <ele>112</ele>
        <time>2022-09-15T08:42:30.198Z</time>
      </trkpt>
      <trkpt lat="44.14078" lon="0.46767">
        <ele>112</ele>
        <time>2022-09-15T08:42:31.198Z</time>
      </trkpt>
      <trkpt lat="44.14078" lon="0.46769">
        <ele>112</ele>
        <time>2022-09-15T08:42:32.198Z</time>
      </trkpt>
      <trkpt lat="44.14078" lon="0.46771">
        <ele>112</ele>
        <time>2022-09-15T08:42:33.198Z</time>
      </trkpt>
      <trkpt lat="44.14078" lon="0.46772">
        <ele>112</ele>
        <time>2022-09-15T08:42:34.198Z</time>
      </trkpt>
      <trkpt lat="44.14078" lon="0.46774">
        <ele>112</ele>
        <time>2022-09-15T08:42:35.198Z</time>
      </trkpt>
      <trkpt lat="44.14078" lon="0.46775">
        <ele>112</ele>
        <time>2022-09-15T08:42:36.198Z</time>
      </trkpt>
      <trkpt lat="44.14079" lon="0.46777">
        <ele>112</ele>
        <time>2022-09-15T08:42:37.198Z</time>
      </trkpt>
      <trkpt lat="44.14079" lon="0.46779">
        <ele>112</ele>
        <time>2022-09-15T08:42:38.198Z</time>
      </trkpt>
      <trkpt lat="44.14079" lon="0.46781">
        <ele>112</ele>
        <time>2022-09-15T08:42:39.198Z</time>
      </trkpt>
      <trkpt lat="44.14079" lon="0.46782">
        <ele>112</ele>
        <time>2022-09-15T08:42:40.198Z</time>
      </trkpt>
      <trkpt lat="44.14079" lon="0.46784">
        <ele>112</ele>
        <time>2022-09-15T08:42:41.198Z</time>
      </trkpt>
      <trkpt lat="44.14079" lon="0.46785">
        <ele>112</ele>
        <time>2022-09-15T08:42:42.198Z</time>
      </trkpt>
      <trkpt lat="44.1408" lon="0.46787">
        <ele>112</ele>
        <time>2022-09-15T08:42:43.198Z</time>
      </trkpt>
      <trkpt lat="44.1408" lon="0.46788">
        <ele>112</ele>
        <time>2022-09-15T08:42:44.198Z</time>
      </trkpt>
      <trkpt lat="44.1408" lon="0.4679">
        <ele>112</ele>
        <time>2022-09-15T08:42:45.198Z</time>
      </trkpt>
      <trkpt lat="44.1408" lon="0.46791">
        <ele>112</ele>
        <time>2022-09-15T08:42:46.198Z</time>
      </trkpt>
      <trkpt lat="44.1408" lon="0.46793">
        <ele>112</ele>
        <time>2022-09-15T08:42:47.198Z</time>
      </trkpt>
      <trkpt lat="44.14081" lon="0.46794">
        <ele>111</ele>
        <time>2022-09-15T08:42:48.198Z</time>
      </trkpt>
      <trkpt lat="44.14081" lon="0.46795">
        <ele>111</ele>
        <time>2022-09-15T08:42:49.198Z</time>
      </trkpt>
      <trkpt lat="44.14081" lon="0.46797">
        <ele>111</ele>
        <time>2022-09-15T08:42:50.198Z</time>
      </trkpt>
      <trkpt lat="44.14081" lon="0.46799">
        <ele>111</ele>
        <time>2022-09-15T08:42:51.198Z</time>
      </trkpt>
      <trkpt lat="44.14081" lon="0.468">
        <ele>111</ele>
        <time>2022-09-15T08:42:52.198Z</time>
      </trkpt>
      <trkpt lat="44.14082" lon="0.46802">
        <ele>111</ele>
        <time>2022-09-15T08:42:53.198Z</time>
      </trkpt>
      <trkpt lat="44.14082" lon="0.46803">
        <ele>111</ele>
        <time>2022-09-15T08:42:54.198Z</time>
      </trkpt>
      <trkpt lat="44.14082" lon="0.46805">
        <ele>111</ele>
        <time>2022-09-15T08:42:55.198Z</time>
      </trkpt>
      <trkpt lat="44.14082" lon="0.46806">
        <ele>111</ele>
        <time>2022-09-15T08:42:56.198Z</time>
      </trkpt>
      <trkpt lat="44.14082" lon="0.46808">
        <ele>111</ele>
        <time>2022-09-15T08:42:57.198Z</time>
      </trkpt>
      <trkpt lat="44.14083" lon="0.4681">
        <ele>111</ele>
        <time>2022-09-15T08:42:58.198Z</time>
      </trkpt>
      <trkpt lat="44.14083" lon="0.46811">
        <ele>112</ele>
        <time>2022-09-15T08:42:59.198Z</time>
      </trkpt>
      <trkpt lat="44.14083" lon="0.46813">
        <ele>111</ele>
        <time>2022-09-15T08:43:00.198Z</time>
      </trkpt>
      <trkpt lat="44.14083" lon="0.46814">
        <ele>112</ele>
        <time>2022-09-15T08:43:01.198Z</time>
      </trkpt>
      <trkpt lat="44.14084" lon="0.46816">
        <ele>112</ele>
        <time>2022-09-15T08:43:02.198Z</time>
      </trkpt>
      <trkpt lat="44.14084" lon="0.46818">
        <ele>112</ele>
        <time>2022-09-15T08:43:03.198Z</time>
      </trkpt>
      <trkpt lat="44.14084" lon="0.46819">
        <ele>112</ele>
        <time>2022-09-15T08:43:04.198Z</time>
      </trkpt>
      <trkpt lat="44.14084" lon="0.46821">
        <ele>112</ele>
        <time>2022-09-15T08:43:05.198Z</time>
      </trkpt>
      <trkpt lat="44.14085" lon="0.46822">
        <ele>112</ele>
        <time>2022-09-15T08:43:06.198Z</time>
      </trkpt>
      <trkpt lat="44.14085" lon="0.46823">
        <ele>112</ele>
        <time>2022-09-15T08:43:07.198Z</time>
      </trkpt>
      <trkpt lat="44.14085" lon="0.46825">
        <ele>112</ele>
        <time>2022-09-15T08:43:08.198Z</time>
      </trkpt>
      <trkpt lat="44.14085" lon="0.46826">
        <ele>112</ele>
        <time>2022-09-15T08:43:09.198Z</time>
      </trkpt>
      <trkpt lat="44.14085" lon="0.46828">
        <ele>112</ele>
        <time>2022-09-15T08:43:10.198Z</time>
      </trkpt>
      <trkpt lat="44.14086" lon="0.4683">
        <ele>112</ele>
        <time>2022-09-15T08:43:11.198Z</time>
      </trkpt>
      <trkpt lat="44.14086" lon="0.46831">
        <ele>113</ele>
        <time>2022-09-15T08:43:12.198Z</time>
      </trkpt>
      <trkpt lat="44.14086" lon="0.46832">
        <ele>113</ele>
        <time>2022-09-15T08:43:13.198Z</time>
      </trkpt>
      <trkpt lat="44.14087" lon="0.46834">
        <ele>113</ele>
        <time>2022-09-15T08:43:14.198Z</time>
      </trkpt>
      <trkpt lat="44.14087" lon="0.46836">
        <ele>113</ele>
        <time>2022-09-15T08:43:15.198Z</time>
      </trkpt>
      <trkpt lat="44.14087" lon="0.46838">
        <ele>113</ele>
        <time>2022-09-15T08:43:16.198Z</time>
      </trkpt>
      <trkpt lat="44.14088" lon="0.46839">
        <ele>113</ele>
        <time>2022-09-15T08:43:17.198Z</time>
      </trkpt>
      <trkpt lat="44.14088" lon="0.4684">
        <ele>113</ele>
        <time>2022-09-15T08:43:18.198Z</time>
      </trkpt>
      <trkpt lat="44.14088" lon="0.46842">
        <ele>113</ele>
        <time>2022-09-15T08:43:19.198Z</time>
      </trkpt>
      <trkpt lat="44.14089" lon="0.46843">
        <ele>113</ele>
        <time>2022-09-15T08:43:20.198Z</time>
      </trkpt>
      <trkpt lat="44.14089" lon="0.46845">
        <ele>113</ele>
        <time>2022-09-15T08:43:21.198Z</time>
      </trkpt>
      <trkpt lat="44.14089" lon="0.46847">
        <ele>113</ele>
        <time>2022-09-15T08:43:22.198Z</time>
      </trkpt>
      <trkpt lat="44.14089" lon="0.46848">
        <ele>113</ele>
        <time>2022-09-15T08:43:23.198Z</time>
      </trkpt>
      <trkpt lat="44.1409" lon="0.46849">
        <ele>114</ele>
        <time>2022-09-15T08:43:24.198Z</time>
      </trkpt>
      <trkpt lat="44.1409" lon="0.46851">
        <ele>114</ele>
        <time>2022-09-15T08:43:25.198Z</time>
      </trkpt>
      <trkpt lat="44.1409" lon="0.46852">
        <ele>114</ele>
        <time>2022-09-15T08:43:26.198Z</time>
      </trkpt>
      <trkpt lat="44.14091" lon="0.46854">
        <ele>114</ele>
        <time>2022-09-15T08:43:27.198Z</time>
      </trkpt>
      <trkpt lat="44.14091" lon="0.46855">
        <ele>114</ele>
        <time>2022-09-15T08:43:28.198Z</time>
      </trkpt>
      <trkpt lat="44.14091" lon="0.46857">
        <ele>114</ele>
        <time>2022-09-15T08:43:29.198Z</time>
      </trkpt>
      <trkpt lat="44.14091" lon="0.46858">
        <ele>114</ele>
        <time>2022-09-15T08:43:30.198Z</time>
      </trkpt>
      <trkpt lat="44.14091" lon="0.46859">
        <ele>114</ele>
        <time>2022-09-15T08:43:31.198Z</time>
      </trkpt>
      <trkpt lat="44.14091" lon="0.46861">
        <ele>114</ele>
        <time>2022-09-15T08:43:32.198Z</time>
      </trkpt>
      <trkpt lat="44.14091" lon="0.46862">
        <ele>114</ele>
        <time>2022-09-15T08:43:33.198Z</time>
      </trkpt>
      <trkpt lat="44.14092" lon="0.46863">
        <ele>114</ele>
        <time>2022-09-15T08:43:34.198Z</time>
      </trkpt>
      <trkpt lat="44.14092" lon="0.46865">
        <ele>114</ele>
        <time>2022-09-15T08:43:35.198Z</time>
      </trkpt>
      <trkpt lat="44.14092" lon="0.46866">
        <ele>114</ele>
        <time>2022-09-15T08:43:36.198Z</time>
      </trkpt>
      <trkpt lat="44.14092" lon="0.46867">
        <ele>114</ele>
        <time>2022-09-15T08:43:37.198Z</time>
      </trkpt>
      <trkpt lat="44.14092" lon="0.46869">
        <ele>114</ele>
        <time>2022-09-15T08:43:38.198Z</time>
      </trkpt>
      <trkpt lat="44.14092" lon="0.4687">
        <ele>114</ele>
        <time>2022-09-15T08:43:39.198Z</time>
      </trkpt>
      <trkpt lat="44.14092" lon="0.46872">
        <ele>114</ele>
        <time>2022-09-15T08:43:40.198Z</time>
      </trkpt>
      <trkpt lat="44.14093" lon="0.46873">
        <ele>114</ele>
        <time>2022-09-15T08:43:41.198Z</time>
      </trkpt>
      <trkpt lat="44.14093" lon="0.46874">
        <ele>114</ele>
        <time>2022-09-15T08:43:42.198Z</time>
      </trkpt>
      <trkpt lat="44.14093" lon="0.46876">
        <ele>114</ele>
        <time>2022-09-15T08:43:43.198Z</time>
      </trkpt>
      <trkpt lat="44.14093" lon="0.46877">
        <ele>114</ele>
        <time>2022-09-15T08:43:44.198Z</time>
      </trkpt>
      <trkpt lat="44.14094" lon="0.46878">
        <ele>114</ele>
        <time>2022-09-15T08:43:45.198Z</time>
      </trkpt>
      <trkpt lat="44.14094" lon="0.4688">
        <ele>114</ele>
        <time>2022-09-15T08:43:46.198Z</time>
      </trkpt>
      <trkpt lat="44.14094" lon="0.46881">
        <ele>114</ele>
        <time>2022-09-15T08:43:47.198Z</time>
      </trkpt>
      <trkpt lat="44.14094" lon="0.46883">
        <ele>114</ele>
        <time>2022-09-15T08:43:48.198Z</time>
      </trkpt>
      <trkpt lat="44.14095" lon="0.46885">
        <ele>114</ele>
        <time>2022-09-15T08:43:49.198Z</time>
      </trkpt>
      <trkpt lat="44.14095" lon="0.46887">
        <ele>114</ele>
        <time>2022-09-15T08:43:50.198Z</time>
      </trkpt>
      <trkpt lat="44.14095" lon="0.46888">
        <ele>114</ele>
        <time>2022-09-15T08:43:51.198Z</time>
      </trkpt>
      <trkpt lat="44.14096" lon="0.4689">
        <ele>113</ele>
        <time>2022-09-15T08:43:52.198Z</time>
      </trkpt>
      <trkpt lat="44.14096" lon="0.46891">
        <ele>113</ele>
        <time>2022-09-15T08:43:53.198Z</time>
      </trkpt>
      <trkpt lat="44.14097" lon="0.46893">
        <ele>113</ele>
        <time>2022-09-15T08:43:54.198Z</time>
      </trkpt>
      <trkpt lat="44.14097" lon="0.46894">
        <ele>113</ele>
        <time>2022-09-15T08:43:55.198Z</time>
      </trkpt>
      <trkpt lat="44.14097" lon="0.46896">
        <ele>113</ele>
        <time>2022-09-15T08:43:56.198Z</time>
      </trkpt>
      <trkpt lat="44.14098" lon="0.46898">
        <ele>113</ele>
        <time>2022-09-15T08:43:57.198Z</time>
      </trkpt>
      <trkpt lat="44.14098" lon="0.46899">
        <ele>113</ele>
        <time>2022-09-15T08:43:58.198Z</time>
      </trkpt>
      <trkpt lat="44.14098" lon="0.46901">
        <ele>112</ele>
        <time>2022-09-15T08:43:59.198Z</time>
      </trkpt>
      <trkpt lat="44.14099" lon="0.46902">
        <ele>112</ele>
        <time>2022-09-15T08:44:00.198Z</time>
      </trkpt>
      <trkpt lat="44.14099" lon="0.46904">
        <ele>112</ele>
        <time>2022-09-15T08:44:01.198Z</time>
      </trkpt>
      <trkpt lat="44.14099" lon="0.46905">
        <ele>111</ele>
        <time>2022-09-15T08:44:02.198Z</time>
      </trkpt>
      <trkpt lat="44.141" lon="0.46907">
        <ele>111</ele>
        <time>2022-09-15T08:44:03.198Z</time>
      </trkpt>
      <trkpt lat="44.141" lon="0.46908">
        <ele>111</ele>
        <time>2022-09-15T08:44:04.198Z</time>
      </trkpt>
      <trkpt lat="44.141" lon="0.4691">
        <ele>111</ele>
        <time>2022-09-15T08:44:05.198Z</time>
      </trkpt>
      <trkpt lat="44.141" lon="0.46912">
        <ele>111</ele>
        <time>2022-09-15T08:44:06.198Z</time>
      </trkpt>
      <trkpt lat="44.141" lon="0.46913">
        <ele>111</ele>
        <time>2022-09-15T08:44:07.198Z</time>
      </trkpt>
      <trkpt lat="44.14101" lon="0.46914">
        <ele>111</ele>
        <time>2022-09-15T08:44:08.198Z</time>
      </trkpt>
      <trkpt lat="44.14101" lon="0.46916">
        <ele>111</ele>
        <time>2022-09-15T08:44:09.198Z</time>
      </trkpt>
      <trkpt lat="44.14101" lon="0.46917">
        <ele>111</ele>
        <time>2022-09-15T08:44:10.198Z</time>
      </trkpt>
      <trkpt lat="44.14102" lon="0.46919">
        <ele>111</ele>
        <time>2022-09-15T08:44:11.198Z</time>
      </trkpt>
      <trkpt lat="44.14102" lon="0.46921">
        <ele>111</ele>
        <time>2022-09-15T08:44:12.198Z</time>
      </trkpt>
      <trkpt lat="44.14103" lon="0.46922">
        <ele>111</ele>
        <time>2022-09-15T08:44:13.198Z</time>
      </trkpt>
      <trkpt lat="44.14103" lon="0.46924">
        <ele>110</ele>
        <time>2022-09-15T08:44:14.198Z</time>
      </trkpt>
      <trkpt lat="44.14103" lon="0.46925">
        <ele>110</ele>
        <time>2022-09-15T08:44:15.198Z</time>
      </trkpt>
      <trkpt lat="44.14103" lon="0.46926">
        <ele>110</ele>
        <time>2022-09-15T08:44:16.198Z</time>
      </trkpt>
      <trkpt lat="44.14104" lon="0.46927">
        <ele>110</ele>
        <time>2022-09-15T08:44:17.198Z</time>
      </trkpt>
      <trkpt lat="44.14104" lon="0.46929">
        <ele>110</ele>
        <time>2022-09-15T08:44:18.198Z</time>
      </trkpt>
      <trkpt lat="44.14104" lon="0.4693">
        <ele>110</ele>
        <time>2022-09-15T08:44:19.198Z</time>
      </trkpt>
      <trkpt lat="44.14105" lon="0.46932">
        <ele>110</ele>
        <time>2022-09-15T08:44:20.198Z</time>
      </trkpt>
      <trkpt lat="44.14105" lon="0.46933">
        <ele>110</ele>
        <time>2022-09-15T08:44:21.198Z</time>
      </trkpt>
      <trkpt lat="44.14106" lon="0.46935">
        <ele>110</ele>
        <time>2022-09-15T08:44:22.198Z</time>
      </trkpt>
      <trkpt lat="44.14106" lon="0.46936">
        <ele>110</ele>
        <time>2022-09-15T08:44:23.198Z</time>
      </trkpt>
      <trkpt lat="44.14107" lon="0.46937">
        <ele>110</ele>
        <time>2022-09-15T08:44:24.198Z</time>
      </trkpt>
      <trkpt lat="44.14107" lon="0.46939">
        <ele>109</ele>
        <time>2022-09-15T08:44:25.198Z</time>
      </trkpt>
      <trkpt lat="44.14108" lon="0.4694">
        <ele>110</ele>
        <time>2022-09-15T08:44:26.198Z</time>
      </trkpt>
      <trkpt lat="44.14109" lon="0.46942">
        <ele>109</ele>
        <time>2022-09-15T08:44:27.198Z</time>
      </trkpt>
      <trkpt lat="44.14109" lon="0.46943">
        <ele>109</ele>
        <time>2022-09-15T08:44:28.198Z</time>
      </trkpt>
      <trkpt lat="44.1411" lon="0.46944">
        <ele>108</ele>
        <time>2022-09-15T08:44:29.198Z</time>
      </trkpt>
      <trkpt lat="44.1411" lon="0.46946">
        <ele>108</ele>
        <time>2022-09-15T08:44:30.198Z</time>
      </trkpt>
      <trkpt lat="44.14111" lon="0.46947">
        <ele>108</ele>
        <time>2022-09-15T08:44:31.198Z</time>
      </trkpt>
      <trkpt lat="44.14111" lon="0.46948">
        <ele>108</ele>
        <time>2022-09-15T08:44:32.198Z</time>
      </trkpt>
      <trkpt lat="44.14112" lon="0.46949">
        <ele>108</ele>
        <time>2022-09-15T08:44:33.198Z</time>
      </trkpt>
      <trkpt lat="44.14113" lon="0.46951">
        <ele>109</ele>
        <time>2022-09-15T08:44:34.198Z</time>
      </trkpt>
      <trkpt lat="44.14114" lon="0.46952">
        <ele>109</ele>
        <time>2022-09-15T08:44:35.198Z</time>
      </trkpt>
      <trkpt lat="44.14115" lon="0.46954">
        <ele>108</ele>
        <time>2022-09-15T08:44:36.198Z</time>
      </trkpt>
      <trkpt lat="44.14115" lon="0.46955">
        <ele>108</ele>
        <time>2022-09-15T08:44:37.198Z</time>
      </trkpt>
      <trkpt lat="44.14116" lon="0.46956">
        <ele>108</ele>
        <time>2022-09-15T08:44:38.198Z</time>
      </trkpt>
      <trkpt lat="44.14117" lon="0.46957">
        <ele>109</ele>
        <time>2022-09-15T08:44:39.198Z</time>
      </trkpt>
      <trkpt lat="44.14117" lon="0.46958">
        <ele>109</ele>
        <time>2022-09-15T08:44:40.198Z</time>
      </trkpt>
      <trkpt lat="44.14118" lon="0.4696">
        <ele>109</ele>
        <time>2022-09-15T08:44:41.198Z</time>
      </trkpt>
      <trkpt lat="44.14119" lon="0.46961">
        <ele>109</ele>
        <time>2022-09-15T08:44:42.198Z</time>
      </trkpt>
      <trkpt lat="44.1412" lon="0.46962">
        <ele>109</ele>
        <time>2022-09-15T08:44:43.198Z</time>
      </trkpt>
      <trkpt lat="44.14121" lon="0.46964">
        <ele>109</ele>
        <time>2022-09-15T08:44:44.198Z</time>
      </trkpt>
      <trkpt lat="44.14121" lon="0.46965">
        <ele>109</ele>
        <time>2022-09-15T08:44:45.198Z</time>
      </trkpt>
      <trkpt lat="44.14122" lon="0.46966">
        <ele>109</ele>
        <time>2022-09-15T08:44:46.198Z</time>
      </trkpt>
      <trkpt lat="44.14123" lon="0.46968">
        <ele>109</ele>
        <time>2022-09-15T08:44:47.198Z</time>
      </trkpt>
      <trkpt lat="44.14123" lon="0.46969">
        <ele>109</ele>
        <time>2022-09-15T08:44:48.198Z</time>
      </trkpt>
      <trkpt lat="44.14124" lon="0.46971">
        <ele>109</ele>
        <time>2022-09-15T08:44:49.198Z</time>
      </trkpt>
      <trkpt lat="44.14124" lon="0.46972">
        <ele>109</ele>
        <time>2022-09-15T08:44:50.198Z</time>
      </trkpt>
      <trkpt lat="44.14125" lon="0.46974">
        <ele>108</ele>
        <time>2022-09-15T08:44:51.198Z</time>
      </trkpt>
      <trkpt lat="44.14126" lon="0.46975">
        <ele>108</ele>
        <time>2022-09-15T08:44:52.198Z</time>
      </trkpt>
      <trkpt lat="44.14126" lon="0.46976">
        <ele>108</ele>
        <time>2022-09-15T08:44:53.198Z</time>
      </trkpt>
      <trkpt lat="44.14127" lon="0.46978">
        <ele>108</ele>
        <time>2022-09-15T08:44:54.198Z</time>
      </trkpt>
      <trkpt lat="44.14128" lon="0.46979">
        <ele>109</ele>
        <time>2022-09-15T08:44:55.198Z</time>
      </trkpt>
      <trkpt lat="44.14129" lon="0.46981">
        <ele>109</ele>
        <time>2022-09-15T08:44:56.198Z</time>
      </trkpt>
      <trkpt lat="44.14129" lon="0.46982">
        <ele>109</ele>
        <time>2022-09-15T08:44:57.198Z</time>
      </trkpt>
      <trkpt lat="44.1413" lon="0.46984">
        <ele>109</ele>
        <time>2022-09-15T08:44:58.198Z</time>
      </trkpt>
      <trkpt lat="44.14131" lon="0.46985">
        <ele>109</ele>
        <time>2022-09-15T08:44:59.198Z</time>
      </trkpt>
      <trkpt lat="44.14131" lon="0.46986">
        <ele>109</ele>
        <time>2022-09-15T08:45:00.198Z</time>
      </trkpt>
      <trkpt lat="44.14131" lon="0.46988">
        <ele>109</ele>
        <time>2022-09-15T08:45:01.198Z</time>
      </trkpt>
      <trkpt lat="44.14132" lon="0.46989">
        <ele>109</ele>
        <time>2022-09-15T08:45:02.198Z</time>
      </trkpt>
      <trkpt lat="44.14132" lon="0.46991">
        <ele>109</ele>
        <time>2022-09-15T08:45:03.198Z</time>
      </trkpt>
      <trkpt lat="44.14133" lon="0.46993">
        <ele>109</ele>
        <time>2022-09-15T08:45:04.198Z</time>
      </trkpt>
      <trkpt lat="44.14134" lon="0.46994">
        <ele>110</ele>
        <time>2022-09-15T08:45:05.198Z</time>
      </trkpt>
      <trkpt lat="44.14134" lon="0.46996">
        <ele>110</ele>
        <time>2022-09-15T08:45:06.198Z</time>
      </trkpt>
      <trkpt lat="44.14135" lon="0.46997">
        <ele>110</ele>
        <time>2022-09-15T08:45:07.198Z</time>
      </trkpt>
      <trkpt lat="44.14135" lon="0.46998">
        <ele>111</ele>
        <time>2022-09-15T08:45:08.198Z</time>
      </trkpt>
      <trkpt lat="44.14136" lon="0.47">
        <ele>111</ele>
        <time>2022-09-15T08:45:09.198Z</time>
      </trkpt>
      <trkpt lat="44.14136" lon="0.47002">
        <ele>111</ele>
        <time>2022-09-15T08:45:10.198Z</time>
      </trkpt>
      <trkpt lat="44.14136" lon="0.47003">
        <ele>111</ele>
        <time>2022-09-15T08:45:11.198Z</time>
      </trkpt>
      <trkpt lat="44.14137" lon="0.47005">
        <ele>111</ele>
        <time>2022-09-15T08:45:12.198Z</time>
      </trkpt>
      <trkpt lat="44.14137" lon="0.47006">
        <ele>111</ele>
        <time>2022-09-15T08:45:13.198Z</time>
      </trkpt>
      <trkpt lat="44.14138" lon="0.47008">
        <ele>111</ele>
        <time>2022-09-15T08:45:14.198Z</time>
      </trkpt>
      <trkpt lat="44.14138" lon="0.47009">
        <ele>111</ele>
        <time>2022-09-15T08:45:15.198Z</time>
      </trkpt>
      <trkpt lat="44.14138" lon="0.47011">
        <ele>111</ele>
        <time>2022-09-15T08:45:16.198Z</time>
      </trkpt>
      <trkpt lat="44.14139" lon="0.47013">
        <ele>111</ele>
        <time>2022-09-15T08:45:17.198Z</time>
      </trkpt>
      <trkpt lat="44.14139" lon="0.47014">
        <ele>112</ele>
        <time>2022-09-15T08:45:18.198Z</time>
      </trkpt>
      <trkpt lat="44.1414" lon="0.47016">
        <ele>112</ele>
        <time>2022-09-15T08:45:19.198Z</time>
      </trkpt>
      <trkpt lat="44.1414" lon="0.47017">
        <ele>111</ele>
        <time>2022-09-15T08:45:20.198Z</time>
      </trkpt>
      <trkpt lat="44.1414" lon="0.47018">
        <ele>112</ele>
        <time>2022-09-15T08:45:21.198Z</time>
      </trkpt>
      <trkpt lat="44.14141" lon="0.4702">
        <ele>112</ele>
        <time>2022-09-15T08:45:22.198Z</time>
      </trkpt>
      <trkpt lat="44.14141" lon="0.47021">
        <ele>112</ele>
        <time>2022-09-15T08:45:23.198Z</time>
      </trkpt>
      <trkpt lat="44.14142" lon="0.47023">
        <ele>112</ele>
        <time>2022-09-15T08:45:24.198Z</time>
      </trkpt>
      <trkpt lat="44.14142" lon="0.47024">
        <ele>112</ele>
        <time>2022-09-15T08:45:25.198Z</time>
      </trkpt>
      <trkpt lat="44.14143" lon="0.47026">
        <ele>112</ele>
        <time>2022-09-15T08:45:26.198Z</time>
      </trkpt>
      <trkpt lat="44.14143" lon="0.47027">
        <ele>113</ele>
        <time>2022-09-15T08:45:27.198Z</time>
      </trkpt>
      <trkpt lat="44.14144" lon="0.47028">
        <ele>113</ele>
        <time>2022-09-15T08:45:28.198Z</time>
      </trkpt>
      <trkpt lat="44.14144" lon="0.4703">
        <ele>113</ele>
        <time>2022-09-15T08:45:29.198Z</time>
      </trkpt>
      <trkpt lat="44.14145" lon="0.47031">
        <ele>113</ele>
        <time>2022-09-15T08:45:30.198Z</time>
      </trkpt>
      <trkpt lat="44.14145" lon="0.47033">
        <ele>112</ele>
        <time>2022-09-15T08:45:31.198Z</time>
      </trkpt>
      <trkpt lat="44.14146" lon="0.47035">
        <ele>112</ele>
        <time>2022-09-15T08:45:32.198Z</time>
      </trkpt>
      <trkpt lat="44.14146" lon="0.47036">
        <ele>112</ele>
        <time>2022-09-15T08:45:33.198Z</time>
      </trkpt>
      <trkpt lat="44.14146" lon="0.47037">
        <ele>112</ele>
        <time>2022-09-15T08:45:34.198Z</time>
      </trkpt>
      <trkpt lat="44.14147" lon="0.47039">
        <ele>112</ele>
        <time>2022-09-15T08:45:35.198Z</time>
      </trkpt>
      <trkpt lat="44.14147" lon="0.47041">
        <ele>112</ele>
        <time>2022-09-15T08:45:36.198Z</time>
      </trkpt>
      <trkpt lat="44.14148" lon="0.47042">
        <ele>111</ele>
        <time>2022-09-15T08:45:37.198Z</time>
      </trkpt>
      <trkpt lat="44.14148" lon="0.47044">
        <ele>111</ele>
        <time>2022-09-15T08:45:38.198Z</time>
      </trkpt>
      <trkpt lat="44.14149" lon="0.47045">
        <ele>111</ele>
        <time>2022-09-15T08:45:39.198Z</time>
      </trkpt>
      <trkpt lat="44.14149" lon="0.47047">
        <ele>111</ele>
        <time>2022-09-15T08:45:40.198Z</time>
      </trkpt>
      <trkpt lat="44.14149" lon="0.47048">
        <ele>111</ele>
        <time>2022-09-15T08:45:41.198Z</time>
      </trkpt>
      <trkpt lat="44.1415" lon="0.4705">
        <ele>111</ele>
        <time>2022-09-15T08:45:42.198Z</time>
      </trkpt>
      <trkpt lat="44.1415" lon="0.47051">
        <ele>112</ele>
        <time>2022-09-15T08:45:43.198Z</time>
      </trkpt>
      <trkpt lat="44.14151" lon="0.47052">
        <ele>112</ele>
        <time>2022-09-15T08:45:44.198Z</time>
      </trkpt>
      <trkpt lat="44.14151" lon="0.47054">
        <ele>112</ele>
        <time>2022-09-15T08:45:45.198Z</time>
      </trkpt>
      <trkpt lat="44.14152" lon="0.47055">
        <ele>112</ele>
        <time>2022-09-15T08:45:46.198Z</time>
      </trkpt>
      <trkpt lat="44.14152" lon="0.47056">
        <ele>111</ele>
        <time>2022-09-15T08:45:47.198Z</time>
      </trkpt>
      <trkpt lat="44.14153" lon="0.47058">
        <ele>112</ele>
        <time>2022-09-15T08:45:48.198Z</time>
      </trkpt>
      <trkpt lat="44.14153" lon="0.47059">
        <ele>112</ele>
        <time>2022-09-15T08:45:49.198Z</time>
      </trkpt>
      <trkpt lat="44.14154" lon="0.47061">
        <ele>112</ele>
        <time>2022-09-15T08:45:50.198Z</time>
      </trkpt>
      <trkpt lat="44.14154" lon="0.47062">
        <ele>112</ele>
        <time>2022-09-15T08:45:51.198Z</time>
      </trkpt>
      <trkpt lat="44.14154" lon="0.47063">
        <ele>112</ele>
        <time>2022-09-15T08:45:52.198Z</time>
      </trkpt>
      <trkpt lat="44.14155" lon="0.47064">
        <ele>112</ele>
        <time>2022-09-15T08:45:53.198Z</time>
      </trkpt>
      <trkpt lat="44.14155" lon="0.47066">
        <ele>112</ele>
        <time>2022-09-15T08:45:54.198Z</time>
      </trkpt>
      <trkpt lat="44.14156" lon="0.47067">
        <ele>112</ele>
        <time>2022-09-15T08:45:55.198Z</time>
      </trkpt>
      <trkpt lat="44.14156" lon="0.47068">
        <ele>112</ele>
        <time>2022-09-15T08:45:56.198Z</time>
      </trkpt>
      <trkpt lat="44.14157" lon="0.4707">
        <ele>112</ele>
        <time>2022-09-15T08:45:57.198Z</time>
      </trkpt>
      <trkpt lat="44.14157" lon="0.47071">
        <ele>113</ele>
        <time>2022-09-15T08:45:58.198Z</time>
      </trkpt>
      <trkpt lat="44.14158" lon="0.47072">
        <ele>113</ele>
        <time>2022-09-15T08:45:59.198Z</time>
      </trkpt>
      <trkpt lat="44.14158" lon="0.47074">
        <ele>113</ele>
        <time>2022-09-15T08:46:00.198Z</time>
      </trkpt>
      <trkpt lat="44.14159" lon="0.47075">
        <ele>113</ele>
        <time>2022-09-15T08:46:01.198Z</time>
      </trkpt>
      <trkpt lat="44.14159" lon="0.47076">
        <ele>113</ele>
        <time>2022-09-15T08:46:02.198Z</time>
      </trkpt>
      <trkpt lat="44.1416" lon="0.47077">
        <ele>113</ele>
        <time>2022-09-15T08:46:03.198Z</time>
      </trkpt>
      <trkpt lat="44.1416" lon="0.47078">
        <ele>113</ele>
        <time>2022-09-15T08:46:04.198Z</time>
      </trkpt>
      <trkpt lat="44.14161" lon="0.4708">
        <ele>113</ele>
        <time>2022-09-15T08:46:05.198Z</time>
      </trkpt>
      <trkpt lat="44.14161" lon="0.47081">
        <ele>113</ele>
        <time>2022-09-15T08:46:06.198Z</time>
      </trkpt>
      <trkpt lat="44.14162" lon="0.47082">
        <ele>113</ele>
        <time>2022-09-15T08:46:07.198Z</time>
      </trkpt>
      <trkpt lat="44.14163" lon="0.47083">
        <ele>114</ele>
        <time>2022-09-15T08:46:08.198Z</time>
      </trkpt>
      <trkpt lat="44.14163" lon="0.47084">
        <ele>113</ele>
        <time>2022-09-15T08:46:09.198Z</time>
      </trkpt>
      <trkpt lat="44.14163" lon="0.47085">
        <ele>114</ele>
        <time>2022-09-15T08:46:10.198Z</time>
      </trkpt>
      <trkpt lat="44.14163" lon="0.47086">
        <ele>114</ele>
        <time>2022-09-15T08:46:11.198Z</time>
      </trkpt>
      <trkpt lat="44.14163" lon="0.47086">
        <ele>114</ele>
        <time>2022-09-15T08:46:12.198Z</time>
      </trkpt>
      <trkpt lat="44.14164" lon="0.47087">
        <ele>114</ele>
        <time>2022-09-15T08:46:13.198Z</time>
      </trkpt>
      <trkpt lat="44.14165" lon="0.47088">
        <ele>114</ele>
        <time>2022-09-15T08:46:14.198Z</time>
      </trkpt>
      <trkpt lat="44.14165" lon="0.47089">
        <ele>114</ele>
        <time>2022-09-15T08:46:15.198Z</time>
      </trkpt>
      <trkpt lat="44.14166" lon="0.4709">
        <ele>114</ele>
        <time>2022-09-15T08:46:16.198Z</time>
      </trkpt>
      <trkpt lat="44.14166" lon="0.47092">
        <ele>114</ele>
        <time>2022-09-15T08:46:17.198Z</time>
      </trkpt>
      <trkpt lat="44.14167" lon="0.47093">
        <ele>114</ele>
        <time>2022-09-15T08:46:18.198Z</time>
      </trkpt>
      <trkpt lat="44.14167" lon="0.47094">
        <ele>114</ele>
        <time>2022-09-15T08:46:19.198Z</time>
      </trkpt>
      <trkpt lat="44.14168" lon="0.47095">
        <ele>114</ele>
        <time>2022-09-15T08:46:20.198Z</time>
      </trkpt>
      <trkpt lat="44.14169" lon="0.47096">
        <ele>114</ele>
        <time>2022-09-15T08:46:21.198Z</time>
      </trkpt>
      <trkpt lat="44.14169" lon="0.47098">
        <ele>115</ele>
        <time>2022-09-15T08:46:22.198Z</time>
      </trkpt>
      <trkpt lat="44.1417" lon="0.47099">
        <ele>114</ele>
        <time>2022-09-15T08:46:23.198Z</time>
      </trkpt>
      <trkpt lat="44.1417" lon="0.47101">
        <ele>114</ele>
        <time>2022-09-15T08:46:24.198Z</time>
      </trkpt>
      <trkpt lat="44.1417" lon="0.47102">
        <ele>114</ele>
        <time>2022-09-15T08:46:25.198Z</time>
      </trkpt>
      <trkpt lat="44.14171" lon="0.47103">
        <ele>114</ele>
        <time>2022-09-15T08:46:26.198Z</time>
      </trkpt>
      <trkpt lat="44.14171" lon="0.47105">
        <ele>114</ele>
        <time>2022-09-15T08:46:27.198Z</time>
      </trkpt>
      <trkpt lat="44.14172" lon="0.47106">
        <ele>114</ele>
        <time>2022-09-15T08:46:28.198Z</time>
      </trkpt>
      <trkpt lat="44.14173" lon="0.47108">
        <ele>114</ele>
        <time>2022-09-15T08:46:29.198Z</time>
      </trkpt>
      <trkpt lat="44.14173" lon="0.4711">
        <ele>114</ele>
        <time>2022-09-15T08:46:30.198Z</time>
      </trkpt>
      <trkpt lat="44.14174" lon="0.47111">
        <ele>114</ele>
        <time>2022-09-15T08:46:31.198Z</time>
      </trkpt>
      <trkpt lat="44.14174" lon="0.47113">
        <ele>114</ele>
        <time>2022-09-15T08:46:32.198Z</time>
      </trkpt>
      <trkpt lat="44.14175" lon="0.47114">
        <ele>114</ele>
        <time>2022-09-15T08:46:33.198Z</time>
      </trkpt>
      <trkpt lat="44.14175" lon="0.47115">
        <ele>114</ele>
        <time>2022-09-15T08:46:34.198Z</time>
      </trkpt>
      <trkpt lat="44.14175" lon="0.47117">
        <ele>114</ele>
        <time>2022-09-15T08:46:35.198Z</time>
      </trkpt>
      <trkpt lat="44.14176" lon="0.47119">
        <ele>114</ele>
        <time>2022-09-15T08:46:36.198Z</time>
      </trkpt>
      <trkpt lat="44.14176" lon="0.4712">
        <ele>114</ele>
        <time>2022-09-15T08:46:37.198Z</time>
      </trkpt>
      <trkpt lat="44.14176" lon="0.47122">
        <ele>114</ele>
        <time>2022-09-15T08:46:38.198Z</time>
      </trkpt>
      <trkpt lat="44.14177" lon="0.47123">
        <ele>114</ele>
        <time>2022-09-15T08:46:39.198Z</time>
      </trkpt>
      <trkpt lat="44.14177" lon="0.47124">
        <ele>114</ele>
        <time>2022-09-15T08:46:40.198Z</time>
      </trkpt>
      <trkpt lat="44.14177" lon="0.47126">
        <ele>114</ele>
        <time>2022-09-15T08:46:41.198Z</time>
      </trkpt>
      <trkpt lat="44.14177" lon="0.47128">
        <ele>114</ele>
        <time>2022-09-15T08:46:42.198Z</time>
      </trkpt>
      <trkpt lat="44.14177" lon="0.47129">
        <ele>114</ele>
        <time>2022-09-15T08:46:43.198Z</time>
      </trkpt>
      <trkpt lat="44.14178" lon="0.47131">
        <ele>114</ele>
        <time>2022-09-15T08:46:44.198Z</time>
      </trkpt>
      <trkpt lat="44.14178" lon="0.47133">
        <ele>115</ele>
        <time>2022-09-15T08:46:45.198Z</time>
      </trkpt>
      <trkpt lat="44.14178" lon="0.47134">
        <ele>115</ele>
        <time>2022-09-15T08:46:46.198Z</time>
      </trkpt>
      <trkpt lat="44.14179" lon="0.47136">
        <ele>115</ele>
        <time>2022-09-15T08:46:47.198Z</time>
      </trkpt>
      <trkpt lat="44.14179" lon="0.47137">
        <ele>115</ele>
        <time>2022-09-15T08:46:48.198Z</time>
      </trkpt>
      <trkpt lat="44.1418" lon="0.47138">
        <ele>115</ele>
        <time>2022-09-15T08:46:49.198Z</time>
      </trkpt>
      <trkpt lat="44.1418" lon="0.4714">
        <ele>115</ele>
        <time>2022-09-15T08:46:50.198Z</time>
      </trkpt>
      <trkpt lat="44.1418" lon="0.47142">
        <ele>115</ele>
        <time>2022-09-15T08:46:51.198Z</time>
      </trkpt>
      <trkpt lat="44.14181" lon="0.47143">
        <ele>115</ele>
        <time>2022-09-15T08:46:52.198Z</time>
      </trkpt>
      <trkpt lat="44.14181" lon="0.47145">
        <ele>115</ele>
        <time>2022-09-15T08:46:53.198Z</time>
      </trkpt>
      <trkpt lat="44.14181" lon="0.47146">
        <ele>115</ele>
        <time>2022-09-15T08:46:54.198Z</time>
      </trkpt>
      <trkpt lat="44.14182" lon="0.47148">
        <ele>115</ele>
        <time>2022-09-15T08:46:55.198Z</time>
      </trkpt>
      <trkpt lat="44.14182" lon="0.47149">
        <ele>115</ele>
        <time>2022-09-15T08:46:56.198Z</time>
      </trkpt>
      <trkpt lat="44.14182" lon="0.47151">
        <ele>115</ele>
        <time>2022-09-15T08:46:57.198Z</time>
      </trkpt>
      <trkpt lat="44.14183" lon="0.47152">
        <ele>115</ele>
        <time>2022-09-15T08:46:58.198Z</time>
      </trkpt>
      <trkpt lat="44.14183" lon="0.47154">
        <ele>115</ele>
        <time>2022-09-15T08:46:59.198Z</time>
      </trkpt>
      <trkpt lat="44.14184" lon="0.47155">
        <ele>115</ele>
        <time>2022-09-15T08:47:00.198Z</time>
      </trkpt>
      <trkpt lat="44.14184" lon="0.47156">
        <ele>115</ele>
        <time>2022-09-15T08:47:01.198Z</time>
      </trkpt>
      <trkpt lat="44.14184" lon="0.47158">
        <ele>115</ele>
        <time>2022-09-15T08:47:02.198Z</time>
      </trkpt>
      <trkpt lat="44.14185" lon="0.47159">
        <ele>115</ele>
        <time>2022-09-15T08:47:03.198Z</time>
      </trkpt>
      <trkpt lat="44.14185" lon="0.47161">
        <ele>115</ele>
        <time>2022-09-15T08:47:04.198Z</time>
      </trkpt>
      <trkpt lat="44.14186" lon="0.47163">
        <ele>115</ele>
        <time>2022-09-15T08:47:05.198Z</time>
      </trkpt>
      <trkpt lat="44.14186" lon="0.47164">
        <ele>115</ele>
        <time>2022-09-15T08:47:06.198Z</time>
      </trkpt>
      <trkpt lat="44.14186" lon="0.47166">
        <ele>115</ele>
        <time>2022-09-15T08:47:07.198Z</time>
      </trkpt>
      <trkpt lat="44.14187" lon="0.47167">
        <ele>115</ele>
        <time>2022-09-15T08:47:08.198Z</time>
      </trkpt>
      <trkpt lat="44.14187" lon="0.47169">
        <ele>115</ele>
        <time>2022-09-15T08:47:09.198Z</time>
      </trkpt>
      <trkpt lat="44.14188" lon="0.4717">
        <ele>115</ele>
        <time>2022-09-15T08:47:10.198Z</time>
      </trkpt>
      <trkpt lat="44.14188" lon="0.47172">
        <ele>115</ele>
        <time>2022-09-15T08:47:11.198Z</time>
      </trkpt>
      <trkpt lat="44.14188" lon="0.47173">
        <ele>115</ele>
        <time>2022-09-15T08:47:12.198Z</time>
      </trkpt>
      <trkpt lat="44.14189" lon="0.47174">
        <ele>115</ele>
        <time>2022-09-15T08:47:13.198Z</time>
      </trkpt>
      <trkpt lat="44.14189" lon="0.47176">
        <ele>115</ele>
        <time>2022-09-15T08:47:14.198Z</time>
      </trkpt>
      <trkpt lat="44.1419" lon="0.47177">
        <ele>115</ele>
        <time>2022-09-15T08:47:15.198Z</time>
      </trkpt>
      <trkpt lat="44.1419" lon="0.47179">
        <ele>115</ele>
        <time>2022-09-15T08:47:16.198Z</time>
      </trkpt>
      <trkpt lat="44.14191" lon="0.4718">
        <ele>115</ele>
        <time>2022-09-15T08:47:17.198Z</time>
      </trkpt>
      <trkpt lat="44.14191" lon="0.47182">
        <ele>115</ele>
        <time>2022-09-15T08:47:18.198Z</time>
      </trkpt>
      <trkpt lat="44.14192" lon="0.47183">
        <ele>115</ele>
        <time>2022-09-15T08:47:19.198Z</time>
      </trkpt>
      <trkpt lat="44.14192" lon="0.47184">
        <ele>115</ele>
        <time>2022-09-15T08:47:20.198Z</time>
      </trkpt>
      <trkpt lat="44.14193" lon="0.47186">
        <ele>115</ele>
        <time>2022-09-15T08:47:21.198Z</time>
      </trkpt>
      <trkpt lat="44.14193" lon="0.47187">
        <ele>115</ele>
        <time>2022-09-15T08:47:22.198Z</time>
      </trkpt>
      <trkpt lat="44.14193" lon="0.47189">
        <ele>115</ele>
        <time>2022-09-15T08:47:23.198Z</time>
      </trkpt>
      <trkpt lat="44.14194" lon="0.4719">
        <ele>115</ele>
        <time>2022-09-15T08:47:24.198Z</time>
      </trkpt>
      <trkpt lat="44.14194" lon="0.47191">
        <ele>115</ele>
        <time>2022-09-15T08:47:25.198Z</time>
      </trkpt>
      <trkpt lat="44.14195" lon="0.47193">
        <ele>116</ele>
        <time>2022-09-15T08:47:26.198Z</time>
      </trkpt>
      <trkpt lat="44.14195" lon="0.47194">
        <ele>116</ele>
        <time>2022-09-15T08:47:27.198Z</time>
      </trkpt>
      <trkpt lat="44.14196" lon="0.47196">
        <ele>116</ele>
        <time>2022-09-15T08:47:28.198Z</time>
      </trkpt>
      <trkpt lat="44.14196" lon="0.47197">
        <ele>116</ele>
        <time>2022-09-15T08:47:29.198Z</time>
      </trkpt>
      <trkpt lat="44.14196" lon="0.47199">
        <ele>116</ele>
        <time>2022-09-15T08:47:30.198Z</time>
      </trkpt>
      <trkpt lat="44.14197" lon="0.472">
        <ele>116</ele>
        <time>2022-09-15T08:47:31.198Z</time>
      </trkpt>
      <trkpt lat="44.14197" lon="0.47201">
        <ele>116</ele>
        <time>2022-09-15T08:47:32.198Z</time>
      </trkpt>
      <trkpt lat="44.14197" lon="0.47202">
        <ele>116</ele>
        <time>2022-09-15T08:47:33.198Z</time>
      </trkpt>
      <trkpt lat="44.14198" lon="0.47203">
        <ele>116</ele>
        <time>2022-09-15T08:47:34.198Z</time>
      </trkpt>
      <trkpt lat="44.14198" lon="0.47204">
        <ele>116</ele>
        <time>2022-09-15T08:47:35.198Z</time>
      </trkpt>
      <trkpt lat="44.14198" lon="0.47205">
        <ele>116</ele>
        <time>2022-09-15T08:47:36.198Z</time>
      </trkpt>
      <trkpt lat="44.14199" lon="0.47207">
        <ele>116</ele>
        <time>2022-09-15T08:47:37.198Z</time>
      </trkpt>
      <trkpt lat="44.14199" lon="0.47208">
        <ele>116</ele>
        <time>2022-09-15T08:47:38.198Z</time>
      </trkpt>
      <trkpt lat="44.14199" lon="0.47209">
        <ele>116</ele>
        <time>2022-09-15T08:47:39.198Z</time>
      </trkpt>
      <trkpt lat="44.14199" lon="0.4721">
        <ele>116</ele>
        <time>2022-09-15T08:47:40.198Z</time>
      </trkpt>
      <trkpt lat="44.14199" lon="0.47212">
        <ele>116</ele>
        <time>2022-09-15T08:47:41.198Z</time>
      </trkpt>
      <trkpt lat="44.142" lon="0.47213">
        <ele>116</ele>
        <time>2022-09-15T08:47:42.198Z</time>
      </trkpt>
      <trkpt lat="44.142" lon="0.47214">
        <ele>116</ele>
        <time>2022-09-15T08:47:43.198Z</time>
      </trkpt>
      <trkpt lat="44.142" lon="0.47216">
        <ele>116</ele>
        <time>2022-09-15T08:47:44.198Z</time>
      </trkpt>
      <trkpt lat="44.142" lon="0.47217">
        <ele>116</ele>
        <time>2022-09-15T08:47:45.198Z</time>
      </trkpt>
      <trkpt lat="44.142" lon="0.47219">
        <ele>116</ele>
        <time>2022-09-15T08:47:46.198Z</time>
      </trkpt>
      <trkpt lat="44.14201" lon="0.4722">
        <ele>116</ele>
        <time>2022-09-15T08:47:47.198Z</time>
      </trkpt>
      <trkpt lat="44.14201" lon="0.47222">
        <ele>116</ele>
        <time>2022-09-15T08:47:48.198Z</time>
      </trkpt>
      <trkpt lat="44.14201" lon="0.47223">
        <ele>116</ele>
        <time>2022-09-15T08:47:49.198Z</time>
      </trkpt>
      <trkpt lat="44.14201" lon="0.47225">
        <ele>116</ele>
        <time>2022-09-15T08:47:50.198Z</time>
      </trkpt>
      <trkpt lat="44.14201" lon="0.47226">
        <ele>115</ele>
        <time>2022-09-15T08:47:51.198Z</time>
      </trkpt>
      <trkpt lat="44.14202" lon="0.47228">
        <ele>115</ele>
        <time>2022-09-15T08:47:52.198Z</time>
      </trkpt>
      <trkpt lat="44.14202" lon="0.47229">
        <ele>115</ele>
        <time>2022-09-15T08:47:53.198Z</time>
      </trkpt>
      <trkpt lat="44.14202" lon="0.47231">
        <ele>115</ele>
        <time>2022-09-15T08:47:54.198Z</time>
      </trkpt>
      <trkpt lat="44.14202" lon="0.47232">
        <ele>115</ele>
        <time>2022-09-15T08:47:55.198Z</time>
      </trkpt>
      <trkpt lat="44.14202" lon="0.47233">
        <ele>115</ele>
        <time>2022-09-15T08:47:56.198Z</time>
      </trkpt>
      <trkpt lat="44.14203" lon="0.47235">
        <ele>115</ele>
        <time>2022-09-15T08:47:57.198Z</time>
      </trkpt>
      <trkpt lat="44.14203" lon="0.47236">
        <ele>115</ele>
        <time>2022-09-15T08:47:58.198Z</time>
      </trkpt>
      <trkpt lat="44.14203" lon="0.47237">
        <ele>115</ele>
        <time>2022-09-15T08:47:59.198Z</time>
      </trkpt>
      <trkpt lat="44.14204" lon="0.47239">
        <ele>115</ele>
        <time>2022-09-15T08:48:00.198Z</time>
      </trkpt>
      <trkpt lat="44.14204" lon="0.4724">
        <ele>114</ele>
        <time>2022-09-15T08:48:01.198Z</time>
      </trkpt>
      <trkpt lat="44.14204" lon="0.47242">
        <ele>114</ele>
        <time>2022-09-15T08:48:02.198Z</time>
      </trkpt>
      <trkpt lat="44.14204" lon="0.47243">
        <ele>114</ele>
        <time>2022-09-15T08:48:03.198Z</time>
      </trkpt>
      <trkpt lat="44.14204" lon="0.47245">
        <ele>114</ele>
        <time>2022-09-15T08:48:04.198Z</time>
      </trkpt>
      <trkpt lat="44.14204" lon="0.47247">
        <ele>114</ele>
        <time>2022-09-15T08:48:05.198Z</time>
      </trkpt>
      <trkpt lat="44.14205" lon="0.47248">
        <ele>114</ele>
        <time>2022-09-15T08:48:06.198Z</time>
      </trkpt>
      <trkpt lat="44.14205" lon="0.4725">
        <ele>114</ele>
        <time>2022-09-15T08:48:07.198Z</time>
      </trkpt>
      <trkpt lat="44.14205" lon="0.47251">
        <ele>114</ele>
        <time>2022-09-15T08:48:08.198Z</time>
      </trkpt>
      <trkpt lat="44.14206" lon="0.47252">
        <ele>114</ele>
        <time>2022-09-15T08:48:09.198Z</time>
      </trkpt>
      <trkpt lat="44.14206" lon="0.47254">
        <ele>113</ele>
        <time>2022-09-15T08:48:10.198Z</time>
      </trkpt>
      <trkpt lat="44.14207" lon="0.47255">
        <ele>113</ele>
        <time>2022-09-15T08:48:11.198Z</time>
      </trkpt>
      <trkpt lat="44.14207" lon="0.47256">
        <ele>113</ele>
        <time>2022-09-15T08:48:12.198Z</time>
      </trkpt>
      <trkpt lat="44.14207" lon="0.47257">
        <ele>113</ele>
        <time>2022-09-15T08:48:13.198Z</time>
      </trkpt>
      <trkpt lat="44.14207" lon="0.47257">
        <ele>113</ele>
        <time>2022-09-15T08:48:14.198Z</time>
      </trkpt>
      <trkpt lat="44.14207" lon="0.47258">
        <ele>113</ele>
        <time>2022-09-15T08:48:15.198Z</time>
      </trkpt>
      <trkpt lat="44.14207" lon="0.47258">
        <ele>113</ele>
        <time>2022-09-15T08:48:16.198Z</time>
      </trkpt>
      <trkpt lat="44.14208" lon="0.47259">
        <ele>114</ele>
        <time>2022-09-15T08:48:17.198Z</time>
      </trkpt>
      <trkpt lat="44.14208" lon="0.4726">
        <ele>113</ele>
        <time>2022-09-15T08:48:18.198Z</time>
      </trkpt>
      <trkpt lat="44.14209" lon="0.47261">
        <ele>113</ele>
        <time>2022-09-15T08:48:19.198Z</time>
      </trkpt>
      <trkpt lat="44.1421" lon="0.47263">
        <ele>113</ele>
        <time>2022-09-15T08:48:20.198Z</time>
      </trkpt>
      <trkpt lat="44.1421" lon="0.47264">
        <ele>113</ele>
        <time>2022-09-15T08:48:21.198Z</time>
      </trkpt>
      <trkpt lat="44.1421" lon="0.47265">
        <ele>113</ele>
        <time>2022-09-15T08:48:22.198Z</time>
      </trkpt>
      <trkpt lat="44.14211" lon="0.47266">
        <ele>113</ele>
        <time>2022-09-15T08:48:23.198Z</time>
      </trkpt>
      <trkpt lat="44.14211" lon="0.47267">
        <ele>113</ele>
        <time>2022-09-15T08:48:24.198Z</time>
      </trkpt>
      <trkpt lat="44.14211" lon="0.47268">
        <ele>113</ele>
        <time>2022-09-15T08:48:25.198Z</time>
      </trkpt>
      <trkpt lat="44.14212" lon="0.47269">
        <ele>113</ele>
        <time>2022-09-15T08:48:26.198Z</time>
      </trkpt>
      <trkpt lat="44.14212" lon="0.4727">
        <ele>113</ele>
        <time>2022-09-15T08:48:27.198Z</time>
      </trkpt>
      <trkpt lat="44.14212" lon="0.47271">
        <ele>113</ele>
        <time>2022-09-15T08:48:28.198Z</time>
      </trkpt>
      <trkpt lat="44.14212" lon="0.47273">
        <ele>112</ele>
        <time>2022-09-15T08:48:29.198Z</time>
      </trkpt>
      <trkpt lat="44.14212" lon="0.47274">
        <ele>112</ele>
        <time>2022-09-15T08:48:30.198Z</time>
      </trkpt>
      <trkpt lat="44.14212" lon="0.47275">
        <ele>112</ele>
        <time>2022-09-15T08:48:31.198Z</time>
      </trkpt>
      <trkpt lat="44.14212" lon="0.47276">
        <ele>113</ele>
        <time>2022-09-15T08:48:32.198Z</time>
      </trkpt>
      <trkpt lat="44.14212" lon="0.47277">
        <ele>113</ele>
        <time>2022-09-15T08:48:33.198Z</time>
      </trkpt>
      <trkpt lat="44.14212" lon="0.47278">
        <ele>113</ele>
        <time>2022-09-15T08:48:34.198Z</time>
      </trkpt>
      <trkpt lat="44.14212" lon="0.47279">
        <ele>113</ele>
        <time>2022-09-15T08:48:35.198Z</time>
      </trkpt>
      <trkpt lat="44.14212" lon="0.47279">
        <ele>113</ele>
        <time>2022-09-15T08:48:36.198Z</time>
      </trkpt>
      <trkpt lat="44.14212" lon="0.47279">
        <ele>113</ele>
        <time>2022-09-15T08:48:37.198Z</time>
      </trkpt>
      <trkpt lat="44.14212" lon="0.47279">
        <ele>113</ele>
        <time>2022-09-15T08:48:38.198Z</time>
      </trkpt>
      <trkpt lat="44.14212" lon="0.47278">
        <ele>113</ele>
        <time>2022-09-15T08:48:39.198Z</time>
      </trkpt>
      <trkpt lat="44.14213" lon="0.47276">
        <ele>112</ele>
        <time>2022-09-15T08:48:58.206Z</time>
      </trkpt>
      <trkpt lat="44.14213" lon="0.47275">
        <ele>112</ele>
        <time>2022-09-15T08:48:59.206Z</time>
      </trkpt>
      <trkpt lat="44.14214" lon="0.47275">
        <ele>112</ele>
        <time>2022-09-15T08:49:00.206Z</time>
      </trkpt>
      <trkpt lat="44.14214" lon="0.47275">
        <ele>112</ele>
        <time>2022-09-15T08:49:01.206Z</time>
      </trkpt>
      <trkpt lat="44.14215" lon="0.47276">
        <ele>113</ele>
        <time>2022-09-15T08:49:02.206Z</time>
      </trkpt>
      <trkpt lat="44.14214" lon="0.47276">
        <ele>113</ele>
        <time>2022-09-15T08:49:03.206Z</time>
      </trkpt>
      <trkpt lat="44.14214" lon="0.47276">
        <ele>113</ele>
        <time>2022-09-15T08:49:04.206Z</time>
      </trkpt>
      <trkpt lat="44.14214" lon="0.47276">
        <ele>113</ele>
        <time>2022-09-15T08:49:05.206Z</time>
      </trkpt>
      <trkpt lat="44.14215" lon="0.47276">
        <ele>113</ele>
        <time>2022-09-15T08:49:06.206Z</time>
      </trkpt>
      <trkpt lat="44.14215" lon="0.47276">
        <ele>113</ele>
        <time>2022-09-15T08:49:07.206Z</time>
      </trkpt>
      <trkpt lat="44.14215" lon="0.47276">
        <ele>113</ele>
        <time>2022-09-15T08:49:08.206Z</time>
      </trkpt>
      <trkpt lat="44.14215" lon="0.47276">
        <ele>113</ele>
        <time>2022-09-15T08:49:09.206Z</time>
      </trkpt>
      <trkpt lat="44.14215" lon="0.47276">
        <ele>113</ele>
        <time>2022-09-15T08:49:10.206Z</time>
      </trkpt>
      <trkpt lat="44.14216" lon="0.47277">
        <ele>112</ele>
        <time>2022-09-15T08:49:11.206Z</time>
      </trkpt>
      <trkpt lat="44.14216" lon="0.47277">
        <ele>113</ele>
        <time>2022-09-15T08:49:12.206Z</time>
      </trkpt>
      <trkpt lat="44.14216" lon="0.47278">
        <ele>112</ele>
        <time>2022-09-15T08:49:13.206Z</time>
      </trkpt>
      <trkpt lat="44.14217" lon="0.47278">
        <ele>112</ele>
        <time>2022-09-15T08:49:14.206Z</time>
      </trkpt>
      <trkpt lat="44.14217" lon="0.47279">
        <ele>112</ele>
        <time>2022-09-15T08:49:15.206Z</time>
      </trkpt>
      <trkpt lat="44.14218" lon="0.4728">
        <ele>112</ele>
        <time>2022-09-15T08:49:16.206Z</time>
      </trkpt>
      <trkpt lat="44.14219" lon="0.4728">
        <ele>112</ele>
        <time>2022-09-15T08:49:17.206Z</time>
      </trkpt>
      <trkpt lat="44.14219" lon="0.47281">
        <ele>113</ele>
        <time>2022-09-15T08:49:18.206Z</time>
      </trkpt>
      <trkpt lat="44.1422" lon="0.47282">
        <ele>112</ele>
        <time>2022-09-15T08:49:19.206Z</time>
      </trkpt>
      <trkpt lat="44.14221" lon="0.47284">
        <ele>112</ele>
        <time>2022-09-15T08:49:20.206Z</time>
      </trkpt>
      <trkpt lat="44.14221" lon="0.47285">
        <ele>112</ele>
        <time>2022-09-15T08:49:21.206Z</time>
      </trkpt>
      <trkpt lat="44.14221" lon="0.47286">
        <ele>113</ele>
        <time>2022-09-15T08:49:22.206Z</time>
      </trkpt>
      <trkpt lat="44.14221" lon="0.47286">
        <ele>113</ele>
        <time>2022-09-15T08:49:23.206Z</time>
      </trkpt>
      <trkpt lat="44.14221" lon="0.47286">
        <ele>113</ele>
        <time>2022-09-15T08:49:24.206Z</time>
      </trkpt>
      <trkpt lat="44.14221" lon="0.47286">
        <ele>113</ele>
        <time>2022-09-15T08:49:25.206Z</time>
      </trkpt>
      <trkpt lat="44.14221" lon="0.47286">
        <ele>112</ele>
        <time>2022-09-15T08:49:26.206Z</time>
      </trkpt>
      <trkpt lat="44.1422" lon="0.47285">
        <ele>112</ele>
        <time>2022-09-15T08:49:54.238Z</time>
      </trkpt>
      <trkpt lat="44.1422" lon="0.47284">
        <ele>112</ele>
        <time>2022-09-15T08:49:55.238Z</time>
      </trkpt>
      <trkpt lat="44.14219" lon="0.47283">
        <ele>112</ele>
        <time>2022-09-15T08:49:56.238Z</time>
      </trkpt>
      <trkpt lat="44.14219" lon="0.47282">
        <ele>112</ele>
        <time>2022-09-15T08:49:57.238Z</time>
      </trkpt>
      <trkpt lat="44.14218" lon="0.47282">
        <ele>113</ele>
        <time>2022-09-15T08:49:58.238Z</time>
      </trkpt>
      <trkpt lat="44.14218" lon="0.47282">
        <ele>113</ele>
        <time>2022-09-15T08:49:59.238Z</time>
      </trkpt>
      <trkpt lat="44.14217" lon="0.47281">
        <ele>113</ele>
        <time>2022-09-15T08:50:00.238Z</time>
      </trkpt>
      <trkpt lat="44.14217" lon="0.47281">
        <ele>113</ele>
        <time>2022-09-15T08:50:01.238Z</time>
      </trkpt>
      <trkpt lat="44.14217" lon="0.47281">
        <ele>113</ele>
        <time>2022-09-15T08:50:02.238Z</time>
      </trkpt>
      <trkpt lat="44.14217" lon="0.47281">
        <ele>113</ele>
        <time>2022-09-15T08:50:03.238Z</time>
      </trkpt>
      <trkpt lat="44.14217" lon="0.47281">
        <ele>113</ele>
        <time>2022-09-15T08:50:04.238Z</time>
      </trkpt>
      <trkpt lat="44.14217" lon="0.47281">
        <ele>113</ele>
        <time>2022-09-15T08:50:05.238Z</time>
      </trkpt>
      <trkpt lat="44.14217" lon="0.47281">
        <ele>113</ele>
        <time>2022-09-15T08:50:06.238Z</time>
      </trkpt>
      <trkpt lat="44.14217" lon="0.47281">
        <ele>112</ele>
        <time>2022-09-15T08:50:28.262Z</time>
      </trkpt>
      <trkpt lat="44.14217" lon="0.47281">
        <ele>112</ele>
        <time>2022-09-15T08:50:29.262Z</time>
      </trkpt>
      <trkpt lat="44.14217" lon="0.47281">
        <ele>112</ele>
        <time>2022-09-15T08:50:30.262Z</time>
      </trkpt>
      <trkpt lat="44.14216" lon="0.47281">
        <ele>112</ele>
        <time>2022-09-15T08:50:31.262Z</time>
      </trkpt>
      <trkpt lat="44.14216" lon="0.47281">
        <ele>112</ele>
        <time>2022-09-15T08:50:32.262Z</time>
      </trkpt>
      <trkpt lat="44.14215" lon="0.47281">
        <ele>112</ele>
        <time>2022-09-15T08:50:33.262Z</time>
      </trkpt>
      <trkpt lat="44.14215" lon="0.47281">
        <ele>112</ele>
        <time>2022-09-15T08:50:34.262Z</time>
      </trkpt>
      <trkpt lat="44.14215" lon="0.47281">
        <ele>112</ele>
        <time>2022-09-15T08:50:35.262Z</time>
      </trkpt>
      <trkpt lat="44.14215" lon="0.47282">
        <ele>112</ele>
        <time>2022-09-15T08:50:36.262Z</time>
      </trkpt>
      <trkpt lat="44.14215" lon="0.47282">
        <ele>112</ele>
        <time>2022-09-15T08:50:37.262Z</time>
      </trkpt>
      <trkpt lat="44.14215" lon="0.47282">
        <ele>112</ele>
        <time>2022-09-15T08:50:38.262Z</time>
      </trkpt>
      <trkpt lat="44.14215" lon="0.47282">
        <ele>112</ele>
        <time>2022-09-15T08:50:39.262Z</time>
      </trkpt>
      <trkpt lat="44.14217" lon="0.47283">
        <ele>112</ele>
        <time>2022-09-15T08:51:05.290Z</time>
      </trkpt>
      <trkpt lat="44.14217" lon="0.47283">
        <ele>112</ele>
        <time>2022-09-15T08:51:06.290Z</time>
      </trkpt>
      <trkpt lat="44.14218" lon="0.47283">
        <ele>112</ele>
        <time>2022-09-15T08:51:07.290Z</time>
      </trkpt>
      <trkpt lat="44.14219" lon="0.47283">
        <ele>112</ele>
        <time>2022-09-15T08:51:08.290Z</time>
      </trkpt>
      <trkpt lat="44.1422" lon="0.47283">
        <ele>112</ele>
        <time>2022-09-15T08:51:09.290Z</time>
      </trkpt>
      <trkpt lat="44.1422" lon="0.47284">
        <ele>112</ele>
        <time>2022-09-15T08:51:10.290Z</time>
      </trkpt>
      <trkpt lat="44.14221" lon="0.47285">
        <ele>112</ele>
        <time>2022-09-15T08:51:11.290Z</time>
      </trkpt>
      <trkpt lat="44.14222" lon="0.47285">
        <ele>112</ele>
        <time>2022-09-15T08:51:12.290Z</time>
      </trkpt>
      <trkpt lat="44.14223" lon="0.47286">
        <ele>112</ele>
        <time>2022-09-15T08:51:13.290Z</time>
      </trkpt>
      <trkpt lat="44.14224" lon="0.47287">
        <ele>112</ele>
        <time>2022-09-15T08:51:14.290Z</time>
      </trkpt>
      <trkpt lat="44.14224" lon="0.47288">
        <ele>112</ele>
        <time>2022-09-15T08:51:15.290Z</time>
      </trkpt>
      <trkpt lat="44.14225" lon="0.47289">
        <ele>112</ele>
        <time>2022-09-15T08:51:16.290Z</time>
      </trkpt>
      <trkpt lat="44.14226" lon="0.4729">
        <ele>112</ele>
        <time>2022-09-15T08:51:17.290Z</time>
      </trkpt>
      <trkpt lat="44.14227" lon="0.47291">
        <ele>112</ele>
        <time>2022-09-15T08:51:18.290Z</time>
      </trkpt>
      <trkpt lat="44.14228" lon="0.47292">
        <ele>112</ele>
        <time>2022-09-15T08:51:19.290Z</time>
      </trkpt>
      <trkpt lat="44.14228" lon="0.47294">
        <ele>112</ele>
        <time>2022-09-15T08:51:20.290Z</time>
      </trkpt>
      <trkpt lat="44.14229" lon="0.47295">
        <ele>112</ele>
        <time>2022-09-15T08:51:21.290Z</time>
      </trkpt>
      <trkpt lat="44.1423" lon="0.47296">
        <ele>112</ele>
        <time>2022-09-15T08:51:22.290Z</time>
      </trkpt>
      <trkpt lat="44.1423" lon="0.47297">
        <ele>112</ele>
        <time>2022-09-15T08:51:23.290Z</time>
      </trkpt>
      <trkpt lat="44.14231" lon="0.47299">
        <ele>112</ele>
        <time>2022-09-15T08:51:24.290Z</time>
      </trkpt>
      <trkpt lat="44.14231" lon="0.473">
        <ele>112</ele>
        <time>2022-09-15T08:51:25.290Z</time>
      </trkpt>
      <trkpt lat="44.14232" lon="0.47301">
        <ele>112</ele>
        <time>2022-09-15T08:51:26.290Z</time>
      </trkpt>
      <trkpt lat="44.14232" lon="0.47303">
        <ele>112</ele>
        <time>2022-09-15T08:51:27.290Z</time>
      </trkpt>
      <trkpt lat="44.14233" lon="0.47304">
        <ele>112</ele>
        <time>2022-09-15T08:51:28.290Z</time>
      </trkpt>
      <trkpt lat="44.14233" lon="0.47305">
        <ele>112</ele>
        <time>2022-09-15T08:51:29.290Z</time>
      </trkpt>
      <trkpt lat="44.14233" lon="0.47307">
        <ele>112</ele>
        <time>2022-09-15T08:51:30.290Z</time>
      </trkpt>
      <trkpt lat="44.14234" lon="0.47308">
        <ele>111</ele>
        <time>2022-09-15T08:51:31.290Z</time>
      </trkpt>
      <trkpt lat="44.14234" lon="0.47309">
        <ele>111</ele>
        <time>2022-09-15T08:51:32.290Z</time>
      </trkpt>
      <trkpt lat="44.14234" lon="0.4731">
        <ele>111</ele>
        <time>2022-09-15T08:51:33.290Z</time>
      </trkpt>
      <trkpt lat="44.14234" lon="0.47312">
        <ele>111</ele>
        <time>2022-09-15T08:51:34.290Z</time>
      </trkpt>
      <trkpt lat="44.14235" lon="0.47313">
        <ele>111</ele>
        <time>2022-09-15T08:51:35.290Z</time>
      </trkpt>
      <trkpt lat="44.14235" lon="0.47314">
        <ele>111</ele>
        <time>2022-09-15T08:51:36.290Z</time>
      </trkpt>
      <trkpt lat="44.14235" lon="0.47316">
        <ele>111</ele>
        <time>2022-09-15T08:51:37.290Z</time>
      </trkpt>
      <trkpt lat="44.14235" lon="0.47317">
        <ele>111</ele>
        <time>2022-09-15T08:51:38.290Z</time>
      </trkpt>
      <trkpt lat="44.14235" lon="0.47318">
        <ele>111</ele>
        <time>2022-09-15T08:51:39.290Z</time>
      </trkpt>
      <trkpt lat="44.14235" lon="0.4732">
        <ele>111</ele>
        <time>2022-09-15T08:51:40.290Z</time>
      </trkpt>
      <trkpt lat="44.14235" lon="0.47321">
        <ele>111</ele>
        <time>2022-09-15T08:51:41.290Z</time>
      </trkpt>
      <trkpt lat="44.14235" lon="0.47322">
        <ele>111</ele>
        <time>2022-09-15T08:51:42.290Z</time>
      </trkpt>
      <trkpt lat="44.14236" lon="0.47324">
        <ele>111</ele>
        <time>2022-09-15T08:51:43.290Z</time>
      </trkpt>
      <trkpt lat="44.14236" lon="0.47325">
        <ele>111</ele>
        <time>2022-09-15T08:51:44.290Z</time>
      </trkpt>
      <trkpt lat="44.14236" lon="0.47327">
        <ele>111</ele>
        <time>2022-09-15T08:51:45.290Z</time>
      </trkpt>
      <trkpt lat="44.14236" lon="0.47328">
        <ele>111</ele>
        <time>2022-09-15T08:51:46.290Z</time>
      </trkpt>
      <trkpt lat="44.14236" lon="0.47329">
        <ele>111</ele>
        <time>2022-09-15T08:51:47.290Z</time>
      </trkpt>
      <trkpt lat="44.14237" lon="0.47331">
        <ele>111</ele>
        <time>2022-09-15T08:51:48.290Z</time>
      </trkpt>
      <trkpt lat="44.14237" lon="0.47332">
        <ele>111</ele>
        <time>2022-09-15T08:51:49.290Z</time>
      </trkpt>
      <trkpt lat="44.14237" lon="0.47333">
        <ele>111</ele>
        <time>2022-09-15T08:51:50.290Z</time>
      </trkpt>
      <trkpt lat="44.14237" lon="0.47335">
        <ele>111</ele>
        <time>2022-09-15T08:51:51.290Z</time>
      </trkpt>
      <trkpt lat="44.14238" lon="0.47336">
        <ele>111</ele>
        <time>2022-09-15T08:51:52.290Z</time>
      </trkpt>
      <trkpt lat="44.14238" lon="0.47337">
        <ele>111</ele>
        <time>2022-09-15T08:51:53.290Z</time>
      </trkpt>
      <trkpt lat="44.14238" lon="0.47338">
        <ele>110</ele>
        <time>2022-09-15T08:51:54.290Z</time>
      </trkpt>
      <trkpt lat="44.14239" lon="0.4734">
        <ele>111</ele>
        <time>2022-09-15T08:51:55.290Z</time>
      </trkpt>
      <trkpt lat="44.14239" lon="0.47341">
        <ele>111</ele>
        <time>2022-09-15T08:51:56.290Z</time>
      </trkpt>
      <trkpt lat="44.1424" lon="0.47343">
        <ele>111</ele>
        <time>2022-09-15T08:51:57.290Z</time>
      </trkpt>
      <trkpt lat="44.1424" lon="0.47344">
        <ele>111</ele>
        <time>2022-09-15T08:51:58.290Z</time>
      </trkpt>
      <trkpt lat="44.14241" lon="0.47346">
        <ele>112</ele>
        <time>2022-09-15T08:51:59.290Z</time>
      </trkpt>
      <trkpt lat="44.14241" lon="0.47347">
        <ele>112</ele>
        <time>2022-09-15T08:52:00.290Z</time>
      </trkpt>
      <trkpt lat="44.14241" lon="0.47349">
        <ele>112</ele>
        <time>2022-09-15T08:52:01.290Z</time>
      </trkpt>
      <trkpt lat="44.14242" lon="0.47351">
        <ele>112</ele>
        <time>2022-09-15T08:52:02.290Z</time>
      </trkpt>
      <trkpt lat="44.14242" lon="0.47352">
        <ele>112</ele>
        <time>2022-09-15T08:52:03.290Z</time>
      </trkpt>
      <trkpt lat="44.14242" lon="0.47354">
        <ele>112</ele>
        <time>2022-09-15T08:52:04.290Z</time>
      </trkpt>
      <trkpt lat="44.14242" lon="0.47355">
        <ele>112</ele>
        <time>2022-09-15T08:52:05.290Z</time>
      </trkpt>
      <trkpt lat="44.14243" lon="0.47357">
        <ele>113</ele>
        <time>2022-09-15T08:52:06.290Z</time>
      </trkpt>
      <trkpt lat="44.14243" lon="0.47358">
        <ele>113</ele>
        <time>2022-09-15T08:52:07.290Z</time>
      </trkpt>
      <trkpt lat="44.14243" lon="0.4736">
        <ele>112</ele>
        <time>2022-09-15T08:52:08.290Z</time>
      </trkpt>
      <trkpt lat="44.14243" lon="0.47362">
        <ele>112</ele>
        <time>2022-09-15T08:52:09.290Z</time>
      </trkpt>
      <trkpt lat="44.14243" lon="0.47364">
        <ele>112</ele>
        <time>2022-09-15T08:52:10.290Z</time>
      </trkpt>
      <trkpt lat="44.14243" lon="0.47365">
        <ele>112</ele>
        <time>2022-09-15T08:52:11.290Z</time>
      </trkpt>
      <trkpt lat="44.14243" lon="0.47367">
        <ele>112</ele>
        <time>2022-09-15T08:52:12.290Z</time>
      </trkpt>
      <trkpt lat="44.14243" lon="0.47369">
        <ele>112</ele>
        <time>2022-09-15T08:52:13.290Z</time>
      </trkpt>
      <trkpt lat="44.14243" lon="0.4737">
        <ele>112</ele>
        <time>2022-09-15T08:52:14.290Z</time>
      </trkpt>
      <trkpt lat="44.14243" lon="0.47371">
        <ele>112</ele>
        <time>2022-09-15T08:52:15.290Z</time>
      </trkpt>
      <trkpt lat="44.14244" lon="0.47373">
        <ele>112</ele>
        <time>2022-09-15T08:52:16.290Z</time>
      </trkpt>
      <trkpt lat="44.14244" lon="0.47375">
        <ele>112</ele>
        <time>2022-09-15T08:52:17.290Z</time>
      </trkpt>
      <trkpt lat="44.14244" lon="0.47376">
        <ele>113</ele>
        <time>2022-09-15T08:52:18.290Z</time>
      </trkpt>
      <trkpt lat="44.14244" lon="0.47378">
        <ele>113</ele>
        <time>2022-09-15T08:52:19.290Z</time>
      </trkpt>
      <trkpt lat="44.14244" lon="0.47379">
        <ele>112</ele>
        <time>2022-09-15T08:52:20.290Z</time>
      </trkpt>
      <trkpt lat="44.14244" lon="0.47381">
        <ele>112</ele>
        <time>2022-09-15T08:52:21.290Z</time>
      </trkpt>
      <trkpt lat="44.14245" lon="0.47382">
        <ele>113</ele>
        <time>2022-09-15T08:52:22.290Z</time>
      </trkpt>
      <trkpt lat="44.14245" lon="0.47383">
        <ele>113</ele>
        <time>2022-09-15T08:52:23.290Z</time>
      </trkpt>
      <trkpt lat="44.14245" lon="0.47385">
        <ele>112</ele>
        <time>2022-09-15T08:52:24.290Z</time>
      </trkpt>
      <trkpt lat="44.14245" lon="0.47387">
        <ele>112</ele>
        <time>2022-09-15T08:52:25.290Z</time>
      </trkpt>
      <trkpt lat="44.14245" lon="0.47388">
        <ele>112</ele>
        <time>2022-09-15T08:52:26.290Z</time>
      </trkpt>
      <trkpt lat="44.14245" lon="0.4739">
        <ele>112</ele>
        <time>2022-09-15T08:52:27.290Z</time>
      </trkpt>
      <trkpt lat="44.14245" lon="0.47391">
        <ele>113</ele>
        <time>2022-09-15T08:52:28.290Z</time>
      </trkpt>
      <trkpt lat="44.14245" lon="0.47392">
        <ele>113</ele>
        <time>2022-09-15T08:52:29.290Z</time>
      </trkpt>
      <trkpt lat="44.14246" lon="0.47394">
        <ele>113</ele>
        <time>2022-09-15T08:52:30.290Z</time>
      </trkpt>
      <trkpt lat="44.14246" lon="0.47395">
        <ele>113</ele>
        <time>2022-09-15T08:52:31.290Z</time>
      </trkpt>
      <trkpt lat="44.14246" lon="0.47397">
        <ele>113</ele>
        <time>2022-09-15T08:52:32.290Z</time>
      </trkpt>
      <trkpt lat="44.14246" lon="0.47398">
        <ele>112</ele>
        <time>2022-09-15T08:52:33.290Z</time>
      </trkpt>
      <trkpt lat="44.14246" lon="0.474">
        <ele>112</ele>
        <time>2022-09-15T08:52:34.290Z</time>
      </trkpt>
      <trkpt lat="44.14246" lon="0.47401">
        <ele>112</ele>
        <time>2022-09-15T08:52:35.290Z</time>
      </trkpt>
      <trkpt lat="44.14246" lon="0.47402">
        <ele>112</ele>
        <time>2022-09-15T08:52:36.290Z</time>
      </trkpt>
      <trkpt lat="44.14246" lon="0.47403">
        <ele>112</ele>
        <time>2022-09-15T08:52:37.290Z</time>
      </trkpt>
      <trkpt lat="44.14247" lon="0.47404">
        <ele>112</ele>
        <time>2022-09-15T08:52:38.290Z</time>
      </trkpt>
      <trkpt lat="44.14247" lon="0.47406">
        <ele>112</ele>
        <time>2022-09-15T08:52:39.290Z</time>
      </trkpt>
      <trkpt lat="44.14247" lon="0.47407">
        <ele>112</ele>
        <time>2022-09-15T08:52:40.290Z</time>
      </trkpt>
      <trkpt lat="44.14247" lon="0.47409">
        <ele>112</ele>
        <time>2022-09-15T08:52:41.290Z</time>
      </trkpt>
      <trkpt lat="44.14247" lon="0.4741">
        <ele>112</ele>
        <time>2022-09-15T08:52:42.290Z</time>
      </trkpt>
      <trkpt lat="44.14248" lon="0.47412">
        <ele>112</ele>
        <time>2022-09-15T08:52:43.290Z</time>
      </trkpt>
      <trkpt lat="44.14248" lon="0.47413">
        <ele>112</ele>
        <time>2022-09-15T08:52:44.290Z</time>
      </trkpt>
      <trkpt lat="44.14248" lon="0.47414">
        <ele>113</ele>
        <time>2022-09-15T08:52:45.290Z</time>
      </trkpt>
      <trkpt lat="44.14248" lon="0.47416">
        <ele>113</ele>
        <time>2022-09-15T08:52:46.290Z</time>
      </trkpt>
      <trkpt lat="44.14248" lon="0.47418">
        <ele>113</ele>
        <time>2022-09-15T08:52:47.290Z</time>
      </trkpt>
      <trkpt lat="44.14248" lon="0.47419">
        <ele>113</ele>
        <time>2022-09-15T08:52:48.290Z</time>
      </trkpt>
      <trkpt lat="44.14248" lon="0.47421">
        <ele>113</ele>
        <time>2022-09-15T08:52:49.290Z</time>
      </trkpt>
      <trkpt lat="44.14248" lon="0.47423">
        <ele>113</ele>
        <time>2022-09-15T08:52:50.290Z</time>
      </trkpt>
      <trkpt lat="44.14249" lon="0.47424">
        <ele>113</ele>
        <time>2022-09-15T08:52:51.290Z</time>
      </trkpt>
      <trkpt lat="44.14249" lon="0.47426">
        <ele>113</ele>
        <time>2022-09-15T08:52:52.290Z</time>
      </trkpt>
      <trkpt lat="44.14249" lon="0.47427">
        <ele>113</ele>
        <time>2022-09-15T08:52:53.290Z</time>
      </trkpt>
      <trkpt lat="44.14249" lon="0.47428">
        <ele>113</ele>
        <time>2022-09-15T08:52:54.290Z</time>
      </trkpt>
      <trkpt lat="44.1425" lon="0.4743">
        <ele>113</ele>
        <time>2022-09-15T08:52:55.290Z</time>
      </trkpt>
      <trkpt lat="44.1425" lon="0.47432">
        <ele>113</ele>
        <time>2022-09-15T08:52:56.290Z</time>
      </trkpt>
      <trkpt lat="44.14251" lon="0.47433">
        <ele>113</ele>
        <time>2022-09-15T08:52:57.290Z</time>
      </trkpt>
      <trkpt lat="44.14251" lon="0.47435">
        <ele>113</ele>
        <time>2022-09-15T08:52:58.290Z</time>
      </trkpt>
      <trkpt lat="44.14251" lon="0.47436">
        <ele>113</ele>
        <time>2022-09-15T08:52:59.290Z</time>
      </trkpt>
      <trkpt lat="44.14251" lon="0.47438">
        <ele>113</ele>
        <time>2022-09-15T08:53:00.290Z</time>
      </trkpt>
      <trkpt lat="44.14252" lon="0.4744">
        <ele>113</ele>
        <time>2022-09-15T08:53:01.290Z</time>
      </trkpt>
      <trkpt lat="44.14252" lon="0.47441">
        <ele>113</ele>
        <time>2022-09-15T08:53:02.290Z</time>
      </trkpt>
      <trkpt lat="44.14252" lon="0.47443">
        <ele>112</ele>
        <time>2022-09-15T08:53:03.290Z</time>
      </trkpt>
      <trkpt lat="44.14253" lon="0.47445">
        <ele>113</ele>
        <time>2022-09-15T08:53:04.290Z</time>
      </trkpt>
      <trkpt lat="44.14253" lon="0.47447">
        <ele>112</ele>
        <time>2022-09-15T08:53:05.290Z</time>
      </trkpt>
      <trkpt lat="44.14253" lon="0.47448">
        <ele>112</ele>
        <time>2022-09-15T08:53:06.290Z</time>
      </trkpt>
      <trkpt lat="44.14253" lon="0.4745">
        <ele>113</ele>
        <time>2022-09-15T08:53:07.290Z</time>
      </trkpt>
      <trkpt lat="44.14253" lon="0.47452">
        <ele>113</ele>
        <time>2022-09-15T08:53:08.290Z</time>
      </trkpt>
      <trkpt lat="44.14254" lon="0.47453">
        <ele>113</ele>
        <time>2022-09-15T08:53:09.290Z</time>
      </trkpt>
      <trkpt lat="44.14254" lon="0.47455">
        <ele>112</ele>
        <time>2022-09-15T08:53:10.290Z</time>
      </trkpt>
      <trkpt lat="44.14254" lon="0.47457">
        <ele>112</ele>
        <time>2022-09-15T08:53:11.290Z</time>
      </trkpt>
      <trkpt lat="44.14254" lon="0.47458">
        <ele>112</ele>
        <time>2022-09-15T08:53:12.290Z</time>
      </trkpt>
      <trkpt lat="44.14254" lon="0.4746">
        <ele>112</ele>
        <time>2022-09-15T08:53:13.290Z</time>
      </trkpt>
      <trkpt lat="44.14254" lon="0.47461">
        <ele>112</ele>
        <time>2022-09-15T08:53:14.290Z</time>
      </trkpt>
      <trkpt lat="44.14255" lon="0.47463">
        <ele>112</ele>
        <time>2022-09-15T08:53:15.290Z</time>
      </trkpt>
      <trkpt lat="44.14255" lon="0.47464">
        <ele>112</ele>
        <time>2022-09-15T08:53:16.290Z</time>
      </trkpt>
      <trkpt lat="44.14255" lon="0.47466">
        <ele>112</ele>
        <time>2022-09-15T08:53:17.290Z</time>
      </trkpt>
      <trkpt lat="44.14256" lon="0.47468">
        <ele>112</ele>
        <time>2022-09-15T08:53:18.290Z</time>
      </trkpt>
      <trkpt lat="44.14256" lon="0.4747">
        <ele>112</ele>
        <time>2022-09-15T08:53:19.290Z</time>
      </trkpt>
      <trkpt lat="44.14256" lon="0.47471">
        <ele>112</ele>
        <time>2022-09-15T08:53:20.290Z</time>
      </trkpt>
      <trkpt lat="44.14257" lon="0.47473">
        <ele>112</ele>
        <time>2022-09-15T08:53:21.290Z</time>
      </trkpt>
      <trkpt lat="44.14257" lon="0.47474">
        <ele>112</ele>
        <time>2022-09-15T08:53:22.290Z</time>
      </trkpt>
      <trkpt lat="44.14257" lon="0.47475">
        <ele>112</ele>
        <time>2022-09-15T08:53:23.290Z</time>
      </trkpt>
      <trkpt lat="44.14257" lon="0.47477">
        <ele>112</ele>
        <time>2022-09-15T08:53:24.290Z</time>
      </trkpt>
      <trkpt lat="44.14258" lon="0.47479">
        <ele>112</ele>
        <time>2022-09-15T08:53:25.290Z</time>
      </trkpt>
      <trkpt lat="44.14258" lon="0.4748">
        <ele>112</ele>
        <time>2022-09-15T08:53:26.290Z</time>
      </trkpt>
      <trkpt lat="44.14258" lon="0.47482">
        <ele>111</ele>
        <time>2022-09-15T08:53:27.290Z</time>
      </trkpt>
      <trkpt lat="44.14259" lon="0.47483">
        <ele>111</ele>
        <time>2022-09-15T08:53:28.290Z</time>
      </trkpt>
      <trkpt lat="44.14259" lon="0.47485">
        <ele>111</ele>
        <time>2022-09-15T08:53:29.290Z</time>
      </trkpt>
      <trkpt lat="44.14259" lon="0.47486">
        <ele>111</ele>
        <time>2022-09-15T08:53:30.290Z</time>
      </trkpt>
      <trkpt lat="44.14259" lon="0.47488">
        <ele>111</ele>
        <time>2022-09-15T08:53:31.290Z</time>
      </trkpt>
      <trkpt lat="44.14259" lon="0.4749">
        <ele>111</ele>
        <time>2022-09-15T08:53:32.290Z</time>
      </trkpt>
      <trkpt lat="44.1426" lon="0.47491">
        <ele>111</ele>
        <time>2022-09-15T08:53:33.290Z</time>
      </trkpt>
      <trkpt lat="44.1426" lon="0.47493">
        <ele>111</ele>
        <time>2022-09-15T08:53:34.290Z</time>
      </trkpt>
      <trkpt lat="44.1426" lon="0.47494">
        <ele>110</ele>
        <time>2022-09-15T08:53:35.290Z</time>
      </trkpt>
      <trkpt lat="44.14261" lon="0.47496">
        <ele>110</ele>
        <time>2022-09-15T08:53:36.290Z</time>
      </trkpt>
      <trkpt lat="44.14261" lon="0.47497">
        <ele>111</ele>
        <time>2022-09-15T08:53:37.290Z</time>
      </trkpt>
      <trkpt lat="44.14261" lon="0.47499">
        <ele>111</ele>
        <time>2022-09-15T08:53:38.290Z</time>
      </trkpt>
      <trkpt lat="44.14261" lon="0.475">
        <ele>110</ele>
        <time>2022-09-15T08:53:39.290Z</time>
      </trkpt>
      <trkpt lat="44.14261" lon="0.47502">
        <ele>111</ele>
        <time>2022-09-15T08:53:40.290Z</time>
      </trkpt>
      <trkpt lat="44.14262" lon="0.47504">
        <ele>111</ele>
        <time>2022-09-15T08:53:41.290Z</time>
      </trkpt>
      <trkpt lat="44.14262" lon="0.47506">
        <ele>111</ele>
        <time>2022-09-15T08:53:42.290Z</time>
      </trkpt>
      <trkpt lat="44.14262" lon="0.47507">
        <ele>111</ele>
        <time>2022-09-15T08:53:43.290Z</time>
      </trkpt>
      <trkpt lat="44.14262" lon="0.47509">
        <ele>111</ele>
        <time>2022-09-15T08:53:44.290Z</time>
      </trkpt>
      <trkpt lat="44.14262" lon="0.4751">
        <ele>111</ele>
        <time>2022-09-15T08:53:45.290Z</time>
      </trkpt>
      <trkpt lat="44.14262" lon="0.47512">
        <ele>111</ele>
        <time>2022-09-15T08:53:46.290Z</time>
      </trkpt>
      <trkpt lat="44.14262" lon="0.47513">
        <ele>111</ele>
        <time>2022-09-15T08:53:47.290Z</time>
      </trkpt>
      <trkpt lat="44.14262" lon="0.47515">
        <ele>111</ele>
        <time>2022-09-15T08:53:48.290Z</time>
      </trkpt>
      <trkpt lat="44.14263" lon="0.47517">
        <ele>111</ele>
        <time>2022-09-15T08:53:49.290Z</time>
      </trkpt>
      <trkpt lat="44.14263" lon="0.47518">
        <ele>111</ele>
        <time>2022-09-15T08:53:50.290Z</time>
      </trkpt>
      <trkpt lat="44.14263" lon="0.4752">
        <ele>111</ele>
        <time>2022-09-15T08:53:51.290Z</time>
      </trkpt>
      <trkpt lat="44.14263" lon="0.47521">
        <ele>111</ele>
        <time>2022-09-15T08:53:52.290Z</time>
      </trkpt>
      <trkpt lat="44.14264" lon="0.47523">
        <ele>111</ele>
        <time>2022-09-15T08:53:53.290Z</time>
      </trkpt>
      <trkpt lat="44.14264" lon="0.47524">
        <ele>111</ele>
        <time>2022-09-15T08:53:54.290Z</time>
      </trkpt>
      <trkpt lat="44.14264" lon="0.47526">
        <ele>111</ele>
        <time>2022-09-15T08:53:55.290Z</time>
      </trkpt>
      <trkpt lat="44.14264" lon="0.47527">
        <ele>111</ele>
        <time>2022-09-15T08:53:56.290Z</time>
      </trkpt>
      <trkpt lat="44.14264" lon="0.47529">
        <ele>111</ele>
        <time>2022-09-15T08:53:57.290Z</time>
      </trkpt>
      <trkpt lat="44.14264" lon="0.4753">
        <ele>111</ele>
        <time>2022-09-15T08:53:58.290Z</time>
      </trkpt>
      <trkpt lat="44.14265" lon="0.47532">
        <ele>111</ele>
        <time>2022-09-15T08:53:59.290Z</time>
      </trkpt>
      <trkpt lat="44.14265" lon="0.47533">
        <ele>111</ele>
        <time>2022-09-15T08:54:00.290Z</time>
      </trkpt>
      <trkpt lat="44.14265" lon="0.47535">
        <ele>110</ele>
        <time>2022-09-15T08:54:01.290Z</time>
      </trkpt>
      <trkpt lat="44.14265" lon="0.47536">
        <ele>110</ele>
        <time>2022-09-15T08:54:02.290Z</time>
      </trkpt>
      <trkpt lat="44.14265" lon="0.47538">
        <ele>110</ele>
        <time>2022-09-15T08:54:03.290Z</time>
      </trkpt>
      <trkpt lat="44.14266" lon="0.4754">
        <ele>110</ele>
        <time>2022-09-15T08:54:04.290Z</time>
      </trkpt>
      <trkpt lat="44.14266" lon="0.47541">
        <ele>110</ele>
        <time>2022-09-15T08:54:05.290Z</time>
      </trkpt>
      <trkpt lat="44.14266" lon="0.47543">
        <ele>110</ele>
        <time>2022-09-15T08:54:06.290Z</time>
      </trkpt>
      <trkpt lat="44.14266" lon="0.47544">
        <ele>110</ele>
        <time>2022-09-15T08:54:07.290Z</time>
      </trkpt>
      <trkpt lat="44.14266" lon="0.47546">
        <ele>109</ele>
        <time>2022-09-15T08:54:08.290Z</time>
      </trkpt>
      <trkpt lat="44.14266" lon="0.47547">
        <ele>109</ele>
        <time>2022-09-15T08:54:09.290Z</time>
      </trkpt>
      <trkpt lat="44.14267" lon="0.47549">
        <ele>109</ele>
        <time>2022-09-15T08:54:10.290Z</time>
      </trkpt>
      <trkpt lat="44.14267" lon="0.4755">
        <ele>109</ele>
        <time>2022-09-15T08:54:11.290Z</time>
      </trkpt>
      <trkpt lat="44.14267" lon="0.47552">
        <ele>109</ele>
        <time>2022-09-15T08:54:12.290Z</time>
      </trkpt>
      <trkpt lat="44.14267" lon="0.47554">
        <ele>110</ele>
        <time>2022-09-15T08:54:13.290Z</time>
      </trkpt>
      <trkpt lat="44.14267" lon="0.47555">
        <ele>109</ele>
        <time>2022-09-15T08:54:14.290Z</time>
      </trkpt>
      <trkpt lat="44.14267" lon="0.47557">
        <ele>109</ele>
        <time>2022-09-15T08:54:15.290Z</time>
      </trkpt>
      <trkpt lat="44.14267" lon="0.47558">
        <ele>109</ele>
        <time>2022-09-15T08:54:16.290Z</time>
      </trkpt>
      <trkpt lat="44.14267" lon="0.47559">
        <ele>109</ele>
        <time>2022-09-15T08:54:17.290Z</time>
      </trkpt>
      <trkpt lat="44.14268" lon="0.47561">
        <ele>108</ele>
        <time>2022-09-15T08:54:18.290Z</time>
      </trkpt>
      <trkpt lat="44.14268" lon="0.47562">
        <ele>109</ele>
        <time>2022-09-15T08:54:19.290Z</time>
      </trkpt>
      <trkpt lat="44.14268" lon="0.47564">
        <ele>109</ele>
        <time>2022-09-15T08:54:20.290Z</time>
      </trkpt>
      <trkpt lat="44.14269" lon="0.47565">
        <ele>108</ele>
        <time>2022-09-15T08:54:21.290Z</time>
      </trkpt>
      <trkpt lat="44.14269" lon="0.47567">
        <ele>108</ele>
        <time>2022-09-15T08:54:22.290Z</time>
      </trkpt>
      <trkpt lat="44.14269" lon="0.47568">
        <ele>108</ele>
        <time>2022-09-15T08:54:23.290Z</time>
      </trkpt>
      <trkpt lat="44.14269" lon="0.4757">
        <ele>108</ele>
        <time>2022-09-15T08:54:24.290Z</time>
      </trkpt>
      <trkpt lat="44.14269" lon="0.47571">
        <ele>108</ele>
        <time>2022-09-15T08:54:25.290Z</time>
      </trkpt>
      <trkpt lat="44.1427" lon="0.47572">
        <ele>108</ele>
        <time>2022-09-15T08:54:26.290Z</time>
      </trkpt>
      <trkpt lat="44.1427" lon="0.47573">
        <ele>108</ele>
        <time>2022-09-15T08:54:27.290Z</time>
      </trkpt>
      <trkpt lat="44.1427" lon="0.47575">
        <ele>108</ele>
        <time>2022-09-15T08:54:28.290Z</time>
      </trkpt>
      <trkpt lat="44.1427" lon="0.47576">
        <ele>108</ele>
        <time>2022-09-15T08:54:29.290Z</time>
      </trkpt>
      <trkpt lat="44.14271" lon="0.47578">
        <ele>108</ele>
        <time>2022-09-15T08:54:30.290Z</time>
      </trkpt>
      <trkpt lat="44.14271" lon="0.47579">
        <ele>108</ele>
        <time>2022-09-15T08:54:31.290Z</time>
      </trkpt>
      <trkpt lat="44.14271" lon="0.47581">
        <ele>108</ele>
        <time>2022-09-15T08:54:32.290Z</time>
      </trkpt>
      <trkpt lat="44.14271" lon="0.47582">
        <ele>107</ele>
        <time>2022-09-15T08:54:33.290Z</time>
      </trkpt>
      <trkpt lat="44.14271" lon="0.47583">
        <ele>107</ele>
        <time>2022-09-15T08:54:34.290Z</time>
      </trkpt>
      <trkpt lat="44.14271" lon="0.47585">
        <ele>107</ele>
        <time>2022-09-15T08:54:35.290Z</time>
      </trkpt>
      <trkpt lat="44.14271" lon="0.47586">
        <ele>107</ele>
        <time>2022-09-15T08:54:36.290Z</time>
      </trkpt>
      <trkpt lat="44.14272" lon="0.47587">
        <ele>107</ele>
        <time>2022-09-15T08:54:37.290Z</time>
      </trkpt>
      <trkpt lat="44.14272" lon="0.47589">
        <ele>107</ele>
        <time>2022-09-15T08:54:38.290Z</time>
      </trkpt>
      <trkpt lat="44.14272" lon="0.4759">
        <ele>107</ele>
        <time>2022-09-15T08:54:39.290Z</time>
      </trkpt>
      <trkpt lat="44.14272" lon="0.47592">
        <ele>106</ele>
        <time>2022-09-15T08:54:40.290Z</time>
      </trkpt>
      <trkpt lat="44.14272" lon="0.47593">
        <ele>106</ele>
        <time>2022-09-15T08:54:41.290Z</time>
      </trkpt>
      <trkpt lat="44.14272" lon="0.47595">
        <ele>106</ele>
        <time>2022-09-15T08:54:42.290Z</time>
      </trkpt>
      <trkpt lat="44.14273" lon="0.47596">
        <ele>106</ele>
        <time>2022-09-15T08:54:43.290Z</time>
      </trkpt>
      <trkpt lat="44.14273" lon="0.47598">
        <ele>106</ele>
        <time>2022-09-15T08:54:44.290Z</time>
      </trkpt>
      <trkpt lat="44.14273" lon="0.47599">
        <ele>106</ele>
        <time>2022-09-15T08:54:45.290Z</time>
      </trkpt>
      <trkpt lat="44.14273" lon="0.47601">
        <ele>106</ele>
        <time>2022-09-15T08:54:46.290Z</time>
      </trkpt>
      <trkpt lat="44.14273" lon="0.47602">
        <ele>106</ele>
        <time>2022-09-15T08:54:47.290Z</time>
      </trkpt>
      <trkpt lat="44.14273" lon="0.47604">
        <ele>105</ele>
        <time>2022-09-15T08:54:48.290Z</time>
      </trkpt>
      <trkpt lat="44.14273" lon="0.47605">
        <ele>105</ele>
        <time>2022-09-15T08:54:49.290Z</time>
      </trkpt>
      <trkpt lat="44.14273" lon="0.47607">
        <ele>105</ele>
        <time>2022-09-15T08:54:50.290Z</time>
      </trkpt>
      <trkpt lat="44.14273" lon="0.47609">
        <ele>105</ele>
        <time>2022-09-15T08:54:51.290Z</time>
      </trkpt>
      <trkpt lat="44.14273" lon="0.4761">
        <ele>104</ele>
        <time>2022-09-15T08:54:52.290Z</time>
      </trkpt>
      <trkpt lat="44.14273" lon="0.47612">
        <ele>104</ele>
        <time>2022-09-15T08:54:53.290Z</time>
      </trkpt>
      <trkpt lat="44.14274" lon="0.47613">
        <ele>104</ele>
        <time>2022-09-15T08:54:54.290Z</time>
      </trkpt>
      <trkpt lat="44.14274" lon="0.47615">
        <ele>103</ele>
        <time>2022-09-15T08:54:55.290Z</time>
      </trkpt>
      <trkpt lat="44.14274" lon="0.47616">
        <ele>103</ele>
        <time>2022-09-15T08:54:56.290Z</time>
      </trkpt>
      <trkpt lat="44.14274" lon="0.47618">
        <ele>103</ele>
        <time>2022-09-15T08:54:57.290Z</time>
      </trkpt>
      <trkpt lat="44.14274" lon="0.4762">
        <ele>103</ele>
        <time>2022-09-15T08:54:58.290Z</time>
      </trkpt>
      <trkpt lat="44.14274" lon="0.47621">
        <ele>103</ele>
        <time>2022-09-15T08:54:59.290Z</time>
      </trkpt>
      <trkpt lat="44.14274" lon="0.47623">
        <ele>103</ele>
        <time>2022-09-15T08:55:00.290Z</time>
      </trkpt>
      <trkpt lat="44.14274" lon="0.47625">
        <ele>103</ele>
        <time>2022-09-15T08:55:01.290Z</time>
      </trkpt>
      <trkpt lat="44.14274" lon="0.47626">
        <ele>103</ele>
        <time>2022-09-15T08:55:02.290Z</time>
      </trkpt>
      <trkpt lat="44.14274" lon="0.47628">
        <ele>103</ele>
        <time>2022-09-15T08:55:03.290Z</time>
      </trkpt>
      <trkpt lat="44.14274" lon="0.47629">
        <ele>102</ele>
        <time>2022-09-15T08:55:04.290Z</time>
      </trkpt>
      <trkpt lat="44.14274" lon="0.47631">
        <ele>102</ele>
        <time>2022-09-15T08:55:05.290Z</time>
      </trkpt>
      <trkpt lat="44.14274" lon="0.47633">
        <ele>102</ele>
        <time>2022-09-15T08:55:06.290Z</time>
      </trkpt>
      <trkpt lat="44.14274" lon="0.47634">
        <ele>103</ele>
        <time>2022-09-15T08:55:07.290Z</time>
      </trkpt>
      <trkpt lat="44.14274" lon="0.47636">
        <ele>102</ele>
        <time>2022-09-15T08:55:08.290Z</time>
      </trkpt>
      <trkpt lat="44.14274" lon="0.47637">
        <ele>102</ele>
        <time>2022-09-15T08:55:09.290Z</time>
      </trkpt>
      <trkpt lat="44.14275" lon="0.47638">
        <ele>102</ele>
        <time>2022-09-15T08:55:10.290Z</time>
      </trkpt>
      <trkpt lat="44.14275" lon="0.4764">
        <ele>102</ele>
        <time>2022-09-15T08:55:11.290Z</time>
      </trkpt>
      <trkpt lat="44.14275" lon="0.47642">
        <ele>102</ele>
        <time>2022-09-15T08:55:12.290Z</time>
      </trkpt>
      <trkpt lat="44.14275" lon="0.47644">
        <ele>102</ele>
        <time>2022-09-15T08:55:13.290Z</time>
      </trkpt>
      <trkpt lat="44.14275" lon="0.47645">
        <ele>101</ele>
        <time>2022-09-15T08:55:14.290Z</time>
      </trkpt>
      <trkpt lat="44.14275" lon="0.47647">
        <ele>102</ele>
        <time>2022-09-15T08:55:15.290Z</time>
      </trkpt>
      <trkpt lat="44.14275" lon="0.47649">
        <ele>102</ele>
        <time>2022-09-15T08:55:16.290Z</time>
      </trkpt>
      <trkpt lat="44.14275" lon="0.4765">
        <ele>102</ele>
        <time>2022-09-15T08:55:17.290Z</time>
      </trkpt>
      <trkpt lat="44.14275" lon="0.47652">
        <ele>102</ele>
        <time>2022-09-15T08:55:18.290Z</time>
      </trkpt>
      <trkpt lat="44.14275" lon="0.47653">
        <ele>102</ele>
        <time>2022-09-15T08:55:19.290Z</time>
      </trkpt>
      <trkpt lat="44.14275" lon="0.47655">
        <ele>102</ele>
        <time>2022-09-15T08:55:20.290Z</time>
      </trkpt>
      <trkpt lat="44.14275" lon="0.47657">
        <ele>102</ele>
        <time>2022-09-15T08:55:21.290Z</time>
      </trkpt>
      <trkpt lat="44.14275" lon="0.47659">
        <ele>102</ele>
        <time>2022-09-15T08:55:22.290Z</time>
      </trkpt>
      <trkpt lat="44.14275" lon="0.47661">
        <ele>101</ele>
        <time>2022-09-15T08:55:23.290Z</time>
      </trkpt>
      <trkpt lat="44.14275" lon="0.47663">
        <ele>101</ele>
        <time>2022-09-15T08:55:24.290Z</time>
      </trkpt>
      <trkpt lat="44.14275" lon="0.47664">
        <ele>101</ele>
        <time>2022-09-15T08:55:25.290Z</time>
      </trkpt>
      <trkpt lat="44.14275" lon="0.47666">
        <ele>101</ele>
        <time>2022-09-15T08:55:26.290Z</time>
      </trkpt>
      <trkpt lat="44.14275" lon="0.47668">
        <ele>100</ele>
        <time>2022-09-15T08:55:27.290Z</time>
      </trkpt>
      <trkpt lat="44.14275" lon="0.47669">
        <ele>101</ele>
        <time>2022-09-15T08:55:28.290Z</time>
      </trkpt>
      <trkpt lat="44.14274" lon="0.47671">
        <ele>101</ele>
        <time>2022-09-15T08:55:29.290Z</time>
      </trkpt>
      <trkpt lat="44.14274" lon="0.47673">
        <ele>101</ele>
        <time>2022-09-15T08:55:30.290Z</time>
      </trkpt>
      <trkpt lat="44.14274" lon="0.47674">
        <ele>101</ele>
        <time>2022-09-15T08:55:31.290Z</time>
      </trkpt>
      <trkpt lat="44.14274" lon="0.47676">
        <ele>101</ele>
        <time>2022-09-15T08:55:32.290Z</time>
      </trkpt>
      <trkpt lat="44.14274" lon="0.47677">
        <ele>101</ele>
        <time>2022-09-15T08:55:33.290Z</time>
      </trkpt>
      <trkpt lat="44.14274" lon="0.47679">
        <ele>100</ele>
        <time>2022-09-15T08:55:34.290Z</time>
      </trkpt>
      <trkpt lat="44.14274" lon="0.4768">
        <ele>100</ele>
        <time>2022-09-15T08:55:35.290Z</time>
      </trkpt>
      <trkpt lat="44.14274" lon="0.47682">
        <ele>100</ele>
        <time>2022-09-15T08:55:36.290Z</time>
      </trkpt>
      <trkpt lat="44.14274" lon="0.47683">
        <ele>100</ele>
        <time>2022-09-15T08:55:37.290Z</time>
      </trkpt>
      <trkpt lat="44.14274" lon="0.47685">
        <ele>100</ele>
        <time>2022-09-15T08:55:38.290Z</time>
      </trkpt>
      <trkpt lat="44.14274" lon="0.47686">
        <ele>100</ele>
        <time>2022-09-15T08:55:39.290Z</time>
      </trkpt>
      <trkpt lat="44.14274" lon="0.47688">
        <ele>100</ele>
        <time>2022-09-15T08:55:40.290Z</time>
      </trkpt>
      <trkpt lat="44.14274" lon="0.47689">
        <ele>100</ele>
        <time>2022-09-15T08:55:41.290Z</time>
      </trkpt>
      <trkpt lat="44.14274" lon="0.47691">
        <ele>100</ele>
        <time>2022-09-15T08:55:42.290Z</time>
      </trkpt>
      <trkpt lat="44.14275" lon="0.47692">
        <ele>100</ele>
        <time>2022-09-15T08:55:43.290Z</time>
      </trkpt>
      <trkpt lat="44.14275" lon="0.47694">
        <ele>100</ele>
        <time>2022-09-15T08:55:44.290Z</time>
      </trkpt>
      <trkpt lat="44.14275" lon="0.47695">
        <ele>100</ele>
        <time>2022-09-15T08:55:45.290Z</time>
      </trkpt>
      <trkpt lat="44.14275" lon="0.47697">
        <ele>100</ele>
        <time>2022-09-15T08:55:46.290Z</time>
      </trkpt>
      <trkpt lat="44.14275" lon="0.47698">
        <ele>99</ele>
        <time>2022-09-15T08:55:47.290Z</time>
      </trkpt>
      <trkpt lat="44.14275" lon="0.477">
        <ele>99</ele>
        <time>2022-09-15T08:55:48.290Z</time>
      </trkpt>
      <trkpt lat="44.14275" lon="0.47701">
        <ele>99</ele>
        <time>2022-09-15T08:55:49.290Z</time>
      </trkpt>
      <trkpt lat="44.14275" lon="0.47702">
        <ele>99</ele>
        <time>2022-09-15T08:55:50.290Z</time>
      </trkpt>
      <trkpt lat="44.14274" lon="0.47704">
        <ele>99</ele>
        <time>2022-09-15T08:55:51.290Z</time>
      </trkpt>
      <trkpt lat="44.14274" lon="0.47705">
        <ele>99</ele>
        <time>2022-09-15T08:55:52.290Z</time>
      </trkpt>
      <trkpt lat="44.14274" lon="0.47707">
        <ele>99</ele>
        <time>2022-09-15T08:55:53.290Z</time>
      </trkpt>
      <trkpt lat="44.14273" lon="0.47708">
        <ele>99</ele>
        <time>2022-09-15T08:55:54.290Z</time>
      </trkpt>
      <trkpt lat="44.14273" lon="0.4771">
        <ele>99</ele>
        <time>2022-09-15T08:55:55.290Z</time>
      </trkpt>
      <trkpt lat="44.14273" lon="0.47711">
        <ele>99</ele>
        <time>2022-09-15T08:55:56.290Z</time>
      </trkpt>
      <trkpt lat="44.14272" lon="0.47713">
        <ele>98</ele>
        <time>2022-09-15T08:55:57.290Z</time>
      </trkpt>
      <trkpt lat="44.14272" lon="0.47714">
        <ele>98</ele>
        <time>2022-09-15T08:55:58.290Z</time>
      </trkpt>
      <trkpt lat="44.14271" lon="0.47716">
        <ele>98</ele>
        <time>2022-09-15T08:55:59.290Z</time>
      </trkpt>
      <trkpt lat="44.14271" lon="0.47717">
        <ele>98</ele>
        <time>2022-09-15T08:56:00.290Z</time>
      </trkpt>
      <trkpt lat="44.1427" lon="0.47719">
        <ele>98</ele>
        <time>2022-09-15T08:56:01.290Z</time>
      </trkpt>
      <trkpt lat="44.1427" lon="0.4772">
        <ele>98</ele>
        <time>2022-09-15T08:56:02.290Z</time>
      </trkpt>
      <trkpt lat="44.14269" lon="0.47721">
        <ele>98</ele>
        <time>2022-09-15T08:56:03.290Z</time>
      </trkpt>
      <trkpt lat="44.14269" lon="0.47722">
        <ele>98</ele>
        <time>2022-09-15T08:56:04.290Z</time>
      </trkpt>
      <trkpt lat="44.14268" lon="0.47724">
        <ele>98</ele>
        <time>2022-09-15T08:56:05.290Z</time>
      </trkpt>
      <trkpt lat="44.14268" lon="0.47725">
        <ele>98</ele>
        <time>2022-09-15T08:56:06.290Z</time>
      </trkpt>
      <trkpt lat="44.14267" lon="0.47726">
        <ele>98</ele>
        <time>2022-09-15T08:56:07.290Z</time>
      </trkpt>
      <trkpt lat="44.14267" lon="0.47728">
        <ele>98</ele>
        <time>2022-09-15T08:56:08.290Z</time>
      </trkpt>
      <trkpt lat="44.14266" lon="0.47729">
        <ele>98</ele>
        <time>2022-09-15T08:56:09.290Z</time>
      </trkpt>
      <trkpt lat="44.14266" lon="0.4773">
        <ele>98</ele>
        <time>2022-09-15T08:56:10.290Z</time>
      </trkpt>
      <trkpt lat="44.14265" lon="0.47732">
        <ele>98</ele>
        <time>2022-09-15T08:56:11.290Z</time>
      </trkpt>
      <trkpt lat="44.14265" lon="0.47733">
        <ele>98</ele>
        <time>2022-09-15T08:56:12.290Z</time>
      </trkpt>
      <trkpt lat="44.14264" lon="0.47735">
        <ele>98</ele>
        <time>2022-09-15T08:56:13.290Z</time>
      </trkpt>
      <trkpt lat="44.14264" lon="0.47736">
        <ele>98</ele>
        <time>2022-09-15T08:56:14.290Z</time>
      </trkpt>
      <trkpt lat="44.14263" lon="0.47738">
        <ele>99</ele>
        <time>2022-09-15T08:56:15.290Z</time>
      </trkpt>
      <trkpt lat="44.14262" lon="0.4774">
        <ele>99</ele>
        <time>2022-09-15T08:56:16.290Z</time>
      </trkpt>
      <trkpt lat="44.14262" lon="0.47742">
        <ele>100</ele>
        <time>2022-09-15T08:56:17.290Z</time>
      </trkpt>
      <trkpt lat="44.14261" lon="0.47744">
        <ele>100</ele>
        <time>2022-09-15T08:56:18.290Z</time>
      </trkpt>
      <trkpt lat="44.1426" lon="0.47745">
        <ele>99</ele>
        <time>2022-09-15T08:56:19.290Z</time>
      </trkpt>
      <trkpt lat="44.1426" lon="0.47747">
        <ele>100</ele>
        <time>2022-09-15T08:56:20.290Z</time>
      </trkpt>
      <trkpt lat="44.14259" lon="0.47748">
        <ele>100</ele>
        <time>2022-09-15T08:56:21.290Z</time>
      </trkpt>
      <trkpt lat="44.14259" lon="0.47749">
        <ele>100</ele>
        <time>2022-09-15T08:56:22.290Z</time>
      </trkpt>
      <trkpt lat="44.14258" lon="0.47751">
        <ele>100</ele>
        <time>2022-09-15T08:56:23.290Z</time>
      </trkpt>
      <trkpt lat="44.14258" lon="0.47752">
        <ele>100</ele>
        <time>2022-09-15T08:56:24.290Z</time>
      </trkpt>
      <trkpt lat="44.14257" lon="0.47754">
        <ele>100</ele>
        <time>2022-09-15T08:56:25.290Z</time>
      </trkpt>
      <trkpt lat="44.14256" lon="0.47756">
        <ele>100</ele>
        <time>2022-09-15T08:56:26.290Z</time>
      </trkpt>
      <trkpt lat="44.14255" lon="0.47757">
        <ele>99</ele>
        <time>2022-09-15T08:56:27.290Z</time>
      </trkpt>
      <trkpt lat="44.14255" lon="0.47759">
        <ele>99</ele>
        <time>2022-09-15T08:56:28.290Z</time>
      </trkpt>
      <trkpt lat="44.14254" lon="0.4776">
        <ele>99</ele>
        <time>2022-09-15T08:56:29.290Z</time>
      </trkpt>
      <trkpt lat="44.14254" lon="0.47761">
        <ele>99</ele>
        <time>2022-09-15T08:56:30.290Z</time>
      </trkpt>
      <trkpt lat="44.14253" lon="0.47762">
        <ele>99</ele>
        <time>2022-09-15T08:56:31.290Z</time>
      </trkpt>
      <trkpt lat="44.14253" lon="0.47764">
        <ele>99</ele>
        <time>2022-09-15T08:56:32.290Z</time>
      </trkpt>
      <trkpt lat="44.14252" lon="0.47765">
        <ele>99</ele>
        <time>2022-09-15T08:56:33.290Z</time>
      </trkpt>
      <trkpt lat="44.14252" lon="0.47767">
        <ele>99</ele>
        <time>2022-09-15T08:56:34.290Z</time>
      </trkpt>
      <trkpt lat="44.14251" lon="0.47768">
        <ele>99</ele>
        <time>2022-09-15T08:56:35.290Z</time>
      </trkpt>
      <trkpt lat="44.14251" lon="0.47769">
        <ele>99</ele>
        <time>2022-09-15T08:56:36.290Z</time>
      </trkpt>
      <trkpt lat="44.14251" lon="0.4777">
        <ele>100</ele>
        <time>2022-09-15T08:56:37.290Z</time>
      </trkpt>
      <trkpt lat="44.1425" lon="0.47772">
        <ele>99</ele>
        <time>2022-09-15T08:56:38.290Z</time>
      </trkpt>
      <trkpt lat="44.1425" lon="0.47773">
        <ele>99</ele>
        <time>2022-09-15T08:56:39.290Z</time>
      </trkpt>
      <trkpt lat="44.14249" lon="0.47774">
        <ele>99</ele>
        <time>2022-09-15T08:56:40.290Z</time>
      </trkpt>
      <trkpt lat="44.14248" lon="0.47776">
        <ele>99</ele>
        <time>2022-09-15T08:56:41.290Z</time>
      </trkpt>
      <trkpt lat="44.14248" lon="0.47777">
        <ele>99</ele>
        <time>2022-09-15T08:56:42.290Z</time>
      </trkpt>
      <trkpt lat="44.14248" lon="0.47778">
        <ele>99</ele>
        <time>2022-09-15T08:56:43.290Z</time>
      </trkpt>
      <trkpt lat="44.14247" lon="0.4778">
        <ele>99</ele>
        <time>2022-09-15T08:56:44.290Z</time>
      </trkpt>
      <trkpt lat="44.14247" lon="0.47781">
        <ele>99</ele>
        <time>2022-09-15T08:56:45.290Z</time>
      </trkpt>
      <trkpt lat="44.14246" lon="0.47783">
        <ele>99</ele>
        <time>2022-09-15T08:56:46.290Z</time>
      </trkpt>
      <trkpt lat="44.14245" lon="0.47784">
        <ele>99</ele>
        <time>2022-09-15T08:56:47.290Z</time>
      </trkpt>
      <trkpt lat="44.14245" lon="0.47786">
        <ele>99</ele>
        <time>2022-09-15T08:56:48.290Z</time>
      </trkpt>
      <trkpt lat="44.14244" lon="0.47787">
        <ele>99</ele>
        <time>2022-09-15T08:56:49.290Z</time>
      </trkpt>
      <trkpt lat="44.14244" lon="0.47789">
        <ele>99</ele>
        <time>2022-09-15T08:56:50.290Z</time>
      </trkpt>
      <trkpt lat="44.14243" lon="0.4779">
        <ele>99</ele>
        <time>2022-09-15T08:56:51.290Z</time>
      </trkpt>
      <trkpt lat="44.14243" lon="0.47792">
        <ele>99</ele>
        <time>2022-09-15T08:56:52.290Z</time>
      </trkpt>
      <trkpt lat="44.14242" lon="0.47793">
        <ele>99</ele>
        <time>2022-09-15T08:56:53.290Z</time>
      </trkpt>
      <trkpt lat="44.14241" lon="0.47795">
        <ele>99</ele>
        <time>2022-09-15T08:56:54.290Z</time>
      </trkpt>
      <trkpt lat="44.14241" lon="0.47797">
        <ele>100</ele>
        <time>2022-09-15T08:56:55.290Z</time>
      </trkpt>
      <trkpt lat="44.1424" lon="0.47798">
        <ele>100</ele>
        <time>2022-09-15T08:56:56.290Z</time>
      </trkpt>
      <trkpt lat="44.1424" lon="0.478">
        <ele>100</ele>
        <time>2022-09-15T08:56:57.290Z</time>
      </trkpt>
      <trkpt lat="44.14239" lon="0.47801">
        <ele>100</ele>
        <time>2022-09-15T08:56:58.290Z</time>
      </trkpt>
      <trkpt lat="44.14239" lon="0.47802">
        <ele>99</ele>
        <time>2022-09-15T08:56:59.290Z</time>
      </trkpt>
      <trkpt lat="44.14238" lon="0.47804">
        <ele>100</ele>
        <time>2022-09-15T08:57:00.290Z</time>
      </trkpt>
      <trkpt lat="44.14237" lon="0.47805">
        <ele>100</ele>
        <time>2022-09-15T08:57:01.290Z</time>
      </trkpt>
      <trkpt lat="44.14237" lon="0.47807">
        <ele>100</ele>
        <time>2022-09-15T08:57:02.290Z</time>
      </trkpt>
      <trkpt lat="44.14236" lon="0.47808">
        <ele>99</ele>
        <time>2022-09-15T08:57:03.290Z</time>
      </trkpt>
      <trkpt lat="44.14236" lon="0.47809">
        <ele>99</ele>
        <time>2022-09-15T08:57:04.290Z</time>
      </trkpt>
      <trkpt lat="44.14235" lon="0.47811">
        <ele>99</ele>
        <time>2022-09-15T08:57:05.290Z</time>
      </trkpt>
      <trkpt lat="44.14235" lon="0.47812">
        <ele>99</ele>
        <time>2022-09-15T08:57:06.290Z</time>
      </trkpt>
      <trkpt lat="44.14234" lon="0.47813">
        <ele>99</ele>
        <time>2022-09-15T08:57:07.290Z</time>
      </trkpt>
      <trkpt lat="44.14234" lon="0.47814">
        <ele>99</ele>
        <time>2022-09-15T08:57:08.290Z</time>
      </trkpt>
      <trkpt lat="44.14233" lon="0.47816">
        <ele>99</ele>
        <time>2022-09-15T08:57:09.290Z</time>
      </trkpt>
      <trkpt lat="44.14233" lon="0.47817">
        <ele>99</ele>
        <time>2022-09-15T08:57:10.290Z</time>
      </trkpt>
      <trkpt lat="44.14232" lon="0.47818">
        <ele>99</ele>
        <time>2022-09-15T08:57:11.290Z</time>
      </trkpt>
      <trkpt lat="44.14232" lon="0.47819">
        <ele>99</ele>
        <time>2022-09-15T08:57:12.290Z</time>
      </trkpt>
      <trkpt lat="44.14232" lon="0.4782">
        <ele>98</ele>
        <time>2022-09-15T08:57:13.290Z</time>
      </trkpt>
      <trkpt lat="44.14231" lon="0.47821">
        <ele>98</ele>
        <time>2022-09-15T08:57:14.290Z</time>
      </trkpt>
      <trkpt lat="44.14231" lon="0.47821">
        <ele>98</ele>
        <time>2022-09-15T08:57:15.290Z</time>
      </trkpt>
      <trkpt lat="44.1423" lon="0.47822">
        <ele>98</ele>
        <time>2022-09-15T08:57:16.290Z</time>
      </trkpt>
      <trkpt lat="44.1423" lon="0.47824">
        <ele>99</ele>
        <time>2022-09-15T08:57:17.290Z</time>
      </trkpt>
      <trkpt lat="44.14229" lon="0.47825">
        <ele>98</ele>
        <time>2022-09-15T08:57:18.290Z</time>
      </trkpt>
      <trkpt lat="44.14229" lon="0.47827">
        <ele>98</ele>
        <time>2022-09-15T08:57:19.290Z</time>
      </trkpt>
      <trkpt lat="44.14229" lon="0.47829">
        <ele>98</ele>
        <time>2022-09-15T08:57:20.290Z</time>
      </trkpt>
      <trkpt lat="44.14228" lon="0.4783">
        <ele>98</ele>
        <time>2022-09-15T08:57:21.290Z</time>
      </trkpt>
      <trkpt lat="44.14228" lon="0.47832">
        <ele>98</ele>
        <time>2022-09-15T08:57:22.290Z</time>
      </trkpt>
      <trkpt lat="44.14228" lon="0.47834">
        <ele>98</ele>
        <time>2022-09-15T08:57:23.290Z</time>
      </trkpt>
      <trkpt lat="44.14227" lon="0.47835">
        <ele>98</ele>
        <time>2022-09-15T08:57:24.290Z</time>
      </trkpt>
      <trkpt lat="44.14227" lon="0.47837">
        <ele>98</ele>
        <time>2022-09-15T08:57:25.290Z</time>
      </trkpt>
      <trkpt lat="44.14227" lon="0.47838">
        <ele>97</ele>
        <time>2022-09-15T08:57:26.290Z</time>
      </trkpt>
      <trkpt lat="44.14227" lon="0.4784">
        <ele>97</ele>
        <time>2022-09-15T08:57:27.290Z</time>
      </trkpt>
      <trkpt lat="44.14227" lon="0.47842">
        <ele>96</ele>
        <time>2022-09-15T08:57:28.290Z</time>
      </trkpt>
      <trkpt lat="44.14226" lon="0.47843">
        <ele>96</ele>
        <time>2022-09-15T08:57:29.290Z</time>
      </trkpt>
      <trkpt lat="44.14226" lon="0.47845">
        <ele>96</ele>
        <time>2022-09-15T08:57:30.290Z</time>
      </trkpt>
      <trkpt lat="44.14227" lon="0.47847">
        <ele>97</ele>
        <time>2022-09-15T08:57:31.290Z</time>
      </trkpt>
      <trkpt lat="44.14227" lon="0.47849">
        <ele>97</ele>
        <time>2022-09-15T08:57:32.290Z</time>
      </trkpt>
      <trkpt lat="44.14227" lon="0.47851">
        <ele>97</ele>
        <time>2022-09-15T08:57:33.290Z</time>
      </trkpt>
      <trkpt lat="44.14227" lon="0.47853">
        <ele>97</ele>
        <time>2022-09-15T08:57:34.290Z</time>
      </trkpt>
      <trkpt lat="44.14227" lon="0.47854">
        <ele>97</ele>
        <time>2022-09-15T08:57:35.290Z</time>
      </trkpt>
      <trkpt lat="44.14227" lon="0.47856">
        <ele>97</ele>
        <time>2022-09-15T08:57:36.290Z</time>
      </trkpt>
      <trkpt lat="44.14227" lon="0.47858">
        <ele>97</ele>
        <time>2022-09-15T08:57:37.290Z</time>
      </trkpt>
      <trkpt lat="44.14226" lon="0.47859">
        <ele>96</ele>
        <time>2022-09-15T08:57:38.290Z</time>
      </trkpt>
      <trkpt lat="44.14226" lon="0.4786">
        <ele>96</ele>
        <time>2022-09-15T08:57:39.290Z</time>
      </trkpt>
      <trkpt lat="44.14225" lon="0.47862">
        <ele>96</ele>
        <time>2022-09-15T08:57:40.290Z</time>
      </trkpt>
      <trkpt lat="44.14225" lon="0.47863">
        <ele>96</ele>
        <time>2022-09-15T08:57:41.290Z</time>
      </trkpt>
      <trkpt lat="44.14225" lon="0.47864">
        <ele>97</ele>
        <time>2022-09-15T08:57:42.290Z</time>
      </trkpt>
      <trkpt lat="44.14224" lon="0.47866">
        <ele>96</ele>
        <time>2022-09-15T08:57:43.290Z</time>
      </trkpt>
      <trkpt lat="44.14224" lon="0.47868">
        <ele>96</ele>
        <time>2022-09-15T08:57:44.290Z</time>
      </trkpt>
      <trkpt lat="44.14224" lon="0.47869">
        <ele>97</ele>
        <time>2022-09-15T08:57:45.290Z</time>
      </trkpt>
      <trkpt lat="44.14223" lon="0.47871">
        <ele>97</ele>
        <time>2022-09-15T08:57:46.290Z</time>
      </trkpt>
      <trkpt lat="44.14223" lon="0.47872">
        <ele>97</ele>
        <time>2022-09-15T08:57:47.290Z</time>
      </trkpt>
      <trkpt lat="44.14223" lon="0.47874">
        <ele>97</ele>
        <time>2022-09-15T08:57:48.290Z</time>
      </trkpt>
      <trkpt lat="44.14222" lon="0.47875">
        <ele>98</ele>
        <time>2022-09-15T08:57:49.290Z</time>
      </trkpt>
      <trkpt lat="44.14222" lon="0.47877">
        <ele>98</ele>
        <time>2022-09-15T08:57:50.290Z</time>
      </trkpt>
      <trkpt lat="44.14222" lon="0.47878">
        <ele>98</ele>
        <time>2022-09-15T08:57:51.290Z</time>
      </trkpt>
      <trkpt lat="44.14222" lon="0.4788">
        <ele>98</ele>
        <time>2022-09-15T08:57:52.290Z</time>
      </trkpt>
      <trkpt lat="44.14221" lon="0.47881">
        <ele>98</ele>
        <time>2022-09-15T08:57:53.290Z</time>
      </trkpt>
      <trkpt lat="44.14221" lon="0.47883">
        <ele>98</ele>
        <time>2022-09-15T08:57:54.290Z</time>
      </trkpt>
      <trkpt lat="44.14222" lon="0.47884">
        <ele>98</ele>
        <time>2022-09-15T08:57:55.290Z</time>
      </trkpt>
      <trkpt lat="44.14222" lon="0.47886">
        <ele>97</ele>
        <time>2022-09-15T08:57:56.290Z</time>
      </trkpt>
      <trkpt lat="44.14222" lon="0.47887">
        <ele>98</ele>
        <time>2022-09-15T08:57:57.290Z</time>
      </trkpt>
      <trkpt lat="44.14222" lon="0.47889">
        <ele>98</ele>
        <time>2022-09-15T08:57:58.290Z</time>
      </trkpt>
      <trkpt lat="44.14222" lon="0.47891">
        <ele>98</ele>
        <time>2022-09-15T08:57:59.290Z</time>
      </trkpt>
      <trkpt lat="44.14221" lon="0.47892">
        <ele>99</ele>
        <time>2022-09-15T08:58:00.290Z</time>
      </trkpt>
      <trkpt lat="44.14221" lon="0.47894">
        <ele>99</ele>
        <time>2022-09-15T08:58:01.290Z</time>
      </trkpt>
      <trkpt lat="44.14221" lon="0.47895">
        <ele>100</ele>
        <time>2022-09-15T08:58:02.290Z</time>
      </trkpt>
      <trkpt lat="44.14221" lon="0.47896">
        <ele>100</ele>
        <time>2022-09-15T08:58:03.290Z</time>
      </trkpt>
      <trkpt lat="44.14221" lon="0.47898">
        <ele>100</ele>
        <time>2022-09-15T08:58:04.290Z</time>
      </trkpt>
      <trkpt lat="44.14221" lon="0.47899">
        <ele>101</ele>
        <time>2022-09-15T08:58:05.290Z</time>
      </trkpt>
      <trkpt lat="44.14221" lon="0.479">
        <ele>101</ele>
        <time>2022-09-15T08:58:06.290Z</time>
      </trkpt>
      <trkpt lat="44.14221" lon="0.47901">
        <ele>101</ele>
        <time>2022-09-15T08:58:07.290Z</time>
      </trkpt>
      <trkpt lat="44.14221" lon="0.47903">
        <ele>101</ele>
        <time>2022-09-15T08:58:08.290Z</time>
      </trkpt>
      <trkpt lat="44.14221" lon="0.47905">
        <ele>101</ele>
        <time>2022-09-15T08:58:09.290Z</time>
      </trkpt>
      <trkpt lat="44.14221" lon="0.47906">
        <ele>101</ele>
        <time>2022-09-15T08:58:10.290Z</time>
      </trkpt>
      <trkpt lat="44.14222" lon="0.47907">
        <ele>101</ele>
        <time>2022-09-15T08:58:11.290Z</time>
      </trkpt>
      <trkpt lat="44.14222" lon="0.47909">
        <ele>101</ele>
        <time>2022-09-15T08:58:12.290Z</time>
      </trkpt>
      <trkpt lat="44.14222" lon="0.47911">
        <ele>102</ele>
        <time>2022-09-15T08:58:13.290Z</time>
      </trkpt>
      <trkpt lat="44.14222" lon="0.47912">
        <ele>101</ele>
        <time>2022-09-15T08:58:14.290Z</time>
      </trkpt>
      <trkpt lat="44.14222" lon="0.47914">
        <ele>101</ele>
        <time>2022-09-15T08:58:15.290Z</time>
      </trkpt>
      <trkpt lat="44.14222" lon="0.47915">
        <ele>102</ele>
        <time>2022-09-15T08:58:16.290Z</time>
      </trkpt>
      <trkpt lat="44.14222" lon="0.47916">
        <ele>102</ele>
        <time>2022-09-15T08:58:17.290Z</time>
      </trkpt>
      <trkpt lat="44.14222" lon="0.47918">
        <ele>102</ele>
        <time>2022-09-15T08:58:18.290Z</time>
      </trkpt>
      <trkpt lat="44.14222" lon="0.47919">
        <ele>102</ele>
        <time>2022-09-15T08:58:19.290Z</time>
      </trkpt>
      <trkpt lat="44.14223" lon="0.47921">
        <ele>101</ele>
        <time>2022-09-15T08:58:20.290Z</time>
      </trkpt>
      <trkpt lat="44.14223" lon="0.47922">
        <ele>101</ele>
        <time>2022-09-15T08:58:21.290Z</time>
      </trkpt>
      <trkpt lat="44.14223" lon="0.47923">
        <ele>101</ele>
        <time>2022-09-15T08:58:22.290Z</time>
      </trkpt>
      <trkpt lat="44.14223" lon="0.47925">
        <ele>101</ele>
        <time>2022-09-15T08:58:23.290Z</time>
      </trkpt>
      <trkpt lat="44.14224" lon="0.47926">
        <ele>102</ele>
        <time>2022-09-15T08:58:24.290Z</time>
      </trkpt>
      <trkpt lat="44.14224" lon="0.47928">
        <ele>103</ele>
        <time>2022-09-15T08:58:25.290Z</time>
      </trkpt>
      <trkpt lat="44.14224" lon="0.47931">
        <ele>104</ele>
        <time>2022-09-15T08:58:26.290Z</time>
      </trkpt>
      <trkpt lat="44.14224" lon="0.47933">
        <ele>104</ele>
        <time>2022-09-15T08:58:27.290Z</time>
      </trkpt>
      <trkpt lat="44.14224" lon="0.47934">
        <ele>104</ele>
        <time>2022-09-15T08:58:28.290Z</time>
      </trkpt>
      <trkpt lat="44.14224" lon="0.47936">
        <ele>104</ele>
        <time>2022-09-15T08:58:29.290Z</time>
      </trkpt>
      <trkpt lat="44.14224" lon="0.47938">
        <ele>105</ele>
        <time>2022-09-15T08:58:30.290Z</time>
      </trkpt>
      <trkpt lat="44.14224" lon="0.4794">
        <ele>104</ele>
        <time>2022-09-15T08:58:31.290Z</time>
      </trkpt>
      <trkpt lat="44.14224" lon="0.47941">
        <ele>105</ele>
        <time>2022-09-15T08:58:32.290Z</time>
      </trkpt>
      <trkpt lat="44.14224" lon="0.47943">
        <ele>105</ele>
        <time>2022-09-15T08:58:33.290Z</time>
      </trkpt>
      <trkpt lat="44.14224" lon="0.47944">
        <ele>105</ele>
        <time>2022-09-15T08:58:34.290Z</time>
      </trkpt>
      <trkpt lat="44.14223" lon="0.47946">
        <ele>105</ele>
        <time>2022-09-15T08:58:35.290Z</time>
      </trkpt>
      <trkpt lat="44.14223" lon="0.47948">
        <ele>105</ele>
        <time>2022-09-15T08:58:36.290Z</time>
      </trkpt>
      <trkpt lat="44.14224" lon="0.47949">
        <ele>105</ele>
        <time>2022-09-15T08:58:37.290Z</time>
      </trkpt>
      <trkpt lat="44.14224" lon="0.47951">
        <ele>105</ele>
        <time>2022-09-15T08:58:38.290Z</time>
      </trkpt>
      <trkpt lat="44.14224" lon="0.47952">
        <ele>105</ele>
        <time>2022-09-15T08:58:39.290Z</time>
      </trkpt>
      <trkpt lat="44.14224" lon="0.47954">
        <ele>105</ele>
        <time>2022-09-15T08:58:40.290Z</time>
      </trkpt>
      <trkpt lat="44.14224" lon="0.47955">
        <ele>105</ele>
        <time>2022-09-15T08:58:41.290Z</time>
      </trkpt>
      <trkpt lat="44.14224" lon="0.47957">
        <ele>105</ele>
        <time>2022-09-15T08:58:42.290Z</time>
      </trkpt>
      <trkpt lat="44.14224" lon="0.47958">
        <ele>105</ele>
        <time>2022-09-15T08:58:43.290Z</time>
      </trkpt>
      <trkpt lat="44.14224" lon="0.4796">
        <ele>106</ele>
        <time>2022-09-15T08:58:44.290Z</time>
      </trkpt>
      <trkpt lat="44.14224" lon="0.47961">
        <ele>106</ele>
        <time>2022-09-15T08:58:45.290Z</time>
      </trkpt>
      <trkpt lat="44.14225" lon="0.47963">
        <ele>106</ele>
        <time>2022-09-15T08:58:46.290Z</time>
      </trkpt>
      <trkpt lat="44.14224" lon="0.47964">
        <ele>106</ele>
        <time>2022-09-15T08:58:47.290Z</time>
      </trkpt>
      <trkpt lat="44.14225" lon="0.47966">
        <ele>106</ele>
        <time>2022-09-15T08:58:48.290Z</time>
      </trkpt>
      <trkpt lat="44.14225" lon="0.47967">
        <ele>106</ele>
        <time>2022-09-15T08:58:49.290Z</time>
      </trkpt>
      <trkpt lat="44.14225" lon="0.47969">
        <ele>106</ele>
        <time>2022-09-15T08:58:50.290Z</time>
      </trkpt>
      <trkpt lat="44.14225" lon="0.4797">
        <ele>106</ele>
        <time>2022-09-15T08:58:51.290Z</time>
      </trkpt>
      <trkpt lat="44.14225" lon="0.47972">
        <ele>106</ele>
        <time>2022-09-15T08:58:52.290Z</time>
      </trkpt>
      <trkpt lat="44.14225" lon="0.47973">
        <ele>106</ele>
        <time>2022-09-15T08:58:53.290Z</time>
      </trkpt>
      <trkpt lat="44.14225" lon="0.47975">
        <ele>106</ele>
        <time>2022-09-15T08:58:54.290Z</time>
      </trkpt>
      <trkpt lat="44.14225" lon="0.47977">
        <ele>106</ele>
        <time>2022-09-15T08:58:55.290Z</time>
      </trkpt>
      <trkpt lat="44.14225" lon="0.47978">
        <ele>106</ele>
        <time>2022-09-15T08:58:56.290Z</time>
      </trkpt>
      <trkpt lat="44.14225" lon="0.4798">
        <ele>107</ele>
        <time>2022-09-15T08:58:57.290Z</time>
      </trkpt>
      <trkpt lat="44.14225" lon="0.47981">
        <ele>107</ele>
        <time>2022-09-15T08:58:58.290Z</time>
      </trkpt>
      <trkpt lat="44.14225" lon="0.47983">
        <ele>107</ele>
        <time>2022-09-15T08:58:59.290Z</time>
      </trkpt>
      <trkpt lat="44.14225" lon="0.47984">
        <ele>107</ele>
        <time>2022-09-15T08:59:00.290Z</time>
      </trkpt>
      <trkpt lat="44.14226" lon="0.47986">
        <ele>107</ele>
        <time>2022-09-15T08:59:01.290Z</time>
      </trkpt>
      <trkpt lat="44.14226" lon="0.47987">
        <ele>107</ele>
        <time>2022-09-15T08:59:02.290Z</time>
      </trkpt>
      <trkpt lat="44.14226" lon="0.47988">
        <ele>107</ele>
        <time>2022-09-15T08:59:03.290Z</time>
      </trkpt>
      <trkpt lat="44.14226" lon="0.4799">
        <ele>108</ele>
        <time>2022-09-15T08:59:04.290Z</time>
      </trkpt>
      <trkpt lat="44.14226" lon="0.47991">
        <ele>108</ele>
        <time>2022-09-15T08:59:05.290Z</time>
      </trkpt>
      <trkpt lat="44.14226" lon="0.47993">
        <ele>108</ele>
        <time>2022-09-15T08:59:06.290Z</time>
      </trkpt>
      <trkpt lat="44.14226" lon="0.47994">
        <ele>108</ele>
        <time>2022-09-15T08:59:07.290Z</time>
      </trkpt>
      <trkpt lat="44.14227" lon="0.47995">
        <ele>108</ele>
        <time>2022-09-15T08:59:08.290Z</time>
      </trkpt>
      <trkpt lat="44.14227" lon="0.47997">
        <ele>108</ele>
        <time>2022-09-15T08:59:09.290Z</time>
      </trkpt>
      <trkpt lat="44.14227" lon="0.47999">
        <ele>108</ele>
        <time>2022-09-15T08:59:10.290Z</time>
      </trkpt>
      <trkpt lat="44.14227" lon="0.48">
        <ele>108</ele>
        <time>2022-09-15T08:59:11.290Z</time>
      </trkpt>
      <trkpt lat="44.14227" lon="0.48001">
        <ele>108</ele>
        <time>2022-09-15T08:59:12.290Z</time>
      </trkpt>
      <trkpt lat="44.14227" lon="0.48003">
        <ele>108</ele>
        <time>2022-09-15T08:59:13.290Z</time>
      </trkpt>
      <trkpt lat="44.14227" lon="0.48004">
        <ele>108</ele>
        <time>2022-09-15T08:59:14.290Z</time>
      </trkpt>
      <trkpt lat="44.14227" lon="0.48006">
        <ele>108</ele>
        <time>2022-09-15T08:59:15.290Z</time>
      </trkpt>
      <trkpt lat="44.14227" lon="0.48008">
        <ele>109</ele>
        <time>2022-09-15T08:59:16.290Z</time>
      </trkpt>
      <trkpt lat="44.14227" lon="0.48009">
        <ele>109</ele>
        <time>2022-09-15T08:59:17.290Z</time>
      </trkpt>
      <trkpt lat="44.14227" lon="0.48011">
        <ele>109</ele>
        <time>2022-09-15T08:59:18.290Z</time>
      </trkpt>
      <trkpt lat="44.14227" lon="0.48012">
        <ele>109</ele>
        <time>2022-09-15T08:59:19.290Z</time>
      </trkpt>
      <trkpt lat="44.14227" lon="0.48014">
        <ele>109</ele>
        <time>2022-09-15T08:59:20.290Z</time>
      </trkpt>
      <trkpt lat="44.14227" lon="0.48015">
        <ele>109</ele>
        <time>2022-09-15T08:59:21.290Z</time>
      </trkpt>
      <trkpt lat="44.14227" lon="0.48017">
        <ele>109</ele>
        <time>2022-09-15T08:59:22.290Z</time>
      </trkpt>
      <trkpt lat="44.14228" lon="0.48018">
        <ele>109</ele>
        <time>2022-09-15T08:59:23.290Z</time>
      </trkpt>
      <trkpt lat="44.14228" lon="0.48019">
        <ele>109</ele>
        <time>2022-09-15T08:59:24.290Z</time>
      </trkpt>
      <trkpt lat="44.14228" lon="0.48021">
        <ele>109</ele>
        <time>2022-09-15T08:59:25.290Z</time>
      </trkpt>
      <trkpt lat="44.14228" lon="0.48022">
        <ele>109</ele>
        <time>2022-09-15T08:59:26.290Z</time>
      </trkpt>
      <trkpt lat="44.14228" lon="0.48024">
        <ele>109</ele>
        <time>2022-09-15T08:59:27.290Z</time>
      </trkpt>
      <trkpt lat="44.14228" lon="0.48025">
        <ele>109</ele>
        <time>2022-09-15T08:59:28.290Z</time>
      </trkpt>
      <trkpt lat="44.14228" lon="0.48026">
        <ele>110</ele>
        <time>2022-09-15T08:59:29.290Z</time>
      </trkpt>
      <trkpt lat="44.14228" lon="0.48028">
        <ele>110</ele>
        <time>2022-09-15T08:59:30.290Z</time>
      </trkpt>
      <trkpt lat="44.14228" lon="0.4803">
        <ele>110</ele>
        <time>2022-09-15T08:59:31.290Z</time>
      </trkpt>
      <trkpt lat="44.14228" lon="0.48031">
        <ele>110</ele>
        <time>2022-09-15T08:59:32.290Z</time>
      </trkpt>
      <trkpt lat="44.14228" lon="0.48032">
        <ele>110</ele>
        <time>2022-09-15T08:59:33.290Z</time>
      </trkpt>
      <trkpt lat="44.14228" lon="0.48033">
        <ele>110</ele>
        <time>2022-09-15T08:59:34.290Z</time>
      </trkpt>
      <trkpt lat="44.14228" lon="0.48035">
        <ele>110</ele>
        <time>2022-09-15T08:59:35.290Z</time>
      </trkpt>
      <trkpt lat="44.14228" lon="0.48037">
        <ele>110</ele>
        <time>2022-09-15T08:59:36.290Z</time>
      </trkpt>
      <trkpt lat="44.14228" lon="0.48038">
        <ele>110</ele>
        <time>2022-09-15T08:59:37.290Z</time>
      </trkpt>
      <trkpt lat="44.14228" lon="0.4804">
        <ele>110</ele>
        <time>2022-09-15T08:59:38.290Z</time>
      </trkpt>
      <trkpt lat="44.14228" lon="0.48041">
        <ele>110</ele>
        <time>2022-09-15T08:59:39.290Z</time>
      </trkpt>
      <trkpt lat="44.14228" lon="0.48043">
        <ele>111</ele>
        <time>2022-09-15T08:59:40.290Z</time>
      </trkpt>
      <trkpt lat="44.14228" lon="0.48044">
        <ele>111</ele>
        <time>2022-09-15T08:59:41.290Z</time>
      </trkpt>
      <trkpt lat="44.14228" lon="0.48046">
        <ele>111</ele>
        <time>2022-09-15T08:59:42.290Z</time>
      </trkpt>
      <trkpt lat="44.14228" lon="0.48047">
        <ele>111</ele>
        <time>2022-09-15T08:59:43.290Z</time>
      </trkpt>
      <trkpt lat="44.14228" lon="0.48049">
        <ele>111</ele>
        <time>2022-09-15T08:59:44.290Z</time>
      </trkpt>
      <trkpt lat="44.14228" lon="0.4805">
        <ele>111</ele>
        <time>2022-09-15T08:59:45.290Z</time>
      </trkpt>
      <trkpt lat="44.14228" lon="0.48052">
        <ele>111</ele>
        <time>2022-09-15T08:59:46.290Z</time>
      </trkpt>
      <trkpt lat="44.14228" lon="0.48053">
        <ele>111</ele>
        <time>2022-09-15T08:59:47.290Z</time>
      </trkpt>
      <trkpt lat="44.14228" lon="0.48055">
        <ele>111</ele>
        <time>2022-09-15T08:59:48.290Z</time>
      </trkpt>
      <trkpt lat="44.14228" lon="0.48056">
        <ele>111</ele>
        <time>2022-09-15T08:59:49.290Z</time>
      </trkpt>
      <trkpt lat="44.14228" lon="0.48058">
        <ele>111</ele>
        <time>2022-09-15T08:59:50.290Z</time>
      </trkpt>
      <trkpt lat="44.14228" lon="0.48059">
        <ele>111</ele>
        <time>2022-09-15T08:59:51.290Z</time>
      </trkpt>
      <trkpt lat="44.14228" lon="0.48061">
        <ele>111</ele>
        <time>2022-09-15T08:59:52.290Z</time>
      </trkpt>
      <trkpt lat="44.14228" lon="0.48063">
        <ele>111</ele>
        <time>2022-09-15T08:59:53.290Z</time>
      </trkpt>
      <trkpt lat="44.14228" lon="0.48064">
        <ele>111</ele>
        <time>2022-09-15T08:59:54.290Z</time>
      </trkpt>
      <trkpt lat="44.14228" lon="0.48066">
        <ele>111</ele>
        <time>2022-09-15T08:59:55.290Z</time>
      </trkpt>
      <trkpt lat="44.14228" lon="0.48067">
        <ele>111</ele>
        <time>2022-09-15T08:59:56.290Z</time>
      </trkpt>
      <trkpt lat="44.14228" lon="0.48068">
        <ele>111</ele>
        <time>2022-09-15T08:59:57.290Z</time>
      </trkpt>
      <trkpt lat="44.14228" lon="0.4807">
        <ele>111</ele>
        <time>2022-09-15T08:59:58.290Z</time>
      </trkpt>
      <trkpt lat="44.14228" lon="0.48071">
        <ele>111</ele>
        <time>2022-09-15T08:59:59.290Z</time>
      </trkpt>
      <trkpt lat="44.14228" lon="0.48073">
        <ele>111</ele>
        <time>2022-09-15T09:00:00.290Z</time>
      </trkpt>
      <trkpt lat="44.14228" lon="0.48074">
        <ele>111</ele>
        <time>2022-09-15T09:00:01.290Z</time>
      </trkpt>
      <trkpt lat="44.14228" lon="0.48075">
        <ele>111</ele>
        <time>2022-09-15T09:00:02.290Z</time>
      </trkpt>
      <trkpt lat="44.14228" lon="0.48076">
        <ele>112</ele>
        <time>2022-09-15T09:00:03.290Z</time>
      </trkpt>
      <trkpt lat="44.14228" lon="0.48078">
        <ele>112</ele>
        <time>2022-09-15T09:00:04.290Z</time>
      </trkpt>
      <trkpt lat="44.14228" lon="0.48079">
        <ele>112</ele>
        <time>2022-09-15T09:00:05.290Z</time>
      </trkpt>
      <trkpt lat="44.14228" lon="0.4808">
        <ele>112</ele>
        <time>2022-09-15T09:00:06.290Z</time>
      </trkpt>
      <trkpt lat="44.14229" lon="0.48081">
        <ele>112</ele>
        <time>2022-09-15T09:00:07.290Z</time>
      </trkpt>
      <trkpt lat="44.14229" lon="0.48082">
        <ele>113</ele>
        <time>2022-09-15T09:00:08.290Z</time>
      </trkpt>
      <trkpt lat="44.14229" lon="0.48084">
        <ele>113</ele>
        <time>2022-09-15T09:00:09.290Z</time>
      </trkpt>
      <trkpt lat="44.14229" lon="0.48085">
        <ele>113</ele>
        <time>2022-09-15T09:00:10.290Z</time>
      </trkpt>
      <trkpt lat="44.14229" lon="0.48087">
        <ele>113</ele>
        <time>2022-09-15T09:00:11.290Z</time>
      </trkpt>
      <trkpt lat="44.14229" lon="0.48088">
        <ele>113</ele>
        <time>2022-09-15T09:00:12.290Z</time>
      </trkpt>
      <trkpt lat="44.14229" lon="0.4809">
        <ele>113</ele>
        <time>2022-09-15T09:00:13.290Z</time>
      </trkpt>
      <trkpt lat="44.14229" lon="0.48091">
        <ele>113</ele>
        <time>2022-09-15T09:00:14.290Z</time>
      </trkpt>
      <trkpt lat="44.14229" lon="0.48092">
        <ele>114</ele>
        <time>2022-09-15T09:00:15.290Z</time>
      </trkpt>
      <trkpt lat="44.14229" lon="0.48094">
        <ele>114</ele>
        <time>2022-09-15T09:00:16.290Z</time>
      </trkpt>
      <trkpt lat="44.14229" lon="0.48095">
        <ele>114</ele>
        <time>2022-09-15T09:00:17.290Z</time>
      </trkpt>
      <trkpt lat="44.14229" lon="0.48097">
        <ele>114</ele>
        <time>2022-09-15T09:00:18.290Z</time>
      </trkpt>
      <trkpt lat="44.14229" lon="0.48098">
        <ele>114</ele>
        <time>2022-09-15T09:00:19.290Z</time>
      </trkpt>
      <trkpt lat="44.14229" lon="0.48099">
        <ele>114</ele>
        <time>2022-09-15T09:00:20.290Z</time>
      </trkpt>
      <trkpt lat="44.14229" lon="0.48101">
        <ele>114</ele>
        <time>2022-09-15T09:00:21.290Z</time>
      </trkpt>
      <trkpt lat="44.14229" lon="0.48103">
        <ele>114</ele>
        <time>2022-09-15T09:00:22.290Z</time>
      </trkpt>
      <trkpt lat="44.14229" lon="0.48104">
        <ele>114</ele>
        <time>2022-09-15T09:00:23.290Z</time>
      </trkpt>
      <trkpt lat="44.1423" lon="0.48105">
        <ele>114</ele>
        <time>2022-09-15T09:00:24.290Z</time>
      </trkpt>
      <trkpt lat="44.1423" lon="0.48106">
        <ele>115</ele>
        <time>2022-09-15T09:00:25.290Z</time>
      </trkpt>
      <trkpt lat="44.1423" lon="0.48108">
        <ele>115</ele>
        <time>2022-09-15T09:00:26.290Z</time>
      </trkpt>
      <trkpt lat="44.1423" lon="0.48109">
        <ele>115</ele>
        <time>2022-09-15T09:00:27.290Z</time>
      </trkpt>
      <trkpt lat="44.1423" lon="0.48111">
        <ele>115</ele>
        <time>2022-09-15T09:00:28.290Z</time>
      </trkpt>
      <trkpt lat="44.14231" lon="0.48112">
        <ele>115</ele>
        <time>2022-09-15T09:00:29.290Z</time>
      </trkpt>
      <trkpt lat="44.14231" lon="0.48113">
        <ele>115</ele>
        <time>2022-09-15T09:00:30.290Z</time>
      </trkpt>
      <trkpt lat="44.14231" lon="0.48115">
        <ele>115</ele>
        <time>2022-09-15T09:00:31.290Z</time>
      </trkpt>
      <trkpt lat="44.1423" lon="0.48116">
        <ele>115</ele>
        <time>2022-09-15T09:00:32.290Z</time>
      </trkpt>
      <trkpt lat="44.1423" lon="0.48118">
        <ele>115</ele>
        <time>2022-09-15T09:00:33.290Z</time>
      </trkpt>
      <trkpt lat="44.1423" lon="0.48119">
        <ele>115</ele>
        <time>2022-09-15T09:00:34.290Z</time>
      </trkpt>
      <trkpt lat="44.1423" lon="0.4812">
        <ele>115</ele>
        <time>2022-09-15T09:00:35.290Z</time>
      </trkpt>
      <trkpt lat="44.14229" lon="0.48122">
        <ele>115</ele>
        <time>2022-09-15T09:00:36.290Z</time>
      </trkpt>
      <trkpt lat="44.14229" lon="0.48123">
        <ele>115</ele>
        <time>2022-09-15T09:00:37.290Z</time>
      </trkpt>
      <trkpt lat="44.14229" lon="0.48124">
        <ele>115</ele>
        <time>2022-09-15T09:00:38.290Z</time>
      </trkpt>
      <trkpt lat="44.14229" lon="0.48125">
        <ele>115</ele>
        <time>2022-09-15T09:00:39.290Z</time>
      </trkpt>
      <trkpt lat="44.14229" lon="0.48127">
        <ele>115</ele>
        <time>2022-09-15T09:00:40.290Z</time>
      </trkpt>
      <trkpt lat="44.14228" lon="0.48128">
        <ele>115</ele>
        <time>2022-09-15T09:00:41.290Z</time>
      </trkpt>
      <trkpt lat="44.14228" lon="0.48129">
        <ele>115</ele>
        <time>2022-09-15T09:00:42.290Z</time>
      </trkpt>
      <trkpt lat="44.14228" lon="0.4813">
        <ele>115</ele>
        <time>2022-09-15T09:00:43.290Z</time>
      </trkpt>
      <trkpt lat="44.14228" lon="0.48131">
        <ele>116</ele>
        <time>2022-09-15T09:00:44.290Z</time>
      </trkpt>
      <trkpt lat="44.14228" lon="0.48132">
        <ele>115</ele>
        <time>2022-09-15T09:00:45.290Z</time>
      </trkpt>
      <trkpt lat="44.14227" lon="0.48133">
        <ele>115</ele>
        <time>2022-09-15T09:00:46.290Z</time>
      </trkpt>
      <trkpt lat="44.14227" lon="0.48134">
        <ele>116</ele>
        <time>2022-09-15T09:00:47.290Z</time>
      </trkpt>
      <trkpt lat="44.14227" lon="0.48136">
        <ele>116</ele>
        <time>2022-09-15T09:00:48.290Z</time>
      </trkpt>
      <trkpt lat="44.14226" lon="0.48137">
        <ele>115</ele>
        <time>2022-09-15T09:00:49.290Z</time>
      </trkpt>
      <trkpt lat="44.14226" lon="0.48137">
        <ele>116</ele>
        <time>2022-09-15T09:00:50.290Z</time>
      </trkpt>
      <trkpt lat="44.14226" lon="0.48137">
        <ele>116</ele>
        <time>2022-09-15T09:00:51.290Z</time>
      </trkpt>
      <trkpt lat="44.14226" lon="0.48137">
        <ele>116</ele>
        <time>2022-09-15T09:00:52.290Z</time>
      </trkpt>
      <trkpt lat="44.14226" lon="0.48137">
        <ele>116</ele>
        <time>2022-09-15T09:00:53.290Z</time>
      </trkpt>
      <trkpt lat="44.14226" lon="0.48137">
        <ele>116</ele>
        <time>2022-09-15T09:00:54.290Z</time>
      </trkpt>
      <trkpt lat="44.14226" lon="0.48137">
        <ele>116</ele>
        <time>2022-09-15T09:00:55.290Z</time>
      </trkpt>
      <trkpt lat="44.14226" lon="0.48138">
        <ele>116</ele>
        <time>2022-09-15T09:00:56.290Z</time>
      </trkpt>
      <trkpt lat="44.14226" lon="0.48138">
        <ele>116</ele>
        <time>2022-09-15T09:00:57.290Z</time>
      </trkpt>
      <trkpt lat="44.14225" lon="0.48138">
        <ele>116</ele>
        <time>2022-09-15T09:01:04.309Z</time>
      </trkpt>
      <trkpt lat="44.14225" lon="0.48138">
        <ele>117</ele>
        <time>2022-09-15T09:01:05.309Z</time>
      </trkpt>
      <trkpt lat="44.14225" lon="0.48138">
        <ele>117</ele>
        <time>2022-09-15T09:01:06.309Z</time>
      </trkpt>
      <trkpt lat="44.14225" lon="0.48138">
        <ele>117</ele>
        <time>2022-09-15T09:01:07.309Z</time>
      </trkpt>
      <trkpt lat="44.14225" lon="0.48138">
        <ele>117</ele>
        <time>2022-09-15T09:01:08.309Z</time>
      </trkpt>
      <trkpt lat="44.14225" lon="0.48138">
        <ele>117</ele>
        <time>2022-09-15T09:01:09.309Z</time>
      </trkpt>
      <trkpt lat="44.14226" lon="0.48138">
        <ele>117</ele>
        <time>2022-09-15T09:01:10.309Z</time>
      </trkpt>
      <trkpt lat="44.14226" lon="0.48138">
        <ele>117</ele>
        <time>2022-09-15T09:01:11.309Z</time>
      </trkpt>
      <trkpt lat="44.14224" lon="0.48136">
        <ele>117</ele>
        <time>2022-09-15T09:01:26.317Z</time>
      </trkpt>
      <trkpt lat="44.14224" lon="0.48136">
        <ele>117</ele>
        <time>2022-09-15T09:01:27.317Z</time>
      </trkpt>
      <trkpt lat="44.14224" lon="0.48136">
        <ele>117</ele>
        <time>2022-09-15T09:01:28.317Z</time>
      </trkpt>
      <trkpt lat="44.14224" lon="0.48136">
        <ele>118</ele>
        <time>2022-09-15T09:01:29.317Z</time>
      </trkpt>
      <trkpt lat="44.14223" lon="0.48135">
        <ele>118</ele>
        <time>2022-09-15T09:01:30.317Z</time>
      </trkpt>
      <trkpt lat="44.14223" lon="0.48135">
        <ele>118</ele>
        <time>2022-09-15T09:01:31.317Z</time>
      </trkpt>
      <trkpt lat="44.14223" lon="0.48135">
        <ele>118</ele>
        <time>2022-09-15T09:01:32.317Z</time>
      </trkpt>
      <trkpt lat="44.14223" lon="0.48135">
        <ele>118</ele>
        <time>2022-09-15T09:01:33.317Z</time>
      </trkpt>
      <trkpt lat="44.14226" lon="0.48137">
        <ele>119</ele>
        <time>2022-09-15T09:02:12.821Z</time>
      </trkpt>
      <trkpt lat="44.14226" lon="0.48137">
        <ele>119</ele>
        <time>2022-09-15T09:02:13.821Z</time>
      </trkpt>
      <trkpt lat="44.14226" lon="0.48138">
        <ele>119</ele>
        <time>2022-09-15T09:02:14.821Z</time>
      </trkpt>
      <trkpt lat="44.14226" lon="0.48139">
        <ele>118</ele>
        <time>2022-09-15T09:02:15.821Z</time>
      </trkpt>
      <trkpt lat="44.14225" lon="0.4814">
        <ele>118</ele>
        <time>2022-09-15T09:02:16.821Z</time>
      </trkpt>
      <trkpt lat="44.14225" lon="0.48141">
        <ele>118</ele>
        <time>2022-09-15T09:02:17.821Z</time>
      </trkpt>
      <trkpt lat="44.14225" lon="0.48141">
        <ele>117</ele>
        <time>2022-09-15T09:02:18.821Z</time>
      </trkpt>
      <trkpt lat="44.14224" lon="0.48141">
        <ele>117</ele>
        <time>2022-09-15T09:02:19.821Z</time>
      </trkpt>
      <trkpt lat="44.14224" lon="0.48141">
        <ele>117</ele>
        <time>2022-09-15T09:02:20.821Z</time>
      </trkpt>
      <trkpt lat="44.14224" lon="0.48141">
        <ele>116</ele>
        <time>2022-09-15T09:02:21.821Z</time>
      </trkpt>
      <trkpt lat="44.14224" lon="0.48141">
        <ele>117</ele>
        <time>2022-09-15T09:02:22.821Z</time>
      </trkpt>
      <trkpt lat="44.14224" lon="0.48141">
        <ele>116</ele>
        <time>2022-09-15T09:02:23.821Z</time>
      </trkpt>
      <trkpt lat="44.14226" lon="0.48145">
        <ele>117</ele>
        <time>2022-09-15T09:02:29.825Z</time>
      </trkpt>
      <trkpt lat="44.14227" lon="0.48146">
        <ele>117</ele>
        <time>2022-09-15T09:02:30.825Z</time>
      </trkpt>
      <trkpt lat="44.14227" lon="0.48147">
        <ele>118</ele>
        <time>2022-09-15T09:02:31.825Z</time>
      </trkpt>
      <trkpt lat="44.14227" lon="0.48148">
        <ele>117</ele>
        <time>2022-09-15T09:02:32.825Z</time>
      </trkpt>
      <trkpt lat="44.14227" lon="0.4815">
        <ele>117</ele>
        <time>2022-09-15T09:02:33.825Z</time>
      </trkpt>
      <trkpt lat="44.14227" lon="0.48151">
        <ele>118</ele>
        <time>2022-09-15T09:02:34.825Z</time>
      </trkpt>
      <trkpt lat="44.14227" lon="0.48152">
        <ele>117</ele>
        <time>2022-09-15T09:02:35.825Z</time>
      </trkpt>
      <trkpt lat="44.14228" lon="0.48154">
        <ele>117</ele>
        <time>2022-09-15T09:02:36.825Z</time>
      </trkpt>
      <trkpt lat="44.14228" lon="0.48156">
        <ele>117</ele>
        <time>2022-09-15T09:02:37.825Z</time>
      </trkpt>
      <trkpt lat="44.14228" lon="0.48158">
        <ele>117</ele>
        <time>2022-09-15T09:02:38.825Z</time>
      </trkpt>
      <trkpt lat="44.14228" lon="0.48159">
        <ele>116</ele>
        <time>2022-09-15T09:02:39.825Z</time>
      </trkpt>
      <trkpt lat="44.14227" lon="0.48161">
        <ele>116</ele>
        <time>2022-09-15T09:02:40.825Z</time>
      </trkpt>
      <trkpt lat="44.14227" lon="0.48163">
        <ele>116</ele>
        <time>2022-09-15T09:02:41.825Z</time>
      </trkpt>
      <trkpt lat="44.14227" lon="0.48164">
        <ele>116</ele>
        <time>2022-09-15T09:02:42.825Z</time>
      </trkpt>
      <trkpt lat="44.14227" lon="0.48166">
        <ele>116</ele>
        <time>2022-09-15T09:02:43.825Z</time>
      </trkpt>
      <trkpt lat="44.14227" lon="0.48167">
        <ele>117</ele>
        <time>2022-09-15T09:02:44.825Z</time>
      </trkpt>
      <trkpt lat="44.14226" lon="0.48169">
        <ele>116</ele>
        <time>2022-09-15T09:02:45.825Z</time>
      </trkpt>
      <trkpt lat="44.14226" lon="0.48171">
        <ele>116</ele>
        <time>2022-09-15T09:02:46.825Z</time>
      </trkpt>
      <trkpt lat="44.14225" lon="0.48172">
        <ele>116</ele>
        <time>2022-09-15T09:02:47.825Z</time>
      </trkpt>
      <trkpt lat="44.14225" lon="0.48173">
        <ele>116</ele>
        <time>2022-09-15T09:02:48.825Z</time>
      </trkpt>
      <trkpt lat="44.14225" lon="0.48174">
        <ele>117</ele>
        <time>2022-09-15T09:02:49.825Z</time>
      </trkpt>
      <trkpt lat="44.14225" lon="0.48176">
        <ele>117</ele>
        <time>2022-09-15T09:02:50.825Z</time>
      </trkpt>
      <trkpt lat="44.14224" lon="0.48177">
        <ele>117</ele>
        <time>2022-09-15T09:02:51.825Z</time>
      </trkpt>
      <trkpt lat="44.14224" lon="0.48179">
        <ele>117</ele>
        <time>2022-09-15T09:02:52.825Z</time>
      </trkpt>
      <trkpt lat="44.14224" lon="0.48181">
        <ele>117</ele>
        <time>2022-09-15T09:02:53.825Z</time>
      </trkpt>
      <trkpt lat="44.14224" lon="0.48182">
        <ele>117</ele>
        <time>2022-09-15T09:02:54.825Z</time>
      </trkpt>
      <trkpt lat="44.14224" lon="0.48184">
        <ele>117</ele>
        <time>2022-09-15T09:02:55.825Z</time>
      </trkpt>
      <trkpt lat="44.14224" lon="0.48186">
        <ele>117</ele>
        <time>2022-09-15T09:02:56.825Z</time>
      </trkpt>
      <trkpt lat="44.14224" lon="0.48187">
        <ele>117</ele>
        <time>2022-09-15T09:02:57.825Z</time>
      </trkpt>
      <trkpt lat="44.14224" lon="0.48189">
        <ele>117</ele>
        <time>2022-09-15T09:02:58.825Z</time>
      </trkpt>
      <trkpt lat="44.14224" lon="0.4819">
        <ele>118</ele>
        <time>2022-09-15T09:02:59.825Z</time>
      </trkpt>
      <trkpt lat="44.14224" lon="0.48191">
        <ele>117</ele>
        <time>2022-09-15T09:03:00.825Z</time>
      </trkpt>
      <trkpt lat="44.14224" lon="0.48193">
        <ele>118</ele>
        <time>2022-09-15T09:03:01.825Z</time>
      </trkpt>
      <trkpt lat="44.14224" lon="0.48195">
        <ele>118</ele>
        <time>2022-09-15T09:03:02.825Z</time>
      </trkpt>
      <trkpt lat="44.14224" lon="0.48196">
        <ele>118</ele>
        <time>2022-09-15T09:03:03.825Z</time>
      </trkpt>
      <trkpt lat="44.14224" lon="0.48198">
        <ele>118</ele>
        <time>2022-09-15T09:03:04.825Z</time>
      </trkpt>
      <trkpt lat="44.14224" lon="0.48199">
        <ele>118</ele>
        <time>2022-09-15T09:03:05.825Z</time>
      </trkpt>
      <trkpt lat="44.14224" lon="0.48201">
        <ele>118</ele>
        <time>2022-09-15T09:03:06.825Z</time>
      </trkpt>
      <trkpt lat="44.14223" lon="0.48203">
        <ele>119</ele>
        <time>2022-09-15T09:03:07.825Z</time>
      </trkpt>
      <trkpt lat="44.14223" lon="0.48205">
        <ele>119</ele>
        <time>2022-09-15T09:03:08.825Z</time>
      </trkpt>
      <trkpt lat="44.14224" lon="0.48206">
        <ele>119</ele>
        <time>2022-09-15T09:03:09.825Z</time>
      </trkpt>
      <trkpt lat="44.14224" lon="0.48208">
        <ele>119</ele>
        <time>2022-09-15T09:03:10.825Z</time>
      </trkpt>
      <trkpt lat="44.14224" lon="0.4821">
        <ele>119</ele>
        <time>2022-09-15T09:03:11.825Z</time>
      </trkpt>
      <trkpt lat="44.14224" lon="0.48211">
        <ele>120</ele>
        <time>2022-09-15T09:03:12.825Z</time>
      </trkpt>
      <trkpt lat="44.14223" lon="0.48213">
        <ele>120</ele>
        <time>2022-09-15T09:03:13.825Z</time>
      </trkpt>
      <trkpt lat="44.14223" lon="0.48214">
        <ele>120</ele>
        <time>2022-09-15T09:03:14.825Z</time>
      </trkpt>
      <trkpt lat="44.14223" lon="0.48216">
        <ele>120</ele>
        <time>2022-09-15T09:03:15.825Z</time>
      </trkpt>
      <trkpt lat="44.14223" lon="0.48218">
        <ele>121</ele>
        <time>2022-09-15T09:03:16.825Z</time>
      </trkpt>
      <trkpt lat="44.14223" lon="0.4822">
        <ele>121</ele>
        <time>2022-09-15T09:03:17.825Z</time>
      </trkpt>
      <trkpt lat="44.14223" lon="0.48221">
        <ele>121</ele>
        <time>2022-09-15T09:03:18.825Z</time>
      </trkpt>
      <trkpt lat="44.14223" lon="0.48223">
        <ele>121</ele>
        <time>2022-09-15T09:03:19.825Z</time>
      </trkpt>
      <trkpt lat="44.14223" lon="0.48224">
        <ele>121</ele>
        <time>2022-09-15T09:03:20.825Z</time>
      </trkpt>
      <trkpt lat="44.14223" lon="0.48225">
        <ele>121</ele>
        <time>2022-09-15T09:03:21.825Z</time>
      </trkpt>
      <trkpt lat="44.14223" lon="0.48227">
        <ele>121</ele>
        <time>2022-09-15T09:03:22.825Z</time>
      </trkpt>
      <trkpt lat="44.14223" lon="0.48228">
        <ele>121</ele>
        <time>2022-09-15T09:03:23.825Z</time>
      </trkpt>
      <trkpt lat="44.14223" lon="0.4823">
        <ele>121</ele>
        <time>2022-09-15T09:03:24.825Z</time>
      </trkpt>
      <trkpt lat="44.14223" lon="0.48231">
        <ele>121</ele>
        <time>2022-09-15T09:03:25.825Z</time>
      </trkpt>
      <trkpt lat="44.14222" lon="0.48233">
        <ele>121</ele>
        <time>2022-09-15T09:03:26.825Z</time>
      </trkpt>
      <trkpt lat="44.14222" lon="0.48234">
        <ele>121</ele>
        <time>2022-09-15T09:03:27.825Z</time>
      </trkpt>
      <trkpt lat="44.14222" lon="0.48236">
        <ele>121</ele>
        <time>2022-09-15T09:03:28.825Z</time>
      </trkpt>
      <trkpt lat="44.14222" lon="0.48237">
        <ele>121</ele>
        <time>2022-09-15T09:03:29.825Z</time>
      </trkpt>
      <trkpt lat="44.14222" lon="0.48239">
        <ele>121</ele>
        <time>2022-09-15T09:03:30.825Z</time>
      </trkpt>
      <trkpt lat="44.14222" lon="0.4824">
        <ele>121</ele>
        <time>2022-09-15T09:03:31.825Z</time>
      </trkpt>
      <trkpt lat="44.14222" lon="0.48242">
        <ele>121</ele>
        <time>2022-09-15T09:03:32.825Z</time>
      </trkpt>
      <trkpt lat="44.14222" lon="0.48244">
        <ele>122</ele>
        <time>2022-09-15T09:03:33.825Z</time>
      </trkpt>
      <trkpt lat="44.14222" lon="0.48245">
        <ele>121</ele>
        <time>2022-09-15T09:03:34.825Z</time>
      </trkpt>
      <trkpt lat="44.14222" lon="0.48246">
        <ele>121</ele>
        <time>2022-09-15T09:03:35.825Z</time>
      </trkpt>
      <trkpt lat="44.14222" lon="0.48248">
        <ele>121</ele>
        <time>2022-09-15T09:03:36.825Z</time>
      </trkpt>
      <trkpt lat="44.14222" lon="0.48249">
        <ele>122</ele>
        <time>2022-09-15T09:03:37.825Z</time>
      </trkpt>
      <trkpt lat="44.14222" lon="0.4825">
        <ele>121</ele>
        <time>2022-09-15T09:03:38.825Z</time>
      </trkpt>
      <trkpt lat="44.14222" lon="0.48252">
        <ele>122</ele>
        <time>2022-09-15T09:03:39.825Z</time>
      </trkpt>
      <trkpt lat="44.14222" lon="0.48253">
        <ele>122</ele>
        <time>2022-09-15T09:03:40.825Z</time>
      </trkpt>
      <trkpt lat="44.14222" lon="0.48255">
        <ele>122</ele>
        <time>2022-09-15T09:03:41.825Z</time>
      </trkpt>
      <trkpt lat="44.14222" lon="0.48256">
        <ele>122</ele>
        <time>2022-09-15T09:03:42.825Z</time>
      </trkpt>
      <trkpt lat="44.14222" lon="0.48256">
        <ele>122</ele>
        <time>2022-09-15T09:03:43.825Z</time>
      </trkpt>
      <trkpt lat="44.14222" lon="0.48256">
        <ele>121</ele>
        <time>2022-09-15T09:03:44.825Z</time>
      </trkpt>
      <trkpt lat="44.14222" lon="0.48256">
        <ele>121</ele>
        <time>2022-09-15T09:03:45.825Z</time>
      </trkpt>
      <trkpt lat="44.14221" lon="0.48255">
        <ele>121</ele>
        <time>2022-09-15T09:03:46.825Z</time>
      </trkpt>
      <trkpt lat="44.14221" lon="0.48255">
        <ele>120</ele>
        <time>2022-09-15T09:03:47.825Z</time>
      </trkpt>
      <trkpt lat="44.1422" lon="0.48255">
        <ele>120</ele>
        <time>2022-09-15T09:03:48.825Z</time>
      </trkpt>
      <trkpt lat="44.1422" lon="0.48254">
        <ele>121</ele>
        <time>2022-09-15T09:03:49.825Z</time>
      </trkpt>
      <trkpt lat="44.14219" lon="0.48253">
        <ele>121</ele>
        <time>2022-09-15T09:03:50.825Z</time>
      </trkpt>
      <trkpt lat="44.14218" lon="0.48253">
        <ele>120</ele>
        <time>2022-09-15T09:03:51.825Z</time>
      </trkpt>
      <trkpt lat="44.14217" lon="0.48253">
        <ele>120</ele>
        <time>2022-09-15T09:03:52.825Z</time>
      </trkpt>
      <trkpt lat="44.14216" lon="0.48252">
        <ele>121</ele>
        <time>2022-09-15T09:03:53.825Z</time>
      </trkpt>
      <trkpt lat="44.14215" lon="0.48252">
        <ele>120</ele>
        <time>2022-09-15T09:03:54.825Z</time>
      </trkpt>
      <trkpt lat="44.14214" lon="0.48252">
        <ele>120</ele>
        <time>2022-09-15T09:03:55.825Z</time>
      </trkpt>
      <trkpt lat="44.14212" lon="0.48251">
        <ele>120</ele>
        <time>2022-09-15T09:03:56.825Z</time>
      </trkpt>
      <trkpt lat="44.14211" lon="0.48251">
        <ele>120</ele>
        <time>2022-09-15T09:03:57.825Z</time>
      </trkpt>
      <trkpt lat="44.1421" lon="0.48251">
        <ele>120</ele>
        <time>2022-09-15T09:03:58.825Z</time>
      </trkpt>
      <trkpt lat="44.14209" lon="0.48251">
        <ele>120</ele>
        <time>2022-09-15T09:03:59.825Z</time>
      </trkpt>
      <trkpt lat="44.14208" lon="0.48251">
        <ele>119</ele>
        <time>2022-09-15T09:04:00.825Z</time>
      </trkpt>
      <trkpt lat="44.14207" lon="0.48251">
        <ele>120</ele>
        <time>2022-09-15T09:04:01.825Z</time>
      </trkpt>
      <trkpt lat="44.14205" lon="0.4825">
        <ele>119</ele>
        <time>2022-09-15T09:04:02.825Z</time>
      </trkpt>
      <trkpt lat="44.14204" lon="0.4825">
        <ele>119</ele>
        <time>2022-09-15T09:04:03.825Z</time>
      </trkpt>
      <trkpt lat="44.14203" lon="0.4825">
        <ele>119</ele>
        <time>2022-09-15T09:04:04.825Z</time>
      </trkpt>
      <trkpt lat="44.14202" lon="0.4825">
        <ele>119</ele>
        <time>2022-09-15T09:04:05.825Z</time>
      </trkpt>
      <trkpt lat="44.14201" lon="0.48249">
        <ele>119</ele>
        <time>2022-09-15T09:04:06.825Z</time>
      </trkpt>
      <trkpt lat="44.14199" lon="0.48249">
        <ele>119</ele>
        <time>2022-09-15T09:04:07.825Z</time>
      </trkpt>
      <trkpt lat="44.14198" lon="0.48248">
        <ele>119</ele>
        <time>2022-09-15T09:04:08.825Z</time>
      </trkpt>
      <trkpt lat="44.14197" lon="0.48248">
        <ele>119</ele>
        <time>2022-09-15T09:04:09.825Z</time>
      </trkpt>
      <trkpt lat="44.14196" lon="0.48248">
        <ele>118</ele>
        <time>2022-09-15T09:04:10.825Z</time>
      </trkpt>
      <trkpt lat="44.14195" lon="0.48248">
        <ele>119</ele>
        <time>2022-09-15T09:04:11.825Z</time>
      </trkpt>
      <trkpt lat="44.14194" lon="0.48248">
        <ele>118</ele>
        <time>2022-09-15T09:04:12.825Z</time>
      </trkpt>
      <trkpt lat="44.14193" lon="0.48247">
        <ele>118</ele>
        <time>2022-09-15T09:04:13.825Z</time>
      </trkpt>
      <trkpt lat="44.14192" lon="0.48247">
        <ele>118</ele>
        <time>2022-09-15T09:04:14.825Z</time>
      </trkpt>
      <trkpt lat="44.14191" lon="0.48246">
        <ele>118</ele>
        <time>2022-09-15T09:04:15.825Z</time>
      </trkpt>
      <trkpt lat="44.14191" lon="0.48246">
        <ele>118</ele>
        <time>2022-09-15T09:04:16.825Z</time>
      </trkpt>
      <trkpt lat="44.1419" lon="0.48246">
        <ele>118</ele>
        <time>2022-09-15T09:04:17.825Z</time>
      </trkpt>
      <trkpt lat="44.14189" lon="0.48246">
        <ele>117</ele>
        <time>2022-09-15T09:04:18.825Z</time>
      </trkpt>
      <trkpt lat="44.14189" lon="0.48245">
        <ele>117</ele>
        <time>2022-09-15T09:04:19.825Z</time>
      </trkpt>
      <trkpt lat="44.14188" lon="0.48245">
        <ele>118</ele>
        <time>2022-09-15T09:04:20.825Z</time>
      </trkpt>
      <trkpt lat="44.14187" lon="0.48245">
        <ele>118</ele>
        <time>2022-09-15T09:04:21.825Z</time>
      </trkpt>
      <trkpt lat="44.14185" lon="0.48244">
        <ele>117</ele>
        <time>2022-09-15T09:04:22.825Z</time>
      </trkpt>
      <trkpt lat="44.14184" lon="0.48244">
        <ele>117</ele>
        <time>2022-09-15T09:04:23.825Z</time>
      </trkpt>
      <trkpt lat="44.14183" lon="0.48244">
        <ele>117</ele>
        <time>2022-09-15T09:04:24.825Z</time>
      </trkpt>
      <trkpt lat="44.14182" lon="0.48243">
        <ele>118</ele>
        <time>2022-09-15T09:04:25.825Z</time>
      </trkpt>
      <trkpt lat="44.14181" lon="0.48243">
        <ele>118</ele>
        <time>2022-09-15T09:04:26.825Z</time>
      </trkpt>
      <trkpt lat="44.1418" lon="0.48243">
        <ele>117</ele>
        <time>2022-09-15T09:04:27.825Z</time>
      </trkpt>
      <trkpt lat="44.1418" lon="0.48243">
        <ele>117</ele>
        <time>2022-09-15T09:04:28.825Z</time>
      </trkpt>
      <trkpt lat="44.14179" lon="0.48243">
        <ele>117</ele>
        <time>2022-09-15T09:04:29.825Z</time>
      </trkpt>
      <trkpt lat="44.14178" lon="0.48242">
        <ele>117</ele>
        <time>2022-09-15T09:04:30.825Z</time>
      </trkpt>
      <trkpt lat="44.14177" lon="0.48242">
        <ele>117</ele>
        <time>2022-09-15T09:04:31.825Z</time>
      </trkpt>
      <trkpt lat="44.14176" lon="0.48242">
        <ele>117</ele>
        <time>2022-09-15T09:04:32.825Z</time>
      </trkpt>
      <trkpt lat="44.14175" lon="0.48241">
        <ele>116</ele>
        <time>2022-09-15T09:04:33.825Z</time>
      </trkpt>
      <trkpt lat="44.14174" lon="0.48241">
        <ele>116</ele>
        <time>2022-09-15T09:04:34.825Z</time>
      </trkpt>
      <trkpt lat="44.14173" lon="0.48241">
        <ele>116</ele>
        <time>2022-09-15T09:04:35.825Z</time>
      </trkpt>
      <trkpt lat="44.14172" lon="0.4824">
        <ele>116</ele>
        <time>2022-09-15T09:04:36.825Z</time>
      </trkpt>
      <trkpt lat="44.14171" lon="0.4824">
        <ele>115</ele>
        <time>2022-09-15T09:04:37.825Z</time>
      </trkpt>
      <trkpt lat="44.1417" lon="0.4824">
        <ele>115</ele>
        <time>2022-09-15T09:04:38.825Z</time>
      </trkpt>
      <trkpt lat="44.14169" lon="0.48239">
        <ele>115</ele>
        <time>2022-09-15T09:04:39.825Z</time>
      </trkpt>
      <trkpt lat="44.14168" lon="0.48239">
        <ele>115</ele>
        <time>2022-09-15T09:04:40.825Z</time>
      </trkpt>
      <trkpt lat="44.14167" lon="0.48238">
        <ele>115</ele>
        <time>2022-09-15T09:04:41.825Z</time>
      </trkpt>
      <trkpt lat="44.14166" lon="0.48238">
        <ele>115</ele>
        <time>2022-09-15T09:04:42.825Z</time>
      </trkpt>
      <trkpt lat="44.14165" lon="0.48237">
        <ele>114</ele>
        <time>2022-09-15T09:04:43.825Z</time>
      </trkpt>
      <trkpt lat="44.14164" lon="0.48237">
        <ele>114</ele>
        <time>2022-09-15T09:04:44.825Z</time>
      </trkpt>
      <trkpt lat="44.14163" lon="0.48236">
        <ele>113</ele>
        <time>2022-09-15T09:04:45.825Z</time>
      </trkpt>
      <trkpt lat="44.14162" lon="0.48236">
        <ele>112</ele>
        <time>2022-09-15T09:04:46.825Z</time>
      </trkpt>
      <trkpt lat="44.14161" lon="0.48235">
        <ele>113</ele>
        <time>2022-09-15T09:04:47.825Z</time>
      </trkpt>
      <trkpt lat="44.1416" lon="0.48235">
        <ele>113</ele>
        <time>2022-09-15T09:04:48.825Z</time>
      </trkpt>
      <trkpt lat="44.14158" lon="0.48234">
        <ele>112</ele>
        <time>2022-09-15T09:04:49.825Z</time>
      </trkpt>
      <trkpt lat="44.14157" lon="0.48234">
        <ele>112</ele>
        <time>2022-09-15T09:04:50.825Z</time>
      </trkpt>
      <trkpt lat="44.14156" lon="0.48233">
        <ele>112</ele>
        <time>2022-09-15T09:04:51.825Z</time>
      </trkpt>
      <trkpt lat="44.14155" lon="0.48233">
        <ele>112</ele>
        <time>2022-09-15T09:04:52.825Z</time>
      </trkpt>
      <trkpt lat="44.14154" lon="0.48233">
        <ele>112</ele>
        <time>2022-09-15T09:04:53.825Z</time>
      </trkpt>
      <trkpt lat="44.14152" lon="0.48232">
        <ele>112</ele>
        <time>2022-09-15T09:04:54.825Z</time>
      </trkpt>
      <trkpt lat="44.14151" lon="0.48232">
        <ele>112</ele>
        <time>2022-09-15T09:04:55.825Z</time>
      </trkpt>
      <trkpt lat="44.1415" lon="0.48231">
        <ele>112</ele>
        <time>2022-09-15T09:04:56.825Z</time>
      </trkpt>
      <trkpt lat="44.14148" lon="0.48231">
        <ele>112</ele>
        <time>2022-09-15T09:04:57.825Z</time>
      </trkpt>
      <trkpt lat="44.14147" lon="0.4823">
        <ele>112</ele>
        <time>2022-09-15T09:04:58.825Z</time>
      </trkpt>
      <trkpt lat="44.14146" lon="0.48229">
        <ele>112</ele>
        <time>2022-09-15T09:04:59.825Z</time>
      </trkpt>
      <trkpt lat="44.14145" lon="0.48229">
        <ele>112</ele>
        <time>2022-09-15T09:05:00.825Z</time>
      </trkpt>
      <trkpt lat="44.14144" lon="0.48228">
        <ele>111</ele>
        <time>2022-09-15T09:05:01.825Z</time>
      </trkpt>
      <trkpt lat="44.14143" lon="0.48227">
        <ele>111</ele>
        <time>2022-09-15T09:05:02.825Z</time>
      </trkpt>
      <trkpt lat="44.14141" lon="0.48227">
        <ele>111</ele>
        <time>2022-09-15T09:05:03.825Z</time>
      </trkpt>
      <trkpt lat="44.1414" lon="0.48226">
        <ele>111</ele>
        <time>2022-09-15T09:05:04.825Z</time>
      </trkpt>
      <trkpt lat="44.14139" lon="0.48226">
        <ele>111</ele>
        <time>2022-09-15T09:05:05.825Z</time>
      </trkpt>
      <trkpt lat="44.14138" lon="0.48225">
        <ele>111</ele>
        <time>2022-09-15T09:05:06.825Z</time>
      </trkpt>
      <trkpt lat="44.14137" lon="0.48225">
        <ele>111</ele>
        <time>2022-09-15T09:05:07.825Z</time>
      </trkpt>
      <trkpt lat="44.14136" lon="0.48225">
        <ele>111</ele>
        <time>2022-09-15T09:05:08.825Z</time>
      </trkpt>
      <trkpt lat="44.14135" lon="0.48224">
        <ele>111</ele>
        <time>2022-09-15T09:05:09.825Z</time>
      </trkpt>
      <trkpt lat="44.14134" lon="0.48224">
        <ele>111</ele>
        <time>2022-09-15T09:05:10.825Z</time>
      </trkpt>
      <trkpt lat="44.14133" lon="0.48224">
        <ele>111</ele>
        <time>2022-09-15T09:05:11.825Z</time>
      </trkpt>
      <trkpt lat="44.14132" lon="0.48223">
        <ele>111</ele>
        <time>2022-09-15T09:05:12.825Z</time>
      </trkpt>
      <trkpt lat="44.1413" lon="0.48223">
        <ele>112</ele>
        <time>2022-09-15T09:05:13.825Z</time>
      </trkpt>
      <trkpt lat="44.14129" lon="0.48222">
        <ele>111</ele>
        <time>2022-09-15T09:05:14.825Z</time>
      </trkpt>
      <trkpt lat="44.14128" lon="0.48222">
        <ele>111</ele>
        <time>2022-09-15T09:05:15.825Z</time>
      </trkpt>
      <trkpt lat="44.14126" lon="0.48221">
        <ele>110</ele>
        <time>2022-09-15T09:05:16.825Z</time>
      </trkpt>
      <trkpt lat="44.14125" lon="0.48221">
        <ele>110</ele>
        <time>2022-09-15T09:05:17.825Z</time>
      </trkpt>
      <trkpt lat="44.14124" lon="0.48221">
        <ele>110</ele>
        <time>2022-09-15T09:05:18.825Z</time>
      </trkpt>
      <trkpt lat="44.14123" lon="0.48221">
        <ele>110</ele>
        <time>2022-09-15T09:05:19.825Z</time>
      </trkpt>
      <trkpt lat="44.14122" lon="0.4822">
        <ele>110</ele>
        <time>2022-09-15T09:05:20.825Z</time>
      </trkpt>
      <trkpt lat="44.14121" lon="0.4822">
        <ele>110</ele>
        <time>2022-09-15T09:05:21.825Z</time>
      </trkpt>
      <trkpt lat="44.1412" lon="0.4822">
        <ele>109</ele>
        <time>2022-09-15T09:05:22.825Z</time>
      </trkpt>
      <trkpt lat="44.14119" lon="0.48219">
        <ele>109</ele>
        <time>2022-09-15T09:05:23.825Z</time>
      </trkpt>
      <trkpt lat="44.14118" lon="0.48219">
        <ele>109</ele>
        <time>2022-09-15T09:05:24.825Z</time>
      </trkpt>
      <trkpt lat="44.14117" lon="0.48218">
        <ele>109</ele>
        <time>2022-09-15T09:05:25.825Z</time>
      </trkpt>
      <trkpt lat="44.14116" lon="0.48218">
        <ele>109</ele>
        <time>2022-09-15T09:05:26.825Z</time>
      </trkpt>
      <trkpt lat="44.14115" lon="0.48218">
        <ele>109</ele>
        <time>2022-09-15T09:05:27.825Z</time>
      </trkpt>
      <trkpt lat="44.14114" lon="0.48218">
        <ele>109</ele>
        <time>2022-09-15T09:05:28.825Z</time>
      </trkpt>
      <trkpt lat="44.14113" lon="0.48218">
        <ele>108</ele>
        <time>2022-09-15T09:05:29.825Z</time>
      </trkpt>
      <trkpt lat="44.14112" lon="0.48218">
        <ele>108</ele>
        <time>2022-09-15T09:05:30.825Z</time>
      </trkpt>
      <trkpt lat="44.14111" lon="0.48218">
        <ele>109</ele>
        <time>2022-09-15T09:05:31.825Z</time>
      </trkpt>
      <trkpt lat="44.1411" lon="0.48218">
        <ele>108</ele>
        <time>2022-09-15T09:05:32.825Z</time>
      </trkpt>
      <trkpt lat="44.14109" lon="0.48218">
        <ele>108</ele>
        <time>2022-09-15T09:05:33.825Z</time>
      </trkpt>
      <trkpt lat="44.14108" lon="0.48217">
        <ele>109</ele>
        <time>2022-09-15T09:05:34.825Z</time>
      </trkpt>
      <trkpt lat="44.14107" lon="0.48217">
        <ele>110</ele>
        <time>2022-09-15T09:05:35.825Z</time>
      </trkpt>
      <trkpt lat="44.14106" lon="0.48216">
        <ele>109</ele>
        <time>2022-09-15T09:05:36.825Z</time>
      </trkpt>
      <trkpt lat="44.14105" lon="0.48216">
        <ele>109</ele>
        <time>2022-09-15T09:05:37.825Z</time>
      </trkpt>
      <trkpt lat="44.14103" lon="0.48216">
        <ele>110</ele>
        <time>2022-09-15T09:05:38.825Z</time>
      </trkpt>
      <trkpt lat="44.14102" lon="0.48216">
        <ele>110</ele>
        <time>2022-09-15T09:05:39.825Z</time>
      </trkpt>
      <trkpt lat="44.14101" lon="0.48216">
        <ele>109</ele>
        <time>2022-09-15T09:05:40.825Z</time>
      </trkpt>
      <trkpt lat="44.141" lon="0.48215">
        <ele>109</ele>
        <time>2022-09-15T09:05:41.825Z</time>
      </trkpt>
      <trkpt lat="44.14099" lon="0.48215">
        <ele>109</ele>
        <time>2022-09-15T09:05:42.825Z</time>
      </trkpt>
      <trkpt lat="44.14098" lon="0.48215">
        <ele>109</ele>
        <time>2022-09-15T09:05:43.825Z</time>
      </trkpt>
      <trkpt lat="44.14097" lon="0.48214">
        <ele>109</ele>
        <time>2022-09-15T09:05:44.825Z</time>
      </trkpt>
      <trkpt lat="44.14096" lon="0.48213">
        <ele>109</ele>
        <time>2022-09-15T09:05:45.825Z</time>
      </trkpt>
      <trkpt lat="44.14094" lon="0.48213">
        <ele>109</ele>
        <time>2022-09-15T09:05:46.825Z</time>
      </trkpt>
      <trkpt lat="44.14093" lon="0.48212">
        <ele>110</ele>
        <time>2022-09-15T09:05:47.825Z</time>
      </trkpt>
      <trkpt lat="44.14092" lon="0.48212">
        <ele>109</ele>
        <time>2022-09-15T09:05:48.825Z</time>
      </trkpt>
      <trkpt lat="44.14091" lon="0.48212">
        <ele>109</ele>
        <time>2022-09-15T09:05:49.825Z</time>
      </trkpt>
      <trkpt lat="44.1409" lon="0.48211">
        <ele>109</ele>
        <time>2022-09-15T09:05:50.825Z</time>
      </trkpt>
      <trkpt lat="44.14089" lon="0.48211">
        <ele>109</ele>
        <time>2022-09-15T09:05:51.825Z</time>
      </trkpt>
      <trkpt lat="44.14088" lon="0.48211">
        <ele>109</ele>
        <time>2022-09-15T09:05:52.825Z</time>
      </trkpt>
      <trkpt lat="44.14086" lon="0.4821">
        <ele>108</ele>
        <time>2022-09-15T09:05:53.825Z</time>
      </trkpt>
      <trkpt lat="44.14085" lon="0.4821">
        <ele>107</ele>
        <time>2022-09-15T09:05:54.825Z</time>
      </trkpt>
      <trkpt lat="44.14084" lon="0.48209">
        <ele>107</ele>
        <time>2022-09-15T09:05:55.825Z</time>
      </trkpt>
      <trkpt lat="44.14083" lon="0.48209">
        <ele>107</ele>
        <time>2022-09-15T09:05:56.825Z</time>
      </trkpt>
      <trkpt lat="44.14082" lon="0.48208">
        <ele>106</ele>
        <time>2022-09-15T09:05:57.825Z</time>
      </trkpt>
      <trkpt lat="44.14081" lon="0.48208">
        <ele>106</ele>
        <time>2022-09-15T09:05:58.825Z</time>
      </trkpt>
      <trkpt lat="44.1408" lon="0.48207">
        <ele>106</ele>
        <time>2022-09-15T09:05:59.825Z</time>
      </trkpt>
      <trkpt lat="44.14079" lon="0.48206">
        <ele>106</ele>
        <time>2022-09-15T09:06:00.825Z</time>
      </trkpt>
      <trkpt lat="44.14078" lon="0.48205">
        <ele>106</ele>
        <time>2022-09-15T09:06:01.825Z</time>
      </trkpt>
      <trkpt lat="44.14077" lon="0.48204">
        <ele>105</ele>
        <time>2022-09-15T09:06:02.825Z</time>
      </trkpt>
      <trkpt lat="44.14076" lon="0.48203">
        <ele>105</ele>
        <time>2022-09-15T09:06:03.825Z</time>
      </trkpt>
      <trkpt lat="44.14075" lon="0.48202">
        <ele>105</ele>
        <time>2022-09-15T09:06:04.825Z</time>
      </trkpt>
      <trkpt lat="44.14075" lon="0.482">
        <ele>105</ele>
        <time>2022-09-15T09:06:05.825Z</time>
      </trkpt>
      <trkpt lat="44.14074" lon="0.48199">
        <ele>105</ele>
        <time>2022-09-15T09:06:06.825Z</time>
      </trkpt>
      <trkpt lat="44.14073" lon="0.48197">
        <ele>105</ele>
        <time>2022-09-15T09:06:07.825Z</time>
      </trkpt>
      <trkpt lat="44.14073" lon="0.48196">
        <ele>105</ele>
        <time>2022-09-15T09:06:08.825Z</time>
      </trkpt>
      <trkpt lat="44.14072" lon="0.48195">
        <ele>105</ele>
        <time>2022-09-15T09:06:09.825Z</time>
      </trkpt>
      <trkpt lat="44.14072" lon="0.48194">
        <ele>105</ele>
        <time>2022-09-15T09:06:10.825Z</time>
      </trkpt>
      <trkpt lat="44.14071" lon="0.48193">
        <ele>105</ele>
        <time>2022-09-15T09:06:11.825Z</time>
      </trkpt>
      <trkpt lat="44.14071" lon="0.48192">
        <ele>105</ele>
        <time>2022-09-15T09:06:12.825Z</time>
      </trkpt>
      <trkpt lat="44.14071" lon="0.4819">
        <ele>105</ele>
        <time>2022-09-15T09:06:13.825Z</time>
      </trkpt>
      <trkpt lat="44.14071" lon="0.48188">
        <ele>105</ele>
        <time>2022-09-15T09:06:14.825Z</time>
      </trkpt>
      <trkpt lat="44.14071" lon="0.48187">
        <ele>105</ele>
        <time>2022-09-15T09:06:15.825Z</time>
      </trkpt>
      <trkpt lat="44.14071" lon="0.48185">
        <ele>105</ele>
        <time>2022-09-15T09:06:16.825Z</time>
      </trkpt>
      <trkpt lat="44.1407" lon="0.48184">
        <ele>105</ele>
        <time>2022-09-15T09:06:17.825Z</time>
      </trkpt>
      <trkpt lat="44.1407" lon="0.48182">
        <ele>105</ele>
        <time>2022-09-15T09:06:18.825Z</time>
      </trkpt>
      <trkpt lat="44.1407" lon="0.48181">
        <ele>104</ele>
        <time>2022-09-15T09:06:19.825Z</time>
      </trkpt>
      <trkpt lat="44.1407" lon="0.48179">
        <ele>104</ele>
        <time>2022-09-15T09:06:20.825Z</time>
      </trkpt>
      <trkpt lat="44.1407" lon="0.48178">
        <ele>105</ele>
        <time>2022-09-15T09:06:21.825Z</time>
      </trkpt>
      <trkpt lat="44.14071" lon="0.48177">
        <ele>104</ele>
        <time>2022-09-15T09:06:22.825Z</time>
      </trkpt>
      <trkpt lat="44.14071" lon="0.48175">
        <ele>104</ele>
        <time>2022-09-15T09:06:23.825Z</time>
      </trkpt>
      <trkpt lat="44.14071" lon="0.48173">
        <ele>104</ele>
        <time>2022-09-15T09:06:24.825Z</time>
      </trkpt>
      <trkpt lat="44.14072" lon="0.48172">
        <ele>103</ele>
        <time>2022-09-15T09:06:25.825Z</time>
      </trkpt>
      <trkpt lat="44.14072" lon="0.4817">
        <ele>104</ele>
        <time>2022-09-15T09:06:26.825Z</time>
      </trkpt>
      <trkpt lat="44.14073" lon="0.48168">
        <ele>104</ele>
        <time>2022-09-15T09:06:27.825Z</time>
      </trkpt>
      <trkpt lat="44.14073" lon="0.48167">
        <ele>103</ele>
        <time>2022-09-15T09:06:28.825Z</time>
      </trkpt>
      <trkpt lat="44.14073" lon="0.48165">
        <ele>103</ele>
        <time>2022-09-15T09:06:29.825Z</time>
      </trkpt>
      <trkpt lat="44.14074" lon="0.48164">
        <ele>104</ele>
        <time>2022-09-15T09:06:30.825Z</time>
      </trkpt>
      <trkpt lat="44.14074" lon="0.48162">
        <ele>104</ele>
        <time>2022-09-15T09:06:31.825Z</time>
      </trkpt>
      <trkpt lat="44.14074" lon="0.4816">
        <ele>104</ele>
        <time>2022-09-15T09:06:32.825Z</time>
      </trkpt>
      <trkpt lat="44.14075" lon="0.48159">
        <ele>104</ele>
        <time>2022-09-15T09:06:33.825Z</time>
      </trkpt>
      <trkpt lat="44.14075" lon="0.48157">
        <ele>104</ele>
        <time>2022-09-15T09:06:34.825Z</time>
      </trkpt>
      <trkpt lat="44.14075" lon="0.48155">
        <ele>104</ele>
        <time>2022-09-15T09:06:35.825Z</time>
      </trkpt>
      <trkpt lat="44.14075" lon="0.48154">
        <ele>104</ele>
        <time>2022-09-15T09:06:36.825Z</time>
      </trkpt>
      <trkpt lat="44.14075" lon="0.48152">
        <ele>104</ele>
        <time>2022-09-15T09:06:37.825Z</time>
      </trkpt>
      <trkpt lat="44.14076" lon="0.48151">
        <ele>104</ele>
        <time>2022-09-15T09:06:38.825Z</time>
      </trkpt>
      <trkpt lat="44.14076" lon="0.4815">
        <ele>104</ele>
        <time>2022-09-15T09:06:39.825Z</time>
      </trkpt>
      <trkpt lat="44.14076" lon="0.48148">
        <ele>105</ele>
        <time>2022-09-15T09:06:40.825Z</time>
      </trkpt>
      <trkpt lat="44.14076" lon="0.48147">
        <ele>105</ele>
        <time>2022-09-15T09:06:41.825Z</time>
      </trkpt>
      <trkpt lat="44.14075" lon="0.48145">
        <ele>105</ele>
        <time>2022-09-15T09:06:42.825Z</time>
      </trkpt>
      <trkpt lat="44.14075" lon="0.48144">
        <ele>105</ele>
        <time>2022-09-15T09:06:43.825Z</time>
      </trkpt>
      <trkpt lat="44.14075" lon="0.48143">
        <ele>105</ele>
        <time>2022-09-15T09:06:44.825Z</time>
      </trkpt>
      <trkpt lat="44.14075" lon="0.48142">
        <ele>105</ele>
        <time>2022-09-15T09:06:45.825Z</time>
      </trkpt>
      <trkpt lat="44.14075" lon="0.48141">
        <ele>105</ele>
        <time>2022-09-15T09:06:46.825Z</time>
      </trkpt>
      <trkpt lat="44.14075" lon="0.4814">
        <ele>105</ele>
        <time>2022-09-15T09:06:47.825Z</time>
      </trkpt>
      <trkpt lat="44.14075" lon="0.4814">
        <ele>105</ele>
        <time>2022-09-15T09:06:48.825Z</time>
      </trkpt>
      <trkpt lat="44.14074" lon="0.48139">
        <ele>105</ele>
        <time>2022-09-15T09:06:49.825Z</time>
      </trkpt>
      <trkpt lat="44.14075" lon="0.48138">
        <ele>105</ele>
        <time>2022-09-15T09:06:50.825Z</time>
      </trkpt>
      <trkpt lat="44.14075" lon="0.48138">
        <ele>105</ele>
        <time>2022-09-15T09:06:51.825Z</time>
      </trkpt>
      <trkpt lat="44.14075" lon="0.48137">
        <ele>105</ele>
        <time>2022-09-15T09:06:52.825Z</time>
      </trkpt>
      <trkpt lat="44.14075" lon="0.48137">
        <ele>105</ele>
        <time>2022-09-15T09:06:53.825Z</time>
      </trkpt>
      <trkpt lat="44.14075" lon="0.48137">
        <ele>105</ele>
        <time>2022-09-15T09:06:54.825Z</time>
      </trkpt>
      <trkpt lat="44.14075" lon="0.48136">
        <ele>105</ele>
        <time>2022-09-15T09:06:55.825Z</time>
      </trkpt>
      <trkpt lat="44.14075" lon="0.48135">
        <ele>105</ele>
        <time>2022-09-15T09:06:56.825Z</time>
      </trkpt>
      <trkpt lat="44.14074" lon="0.48134">
        <ele>105</ele>
        <time>2022-09-15T09:06:57.825Z</time>
      </trkpt>
      <trkpt lat="44.14074" lon="0.48134">
        <ele>105</ele>
        <time>2022-09-15T09:06:58.825Z</time>
      </trkpt>
      <trkpt lat="44.14073" lon="0.48133">
        <ele>105</ele>
        <time>2022-09-15T09:06:59.825Z</time>
      </trkpt>
      <trkpt lat="44.14072" lon="0.48132">
        <ele>105</ele>
        <time>2022-09-15T09:07:00.825Z</time>
      </trkpt>
      <trkpt lat="44.14071" lon="0.48132">
        <ele>105</ele>
        <time>2022-09-15T09:07:01.825Z</time>
      </trkpt>
      <trkpt lat="44.1407" lon="0.48132">
        <ele>105</ele>
        <time>2022-09-15T09:07:02.825Z</time>
      </trkpt>
      <trkpt lat="44.14069" lon="0.48132">
        <ele>105</ele>
        <time>2022-09-15T09:07:03.825Z</time>
      </trkpt>
      <trkpt lat="44.14068" lon="0.48132">
        <ele>105</ele>
        <time>2022-09-15T09:07:04.825Z</time>
      </trkpt>
      <trkpt lat="44.14067" lon="0.48132">
        <ele>105</ele>
        <time>2022-09-15T09:07:05.825Z</time>
      </trkpt>
      <trkpt lat="44.14066" lon="0.48132">
        <ele>105</ele>
        <time>2022-09-15T09:07:06.825Z</time>
      </trkpt>
      <trkpt lat="44.14065" lon="0.48132">
        <ele>105</ele>
        <time>2022-09-15T09:07:07.825Z</time>
      </trkpt>
      <trkpt lat="44.14064" lon="0.48132">
        <ele>105</ele>
        <time>2022-09-15T09:07:08.825Z</time>
      </trkpt>
      <trkpt lat="44.14063" lon="0.48132">
        <ele>104</ele>
        <time>2022-09-15T09:07:09.825Z</time>
      </trkpt>
      <trkpt lat="44.14062" lon="0.48132">
        <ele>104</ele>
        <time>2022-09-15T09:07:10.825Z</time>
      </trkpt>
      <trkpt lat="44.14061" lon="0.48132">
        <ele>104</ele>
        <time>2022-09-15T09:07:11.825Z</time>
      </trkpt>
      <trkpt lat="44.1406" lon="0.48132">
        <ele>104</ele>
        <time>2022-09-15T09:07:12.825Z</time>
      </trkpt>
      <trkpt lat="44.14059" lon="0.48131">
        <ele>104</ele>
        <time>2022-09-15T09:07:13.825Z</time>
      </trkpt>
      <trkpt lat="44.14057" lon="0.48131">
        <ele>104</ele>
        <time>2022-09-15T09:07:14.825Z</time>
      </trkpt>
      <trkpt lat="44.14056" lon="0.48131">
        <ele>104</ele>
        <time>2022-09-15T09:07:15.825Z</time>
      </trkpt>
      <trkpt lat="44.14055" lon="0.48131">
        <ele>105</ele>
        <time>2022-09-15T09:07:16.825Z</time>
      </trkpt>
      <trkpt lat="44.14054" lon="0.48131">
        <ele>105</ele>
        <time>2022-09-15T09:07:17.825Z</time>
      </trkpt>
      <trkpt lat="44.14053" lon="0.4813">
        <ele>104</ele>
        <time>2022-09-15T09:07:18.825Z</time>
      </trkpt>
      <trkpt lat="44.14052" lon="0.4813">
        <ele>105</ele>
        <time>2022-09-15T09:07:19.825Z</time>
      </trkpt>
      <trkpt lat="44.1405" lon="0.48129">
        <ele>105</ele>
        <time>2022-09-15T09:07:20.825Z</time>
      </trkpt>
      <trkpt lat="44.14049" lon="0.48129">
        <ele>105</ele>
        <time>2022-09-15T09:07:21.825Z</time>
      </trkpt>
      <trkpt lat="44.14048" lon="0.48129">
        <ele>105</ele>
        <time>2022-09-15T09:07:22.825Z</time>
      </trkpt>
      <trkpt lat="44.14047" lon="0.48128">
        <ele>105</ele>
        <time>2022-09-15T09:07:23.825Z</time>
      </trkpt>
      <trkpt lat="44.14046" lon="0.48127">
        <ele>105</ele>
        <time>2022-09-15T09:07:24.825Z</time>
      </trkpt>
      <trkpt lat="44.14044" lon="0.48127">
        <ele>106</ele>
        <time>2022-09-15T09:07:25.825Z</time>
      </trkpt>
      <trkpt lat="44.14043" lon="0.48126">
        <ele>106</ele>
        <time>2022-09-15T09:07:26.825Z</time>
      </trkpt>
      <trkpt lat="44.14042" lon="0.48126">
        <ele>106</ele>
        <time>2022-09-15T09:07:27.825Z</time>
      </trkpt>
      <trkpt lat="44.14041" lon="0.48125">
        <ele>106</ele>
        <time>2022-09-15T09:07:28.825Z</time>
      </trkpt>
      <trkpt lat="44.1404" lon="0.48124">
        <ele>106</ele>
        <time>2022-09-15T09:07:29.825Z</time>
      </trkpt>
      <trkpt lat="44.14039" lon="0.48124">
        <ele>106</ele>
        <time>2022-09-15T09:07:30.825Z</time>
      </trkpt>
      <trkpt lat="44.14037" lon="0.48123">
        <ele>106</ele>
        <time>2022-09-15T09:07:31.825Z</time>
      </trkpt>
      <trkpt lat="44.14036" lon="0.48122">
        <ele>105</ele>
        <time>2022-09-15T09:07:32.825Z</time>
      </trkpt>
      <trkpt lat="44.14035" lon="0.48121">
        <ele>105</ele>
        <time>2022-09-15T09:07:33.825Z</time>
      </trkpt>
      <trkpt lat="44.14035" lon="0.4812">
        <ele>105</ele>
        <time>2022-09-15T09:07:34.825Z</time>
      </trkpt>
      <trkpt lat="44.14034" lon="0.48119">
        <ele>106</ele>
        <time>2022-09-15T09:07:35.825Z</time>
      </trkpt>
      <trkpt lat="44.14033" lon="0.48118">
        <ele>105</ele>
        <time>2022-09-15T09:07:36.825Z</time>
      </trkpt>
      <trkpt lat="44.14032" lon="0.48117">
        <ele>105</ele>
        <time>2022-09-15T09:07:37.825Z</time>
      </trkpt>
      <trkpt lat="44.14031" lon="0.48117">
        <ele>106</ele>
        <time>2022-09-15T09:07:38.825Z</time>
      </trkpt>
      <trkpt lat="44.1403" lon="0.48116">
        <ele>106</ele>
        <time>2022-09-15T09:07:39.825Z</time>
      </trkpt>
      <trkpt lat="44.14029" lon="0.48115">
        <ele>106</ele>
        <time>2022-09-15T09:07:40.825Z</time>
      </trkpt>
      <trkpt lat="44.14028" lon="0.48114">
        <ele>106</ele>
        <time>2022-09-15T09:07:41.825Z</time>
      </trkpt>
      <trkpt lat="44.14027" lon="0.48113">
        <ele>106</ele>
        <time>2022-09-15T09:07:42.825Z</time>
      </trkpt>
      <trkpt lat="44.14026" lon="0.48113">
        <ele>106</ele>
        <time>2022-09-15T09:07:43.825Z</time>
      </trkpt>
      <trkpt lat="44.14025" lon="0.48112">
        <ele>106</ele>
        <time>2022-09-15T09:07:44.825Z</time>
      </trkpt>
      <trkpt lat="44.14024" lon="0.48111">
        <ele>106</ele>
        <time>2022-09-15T09:07:45.825Z</time>
      </trkpt>
      <trkpt lat="44.14023" lon="0.48111">
        <ele>106</ele>
        <time>2022-09-15T09:07:46.825Z</time>
      </trkpt>
      <trkpt lat="44.14022" lon="0.4811">
        <ele>106</ele>
        <time>2022-09-15T09:07:47.825Z</time>
      </trkpt>
      <trkpt lat="44.14021" lon="0.48109">
        <ele>106</ele>
        <time>2022-09-15T09:07:48.825Z</time>
      </trkpt>
      <trkpt lat="44.14021" lon="0.48109">
        <ele>106</ele>
        <time>2022-09-15T09:07:49.825Z</time>
      </trkpt>
      <trkpt lat="44.14021" lon="0.48108">
        <ele>106</ele>
        <time>2022-09-15T09:07:50.825Z</time>
      </trkpt>
      <trkpt lat="44.14021" lon="0.48108">
        <ele>106</ele>
        <time>2022-09-15T09:07:51.825Z</time>
      </trkpt>
      <trkpt lat="44.14021" lon="0.48108">
        <ele>106</ele>
        <time>2022-09-15T09:07:52.825Z</time>
      </trkpt>
      <trkpt lat="44.14021" lon="0.48108">
        <ele>106</ele>
        <time>2022-09-15T09:07:53.825Z</time>
      </trkpt>
      <trkpt lat="44.14021" lon="0.48108">
        <ele>105</ele>
        <time>2022-09-15T09:07:54.825Z</time>
      </trkpt>
      <trkpt lat="44.14021" lon="0.48108">
        <ele>105</ele>
        <time>2022-09-15T09:07:55.825Z</time>
      </trkpt>
      <trkpt lat="44.14021" lon="0.48108">
        <ele>105</ele>
        <time>2022-09-15T09:07:56.825Z</time>
      </trkpt>
      <trkpt lat="44.14018" lon="0.48107">
        <ele>107</ele>
        <time>2022-09-15T09:08:04.829Z</time>
      </trkpt>
      <trkpt lat="44.14016" lon="0.48106">
        <ele>107</ele>
        <time>2022-09-15T09:08:05.829Z</time>
      </trkpt>
      <trkpt lat="44.14015" lon="0.48106">
        <ele>107</ele>
        <time>2022-09-15T09:08:06.829Z</time>
      </trkpt>
      <trkpt lat="44.14014" lon="0.48105">
        <ele>107</ele>
        <time>2022-09-15T09:08:07.829Z</time>
      </trkpt>
      <trkpt lat="44.14013" lon="0.48105">
        <ele>107</ele>
        <time>2022-09-15T09:08:08.829Z</time>
      </trkpt>
      <trkpt lat="44.14012" lon="0.48104">
        <ele>107</ele>
        <time>2022-09-15T09:08:09.829Z</time>
      </trkpt>
      <trkpt lat="44.14011" lon="0.48104">
        <ele>107</ele>
        <time>2022-09-15T09:08:10.829Z</time>
      </trkpt>
      <trkpt lat="44.1401" lon="0.48103">
        <ele>107</ele>
        <time>2022-09-15T09:08:11.829Z</time>
      </trkpt>
      <trkpt lat="44.14009" lon="0.48102">
        <ele>107</ele>
        <time>2022-09-15T09:08:12.829Z</time>
      </trkpt>
      <trkpt lat="44.14007" lon="0.48101">
        <ele>107</ele>
        <time>2022-09-15T09:08:13.829Z</time>
      </trkpt>
      <trkpt lat="44.14006" lon="0.481">
        <ele>107</ele>
        <time>2022-09-15T09:08:14.829Z</time>
      </trkpt>
      <trkpt lat="44.14005" lon="0.48099">
        <ele>107</ele>
        <time>2022-09-15T09:08:15.829Z</time>
      </trkpt>
      <trkpt lat="44.14004" lon="0.48099">
        <ele>107</ele>
        <time>2022-09-15T09:08:16.829Z</time>
      </trkpt>
      <trkpt lat="44.14004" lon="0.48098">
        <ele>107</ele>
        <time>2022-09-15T09:08:17.829Z</time>
      </trkpt>
      <trkpt lat="44.14003" lon="0.48097">
        <ele>107</ele>
        <time>2022-09-15T09:08:18.829Z</time>
      </trkpt>
      <trkpt lat="44.14002" lon="0.48096">
        <ele>107</ele>
        <time>2022-09-15T09:08:19.829Z</time>
      </trkpt>
      <trkpt lat="44.14" lon="0.48096">
        <ele>107</ele>
        <time>2022-09-15T09:08:20.829Z</time>
      </trkpt>
      <trkpt lat="44.13999" lon="0.48095">
        <ele>107</ele>
        <time>2022-09-15T09:08:21.829Z</time>
      </trkpt>
      <trkpt lat="44.13998" lon="0.48094">
        <ele>107</ele>
        <time>2022-09-15T09:08:22.829Z</time>
      </trkpt>
      <trkpt lat="44.13997" lon="0.48094">
        <ele>107</ele>
        <time>2022-09-15T09:08:23.829Z</time>
      </trkpt>
      <trkpt lat="44.13997" lon="0.48093">
        <ele>107</ele>
        <time>2022-09-15T09:08:24.829Z</time>
      </trkpt>
      <trkpt lat="44.13996" lon="0.48093">
        <ele>107</ele>
        <time>2022-09-15T09:08:25.829Z</time>
      </trkpt>
      <trkpt lat="44.13995" lon="0.48092">
        <ele>107</ele>
        <time>2022-09-15T09:08:26.829Z</time>
      </trkpt>
      <trkpt lat="44.13994" lon="0.48092">
        <ele>107</ele>
        <time>2022-09-15T09:08:27.829Z</time>
      </trkpt>
      <trkpt lat="44.13993" lon="0.48091">
        <ele>107</ele>
        <time>2022-09-15T09:08:28.829Z</time>
      </trkpt>
      <trkpt lat="44.13992" lon="0.4809">
        <ele>107</ele>
        <time>2022-09-15T09:08:29.829Z</time>
      </trkpt>
      <trkpt lat="44.13991" lon="0.4809">
        <ele>107</ele>
        <time>2022-09-15T09:08:30.829Z</time>
      </trkpt>
      <trkpt lat="44.1399" lon="0.48089">
        <ele>107</ele>
        <time>2022-09-15T09:08:31.829Z</time>
      </trkpt>
      <trkpt lat="44.13989" lon="0.48088">
        <ele>107</ele>
        <time>2022-09-15T09:08:32.829Z</time>
      </trkpt>
      <trkpt lat="44.13988" lon="0.48088">
        <ele>107</ele>
        <time>2022-09-15T09:08:33.829Z</time>
      </trkpt>
      <trkpt lat="44.13987" lon="0.48087">
        <ele>107</ele>
        <time>2022-09-15T09:08:34.829Z</time>
      </trkpt>
      <trkpt lat="44.13986" lon="0.48086">
        <ele>107</ele>
        <time>2022-09-15T09:08:35.829Z</time>
      </trkpt>
      <trkpt lat="44.13985" lon="0.48086">
        <ele>107</ele>
        <time>2022-09-15T09:08:36.829Z</time>
      </trkpt>
      <trkpt lat="44.13984" lon="0.48086">
        <ele>107</ele>
        <time>2022-09-15T09:08:37.829Z</time>
      </trkpt>
      <trkpt lat="44.13983" lon="0.48085">
        <ele>107</ele>
        <time>2022-09-15T09:08:38.829Z</time>
      </trkpt>
      <trkpt lat="44.13983" lon="0.48085">
        <ele>107</ele>
        <time>2022-09-15T09:08:39.829Z</time>
      </trkpt>
      <trkpt lat="44.13982" lon="0.48084">
        <ele>107</ele>
        <time>2022-09-15T09:08:40.829Z</time>
      </trkpt>
      <trkpt lat="44.13981" lon="0.48084">
        <ele>107</ele>
        <time>2022-09-15T09:08:41.829Z</time>
      </trkpt>
      <trkpt lat="44.1398" lon="0.48083">
        <ele>107</ele>
        <time>2022-09-15T09:08:42.829Z</time>
      </trkpt>
      <trkpt lat="44.13979" lon="0.48083">
        <ele>107</ele>
        <time>2022-09-15T09:08:43.829Z</time>
      </trkpt>
      <trkpt lat="44.13978" lon="0.48082">
        <ele>107</ele>
        <time>2022-09-15T09:08:44.829Z</time>
      </trkpt>
      <trkpt lat="44.13977" lon="0.48082">
        <ele>107</ele>
        <time>2022-09-15T09:08:45.829Z</time>
      </trkpt>
      <trkpt lat="44.13976" lon="0.48081">
        <ele>108</ele>
        <time>2022-09-15T09:08:46.829Z</time>
      </trkpt>
      <trkpt lat="44.13975" lon="0.48081">
        <ele>107</ele>
        <time>2022-09-15T09:08:47.829Z</time>
      </trkpt>
      <trkpt lat="44.13974" lon="0.48081">
        <ele>108</ele>
        <time>2022-09-15T09:08:48.829Z</time>
      </trkpt>
      <trkpt lat="44.13973" lon="0.4808">
        <ele>108</ele>
        <time>2022-09-15T09:08:49.829Z</time>
      </trkpt>
      <trkpt lat="44.13972" lon="0.48079">
        <ele>108</ele>
        <time>2022-09-15T09:08:50.829Z</time>
      </trkpt>
      <trkpt lat="44.13971" lon="0.48078">
        <ele>108</ele>
        <time>2022-09-15T09:08:51.829Z</time>
      </trkpt>
      <trkpt lat="44.13971" lon="0.48078">
        <ele>109</ele>
        <time>2022-09-15T09:08:52.829Z</time>
      </trkpt>
      <trkpt lat="44.1397" lon="0.48077">
        <ele>109</ele>
        <time>2022-09-15T09:08:53.829Z</time>
      </trkpt>
      <trkpt lat="44.13969" lon="0.48076">
        <ele>109</ele>
        <time>2022-09-15T09:08:54.829Z</time>
      </trkpt>
      <trkpt lat="44.13967" lon="0.48075">
        <ele>109</ele>
        <time>2022-09-15T09:08:55.829Z</time>
      </trkpt>
      <trkpt lat="44.13967" lon="0.48075">
        <ele>109</ele>
        <time>2022-09-15T09:08:56.829Z</time>
      </trkpt>
      <trkpt lat="44.13966" lon="0.48074">
        <ele>109</ele>
        <time>2022-09-15T09:08:57.829Z</time>
      </trkpt>
      <trkpt lat="44.13965" lon="0.48073">
        <ele>109</ele>
        <time>2022-09-15T09:08:58.829Z</time>
      </trkpt>
      <trkpt lat="44.13964" lon="0.48072">
        <ele>110</ele>
        <time>2022-09-15T09:08:59.829Z</time>
      </trkpt>
      <trkpt lat="44.13963" lon="0.48072">
        <ele>110</ele>
        <time>2022-09-15T09:09:00.829Z</time>
      </trkpt>
      <trkpt lat="44.13962" lon="0.48071">
        <ele>110</ele>
        <time>2022-09-15T09:09:01.829Z</time>
      </trkpt>
      <trkpt lat="44.13961" lon="0.48071">
        <ele>110</ele>
        <time>2022-09-15T09:09:02.829Z</time>
      </trkpt>
      <trkpt lat="44.1396" lon="0.4807">
        <ele>110</ele>
        <time>2022-09-15T09:09:03.829Z</time>
      </trkpt>
      <trkpt lat="44.13959" lon="0.48069">
        <ele>110</ele>
        <time>2022-09-15T09:09:04.829Z</time>
      </trkpt>
      <trkpt lat="44.13958" lon="0.48069">
        <ele>110</ele>
        <time>2022-09-15T09:09:05.829Z</time>
      </trkpt>
      <trkpt lat="44.13958" lon="0.48068">
        <ele>110</ele>
        <time>2022-09-15T09:09:06.829Z</time>
      </trkpt>
      <trkpt lat="44.13957" lon="0.48068">
        <ele>110</ele>
        <time>2022-09-15T09:09:07.829Z</time>
      </trkpt>
      <trkpt lat="44.13956" lon="0.48067">
        <ele>110</ele>
        <time>2022-09-15T09:09:08.829Z</time>
      </trkpt>
      <trkpt lat="44.13955" lon="0.48067">
        <ele>111</ele>
        <time>2022-09-15T09:09:09.829Z</time>
      </trkpt>
      <trkpt lat="44.13954" lon="0.48067">
        <ele>111</ele>
        <time>2022-09-15T09:09:10.829Z</time>
      </trkpt>
      <trkpt lat="44.13954" lon="0.48066">
        <ele>111</ele>
        <time>2022-09-15T09:09:11.829Z</time>
      </trkpt>
      <trkpt lat="44.13953" lon="0.48066">
        <ele>111</ele>
        <time>2022-09-15T09:09:12.829Z</time>
      </trkpt>
      <trkpt lat="44.13952" lon="0.48065">
        <ele>111</ele>
        <time>2022-09-15T09:09:13.829Z</time>
      </trkpt>
      <trkpt lat="44.13952" lon="0.48065">
        <ele>111</ele>
        <time>2022-09-15T09:09:14.829Z</time>
      </trkpt>
      <trkpt lat="44.13951" lon="0.48064">
        <ele>111</ele>
        <time>2022-09-15T09:09:15.829Z</time>
      </trkpt>
      <trkpt lat="44.1395" lon="0.48064">
        <ele>111</ele>
        <time>2022-09-15T09:09:16.829Z</time>
      </trkpt>
      <trkpt lat="44.1395" lon="0.48063">
        <ele>111</ele>
        <time>2022-09-15T09:09:17.829Z</time>
      </trkpt>
      <trkpt lat="44.13949" lon="0.48063">
        <ele>111</ele>
        <time>2022-09-15T09:09:18.829Z</time>
      </trkpt>
      <trkpt lat="44.13948" lon="0.48062">
        <ele>112</ele>
        <time>2022-09-15T09:09:19.829Z</time>
      </trkpt>
      <trkpt lat="44.13947" lon="0.48061">
        <ele>112</ele>
        <time>2022-09-15T09:09:20.829Z</time>
      </trkpt>
      <trkpt lat="44.13946" lon="0.4806">
        <ele>113</ele>
        <time>2022-09-15T09:09:21.829Z</time>
      </trkpt>
      <trkpt lat="44.13945" lon="0.4806">
        <ele>113</ele>
        <time>2022-09-15T09:09:22.829Z</time>
      </trkpt>
      <trkpt lat="44.13945" lon="0.48059">
        <ele>113</ele>
        <time>2022-09-15T09:09:23.829Z</time>
      </trkpt>
      <trkpt lat="44.13944" lon="0.48058">
        <ele>113</ele>
        <time>2022-09-15T09:09:24.829Z</time>
      </trkpt>
      <trkpt lat="44.13943" lon="0.48057">
        <ele>113</ele>
        <time>2022-09-15T09:09:25.829Z</time>
      </trkpt>
      <trkpt lat="44.13942" lon="0.48057">
        <ele>113</ele>
        <time>2022-09-15T09:09:26.829Z</time>
      </trkpt>
      <trkpt lat="44.13942" lon="0.48056">
        <ele>113</ele>
        <time>2022-09-15T09:09:27.829Z</time>
      </trkpt>
      <trkpt lat="44.13941" lon="0.48055">
        <ele>113</ele>
        <time>2022-09-15T09:09:28.829Z</time>
      </trkpt>
      <trkpt lat="44.1394" lon="0.48055">
        <ele>113</ele>
        <time>2022-09-15T09:09:29.829Z</time>
      </trkpt>
      <trkpt lat="44.13939" lon="0.48054">
        <ele>114</ele>
        <time>2022-09-15T09:09:30.829Z</time>
      </trkpt>
      <trkpt lat="44.13938" lon="0.48053">
        <ele>113</ele>
        <time>2022-09-15T09:09:31.829Z</time>
      </trkpt>
      <trkpt lat="44.13938" lon="0.48053">
        <ele>113</ele>
        <time>2022-09-15T09:09:32.829Z</time>
      </trkpt>
      <trkpt lat="44.13937" lon="0.48052">
        <ele>113</ele>
        <time>2022-09-15T09:09:33.829Z</time>
      </trkpt>
      <trkpt lat="44.13936" lon="0.48052">
        <ele>113</ele>
        <time>2022-09-15T09:09:34.829Z</time>
      </trkpt>
      <trkpt lat="44.13935" lon="0.48051">
        <ele>113</ele>
        <time>2022-09-15T09:09:35.829Z</time>
      </trkpt>
      <trkpt lat="44.13934" lon="0.4805">
        <ele>113</ele>
        <time>2022-09-15T09:09:36.829Z</time>
      </trkpt>
      <trkpt lat="44.13933" lon="0.4805">
        <ele>114</ele>
        <time>2022-09-15T09:09:37.829Z</time>
      </trkpt>
      <trkpt lat="44.13932" lon="0.48049">
        <ele>115</ele>
        <time>2022-09-15T09:09:38.829Z</time>
      </trkpt>
      <trkpt lat="44.13931" lon="0.48048">
        <ele>114</ele>
        <time>2022-09-15T09:09:39.829Z</time>
      </trkpt>
      <trkpt lat="44.1393" lon="0.48047">
        <ele>114</ele>
        <time>2022-09-15T09:09:40.829Z</time>
      </trkpt>
      <trkpt lat="44.13929" lon="0.48046">
        <ele>113</ele>
        <time>2022-09-15T09:09:41.829Z</time>
      </trkpt>
      <trkpt lat="44.13928" lon="0.48046">
        <ele>113</ele>
        <time>2022-09-15T09:09:42.829Z</time>
      </trkpt>
      <trkpt lat="44.13927" lon="0.48045">
        <ele>114</ele>
        <time>2022-09-15T09:09:43.829Z</time>
      </trkpt>
      <trkpt lat="44.13926" lon="0.48044">
        <ele>114</ele>
        <time>2022-09-15T09:09:44.829Z</time>
      </trkpt>
      <trkpt lat="44.13925" lon="0.48043">
        <ele>114</ele>
        <time>2022-09-15T09:09:45.829Z</time>
      </trkpt>
      <trkpt lat="44.13924" lon="0.48042">
        <ele>114</ele>
        <time>2022-09-15T09:09:46.829Z</time>
      </trkpt>
      <trkpt lat="44.13923" lon="0.48041">
        <ele>114</ele>
        <time>2022-09-15T09:09:47.829Z</time>
      </trkpt>
      <trkpt lat="44.13922" lon="0.4804">
        <ele>113</ele>
        <time>2022-09-15T09:09:48.829Z</time>
      </trkpt>
      <trkpt lat="44.13921" lon="0.48039">
        <ele>113</ele>
        <time>2022-09-15T09:09:49.829Z</time>
      </trkpt>
      <trkpt lat="44.1392" lon="0.48039">
        <ele>114</ele>
        <time>2022-09-15T09:09:50.829Z</time>
      </trkpt>
      <trkpt lat="44.13919" lon="0.48038">
        <ele>114</ele>
        <time>2022-09-15T09:09:51.829Z</time>
      </trkpt>
      <trkpt lat="44.13918" lon="0.48037">
        <ele>114</ele>
        <time>2022-09-15T09:09:52.829Z</time>
      </trkpt>
      <trkpt lat="44.13917" lon="0.48036">
        <ele>114</ele>
        <time>2022-09-15T09:09:53.829Z</time>
      </trkpt>
      <trkpt lat="44.13917" lon="0.48035">
        <ele>114</ele>
        <time>2022-09-15T09:09:54.829Z</time>
      </trkpt>
      <trkpt lat="44.13916" lon="0.48034">
        <ele>113</ele>
        <time>2022-09-15T09:09:55.829Z</time>
      </trkpt>
      <trkpt lat="44.13915" lon="0.48034">
        <ele>114</ele>
        <time>2022-09-15T09:09:56.829Z</time>
      </trkpt>
      <trkpt lat="44.13915" lon="0.48033">
        <ele>114</ele>
        <time>2022-09-15T09:09:57.829Z</time>
      </trkpt>
      <trkpt lat="44.13914" lon="0.48032">
        <ele>114</ele>
        <time>2022-09-15T09:09:58.829Z</time>
      </trkpt>
      <trkpt lat="44.13913" lon="0.48031">
        <ele>114</ele>
        <time>2022-09-15T09:09:59.829Z</time>
      </trkpt>
      <trkpt lat="44.13912" lon="0.4803">
        <ele>113</ele>
        <time>2022-09-15T09:10:00.829Z</time>
      </trkpt>
      <trkpt lat="44.13912" lon="0.48029">
        <ele>113</ele>
        <time>2022-09-15T09:10:01.829Z</time>
      </trkpt>
      <trkpt lat="44.13911" lon="0.48028">
        <ele>113</ele>
        <time>2022-09-15T09:10:02.829Z</time>
      </trkpt>
      <trkpt lat="44.1391" lon="0.48028">
        <ele>113</ele>
        <time>2022-09-15T09:10:03.829Z</time>
      </trkpt>
      <trkpt lat="44.13909" lon="0.48027">
        <ele>114</ele>
        <time>2022-09-15T09:10:04.829Z</time>
      </trkpt>
      <trkpt lat="44.13908" lon="0.48027">
        <ele>114</ele>
        <time>2022-09-15T09:10:05.829Z</time>
      </trkpt>
      <trkpt lat="44.13908" lon="0.48026">
        <ele>114</ele>
        <time>2022-09-15T09:10:06.829Z</time>
      </trkpt>
      <trkpt lat="44.13907" lon="0.48025">
        <ele>114</ele>
        <time>2022-09-15T09:10:07.829Z</time>
      </trkpt>
      <trkpt lat="44.13906" lon="0.48024">
        <ele>114</ele>
        <time>2022-09-15T09:10:08.829Z</time>
      </trkpt>
      <trkpt lat="44.13905" lon="0.48023">
        <ele>114</ele>
        <time>2022-09-15T09:10:09.829Z</time>
      </trkpt>
      <trkpt lat="44.13904" lon="0.48022">
        <ele>114</ele>
        <time>2022-09-15T09:10:10.829Z</time>
      </trkpt>
      <trkpt lat="44.13904" lon="0.48021">
        <ele>114</ele>
        <time>2022-09-15T09:10:11.829Z</time>
      </trkpt>
      <trkpt lat="44.13903" lon="0.4802">
        <ele>114</ele>
        <time>2022-09-15T09:10:12.829Z</time>
      </trkpt>
      <trkpt lat="44.13902" lon="0.48019">
        <ele>113</ele>
        <time>2022-09-15T09:10:13.829Z</time>
      </trkpt>
      <trkpt lat="44.13901" lon="0.48018">
        <ele>114</ele>
        <time>2022-09-15T09:10:14.829Z</time>
      </trkpt>
      <trkpt lat="44.139" lon="0.48017">
        <ele>114</ele>
        <time>2022-09-15T09:10:15.829Z</time>
      </trkpt>
      <trkpt lat="44.13899" lon="0.48016">
        <ele>113</ele>
        <time>2022-09-15T09:10:16.829Z</time>
      </trkpt>
      <trkpt lat="44.13899" lon="0.48016">
        <ele>113</ele>
        <time>2022-09-15T09:10:17.829Z</time>
      </trkpt>
      <trkpt lat="44.13898" lon="0.48015">
        <ele>113</ele>
        <time>2022-09-15T09:10:18.829Z</time>
      </trkpt>
      <trkpt lat="44.13897" lon="0.48014">
        <ele>113</ele>
        <time>2022-09-15T09:10:19.829Z</time>
      </trkpt>
      <trkpt lat="44.13896" lon="0.48014">
        <ele>112</ele>
        <time>2022-09-15T09:10:20.829Z</time>
      </trkpt>
      <trkpt lat="44.13895" lon="0.48013">
        <ele>113</ele>
        <time>2022-09-15T09:10:21.829Z</time>
      </trkpt>
      <trkpt lat="44.13895" lon="0.48013">
        <ele>113</ele>
        <time>2022-09-15T09:10:22.829Z</time>
      </trkpt>
      <trkpt lat="44.13894" lon="0.48012">
        <ele>113</ele>
        <time>2022-09-15T09:10:23.829Z</time>
      </trkpt>
      <trkpt lat="44.13893" lon="0.48011">
        <ele>113</ele>
        <time>2022-09-15T09:10:24.829Z</time>
      </trkpt>
      <trkpt lat="44.13892" lon="0.48011">
        <ele>113</ele>
        <time>2022-09-15T09:10:25.829Z</time>
      </trkpt>
      <trkpt lat="44.13891" lon="0.4801">
        <ele>113</ele>
        <time>2022-09-15T09:10:26.829Z</time>
      </trkpt>
      <trkpt lat="44.1389" lon="0.4801">
        <ele>113</ele>
        <time>2022-09-15T09:10:27.829Z</time>
      </trkpt>
      <trkpt lat="44.13889" lon="0.48009">
        <ele>114</ele>
        <time>2022-09-15T09:10:28.829Z</time>
      </trkpt>
      <trkpt lat="44.13888" lon="0.48008">
        <ele>114</ele>
        <time>2022-09-15T09:10:29.829Z</time>
      </trkpt>
      <trkpt lat="44.13887" lon="0.48007">
        <ele>113</ele>
        <time>2022-09-15T09:10:30.829Z</time>
      </trkpt>
      <trkpt lat="44.13886" lon="0.48007">
        <ele>113</ele>
        <time>2022-09-15T09:10:31.829Z</time>
      </trkpt>
      <trkpt lat="44.13885" lon="0.48006">
        <ele>113</ele>
        <time>2022-09-15T09:10:32.829Z</time>
      </trkpt>
      <trkpt lat="44.13884" lon="0.48006">
        <ele>113</ele>
        <time>2022-09-15T09:10:33.829Z</time>
      </trkpt>
      <trkpt lat="44.13884" lon="0.48005">
        <ele>113</ele>
        <time>2022-09-15T09:10:34.829Z</time>
      </trkpt>
      <trkpt lat="44.13883" lon="0.48005">
        <ele>113</ele>
        <time>2022-09-15T09:10:35.829Z</time>
      </trkpt>
      <trkpt lat="44.13882" lon="0.48004">
        <ele>114</ele>
        <time>2022-09-15T09:10:36.829Z</time>
      </trkpt>
      <trkpt lat="44.1388" lon="0.48003">
        <ele>115</ele>
        <time>2022-09-15T09:10:37.829Z</time>
      </trkpt>
      <trkpt lat="44.1388" lon="0.48002">
        <ele>116</ele>
        <time>2022-09-15T09:10:38.829Z</time>
      </trkpt>
      <trkpt lat="44.13879" lon="0.48002">
        <ele>117</ele>
        <time>2022-09-15T09:10:39.829Z</time>
      </trkpt>
      <trkpt lat="44.13878" lon="0.48001">
        <ele>117</ele>
        <time>2022-09-15T09:10:40.829Z</time>
      </trkpt>
      <trkpt lat="44.13876" lon="0.48001">
        <ele>117</ele>
        <time>2022-09-15T09:10:41.829Z</time>
      </trkpt>
      <trkpt lat="44.13875" lon="0.48001">
        <ele>117</ele>
        <time>2022-09-15T09:10:42.829Z</time>
      </trkpt>
      <trkpt lat="44.13874" lon="0.48001">
        <ele>117</ele>
        <time>2022-09-15T09:10:43.829Z</time>
      </trkpt>
      <trkpt lat="44.13873" lon="0.48">
        <ele>117</ele>
        <time>2022-09-15T09:10:44.829Z</time>
      </trkpt>
      <trkpt lat="44.13872" lon="0.48">
        <ele>117</ele>
        <time>2022-09-15T09:10:45.829Z</time>
      </trkpt>
      <trkpt lat="44.1387" lon="0.48">
        <ele>117</ele>
        <time>2022-09-15T09:10:46.829Z</time>
      </trkpt>
      <trkpt lat="44.13869" lon="0.47999">
        <ele>116</ele>
        <time>2022-09-15T09:10:47.829Z</time>
      </trkpt>
      <trkpt lat="44.13867" lon="0.47999">
        <ele>116</ele>
        <time>2022-09-15T09:10:48.829Z</time>
      </trkpt>
      <trkpt lat="44.13866" lon="0.47998">
        <ele>116</ele>
        <time>2022-09-15T09:10:49.829Z</time>
      </trkpt>
      <trkpt lat="44.13865" lon="0.47997">
        <ele>116</ele>
        <time>2022-09-15T09:10:50.829Z</time>
      </trkpt>
      <trkpt lat="44.13864" lon="0.47997">
        <ele>117</ele>
        <time>2022-09-15T09:10:51.829Z</time>
      </trkpt>
      <trkpt lat="44.13863" lon="0.47996">
        <ele>116</ele>
        <time>2022-09-15T09:10:52.829Z</time>
      </trkpt>
      <trkpt lat="44.13861" lon="0.47995">
        <ele>117</ele>
        <time>2022-09-15T09:10:53.829Z</time>
      </trkpt>
      <trkpt lat="44.1386" lon="0.47995">
        <ele>117</ele>
        <time>2022-09-15T09:10:54.829Z</time>
      </trkpt>
      <trkpt lat="44.13859" lon="0.47994">
        <ele>117</ele>
        <time>2022-09-15T09:10:55.829Z</time>
      </trkpt>
      <trkpt lat="44.13858" lon="0.47994">
        <ele>117</ele>
        <time>2022-09-15T09:10:56.829Z</time>
      </trkpt>
      <trkpt lat="44.13857" lon="0.47993">
        <ele>117</ele>
        <time>2022-09-15T09:10:57.829Z</time>
      </trkpt>
      <trkpt lat="44.13856" lon="0.47993">
        <ele>116</ele>
        <time>2022-09-15T09:10:58.829Z</time>
      </trkpt>
      <trkpt lat="44.13854" lon="0.47992">
        <ele>117</ele>
        <time>2022-09-15T09:10:59.829Z</time>
      </trkpt>
      <trkpt lat="44.13853" lon="0.47991">
        <ele>117</ele>
        <time>2022-09-15T09:11:00.829Z</time>
      </trkpt>
      <trkpt lat="44.13852" lon="0.4799">
        <ele>117</ele>
        <time>2022-09-15T09:11:01.829Z</time>
      </trkpt>
      <trkpt lat="44.13851" lon="0.4799">
        <ele>117</ele>
        <time>2022-09-15T09:11:02.829Z</time>
      </trkpt>
      <trkpt lat="44.13851" lon="0.47989">
        <ele>117</ele>
        <time>2022-09-15T09:11:03.829Z</time>
      </trkpt>
      <trkpt lat="44.1385" lon="0.47989">
        <ele>117</ele>
        <time>2022-09-15T09:11:04.829Z</time>
      </trkpt>
      <trkpt lat="44.13849" lon="0.47989">
        <ele>117</ele>
        <time>2022-09-15T09:11:05.829Z</time>
      </trkpt>
      <trkpt lat="44.13849" lon="0.47988">
        <ele>117</ele>
        <time>2022-09-15T09:11:06.829Z</time>
      </trkpt>
      <trkpt lat="44.13848" lon="0.47988">
        <ele>117</ele>
        <time>2022-09-15T09:11:07.829Z</time>
      </trkpt>
      <trkpt lat="44.13847" lon="0.47987">
        <ele>117</ele>
        <time>2022-09-15T09:11:08.829Z</time>
      </trkpt>
      <trkpt lat="44.13846" lon="0.47987">
        <ele>117</ele>
        <time>2022-09-15T09:11:09.829Z</time>
      </trkpt>
      <trkpt lat="44.13846" lon="0.47986">
        <ele>117</ele>
        <time>2022-09-15T09:11:10.829Z</time>
      </trkpt>
      <trkpt lat="44.13845" lon="0.47986">
        <ele>117</ele>
        <time>2022-09-15T09:11:11.829Z</time>
      </trkpt>
      <trkpt lat="44.13844" lon="0.47986">
        <ele>117</ele>
        <time>2022-09-15T09:11:12.829Z</time>
      </trkpt>
      <trkpt lat="44.13843" lon="0.47985">
        <ele>117</ele>
        <time>2022-09-15T09:11:13.829Z</time>
      </trkpt>
      <trkpt lat="44.13842" lon="0.47985">
        <ele>117</ele>
        <time>2022-09-15T09:11:14.829Z</time>
      </trkpt>
      <trkpt lat="44.13841" lon="0.47985">
        <ele>118</ele>
        <time>2022-09-15T09:11:15.829Z</time>
      </trkpt>
      <trkpt lat="44.13841" lon="0.47985">
        <ele>119</ele>
        <time>2022-09-15T09:11:16.829Z</time>
      </trkpt>
      <trkpt lat="44.1384" lon="0.47985">
        <ele>119</ele>
        <time>2022-09-15T09:11:17.829Z</time>
      </trkpt>
      <trkpt lat="44.13839" lon="0.47985">
        <ele>119</ele>
        <time>2022-09-15T09:11:18.829Z</time>
      </trkpt>
      <trkpt lat="44.13839" lon="0.47985">
        <ele>120</ele>
        <time>2022-09-15T09:11:19.829Z</time>
      </trkpt>
      <trkpt lat="44.13838" lon="0.47985">
        <ele>120</ele>
        <time>2022-09-15T09:11:20.829Z</time>
      </trkpt>
      <trkpt lat="44.13837" lon="0.47985">
        <ele>120</ele>
        <time>2022-09-15T09:11:21.829Z</time>
      </trkpt>
      <trkpt lat="44.13837" lon="0.47985">
        <ele>120</ele>
        <time>2022-09-15T09:11:22.829Z</time>
      </trkpt>
      <trkpt lat="44.13836" lon="0.47984">
        <ele>120</ele>
        <time>2022-09-15T09:11:23.829Z</time>
      </trkpt>
      <trkpt lat="44.13836" lon="0.47984">
        <ele>120</ele>
        <time>2022-09-15T09:11:24.829Z</time>
      </trkpt>
      <trkpt lat="44.13835" lon="0.47984">
        <ele>120</ele>
        <time>2022-09-15T09:11:25.829Z</time>
      </trkpt>
      <trkpt lat="44.13834" lon="0.47983">
        <ele>120</ele>
        <time>2022-09-15T09:11:26.829Z</time>
      </trkpt>
      <trkpt lat="44.13833" lon="0.47983">
        <ele>121</ele>
        <time>2022-09-15T09:11:27.829Z</time>
      </trkpt>
      <trkpt lat="44.13832" lon="0.47983">
        <ele>121</ele>
        <time>2022-09-15T09:11:28.829Z</time>
      </trkpt>
      <trkpt lat="44.13832" lon="0.47983">
        <ele>121</ele>
        <time>2022-09-15T09:11:29.829Z</time>
      </trkpt>
      <trkpt lat="44.13831" lon="0.47983">
        <ele>121</ele>
        <time>2022-09-15T09:11:30.829Z</time>
      </trkpt>
      <trkpt lat="44.13831" lon="0.47983">
        <ele>121</ele>
        <time>2022-09-15T09:11:31.829Z</time>
      </trkpt>
      <trkpt lat="44.1383" lon="0.47983">
        <ele>121</ele>
        <time>2022-09-15T09:11:32.829Z</time>
      </trkpt>
      <trkpt lat="44.1383" lon="0.47982">
        <ele>121</ele>
        <time>2022-09-15T09:11:33.829Z</time>
      </trkpt>
      <trkpt lat="44.1383" lon="0.47982">
        <ele>121</ele>
        <time>2022-09-15T09:11:34.829Z</time>
      </trkpt>
      <trkpt lat="44.13829" lon="0.47982">
        <ele>122</ele>
        <time>2022-09-15T09:11:35.829Z</time>
      </trkpt>
      <trkpt lat="44.13829" lon="0.47982">
        <ele>122</ele>
        <time>2022-09-15T09:11:36.829Z</time>
      </trkpt>
      <trkpt lat="44.13828" lon="0.47982">
        <ele>122</ele>
        <time>2022-09-15T09:11:37.829Z</time>
      </trkpt>
      <trkpt lat="44.13828" lon="0.47982">
        <ele>122</ele>
        <time>2022-09-15T09:11:38.829Z</time>
      </trkpt>
      <trkpt lat="44.13827" lon="0.47982">
        <ele>123</ele>
        <time>2022-09-15T09:11:39.829Z</time>
      </trkpt>
      <trkpt lat="44.13827" lon="0.47981">
        <ele>123</ele>
        <time>2022-09-15T09:11:40.829Z</time>
      </trkpt>
      <trkpt lat="44.13826" lon="0.47981">
        <ele>123</ele>
        <time>2022-09-15T09:11:41.829Z</time>
      </trkpt>
      <trkpt lat="44.13826" lon="0.4798">
        <ele>123</ele>
        <time>2022-09-15T09:11:42.829Z</time>
      </trkpt>
      <trkpt lat="44.13825" lon="0.4798">
        <ele>124</ele>
        <time>2022-09-15T09:11:43.829Z</time>
      </trkpt>
      <trkpt lat="44.13824" lon="0.47979">
        <ele>124</ele>
        <time>2022-09-15T09:11:44.829Z</time>
      </trkpt>
      <trkpt lat="44.13824" lon="0.47979">
        <ele>124</ele>
        <time>2022-09-15T09:11:45.829Z</time>
      </trkpt>
      <trkpt lat="44.13823" lon="0.47979">
        <ele>124</ele>
        <time>2022-09-15T09:11:46.829Z</time>
      </trkpt>
      <trkpt lat="44.13822" lon="0.47979">
        <ele>125</ele>
        <time>2022-09-15T09:11:47.829Z</time>
      </trkpt>
      <trkpt lat="44.13822" lon="0.47979">
        <ele>124</ele>
        <time>2022-09-15T09:11:48.829Z</time>
      </trkpt>
      <trkpt lat="44.13821" lon="0.47979">
        <ele>125</ele>
        <time>2022-09-15T09:11:49.829Z</time>
      </trkpt>
      <trkpt lat="44.13821" lon="0.47979">
        <ele>125</ele>
        <time>2022-09-15T09:11:50.829Z</time>
      </trkpt>
      <trkpt lat="44.1382" lon="0.47979">
        <ele>125</ele>
        <time>2022-09-15T09:11:51.829Z</time>
      </trkpt>
      <trkpt lat="44.13819" lon="0.47979">
        <ele>127</ele>
        <time>2022-09-15T09:11:52.829Z</time>
      </trkpt>
      <trkpt lat="44.13819" lon="0.47979">
        <ele>127</ele>
        <time>2022-09-15T09:11:53.829Z</time>
      </trkpt>
      <trkpt lat="44.13818" lon="0.47978">
        <ele>127</ele>
        <time>2022-09-15T09:11:54.829Z</time>
      </trkpt>
      <trkpt lat="44.13817" lon="0.47978">
        <ele>127</ele>
        <time>2022-09-15T09:11:55.829Z</time>
      </trkpt>
      <trkpt lat="44.13817" lon="0.47978">
        <ele>128</ele>
        <time>2022-09-15T09:11:56.829Z</time>
      </trkpt>
      <trkpt lat="44.13816" lon="0.47978">
        <ele>128</ele>
        <time>2022-09-15T09:11:57.829Z</time>
      </trkpt>
      <trkpt lat="44.13815" lon="0.47978">
        <ele>129</ele>
        <time>2022-09-15T09:11:58.829Z</time>
      </trkpt>
      <trkpt lat="44.13813" lon="0.47978">
        <ele>129</ele>
        <time>2022-09-15T09:11:59.829Z</time>
      </trkpt>
      <trkpt lat="44.13812" lon="0.47978">
        <ele>129</ele>
        <time>2022-09-15T09:12:00.829Z</time>
      </trkpt>
      <trkpt lat="44.13811" lon="0.47977">
        <ele>129</ele>
        <time>2022-09-15T09:12:01.829Z</time>
      </trkpt>
      <trkpt lat="44.13811" lon="0.47977">
        <ele>129</ele>
        <time>2022-09-15T09:12:02.829Z</time>
      </trkpt>
      <trkpt lat="44.1381" lon="0.47977">
        <ele>129</ele>
        <time>2022-09-15T09:12:03.829Z</time>
      </trkpt>
      <trkpt lat="44.13809" lon="0.47977">
        <ele>129</ele>
        <time>2022-09-15T09:12:04.829Z</time>
      </trkpt>
      <trkpt lat="44.13808" lon="0.47976">
        <ele>129</ele>
        <time>2022-09-15T09:12:05.829Z</time>
      </trkpt>
      <trkpt lat="44.13807" lon="0.47976">
        <ele>129</ele>
        <time>2022-09-15T09:12:06.829Z</time>
      </trkpt>
      <trkpt lat="44.13805" lon="0.47976">
        <ele>128</ele>
        <time>2022-09-15T09:12:07.829Z</time>
      </trkpt>
      <trkpt lat="44.13804" lon="0.47976">
        <ele>127</ele>
        <time>2022-09-15T09:12:08.829Z</time>
      </trkpt>
      <trkpt lat="44.13802" lon="0.47976">
        <ele>126</ele>
        <time>2022-09-15T09:12:09.829Z</time>
      </trkpt>
      <trkpt lat="44.13801" lon="0.47976">
        <ele>125</ele>
        <time>2022-09-15T09:12:10.829Z</time>
      </trkpt>
      <trkpt lat="44.13799" lon="0.47975">
        <ele>125</ele>
        <time>2022-09-15T09:12:11.829Z</time>
      </trkpt>
      <trkpt lat="44.13798" lon="0.47975">
        <ele>126</ele>
        <time>2022-09-15T09:12:12.829Z</time>
      </trkpt>
      <trkpt lat="44.13797" lon="0.47975">
        <ele>126</ele>
        <time>2022-09-15T09:12:13.829Z</time>
      </trkpt>
      <trkpt lat="44.13796" lon="0.47975">
        <ele>126</ele>
        <time>2022-09-15T09:12:14.829Z</time>
      </trkpt>
      <trkpt lat="44.13795" lon="0.47975">
        <ele>125</ele>
        <time>2022-09-15T09:12:15.829Z</time>
      </trkpt>
      <trkpt lat="44.13794" lon="0.47975">
        <ele>125</ele>
        <time>2022-09-15T09:12:16.829Z</time>
      </trkpt>
      <trkpt lat="44.13793" lon="0.47974">
        <ele>125</ele>
        <time>2022-09-15T09:12:17.829Z</time>
      </trkpt>
      <trkpt lat="44.13792" lon="0.47974">
        <ele>125</ele>
        <time>2022-09-15T09:12:18.829Z</time>
      </trkpt>
      <trkpt lat="44.13791" lon="0.47974">
        <ele>125</ele>
        <time>2022-09-15T09:12:19.829Z</time>
      </trkpt>
      <trkpt lat="44.1379" lon="0.47974">
        <ele>125</ele>
        <time>2022-09-15T09:12:20.829Z</time>
      </trkpt>
      <trkpt lat="44.13789" lon="0.47974">
        <ele>126</ele>
        <time>2022-09-15T09:12:21.829Z</time>
      </trkpt>
      <trkpt lat="44.13788" lon="0.47973">
        <ele>126</ele>
        <time>2022-09-15T09:12:22.829Z</time>
      </trkpt>
      <trkpt lat="44.13787" lon="0.47973">
        <ele>127</ele>
        <time>2022-09-15T09:12:23.829Z</time>
      </trkpt>
      <trkpt lat="44.13786" lon="0.47973">
        <ele>127</ele>
        <time>2022-09-15T09:12:24.829Z</time>
      </trkpt>
      <trkpt lat="44.13785" lon="0.47974">
        <ele>127</ele>
        <time>2022-09-15T09:12:25.829Z</time>
      </trkpt>
      <trkpt lat="44.13784" lon="0.47974">
        <ele>127</ele>
        <time>2022-09-15T09:12:26.829Z</time>
      </trkpt>
      <trkpt lat="44.13783" lon="0.47974">
        <ele>127</ele>
        <time>2022-09-15T09:12:27.829Z</time>
      </trkpt>
      <trkpt lat="44.13782" lon="0.47974">
        <ele>127</ele>
        <time>2022-09-15T09:12:28.829Z</time>
      </trkpt>
      <trkpt lat="44.13781" lon="0.47974">
        <ele>127</ele>
        <time>2022-09-15T09:12:29.829Z</time>
      </trkpt>
      <trkpt lat="44.13781" lon="0.47973">
        <ele>128</ele>
        <time>2022-09-15T09:12:30.829Z</time>
      </trkpt>
      <trkpt lat="44.1378" lon="0.47973">
        <ele>127</ele>
        <time>2022-09-15T09:12:31.829Z</time>
      </trkpt>
      <trkpt lat="44.13779" lon="0.47973">
        <ele>128</ele>
        <time>2022-09-15T09:12:32.829Z</time>
      </trkpt>
      <trkpt lat="44.13778" lon="0.47973">
        <ele>128</ele>
        <time>2022-09-15T09:12:33.829Z</time>
      </trkpt>
      <trkpt lat="44.13777" lon="0.47972">
        <ele>128</ele>
        <time>2022-09-15T09:12:34.829Z</time>
      </trkpt>
      <trkpt lat="44.13777" lon="0.47972">
        <ele>128</ele>
        <time>2022-09-15T09:12:35.829Z</time>
      </trkpt>
      <trkpt lat="44.13776" lon="0.47972">
        <ele>129</ele>
        <time>2022-09-15T09:12:36.829Z</time>
      </trkpt>
      <trkpt lat="44.13775" lon="0.47972">
        <ele>129</ele>
        <time>2022-09-15T09:12:37.829Z</time>
      </trkpt>
      <trkpt lat="44.13774" lon="0.47972">
        <ele>129</ele>
        <time>2022-09-15T09:12:38.829Z</time>
      </trkpt>
      <trkpt lat="44.13773" lon="0.47972">
        <ele>129</ele>
        <time>2022-09-15T09:12:39.829Z</time>
      </trkpt>
      <trkpt lat="44.13772" lon="0.47972">
        <ele>129</ele>
        <time>2022-09-15T09:12:40.829Z</time>
      </trkpt>
      <trkpt lat="44.13771" lon="0.47972">
        <ele>129</ele>
        <time>2022-09-15T09:12:41.829Z</time>
      </trkpt>
      <trkpt lat="44.1377" lon="0.47971">
        <ele>129</ele>
        <time>2022-09-15T09:12:42.829Z</time>
      </trkpt>
      <trkpt lat="44.13769" lon="0.47971">
        <ele>130</ele>
        <time>2022-09-15T09:12:43.829Z</time>
      </trkpt>
      <trkpt lat="44.13769" lon="0.47971">
        <ele>130</ele>
        <time>2022-09-15T09:12:44.829Z</time>
      </trkpt>
      <trkpt lat="44.13768" lon="0.4797">
        <ele>130</ele>
        <time>2022-09-15T09:12:45.829Z</time>
      </trkpt>
      <trkpt lat="44.13767" lon="0.4797">
        <ele>131</ele>
        <time>2022-09-15T09:12:46.829Z</time>
      </trkpt>
      <trkpt lat="44.13766" lon="0.4797">
        <ele>131</ele>
        <time>2022-09-15T09:12:47.829Z</time>
      </trkpt>
      <trkpt lat="44.13765" lon="0.4797">
        <ele>131</ele>
        <time>2022-09-15T09:12:48.829Z</time>
      </trkpt>
      <trkpt lat="44.13764" lon="0.47969">
        <ele>131</ele>
        <time>2022-09-15T09:12:49.829Z</time>
      </trkpt>
      <trkpt lat="44.13763" lon="0.47969">
        <ele>132</ele>
        <time>2022-09-15T09:12:50.829Z</time>
      </trkpt>
      <trkpt lat="44.13762" lon="0.47968">
        <ele>132</ele>
        <time>2022-09-15T09:12:51.829Z</time>
      </trkpt>
      <trkpt lat="44.13761" lon="0.47967">
        <ele>132</ele>
        <time>2022-09-15T09:12:52.829Z</time>
      </trkpt>
      <trkpt lat="44.1376" lon="0.47967">
        <ele>132</ele>
        <time>2022-09-15T09:12:53.829Z</time>
      </trkpt>
      <trkpt lat="44.1376" lon="0.47966">
        <ele>133</ele>
        <time>2022-09-15T09:12:54.829Z</time>
      </trkpt>
      <trkpt lat="44.13759" lon="0.47965">
        <ele>133</ele>
        <time>2022-09-15T09:12:55.829Z</time>
      </trkpt>
      <trkpt lat="44.13758" lon="0.47965">
        <ele>133</ele>
        <time>2022-09-15T09:12:56.829Z</time>
      </trkpt>
      <trkpt lat="44.13757" lon="0.47964">
        <ele>133</ele>
        <time>2022-09-15T09:12:57.829Z</time>
      </trkpt>
      <trkpt lat="44.13757" lon="0.47964">
        <ele>133</ele>
        <time>2022-09-15T09:12:58.829Z</time>
      </trkpt>
      <trkpt lat="44.13756" lon="0.47964">
        <ele>133</ele>
        <time>2022-09-15T09:12:59.829Z</time>
      </trkpt>
      <trkpt lat="44.13756" lon="0.47963">
        <ele>133</ele>
        <time>2022-09-15T09:13:00.829Z</time>
      </trkpt>
      <trkpt lat="44.13755" lon="0.47963">
        <ele>132</ele>
        <time>2022-09-15T09:13:01.829Z</time>
      </trkpt>
      <trkpt lat="44.13755" lon="0.47963">
        <ele>132</ele>
        <time>2022-09-15T09:13:02.829Z</time>
      </trkpt>
      <trkpt lat="44.13755" lon="0.47962">
        <ele>132</ele>
        <time>2022-09-15T09:13:03.829Z</time>
      </trkpt>
      <trkpt lat="44.13754" lon="0.47962">
        <ele>132</ele>
        <time>2022-09-15T09:13:04.829Z</time>
      </trkpt>
      <trkpt lat="44.13754" lon="0.47961">
        <ele>132</ele>
        <time>2022-09-15T09:13:05.829Z</time>
      </trkpt>
      <trkpt lat="44.13754" lon="0.4796">
        <ele>132</ele>
        <time>2022-09-15T09:13:06.829Z</time>
      </trkpt>
      <trkpt lat="44.13754" lon="0.47959">
        <ele>132</ele>
        <time>2022-09-15T09:13:07.829Z</time>
      </trkpt>
      <trkpt lat="44.13754" lon="0.47959">
        <ele>131</ele>
        <time>2022-09-15T09:13:08.829Z</time>
      </trkpt>
      <trkpt lat="44.13754" lon="0.47959">
        <ele>131</ele>
        <time>2022-09-15T09:13:09.829Z</time>
      </trkpt>
      <trkpt lat="44.13754" lon="0.47958">
        <ele>132</ele>
        <time>2022-09-15T09:13:10.829Z</time>
      </trkpt>
      <trkpt lat="44.13754" lon="0.47958">
        <ele>132</ele>
        <time>2022-09-15T09:13:11.829Z</time>
      </trkpt>
      <trkpt lat="44.13754" lon="0.47957">
        <ele>132</ele>
        <time>2022-09-15T09:13:12.829Z</time>
      </trkpt>
      <trkpt lat="44.13754" lon="0.47956">
        <ele>132</ele>
        <time>2022-09-15T09:13:13.829Z</time>
      </trkpt>
      <trkpt lat="44.13754" lon="0.47955">
        <ele>132</ele>
        <time>2022-09-15T09:13:14.829Z</time>
      </trkpt>
      <trkpt lat="44.13754" lon="0.47954">
        <ele>132</ele>
        <time>2022-09-15T09:13:15.829Z</time>
      </trkpt>
      <trkpt lat="44.13754" lon="0.47953">
        <ele>132</ele>
        <time>2022-09-15T09:13:16.829Z</time>
      </trkpt>
      <trkpt lat="44.13754" lon="0.47953">
        <ele>132</ele>
        <time>2022-09-15T09:13:17.829Z</time>
      </trkpt>
      <trkpt lat="44.13754" lon="0.47953">
        <ele>132</ele>
        <time>2022-09-15T09:13:18.829Z</time>
      </trkpt>
      <trkpt lat="44.13754" lon="0.47953">
        <ele>132</ele>
        <time>2022-09-15T09:13:19.829Z</time>
      </trkpt>
      <trkpt lat="44.13754" lon="0.47953">
        <ele>132</ele>
        <time>2022-09-15T09:13:20.829Z</time>
      </trkpt>
      <trkpt lat="44.13754" lon="0.47953">
        <ele>132</ele>
        <time>2022-09-15T09:13:21.829Z</time>
      </trkpt>
      <trkpt lat="44.13752" lon="0.47955">
        <ele>133</ele>
        <time>2022-09-15T09:13:52.836Z</time>
      </trkpt>
      <trkpt lat="44.13752" lon="0.47956">
        <ele>132</ele>
        <time>2022-09-15T09:13:53.836Z</time>
      </trkpt>
      <trkpt lat="44.13752" lon="0.47956">
        <ele>132</ele>
        <time>2022-09-15T09:13:54.836Z</time>
      </trkpt>
      <trkpt lat="44.13752" lon="0.47956">
        <ele>132</ele>
        <time>2022-09-15T09:13:55.836Z</time>
      </trkpt>
      <trkpt lat="44.13752" lon="0.47956">
        <ele>132</ele>
        <time>2022-09-15T09:13:56.836Z</time>
      </trkpt>
      <trkpt lat="44.13752" lon="0.47956">
        <ele>131</ele>
        <time>2022-09-15T09:14:10.858Z</time>
      </trkpt>
      <trkpt lat="44.13752" lon="0.47955">
        <ele>131</ele>
        <time>2022-09-15T09:14:11.858Z</time>
      </trkpt>
      <trkpt lat="44.13751" lon="0.47955">
        <ele>131</ele>
        <time>2022-09-15T09:14:12.858Z</time>
      </trkpt>
      <trkpt lat="44.1375" lon="0.47954">
        <ele>130</ele>
        <time>2022-09-15T09:14:13.858Z</time>
      </trkpt>
      <trkpt lat="44.1375" lon="0.47954">
        <ele>130</ele>
        <time>2022-09-15T09:14:14.858Z</time>
      </trkpt>
      <trkpt lat="44.13749" lon="0.47953">
        <ele>130</ele>
        <time>2022-09-15T09:14:15.858Z</time>
      </trkpt>
      <trkpt lat="44.13749" lon="0.47953">
        <ele>130</ele>
        <time>2022-09-15T09:14:16.858Z</time>
      </trkpt>
      <trkpt lat="44.13749" lon="0.47953">
        <ele>130</ele>
        <time>2022-09-15T09:14:17.858Z</time>
      </trkpt>
      <trkpt lat="44.13749" lon="0.47953">
        <ele>130</ele>
        <time>2022-09-15T09:14:18.858Z</time>
      </trkpt>
      <trkpt lat="44.13749" lon="0.47953">
        <ele>129</ele>
        <time>2022-09-15T09:14:19.858Z</time>
      </trkpt>
      <trkpt lat="44.13749" lon="0.47953">
        <ele>129</ele>
        <time>2022-09-15T09:14:20.858Z</time>
      </trkpt>
      <trkpt lat="44.13749" lon="0.47953">
        <ele>129</ele>
        <time>2022-09-15T09:14:21.858Z</time>
      </trkpt>
      <trkpt lat="44.13749" lon="0.47953">
        <ele>130</ele>
        <time>2022-09-15T09:14:22.858Z</time>
      </trkpt>
      <trkpt lat="44.13749" lon="0.47952">
        <ele>130</ele>
        <time>2022-09-15T09:14:23.858Z</time>
      </trkpt>
      <trkpt lat="44.13749" lon="0.47952">
        <ele>129</ele>
        <time>2022-09-15T09:14:24.858Z</time>
      </trkpt>
      <trkpt lat="44.13749" lon="0.47952">
        <ele>130</ele>
        <time>2022-09-15T09:14:25.858Z</time>
      </trkpt>
      <trkpt lat="44.13748" lon="0.47951">
        <ele>130</ele>
        <time>2022-09-15T09:14:26.858Z</time>
      </trkpt>
      <trkpt lat="44.13748" lon="0.47949">
        <ele>130</ele>
        <time>2022-09-15T09:14:27.858Z</time>
      </trkpt>
      <trkpt lat="44.13747" lon="0.47948">
        <ele>130</ele>
        <time>2022-09-15T09:14:28.858Z</time>
      </trkpt>
      <trkpt lat="44.13747" lon="0.47947">
        <ele>131</ele>
        <time>2022-09-15T09:14:29.858Z</time>
      </trkpt>
      <trkpt lat="44.13747" lon="0.47947">
        <ele>131</ele>
        <time>2022-09-15T09:14:30.858Z</time>
      </trkpt>
      <trkpt lat="44.13746" lon="0.47946">
        <ele>131</ele>
        <time>2022-09-15T09:14:31.858Z</time>
      </trkpt>
      <trkpt lat="44.13746" lon="0.47945">
        <ele>131</ele>
        <time>2022-09-15T09:14:32.858Z</time>
      </trkpt>
      <trkpt lat="44.13746" lon="0.47944">
        <ele>131</ele>
        <time>2022-09-15T09:14:33.858Z</time>
      </trkpt>
      <trkpt lat="44.13745" lon="0.47943">
        <ele>131</ele>
        <time>2022-09-15T09:14:34.858Z</time>
      </trkpt>
      <trkpt lat="44.13744" lon="0.47942">
        <ele>131</ele>
        <time>2022-09-15T09:14:35.858Z</time>
      </trkpt>
      <trkpt lat="44.13743" lon="0.47941">
        <ele>132</ele>
        <time>2022-09-15T09:14:36.858Z</time>
      </trkpt>
      <trkpt lat="44.13743" lon="0.4794">
        <ele>132</ele>
        <time>2022-09-15T09:14:37.858Z</time>
      </trkpt>
      <trkpt lat="44.13742" lon="0.4794">
        <ele>132</ele>
        <time>2022-09-15T09:14:38.858Z</time>
      </trkpt>
      <trkpt lat="44.13741" lon="0.47939">
        <ele>132</ele>
        <time>2022-09-15T09:14:39.858Z</time>
      </trkpt>
      <trkpt lat="44.13741" lon="0.47939">
        <ele>133</ele>
        <time>2022-09-15T09:14:40.858Z</time>
      </trkpt>
      <trkpt lat="44.1374" lon="0.47938">
        <ele>133</ele>
        <time>2022-09-15T09:14:41.858Z</time>
      </trkpt>
      <trkpt lat="44.1374" lon="0.47937">
        <ele>133</ele>
        <time>2022-09-15T09:14:42.858Z</time>
      </trkpt>
      <trkpt lat="44.13739" lon="0.47937">
        <ele>133</ele>
        <time>2022-09-15T09:14:43.858Z</time>
      </trkpt>
      <trkpt lat="44.13739" lon="0.47936">
        <ele>133</ele>
        <time>2022-09-15T09:14:44.858Z</time>
      </trkpt>
      <trkpt lat="44.13739" lon="0.47936">
        <ele>133</ele>
        <time>2022-09-15T09:14:45.858Z</time>
      </trkpt>
      <trkpt lat="44.13739" lon="0.47936">
        <ele>133</ele>
        <time>2022-09-15T09:14:46.858Z</time>
      </trkpt>
      <trkpt lat="44.13738" lon="0.47933">
        <ele>133</ele>
        <time>2022-09-15T09:15:11.869Z</time>
      </trkpt>
      <trkpt lat="44.13738" lon="0.47932">
        <ele>132</ele>
        <time>2022-09-15T09:15:12.869Z</time>
      </trkpt>
      <trkpt lat="44.13737" lon="0.47932">
        <ele>132</ele>
        <time>2022-09-15T09:15:13.869Z</time>
      </trkpt>
      <trkpt lat="44.13737" lon="0.47932">
        <ele>132</ele>
        <time>2022-09-15T09:15:14.869Z</time>
      </trkpt>
      <trkpt lat="44.13737" lon="0.47931">
        <ele>132</ele>
        <time>2022-09-15T09:15:15.869Z</time>
      </trkpt>
      <trkpt lat="44.13737" lon="0.4793">
        <ele>132</ele>
        <time>2022-09-15T09:15:16.869Z</time>
      </trkpt>
      <trkpt lat="44.13736" lon="0.47929">
        <ele>131</ele>
        <time>2022-09-15T09:15:17.869Z</time>
      </trkpt>
      <trkpt lat="44.13736" lon="0.47927">
        <ele>131</ele>
        <time>2022-09-15T09:15:18.869Z</time>
      </trkpt>
      <trkpt lat="44.13735" lon="0.47925">
        <ele>131</ele>
        <time>2022-09-15T09:15:19.869Z</time>
      </trkpt>
      <trkpt lat="44.13735" lon="0.47924">
        <ele>131</ele>
        <time>2022-09-15T09:15:20.869Z</time>
      </trkpt>
      <trkpt lat="44.13734" lon="0.47922">
        <ele>131</ele>
        <time>2022-09-15T09:15:21.869Z</time>
      </trkpt>
      <trkpt lat="44.13734" lon="0.47921">
        <ele>131</ele>
        <time>2022-09-15T09:15:22.869Z</time>
      </trkpt>
      <trkpt lat="44.13733" lon="0.47919">
        <ele>131</ele>
        <time>2022-09-15T09:15:23.869Z</time>
      </trkpt>
      <trkpt lat="44.13733" lon="0.47917">
        <ele>131</ele>
        <time>2022-09-15T09:15:24.869Z</time>
      </trkpt>
      <trkpt lat="44.13732" lon="0.47916">
        <ele>131</ele>
        <time>2022-09-15T09:15:25.869Z</time>
      </trkpt>
      <trkpt lat="44.13732" lon="0.47914">
        <ele>131</ele>
        <time>2022-09-15T09:15:26.869Z</time>
      </trkpt>
      <trkpt lat="44.13731" lon="0.47913">
        <ele>131</ele>
        <time>2022-09-15T09:15:27.869Z</time>
      </trkpt>
      <trkpt lat="44.13731" lon="0.47911">
        <ele>131</ele>
        <time>2022-09-15T09:15:28.869Z</time>
      </trkpt>
      <trkpt lat="44.13731" lon="0.47909">
        <ele>131</ele>
        <time>2022-09-15T09:15:29.869Z</time>
      </trkpt>
      <trkpt lat="44.1373" lon="0.47908">
        <ele>130</ele>
        <time>2022-09-15T09:15:30.869Z</time>
      </trkpt>
      <trkpt lat="44.1373" lon="0.47906">
        <ele>130</ele>
        <time>2022-09-15T09:15:31.869Z</time>
      </trkpt>
      <trkpt lat="44.1373" lon="0.47904">
        <ele>130</ele>
        <time>2022-09-15T09:15:32.869Z</time>
      </trkpt>
      <trkpt lat="44.13729" lon="0.47902">
        <ele>130</ele>
        <time>2022-09-15T09:15:33.869Z</time>
      </trkpt>
      <trkpt lat="44.13729" lon="0.47901">
        <ele>130</ele>
        <time>2022-09-15T09:15:34.869Z</time>
      </trkpt>
      <trkpt lat="44.13728" lon="0.47899">
        <ele>131</ele>
        <time>2022-09-15T09:15:35.869Z</time>
      </trkpt>
      <trkpt lat="44.13728" lon="0.47897">
        <ele>131</ele>
        <time>2022-09-15T09:15:36.869Z</time>
      </trkpt>
      <trkpt lat="44.13727" lon="0.47895">
        <ele>131</ele>
        <time>2022-09-15T09:15:37.869Z</time>
      </trkpt>
      <trkpt lat="44.13727" lon="0.47894">
        <ele>131</ele>
        <time>2022-09-15T09:15:38.869Z</time>
      </trkpt>
      <trkpt lat="44.13726" lon="0.47892">
        <ele>131</ele>
        <time>2022-09-15T09:15:39.869Z</time>
      </trkpt>
      <trkpt lat="44.13726" lon="0.4789">
        <ele>131</ele>
        <time>2022-09-15T09:15:40.869Z</time>
      </trkpt>
      <trkpt lat="44.13725" lon="0.47889">
        <ele>131</ele>
        <time>2022-09-15T09:15:41.869Z</time>
      </trkpt>
      <trkpt lat="44.13725" lon="0.47887">
        <ele>131</ele>
        <time>2022-09-15T09:15:42.869Z</time>
      </trkpt>
      <trkpt lat="44.13724" lon="0.47886">
        <ele>131</ele>
        <time>2022-09-15T09:15:43.869Z</time>
      </trkpt>
      <trkpt lat="44.13724" lon="0.47884">
        <ele>131</ele>
        <time>2022-09-15T09:15:44.869Z</time>
      </trkpt>
      <trkpt lat="44.13723" lon="0.47883">
        <ele>131</ele>
        <time>2022-09-15T09:15:45.869Z</time>
      </trkpt>
      <trkpt lat="44.13722" lon="0.47882">
        <ele>131</ele>
        <time>2022-09-15T09:15:46.869Z</time>
      </trkpt>
      <trkpt lat="44.13722" lon="0.47881">
        <ele>131</ele>
        <time>2022-09-15T09:15:47.869Z</time>
      </trkpt>
      <trkpt lat="44.13721" lon="0.47881">
        <ele>132</ele>
        <time>2022-09-15T09:15:48.869Z</time>
      </trkpt>
      <trkpt lat="44.1372" lon="0.4788">
        <ele>132</ele>
        <time>2022-09-15T09:15:49.869Z</time>
      </trkpt>
      <trkpt lat="44.13719" lon="0.4788">
        <ele>132</ele>
        <time>2022-09-15T09:15:50.869Z</time>
      </trkpt>
      <trkpt lat="44.13718" lon="0.4788">
        <ele>132</ele>
        <time>2022-09-15T09:15:51.869Z</time>
      </trkpt>
      <trkpt lat="44.13718" lon="0.47879">
        <ele>132</ele>
        <time>2022-09-15T09:15:52.869Z</time>
      </trkpt>
      <trkpt lat="44.13717" lon="0.47879">
        <ele>133</ele>
        <time>2022-09-15T09:15:53.869Z</time>
      </trkpt>
      <trkpt lat="44.13717" lon="0.47879">
        <ele>133</ele>
        <time>2022-09-15T09:15:54.869Z</time>
      </trkpt>
      <trkpt lat="44.13717" lon="0.47879">
        <ele>133</ele>
        <time>2022-09-15T09:15:55.869Z</time>
      </trkpt>
      <trkpt lat="44.13717" lon="0.47878">
        <ele>133</ele>
        <time>2022-09-15T09:15:56.869Z</time>
      </trkpt>
      <trkpt lat="44.13717" lon="0.47878">
        <ele>133</ele>
        <time>2022-09-15T09:15:57.869Z</time>
      </trkpt>
      <trkpt lat="44.13717" lon="0.47878">
        <ele>133</ele>
        <time>2022-09-15T09:15:58.869Z</time>
      </trkpt>
      <trkpt lat="44.13712" lon="0.47878">
        <ele>131</ele>
        <time>2022-09-15T09:16:34.895Z</time>
      </trkpt>
      <trkpt lat="44.13711" lon="0.47877">
        <ele>130</ele>
        <time>2022-09-15T09:16:35.895Z</time>
      </trkpt>
      <trkpt lat="44.1371" lon="0.47877">
        <ele>130</ele>
        <time>2022-09-15T09:16:36.895Z</time>
      </trkpt>
      <trkpt lat="44.13709" lon="0.47878">
        <ele>130</ele>
        <time>2022-09-15T09:16:37.895Z</time>
      </trkpt>
      <trkpt lat="44.13708" lon="0.47877">
        <ele>129</ele>
        <time>2022-09-15T09:16:38.895Z</time>
      </trkpt>
      <trkpt lat="44.13707" lon="0.47877">
        <ele>129</ele>
        <time>2022-09-15T09:16:39.895Z</time>
      </trkpt>
      <trkpt lat="44.13706" lon="0.47877">
        <ele>129</ele>
        <time>2022-09-15T09:16:40.895Z</time>
      </trkpt>
      <trkpt lat="44.13705" lon="0.47877">
        <ele>129</ele>
        <time>2022-09-15T09:16:41.895Z</time>
      </trkpt>
      <trkpt lat="44.13704" lon="0.47877">
        <ele>128</ele>
        <time>2022-09-15T09:16:42.895Z</time>
      </trkpt>
      <trkpt lat="44.13703" lon="0.47876">
        <ele>128</ele>
        <time>2022-09-15T09:16:43.895Z</time>
      </trkpt>
      <trkpt lat="44.13702" lon="0.47876">
        <ele>128</ele>
        <time>2022-09-15T09:16:44.895Z</time>
      </trkpt>
      <trkpt lat="44.13701" lon="0.47876">
        <ele>127</ele>
        <time>2022-09-15T09:16:45.895Z</time>
      </trkpt>
      <trkpt lat="44.137" lon="0.47876">
        <ele>127</ele>
        <time>2022-09-15T09:16:46.895Z</time>
      </trkpt>
      <trkpt lat="44.13699" lon="0.47876">
        <ele>127</ele>
        <time>2022-09-15T09:16:47.895Z</time>
      </trkpt>
      <trkpt lat="44.13698" lon="0.47876">
        <ele>126</ele>
        <time>2022-09-15T09:16:48.895Z</time>
      </trkpt>
      <trkpt lat="44.13697" lon="0.47876">
        <ele>126</ele>
        <time>2022-09-15T09:16:49.895Z</time>
      </trkpt>
      <trkpt lat="44.13696" lon="0.47876">
        <ele>125</ele>
        <time>2022-09-15T09:16:50.895Z</time>
      </trkpt>
      <trkpt lat="44.13695" lon="0.47875">
        <ele>125</ele>
        <time>2022-09-15T09:16:51.895Z</time>
      </trkpt>
      <trkpt lat="44.13694" lon="0.47875">
        <ele>125</ele>
        <time>2022-09-15T09:16:52.895Z</time>
      </trkpt>
      <trkpt lat="44.13693" lon="0.47875">
        <ele>125</ele>
        <time>2022-09-15T09:16:53.895Z</time>
      </trkpt>
      <trkpt lat="44.13692" lon="0.47875">
        <ele>125</ele>
        <time>2022-09-15T09:16:54.895Z</time>
      </trkpt>
      <trkpt lat="44.1369" lon="0.47875">
        <ele>125</ele>
        <time>2022-09-15T09:16:55.895Z</time>
      </trkpt>
      <trkpt lat="44.1369" lon="0.47875">
        <ele>125</ele>
        <time>2022-09-15T09:16:56.895Z</time>
      </trkpt>
      <trkpt lat="44.13689" lon="0.47875">
        <ele>125</ele>
        <time>2022-09-15T09:16:57.895Z</time>
      </trkpt>
      <trkpt lat="44.13689" lon="0.47874">
        <ele>125</ele>
        <time>2022-09-15T09:16:58.895Z</time>
      </trkpt>
      <trkpt lat="44.13688" lon="0.47873">
        <ele>125</ele>
        <time>2022-09-15T09:16:59.895Z</time>
      </trkpt>
      <trkpt lat="44.13688" lon="0.47872">
        <ele>126</ele>
        <time>2022-09-15T09:17:00.895Z</time>
      </trkpt>
      <trkpt lat="44.13687" lon="0.47872">
        <ele>126</ele>
        <time>2022-09-15T09:17:01.895Z</time>
      </trkpt>
      <trkpt lat="44.13686" lon="0.47871">
        <ele>126</ele>
        <time>2022-09-15T09:17:02.895Z</time>
      </trkpt>
      <trkpt lat="44.13685" lon="0.47871">
        <ele>126</ele>
        <time>2022-09-15T09:17:03.895Z</time>
      </trkpt>
      <trkpt lat="44.13684" lon="0.4787">
        <ele>126</ele>
        <time>2022-09-15T09:17:04.895Z</time>
      </trkpt>
      <trkpt lat="44.13682" lon="0.4787">
        <ele>126</ele>
        <time>2022-09-15T09:17:05.895Z</time>
      </trkpt>
      <trkpt lat="44.13681" lon="0.47869">
        <ele>127</ele>
        <time>2022-09-15T09:17:06.895Z</time>
      </trkpt>
      <trkpt lat="44.1368" lon="0.47868">
        <ele>127</ele>
        <time>2022-09-15T09:17:07.895Z</time>
      </trkpt>
      <trkpt lat="44.13679" lon="0.47867">
        <ele>127</ele>
        <time>2022-09-15T09:17:08.895Z</time>
      </trkpt>
      <trkpt lat="44.13678" lon="0.47866">
        <ele>127</ele>
        <time>2022-09-15T09:17:09.895Z</time>
      </trkpt>
      <trkpt lat="44.13676" lon="0.47865">
        <ele>128</ele>
        <time>2022-09-15T09:17:10.895Z</time>
      </trkpt>
      <trkpt lat="44.13675" lon="0.47864">
        <ele>128</ele>
        <time>2022-09-15T09:17:11.895Z</time>
      </trkpt>
      <trkpt lat="44.13674" lon="0.47862">
        <ele>127</ele>
        <time>2022-09-15T09:17:12.895Z</time>
      </trkpt>
      <trkpt lat="44.13674" lon="0.47861">
        <ele>127</ele>
        <time>2022-09-15T09:17:13.895Z</time>
      </trkpt>
      <trkpt lat="44.13673" lon="0.47859">
        <ele>127</ele>
        <time>2022-09-15T09:17:14.895Z</time>
      </trkpt>
      <trkpt lat="44.13672" lon="0.47858">
        <ele>127</ele>
        <time>2022-09-15T09:17:15.895Z</time>
      </trkpt>
      <trkpt lat="44.13672" lon="0.47856">
        <ele>127</ele>
        <time>2022-09-15T09:17:16.895Z</time>
      </trkpt>
      <trkpt lat="44.13671" lon="0.47855">
        <ele>126</ele>
        <time>2022-09-15T09:17:17.895Z</time>
      </trkpt>
      <trkpt lat="44.13671" lon="0.47854">
        <ele>126</ele>
        <time>2022-09-15T09:17:18.895Z</time>
      </trkpt>
      <trkpt lat="44.1367" lon="0.47853">
        <ele>126</ele>
        <time>2022-09-15T09:17:19.895Z</time>
      </trkpt>
      <trkpt lat="44.1367" lon="0.47851">
        <ele>126</ele>
        <time>2022-09-15T09:17:20.895Z</time>
      </trkpt>
      <trkpt lat="44.13669" lon="0.4785">
        <ele>126</ele>
        <time>2022-09-15T09:17:21.895Z</time>
      </trkpt>
      <trkpt lat="44.13669" lon="0.47848">
        <ele>126</ele>
        <time>2022-09-15T09:17:22.895Z</time>
      </trkpt>
      <trkpt lat="44.13668" lon="0.47847">
        <ele>126</ele>
        <time>2022-09-15T09:17:23.895Z</time>
      </trkpt>
      <trkpt lat="44.13668" lon="0.47845">
        <ele>126</ele>
        <time>2022-09-15T09:17:24.895Z</time>
      </trkpt>
      <trkpt lat="44.13668" lon="0.47844">
        <ele>126</ele>
        <time>2022-09-15T09:17:25.895Z</time>
      </trkpt>
      <trkpt lat="44.13667" lon="0.47842">
        <ele>127</ele>
        <time>2022-09-15T09:17:26.895Z</time>
      </trkpt>
      <trkpt lat="44.13667" lon="0.4784">
        <ele>127</ele>
        <time>2022-09-15T09:17:27.895Z</time>
      </trkpt>
      <trkpt lat="44.13666" lon="0.47839">
        <ele>127</ele>
        <time>2022-09-15T09:17:28.895Z</time>
      </trkpt>
      <trkpt lat="44.13666" lon="0.47837">
        <ele>127</ele>
        <time>2022-09-15T09:17:29.895Z</time>
      </trkpt>
      <trkpt lat="44.13666" lon="0.47836">
        <ele>127</ele>
        <time>2022-09-15T09:17:30.895Z</time>
      </trkpt>
      <trkpt lat="44.13665" lon="0.47834">
        <ele>128</ele>
        <time>2022-09-15T09:17:31.895Z</time>
      </trkpt>
      <trkpt lat="44.13665" lon="0.47833">
        <ele>127</ele>
        <time>2022-09-15T09:17:32.895Z</time>
      </trkpt>
      <trkpt lat="44.13664" lon="0.47831">
        <ele>127</ele>
        <time>2022-09-15T09:17:33.895Z</time>
      </trkpt>
      <trkpt lat="44.13664" lon="0.4783">
        <ele>127</ele>
        <time>2022-09-15T09:17:34.895Z</time>
      </trkpt>
      <trkpt lat="44.13663" lon="0.47828">
        <ele>127</ele>
        <time>2022-09-15T09:17:35.895Z</time>
      </trkpt>
      <trkpt lat="44.13662" lon="0.47827">
        <ele>127</ele>
        <time>2022-09-15T09:17:36.895Z</time>
      </trkpt>
      <trkpt lat="44.13662" lon="0.47826">
        <ele>127</ele>
        <time>2022-09-15T09:17:37.895Z</time>
      </trkpt>
      <trkpt lat="44.13661" lon="0.47825">
        <ele>127</ele>
        <time>2022-09-15T09:17:38.895Z</time>
      </trkpt>
      <trkpt lat="44.13661" lon="0.47823">
        <ele>127</ele>
        <time>2022-09-15T09:17:39.895Z</time>
      </trkpt>
      <trkpt lat="44.1366" lon="0.47822">
        <ele>127</ele>
        <time>2022-09-15T09:17:40.895Z</time>
      </trkpt>
      <trkpt lat="44.1366" lon="0.4782">
        <ele>127</ele>
        <time>2022-09-15T09:17:41.895Z</time>
      </trkpt>
      <trkpt lat="44.13659" lon="0.47819">
        <ele>127</ele>
        <time>2022-09-15T09:17:42.895Z</time>
      </trkpt>
      <trkpt lat="44.13659" lon="0.47818">
        <ele>127</ele>
        <time>2022-09-15T09:17:43.895Z</time>
      </trkpt>
      <trkpt lat="44.13658" lon="0.47816">
        <ele>127</ele>
        <time>2022-09-15T09:17:44.895Z</time>
      </trkpt>
      <trkpt lat="44.13657" lon="0.47815">
        <ele>127</ele>
        <time>2022-09-15T09:17:45.895Z</time>
      </trkpt>
      <trkpt lat="44.13657" lon="0.47814">
        <ele>126</ele>
        <time>2022-09-15T09:17:46.895Z</time>
      </trkpt>
      <trkpt lat="44.13656" lon="0.47812">
        <ele>126</ele>
        <time>2022-09-15T09:17:47.895Z</time>
      </trkpt>
      <trkpt lat="44.13656" lon="0.47811">
        <ele>127</ele>
        <time>2022-09-15T09:17:48.895Z</time>
      </trkpt>
      <trkpt lat="44.13655" lon="0.47809">
        <ele>127</ele>
        <time>2022-09-15T09:17:49.895Z</time>
      </trkpt>
      <trkpt lat="44.13655" lon="0.47808">
        <ele>127</ele>
        <time>2022-09-15T09:17:50.895Z</time>
      </trkpt>
      <trkpt lat="44.13654" lon="0.47806">
        <ele>126</ele>
        <time>2022-09-15T09:17:51.895Z</time>
      </trkpt>
      <trkpt lat="44.13654" lon="0.47805">
        <ele>126</ele>
        <time>2022-09-15T09:17:52.895Z</time>
      </trkpt>
      <trkpt lat="44.13653" lon="0.47804">
        <ele>126</ele>
        <time>2022-09-15T09:17:53.895Z</time>
      </trkpt>
      <trkpt lat="44.13653" lon="0.47802">
        <ele>127</ele>
        <time>2022-09-15T09:17:54.895Z</time>
      </trkpt>
      <trkpt lat="44.13652" lon="0.47801">
        <ele>127</ele>
        <time>2022-09-15T09:17:55.895Z</time>
      </trkpt>
      <trkpt lat="44.13651" lon="0.47799">
        <ele>127</ele>
        <time>2022-09-15T09:17:56.895Z</time>
      </trkpt>
      <trkpt lat="44.13651" lon="0.47798">
        <ele>127</ele>
        <time>2022-09-15T09:17:57.895Z</time>
      </trkpt>
      <trkpt lat="44.1365" lon="0.47796">
        <ele>128</ele>
        <time>2022-09-15T09:17:58.895Z</time>
      </trkpt>
      <trkpt lat="44.1365" lon="0.47795">
        <ele>127</ele>
        <time>2022-09-15T09:17:59.895Z</time>
      </trkpt>
      <trkpt lat="44.13649" lon="0.47793">
        <ele>127</ele>
        <time>2022-09-15T09:18:00.895Z</time>
      </trkpt>
      <trkpt lat="44.13649" lon="0.47792">
        <ele>128</ele>
        <time>2022-09-15T09:18:01.895Z</time>
      </trkpt>
      <trkpt lat="44.13648" lon="0.4779">
        <ele>128</ele>
        <time>2022-09-15T09:18:02.895Z</time>
      </trkpt>
      <trkpt lat="44.13647" lon="0.47789">
        <ele>128</ele>
        <time>2022-09-15T09:18:03.895Z</time>
      </trkpt>
      <trkpt lat="44.13647" lon="0.47787">
        <ele>128</ele>
        <time>2022-09-15T09:18:04.895Z</time>
      </trkpt>
      <trkpt lat="44.13647" lon="0.47786">
        <ele>128</ele>
        <time>2022-09-15T09:18:05.895Z</time>
      </trkpt>
      <trkpt lat="44.13646" lon="0.47784">
        <ele>128</ele>
        <time>2022-09-15T09:18:06.895Z</time>
      </trkpt>
      <trkpt lat="44.13646" lon="0.47783">
        <ele>127</ele>
        <time>2022-09-15T09:18:07.895Z</time>
      </trkpt>
      <trkpt lat="44.13645" lon="0.47781">
        <ele>127</ele>
        <time>2022-09-15T09:18:08.895Z</time>
      </trkpt>
      <trkpt lat="44.13645" lon="0.47779">
        <ele>126</ele>
        <time>2022-09-15T09:18:09.895Z</time>
      </trkpt>
      <trkpt lat="44.13645" lon="0.47777">
        <ele>126</ele>
        <time>2022-09-15T09:18:10.895Z</time>
      </trkpt>
      <trkpt lat="44.13645" lon="0.47776">
        <ele>126</ele>
        <time>2022-09-15T09:18:11.895Z</time>
      </trkpt>
      <trkpt lat="44.13644" lon="0.47774">
        <ele>126</ele>
        <time>2022-09-15T09:18:12.895Z</time>
      </trkpt>
      <trkpt lat="44.13644" lon="0.47773">
        <ele>126</ele>
        <time>2022-09-15T09:18:13.895Z</time>
      </trkpt>
      <trkpt lat="44.13644" lon="0.47771">
        <ele>126</ele>
        <time>2022-09-15T09:18:14.895Z</time>
      </trkpt>
      <trkpt lat="44.13644" lon="0.47769">
        <ele>126</ele>
        <time>2022-09-15T09:18:15.895Z</time>
      </trkpt>
      <trkpt lat="44.13643" lon="0.47768">
        <ele>126</ele>
        <time>2022-09-15T09:18:16.895Z</time>
      </trkpt>
      <trkpt lat="44.13643" lon="0.47766">
        <ele>126</ele>
        <time>2022-09-15T09:18:17.895Z</time>
      </trkpt>
      <trkpt lat="44.13643" lon="0.47764">
        <ele>125</ele>
        <time>2022-09-15T09:18:18.895Z</time>
      </trkpt>
      <trkpt lat="44.13642" lon="0.47762">
        <ele>125</ele>
        <time>2022-09-15T09:18:19.895Z</time>
      </trkpt>
      <trkpt lat="44.13642" lon="0.47761">
        <ele>125</ele>
        <time>2022-09-15T09:18:20.895Z</time>
      </trkpt>
      <trkpt lat="44.13642" lon="0.4776">
        <ele>125</ele>
        <time>2022-09-15T09:18:21.895Z</time>
      </trkpt>
      <trkpt lat="44.13642" lon="0.47759">
        <ele>125</ele>
        <time>2022-09-15T09:18:22.895Z</time>
      </trkpt>
      <trkpt lat="44.13642" lon="0.47757">
        <ele>125</ele>
        <time>2022-09-15T09:18:23.895Z</time>
      </trkpt>
      <trkpt lat="44.13641" lon="0.47756">
        <ele>125</ele>
        <time>2022-09-15T09:18:24.895Z</time>
      </trkpt>
      <trkpt lat="44.13641" lon="0.47755">
        <ele>125</ele>
        <time>2022-09-15T09:18:25.895Z</time>
      </trkpt>
      <trkpt lat="44.13641" lon="0.47754">
        <ele>124</ele>
        <time>2022-09-15T09:18:26.895Z</time>
      </trkpt>
      <trkpt lat="44.13641" lon="0.47753">
        <ele>124</ele>
        <time>2022-09-15T09:18:27.895Z</time>
      </trkpt>
      <trkpt lat="44.1364" lon="0.47752">
        <ele>125</ele>
        <time>2022-09-15T09:18:28.895Z</time>
      </trkpt>
      <trkpt lat="44.1364" lon="0.47751">
        <ele>125</ele>
        <time>2022-09-15T09:18:29.895Z</time>
      </trkpt>
      <trkpt lat="44.1364" lon="0.47751">
        <ele>124</ele>
        <time>2022-09-15T09:18:30.895Z</time>
      </trkpt>
      <trkpt lat="44.1364" lon="0.4775">
        <ele>124</ele>
        <time>2022-09-15T09:18:31.895Z</time>
      </trkpt>
      <trkpt lat="44.1364" lon="0.47748">
        <ele>124</ele>
        <time>2022-09-15T09:18:32.895Z</time>
      </trkpt>
      <trkpt lat="44.1364" lon="0.47746">
        <ele>124</ele>
        <time>2022-09-15T09:18:33.895Z</time>
      </trkpt>
      <trkpt lat="44.1364" lon="0.47745">
        <ele>124</ele>
        <time>2022-09-15T09:18:34.895Z</time>
      </trkpt>
      <trkpt lat="44.1364" lon="0.47743">
        <ele>124</ele>
        <time>2022-09-15T09:18:35.895Z</time>
      </trkpt>
      <trkpt lat="44.1364" lon="0.47742">
        <ele>125</ele>
        <time>2022-09-15T09:18:36.895Z</time>
      </trkpt>
      <trkpt lat="44.13641" lon="0.4774">
        <ele>124</ele>
        <time>2022-09-15T09:18:37.895Z</time>
      </trkpt>
      <trkpt lat="44.13641" lon="0.47739">
        <ele>124</ele>
        <time>2022-09-15T09:18:38.895Z</time>
      </trkpt>
      <trkpt lat="44.13641" lon="0.47737">
        <ele>124</ele>
        <time>2022-09-15T09:18:39.895Z</time>
      </trkpt>
      <trkpt lat="44.13641" lon="0.47736">
        <ele>124</ele>
        <time>2022-09-15T09:18:40.895Z</time>
      </trkpt>
      <trkpt lat="44.13642" lon="0.47734">
        <ele>124</ele>
        <time>2022-09-15T09:18:41.895Z</time>
      </trkpt>
      <trkpt lat="44.13642" lon="0.47732">
        <ele>124</ele>
        <time>2022-09-15T09:18:42.895Z</time>
      </trkpt>
      <trkpt lat="44.13642" lon="0.47731">
        <ele>124</ele>
        <time>2022-09-15T09:18:43.895Z</time>
      </trkpt>
      <trkpt lat="44.13642" lon="0.47729">
        <ele>124</ele>
        <time>2022-09-15T09:18:44.895Z</time>
      </trkpt>
      <trkpt lat="44.13642" lon="0.47727">
        <ele>124</ele>
        <time>2022-09-15T09:18:45.895Z</time>
      </trkpt>
      <trkpt lat="44.13641" lon="0.47726">
        <ele>124</ele>
        <time>2022-09-15T09:18:46.895Z</time>
      </trkpt>
      <trkpt lat="44.13641" lon="0.47724">
        <ele>124</ele>
        <time>2022-09-15T09:18:47.895Z</time>
      </trkpt>
      <trkpt lat="44.13641" lon="0.47723">
        <ele>124</ele>
        <time>2022-09-15T09:18:48.895Z</time>
      </trkpt>
      <trkpt lat="44.13641" lon="0.47721">
        <ele>124</ele>
        <time>2022-09-15T09:18:49.895Z</time>
      </trkpt>
      <trkpt lat="44.13641" lon="0.4772">
        <ele>124</ele>
        <time>2022-09-15T09:18:50.895Z</time>
      </trkpt>
      <trkpt lat="44.13641" lon="0.47719">
        <ele>124</ele>
        <time>2022-09-15T09:18:51.895Z</time>
      </trkpt>
      <trkpt lat="44.1364" lon="0.47717">
        <ele>124</ele>
        <time>2022-09-15T09:18:52.895Z</time>
      </trkpt>
      <trkpt lat="44.1364" lon="0.47715">
        <ele>124</ele>
        <time>2022-09-15T09:18:53.895Z</time>
      </trkpt>
      <trkpt lat="44.1364" lon="0.47714">
        <ele>124</ele>
        <time>2022-09-15T09:18:54.895Z</time>
      </trkpt>
      <trkpt lat="44.1364" lon="0.47712">
        <ele>124</ele>
        <time>2022-09-15T09:18:55.895Z</time>
      </trkpt>
      <trkpt lat="44.1364" lon="0.47711">
        <ele>124</ele>
        <time>2022-09-15T09:18:56.895Z</time>
      </trkpt>
      <trkpt lat="44.1364" lon="0.47709">
        <ele>123</ele>
        <time>2022-09-15T09:18:57.895Z</time>
      </trkpt>
      <trkpt lat="44.13639" lon="0.47708">
        <ele>123</ele>
        <time>2022-09-15T09:18:58.895Z</time>
      </trkpt>
      <trkpt lat="44.13639" lon="0.47706">
        <ele>123</ele>
        <time>2022-09-15T09:18:59.895Z</time>
      </trkpt>
      <trkpt lat="44.13639" lon="0.47705">
        <ele>123</ele>
        <time>2022-09-15T09:19:00.895Z</time>
      </trkpt>
      <trkpt lat="44.13639" lon="0.47703">
        <ele>123</ele>
        <time>2022-09-15T09:19:01.895Z</time>
      </trkpt>
      <trkpt lat="44.13639" lon="0.47702">
        <ele>123</ele>
        <time>2022-09-15T09:19:02.895Z</time>
      </trkpt>
      <trkpt lat="44.13639" lon="0.477">
        <ele>123</ele>
        <time>2022-09-15T09:19:03.895Z</time>
      </trkpt>
      <trkpt lat="44.13639" lon="0.47699">
        <ele>123</ele>
        <time>2022-09-15T09:19:04.895Z</time>
      </trkpt>
      <trkpt lat="44.13639" lon="0.47697">
        <ele>123</ele>
        <time>2022-09-15T09:19:05.895Z</time>
      </trkpt>
      <trkpt lat="44.13639" lon="0.47696">
        <ele>122</ele>
        <time>2022-09-15T09:19:06.895Z</time>
      </trkpt>
      <trkpt lat="44.13639" lon="0.47694">
        <ele>122</ele>
        <time>2022-09-15T09:19:07.895Z</time>
      </trkpt>
      <trkpt lat="44.1364" lon="0.47693">
        <ele>122</ele>
        <time>2022-09-15T09:19:08.895Z</time>
      </trkpt>
      <trkpt lat="44.1364" lon="0.47692">
        <ele>122</ele>
        <time>2022-09-15T09:19:09.895Z</time>
      </trkpt>
      <trkpt lat="44.1364" lon="0.47691">
        <ele>122</ele>
        <time>2022-09-15T09:19:10.895Z</time>
      </trkpt>
      <trkpt lat="44.1364" lon="0.47689">
        <ele>122</ele>
        <time>2022-09-15T09:19:11.895Z</time>
      </trkpt>
      <trkpt lat="44.13641" lon="0.47688">
        <ele>121</ele>
        <time>2022-09-15T09:19:12.895Z</time>
      </trkpt>
      <trkpt lat="44.13641" lon="0.47687">
        <ele>121</ele>
        <time>2022-09-15T09:19:13.895Z</time>
      </trkpt>
      <trkpt lat="44.13641" lon="0.47686">
        <ele>121</ele>
        <time>2022-09-15T09:19:14.895Z</time>
      </trkpt>
      <trkpt lat="44.13641" lon="0.47685">
        <ele>120</ele>
        <time>2022-09-15T09:19:15.895Z</time>
      </trkpt>
      <trkpt lat="44.13641" lon="0.47684">
        <ele>120</ele>
        <time>2022-09-15T09:19:16.895Z</time>
      </trkpt>
      <trkpt lat="44.13641" lon="0.47683">
        <ele>120</ele>
        <time>2022-09-15T09:19:17.895Z</time>
      </trkpt>
      <trkpt lat="44.13642" lon="0.47682">
        <ele>119</ele>
        <time>2022-09-15T09:19:18.895Z</time>
      </trkpt>
      <trkpt lat="44.13642" lon="0.47681">
        <ele>119</ele>
        <time>2022-09-15T09:19:19.895Z</time>
      </trkpt>
      <trkpt lat="44.13642" lon="0.4768">
        <ele>119</ele>
        <time>2022-09-15T09:19:20.895Z</time>
      </trkpt>
      <trkpt lat="44.13642" lon="0.47678">
        <ele>119</ele>
        <time>2022-09-15T09:19:21.895Z</time>
      </trkpt>
      <trkpt lat="44.13642" lon="0.47677">
        <ele>118</ele>
        <time>2022-09-15T09:19:22.895Z</time>
      </trkpt>
      <trkpt lat="44.13642" lon="0.47676">
        <ele>118</ele>
        <time>2022-09-15T09:19:23.895Z</time>
      </trkpt>
      <trkpt lat="44.13643" lon="0.47675">
        <ele>118</ele>
        <time>2022-09-15T09:19:24.895Z</time>
      </trkpt>
      <trkpt lat="44.13642" lon="0.47674">
        <ele>118</ele>
        <time>2022-09-15T09:19:25.895Z</time>
      </trkpt>
      <trkpt lat="44.13642" lon="0.47673">
        <ele>119</ele>
        <time>2022-09-15T09:19:26.895Z</time>
      </trkpt>
      <trkpt lat="44.13642" lon="0.47673">
        <ele>119</ele>
        <time>2022-09-15T09:19:27.895Z</time>
      </trkpt>
      <trkpt lat="44.13642" lon="0.47672">
        <ele>119</ele>
        <time>2022-09-15T09:19:28.895Z</time>
      </trkpt>
      <trkpt lat="44.13642" lon="0.47672">
        <ele>119</ele>
        <time>2022-09-15T09:19:29.895Z</time>
      </trkpt>
      <trkpt lat="44.13642" lon="0.47671">
        <ele>119</ele>
        <time>2022-09-15T09:19:30.895Z</time>
      </trkpt>
      <trkpt lat="44.13642" lon="0.47671">
        <ele>119</ele>
        <time>2022-09-15T09:19:31.895Z</time>
      </trkpt>
      <trkpt lat="44.13643" lon="0.47665">
        <ele>118</ele>
        <time>2022-09-15T09:19:40.925Z</time>
      </trkpt>
      <trkpt lat="44.13644" lon="0.47664">
        <ele>117</ele>
        <time>2022-09-15T09:19:41.925Z</time>
      </trkpt>
      <trkpt lat="44.13644" lon="0.47663">
        <ele>117</ele>
        <time>2022-09-15T09:19:42.925Z</time>
      </trkpt>
      <trkpt lat="44.13644" lon="0.47662">
        <ele>117</ele>
        <time>2022-09-15T09:19:43.925Z</time>
      </trkpt>
      <trkpt lat="44.13644" lon="0.47661">
        <ele>117</ele>
        <time>2022-09-15T09:19:44.925Z</time>
      </trkpt>
      <trkpt lat="44.13645" lon="0.47659">
        <ele>117</ele>
        <time>2022-09-15T09:19:45.925Z</time>
      </trkpt>
      <trkpt lat="44.13645" lon="0.47658">
        <ele>117</ele>
        <time>2022-09-15T09:19:46.925Z</time>
      </trkpt>
      <trkpt lat="44.13645" lon="0.47656">
        <ele>116</ele>
        <time>2022-09-15T09:19:47.925Z</time>
      </trkpt>
      <trkpt lat="44.13645" lon="0.47654">
        <ele>116</ele>
        <time>2022-09-15T09:19:48.925Z</time>
      </trkpt>
      <trkpt lat="44.13645" lon="0.47653">
        <ele>115</ele>
        <time>2022-09-15T09:19:49.925Z</time>
      </trkpt>
      <trkpt lat="44.13645" lon="0.47651">
        <ele>115</ele>
        <time>2022-09-15T09:19:50.925Z</time>
      </trkpt>
      <trkpt lat="44.13645" lon="0.4765">
        <ele>115</ele>
        <time>2022-09-15T09:19:51.925Z</time>
      </trkpt>
      <trkpt lat="44.13646" lon="0.47649">
        <ele>115</ele>
        <time>2022-09-15T09:19:52.925Z</time>
      </trkpt>
      <trkpt lat="44.13646" lon="0.47648">
        <ele>115</ele>
        <time>2022-09-15T09:19:53.925Z</time>
      </trkpt>
      <trkpt lat="44.13646" lon="0.47646">
        <ele>115</ele>
        <time>2022-09-15T09:19:54.925Z</time>
      </trkpt>
      <trkpt lat="44.13647" lon="0.47644">
        <ele>115</ele>
        <time>2022-09-15T09:19:55.925Z</time>
      </trkpt>
      <trkpt lat="44.13647" lon="0.47643">
        <ele>115</ele>
        <time>2022-09-15T09:19:56.925Z</time>
      </trkpt>
      <trkpt lat="44.13647" lon="0.47641">
        <ele>115</ele>
        <time>2022-09-15T09:19:57.925Z</time>
      </trkpt>
      <trkpt lat="44.13647" lon="0.4764">
        <ele>115</ele>
        <time>2022-09-15T09:19:58.925Z</time>
      </trkpt>
      <trkpt lat="44.13647" lon="0.47638">
        <ele>115</ele>
        <time>2022-09-15T09:19:59.925Z</time>
      </trkpt>
      <trkpt lat="44.13647" lon="0.47637">
        <ele>115</ele>
        <time>2022-09-15T09:20:00.925Z</time>
      </trkpt>
      <trkpt lat="44.13647" lon="0.47636">
        <ele>115</ele>
        <time>2022-09-15T09:20:01.925Z</time>
      </trkpt>
      <trkpt lat="44.13647" lon="0.47634">
        <ele>115</ele>
        <time>2022-09-15T09:20:02.925Z</time>
      </trkpt>
      <trkpt lat="44.13647" lon="0.47632">
        <ele>114</ele>
        <time>2022-09-15T09:20:03.925Z</time>
      </trkpt>
      <trkpt lat="44.13647" lon="0.47631">
        <ele>115</ele>
        <time>2022-09-15T09:20:04.925Z</time>
      </trkpt>
      <trkpt lat="44.13647" lon="0.47629">
        <ele>114</ele>
        <time>2022-09-15T09:20:05.925Z</time>
      </trkpt>
      <trkpt lat="44.13647" lon="0.47627">
        <ele>114</ele>
        <time>2022-09-15T09:20:06.925Z</time>
      </trkpt>
      <trkpt lat="44.13647" lon="0.47626">
        <ele>114</ele>
        <time>2022-09-15T09:20:07.925Z</time>
      </trkpt>
      <trkpt lat="44.13646" lon="0.47625">
        <ele>114</ele>
        <time>2022-09-15T09:20:08.925Z</time>
      </trkpt>
      <trkpt lat="44.13646" lon="0.47624">
        <ele>114</ele>
        <time>2022-09-15T09:20:09.925Z</time>
      </trkpt>
      <trkpt lat="44.13646" lon="0.47622">
        <ele>114</ele>
        <time>2022-09-15T09:20:10.925Z</time>
      </trkpt>
      <trkpt lat="44.13645" lon="0.4762">
        <ele>114</ele>
        <time>2022-09-15T09:20:11.925Z</time>
      </trkpt>
      <trkpt lat="44.13645" lon="0.47619">
        <ele>114</ele>
        <time>2022-09-15T09:20:12.925Z</time>
      </trkpt>
      <trkpt lat="44.13645" lon="0.47617">
        <ele>114</ele>
        <time>2022-09-15T09:20:13.925Z</time>
      </trkpt>
      <trkpt lat="44.13644" lon="0.47616">
        <ele>113</ele>
        <time>2022-09-15T09:20:14.925Z</time>
      </trkpt>
      <trkpt lat="44.13644" lon="0.47614">
        <ele>113</ele>
        <time>2022-09-15T09:20:15.925Z</time>
      </trkpt>
      <trkpt lat="44.13643" lon="0.47613">
        <ele>113</ele>
        <time>2022-09-15T09:20:16.925Z</time>
      </trkpt>
      <trkpt lat="44.13643" lon="0.47612">
        <ele>114</ele>
        <time>2022-09-15T09:20:17.925Z</time>
      </trkpt>
      <trkpt lat="44.13642" lon="0.47611">
        <ele>114</ele>
        <time>2022-09-15T09:20:18.925Z</time>
      </trkpt>
      <trkpt lat="44.13641" lon="0.47609">
        <ele>115</ele>
        <time>2022-09-15T09:20:19.925Z</time>
      </trkpt>
      <trkpt lat="44.13641" lon="0.47608">
        <ele>114</ele>
        <time>2022-09-15T09:20:20.925Z</time>
      </trkpt>
      <trkpt lat="44.1364" lon="0.47607">
        <ele>115</ele>
        <time>2022-09-15T09:20:21.925Z</time>
      </trkpt>
      <trkpt lat="44.13639" lon="0.47605">
        <ele>115</ele>
        <time>2022-09-15T09:20:22.925Z</time>
      </trkpt>
      <trkpt lat="44.13639" lon="0.47604">
        <ele>115</ele>
        <time>2022-09-15T09:20:23.925Z</time>
      </trkpt>
      <trkpt lat="44.13638" lon="0.47604">
        <ele>115</ele>
        <time>2022-09-15T09:20:24.925Z</time>
      </trkpt>
      <trkpt lat="44.13637" lon="0.47603">
        <ele>115</ele>
        <time>2022-09-15T09:20:25.925Z</time>
      </trkpt>
      <trkpt lat="44.13637" lon="0.47602">
        <ele>116</ele>
        <time>2022-09-15T09:20:26.925Z</time>
      </trkpt>
      <trkpt lat="44.13636" lon="0.476">
        <ele>116</ele>
        <time>2022-09-15T09:20:27.925Z</time>
      </trkpt>
      <trkpt lat="44.13635" lon="0.47599">
        <ele>115</ele>
        <time>2022-09-15T09:20:28.925Z</time>
      </trkpt>
      <trkpt lat="44.13634" lon="0.47598">
        <ele>116</ele>
        <time>2022-09-15T09:20:29.925Z</time>
      </trkpt>
      <trkpt lat="44.13633" lon="0.47597">
        <ele>115</ele>
        <time>2022-09-15T09:20:30.925Z</time>
      </trkpt>
      <trkpt lat="44.13632" lon="0.47596">
        <ele>115</ele>
        <time>2022-09-15T09:20:31.925Z</time>
      </trkpt>
      <trkpt lat="44.13632" lon="0.47595">
        <ele>115</ele>
        <time>2022-09-15T09:20:32.925Z</time>
      </trkpt>
      <trkpt lat="44.13631" lon="0.47594">
        <ele>115</ele>
        <time>2022-09-15T09:20:33.925Z</time>
      </trkpt>
      <trkpt lat="44.1363" lon="0.47593">
        <ele>116</ele>
        <time>2022-09-15T09:20:34.925Z</time>
      </trkpt>
      <trkpt lat="44.13629" lon="0.47591">
        <ele>115</ele>
        <time>2022-09-15T09:20:35.925Z</time>
      </trkpt>
      <trkpt lat="44.13628" lon="0.4759">
        <ele>115</ele>
        <time>2022-09-15T09:20:36.925Z</time>
      </trkpt>
      <trkpt lat="44.13627" lon="0.47589">
        <ele>115</ele>
        <time>2022-09-15T09:20:37.925Z</time>
      </trkpt>
      <trkpt lat="44.13626" lon="0.47588">
        <ele>115</ele>
        <time>2022-09-15T09:20:38.925Z</time>
      </trkpt>
      <trkpt lat="44.13625" lon="0.47587">
        <ele>115</ele>
        <time>2022-09-15T09:20:39.925Z</time>
      </trkpt>
      <trkpt lat="44.13624" lon="0.47586">
        <ele>115</ele>
        <time>2022-09-15T09:20:40.925Z</time>
      </trkpt>
      <trkpt lat="44.13623" lon="0.47585">
        <ele>115</ele>
        <time>2022-09-15T09:20:41.925Z</time>
      </trkpt>
      <trkpt lat="44.13622" lon="0.47584">
        <ele>116</ele>
        <time>2022-09-15T09:20:42.925Z</time>
      </trkpt>
      <trkpt lat="44.13621" lon="0.47583">
        <ele>115</ele>
        <time>2022-09-15T09:20:43.925Z</time>
      </trkpt>
      <trkpt lat="44.13621" lon="0.47582">
        <ele>115</ele>
        <time>2022-09-15T09:20:44.925Z</time>
      </trkpt>
      <trkpt lat="44.1362" lon="0.47581">
        <ele>115</ele>
        <time>2022-09-15T09:20:45.925Z</time>
      </trkpt>
      <trkpt lat="44.13619" lon="0.47581">
        <ele>115</ele>
        <time>2022-09-15T09:20:46.925Z</time>
      </trkpt>
      <trkpt lat="44.13618" lon="0.4758">
        <ele>115</ele>
        <time>2022-09-15T09:20:47.925Z</time>
      </trkpt>
      <trkpt lat="44.13617" lon="0.47579">
        <ele>115</ele>
        <time>2022-09-15T09:20:48.925Z</time>
      </trkpt>
      <trkpt lat="44.13616" lon="0.47578">
        <ele>115</ele>
        <time>2022-09-15T09:20:49.925Z</time>
      </trkpt>
      <trkpt lat="44.13615" lon="0.47577">
        <ele>115</ele>
        <time>2022-09-15T09:20:50.925Z</time>
      </trkpt>
      <trkpt lat="44.13615" lon="0.47576">
        <ele>115</ele>
        <time>2022-09-15T09:20:51.925Z</time>
      </trkpt>
      <trkpt lat="44.13614" lon="0.47575">
        <ele>114</ele>
        <time>2022-09-15T09:20:52.925Z</time>
      </trkpt>
      <trkpt lat="44.13613" lon="0.47574">
        <ele>114</ele>
        <time>2022-09-15T09:20:53.925Z</time>
      </trkpt>
      <trkpt lat="44.13612" lon="0.47573">
        <ele>115</ele>
        <time>2022-09-15T09:20:54.925Z</time>
      </trkpt>
      <trkpt lat="44.13611" lon="0.47572">
        <ele>115</ele>
        <time>2022-09-15T09:20:55.925Z</time>
      </trkpt>
      <trkpt lat="44.1361" lon="0.47571">
        <ele>115</ele>
        <time>2022-09-15T09:20:56.925Z</time>
      </trkpt>
      <trkpt lat="44.1361" lon="0.4757">
        <ele>115</ele>
        <time>2022-09-15T09:20:57.925Z</time>
      </trkpt>
      <trkpt lat="44.13609" lon="0.4757">
        <ele>115</ele>
        <time>2022-09-15T09:20:58.925Z</time>
      </trkpt>
      <trkpt lat="44.13608" lon="0.47569">
        <ele>115</ele>
        <time>2022-09-15T09:20:59.925Z</time>
      </trkpt>
      <trkpt lat="44.13607" lon="0.47568">
        <ele>114</ele>
        <time>2022-09-15T09:21:00.925Z</time>
      </trkpt>
      <trkpt lat="44.13606" lon="0.47568">
        <ele>114</ele>
        <time>2022-09-15T09:21:01.925Z</time>
      </trkpt>
      <trkpt lat="44.13605" lon="0.47567">
        <ele>114</ele>
        <time>2022-09-15T09:21:02.925Z</time>
      </trkpt>
      <trkpt lat="44.13604" lon="0.47566">
        <ele>114</ele>
        <time>2022-09-15T09:21:03.925Z</time>
      </trkpt>
      <trkpt lat="44.13603" lon="0.47565">
        <ele>115</ele>
        <time>2022-09-15T09:21:04.925Z</time>
      </trkpt>
      <trkpt lat="44.13602" lon="0.47564">
        <ele>115</ele>
        <time>2022-09-15T09:21:05.925Z</time>
      </trkpt>
      <trkpt lat="44.13601" lon="0.47563">
        <ele>115</ele>
        <time>2022-09-15T09:21:06.925Z</time>
      </trkpt>
      <trkpt lat="44.136" lon="0.47562">
        <ele>115</ele>
        <time>2022-09-15T09:21:07.925Z</time>
      </trkpt>
      <trkpt lat="44.13598" lon="0.47561">
        <ele>115</ele>
        <time>2022-09-15T09:21:08.925Z</time>
      </trkpt>
      <trkpt lat="44.13597" lon="0.4756">
        <ele>115</ele>
        <time>2022-09-15T09:21:09.925Z</time>
      </trkpt>
      <trkpt lat="44.13596" lon="0.47559">
        <ele>116</ele>
        <time>2022-09-15T09:21:10.925Z</time>
      </trkpt>
      <trkpt lat="44.13595" lon="0.47558">
        <ele>116</ele>
        <time>2022-09-15T09:21:11.925Z</time>
      </trkpt>
      <trkpt lat="44.13594" lon="0.47557">
        <ele>115</ele>
        <time>2022-09-15T09:21:12.925Z</time>
      </trkpt>
      <trkpt lat="44.13593" lon="0.47556">
        <ele>115</ele>
        <time>2022-09-15T09:21:13.925Z</time>
      </trkpt>
      <trkpt lat="44.13593" lon="0.47556">
        <ele>115</ele>
        <time>2022-09-15T09:21:14.925Z</time>
      </trkpt>
      <trkpt lat="44.13592" lon="0.47555">
        <ele>115</ele>
        <time>2022-09-15T09:21:15.925Z</time>
      </trkpt>
      <trkpt lat="44.13591" lon="0.47554">
        <ele>115</ele>
        <time>2022-09-15T09:21:16.925Z</time>
      </trkpt>
      <trkpt lat="44.1359" lon="0.47553">
        <ele>115</ele>
        <time>2022-09-15T09:21:17.925Z</time>
      </trkpt>
      <trkpt lat="44.13588" lon="0.47552">
        <ele>115</ele>
        <time>2022-09-15T09:21:18.925Z</time>
      </trkpt>
      <trkpt lat="44.13587" lon="0.47551">
        <ele>115</ele>
        <time>2022-09-15T09:21:19.925Z</time>
      </trkpt>
      <trkpt lat="44.13586" lon="0.47551">
        <ele>115</ele>
        <time>2022-09-15T09:21:20.925Z</time>
      </trkpt>
      <trkpt lat="44.13585" lon="0.4755">
        <ele>115</ele>
        <time>2022-09-15T09:21:21.925Z</time>
      </trkpt>
      <trkpt lat="44.13584" lon="0.47549">
        <ele>116</ele>
        <time>2022-09-15T09:21:22.925Z</time>
      </trkpt>
      <trkpt lat="44.13583" lon="0.47549">
        <ele>115</ele>
        <time>2022-09-15T09:21:23.925Z</time>
      </trkpt>
      <trkpt lat="44.13582" lon="0.47548">
        <ele>115</ele>
        <time>2022-09-15T09:21:24.925Z</time>
      </trkpt>
      <trkpt lat="44.13581" lon="0.47547">
        <ele>116</ele>
        <time>2022-09-15T09:21:25.925Z</time>
      </trkpt>
      <trkpt lat="44.1358" lon="0.47547">
        <ele>116</ele>
        <time>2022-09-15T09:21:26.925Z</time>
      </trkpt>
      <trkpt lat="44.13579" lon="0.47546">
        <ele>116</ele>
        <time>2022-09-15T09:21:27.925Z</time>
      </trkpt>
      <trkpt lat="44.13578" lon="0.47545">
        <ele>116</ele>
        <time>2022-09-15T09:21:28.925Z</time>
      </trkpt>
      <trkpt lat="44.13577" lon="0.47545">
        <ele>115</ele>
        <time>2022-09-15T09:21:29.925Z</time>
      </trkpt>
      <trkpt lat="44.13576" lon="0.47544">
        <ele>115</ele>
        <time>2022-09-15T09:21:30.925Z</time>
      </trkpt>
      <trkpt lat="44.13575" lon="0.47543">
        <ele>115</ele>
        <time>2022-09-15T09:21:31.925Z</time>
      </trkpt>
      <trkpt lat="44.13574" lon="0.47543">
        <ele>115</ele>
        <time>2022-09-15T09:21:32.925Z</time>
      </trkpt>
      <trkpt lat="44.13573" lon="0.47542">
        <ele>115</ele>
        <time>2022-09-15T09:21:33.925Z</time>
      </trkpt>
      <trkpt lat="44.13572" lon="0.47542">
        <ele>115</ele>
        <time>2022-09-15T09:21:34.925Z</time>
      </trkpt>
      <trkpt lat="44.13571" lon="0.47541">
        <ele>115</ele>
        <time>2022-09-15T09:21:35.925Z</time>
      </trkpt>
      <trkpt lat="44.1357" lon="0.4754">
        <ele>115</ele>
        <time>2022-09-15T09:21:36.925Z</time>
      </trkpt>
      <trkpt lat="44.13568" lon="0.4754">
        <ele>115</ele>
        <time>2022-09-15T09:21:37.925Z</time>
      </trkpt>
      <trkpt lat="44.13567" lon="0.47539">
        <ele>115</ele>
        <time>2022-09-15T09:21:38.925Z</time>
      </trkpt>
      <trkpt lat="44.13566" lon="0.47538">
        <ele>115</ele>
        <time>2022-09-15T09:21:39.925Z</time>
      </trkpt>
      <trkpt lat="44.13565" lon="0.47538">
        <ele>115</ele>
        <time>2022-09-15T09:21:40.925Z</time>
      </trkpt>
      <trkpt lat="44.13564" lon="0.47537">
        <ele>115</ele>
        <time>2022-09-15T09:21:41.925Z</time>
      </trkpt>
      <trkpt lat="44.13563" lon="0.47537">
        <ele>115</ele>
        <time>2022-09-15T09:21:42.925Z</time>
      </trkpt>
      <trkpt lat="44.13562" lon="0.47537">
        <ele>115</ele>
        <time>2022-09-15T09:21:43.925Z</time>
      </trkpt>
      <trkpt lat="44.13561" lon="0.47536">
        <ele>115</ele>
        <time>2022-09-15T09:21:44.925Z</time>
      </trkpt>
      <trkpt lat="44.1356" lon="0.47536">
        <ele>114</ele>
        <time>2022-09-15T09:21:45.925Z</time>
      </trkpt>
      <trkpt lat="44.13559" lon="0.47535">
        <ele>113</ele>
        <time>2022-09-15T09:21:46.925Z</time>
      </trkpt>
      <trkpt lat="44.13558" lon="0.47535">
        <ele>113</ele>
        <time>2022-09-15T09:21:47.925Z</time>
      </trkpt>
      <trkpt lat="44.13557" lon="0.47534">
        <ele>112</ele>
        <time>2022-09-15T09:21:48.925Z</time>
      </trkpt>
      <trkpt lat="44.13556" lon="0.47533">
        <ele>112</ele>
        <time>2022-09-15T09:21:49.925Z</time>
      </trkpt>
      <trkpt lat="44.13555" lon="0.47532">
        <ele>111</ele>
        <time>2022-09-15T09:21:50.925Z</time>
      </trkpt>
      <trkpt lat="44.13553" lon="0.47532">
        <ele>111</ele>
        <time>2022-09-15T09:21:51.925Z</time>
      </trkpt>
      <trkpt lat="44.13552" lon="0.47531">
        <ele>110</ele>
        <time>2022-09-15T09:21:52.925Z</time>
      </trkpt>
      <trkpt lat="44.13551" lon="0.47531">
        <ele>110</ele>
        <time>2022-09-15T09:21:53.925Z</time>
      </trkpt>
      <trkpt lat="44.1355" lon="0.4753">
        <ele>111</ele>
        <time>2022-09-15T09:21:54.925Z</time>
      </trkpt>
      <trkpt lat="44.13549" lon="0.4753">
        <ele>110</ele>
        <time>2022-09-15T09:21:55.925Z</time>
      </trkpt>
      <trkpt lat="44.13547" lon="0.47529">
        <ele>111</ele>
        <time>2022-09-15T09:21:56.925Z</time>
      </trkpt>
      <trkpt lat="44.13546" lon="0.47528">
        <ele>110</ele>
        <time>2022-09-15T09:21:57.925Z</time>
      </trkpt>
      <trkpt lat="44.13545" lon="0.47528">
        <ele>110</ele>
        <time>2022-09-15T09:21:58.925Z</time>
      </trkpt>
      <trkpt lat="44.13544" lon="0.47527">
        <ele>111</ele>
        <time>2022-09-15T09:21:59.925Z</time>
      </trkpt>
      <trkpt lat="44.13543" lon="0.47527">
        <ele>111</ele>
        <time>2022-09-15T09:22:00.925Z</time>
      </trkpt>
      <trkpt lat="44.13542" lon="0.47526">
        <ele>110</ele>
        <time>2022-09-15T09:22:01.925Z</time>
      </trkpt>
      <trkpt lat="44.13541" lon="0.47525">
        <ele>110</ele>
        <time>2022-09-15T09:22:02.925Z</time>
      </trkpt>
      <trkpt lat="44.13539" lon="0.47525">
        <ele>110</ele>
        <time>2022-09-15T09:22:03.925Z</time>
      </trkpt>
      <trkpt lat="44.13538" lon="0.47524">
        <ele>110</ele>
        <time>2022-09-15T09:22:04.925Z</time>
      </trkpt>
      <trkpt lat="44.13537" lon="0.47524">
        <ele>109</ele>
        <time>2022-09-15T09:22:05.925Z</time>
      </trkpt>
      <trkpt lat="44.13536" lon="0.47523">
        <ele>109</ele>
        <time>2022-09-15T09:22:06.925Z</time>
      </trkpt>
      <trkpt lat="44.13535" lon="0.47523">
        <ele>109</ele>
        <time>2022-09-15T09:22:07.925Z</time>
      </trkpt>
      <trkpt lat="44.13534" lon="0.47522">
        <ele>109</ele>
        <time>2022-09-15T09:22:08.925Z</time>
      </trkpt>
      <trkpt lat="44.13533" lon="0.47522">
        <ele>109</ele>
        <time>2022-09-15T09:22:09.925Z</time>
      </trkpt>
      <trkpt lat="44.13532" lon="0.47521">
        <ele>109</ele>
        <time>2022-09-15T09:22:10.925Z</time>
      </trkpt>
      <trkpt lat="44.1353" lon="0.47521">
        <ele>109</ele>
        <time>2022-09-15T09:22:11.925Z</time>
      </trkpt>
      <trkpt lat="44.13529" lon="0.4752">
        <ele>109</ele>
        <time>2022-09-15T09:22:12.925Z</time>
      </trkpt>
      <trkpt lat="44.13528" lon="0.4752">
        <ele>110</ele>
        <time>2022-09-15T09:22:13.925Z</time>
      </trkpt>
      <trkpt lat="44.13527" lon="0.47519">
        <ele>110</ele>
        <time>2022-09-15T09:22:14.925Z</time>
      </trkpt>
      <trkpt lat="44.13526" lon="0.47519">
        <ele>110</ele>
        <time>2022-09-15T09:22:15.925Z</time>
      </trkpt>
      <trkpt lat="44.13524" lon="0.47518">
        <ele>110</ele>
        <time>2022-09-15T09:22:16.925Z</time>
      </trkpt>
      <trkpt lat="44.13523" lon="0.47518">
        <ele>110</ele>
        <time>2022-09-15T09:22:17.925Z</time>
      </trkpt>
      <trkpt lat="44.13522" lon="0.47517">
        <ele>110</ele>
        <time>2022-09-15T09:22:18.925Z</time>
      </trkpt>
      <trkpt lat="44.13521" lon="0.47517">
        <ele>110</ele>
        <time>2022-09-15T09:22:19.925Z</time>
      </trkpt>
      <trkpt lat="44.1352" lon="0.47517">
        <ele>110</ele>
        <time>2022-09-15T09:22:20.925Z</time>
      </trkpt>
      <trkpt lat="44.13519" lon="0.47516">
        <ele>110</ele>
        <time>2022-09-15T09:22:21.925Z</time>
      </trkpt>
      <trkpt lat="44.13518" lon="0.47516">
        <ele>110</ele>
        <time>2022-09-15T09:22:22.925Z</time>
      </trkpt>
      <trkpt lat="44.13517" lon="0.47516">
        <ele>110</ele>
        <time>2022-09-15T09:22:23.925Z</time>
      </trkpt>
      <trkpt lat="44.13516" lon="0.47515">
        <ele>110</ele>
        <time>2022-09-15T09:22:24.925Z</time>
      </trkpt>
      <trkpt lat="44.13515" lon="0.47515">
        <ele>110</ele>
        <time>2022-09-15T09:22:25.925Z</time>
      </trkpt>
      <trkpt lat="44.13513" lon="0.47514">
        <ele>110</ele>
        <time>2022-09-15T09:22:26.925Z</time>
      </trkpt>
      <trkpt lat="44.13512" lon="0.47514">
        <ele>110</ele>
        <time>2022-09-15T09:22:27.925Z</time>
      </trkpt>
      <trkpt lat="44.13511" lon="0.47514">
        <ele>110</ele>
        <time>2022-09-15T09:22:28.925Z</time>
      </trkpt>
      <trkpt lat="44.1351" lon="0.47513">
        <ele>109</ele>
        <time>2022-09-15T09:22:29.925Z</time>
      </trkpt>
      <trkpt lat="44.13509" lon="0.47513">
        <ele>109</ele>
        <time>2022-09-15T09:22:30.925Z</time>
      </trkpt>
      <trkpt lat="44.13508" lon="0.47512">
        <ele>109</ele>
        <time>2022-09-15T09:22:31.925Z</time>
      </trkpt>
      <trkpt lat="44.13506" lon="0.47512">
        <ele>109</ele>
        <time>2022-09-15T09:22:32.925Z</time>
      </trkpt>
      <trkpt lat="44.13505" lon="0.47511">
        <ele>108</ele>
        <time>2022-09-15T09:22:33.925Z</time>
      </trkpt>
      <trkpt lat="44.13504" lon="0.47511">
        <ele>108</ele>
        <time>2022-09-15T09:22:34.925Z</time>
      </trkpt>
      <trkpt lat="44.13503" lon="0.4751">
        <ele>108</ele>
        <time>2022-09-15T09:22:35.925Z</time>
      </trkpt>
      <trkpt lat="44.13502" lon="0.4751">
        <ele>108</ele>
        <time>2022-09-15T09:22:36.925Z</time>
      </trkpt>
      <trkpt lat="44.13501" lon="0.47509">
        <ele>108</ele>
        <time>2022-09-15T09:22:37.925Z</time>
      </trkpt>
      <trkpt lat="44.13499" lon="0.47509">
        <ele>108</ele>
        <time>2022-09-15T09:22:38.925Z</time>
      </trkpt>
      <trkpt lat="44.13498" lon="0.47508">
        <ele>108</ele>
        <time>2022-09-15T09:22:39.925Z</time>
      </trkpt>
      <trkpt lat="44.13497" lon="0.47508">
        <ele>108</ele>
        <time>2022-09-15T09:22:40.925Z</time>
      </trkpt>
      <trkpt lat="44.13496" lon="0.47507">
        <ele>108</ele>
        <time>2022-09-15T09:22:41.925Z</time>
      </trkpt>
      <trkpt lat="44.13495" lon="0.47507">
        <ele>108</ele>
        <time>2022-09-15T09:22:42.925Z</time>
      </trkpt>
      <trkpt lat="44.13494" lon="0.47507">
        <ele>107</ele>
        <time>2022-09-15T09:22:43.925Z</time>
      </trkpt>
      <trkpt lat="44.13492" lon="0.47506">
        <ele>107</ele>
        <time>2022-09-15T09:22:44.925Z</time>
      </trkpt>
      <trkpt lat="44.13491" lon="0.47506">
        <ele>107</ele>
        <time>2022-09-15T09:22:45.925Z</time>
      </trkpt>
      <trkpt lat="44.1349" lon="0.47505">
        <ele>107</ele>
        <time>2022-09-15T09:22:46.925Z</time>
      </trkpt>
      <trkpt lat="44.13488" lon="0.47505">
        <ele>107</ele>
        <time>2022-09-15T09:22:47.925Z</time>
      </trkpt>
      <trkpt lat="44.13487" lon="0.47504">
        <ele>107</ele>
        <time>2022-09-15T09:22:48.925Z</time>
      </trkpt>
      <trkpt lat="44.13486" lon="0.47504">
        <ele>108</ele>
        <time>2022-09-15T09:22:49.925Z</time>
      </trkpt>
      <trkpt lat="44.13485" lon="0.47503">
        <ele>107</ele>
        <time>2022-09-15T09:22:50.925Z</time>
      </trkpt>
      <trkpt lat="44.13484" lon="0.47502">
        <ele>107</ele>
        <time>2022-09-15T09:22:51.925Z</time>
      </trkpt>
      <trkpt lat="44.13482" lon="0.47502">
        <ele>107</ele>
        <time>2022-09-15T09:22:52.925Z</time>
      </trkpt>
      <trkpt lat="44.13481" lon="0.47501">
        <ele>107</ele>
        <time>2022-09-15T09:22:53.925Z</time>
      </trkpt>
      <trkpt lat="44.1348" lon="0.47501">
        <ele>107</ele>
        <time>2022-09-15T09:22:54.925Z</time>
      </trkpt>
      <trkpt lat="44.13479" lon="0.475">
        <ele>107</ele>
        <time>2022-09-15T09:22:55.925Z</time>
      </trkpt>
      <trkpt lat="44.13477" lon="0.475">
        <ele>107</ele>
        <time>2022-09-15T09:22:56.925Z</time>
      </trkpt>
      <trkpt lat="44.13476" lon="0.47499">
        <ele>107</ele>
        <time>2022-09-15T09:22:57.925Z</time>
      </trkpt>
      <trkpt lat="44.13475" lon="0.47499">
        <ele>107</ele>
        <time>2022-09-15T09:22:58.925Z</time>
      </trkpt>
      <trkpt lat="44.13474" lon="0.47498">
        <ele>107</ele>
        <time>2022-09-15T09:22:59.925Z</time>
      </trkpt>
      <trkpt lat="44.13473" lon="0.47498">
        <ele>107</ele>
        <time>2022-09-15T09:23:00.925Z</time>
      </trkpt>
      <trkpt lat="44.13472" lon="0.47497">
        <ele>107</ele>
        <time>2022-09-15T09:23:01.925Z</time>
      </trkpt>
      <trkpt lat="44.13471" lon="0.47497">
        <ele>107</ele>
        <time>2022-09-15T09:23:02.925Z</time>
      </trkpt>
      <trkpt lat="44.13469" lon="0.47496">
        <ele>106</ele>
        <time>2022-09-15T09:23:03.925Z</time>
      </trkpt>
      <trkpt lat="44.13468" lon="0.47495">
        <ele>106</ele>
        <time>2022-09-15T09:23:04.925Z</time>
      </trkpt>
      <trkpt lat="44.13467" lon="0.47495">
        <ele>106</ele>
        <time>2022-09-15T09:23:05.925Z</time>
      </trkpt>
      <trkpt lat="44.13466" lon="0.47494">
        <ele>105</ele>
        <time>2022-09-15T09:23:06.925Z</time>
      </trkpt>
      <trkpt lat="44.13465" lon="0.47494">
        <ele>105</ele>
        <time>2022-09-15T09:23:07.925Z</time>
      </trkpt>
      <trkpt lat="44.13464" lon="0.47494">
        <ele>105</ele>
        <time>2022-09-15T09:23:08.925Z</time>
      </trkpt>
      <trkpt lat="44.13463" lon="0.47493">
        <ele>105</ele>
        <time>2022-09-15T09:23:09.925Z</time>
      </trkpt>
      <trkpt lat="44.13462" lon="0.47493">
        <ele>105</ele>
        <time>2022-09-15T09:23:10.925Z</time>
      </trkpt>
      <trkpt lat="44.13461" lon="0.47493">
        <ele>105</ele>
        <time>2022-09-15T09:23:11.925Z</time>
      </trkpt>
      <trkpt lat="44.1346" lon="0.47493">
        <ele>105</ele>
        <time>2022-09-15T09:23:12.925Z</time>
      </trkpt>
      <trkpt lat="44.13459" lon="0.47493">
        <ele>104</ele>
        <time>2022-09-15T09:23:13.925Z</time>
      </trkpt>
      <trkpt lat="44.13458" lon="0.47493">
        <ele>105</ele>
        <time>2022-09-15T09:23:14.925Z</time>
      </trkpt>
      <trkpt lat="44.13457" lon="0.47493">
        <ele>104</ele>
        <time>2022-09-15T09:23:15.925Z</time>
      </trkpt>
      <trkpt lat="44.13456" lon="0.47492">
        <ele>105</ele>
        <time>2022-09-15T09:23:16.925Z</time>
      </trkpt>
      <trkpt lat="44.13455" lon="0.47492">
        <ele>104</ele>
        <time>2022-09-15T09:23:17.925Z</time>
      </trkpt>
      <trkpt lat="44.13453" lon="0.47492">
        <ele>104</ele>
        <time>2022-09-15T09:23:18.925Z</time>
      </trkpt>
      <trkpt lat="44.13452" lon="0.47492">
        <ele>104</ele>
        <time>2022-09-15T09:23:19.925Z</time>
      </trkpt>
      <trkpt lat="44.13451" lon="0.47492">
        <ele>104</ele>
        <time>2022-09-15T09:23:20.925Z</time>
      </trkpt>
      <trkpt lat="44.1345" lon="0.47492">
        <ele>104</ele>
        <time>2022-09-15T09:23:21.925Z</time>
      </trkpt>
      <trkpt lat="44.13449" lon="0.47492">
        <ele>104</ele>
        <time>2022-09-15T09:23:22.925Z</time>
      </trkpt>
      <trkpt lat="44.13448" lon="0.47491">
        <ele>103</ele>
        <time>2022-09-15T09:23:23.925Z</time>
      </trkpt>
      <trkpt lat="44.13446" lon="0.47491">
        <ele>103</ele>
        <time>2022-09-15T09:23:24.925Z</time>
      </trkpt>
      <trkpt lat="44.13445" lon="0.47491">
        <ele>103</ele>
        <time>2022-09-15T09:23:25.925Z</time>
      </trkpt>
      <trkpt lat="44.13443" lon="0.4749">
        <ele>103</ele>
        <time>2022-09-15T09:23:26.925Z</time>
      </trkpt>
      <trkpt lat="44.13442" lon="0.4749">
        <ele>103</ele>
        <time>2022-09-15T09:23:27.925Z</time>
      </trkpt>
      <trkpt lat="44.13441" lon="0.4749">
        <ele>103</ele>
        <time>2022-09-15T09:23:28.925Z</time>
      </trkpt>
      <trkpt lat="44.1344" lon="0.47489">
        <ele>103</ele>
        <time>2022-09-15T09:23:29.925Z</time>
      </trkpt>
      <trkpt lat="44.13438" lon="0.47489">
        <ele>103</ele>
        <time>2022-09-15T09:23:30.925Z</time>
      </trkpt>
      <trkpt lat="44.13437" lon="0.47489">
        <ele>103</ele>
        <time>2022-09-15T09:23:31.925Z</time>
      </trkpt>
      <trkpt lat="44.13436" lon="0.47488">
        <ele>103</ele>
        <time>2022-09-15T09:23:32.925Z</time>
      </trkpt>
      <trkpt lat="44.13435" lon="0.47488">
        <ele>103</ele>
        <time>2022-09-15T09:23:33.925Z</time>
      </trkpt>
      <trkpt lat="44.13434" lon="0.47488">
        <ele>103</ele>
        <time>2022-09-15T09:23:34.925Z</time>
      </trkpt>
      <trkpt lat="44.13433" lon="0.47487">
        <ele>103</ele>
        <time>2022-09-15T09:23:35.925Z</time>
      </trkpt>
      <trkpt lat="44.13431" lon="0.47487">
        <ele>103</ele>
        <time>2022-09-15T09:23:36.925Z</time>
      </trkpt>
      <trkpt lat="44.1343" lon="0.47486">
        <ele>103</ele>
        <time>2022-09-15T09:23:37.925Z</time>
      </trkpt>
      <trkpt lat="44.13429" lon="0.47486">
        <ele>103</ele>
        <time>2022-09-15T09:23:38.925Z</time>
      </trkpt>
      <trkpt lat="44.13427" lon="0.47485">
        <ele>102</ele>
        <time>2022-09-15T09:23:39.925Z</time>
      </trkpt>
      <trkpt lat="44.13426" lon="0.47485">
        <ele>102</ele>
        <time>2022-09-15T09:23:40.925Z</time>
      </trkpt>
      <trkpt lat="44.13425" lon="0.47484">
        <ele>102</ele>
        <time>2022-09-15T09:23:41.925Z</time>
      </trkpt>
      <trkpt lat="44.13424" lon="0.47484">
        <ele>102</ele>
        <time>2022-09-15T09:23:42.925Z</time>
      </trkpt>
      <trkpt lat="44.13423" lon="0.47483">
        <ele>102</ele>
        <time>2022-09-15T09:23:43.925Z</time>
      </trkpt>
      <trkpt lat="44.13422" lon="0.47483">
        <ele>102</ele>
        <time>2022-09-15T09:23:44.925Z</time>
      </trkpt>
      <trkpt lat="44.13421" lon="0.47482">
        <ele>102</ele>
        <time>2022-09-15T09:23:45.925Z</time>
      </trkpt>
      <trkpt lat="44.13419" lon="0.47482">
        <ele>102</ele>
        <time>2022-09-15T09:23:46.925Z</time>
      </trkpt>
      <trkpt lat="44.13418" lon="0.47481">
        <ele>102</ele>
        <time>2022-09-15T09:23:47.925Z</time>
      </trkpt>
      <trkpt lat="44.13416" lon="0.47481">
        <ele>102</ele>
        <time>2022-09-15T09:23:48.925Z</time>
      </trkpt>
      <trkpt lat="44.13415" lon="0.4748">
        <ele>102</ele>
        <time>2022-09-15T09:23:49.925Z</time>
      </trkpt>
      <trkpt lat="44.13413" lon="0.4748">
        <ele>102</ele>
        <time>2022-09-15T09:23:50.925Z</time>
      </trkpt>
      <trkpt lat="44.13412" lon="0.4748">
        <ele>102</ele>
        <time>2022-09-15T09:23:51.925Z</time>
      </trkpt>
      <trkpt lat="44.13411" lon="0.47479">
        <ele>102</ele>
        <time>2022-09-15T09:23:52.925Z</time>
      </trkpt>
      <trkpt lat="44.1341" lon="0.47479">
        <ele>102</ele>
        <time>2022-09-15T09:23:53.925Z</time>
      </trkpt>
      <trkpt lat="44.13409" lon="0.47478">
        <ele>102</ele>
        <time>2022-09-15T09:23:54.925Z</time>
      </trkpt>
      <trkpt lat="44.13408" lon="0.47478">
        <ele>101</ele>
        <time>2022-09-15T09:23:55.925Z</time>
      </trkpt>
      <trkpt lat="44.13406" lon="0.47477">
        <ele>101</ele>
        <time>2022-09-15T09:23:56.925Z</time>
      </trkpt>
      <trkpt lat="44.13405" lon="0.47477">
        <ele>101</ele>
        <time>2022-09-15T09:23:57.925Z</time>
      </trkpt>
      <trkpt lat="44.13404" lon="0.47476">
        <ele>101</ele>
        <time>2022-09-15T09:23:58.925Z</time>
      </trkpt>
      <trkpt lat="44.13403" lon="0.47476">
        <ele>101</ele>
        <time>2022-09-15T09:23:59.925Z</time>
      </trkpt>
      <trkpt lat="44.13402" lon="0.47475">
        <ele>101</ele>
        <time>2022-09-15T09:24:00.925Z</time>
      </trkpt>
      <trkpt lat="44.134" lon="0.47475">
        <ele>101</ele>
        <time>2022-09-15T09:24:01.925Z</time>
      </trkpt>
      <trkpt lat="44.13399" lon="0.47475">
        <ele>101</ele>
        <time>2022-09-15T09:24:02.925Z</time>
      </trkpt>
      <trkpt lat="44.13398" lon="0.47474">
        <ele>100</ele>
        <time>2022-09-15T09:24:03.925Z</time>
      </trkpt>
      <trkpt lat="44.13397" lon="0.47474">
        <ele>100</ele>
        <time>2022-09-15T09:24:04.925Z</time>
      </trkpt>
      <trkpt lat="44.13396" lon="0.47474">
        <ele>100</ele>
        <time>2022-09-15T09:24:05.925Z</time>
      </trkpt>
      <trkpt lat="44.13395" lon="0.47473">
        <ele>100</ele>
        <time>2022-09-15T09:24:06.925Z</time>
      </trkpt>
      <trkpt lat="44.13393" lon="0.47473">
        <ele>100</ele>
        <time>2022-09-15T09:24:07.925Z</time>
      </trkpt>
      <trkpt lat="44.13392" lon="0.47472">
        <ele>100</ele>
        <time>2022-09-15T09:24:08.925Z</time>
      </trkpt>
      <trkpt lat="44.13391" lon="0.47472">
        <ele>100</ele>
        <time>2022-09-15T09:24:09.925Z</time>
      </trkpt>
      <trkpt lat="44.1339" lon="0.47472">
        <ele>100</ele>
        <time>2022-09-15T09:24:10.925Z</time>
      </trkpt>
      <trkpt lat="44.13388" lon="0.47471">
        <ele>99</ele>
        <time>2022-09-15T09:24:11.925Z</time>
      </trkpt>
      <trkpt lat="44.13387" lon="0.47471">
        <ele>99</ele>
        <time>2022-09-15T09:24:12.925Z</time>
      </trkpt>
      <trkpt lat="44.13386" lon="0.47471">
        <ele>100</ele>
        <time>2022-09-15T09:24:13.925Z</time>
      </trkpt>
      <trkpt lat="44.13384" lon="0.4747">
        <ele>100</ele>
        <time>2022-09-15T09:24:14.925Z</time>
      </trkpt>
      <trkpt lat="44.13383" lon="0.4747">
        <ele>100</ele>
        <time>2022-09-15T09:24:15.925Z</time>
      </trkpt>
      <trkpt lat="44.13382" lon="0.4747">
        <ele>100</ele>
        <time>2022-09-15T09:24:16.925Z</time>
      </trkpt>
      <trkpt lat="44.13381" lon="0.47469">
        <ele>99</ele>
        <time>2022-09-15T09:24:17.925Z</time>
      </trkpt>
      <trkpt lat="44.1338" lon="0.47469">
        <ele>99</ele>
        <time>2022-09-15T09:24:18.925Z</time>
      </trkpt>
      <trkpt lat="44.13379" lon="0.47469">
        <ele>99</ele>
        <time>2022-09-15T09:24:19.925Z</time>
      </trkpt>
      <trkpt lat="44.13377" lon="0.47468">
        <ele>99</ele>
        <time>2022-09-15T09:24:20.925Z</time>
      </trkpt>
      <trkpt lat="44.13376" lon="0.47468">
        <ele>99</ele>
        <time>2022-09-15T09:24:21.925Z</time>
      </trkpt>
      <trkpt lat="44.13375" lon="0.47467">
        <ele>99</ele>
        <time>2022-09-15T09:24:22.925Z</time>
      </trkpt>
      <trkpt lat="44.13374" lon="0.47467">
        <ele>99</ele>
        <time>2022-09-15T09:24:23.925Z</time>
      </trkpt>
      <trkpt lat="44.13373" lon="0.47467">
        <ele>99</ele>
        <time>2022-09-15T09:24:24.925Z</time>
      </trkpt>
      <trkpt lat="44.13372" lon="0.47466">
        <ele>99</ele>
        <time>2022-09-15T09:24:25.925Z</time>
      </trkpt>
      <trkpt lat="44.1337" lon="0.47466">
        <ele>99</ele>
        <time>2022-09-15T09:24:26.925Z</time>
      </trkpt>
      <trkpt lat="44.13369" lon="0.47466">
        <ele>99</ele>
        <time>2022-09-15T09:24:27.925Z</time>
      </trkpt>
      <trkpt lat="44.13368" lon="0.47465">
        <ele>99</ele>
        <time>2022-09-15T09:24:28.925Z</time>
      </trkpt>
      <trkpt lat="44.13366" lon="0.47465">
        <ele>99</ele>
        <time>2022-09-15T09:24:29.925Z</time>
      </trkpt>
      <trkpt lat="44.13365" lon="0.47464">
        <ele>99</ele>
        <time>2022-09-15T09:24:30.925Z</time>
      </trkpt>
      <trkpt lat="44.13364" lon="0.47464">
        <ele>99</ele>
        <time>2022-09-15T09:24:31.925Z</time>
      </trkpt>
      <trkpt lat="44.13362" lon="0.47463">
        <ele>99</ele>
        <time>2022-09-15T09:24:32.925Z</time>
      </trkpt>
      <trkpt lat="44.13361" lon="0.47463">
        <ele>99</ele>
        <time>2022-09-15T09:24:33.925Z</time>
      </trkpt>
      <trkpt lat="44.1336" lon="0.47463">
        <ele>99</ele>
        <time>2022-09-15T09:24:34.925Z</time>
      </trkpt>
      <trkpt lat="44.13359" lon="0.47462">
        <ele>99</ele>
        <time>2022-09-15T09:24:35.925Z</time>
      </trkpt>
      <trkpt lat="44.13357" lon="0.47462">
        <ele>99</ele>
        <time>2022-09-15T09:24:36.925Z</time>
      </trkpt>
      <trkpt lat="44.13356" lon="0.47461">
        <ele>99</ele>
        <time>2022-09-15T09:24:37.925Z</time>
      </trkpt>
      <trkpt lat="44.13355" lon="0.47461">
        <ele>99</ele>
        <time>2022-09-15T09:24:38.925Z</time>
      </trkpt>
      <trkpt lat="44.13354" lon="0.47461">
        <ele>99</ele>
        <time>2022-09-15T09:24:39.925Z</time>
      </trkpt>
      <trkpt lat="44.13352" lon="0.4746">
        <ele>99</ele>
        <time>2022-09-15T09:24:40.925Z</time>
      </trkpt>
      <trkpt lat="44.13351" lon="0.4746">
        <ele>99</ele>
        <time>2022-09-15T09:24:41.925Z</time>
      </trkpt>
      <trkpt lat="44.1335" lon="0.4746">
        <ele>99</ele>
        <time>2022-09-15T09:24:42.925Z</time>
      </trkpt>
      <trkpt lat="44.13349" lon="0.47459">
        <ele>99</ele>
        <time>2022-09-15T09:24:43.925Z</time>
      </trkpt>
      <trkpt lat="44.13348" lon="0.47459">
        <ele>99</ele>
        <time>2022-09-15T09:24:44.925Z</time>
      </trkpt>
      <trkpt lat="44.13346" lon="0.47459">
        <ele>99</ele>
        <time>2022-09-15T09:24:45.925Z</time>
      </trkpt>
      <trkpt lat="44.13345" lon="0.47458">
        <ele>99</ele>
        <time>2022-09-15T09:24:46.925Z</time>
      </trkpt>
      <trkpt lat="44.13344" lon="0.47458">
        <ele>98</ele>
        <time>2022-09-15T09:24:47.925Z</time>
      </trkpt>
      <trkpt lat="44.13343" lon="0.47457">
        <ele>98</ele>
        <time>2022-09-15T09:24:48.925Z</time>
      </trkpt>
      <trkpt lat="44.13341" lon="0.47456">
        <ele>98</ele>
        <time>2022-09-15T09:24:49.925Z</time>
      </trkpt>
      <trkpt lat="44.1334" lon="0.47456">
        <ele>98</ele>
        <time>2022-09-15T09:24:50.925Z</time>
      </trkpt>
      <trkpt lat="44.13339" lon="0.47456">
        <ele>98</ele>
        <time>2022-09-15T09:24:51.925Z</time>
      </trkpt>
      <trkpt lat="44.13338" lon="0.47455">
        <ele>98</ele>
        <time>2022-09-15T09:24:52.925Z</time>
      </trkpt>
      <trkpt lat="44.13337" lon="0.47455">
        <ele>98</ele>
        <time>2022-09-15T09:24:53.925Z</time>
      </trkpt>
      <trkpt lat="44.13336" lon="0.47454">
        <ele>98</ele>
        <time>2022-09-15T09:24:54.925Z</time>
      </trkpt>
      <trkpt lat="44.13335" lon="0.47454">
        <ele>98</ele>
        <time>2022-09-15T09:24:55.925Z</time>
      </trkpt>
      <trkpt lat="44.13333" lon="0.47453">
        <ele>97</ele>
        <time>2022-09-15T09:24:56.925Z</time>
      </trkpt>
      <trkpt lat="44.13332" lon="0.47453">
        <ele>97</ele>
        <time>2022-09-15T09:24:57.925Z</time>
      </trkpt>
      <trkpt lat="44.13331" lon="0.47452">
        <ele>97</ele>
        <time>2022-09-15T09:24:58.925Z</time>
      </trkpt>
      <trkpt lat="44.13329" lon="0.47452">
        <ele>97</ele>
        <time>2022-09-15T09:24:59.925Z</time>
      </trkpt>
      <trkpt lat="44.13328" lon="0.47451">
        <ele>97</ele>
        <time>2022-09-15T09:25:00.925Z</time>
      </trkpt>
      <trkpt lat="44.13327" lon="0.4745">
        <ele>97</ele>
        <time>2022-09-15T09:25:01.925Z</time>
      </trkpt>
      <trkpt lat="44.13326" lon="0.4745">
        <ele>96</ele>
        <time>2022-09-15T09:25:02.925Z</time>
      </trkpt>
      <trkpt lat="44.13325" lon="0.4745">
        <ele>96</ele>
        <time>2022-09-15T09:25:03.925Z</time>
      </trkpt>
      <trkpt lat="44.13324" lon="0.4745">
        <ele>95</ele>
        <time>2022-09-15T09:25:04.925Z</time>
      </trkpt>
      <trkpt lat="44.13322" lon="0.47449">
        <ele>95</ele>
        <time>2022-09-15T09:25:05.925Z</time>
      </trkpt>
      <trkpt lat="44.13321" lon="0.47448">
        <ele>95</ele>
        <time>2022-09-15T09:25:06.925Z</time>
      </trkpt>
      <trkpt lat="44.1332" lon="0.47448">
        <ele>95</ele>
        <time>2022-09-15T09:25:07.925Z</time>
      </trkpt>
      <trkpt lat="44.13319" lon="0.47447">
        <ele>94</ele>
        <time>2022-09-15T09:25:08.925Z</time>
      </trkpt>
      <trkpt lat="44.13317" lon="0.47447">
        <ele>94</ele>
        <time>2022-09-15T09:25:09.925Z</time>
      </trkpt>
      <trkpt lat="44.13316" lon="0.47447">
        <ele>94</ele>
        <time>2022-09-15T09:25:10.925Z</time>
      </trkpt>
      <trkpt lat="44.13315" lon="0.47446">
        <ele>94</ele>
        <time>2022-09-15T09:25:11.925Z</time>
      </trkpt>
      <trkpt lat="44.13314" lon="0.47446">
        <ele>93</ele>
        <time>2022-09-15T09:25:12.925Z</time>
      </trkpt>
      <trkpt lat="44.13313" lon="0.47445">
        <ele>92</ele>
        <time>2022-09-15T09:25:13.925Z</time>
      </trkpt>
      <trkpt lat="44.13312" lon="0.47445">
        <ele>91</ele>
        <time>2022-09-15T09:25:14.925Z</time>
      </trkpt>
      <trkpt lat="44.13311" lon="0.47444">
        <ele>91</ele>
        <time>2022-09-15T09:25:15.925Z</time>
      </trkpt>
      <trkpt lat="44.1331" lon="0.47444">
        <ele>91</ele>
        <time>2022-09-15T09:25:16.925Z</time>
      </trkpt>
      <trkpt lat="44.13309" lon="0.47443">
        <ele>91</ele>
        <time>2022-09-15T09:25:17.925Z</time>
      </trkpt>
      <trkpt lat="44.13307" lon="0.47443">
        <ele>91</ele>
        <time>2022-09-15T09:25:18.925Z</time>
      </trkpt>
      <trkpt lat="44.13306" lon="0.47442">
        <ele>91</ele>
        <time>2022-09-15T09:25:19.925Z</time>
      </trkpt>
      <trkpt lat="44.13305" lon="0.47442">
        <ele>90</ele>
        <time>2022-09-15T09:25:20.925Z</time>
      </trkpt>
      <trkpt lat="44.13304" lon="0.47442">
        <ele>90</ele>
        <time>2022-09-15T09:25:21.925Z</time>
      </trkpt>
      <trkpt lat="44.13303" lon="0.47441">
        <ele>90</ele>
        <time>2022-09-15T09:25:22.925Z</time>
      </trkpt>
      <trkpt lat="44.13302" lon="0.47441">
        <ele>90</ele>
        <time>2022-09-15T09:25:23.925Z</time>
      </trkpt>
      <trkpt lat="44.13301" lon="0.4744">
        <ele>90</ele>
        <time>2022-09-15T09:25:24.925Z</time>
      </trkpt>
      <trkpt lat="44.13299" lon="0.4744">
        <ele>90</ele>
        <time>2022-09-15T09:25:25.925Z</time>
      </trkpt>
      <trkpt lat="44.13298" lon="0.4744">
        <ele>90</ele>
        <time>2022-09-15T09:25:26.925Z</time>
      </trkpt>
      <trkpt lat="44.13297" lon="0.47439">
        <ele>90</ele>
        <time>2022-09-15T09:25:27.925Z</time>
      </trkpt>
      <trkpt lat="44.13296" lon="0.47439">
        <ele>90</ele>
        <time>2022-09-15T09:25:28.925Z</time>
      </trkpt>
      <trkpt lat="44.13295" lon="0.47439">
        <ele>90</ele>
        <time>2022-09-15T09:25:29.925Z</time>
      </trkpt>
      <trkpt lat="44.13294" lon="0.47438">
        <ele>90</ele>
        <time>2022-09-15T09:25:30.925Z</time>
      </trkpt>
      <trkpt lat="44.13293" lon="0.47438">
        <ele>90</ele>
        <time>2022-09-15T09:25:31.925Z</time>
      </trkpt>
      <trkpt lat="44.13291" lon="0.47438">
        <ele>90</ele>
        <time>2022-09-15T09:25:32.925Z</time>
      </trkpt>
      <trkpt lat="44.1329" lon="0.47438">
        <ele>90</ele>
        <time>2022-09-15T09:25:33.925Z</time>
      </trkpt>
      <trkpt lat="44.13289" lon="0.47438">
        <ele>91</ele>
        <time>2022-09-15T09:25:34.925Z</time>
      </trkpt>
      <trkpt lat="44.13288" lon="0.47437">
        <ele>91</ele>
        <time>2022-09-15T09:25:35.925Z</time>
      </trkpt>
      <trkpt lat="44.13287" lon="0.47437">
        <ele>91</ele>
        <time>2022-09-15T09:25:36.925Z</time>
      </trkpt>
      <trkpt lat="44.13286" lon="0.47437">
        <ele>91</ele>
        <time>2022-09-15T09:25:37.925Z</time>
      </trkpt>
      <trkpt lat="44.13285" lon="0.47437">
        <ele>91</ele>
        <time>2022-09-15T09:25:38.925Z</time>
      </trkpt>
      <trkpt lat="44.13284" lon="0.47436">
        <ele>91</ele>
        <time>2022-09-15T09:25:39.925Z</time>
      </trkpt>
      <trkpt lat="44.13283" lon="0.47436">
        <ele>91</ele>
        <time>2022-09-15T09:25:40.925Z</time>
      </trkpt>
      <trkpt lat="44.13281" lon="0.47436">
        <ele>90</ele>
        <time>2022-09-15T09:25:41.925Z</time>
      </trkpt>
      <trkpt lat="44.1328" lon="0.47436">
        <ele>90</ele>
        <time>2022-09-15T09:25:42.925Z</time>
      </trkpt>
      <trkpt lat="44.13279" lon="0.47436">
        <ele>91</ele>
        <time>2022-09-15T09:25:43.925Z</time>
      </trkpt>
      <trkpt lat="44.13278" lon="0.47436">
        <ele>90</ele>
        <time>2022-09-15T09:25:44.925Z</time>
      </trkpt>
      <trkpt lat="44.13277" lon="0.47435">
        <ele>91</ele>
        <time>2022-09-15T09:25:45.925Z</time>
      </trkpt>
      <trkpt lat="44.13276" lon="0.47435">
        <ele>91</ele>
        <time>2022-09-15T09:25:46.925Z</time>
      </trkpt>
      <trkpt lat="44.13275" lon="0.47435">
        <ele>91</ele>
        <time>2022-09-15T09:25:47.925Z</time>
      </trkpt>
      <trkpt lat="44.13274" lon="0.47435">
        <ele>90</ele>
        <time>2022-09-15T09:25:48.925Z</time>
      </trkpt>
      <trkpt lat="44.13273" lon="0.47435">
        <ele>90</ele>
        <time>2022-09-15T09:25:49.925Z</time>
      </trkpt>
      <trkpt lat="44.13272" lon="0.47435">
        <ele>91</ele>
        <time>2022-09-15T09:25:50.925Z</time>
      </trkpt>
      <trkpt lat="44.13271" lon="0.47434">
        <ele>90</ele>
        <time>2022-09-15T09:25:51.925Z</time>
      </trkpt>
      <trkpt lat="44.1327" lon="0.47434">
        <ele>90</ele>
        <time>2022-09-15T09:25:52.925Z</time>
      </trkpt>
      <trkpt lat="44.13269" lon="0.47434">
        <ele>91</ele>
        <time>2022-09-15T09:25:53.925Z</time>
      </trkpt>
      <trkpt lat="44.13267" lon="0.47434">
        <ele>91</ele>
        <time>2022-09-15T09:25:54.925Z</time>
      </trkpt>
      <trkpt lat="44.13266" lon="0.47433">
        <ele>90</ele>
        <time>2022-09-15T09:25:55.925Z</time>
      </trkpt>
      <trkpt lat="44.13265" lon="0.47433">
        <ele>90</ele>
        <time>2022-09-15T09:25:56.925Z</time>
      </trkpt>
      <trkpt lat="44.13264" lon="0.47433">
        <ele>90</ele>
        <time>2022-09-15T09:25:57.925Z</time>
      </trkpt>
      <trkpt lat="44.13263" lon="0.47433">
        <ele>90</ele>
        <time>2022-09-15T09:25:58.925Z</time>
      </trkpt>
      <trkpt lat="44.13262" lon="0.47432">
        <ele>90</ele>
        <time>2022-09-15T09:25:59.925Z</time>
      </trkpt>
      <trkpt lat="44.13261" lon="0.47432">
        <ele>90</ele>
        <time>2022-09-15T09:26:00.925Z</time>
      </trkpt>
      <trkpt lat="44.1326" lon="0.47432">
        <ele>90</ele>
        <time>2022-09-15T09:26:01.925Z</time>
      </trkpt>
      <trkpt lat="44.13259" lon="0.47432">
        <ele>90</ele>
        <time>2022-09-15T09:26:02.925Z</time>
      </trkpt>
      <trkpt lat="44.13258" lon="0.47432">
        <ele>90</ele>
        <time>2022-09-15T09:26:03.925Z</time>
      </trkpt>
      <trkpt lat="44.13258" lon="0.47432">
        <ele>90</ele>
        <time>2022-09-15T09:26:04.925Z</time>
      </trkpt>
      <trkpt lat="44.13257" lon="0.47433">
        <ele>90</ele>
        <time>2022-09-15T09:26:05.925Z</time>
      </trkpt>
      <trkpt lat="44.13257" lon="0.47433">
        <ele>90</ele>
        <time>2022-09-15T09:26:06.925Z</time>
      </trkpt>
      <trkpt lat="44.13256" lon="0.47434">
        <ele>90</ele>
        <time>2022-09-15T09:26:07.925Z</time>
      </trkpt>
      <trkpt lat="44.13256" lon="0.47435">
        <ele>89</ele>
        <time>2022-09-15T09:26:08.925Z</time>
      </trkpt>
      <trkpt lat="44.13256" lon="0.47436">
        <ele>89</ele>
        <time>2022-09-15T09:26:09.925Z</time>
      </trkpt>
      <trkpt lat="44.13255" lon="0.47437">
        <ele>89</ele>
        <time>2022-09-15T09:26:10.925Z</time>
      </trkpt>
      <trkpt lat="44.13255" lon="0.47438">
        <ele>88</ele>
        <time>2022-09-15T09:26:11.925Z</time>
      </trkpt>
      <trkpt lat="44.13255" lon="0.4744">
        <ele>88</ele>
        <time>2022-09-15T09:26:12.925Z</time>
      </trkpt>
      <trkpt lat="44.13255" lon="0.47441">
        <ele>88</ele>
        <time>2022-09-15T09:26:13.925Z</time>
      </trkpt>
      <trkpt lat="44.13255" lon="0.47442">
        <ele>87</ele>
        <time>2022-09-15T09:26:14.925Z</time>
      </trkpt>
      <trkpt lat="44.13255" lon="0.47444">
        <ele>87</ele>
        <time>2022-09-15T09:26:15.925Z</time>
      </trkpt>
      <trkpt lat="44.13255" lon="0.47445">
        <ele>87</ele>
        <time>2022-09-15T09:26:16.925Z</time>
      </trkpt>
      <trkpt lat="44.13255" lon="0.47447">
        <ele>87</ele>
        <time>2022-09-15T09:26:17.925Z</time>
      </trkpt>
      <trkpt lat="44.13255" lon="0.47448">
        <ele>87</ele>
        <time>2022-09-15T09:26:18.925Z</time>
      </trkpt>
      <trkpt lat="44.13255" lon="0.4745">
        <ele>87</ele>
        <time>2022-09-15T09:26:19.925Z</time>
      </trkpt>
      <trkpt lat="44.13255" lon="0.47451">
        <ele>87</ele>
        <time>2022-09-15T09:26:20.925Z</time>
      </trkpt>
      <trkpt lat="44.13255" lon="0.47452">
        <ele>87</ele>
        <time>2022-09-15T09:26:21.925Z</time>
      </trkpt>
      <trkpt lat="44.13256" lon="0.47454">
        <ele>87</ele>
        <time>2022-09-15T09:26:22.925Z</time>
      </trkpt>
      <trkpt lat="44.13256" lon="0.47454">
        <ele>87</ele>
        <time>2022-09-15T09:26:23.925Z</time>
      </trkpt>
      <trkpt lat="44.13256" lon="0.47455">
        <ele>87</ele>
        <time>2022-09-15T09:26:24.925Z</time>
      </trkpt>
      <trkpt lat="44.13256" lon="0.47455">
        <ele>87</ele>
        <time>2022-09-15T09:26:25.925Z</time>
      </trkpt>
      <trkpt lat="44.13256" lon="0.47455">
        <ele>87</ele>
        <time>2022-09-15T09:26:26.925Z</time>
      </trkpt>
      <trkpt lat="44.13256" lon="0.47456">
        <ele>87</ele>
        <time>2022-09-15T09:26:27.925Z</time>
      </trkpt>
      <trkpt lat="44.13256" lon="0.47456">
        <ele>86</ele>
        <time>2022-09-15T09:26:28.925Z</time>
      </trkpt>
      <trkpt lat="44.13257" lon="0.47457">
        <ele>86</ele>
        <time>2022-09-15T09:26:29.925Z</time>
      </trkpt>
      <trkpt lat="44.13257" lon="0.47458">
        <ele>86</ele>
        <time>2022-09-15T09:26:30.925Z</time>
      </trkpt>
      <trkpt lat="44.13256" lon="0.47459">
        <ele>86</ele>
        <time>2022-09-15T09:26:31.925Z</time>
      </trkpt>
      <trkpt lat="44.13256" lon="0.4746">
        <ele>85</ele>
        <time>2022-09-15T09:26:32.925Z</time>
      </trkpt>
      <trkpt lat="44.13256" lon="0.47462">
        <ele>85</ele>
        <time>2022-09-15T09:26:33.925Z</time>
      </trkpt>
      <trkpt lat="44.13256" lon="0.47463">
        <ele>85</ele>
        <time>2022-09-15T09:26:34.925Z</time>
      </trkpt>
      <trkpt lat="44.13255" lon="0.47465">
        <ele>85</ele>
        <time>2022-09-15T09:26:35.925Z</time>
      </trkpt>
      <trkpt lat="44.13255" lon="0.47466">
        <ele>85</ele>
        <time>2022-09-15T09:26:36.925Z</time>
      </trkpt>
      <trkpt lat="44.13255" lon="0.47467">
        <ele>85</ele>
        <time>2022-09-15T09:26:37.925Z</time>
      </trkpt>
      <trkpt lat="44.13255" lon="0.47469">
        <ele>85</ele>
        <time>2022-09-15T09:26:38.925Z</time>
      </trkpt>
      <trkpt lat="44.13255" lon="0.4747">
        <ele>85</ele>
        <time>2022-09-15T09:26:39.925Z</time>
      </trkpt>
      <trkpt lat="44.13255" lon="0.47471">
        <ele>85</ele>
        <time>2022-09-15T09:26:40.925Z</time>
      </trkpt>
      <trkpt lat="44.13254" lon="0.47472">
        <ele>84</ele>
        <time>2022-09-15T09:26:41.925Z</time>
      </trkpt>
      <trkpt lat="44.13254" lon="0.47474">
        <ele>84</ele>
        <time>2022-09-15T09:26:42.925Z</time>
      </trkpt>
      <trkpt lat="44.13255" lon="0.47475">
        <ele>84</ele>
        <time>2022-09-15T09:26:43.925Z</time>
      </trkpt>
      <trkpt lat="44.13255" lon="0.47476">
        <ele>84</ele>
        <time>2022-09-15T09:26:44.925Z</time>
      </trkpt>
      <trkpt lat="44.13255" lon="0.47478">
        <ele>84</ele>
        <time>2022-09-15T09:26:45.925Z</time>
      </trkpt>
      <trkpt lat="44.13255" lon="0.47479">
        <ele>84</ele>
        <time>2022-09-15T09:26:46.925Z</time>
      </trkpt>
      <trkpt lat="44.13254" lon="0.47481">
        <ele>84</ele>
        <time>2022-09-15T09:26:47.925Z</time>
      </trkpt>
      <trkpt lat="44.13254" lon="0.47482">
        <ele>84</ele>
        <time>2022-09-15T09:26:48.925Z</time>
      </trkpt>
      <trkpt lat="44.13254" lon="0.47484">
        <ele>84</ele>
        <time>2022-09-15T09:26:49.925Z</time>
      </trkpt>
      <trkpt lat="44.13253" lon="0.47485">
        <ele>84</ele>
        <time>2022-09-15T09:26:50.925Z</time>
      </trkpt>
      <trkpt lat="44.13253" lon="0.47486">
        <ele>84</ele>
        <time>2022-09-15T09:26:51.925Z</time>
      </trkpt>
      <trkpt lat="44.13253" lon="0.47487">
        <ele>84</ele>
        <time>2022-09-15T09:26:52.925Z</time>
      </trkpt>
      <trkpt lat="44.13252" lon="0.47489">
        <ele>84</ele>
        <time>2022-09-15T09:26:53.925Z</time>
      </trkpt>
      <trkpt lat="44.13252" lon="0.4749">
        <ele>84</ele>
        <time>2022-09-15T09:26:54.925Z</time>
      </trkpt>
      <trkpt lat="44.13251" lon="0.47491">
        <ele>83</ele>
        <time>2022-09-15T09:26:55.925Z</time>
      </trkpt>
      <trkpt lat="44.13251" lon="0.47491">
        <ele>83</ele>
        <time>2022-09-15T09:26:56.925Z</time>
      </trkpt>
      <trkpt lat="44.13251" lon="0.47492">
        <ele>83</ele>
        <time>2022-09-15T09:26:57.925Z</time>
      </trkpt>
      <trkpt lat="44.13251" lon="0.47493">
        <ele>83</ele>
        <time>2022-09-15T09:26:58.925Z</time>
      </trkpt>
      <trkpt lat="44.13251" lon="0.47494">
        <ele>83</ele>
        <time>2022-09-15T09:26:59.925Z</time>
      </trkpt>
      <trkpt lat="44.1325" lon="0.47495">
        <ele>83</ele>
        <time>2022-09-15T09:27:00.925Z</time>
      </trkpt>
      <trkpt lat="44.1325" lon="0.47496">
        <ele>83</ele>
        <time>2022-09-15T09:27:01.925Z</time>
      </trkpt>
      <trkpt lat="44.1325" lon="0.47497">
        <ele>83</ele>
        <time>2022-09-15T09:27:02.925Z</time>
      </trkpt>
      <trkpt lat="44.13249" lon="0.47497">
        <ele>82</ele>
        <time>2022-09-15T09:27:03.925Z</time>
      </trkpt>
      <trkpt lat="44.13249" lon="0.47498">
        <ele>82</ele>
        <time>2022-09-15T09:27:04.925Z</time>
      </trkpt>
      <trkpt lat="44.13248" lon="0.47499">
        <ele>83</ele>
        <time>2022-09-15T09:27:05.925Z</time>
      </trkpt>
      <trkpt lat="44.13248" lon="0.475">
        <ele>82</ele>
        <time>2022-09-15T09:27:06.925Z</time>
      </trkpt>
      <trkpt lat="44.13247" lon="0.475">
        <ele>82</ele>
        <time>2022-09-15T09:27:07.925Z</time>
      </trkpt>
      <trkpt lat="44.13246" lon="0.475">
        <ele>82</ele>
        <time>2022-09-15T09:27:08.925Z</time>
      </trkpt>
      <trkpt lat="44.13246" lon="0.47501">
        <ele>80</ele>
        <time>2022-09-15T09:27:09.925Z</time>
      </trkpt>
      <trkpt lat="44.13245" lon="0.47502">
        <ele>80</ele>
        <time>2022-09-15T09:27:10.925Z</time>
      </trkpt>
      <trkpt lat="44.13244" lon="0.47503">
        <ele>80</ele>
        <time>2022-09-15T09:27:11.925Z</time>
      </trkpt>
      <trkpt lat="44.13243" lon="0.47504">
        <ele>80</ele>
        <time>2022-09-15T09:27:12.925Z</time>
      </trkpt>
      <trkpt lat="44.13242" lon="0.47505">
        <ele>80</ele>
        <time>2022-09-15T09:27:13.925Z</time>
      </trkpt>
      <trkpt lat="44.13241" lon="0.47506">
        <ele>80</ele>
        <time>2022-09-15T09:27:14.925Z</time>
      </trkpt>
      <trkpt lat="44.13241" lon="0.47507">
        <ele>80</ele>
        <time>2022-09-15T09:27:15.925Z</time>
      </trkpt>
      <trkpt lat="44.1324" lon="0.47508">
        <ele>80</ele>
        <time>2022-09-15T09:27:16.925Z</time>
      </trkpt>
      <trkpt lat="44.13239" lon="0.47509">
        <ele>79</ele>
        <time>2022-09-15T09:27:17.925Z</time>
      </trkpt>
      <trkpt lat="44.13238" lon="0.4751">
        <ele>79</ele>
        <time>2022-09-15T09:27:18.925Z</time>
      </trkpt>
      <trkpt lat="44.13237" lon="0.47511">
        <ele>78</ele>
        <time>2022-09-15T09:27:19.925Z</time>
      </trkpt>
      <trkpt lat="44.13237" lon="0.47511">
        <ele>78</ele>
        <time>2022-09-15T09:27:20.925Z</time>
      </trkpt>
      <trkpt lat="44.13236" lon="0.47512">
        <ele>78</ele>
        <time>2022-09-15T09:27:21.925Z</time>
      </trkpt>
      <trkpt lat="44.13235" lon="0.47513">
        <ele>77</ele>
        <time>2022-09-15T09:27:22.925Z</time>
      </trkpt>
      <trkpt lat="44.13234" lon="0.47513">
        <ele>77</ele>
        <time>2022-09-15T09:27:23.925Z</time>
      </trkpt>
      <trkpt lat="44.13233" lon="0.47513">
        <ele>77</ele>
        <time>2022-09-15T09:27:24.925Z</time>
      </trkpt>
      <trkpt lat="44.13233" lon="0.47513">
        <ele>77</ele>
        <time>2022-09-15T09:27:25.925Z</time>
      </trkpt>
      <trkpt lat="44.13232" lon="0.47513">
        <ele>77</ele>
        <time>2022-09-15T09:27:26.925Z</time>
      </trkpt>
      <trkpt lat="44.13231" lon="0.47513">
        <ele>77</ele>
        <time>2022-09-15T09:27:27.925Z</time>
      </trkpt>
      <trkpt lat="44.1323" lon="0.47512">
        <ele>77</ele>
        <time>2022-09-15T09:27:28.925Z</time>
      </trkpt>
      <trkpt lat="44.1323" lon="0.47512">
        <ele>77</ele>
        <time>2022-09-15T09:27:29.925Z</time>
      </trkpt>
      <trkpt lat="44.13229" lon="0.47511">
        <ele>77</ele>
        <time>2022-09-15T09:27:30.925Z</time>
      </trkpt>
      <trkpt lat="44.13229" lon="0.4751">
        <ele>77</ele>
        <time>2022-09-15T09:27:31.925Z</time>
      </trkpt>
      <trkpt lat="44.13228" lon="0.4751">
        <ele>78</ele>
        <time>2022-09-15T09:27:32.925Z</time>
      </trkpt>
      <trkpt lat="44.13227" lon="0.47509">
        <ele>78</ele>
        <time>2022-09-15T09:27:33.925Z</time>
      </trkpt>
      <trkpt lat="44.13227" lon="0.47508">
        <ele>78</ele>
        <time>2022-09-15T09:27:34.925Z</time>
      </trkpt>
      <trkpt lat="44.13226" lon="0.47507">
        <ele>78</ele>
        <time>2022-09-15T09:27:35.925Z</time>
      </trkpt>
      <trkpt lat="44.13226" lon="0.47506">
        <ele>78</ele>
        <time>2022-09-15T09:27:36.925Z</time>
      </trkpt>
      <trkpt lat="44.13226" lon="0.47504">
        <ele>78</ele>
        <time>2022-09-15T09:27:37.925Z</time>
      </trkpt>
      <trkpt lat="44.13226" lon="0.47503">
        <ele>78</ele>
        <time>2022-09-15T09:27:38.925Z</time>
      </trkpt>
      <trkpt lat="44.13225" lon="0.47502">
        <ele>77</ele>
        <time>2022-09-15T09:27:39.925Z</time>
      </trkpt>
      <trkpt lat="44.13225" lon="0.47501">
        <ele>77</ele>
        <time>2022-09-15T09:27:40.925Z</time>
      </trkpt>
      <trkpt lat="44.13225" lon="0.475">
        <ele>78</ele>
        <time>2022-09-15T09:27:41.925Z</time>
      </trkpt>
      <trkpt lat="44.13224" lon="0.47499">
        <ele>77</ele>
        <time>2022-09-15T09:27:42.925Z</time>
      </trkpt>
      <trkpt lat="44.13224" lon="0.47498">
        <ele>77</ele>
        <time>2022-09-15T09:27:43.925Z</time>
      </trkpt>
      <trkpt lat="44.13224" lon="0.47497">
        <ele>77</ele>
        <time>2022-09-15T09:27:44.925Z</time>
      </trkpt>
      <trkpt lat="44.13224" lon="0.47497">
        <ele>77</ele>
        <time>2022-09-15T09:27:45.925Z</time>
      </trkpt>
      <trkpt lat="44.13224" lon="0.47496">
        <ele>77</ele>
        <time>2022-09-15T09:27:46.925Z</time>
      </trkpt>
      <trkpt lat="44.13224" lon="0.47495">
        <ele>77</ele>
        <time>2022-09-15T09:27:47.925Z</time>
      </trkpt>
      <trkpt lat="44.13223" lon="0.47494">
        <ele>78</ele>
        <time>2022-09-15T09:27:48.925Z</time>
      </trkpt>
      <trkpt lat="44.13223" lon="0.47493">
        <ele>78</ele>
        <time>2022-09-15T09:27:49.925Z</time>
      </trkpt>
      <trkpt lat="44.13223" lon="0.47492">
        <ele>78</ele>
        <time>2022-09-15T09:27:50.925Z</time>
      </trkpt>
      <trkpt lat="44.13222" lon="0.47491">
        <ele>78</ele>
        <time>2022-09-15T09:27:51.925Z</time>
      </trkpt>
      <trkpt lat="44.13222" lon="0.4749">
        <ele>78</ele>
        <time>2022-09-15T09:27:52.925Z</time>
      </trkpt>
      <trkpt lat="44.13222" lon="0.47489">
        <ele>78</ele>
        <time>2022-09-15T09:27:53.925Z</time>
      </trkpt>
      <trkpt lat="44.13222" lon="0.47488">
        <ele>78</ele>
        <time>2022-09-15T09:27:54.925Z</time>
      </trkpt>
      <trkpt lat="44.13222" lon="0.47487">
        <ele>78</ele>
        <time>2022-09-15T09:27:55.925Z</time>
      </trkpt>
      <trkpt lat="44.13222" lon="0.47487">
        <ele>78</ele>
        <time>2022-09-15T09:27:56.925Z</time>
      </trkpt>
      <trkpt lat="44.13222" lon="0.47487">
        <ele>78</ele>
        <time>2022-09-15T09:27:57.925Z</time>
      </trkpt>
      <trkpt lat="44.13222" lon="0.47487">
        <ele>79</ele>
        <time>2022-09-15T09:27:58.925Z</time>
      </trkpt>
      <trkpt lat="44.13222" lon="0.47487">
        <ele>79</ele>
        <time>2022-09-15T09:27:59.925Z</time>
      </trkpt>
      <trkpt lat="44.13221" lon="0.47486">
        <ele>79</ele>
        <time>2022-09-15T09:28:00.925Z</time>
      </trkpt>
      <trkpt lat="44.1322" lon="0.4748">
        <ele>80</ele>
        <time>2022-09-15T09:28:10.939Z</time>
      </trkpt>
      <trkpt lat="44.1322" lon="0.47479">
        <ele>80</ele>
        <time>2022-09-15T09:28:11.939Z</time>
      </trkpt>
      <trkpt lat="44.1322" lon="0.47477">
        <ele>80</ele>
        <time>2022-09-15T09:28:12.939Z</time>
      </trkpt>
      <trkpt lat="44.13219" lon="0.47476">
        <ele>80</ele>
        <time>2022-09-15T09:28:13.939Z</time>
      </trkpt>
      <trkpt lat="44.13219" lon="0.47475">
        <ele>80</ele>
        <time>2022-09-15T09:28:14.939Z</time>
      </trkpt>
      <trkpt lat="44.13219" lon="0.47473">
        <ele>80</ele>
        <time>2022-09-15T09:28:15.939Z</time>
      </trkpt>
      <trkpt lat="44.13218" lon="0.47472">
        <ele>79</ele>
        <time>2022-09-15T09:28:16.939Z</time>
      </trkpt>
      <trkpt lat="44.13218" lon="0.4747">
        <ele>80</ele>
        <time>2022-09-15T09:28:17.939Z</time>
      </trkpt>
      <trkpt lat="44.13217" lon="0.47469">
        <ele>80</ele>
        <time>2022-09-15T09:28:18.939Z</time>
      </trkpt>
      <trkpt lat="44.13217" lon="0.47467">
        <ele>79</ele>
        <time>2022-09-15T09:28:19.939Z</time>
      </trkpt>
      <trkpt lat="44.13217" lon="0.47465">
        <ele>79</ele>
        <time>2022-09-15T09:28:20.939Z</time>
      </trkpt>
      <trkpt lat="44.13216" lon="0.47463">
        <ele>78</ele>
        <time>2022-09-15T09:28:21.939Z</time>
      </trkpt>
      <trkpt lat="44.13216" lon="0.47461">
        <ele>78</ele>
        <time>2022-09-15T09:28:22.939Z</time>
      </trkpt>
      <trkpt lat="44.13216" lon="0.4746">
        <ele>78</ele>
        <time>2022-09-15T09:28:23.939Z</time>
      </trkpt>
      <trkpt lat="44.13215" lon="0.47458">
        <ele>78</ele>
        <time>2022-09-15T09:28:24.939Z</time>
      </trkpt>
      <trkpt lat="44.13215" lon="0.47457">
        <ele>78</ele>
        <time>2022-09-15T09:28:25.939Z</time>
      </trkpt>
      <trkpt lat="44.13214" lon="0.47456">
        <ele>78</ele>
        <time>2022-09-15T09:28:26.939Z</time>
      </trkpt>
      <trkpt lat="44.13213" lon="0.47455">
        <ele>78</ele>
        <time>2022-09-15T09:28:27.939Z</time>
      </trkpt>
      <trkpt lat="44.13212" lon="0.47455">
        <ele>78</ele>
        <time>2022-09-15T09:28:28.939Z</time>
      </trkpt>
      <trkpt lat="44.13211" lon="0.47454">
        <ele>78</ele>
        <time>2022-09-15T09:28:29.939Z</time>
      </trkpt>
      <trkpt lat="44.1321" lon="0.47454">
        <ele>77</ele>
        <time>2022-09-15T09:28:30.939Z</time>
      </trkpt>
      <trkpt lat="44.13209" lon="0.47453">
        <ele>77</ele>
        <time>2022-09-15T09:28:31.939Z</time>
      </trkpt>
      <trkpt lat="44.13208" lon="0.47453">
        <ele>77</ele>
        <time>2022-09-15T09:28:32.939Z</time>
      </trkpt>
      <trkpt lat="44.13207" lon="0.47452">
        <ele>77</ele>
        <time>2022-09-15T09:28:33.939Z</time>
      </trkpt>
      <trkpt lat="44.13206" lon="0.47451">
        <ele>78</ele>
        <time>2022-09-15T09:28:34.939Z</time>
      </trkpt>
      <trkpt lat="44.13206" lon="0.47451">
        <ele>78</ele>
        <time>2022-09-15T09:28:35.939Z</time>
      </trkpt>
      <trkpt lat="44.13205" lon="0.47451">
        <ele>78</ele>
        <time>2022-09-15T09:28:36.939Z</time>
      </trkpt>
      <trkpt lat="44.13204" lon="0.4745">
        <ele>78</ele>
        <time>2022-09-15T09:28:37.939Z</time>
      </trkpt>
      <trkpt lat="44.13204" lon="0.4745">
        <ele>78</ele>
        <time>2022-09-15T09:28:38.939Z</time>
      </trkpt>
      <trkpt lat="44.13203" lon="0.47449">
        <ele>77</ele>
        <time>2022-09-15T09:28:39.939Z</time>
      </trkpt>
      <trkpt lat="44.13203" lon="0.47448">
        <ele>77</ele>
        <time>2022-09-15T09:28:40.939Z</time>
      </trkpt>
      <trkpt lat="44.13202" lon="0.47447">
        <ele>78</ele>
        <time>2022-09-15T09:28:41.939Z</time>
      </trkpt>
      <trkpt lat="44.13201" lon="0.47446">
        <ele>77</ele>
        <time>2022-09-15T09:28:42.939Z</time>
      </trkpt>
      <trkpt lat="44.132" lon="0.47445">
        <ele>77</ele>
        <time>2022-09-15T09:28:43.939Z</time>
      </trkpt>
      <trkpt lat="44.132" lon="0.47445">
        <ele>77</ele>
        <time>2022-09-15T09:28:44.939Z</time>
      </trkpt>
      <trkpt lat="44.13199" lon="0.47444">
        <ele>77</ele>
        <time>2022-09-15T09:28:45.939Z</time>
      </trkpt>
      <trkpt lat="44.13199" lon="0.47444">
        <ele>78</ele>
        <time>2022-09-15T09:28:46.939Z</time>
      </trkpt>
      <trkpt lat="44.13198" lon="0.47444">
        <ele>78</ele>
        <time>2022-09-15T09:28:47.939Z</time>
      </trkpt>
      <trkpt lat="44.13198" lon="0.47444">
        <ele>79</ele>
        <time>2022-09-15T09:28:48.939Z</time>
      </trkpt>
      <trkpt lat="44.13197" lon="0.47443">
        <ele>79</ele>
        <time>2022-09-15T09:28:49.939Z</time>
      </trkpt>
      <trkpt lat="44.13197" lon="0.47443">
        <ele>79</ele>
        <time>2022-09-15T09:28:50.939Z</time>
      </trkpt>
      <trkpt lat="44.13196" lon="0.47443">
        <ele>78</ele>
        <time>2022-09-15T09:28:51.939Z</time>
      </trkpt>
      <trkpt lat="44.13196" lon="0.47443">
        <ele>79</ele>
        <time>2022-09-15T09:28:52.939Z</time>
      </trkpt>
      <trkpt lat="44.13196" lon="0.47442">
        <ele>78</ele>
        <time>2022-09-15T09:28:53.939Z</time>
      </trkpt>
      <trkpt lat="44.13195" lon="0.47442">
        <ele>78</ele>
        <time>2022-09-15T09:28:54.939Z</time>
      </trkpt>
      <trkpt lat="44.13195" lon="0.47442">
        <ele>78</ele>
        <time>2022-09-15T09:28:55.939Z</time>
      </trkpt>
      <trkpt lat="44.13195" lon="0.47442">
        <ele>77</ele>
        <time>2022-09-15T09:28:56.939Z</time>
      </trkpt>
      <trkpt lat="44.13195" lon="0.47442">
        <ele>77</ele>
        <time>2022-09-15T09:28:57.939Z</time>
      </trkpt>
      <trkpt lat="44.13195" lon="0.47443">
        <ele>77</ele>
        <time>2022-09-15T09:28:58.939Z</time>
      </trkpt>
      <trkpt lat="44.13195" lon="0.47443">
        <ele>77</ele>
        <time>2022-09-15T09:28:59.939Z</time>
      </trkpt>
      <trkpt lat="44.13183" lon="0.47445">
        <ele>85</ele>
        <time>2022-09-15T09:31:07.942Z</time>
      </trkpt>
      <trkpt lat="44.13183" lon="0.47446">
        <ele>85</ele>
        <time>2022-09-15T09:31:08.942Z</time>
      </trkpt>
      <trkpt lat="44.13182" lon="0.47446">
        <ele>85</ele>
        <time>2022-09-15T09:31:09.942Z</time>
      </trkpt>
      <trkpt lat="44.13181" lon="0.47446">
        <ele>84</ele>
        <time>2022-09-15T09:31:10.942Z</time>
      </trkpt>
      <trkpt lat="44.13181" lon="0.47447">
        <ele>84</ele>
        <time>2022-09-15T09:31:11.942Z</time>
      </trkpt>
      <trkpt lat="44.13179" lon="0.47447">
        <ele>83</ele>
        <time>2022-09-15T09:31:12.942Z</time>
      </trkpt>
      <trkpt lat="44.13178" lon="0.47448">
        <ele>83</ele>
        <time>2022-09-15T09:31:13.942Z</time>
      </trkpt>
      <trkpt lat="44.13178" lon="0.47449">
        <ele>83</ele>
        <time>2022-09-15T09:31:14.942Z</time>
      </trkpt>
      <trkpt lat="44.13177" lon="0.47449">
        <ele>82</ele>
        <time>2022-09-15T09:31:15.942Z</time>
      </trkpt>
      <trkpt lat="44.13176" lon="0.47449">
        <ele>83</ele>
        <time>2022-09-15T09:31:16.942Z</time>
      </trkpt>
      <trkpt lat="44.13175" lon="0.4745">
        <ele>82</ele>
        <time>2022-09-15T09:31:17.942Z</time>
      </trkpt>
      <trkpt lat="44.13174" lon="0.47451">
        <ele>82</ele>
        <time>2022-09-15T09:31:18.942Z</time>
      </trkpt>
      <trkpt lat="44.13173" lon="0.47451">
        <ele>82</ele>
        <time>2022-09-15T09:31:19.942Z</time>
      </trkpt>
      <trkpt lat="44.13172" lon="0.47452">
        <ele>82</ele>
        <time>2022-09-15T09:31:20.942Z</time>
      </trkpt>
      <trkpt lat="44.13172" lon="0.47452">
        <ele>82</ele>
        <time>2022-09-15T09:31:21.942Z</time>
      </trkpt>
      <trkpt lat="44.13171" lon="0.47452">
        <ele>81</ele>
        <time>2022-09-15T09:31:22.942Z</time>
      </trkpt>
      <trkpt lat="44.1317" lon="0.47452">
        <ele>80</ele>
        <time>2022-09-15T09:31:23.942Z</time>
      </trkpt>
      <trkpt lat="44.13168" lon="0.47453">
        <ele>80</ele>
        <time>2022-09-15T09:31:24.942Z</time>
      </trkpt>
      <trkpt lat="44.13168" lon="0.47453">
        <ele>80</ele>
        <time>2022-09-15T09:31:25.942Z</time>
      </trkpt>
      <trkpt lat="44.13167" lon="0.47453">
        <ele>79</ele>
        <time>2022-09-15T09:31:26.942Z</time>
      </trkpt>
      <trkpt lat="44.13166" lon="0.47453">
        <ele>80</ele>
        <time>2022-09-15T09:31:27.942Z</time>
      </trkpt>
      <trkpt lat="44.13166" lon="0.47453">
        <ele>79</ele>
        <time>2022-09-15T09:31:28.942Z</time>
      </trkpt>
      <trkpt lat="44.13165" lon="0.47452">
        <ele>79</ele>
        <time>2022-09-15T09:31:29.942Z</time>
      </trkpt>
      <trkpt lat="44.13164" lon="0.47451">
        <ele>78</ele>
        <time>2022-09-15T09:31:30.942Z</time>
      </trkpt>
      <trkpt lat="44.13164" lon="0.4745">
        <ele>78</ele>
        <time>2022-09-15T09:31:31.942Z</time>
      </trkpt>
      <trkpt lat="44.13163" lon="0.47449">
        <ele>78</ele>
        <time>2022-09-15T09:31:32.942Z</time>
      </trkpt>
      <trkpt lat="44.13162" lon="0.47447">
        <ele>78</ele>
        <time>2022-09-15T09:31:33.942Z</time>
      </trkpt>
      <trkpt lat="44.1316" lon="0.47444">
        <ele>79</ele>
        <time>2022-09-15T09:31:34.942Z</time>
      </trkpt>
      <trkpt lat="44.13159" lon="0.47441">
        <ele>80</ele>
        <time>2022-09-15T09:31:35.942Z</time>
      </trkpt>
      <trkpt lat="44.13158" lon="0.47438">
        <ele>80</ele>
        <time>2022-09-15T09:31:36.942Z</time>
      </trkpt>
      <trkpt lat="44.13158" lon="0.47435">
        <ele>80</ele>
        <time>2022-09-15T09:31:37.942Z</time>
      </trkpt>
      <trkpt lat="44.13157" lon="0.47432">
        <ele>80</ele>
        <time>2022-09-15T09:31:38.942Z</time>
      </trkpt>
      <trkpt lat="44.13157" lon="0.4743">
        <ele>81</ele>
        <time>2022-09-15T09:31:39.942Z</time>
      </trkpt>
      <trkpt lat="44.13156" lon="0.47429">
        <ele>80</ele>
        <time>2022-09-15T09:31:40.942Z</time>
      </trkpt>
      <trkpt lat="44.13156" lon="0.47428">
        <ele>80</ele>
        <time>2022-09-15T09:31:41.942Z</time>
      </trkpt>
      <trkpt lat="44.13157" lon="0.47427">
        <ele>81</ele>
        <time>2022-09-15T09:31:42.942Z</time>
      </trkpt>
      <trkpt lat="44.13157" lon="0.47426">
        <ele>80</ele>
        <time>2022-09-15T09:31:43.942Z</time>
      </trkpt>
      <trkpt lat="44.13157" lon="0.47425">
        <ele>79</ele>
        <time>2022-09-15T09:31:44.942Z</time>
      </trkpt>
      <trkpt lat="44.13158" lon="0.47425">
        <ele>78</ele>
        <time>2022-09-15T09:31:45.942Z</time>
      </trkpt>
      <trkpt lat="44.13158" lon="0.47424">
        <ele>77</ele>
        <time>2022-09-15T09:31:46.942Z</time>
      </trkpt>
      <trkpt lat="44.13158" lon="0.47423">
        <ele>76</ele>
        <time>2022-09-15T09:31:47.942Z</time>
      </trkpt>
      <trkpt lat="44.13158" lon="0.47422">
        <ele>76</ele>
        <time>2022-09-15T09:31:48.942Z</time>
      </trkpt>
      <trkpt lat="44.13158" lon="0.47422">
        <ele>76</ele>
        <time>2022-09-15T09:31:49.942Z</time>
      </trkpt>
      <trkpt lat="44.13156" lon="0.47415">
        <ele>81</ele>
        <time>2022-09-15T09:32:14.835Z</time>
      </trkpt>
      <trkpt lat="44.13156" lon="0.47414">
        <ele>81</ele>
        <time>2022-09-15T09:32:15.835Z</time>
      </trkpt>
      <trkpt lat="44.13155" lon="0.47413">
        <ele>81</ele>
        <time>2022-09-15T09:32:16.835Z</time>
      </trkpt>
      <trkpt lat="44.13154" lon="0.47412">
        <ele>81</ele>
        <time>2022-09-15T09:32:17.835Z</time>
      </trkpt>
      <trkpt lat="44.13154" lon="0.4741">
        <ele>80</ele>
        <time>2022-09-15T09:32:18.835Z</time>
      </trkpt>
      <trkpt lat="44.13153" lon="0.47409">
        <ele>80</ele>
        <time>2022-09-15T09:32:19.835Z</time>
      </trkpt>
      <trkpt lat="44.13152" lon="0.47408">
        <ele>80</ele>
        <time>2022-09-15T09:32:20.835Z</time>
      </trkpt>
      <trkpt lat="44.13152" lon="0.47406">
        <ele>80</ele>
        <time>2022-09-15T09:32:21.835Z</time>
      </trkpt>
      <trkpt lat="44.13151" lon="0.47405">
        <ele>80</ele>
        <time>2022-09-15T09:32:22.835Z</time>
      </trkpt>
      <trkpt lat="44.1315" lon="0.47404">
        <ele>80</ele>
        <time>2022-09-15T09:32:23.835Z</time>
      </trkpt>
      <trkpt lat="44.13149" lon="0.47402">
        <ele>80</ele>
        <time>2022-09-15T09:32:24.835Z</time>
      </trkpt>
      <trkpt lat="44.13149" lon="0.47401">
        <ele>80</ele>
        <time>2022-09-15T09:32:25.835Z</time>
      </trkpt>
      <trkpt lat="44.13148" lon="0.474">
        <ele>80</ele>
        <time>2022-09-15T09:32:26.835Z</time>
      </trkpt>
      <trkpt lat="44.13147" lon="0.47399">
        <ele>80</ele>
        <time>2022-09-15T09:32:27.835Z</time>
      </trkpt>
      <trkpt lat="44.13146" lon="0.47398">
        <ele>79</ele>
        <time>2022-09-15T09:32:28.835Z</time>
      </trkpt>
      <trkpt lat="44.13146" lon="0.47396">
        <ele>80</ele>
        <time>2022-09-15T09:32:29.835Z</time>
      </trkpt>
      <trkpt lat="44.13145" lon="0.47395">
        <ele>79</ele>
        <time>2022-09-15T09:32:30.835Z</time>
      </trkpt>
      <trkpt lat="44.13144" lon="0.47393">
        <ele>79</ele>
        <time>2022-09-15T09:32:31.835Z</time>
      </trkpt>
      <trkpt lat="44.13143" lon="0.47392">
        <ele>79</ele>
        <time>2022-09-15T09:32:32.835Z</time>
      </trkpt>
      <trkpt lat="44.13142" lon="0.47391">
        <ele>79</ele>
        <time>2022-09-15T09:32:33.835Z</time>
      </trkpt>
      <trkpt lat="44.13142" lon="0.47389">
        <ele>79</ele>
        <time>2022-09-15T09:32:34.835Z</time>
      </trkpt>
      <trkpt lat="44.13141" lon="0.47388">
        <ele>79</ele>
        <time>2022-09-15T09:32:35.835Z</time>
      </trkpt>
      <trkpt lat="44.1314" lon="0.47386">
        <ele>79</ele>
        <time>2022-09-15T09:32:36.835Z</time>
      </trkpt>
      <trkpt lat="44.1314" lon="0.47385">
        <ele>79</ele>
        <time>2022-09-15T09:32:37.835Z</time>
      </trkpt>
      <trkpt lat="44.13139" lon="0.47384">
        <ele>80</ele>
        <time>2022-09-15T09:32:38.835Z</time>
      </trkpt>
      <trkpt lat="44.13138" lon="0.47382">
        <ele>80</ele>
        <time>2022-09-15T09:32:39.835Z</time>
      </trkpt>
      <trkpt lat="44.13137" lon="0.47381">
        <ele>81</ele>
        <time>2022-09-15T09:32:40.835Z</time>
      </trkpt>
      <trkpt lat="44.13136" lon="0.47379">
        <ele>81</ele>
        <time>2022-09-15T09:32:41.835Z</time>
      </trkpt>
      <trkpt lat="44.13135" lon="0.47378">
        <ele>81</ele>
        <time>2022-09-15T09:32:42.835Z</time>
      </trkpt>
      <trkpt lat="44.13134" lon="0.47377">
        <ele>81</ele>
        <time>2022-09-15T09:32:43.835Z</time>
      </trkpt>
      <trkpt lat="44.13134" lon="0.47375">
        <ele>82</ele>
        <time>2022-09-15T09:32:44.835Z</time>
      </trkpt>
      <trkpt lat="44.13133" lon="0.47374">
        <ele>81</ele>
        <time>2022-09-15T09:32:45.835Z</time>
      </trkpt>
      <trkpt lat="44.13133" lon="0.47372">
        <ele>81</ele>
        <time>2022-09-15T09:32:46.835Z</time>
      </trkpt>
      <trkpt lat="44.13132" lon="0.4737">
        <ele>81</ele>
        <time>2022-09-15T09:32:47.835Z</time>
      </trkpt>
      <trkpt lat="44.13132" lon="0.47369">
        <ele>81</ele>
        <time>2022-09-15T09:32:48.835Z</time>
      </trkpt>
      <trkpt lat="44.13131" lon="0.47367">
        <ele>81</ele>
        <time>2022-09-15T09:32:49.835Z</time>
      </trkpt>
      <trkpt lat="44.13131" lon="0.47366">
        <ele>82</ele>
        <time>2022-09-15T09:32:50.835Z</time>
      </trkpt>
      <trkpt lat="44.1313" lon="0.47365">
        <ele>82</ele>
        <time>2022-09-15T09:32:51.835Z</time>
      </trkpt>
      <trkpt lat="44.1313" lon="0.47364">
        <ele>82</ele>
        <time>2022-09-15T09:32:52.835Z</time>
      </trkpt>
      <trkpt lat="44.13129" lon="0.47362">
        <ele>82</ele>
        <time>2022-09-15T09:32:53.835Z</time>
      </trkpt>
      <trkpt lat="44.13128" lon="0.47361">
        <ele>83</ele>
        <time>2022-09-15T09:32:54.835Z</time>
      </trkpt>
      <trkpt lat="44.13128" lon="0.47359">
        <ele>82</ele>
        <time>2022-09-15T09:32:55.835Z</time>
      </trkpt>
      <trkpt lat="44.13127" lon="0.47358">
        <ele>83</ele>
        <time>2022-09-15T09:32:56.835Z</time>
      </trkpt>
      <trkpt lat="44.13126" lon="0.47357">
        <ele>83</ele>
        <time>2022-09-15T09:32:57.835Z</time>
      </trkpt>
      <trkpt lat="44.13126" lon="0.47355">
        <ele>83</ele>
        <time>2022-09-15T09:32:58.835Z</time>
      </trkpt>
      <trkpt lat="44.13125" lon="0.47354">
        <ele>84</ele>
        <time>2022-09-15T09:32:59.835Z</time>
      </trkpt>
      <trkpt lat="44.13124" lon="0.47353">
        <ele>84</ele>
        <time>2022-09-15T09:33:00.835Z</time>
      </trkpt>
      <trkpt lat="44.13124" lon="0.47351">
        <ele>84</ele>
        <time>2022-09-15T09:33:01.835Z</time>
      </trkpt>
      <trkpt lat="44.13123" lon="0.4735">
        <ele>84</ele>
        <time>2022-09-15T09:33:02.835Z</time>
      </trkpt>
      <trkpt lat="44.13122" lon="0.47348">
        <ele>84</ele>
        <time>2022-09-15T09:33:03.835Z</time>
      </trkpt>
      <trkpt lat="44.13121" lon="0.47347">
        <ele>85</ele>
        <time>2022-09-15T09:33:04.835Z</time>
      </trkpt>
      <trkpt lat="44.13121" lon="0.47345">
        <ele>85</ele>
        <time>2022-09-15T09:33:05.835Z</time>
      </trkpt>
      <trkpt lat="44.1312" lon="0.47344">
        <ele>85</ele>
        <time>2022-09-15T09:33:06.835Z</time>
      </trkpt>
      <trkpt lat="44.13119" lon="0.47343">
        <ele>85</ele>
        <time>2022-09-15T09:33:07.835Z</time>
      </trkpt>
      <trkpt lat="44.13119" lon="0.47342">
        <ele>84</ele>
        <time>2022-09-15T09:33:08.835Z</time>
      </trkpt>
      <trkpt lat="44.13118" lon="0.4734">
        <ele>84</ele>
        <time>2022-09-15T09:33:09.835Z</time>
      </trkpt>
      <trkpt lat="44.13117" lon="0.47339">
        <ele>85</ele>
        <time>2022-09-15T09:33:10.835Z</time>
      </trkpt>
      <trkpt lat="44.13117" lon="0.47338">
        <ele>85</ele>
        <time>2022-09-15T09:33:11.835Z</time>
      </trkpt>
      <trkpt lat="44.13116" lon="0.47336">
        <ele>85</ele>
        <time>2022-09-15T09:33:12.835Z</time>
      </trkpt>
      <trkpt lat="44.13115" lon="0.47335">
        <ele>85</ele>
        <time>2022-09-15T09:33:13.835Z</time>
      </trkpt>
      <trkpt lat="44.13115" lon="0.47334">
        <ele>86</ele>
        <time>2022-09-15T09:33:14.835Z</time>
      </trkpt>
      <trkpt lat="44.13114" lon="0.47333">
        <ele>86</ele>
        <time>2022-09-15T09:33:15.835Z</time>
      </trkpt>
      <trkpt lat="44.13114" lon="0.47332">
        <ele>85</ele>
        <time>2022-09-15T09:33:16.835Z</time>
      </trkpt>
      <trkpt lat="44.13113" lon="0.4733">
        <ele>86</ele>
        <time>2022-09-15T09:33:17.835Z</time>
      </trkpt>
      <trkpt lat="44.13113" lon="0.47329">
        <ele>86</ele>
        <time>2022-09-15T09:33:18.835Z</time>
      </trkpt>
      <trkpt lat="44.13112" lon="0.47328">
        <ele>86</ele>
        <time>2022-09-15T09:33:19.835Z</time>
      </trkpt>
      <trkpt lat="44.13112" lon="0.47326">
        <ele>86</ele>
        <time>2022-09-15T09:33:20.835Z</time>
      </trkpt>
      <trkpt lat="44.13111" lon="0.47325">
        <ele>85</ele>
        <time>2022-09-15T09:33:21.835Z</time>
      </trkpt>
      <trkpt lat="44.13111" lon="0.47324">
        <ele>85</ele>
        <time>2022-09-15T09:33:22.835Z</time>
      </trkpt>
      <trkpt lat="44.1311" lon="0.47323">
        <ele>85</ele>
        <time>2022-09-15T09:33:23.835Z</time>
      </trkpt>
      <trkpt lat="44.1311" lon="0.47322">
        <ele>85</ele>
        <time>2022-09-15T09:33:24.835Z</time>
      </trkpt>
      <trkpt lat="44.13109" lon="0.4732">
        <ele>85</ele>
        <time>2022-09-15T09:33:25.835Z</time>
      </trkpt>
      <trkpt lat="44.13109" lon="0.47318">
        <ele>85</ele>
        <time>2022-09-15T09:33:26.835Z</time>
      </trkpt>
      <trkpt lat="44.13108" lon="0.47317">
        <ele>85</ele>
        <time>2022-09-15T09:33:27.835Z</time>
      </trkpt>
      <trkpt lat="44.13108" lon="0.47315">
        <ele>85</ele>
        <time>2022-09-15T09:33:28.835Z</time>
      </trkpt>
      <trkpt lat="44.13107" lon="0.47314">
        <ele>85</ele>
        <time>2022-09-15T09:33:29.835Z</time>
      </trkpt>
      <trkpt lat="44.13107" lon="0.47313">
        <ele>85</ele>
        <time>2022-09-15T09:33:30.835Z</time>
      </trkpt>
      <trkpt lat="44.13106" lon="0.47311">
        <ele>85</ele>
        <time>2022-09-15T09:33:31.835Z</time>
      </trkpt>
      <trkpt lat="44.13106" lon="0.4731">
        <ele>86</ele>
        <time>2022-09-15T09:33:32.835Z</time>
      </trkpt>
      <trkpt lat="44.13105" lon="0.47308">
        <ele>86</ele>
        <time>2022-09-15T09:33:33.835Z</time>
      </trkpt>
      <trkpt lat="44.13105" lon="0.47306">
        <ele>86</ele>
        <time>2022-09-15T09:33:34.835Z</time>
      </trkpt>
      <trkpt lat="44.13105" lon="0.47305">
        <ele>86</ele>
        <time>2022-09-15T09:33:35.835Z</time>
      </trkpt>
      <trkpt lat="44.13104" lon="0.47303">
        <ele>87</ele>
        <time>2022-09-15T09:33:36.835Z</time>
      </trkpt>
      <trkpt lat="44.13104" lon="0.47302">
        <ele>88</ele>
        <time>2022-09-15T09:33:37.835Z</time>
      </trkpt>
      <trkpt lat="44.13103" lon="0.473">
        <ele>88</ele>
        <time>2022-09-15T09:33:38.835Z</time>
      </trkpt>
      <trkpt lat="44.13102" lon="0.47299">
        <ele>88</ele>
        <time>2022-09-15T09:33:39.835Z</time>
      </trkpt>
      <trkpt lat="44.13102" lon="0.47297">
        <ele>89</ele>
        <time>2022-09-15T09:33:40.835Z</time>
      </trkpt>
      <trkpt lat="44.13102" lon="0.47296">
        <ele>88</ele>
        <time>2022-09-15T09:33:41.835Z</time>
      </trkpt>
      <trkpt lat="44.13101" lon="0.47295">
        <ele>88</ele>
        <time>2022-09-15T09:33:42.835Z</time>
      </trkpt>
      <trkpt lat="44.13101" lon="0.47293">
        <ele>88</ele>
        <time>2022-09-15T09:33:43.835Z</time>
      </trkpt>
      <trkpt lat="44.131" lon="0.47292">
        <ele>89</ele>
        <time>2022-09-15T09:33:44.835Z</time>
      </trkpt>
      <trkpt lat="44.131" lon="0.4729">
        <ele>89</ele>
        <time>2022-09-15T09:33:45.835Z</time>
      </trkpt>
      <trkpt lat="44.13099" lon="0.47289">
        <ele>89</ele>
        <time>2022-09-15T09:33:46.835Z</time>
      </trkpt>
      <trkpt lat="44.13099" lon="0.47288">
        <ele>89</ele>
        <time>2022-09-15T09:33:47.835Z</time>
      </trkpt>
      <trkpt lat="44.13098" lon="0.47287">
        <ele>89</ele>
        <time>2022-09-15T09:33:48.835Z</time>
      </trkpt>
      <trkpt lat="44.13097" lon="0.47285">
        <ele>89</ele>
        <time>2022-09-15T09:33:49.835Z</time>
      </trkpt>
      <trkpt lat="44.13097" lon="0.47284">
        <ele>90</ele>
        <time>2022-09-15T09:33:50.835Z</time>
      </trkpt>
      <trkpt lat="44.13096" lon="0.47283">
        <ele>90</ele>
        <time>2022-09-15T09:33:51.835Z</time>
      </trkpt>
      <trkpt lat="44.13095" lon="0.47281">
        <ele>90</ele>
        <time>2022-09-15T09:33:52.835Z</time>
      </trkpt>
      <trkpt lat="44.13094" lon="0.4728">
        <ele>90</ele>
        <time>2022-09-15T09:33:53.835Z</time>
      </trkpt>
      <trkpt lat="44.13094" lon="0.47279">
        <ele>90</ele>
        <time>2022-09-15T09:33:54.835Z</time>
      </trkpt>
      <trkpt lat="44.13093" lon="0.47277">
        <ele>90</ele>
        <time>2022-09-15T09:33:55.835Z</time>
      </trkpt>
      <trkpt lat="44.13093" lon="0.47276">
        <ele>90</ele>
        <time>2022-09-15T09:33:56.835Z</time>
      </trkpt>
      <trkpt lat="44.13092" lon="0.47274">
        <ele>90</ele>
        <time>2022-09-15T09:33:57.835Z</time>
      </trkpt>
      <trkpt lat="44.13091" lon="0.47273">
        <ele>90</ele>
        <time>2022-09-15T09:33:58.835Z</time>
      </trkpt>
      <trkpt lat="44.13091" lon="0.47271">
        <ele>89</ele>
        <time>2022-09-15T09:33:59.835Z</time>
      </trkpt>
      <trkpt lat="44.1309" lon="0.4727">
        <ele>89</ele>
        <time>2022-09-15T09:34:00.835Z</time>
      </trkpt>
      <trkpt lat="44.1309" lon="0.47268">
        <ele>89</ele>
        <time>2022-09-15T09:34:01.835Z</time>
      </trkpt>
      <trkpt lat="44.13089" lon="0.47267">
        <ele>89</ele>
        <time>2022-09-15T09:34:02.835Z</time>
      </trkpt>
      <trkpt lat="44.13089" lon="0.47265">
        <ele>89</ele>
        <time>2022-09-15T09:34:03.835Z</time>
      </trkpt>
      <trkpt lat="44.13088" lon="0.47264">
        <ele>89</ele>
        <time>2022-09-15T09:34:04.835Z</time>
      </trkpt>
      <trkpt lat="44.13088" lon="0.47262">
        <ele>89</ele>
        <time>2022-09-15T09:34:05.835Z</time>
      </trkpt>
      <trkpt lat="44.13087" lon="0.47261">
        <ele>89</ele>
        <time>2022-09-15T09:34:06.835Z</time>
      </trkpt>
      <trkpt lat="44.13086" lon="0.4726">
        <ele>89</ele>
        <time>2022-09-15T09:34:07.835Z</time>
      </trkpt>
      <trkpt lat="44.13086" lon="0.47258">
        <ele>89</ele>
        <time>2022-09-15T09:34:08.835Z</time>
      </trkpt>
      <trkpt lat="44.13085" lon="0.47256">
        <ele>90</ele>
        <time>2022-09-15T09:34:09.835Z</time>
      </trkpt>
      <trkpt lat="44.13085" lon="0.47254">
        <ele>90</ele>
        <time>2022-09-15T09:34:10.835Z</time>
      </trkpt>
      <trkpt lat="44.13084" lon="0.47253">
        <ele>90</ele>
        <time>2022-09-15T09:34:11.835Z</time>
      </trkpt>
      <trkpt lat="44.13083" lon="0.47251">
        <ele>90</ele>
        <time>2022-09-15T09:34:12.835Z</time>
      </trkpt>
      <trkpt lat="44.13083" lon="0.47249">
        <ele>90</ele>
        <time>2022-09-15T09:34:13.835Z</time>
      </trkpt>
      <trkpt lat="44.13082" lon="0.47248">
        <ele>90</ele>
        <time>2022-09-15T09:34:14.835Z</time>
      </trkpt>
      <trkpt lat="44.13081" lon="0.47246">
        <ele>90</ele>
        <time>2022-09-15T09:34:15.835Z</time>
      </trkpt>
      <trkpt lat="44.1308" lon="0.47245">
        <ele>90</ele>
        <time>2022-09-15T09:34:16.835Z</time>
      </trkpt>
      <trkpt lat="44.1308" lon="0.47243">
        <ele>90</ele>
        <time>2022-09-15T09:34:17.835Z</time>
      </trkpt>
      <trkpt lat="44.13079" lon="0.47242">
        <ele>90</ele>
        <time>2022-09-15T09:34:18.835Z</time>
      </trkpt>
      <trkpt lat="44.13078" lon="0.4724">
        <ele>89</ele>
        <time>2022-09-15T09:34:19.835Z</time>
      </trkpt>
      <trkpt lat="44.13078" lon="0.47239">
        <ele>90</ele>
        <time>2022-09-15T09:34:20.835Z</time>
      </trkpt>
      <trkpt lat="44.13077" lon="0.47237">
        <ele>89</ele>
        <time>2022-09-15T09:34:21.835Z</time>
      </trkpt>
      <trkpt lat="44.13076" lon="0.47236">
        <ele>90</ele>
        <time>2022-09-15T09:34:22.835Z</time>
      </trkpt>
      <trkpt lat="44.13076" lon="0.47234">
        <ele>90</ele>
        <time>2022-09-15T09:34:23.835Z</time>
      </trkpt>
      <trkpt lat="44.13075" lon="0.47233">
        <ele>89</ele>
        <time>2022-09-15T09:34:24.835Z</time>
      </trkpt>
      <trkpt lat="44.13075" lon="0.47231">
        <ele>89</ele>
        <time>2022-09-15T09:34:25.835Z</time>
      </trkpt>
      <trkpt lat="44.13074" lon="0.4723">
        <ele>89</ele>
        <time>2022-09-15T09:34:26.835Z</time>
      </trkpt>
      <trkpt lat="44.13073" lon="0.47229">
        <ele>88</ele>
        <time>2022-09-15T09:34:27.835Z</time>
      </trkpt>
      <trkpt lat="44.13073" lon="0.47227">
        <ele>88</ele>
        <time>2022-09-15T09:34:28.835Z</time>
      </trkpt>
      <trkpt lat="44.13072" lon="0.47225">
        <ele>88</ele>
        <time>2022-09-15T09:34:29.835Z</time>
      </trkpt>
      <trkpt lat="44.13072" lon="0.47224">
        <ele>89</ele>
        <time>2022-09-15T09:34:30.835Z</time>
      </trkpt>
      <trkpt lat="44.13071" lon="0.47223">
        <ele>89</ele>
        <time>2022-09-15T09:34:31.835Z</time>
      </trkpt>
      <trkpt lat="44.1307" lon="0.47222">
        <ele>89</ele>
        <time>2022-09-15T09:34:32.835Z</time>
      </trkpt>
      <trkpt lat="44.13069" lon="0.47221">
        <ele>89</ele>
        <time>2022-09-15T09:34:33.835Z</time>
      </trkpt>
      <trkpt lat="44.13069" lon="0.47219">
        <ele>89</ele>
        <time>2022-09-15T09:34:34.835Z</time>
      </trkpt>
      <trkpt lat="44.13068" lon="0.47218">
        <ele>88</ele>
        <time>2022-09-15T09:34:35.835Z</time>
      </trkpt>
      <trkpt lat="44.13068" lon="0.47217">
        <ele>89</ele>
        <time>2022-09-15T09:34:36.835Z</time>
      </trkpt>
      <trkpt lat="44.13067" lon="0.47216">
        <ele>90</ele>
        <time>2022-09-15T09:34:37.835Z</time>
      </trkpt>
      <trkpt lat="44.13066" lon="0.47214">
        <ele>89</ele>
        <time>2022-09-15T09:34:38.835Z</time>
      </trkpt>
      <trkpt lat="44.13065" lon="0.47212">
        <ele>89</ele>
        <time>2022-09-15T09:34:39.835Z</time>
      </trkpt>
      <trkpt lat="44.13065" lon="0.47211">
        <ele>89</ele>
        <time>2022-09-15T09:34:40.835Z</time>
      </trkpt>
      <trkpt lat="44.13064" lon="0.4721">
        <ele>89</ele>
        <time>2022-09-15T09:34:41.835Z</time>
      </trkpt>
      <trkpt lat="44.13063" lon="0.47209">
        <ele>90</ele>
        <time>2022-09-15T09:34:42.835Z</time>
      </trkpt>
      <trkpt lat="44.13063" lon="0.47208">
        <ele>90</ele>
        <time>2022-09-15T09:34:43.835Z</time>
      </trkpt>
      <trkpt lat="44.13062" lon="0.47207">
        <ele>90</ele>
        <time>2022-09-15T09:34:44.835Z</time>
      </trkpt>
      <trkpt lat="44.13061" lon="0.47206">
        <ele>90</ele>
        <time>2022-09-15T09:34:45.835Z</time>
      </trkpt>
      <trkpt lat="44.1306" lon="0.47205">
        <ele>90</ele>
        <time>2022-09-15T09:34:46.835Z</time>
      </trkpt>
      <trkpt lat="44.13059" lon="0.47203">
        <ele>90</ele>
        <time>2022-09-15T09:34:47.835Z</time>
      </trkpt>
      <trkpt lat="44.13058" lon="0.47202">
        <ele>90</ele>
        <time>2022-09-15T09:34:48.835Z</time>
      </trkpt>
      <trkpt lat="44.13057" lon="0.47201">
        <ele>90</ele>
        <time>2022-09-15T09:34:49.835Z</time>
      </trkpt>
      <trkpt lat="44.13056" lon="0.472">
        <ele>89</ele>
        <time>2022-09-15T09:34:50.835Z</time>
      </trkpt>
      <trkpt lat="44.13055" lon="0.47198">
        <ele>89</ele>
        <time>2022-09-15T09:34:51.835Z</time>
      </trkpt>
      <trkpt lat="44.13054" lon="0.47197">
        <ele>89</ele>
        <time>2022-09-15T09:34:52.835Z</time>
      </trkpt>
      <trkpt lat="44.13053" lon="0.47196">
        <ele>89</ele>
        <time>2022-09-15T09:34:53.835Z</time>
      </trkpt>
      <trkpt lat="44.13053" lon="0.47196">
        <ele>89</ele>
        <time>2022-09-15T09:34:54.835Z</time>
      </trkpt>
      <trkpt lat="44.13052" lon="0.47195">
        <ele>89</ele>
        <time>2022-09-15T09:34:55.835Z</time>
      </trkpt>
      <trkpt lat="44.13051" lon="0.47193">
        <ele>89</ele>
        <time>2022-09-15T09:34:56.835Z</time>
      </trkpt>
      <trkpt lat="44.13051" lon="0.47192">
        <ele>89</ele>
        <time>2022-09-15T09:34:57.835Z</time>
      </trkpt>
      <trkpt lat="44.1305" lon="0.47191">
        <ele>89</ele>
        <time>2022-09-15T09:34:58.835Z</time>
      </trkpt>
      <trkpt lat="44.1305" lon="0.4719">
        <ele>89</ele>
        <time>2022-09-15T09:34:59.835Z</time>
      </trkpt>
      <trkpt lat="44.13049" lon="0.47189">
        <ele>89</ele>
        <time>2022-09-15T09:35:00.835Z</time>
      </trkpt>
      <trkpt lat="44.13048" lon="0.47187">
        <ele>88</ele>
        <time>2022-09-15T09:35:01.835Z</time>
      </trkpt>
      <trkpt lat="44.13048" lon="0.47186">
        <ele>88</ele>
        <time>2022-09-15T09:35:02.835Z</time>
      </trkpt>
      <trkpt lat="44.13047" lon="0.47185">
        <ele>88</ele>
        <time>2022-09-15T09:35:03.835Z</time>
      </trkpt>
      <trkpt lat="44.13047" lon="0.47183">
        <ele>87</ele>
        <time>2022-09-15T09:35:04.835Z</time>
      </trkpt>
      <trkpt lat="44.13047" lon="0.47182">
        <ele>87</ele>
        <time>2022-09-15T09:35:05.835Z</time>
      </trkpt>
      <trkpt lat="44.13046" lon="0.47181">
        <ele>87</ele>
        <time>2022-09-15T09:35:06.835Z</time>
      </trkpt>
      <trkpt lat="44.13046" lon="0.4718">
        <ele>87</ele>
        <time>2022-09-15T09:35:07.835Z</time>
      </trkpt>
      <trkpt lat="44.13045" lon="0.47179">
        <ele>87</ele>
        <time>2022-09-15T09:35:08.835Z</time>
      </trkpt>
      <trkpt lat="44.13044" lon="0.47178">
        <ele>87</ele>
        <time>2022-09-15T09:35:09.835Z</time>
      </trkpt>
      <trkpt lat="44.13044" lon="0.47177">
        <ele>87</ele>
        <time>2022-09-15T09:35:10.835Z</time>
      </trkpt>
      <trkpt lat="44.13043" lon="0.47176">
        <ele>87</ele>
        <time>2022-09-15T09:35:11.835Z</time>
      </trkpt>
      <trkpt lat="44.13042" lon="0.47175">
        <ele>87</ele>
        <time>2022-09-15T09:35:12.835Z</time>
      </trkpt>
      <trkpt lat="44.13042" lon="0.47174">
        <ele>87</ele>
        <time>2022-09-15T09:35:13.835Z</time>
      </trkpt>
      <trkpt lat="44.13041" lon="0.47173">
        <ele>87</ele>
        <time>2022-09-15T09:35:14.835Z</time>
      </trkpt>
      <trkpt lat="44.1304" lon="0.47173">
        <ele>87</ele>
        <time>2022-09-15T09:35:15.835Z</time>
      </trkpt>
      <trkpt lat="44.1304" lon="0.47172">
        <ele>86</ele>
        <time>2022-09-15T09:35:16.835Z</time>
      </trkpt>
      <trkpt lat="44.13039" lon="0.47171">
        <ele>87</ele>
        <time>2022-09-15T09:35:17.835Z</time>
      </trkpt>
      <trkpt lat="44.13039" lon="0.47169">
        <ele>86</ele>
        <time>2022-09-15T09:35:18.835Z</time>
      </trkpt>
      <trkpt lat="44.13038" lon="0.47168">
        <ele>86</ele>
        <time>2022-09-15T09:35:19.835Z</time>
      </trkpt>
      <trkpt lat="44.13037" lon="0.47167">
        <ele>87</ele>
        <time>2022-09-15T09:35:20.835Z</time>
      </trkpt>
      <trkpt lat="44.13036" lon="0.47167">
        <ele>87</ele>
        <time>2022-09-15T09:35:21.835Z</time>
      </trkpt>
      <trkpt lat="44.13035" lon="0.47166">
        <ele>87</ele>
        <time>2022-09-15T09:35:22.835Z</time>
      </trkpt>
      <trkpt lat="44.13034" lon="0.47165">
        <ele>87</ele>
        <time>2022-09-15T09:35:23.835Z</time>
      </trkpt>
      <trkpt lat="44.13034" lon="0.47164">
        <ele>87</ele>
        <time>2022-09-15T09:35:24.835Z</time>
      </trkpt>
      <trkpt lat="44.13033" lon="0.47163">
        <ele>86</ele>
        <time>2022-09-15T09:35:25.835Z</time>
      </trkpt>
      <trkpt lat="44.13032" lon="0.47161">
        <ele>86</ele>
        <time>2022-09-15T09:35:26.835Z</time>
      </trkpt>
      <trkpt lat="44.13032" lon="0.4716">
        <ele>87</ele>
        <time>2022-09-15T09:35:27.835Z</time>
      </trkpt>
      <trkpt lat="44.13031" lon="0.47158">
        <ele>88</ele>
        <time>2022-09-15T09:35:28.835Z</time>
      </trkpt>
      <trkpt lat="44.1303" lon="0.47156">
        <ele>87</ele>
        <time>2022-09-15T09:35:29.835Z</time>
      </trkpt>
      <trkpt lat="44.1303" lon="0.47154">
        <ele>87</ele>
        <time>2022-09-15T09:35:30.835Z</time>
      </trkpt>
      <trkpt lat="44.13029" lon="0.47153">
        <ele>87</ele>
        <time>2022-09-15T09:35:31.835Z</time>
      </trkpt>
      <trkpt lat="44.13029" lon="0.47151">
        <ele>87</ele>
        <time>2022-09-15T09:35:32.835Z</time>
      </trkpt>
      <trkpt lat="44.13029" lon="0.4715">
        <ele>88</ele>
        <time>2022-09-15T09:35:33.835Z</time>
      </trkpt>
      <trkpt lat="44.13028" lon="0.47148">
        <ele>87</ele>
        <time>2022-09-15T09:35:34.835Z</time>
      </trkpt>
      <trkpt lat="44.13028" lon="0.47147">
        <ele>87</ele>
        <time>2022-09-15T09:35:35.835Z</time>
      </trkpt>
      <trkpt lat="44.13028" lon="0.47145">
        <ele>87</ele>
        <time>2022-09-15T09:35:36.835Z</time>
      </trkpt>
      <trkpt lat="44.13027" lon="0.47144">
        <ele>87</ele>
        <time>2022-09-15T09:35:37.835Z</time>
      </trkpt>
      <trkpt lat="44.13027" lon="0.47142">
        <ele>87</ele>
        <time>2022-09-15T09:35:38.835Z</time>
      </trkpt>
      <trkpt lat="44.13027" lon="0.47141">
        <ele>87</ele>
        <time>2022-09-15T09:35:39.835Z</time>
      </trkpt>
      <trkpt lat="44.13027" lon="0.4714">
        <ele>86</ele>
        <time>2022-09-15T09:35:40.835Z</time>
      </trkpt>
      <trkpt lat="44.13026" lon="0.47138">
        <ele>86</ele>
        <time>2022-09-15T09:35:41.835Z</time>
      </trkpt>
      <trkpt lat="44.13026" lon="0.47137">
        <ele>86</ele>
        <time>2022-09-15T09:35:42.835Z</time>
      </trkpt>
      <trkpt lat="44.13026" lon="0.47135">
        <ele>86</ele>
        <time>2022-09-15T09:35:43.835Z</time>
      </trkpt>
      <trkpt lat="44.13026" lon="0.47134">
        <ele>85</ele>
        <time>2022-09-15T09:35:44.835Z</time>
      </trkpt>
      <trkpt lat="44.13025" lon="0.47133">
        <ele>86</ele>
        <time>2022-09-15T09:35:45.835Z</time>
      </trkpt>
      <trkpt lat="44.13025" lon="0.47132">
        <ele>86</ele>
        <time>2022-09-15T09:35:46.835Z</time>
      </trkpt>
      <trkpt lat="44.13025" lon="0.4713">
        <ele>85</ele>
        <time>2022-09-15T09:35:47.835Z</time>
      </trkpt>
      <trkpt lat="44.13025" lon="0.47129">
        <ele>85</ele>
        <time>2022-09-15T09:35:48.835Z</time>
      </trkpt>
      <trkpt lat="44.13024" lon="0.47127">
        <ele>85</ele>
        <time>2022-09-15T09:35:49.835Z</time>
      </trkpt>
      <trkpt lat="44.13024" lon="0.47126">
        <ele>85</ele>
        <time>2022-09-15T09:35:50.835Z</time>
      </trkpt>
      <trkpt lat="44.13024" lon="0.47125">
        <ele>85</ele>
        <time>2022-09-15T09:35:51.835Z</time>
      </trkpt>
      <trkpt lat="44.13024" lon="0.47124">
        <ele>85</ele>
        <time>2022-09-15T09:35:52.835Z</time>
      </trkpt>
      <trkpt lat="44.13023" lon="0.47122">
        <ele>85</ele>
        <time>2022-09-15T09:35:53.835Z</time>
      </trkpt>
      <trkpt lat="44.13023" lon="0.47121">
        <ele>85</ele>
        <time>2022-09-15T09:35:54.835Z</time>
      </trkpt>
      <trkpt lat="44.13022" lon="0.47119">
        <ele>85</ele>
        <time>2022-09-15T09:35:55.835Z</time>
      </trkpt>
      <trkpt lat="44.13022" lon="0.47118">
        <ele>85</ele>
        <time>2022-09-15T09:35:56.835Z</time>
      </trkpt>
      <trkpt lat="44.13021" lon="0.47116">
        <ele>86</ele>
        <time>2022-09-15T09:35:57.835Z</time>
      </trkpt>
      <trkpt lat="44.1302" lon="0.47114">
        <ele>86</ele>
        <time>2022-09-15T09:35:58.835Z</time>
      </trkpt>
      <trkpt lat="44.1302" lon="0.47112">
        <ele>86</ele>
        <time>2022-09-15T09:35:59.835Z</time>
      </trkpt>
      <trkpt lat="44.13019" lon="0.47111">
        <ele>86</ele>
        <time>2022-09-15T09:36:00.835Z</time>
      </trkpt>
      <trkpt lat="44.13019" lon="0.47109">
        <ele>87</ele>
        <time>2022-09-15T09:36:01.835Z</time>
      </trkpt>
      <trkpt lat="44.13018" lon="0.47108">
        <ele>87</ele>
        <time>2022-09-15T09:36:02.835Z</time>
      </trkpt>
      <trkpt lat="44.13018" lon="0.47107">
        <ele>87</ele>
        <time>2022-09-15T09:36:03.835Z</time>
      </trkpt>
      <trkpt lat="44.13017" lon="0.47106">
        <ele>88</ele>
        <time>2022-09-15T09:36:04.835Z</time>
      </trkpt>
      <trkpt lat="44.13017" lon="0.47104">
        <ele>89</ele>
        <time>2022-09-15T09:36:05.835Z</time>
      </trkpt>
      <trkpt lat="44.13016" lon="0.47103">
        <ele>89</ele>
        <time>2022-09-15T09:36:06.835Z</time>
      </trkpt>
      <trkpt lat="44.13016" lon="0.47101">
        <ele>89</ele>
        <time>2022-09-15T09:36:07.835Z</time>
      </trkpt>
      <trkpt lat="44.13015" lon="0.471">
        <ele>89</ele>
        <time>2022-09-15T09:36:08.835Z</time>
      </trkpt>
      <trkpt lat="44.13015" lon="0.47099">
        <ele>90</ele>
        <time>2022-09-15T09:36:09.835Z</time>
      </trkpt>
      <trkpt lat="44.13014" lon="0.47097">
        <ele>89</ele>
        <time>2022-09-15T09:36:10.835Z</time>
      </trkpt>
      <trkpt lat="44.13014" lon="0.47096">
        <ele>90</ele>
        <time>2022-09-15T09:36:11.835Z</time>
      </trkpt>
      <trkpt lat="44.13014" lon="0.47094">
        <ele>90</ele>
        <time>2022-09-15T09:36:12.835Z</time>
      </trkpt>
      <trkpt lat="44.13013" lon="0.47092">
        <ele>90</ele>
        <time>2022-09-15T09:36:13.835Z</time>
      </trkpt>
      <trkpt lat="44.13013" lon="0.4709">
        <ele>90</ele>
        <time>2022-09-15T09:36:14.835Z</time>
      </trkpt>
      <trkpt lat="44.13012" lon="0.47089">
        <ele>90</ele>
        <time>2022-09-15T09:36:15.835Z</time>
      </trkpt>
      <trkpt lat="44.13012" lon="0.47087">
        <ele>90</ele>
        <time>2022-09-15T09:36:16.835Z</time>
      </trkpt>
      <trkpt lat="44.13011" lon="0.47086">
        <ele>90</ele>
        <time>2022-09-15T09:36:17.835Z</time>
      </trkpt>
      <trkpt lat="44.1301" lon="0.47085">
        <ele>90</ele>
        <time>2022-09-15T09:36:18.835Z</time>
      </trkpt>
      <trkpt lat="44.1301" lon="0.47083">
        <ele>90</ele>
        <time>2022-09-15T09:36:19.835Z</time>
      </trkpt>
      <trkpt lat="44.1301" lon="0.47082">
        <ele>90</ele>
        <time>2022-09-15T09:36:20.835Z</time>
      </trkpt>
      <trkpt lat="44.13009" lon="0.4708">
        <ele>90</ele>
        <time>2022-09-15T09:36:21.835Z</time>
      </trkpt>
      <trkpt lat="44.13009" lon="0.47078">
        <ele>90</ele>
        <time>2022-09-15T09:36:22.835Z</time>
      </trkpt>
      <trkpt lat="44.13009" lon="0.47077">
        <ele>89</ele>
        <time>2022-09-15T09:36:23.835Z</time>
      </trkpt>
      <trkpt lat="44.13009" lon="0.47075">
        <ele>89</ele>
        <time>2022-09-15T09:36:24.835Z</time>
      </trkpt>
      <trkpt lat="44.13009" lon="0.47074">
        <ele>89</ele>
        <time>2022-09-15T09:36:25.835Z</time>
      </trkpt>
      <trkpt lat="44.13009" lon="0.47072">
        <ele>89</ele>
        <time>2022-09-15T09:36:26.835Z</time>
      </trkpt>
      <trkpt lat="44.13008" lon="0.4707">
        <ele>89</ele>
        <time>2022-09-15T09:36:27.835Z</time>
      </trkpt>
      <trkpt lat="44.13008" lon="0.47068">
        <ele>89</ele>
        <time>2022-09-15T09:36:28.835Z</time>
      </trkpt>
      <trkpt lat="44.13008" lon="0.47066">
        <ele>89</ele>
        <time>2022-09-15T09:36:29.835Z</time>
      </trkpt>
      <trkpt lat="44.13008" lon="0.47065">
        <ele>89</ele>
        <time>2022-09-15T09:36:30.835Z</time>
      </trkpt>
      <trkpt lat="44.13008" lon="0.47064">
        <ele>89</ele>
        <time>2022-09-15T09:36:31.835Z</time>
      </trkpt>
      <trkpt lat="44.13008" lon="0.47062">
        <ele>90</ele>
        <time>2022-09-15T09:36:32.835Z</time>
      </trkpt>
      <trkpt lat="44.13007" lon="0.47061">
        <ele>90</ele>
        <time>2022-09-15T09:36:33.835Z</time>
      </trkpt>
      <trkpt lat="44.13007" lon="0.47059">
        <ele>90</ele>
        <time>2022-09-15T09:36:34.835Z</time>
      </trkpt>
      <trkpt lat="44.13007" lon="0.47058">
        <ele>90</ele>
        <time>2022-09-15T09:36:35.835Z</time>
      </trkpt>
      <trkpt lat="44.13007" lon="0.47056">
        <ele>90</ele>
        <time>2022-09-15T09:36:36.835Z</time>
      </trkpt>
      <trkpt lat="44.13006" lon="0.47055">
        <ele>91</ele>
        <time>2022-09-15T09:36:37.835Z</time>
      </trkpt>
      <trkpt lat="44.13006" lon="0.47053">
        <ele>91</ele>
        <time>2022-09-15T09:36:38.835Z</time>
      </trkpt>
      <trkpt lat="44.13006" lon="0.47052">
        <ele>91</ele>
        <time>2022-09-15T09:36:39.835Z</time>
      </trkpt>
      <trkpt lat="44.13006" lon="0.47051">
        <ele>90</ele>
        <time>2022-09-15T09:36:40.835Z</time>
      </trkpt>
      <trkpt lat="44.13006" lon="0.47049">
        <ele>90</ele>
        <time>2022-09-15T09:36:41.835Z</time>
      </trkpt>
      <trkpt lat="44.13005" lon="0.47047">
        <ele>90</ele>
        <time>2022-09-15T09:36:42.835Z</time>
      </trkpt>
      <trkpt lat="44.13005" lon="0.47044">
        <ele>90</ele>
        <time>2022-09-15T09:36:43.835Z</time>
      </trkpt>
      <trkpt lat="44.13005" lon="0.47043">
        <ele>90</ele>
        <time>2022-09-15T09:36:44.835Z</time>
      </trkpt>
      <trkpt lat="44.13005" lon="0.47041">
        <ele>89</ele>
        <time>2022-09-15T09:36:45.835Z</time>
      </trkpt>
      <trkpt lat="44.13005" lon="0.47039">
        <ele>89</ele>
        <time>2022-09-15T09:36:46.835Z</time>
      </trkpt>
      <trkpt lat="44.13004" lon="0.47038">
        <ele>88</ele>
        <time>2022-09-15T09:36:47.835Z</time>
      </trkpt>
      <trkpt lat="44.13004" lon="0.47037">
        <ele>88</ele>
        <time>2022-09-15T09:36:48.835Z</time>
      </trkpt>
      <trkpt lat="44.13004" lon="0.47036">
        <ele>89</ele>
        <time>2022-09-15T09:36:49.835Z</time>
      </trkpt>
      <trkpt lat="44.13004" lon="0.47035">
        <ele>88</ele>
        <time>2022-09-15T09:36:50.835Z</time>
      </trkpt>
      <trkpt lat="44.13003" lon="0.47034">
        <ele>88</ele>
        <time>2022-09-15T09:36:51.835Z</time>
      </trkpt>
      <trkpt lat="44.13003" lon="0.47033">
        <ele>88</ele>
        <time>2022-09-15T09:36:52.835Z</time>
      </trkpt>
      <trkpt lat="44.13003" lon="0.47031">
        <ele>88</ele>
        <time>2022-09-15T09:36:53.835Z</time>
      </trkpt>
      <trkpt lat="44.13003" lon="0.47029">
        <ele>89</ele>
        <time>2022-09-15T09:36:54.835Z</time>
      </trkpt>
      <trkpt lat="44.13003" lon="0.47028">
        <ele>89</ele>
        <time>2022-09-15T09:36:55.835Z</time>
      </trkpt>
      <trkpt lat="44.13003" lon="0.47026">
        <ele>89</ele>
        <time>2022-09-15T09:36:56.835Z</time>
      </trkpt>
      <trkpt lat="44.13002" lon="0.47024">
        <ele>88</ele>
        <time>2022-09-15T09:36:57.835Z</time>
      </trkpt>
      <trkpt lat="44.13002" lon="0.47023">
        <ele>88</ele>
        <time>2022-09-15T09:36:58.835Z</time>
      </trkpt>
      <trkpt lat="44.13002" lon="0.47021">
        <ele>88</ele>
        <time>2022-09-15T09:36:59.835Z</time>
      </trkpt>
      <trkpt lat="44.13001" lon="0.4702">
        <ele>88</ele>
        <time>2022-09-15T09:37:00.835Z</time>
      </trkpt>
      <trkpt lat="44.13001" lon="0.47019">
        <ele>89</ele>
        <time>2022-09-15T09:37:01.835Z</time>
      </trkpt>
      <trkpt lat="44.13001" lon="0.47017">
        <ele>89</ele>
        <time>2022-09-15T09:37:02.835Z</time>
      </trkpt>
      <trkpt lat="44.13001" lon="0.47015">
        <ele>88</ele>
        <time>2022-09-15T09:37:03.835Z</time>
      </trkpt>
      <trkpt lat="44.13001" lon="0.47013">
        <ele>88</ele>
        <time>2022-09-15T09:37:04.835Z</time>
      </trkpt>
      <trkpt lat="44.13" lon="0.47011">
        <ele>88</ele>
        <time>2022-09-15T09:37:05.835Z</time>
      </trkpt>
      <trkpt lat="44.13" lon="0.4701">
        <ele>88</ele>
        <time>2022-09-15T09:37:06.835Z</time>
      </trkpt>
      <trkpt lat="44.13" lon="0.47009">
        <ele>87</ele>
        <time>2022-09-15T09:37:07.835Z</time>
      </trkpt>
      <trkpt lat="44.13" lon="0.47008">
        <ele>87</ele>
        <time>2022-09-15T09:37:08.835Z</time>
      </trkpt>
      <trkpt lat="44.12999" lon="0.47006">
        <ele>87</ele>
        <time>2022-09-15T09:37:09.835Z</time>
      </trkpt>
      <trkpt lat="44.12999" lon="0.47004">
        <ele>87</ele>
        <time>2022-09-15T09:37:10.835Z</time>
      </trkpt>
      <trkpt lat="44.12999" lon="0.47003">
        <ele>87</ele>
        <time>2022-09-15T09:37:11.835Z</time>
      </trkpt>
      <trkpt lat="44.12998" lon="0.47001">
        <ele>86</ele>
        <time>2022-09-15T09:37:12.835Z</time>
      </trkpt>
      <trkpt lat="44.12998" lon="0.46999">
        <ele>86</ele>
        <time>2022-09-15T09:37:13.835Z</time>
      </trkpt>
      <trkpt lat="44.12998" lon="0.46997">
        <ele>86</ele>
        <time>2022-09-15T09:37:14.835Z</time>
      </trkpt>
      <trkpt lat="44.12997" lon="0.46996">
        <ele>85</ele>
        <time>2022-09-15T09:37:15.835Z</time>
      </trkpt>
      <trkpt lat="44.12997" lon="0.46995">
        <ele>85</ele>
        <time>2022-09-15T09:37:16.835Z</time>
      </trkpt>
      <trkpt lat="44.12997" lon="0.46993">
        <ele>85</ele>
        <time>2022-09-15T09:37:17.835Z</time>
      </trkpt>
      <trkpt lat="44.12997" lon="0.46992">
        <ele>85</ele>
        <time>2022-09-15T09:37:18.835Z</time>
      </trkpt>
      <trkpt lat="44.12996" lon="0.46991">
        <ele>84</ele>
        <time>2022-09-15T09:37:19.835Z</time>
      </trkpt>
      <trkpt lat="44.12996" lon="0.4699">
        <ele>84</ele>
        <time>2022-09-15T09:37:20.835Z</time>
      </trkpt>
      <trkpt lat="44.12996" lon="0.46988">
        <ele>85</ele>
        <time>2022-09-15T09:37:21.835Z</time>
      </trkpt>
      <trkpt lat="44.12995" lon="0.46987">
        <ele>86</ele>
        <time>2022-09-15T09:37:22.835Z</time>
      </trkpt>
      <trkpt lat="44.12995" lon="0.46985">
        <ele>86</ele>
        <time>2022-09-15T09:37:23.835Z</time>
      </trkpt>
      <trkpt lat="44.12994" lon="0.46984">
        <ele>86</ele>
        <time>2022-09-15T09:37:24.835Z</time>
      </trkpt>
      <trkpt lat="44.12993" lon="0.46982">
        <ele>85</ele>
        <time>2022-09-15T09:37:25.835Z</time>
      </trkpt>
      <trkpt lat="44.12993" lon="0.46981">
        <ele>85</ele>
        <time>2022-09-15T09:37:26.835Z</time>
      </trkpt>
      <trkpt lat="44.12993" lon="0.46979">
        <ele>85</ele>
        <time>2022-09-15T09:37:27.835Z</time>
      </trkpt>
      <trkpt lat="44.12993" lon="0.46977">
        <ele>85</ele>
        <time>2022-09-15T09:37:28.835Z</time>
      </trkpt>
      <trkpt lat="44.12993" lon="0.46976">
        <ele>85</ele>
        <time>2022-09-15T09:37:29.835Z</time>
      </trkpt>
      <trkpt lat="44.12992" lon="0.46974">
        <ele>85</ele>
        <time>2022-09-15T09:37:30.835Z</time>
      </trkpt>
      <trkpt lat="44.12992" lon="0.46973">
        <ele>85</ele>
        <time>2022-09-15T09:37:31.835Z</time>
      </trkpt>
      <trkpt lat="44.12992" lon="0.46971">
        <ele>85</ele>
        <time>2022-09-15T09:37:32.835Z</time>
      </trkpt>
      <trkpt lat="44.12991" lon="0.4697">
        <ele>85</ele>
        <time>2022-09-15T09:37:33.835Z</time>
      </trkpt>
      <trkpt lat="44.12991" lon="0.46969">
        <ele>86</ele>
        <time>2022-09-15T09:37:34.835Z</time>
      </trkpt>
      <trkpt lat="44.12991" lon="0.46967">
        <ele>86</ele>
        <time>2022-09-15T09:37:35.835Z</time>
      </trkpt>
      <trkpt lat="44.1299" lon="0.46966">
        <ele>86</ele>
        <time>2022-09-15T09:37:36.835Z</time>
      </trkpt>
      <trkpt lat="44.12989" lon="0.46965">
        <ele>85</ele>
        <time>2022-09-15T09:37:37.835Z</time>
      </trkpt>
      <trkpt lat="44.12989" lon="0.46963">
        <ele>85</ele>
        <time>2022-09-15T09:37:38.835Z</time>
      </trkpt>
      <trkpt lat="44.12989" lon="0.46962">
        <ele>85</ele>
        <time>2022-09-15T09:37:39.835Z</time>
      </trkpt>
      <trkpt lat="44.12988" lon="0.4696">
        <ele>85</ele>
        <time>2022-09-15T09:37:40.835Z</time>
      </trkpt>
      <trkpt lat="44.12987" lon="0.46959">
        <ele>85</ele>
        <time>2022-09-15T09:37:41.835Z</time>
      </trkpt>
      <trkpt lat="44.12987" lon="0.46958">
        <ele>85</ele>
        <time>2022-09-15T09:37:42.835Z</time>
      </trkpt>
      <trkpt lat="44.12987" lon="0.46956">
        <ele>84</ele>
        <time>2022-09-15T09:37:43.835Z</time>
      </trkpt>
      <trkpt lat="44.12986" lon="0.46955">
        <ele>84</ele>
        <time>2022-09-15T09:37:44.835Z</time>
      </trkpt>
      <trkpt lat="44.12986" lon="0.46954">
        <ele>84</ele>
        <time>2022-09-15T09:37:45.835Z</time>
      </trkpt>
      <trkpt lat="44.12985" lon="0.46952">
        <ele>84</ele>
        <time>2022-09-15T09:37:46.835Z</time>
      </trkpt>
      <trkpt lat="44.12985" lon="0.46951">
        <ele>83</ele>
        <time>2022-09-15T09:37:47.835Z</time>
      </trkpt>
      <trkpt lat="44.12984" lon="0.4695">
        <ele>83</ele>
        <time>2022-09-15T09:37:48.835Z</time>
      </trkpt>
      <trkpt lat="44.12984" lon="0.46948">
        <ele>83</ele>
        <time>2022-09-15T09:37:49.835Z</time>
      </trkpt>
      <trkpt lat="44.12983" lon="0.46946">
        <ele>82</ele>
        <time>2022-09-15T09:37:50.835Z</time>
      </trkpt>
      <trkpt lat="44.12983" lon="0.46944">
        <ele>81</ele>
        <time>2022-09-15T09:37:51.835Z</time>
      </trkpt>
      <trkpt lat="44.12983" lon="0.46942">
        <ele>81</ele>
        <time>2022-09-15T09:37:52.835Z</time>
      </trkpt>
      <trkpt lat="44.12982" lon="0.4694">
        <ele>81</ele>
        <time>2022-09-15T09:37:53.835Z</time>
      </trkpt>
      <trkpt lat="44.12982" lon="0.46938">
        <ele>81</ele>
        <time>2022-09-15T09:37:54.835Z</time>
      </trkpt>
      <trkpt lat="44.12981" lon="0.46937">
        <ele>81</ele>
        <time>2022-09-15T09:37:55.835Z</time>
      </trkpt>
      <trkpt lat="44.12981" lon="0.46935">
        <ele>80</ele>
        <time>2022-09-15T09:37:56.835Z</time>
      </trkpt>
      <trkpt lat="44.1298" lon="0.46934">
        <ele>80</ele>
        <time>2022-09-15T09:37:57.835Z</time>
      </trkpt>
      <trkpt lat="44.1298" lon="0.46932">
        <ele>80</ele>
        <time>2022-09-15T09:37:58.835Z</time>
      </trkpt>
      <trkpt lat="44.12979" lon="0.4693">
        <ele>80</ele>
        <time>2022-09-15T09:37:59.835Z</time>
      </trkpt>
      <trkpt lat="44.12979" lon="0.46928">
        <ele>80</ele>
        <time>2022-09-15T09:38:00.835Z</time>
      </trkpt>
      <trkpt lat="44.12978" lon="0.46927">
        <ele>80</ele>
        <time>2022-09-15T09:38:01.835Z</time>
      </trkpt>
      <trkpt lat="44.12978" lon="0.46926">
        <ele>80</ele>
        <time>2022-09-15T09:38:02.835Z</time>
      </trkpt>
      <trkpt lat="44.12977" lon="0.46924">
        <ele>80</ele>
        <time>2022-09-15T09:38:03.835Z</time>
      </trkpt>
      <trkpt lat="44.12977" lon="0.46923">
        <ele>80</ele>
        <time>2022-09-15T09:38:04.835Z</time>
      </trkpt>
      <trkpt lat="44.12977" lon="0.46922">
        <ele>80</ele>
        <time>2022-09-15T09:38:05.835Z</time>
      </trkpt>
      <trkpt lat="44.12976" lon="0.4692">
        <ele>80</ele>
        <time>2022-09-15T09:38:06.835Z</time>
      </trkpt>
      <trkpt lat="44.12975" lon="0.46919">
        <ele>80</ele>
        <time>2022-09-15T09:38:07.835Z</time>
      </trkpt>
      <trkpt lat="44.12975" lon="0.46918">
        <ele>80</ele>
        <time>2022-09-15T09:38:08.835Z</time>
      </trkpt>
      <trkpt lat="44.12974" lon="0.46917">
        <ele>80</ele>
        <time>2022-09-15T09:38:09.835Z</time>
      </trkpt>
      <trkpt lat="44.12974" lon="0.46915">
        <ele>80</ele>
        <time>2022-09-15T09:38:10.835Z</time>
      </trkpt>
      <trkpt lat="44.12973" lon="0.46914">
        <ele>80</ele>
        <time>2022-09-15T09:38:11.835Z</time>
      </trkpt>
      <trkpt lat="44.12973" lon="0.46912">
        <ele>80</ele>
        <time>2022-09-15T09:38:12.835Z</time>
      </trkpt>
      <trkpt lat="44.12973" lon="0.46911">
        <ele>80</ele>
        <time>2022-09-15T09:38:13.835Z</time>
      </trkpt>
      <trkpt lat="44.12972" lon="0.4691">
        <ele>80</ele>
        <time>2022-09-15T09:38:14.835Z</time>
      </trkpt>
      <trkpt lat="44.12972" lon="0.46909">
        <ele>80</ele>
        <time>2022-09-15T09:38:15.835Z</time>
      </trkpt>
      <trkpt lat="44.12971" lon="0.46907">
        <ele>79</ele>
        <time>2022-09-15T09:38:16.835Z</time>
      </trkpt>
      <trkpt lat="44.1297" lon="0.46906">
        <ele>79</ele>
        <time>2022-09-15T09:38:17.835Z</time>
      </trkpt>
      <trkpt lat="44.12969" lon="0.46904">
        <ele>78</ele>
        <time>2022-09-15T09:38:18.835Z</time>
      </trkpt>
      <trkpt lat="44.12969" lon="0.46903">
        <ele>78</ele>
        <time>2022-09-15T09:38:19.835Z</time>
      </trkpt>
      <trkpt lat="44.12968" lon="0.46902">
        <ele>77</ele>
        <time>2022-09-15T09:38:20.835Z</time>
      </trkpt>
      <trkpt lat="44.12968" lon="0.469">
        <ele>77</ele>
        <time>2022-09-15T09:38:21.835Z</time>
      </trkpt>
      <trkpt lat="44.12967" lon="0.46899">
        <ele>77</ele>
        <time>2022-09-15T09:38:22.835Z</time>
      </trkpt>
      <trkpt lat="44.12966" lon="0.46898">
        <ele>77</ele>
        <time>2022-09-15T09:38:23.835Z</time>
      </trkpt>
      <trkpt lat="44.12966" lon="0.46896">
        <ele>77</ele>
        <time>2022-09-15T09:38:24.835Z</time>
      </trkpt>
      <trkpt lat="44.12965" lon="0.46895">
        <ele>77</ele>
        <time>2022-09-15T09:38:25.835Z</time>
      </trkpt>
      <trkpt lat="44.12964" lon="0.46893">
        <ele>78</ele>
        <time>2022-09-15T09:38:26.835Z</time>
      </trkpt>
      <trkpt lat="44.12964" lon="0.46892">
        <ele>78</ele>
        <time>2022-09-15T09:38:27.835Z</time>
      </trkpt>
      <trkpt lat="44.12963" lon="0.46891">
        <ele>78</ele>
        <time>2022-09-15T09:38:28.835Z</time>
      </trkpt>
      <trkpt lat="44.12962" lon="0.46889">
        <ele>78</ele>
        <time>2022-09-15T09:38:29.835Z</time>
      </trkpt>
      <trkpt lat="44.12962" lon="0.46888">
        <ele>78</ele>
        <time>2022-09-15T09:38:30.835Z</time>
      </trkpt>
      <trkpt lat="44.12961" lon="0.46887">
        <ele>77</ele>
        <time>2022-09-15T09:38:31.835Z</time>
      </trkpt>
      <trkpt lat="44.1296" lon="0.46886">
        <ele>77</ele>
        <time>2022-09-15T09:38:32.835Z</time>
      </trkpt>
      <trkpt lat="44.12959" lon="0.46885">
        <ele>77</ele>
        <time>2022-09-15T09:38:33.835Z</time>
      </trkpt>
      <trkpt lat="44.12958" lon="0.46884">
        <ele>77</ele>
        <time>2022-09-15T09:38:34.835Z</time>
      </trkpt>
      <trkpt lat="44.12957" lon="0.46883">
        <ele>77</ele>
        <time>2022-09-15T09:38:35.835Z</time>
      </trkpt>
      <trkpt lat="44.12956" lon="0.46883">
        <ele>77</ele>
        <time>2022-09-15T09:38:36.835Z</time>
      </trkpt>
      <trkpt lat="44.12955" lon="0.46882">
        <ele>77</ele>
        <time>2022-09-15T09:38:37.835Z</time>
      </trkpt>
      <trkpt lat="44.12954" lon="0.46882">
        <ele>77</ele>
        <time>2022-09-15T09:38:38.835Z</time>
      </trkpt>
      <trkpt lat="44.12953" lon="0.46882">
        <ele>77</ele>
        <time>2022-09-15T09:38:39.835Z</time>
      </trkpt>
      <trkpt lat="44.12952" lon="0.46882">
        <ele>77</ele>
        <time>2022-09-15T09:38:40.835Z</time>
      </trkpt>
      <trkpt lat="44.12951" lon="0.46882">
        <ele>77</ele>
        <time>2022-09-15T09:38:41.835Z</time>
      </trkpt>
      <trkpt lat="44.1295" lon="0.46882">
        <ele>77</ele>
        <time>2022-09-15T09:38:42.835Z</time>
      </trkpt>
      <trkpt lat="44.12949" lon="0.46882">
        <ele>77</ele>
        <time>2022-09-15T09:38:43.835Z</time>
      </trkpt>
      <trkpt lat="44.12948" lon="0.46883">
        <ele>77</ele>
        <time>2022-09-15T09:38:44.835Z</time>
      </trkpt>
      <trkpt lat="44.12947" lon="0.46883">
        <ele>77</ele>
        <time>2022-09-15T09:38:45.835Z</time>
      </trkpt>
      <trkpt lat="44.12946" lon="0.46883">
        <ele>78</ele>
        <time>2022-09-15T09:38:46.835Z</time>
      </trkpt>
      <trkpt lat="44.12945" lon="0.46883">
        <ele>78</ele>
        <time>2022-09-15T09:38:47.835Z</time>
      </trkpt>
      <trkpt lat="44.12944" lon="0.46883">
        <ele>78</ele>
        <time>2022-09-15T09:38:48.835Z</time>
      </trkpt>
      <trkpt lat="44.12944" lon="0.46884">
        <ele>78</ele>
        <time>2022-09-15T09:38:49.835Z</time>
      </trkpt>
      <trkpt lat="44.12943" lon="0.46884">
        <ele>78</ele>
        <time>2022-09-15T09:38:50.835Z</time>
      </trkpt>
      <trkpt lat="44.12942" lon="0.46885">
        <ele>78</ele>
        <time>2022-09-15T09:38:51.835Z</time>
      </trkpt>
      <trkpt lat="44.12942" lon="0.46887">
        <ele>78</ele>
        <time>2022-09-15T09:38:52.835Z</time>
      </trkpt>
      <trkpt lat="44.12941" lon="0.46888">
        <ele>78</ele>
        <time>2022-09-15T09:38:53.835Z</time>
      </trkpt>
      <trkpt lat="44.12941" lon="0.46888">
        <ele>78</ele>
        <time>2022-09-15T09:38:54.835Z</time>
      </trkpt>
      <trkpt lat="44.12941" lon="0.46889">
        <ele>78</ele>
        <time>2022-09-15T09:38:55.835Z</time>
      </trkpt>
      <trkpt lat="44.12941" lon="0.4689">
        <ele>78</ele>
        <time>2022-09-15T09:38:56.835Z</time>
      </trkpt>
      <trkpt lat="44.1294" lon="0.46891">
        <ele>78</ele>
        <time>2022-09-15T09:38:57.835Z</time>
      </trkpt>
      <trkpt lat="44.1294" lon="0.46891">
        <ele>78</ele>
        <time>2022-09-15T09:38:58.835Z</time>
      </trkpt>
      <trkpt lat="44.12939" lon="0.46892">
        <ele>79</ele>
        <time>2022-09-15T09:38:59.835Z</time>
      </trkpt>
      <trkpt lat="44.12939" lon="0.46893">
        <ele>79</ele>
        <time>2022-09-15T09:39:00.835Z</time>
      </trkpt>
      <trkpt lat="44.12938" lon="0.46895">
        <ele>80</ele>
        <time>2022-09-15T09:39:01.835Z</time>
      </trkpt>
      <trkpt lat="44.12938" lon="0.46896">
        <ele>80</ele>
        <time>2022-09-15T09:39:02.835Z</time>
      </trkpt>
      <trkpt lat="44.12937" lon="0.46897">
        <ele>81</ele>
        <time>2022-09-15T09:39:03.835Z</time>
      </trkpt>
      <trkpt lat="44.12937" lon="0.46898">
        <ele>81</ele>
        <time>2022-09-15T09:39:04.835Z</time>
      </trkpt>
      <trkpt lat="44.12936" lon="0.469">
        <ele>81</ele>
        <time>2022-09-15T09:39:05.835Z</time>
      </trkpt>
      <trkpt lat="44.12936" lon="0.46901">
        <ele>81</ele>
        <time>2022-09-15T09:39:06.835Z</time>
      </trkpt>
      <trkpt lat="44.12935" lon="0.46901">
        <ele>81</ele>
        <time>2022-09-15T09:39:07.835Z</time>
      </trkpt>
      <trkpt lat="44.12934" lon="0.46902">
        <ele>81</ele>
        <time>2022-09-15T09:39:08.835Z</time>
      </trkpt>
      <trkpt lat="44.12933" lon="0.46904">
        <ele>81</ele>
        <time>2022-09-15T09:39:09.835Z</time>
      </trkpt>
      <trkpt lat="44.12932" lon="0.46905">
        <ele>80</ele>
        <time>2022-09-15T09:39:10.835Z</time>
      </trkpt>
      <trkpt lat="44.12931" lon="0.46905">
        <ele>80</ele>
        <time>2022-09-15T09:39:11.835Z</time>
      </trkpt>
      <trkpt lat="44.1293" lon="0.46906">
        <ele>80</ele>
        <time>2022-09-15T09:39:12.835Z</time>
      </trkpt>
      <trkpt lat="44.12929" lon="0.46907">
        <ele>79</ele>
        <time>2022-09-15T09:39:13.835Z</time>
      </trkpt>
      <trkpt lat="44.12928" lon="0.46908">
        <ele>78</ele>
        <time>2022-09-15T09:39:14.835Z</time>
      </trkpt>
      <trkpt lat="44.12928" lon="0.46908">
        <ele>78</ele>
        <time>2022-09-15T09:39:15.835Z</time>
      </trkpt>
      <trkpt lat="44.12927" lon="0.4691">
        <ele>79</ele>
        <time>2022-09-15T09:39:16.835Z</time>
      </trkpt>
      <trkpt lat="44.12926" lon="0.46911">
        <ele>79</ele>
        <time>2022-09-15T09:39:17.835Z</time>
      </trkpt>
      <trkpt lat="44.12925" lon="0.46913">
        <ele>78</ele>
        <time>2022-09-15T09:39:18.835Z</time>
      </trkpt>
      <trkpt lat="44.12924" lon="0.46914">
        <ele>78</ele>
        <time>2022-09-15T09:39:19.835Z</time>
      </trkpt>
      <trkpt lat="44.12923" lon="0.46915">
        <ele>78</ele>
        <time>2022-09-15T09:39:20.835Z</time>
      </trkpt>
      <trkpt lat="44.12922" lon="0.46916">
        <ele>79</ele>
        <time>2022-09-15T09:39:21.835Z</time>
      </trkpt>
      <trkpt lat="44.12921" lon="0.46918">
        <ele>79</ele>
        <time>2022-09-15T09:39:22.835Z</time>
      </trkpt>
      <trkpt lat="44.1292" lon="0.46919">
        <ele>80</ele>
        <time>2022-09-15T09:39:23.835Z</time>
      </trkpt>
      <trkpt lat="44.12919" lon="0.46921">
        <ele>80</ele>
        <time>2022-09-15T09:39:24.835Z</time>
      </trkpt>
      <trkpt lat="44.12918" lon="0.46922">
        <ele>80</ele>
        <time>2022-09-15T09:39:25.835Z</time>
      </trkpt>
      <trkpt lat="44.12917" lon="0.46923">
        <ele>81</ele>
        <time>2022-09-15T09:39:26.835Z</time>
      </trkpt>
      <trkpt lat="44.12916" lon="0.46924">
        <ele>81</ele>
        <time>2022-09-15T09:39:27.835Z</time>
      </trkpt>
      <trkpt lat="44.12916" lon="0.46925">
        <ele>81</ele>
        <time>2022-09-15T09:39:28.835Z</time>
      </trkpt>
      <trkpt lat="44.12915" lon="0.46926">
        <ele>81</ele>
        <time>2022-09-15T09:39:29.835Z</time>
      </trkpt>
      <trkpt lat="44.12914" lon="0.46927">
        <ele>80</ele>
        <time>2022-09-15T09:39:30.835Z</time>
      </trkpt>
      <trkpt lat="44.12914" lon="0.46928">
        <ele>80</ele>
        <time>2022-09-15T09:39:31.835Z</time>
      </trkpt>
      <trkpt lat="44.12913" lon="0.46928">
        <ele>80</ele>
        <time>2022-09-15T09:39:32.835Z</time>
      </trkpt>
      <trkpt lat="44.12912" lon="0.46929">
        <ele>79</ele>
        <time>2022-09-15T09:39:33.835Z</time>
      </trkpt>
      <trkpt lat="44.12911" lon="0.4693">
        <ele>79</ele>
        <time>2022-09-15T09:39:34.835Z</time>
      </trkpt>
      <trkpt lat="44.12911" lon="0.46931">
        <ele>78</ele>
        <time>2022-09-15T09:39:35.835Z</time>
      </trkpt>
      <trkpt lat="44.1291" lon="0.46932">
        <ele>78</ele>
        <time>2022-09-15T09:39:36.835Z</time>
      </trkpt>
      <trkpt lat="44.12909" lon="0.46933">
        <ele>77</ele>
        <time>2022-09-15T09:39:37.835Z</time>
      </trkpt>
      <trkpt lat="44.12909" lon="0.46934">
        <ele>77</ele>
        <time>2022-09-15T09:39:38.835Z</time>
      </trkpt>
      <trkpt lat="44.12908" lon="0.46935">
        <ele>77</ele>
        <time>2022-09-15T09:39:39.835Z</time>
      </trkpt>
      <trkpt lat="44.12908" lon="0.46936">
        <ele>78</ele>
        <time>2022-09-15T09:39:40.835Z</time>
      </trkpt>
      <trkpt lat="44.12908" lon="0.46936">
        <ele>77</ele>
        <time>2022-09-15T09:39:41.835Z</time>
      </trkpt>
      <trkpt lat="44.12908" lon="0.46936">
        <ele>77</ele>
        <time>2022-09-15T09:39:42.835Z</time>
      </trkpt>
      <trkpt lat="44.12908" lon="0.46937">
        <ele>77</ele>
        <time>2022-09-15T09:39:43.835Z</time>
      </trkpt>
      <trkpt lat="44.12908" lon="0.46937">
        <ele>78</ele>
        <time>2022-09-15T09:39:44.835Z</time>
      </trkpt>
      <trkpt lat="44.12908" lon="0.46937">
        <ele>78</ele>
        <time>2022-09-15T09:39:45.835Z</time>
      </trkpt>
      <trkpt lat="44.12908" lon="0.46937">
        <ele>78</ele>
        <time>2022-09-15T09:39:46.835Z</time>
      </trkpt>
      <trkpt lat="44.12906" lon="0.46944">
        <ele>79</ele>
        <time>2022-09-15T09:39:58.838Z</time>
      </trkpt>
      <trkpt lat="44.12906" lon="0.46946">
        <ele>79</ele>
        <time>2022-09-15T09:39:59.838Z</time>
      </trkpt>
      <trkpt lat="44.12905" lon="0.46947">
        <ele>79</ele>
        <time>2022-09-15T09:40:00.838Z</time>
      </trkpt>
      <trkpt lat="44.12905" lon="0.46948">
        <ele>79</ele>
        <time>2022-09-15T09:40:01.838Z</time>
      </trkpt>
      <trkpt lat="44.12905" lon="0.4695">
        <ele>79</ele>
        <time>2022-09-15T09:40:02.838Z</time>
      </trkpt>
      <trkpt lat="44.12905" lon="0.46951">
        <ele>79</ele>
        <time>2022-09-15T09:40:03.838Z</time>
      </trkpt>
      <trkpt lat="44.12905" lon="0.46953">
        <ele>79</ele>
        <time>2022-09-15T09:40:04.838Z</time>
      </trkpt>
      <trkpt lat="44.12905" lon="0.46954">
        <ele>79</ele>
        <time>2022-09-15T09:40:05.838Z</time>
      </trkpt>
      <trkpt lat="44.12905" lon="0.46955">
        <ele>79</ele>
        <time>2022-09-15T09:40:06.838Z</time>
      </trkpt>
      <trkpt lat="44.12905" lon="0.46956">
        <ele>80</ele>
        <time>2022-09-15T09:40:07.838Z</time>
      </trkpt>
      <trkpt lat="44.12905" lon="0.46958">
        <ele>80</ele>
        <time>2022-09-15T09:40:08.838Z</time>
      </trkpt>
      <trkpt lat="44.12904" lon="0.46961">
        <ele>81</ele>
        <time>2022-09-15T09:40:09.838Z</time>
      </trkpt>
      <trkpt lat="44.12903" lon="0.46963">
        <ele>81</ele>
        <time>2022-09-15T09:40:10.838Z</time>
      </trkpt>
      <trkpt lat="44.12902" lon="0.46965">
        <ele>81</ele>
        <time>2022-09-15T09:40:11.838Z</time>
      </trkpt>
      <trkpt lat="44.12901" lon="0.46967">
        <ele>81</ele>
        <time>2022-09-15T09:40:12.838Z</time>
      </trkpt>
      <trkpt lat="44.12901" lon="0.46968">
        <ele>81</ele>
        <time>2022-09-15T09:40:13.838Z</time>
      </trkpt>
      <trkpt lat="44.12901" lon="0.4697">
        <ele>81</ele>
        <time>2022-09-15T09:40:14.838Z</time>
      </trkpt>
      <trkpt lat="44.129" lon="0.46971">
        <ele>81</ele>
        <time>2022-09-15T09:40:15.838Z</time>
      </trkpt>
      <trkpt lat="44.129" lon="0.46972">
        <ele>81</ele>
        <time>2022-09-15T09:40:16.838Z</time>
      </trkpt>
      <trkpt lat="44.12899" lon="0.46973">
        <ele>81</ele>
        <time>2022-09-15T09:40:17.838Z</time>
      </trkpt>
      <trkpt lat="44.12899" lon="0.46974">
        <ele>81</ele>
        <time>2022-09-15T09:40:18.838Z</time>
      </trkpt>
      <trkpt lat="44.12898" lon="0.46976">
        <ele>82</ele>
        <time>2022-09-15T09:40:19.838Z</time>
      </trkpt>
      <trkpt lat="44.12898" lon="0.46977">
        <ele>81</ele>
        <time>2022-09-15T09:40:20.838Z</time>
      </trkpt>
      <trkpt lat="44.12897" lon="0.46978">
        <ele>82</ele>
        <time>2022-09-15T09:40:21.838Z</time>
      </trkpt>
      <trkpt lat="44.12897" lon="0.46979">
        <ele>82</ele>
        <time>2022-09-15T09:40:22.838Z</time>
      </trkpt>
      <trkpt lat="44.12897" lon="0.4698">
        <ele>83</ele>
        <time>2022-09-15T09:40:23.838Z</time>
      </trkpt>
      <trkpt lat="44.12897" lon="0.46981">
        <ele>83</ele>
        <time>2022-09-15T09:40:24.838Z</time>
      </trkpt>
      <trkpt lat="44.12897" lon="0.46981">
        <ele>83</ele>
        <time>2022-09-15T09:40:25.838Z</time>
      </trkpt>
      <trkpt lat="44.12896" lon="0.46981">
        <ele>82</ele>
        <time>2022-09-15T09:40:26.838Z</time>
      </trkpt>
      <trkpt lat="44.12896" lon="0.46982">
        <ele>83</ele>
        <time>2022-09-15T09:40:27.838Z</time>
      </trkpt>
      <trkpt lat="44.12896" lon="0.46982">
        <ele>83</ele>
        <time>2022-09-15T09:40:28.838Z</time>
      </trkpt>
      <trkpt lat="44.12895" lon="0.46982">
        <ele>83</ele>
        <time>2022-09-15T09:40:29.838Z</time>
      </trkpt>
      <trkpt lat="44.12895" lon="0.46983">
        <ele>83</ele>
        <time>2022-09-15T09:40:30.838Z</time>
      </trkpt>
      <trkpt lat="44.12886" lon="0.46992">
        <ele>88</ele>
        <time>2022-09-15T09:41:36.842Z</time>
      </trkpt>
      <trkpt lat="44.12886" lon="0.46993">
        <ele>88</ele>
        <time>2022-09-15T09:41:37.842Z</time>
      </trkpt>
      <trkpt lat="44.12887" lon="0.46994">
        <ele>88</ele>
        <time>2022-09-15T09:41:38.842Z</time>
      </trkpt>
      <trkpt lat="44.12887" lon="0.46995">
        <ele>87</ele>
        <time>2022-09-15T09:41:39.842Z</time>
      </trkpt>
      <trkpt lat="44.12887" lon="0.46997">
        <ele>86</ele>
        <time>2022-09-15T09:41:40.842Z</time>
      </trkpt>
      <trkpt lat="44.12887" lon="0.46998">
        <ele>86</ele>
        <time>2022-09-15T09:41:41.842Z</time>
      </trkpt>
      <trkpt lat="44.12887" lon="0.46999">
        <ele>85</ele>
        <time>2022-09-15T09:41:42.842Z</time>
      </trkpt>
      <trkpt lat="44.12887" lon="0.47001">
        <ele>85</ele>
        <time>2022-09-15T09:41:43.842Z</time>
      </trkpt>
      <trkpt lat="44.12887" lon="0.47003">
        <ele>84</ele>
        <time>2022-09-15T09:41:44.842Z</time>
      </trkpt>
      <trkpt lat="44.12887" lon="0.47005">
        <ele>83</ele>
        <time>2022-09-15T09:41:45.842Z</time>
      </trkpt>
      <trkpt lat="44.12887" lon="0.47006">
        <ele>83</ele>
        <time>2022-09-15T09:41:46.842Z</time>
      </trkpt>
      <trkpt lat="44.12887" lon="0.47007">
        <ele>82</ele>
        <time>2022-09-15T09:41:47.842Z</time>
      </trkpt>
      <trkpt lat="44.12886" lon="0.47009">
        <ele>81</ele>
        <time>2022-09-15T09:41:48.842Z</time>
      </trkpt>
      <trkpt lat="44.12886" lon="0.4701">
        <ele>81</ele>
        <time>2022-09-15T09:41:49.842Z</time>
      </trkpt>
      <trkpt lat="44.12886" lon="0.47011">
        <ele>80</ele>
        <time>2022-09-15T09:41:50.842Z</time>
      </trkpt>
      <trkpt lat="44.12886" lon="0.47011">
        <ele>80</ele>
        <time>2022-09-15T09:41:51.842Z</time>
      </trkpt>
      <trkpt lat="44.12886" lon="0.47012">
        <ele>80</ele>
        <time>2022-09-15T09:41:52.842Z</time>
      </trkpt>
      <trkpt lat="44.12886" lon="0.47013">
        <ele>79</ele>
        <time>2022-09-15T09:41:53.842Z</time>
      </trkpt>
      <trkpt lat="44.12886" lon="0.47014">
        <ele>79</ele>
        <time>2022-09-15T09:41:54.842Z</time>
      </trkpt>
      <trkpt lat="44.12886" lon="0.47015">
        <ele>78</ele>
        <time>2022-09-15T09:41:55.842Z</time>
      </trkpt>
      <trkpt lat="44.12886" lon="0.47016">
        <ele>78</ele>
        <time>2022-09-15T09:41:56.842Z</time>
      </trkpt>
      <trkpt lat="44.12885" lon="0.47016">
        <ele>77</ele>
        <time>2022-09-15T09:41:57.842Z</time>
      </trkpt>
      <trkpt lat="44.12884" lon="0.47017">
        <ele>77</ele>
        <time>2022-09-15T09:41:58.842Z</time>
      </trkpt>
      <trkpt lat="44.12884" lon="0.47017">
        <ele>77</ele>
        <time>2022-09-15T09:41:59.842Z</time>
      </trkpt>
      <trkpt lat="44.12883" lon="0.47018">
        <ele>77</ele>
        <time>2022-09-15T09:42:00.842Z</time>
      </trkpt>
      <trkpt lat="44.12883" lon="0.47018">
        <ele>76</ele>
        <time>2022-09-15T09:42:01.842Z</time>
      </trkpt>
      <trkpt lat="44.12882" lon="0.47019">
        <ele>75</ele>
        <time>2022-09-15T09:42:02.842Z</time>
      </trkpt>
      <trkpt lat="44.12881" lon="0.47019">
        <ele>75</ele>
        <time>2022-09-15T09:42:03.842Z</time>
      </trkpt>
      <trkpt lat="44.1288" lon="0.47019">
        <ele>75</ele>
        <time>2022-09-15T09:42:04.842Z</time>
      </trkpt>
      <trkpt lat="44.1288" lon="0.47019">
        <ele>74</ele>
        <time>2022-09-15T09:42:05.842Z</time>
      </trkpt>
      <trkpt lat="44.12879" lon="0.47019">
        <ele>74</ele>
        <time>2022-09-15T09:42:06.842Z</time>
      </trkpt>
      <trkpt lat="44.12879" lon="0.47019">
        <ele>73</ele>
        <time>2022-09-15T09:42:07.842Z</time>
      </trkpt>
      <trkpt lat="44.12878" lon="0.47019">
        <ele>73</ele>
        <time>2022-09-15T09:42:08.842Z</time>
      </trkpt>
      <trkpt lat="44.12877" lon="0.47019">
        <ele>73</ele>
        <time>2022-09-15T09:42:09.842Z</time>
      </trkpt>
      <trkpt lat="44.12876" lon="0.47019">
        <ele>75</ele>
        <time>2022-09-15T09:42:10.842Z</time>
      </trkpt>
      <trkpt lat="44.12875" lon="0.47019">
        <ele>75</ele>
        <time>2022-09-15T09:42:11.842Z</time>
      </trkpt>
      <trkpt lat="44.12873" lon="0.47019">
        <ele>75</ele>
        <time>2022-09-15T09:42:12.842Z</time>
      </trkpt>
      <trkpt lat="44.12872" lon="0.47019">
        <ele>76</ele>
        <time>2022-09-15T09:42:13.842Z</time>
      </trkpt>
      <trkpt lat="44.12871" lon="0.47019">
        <ele>76</ele>
        <time>2022-09-15T09:42:14.842Z</time>
      </trkpt>
      <trkpt lat="44.1287" lon="0.47019">
        <ele>76</ele>
        <time>2022-09-15T09:42:15.842Z</time>
      </trkpt>
      <trkpt lat="44.1287" lon="0.47019">
        <ele>76</ele>
        <time>2022-09-15T09:42:16.842Z</time>
      </trkpt>
      <trkpt lat="44.12869" lon="0.47019">
        <ele>76</ele>
        <time>2022-09-15T09:42:17.842Z</time>
      </trkpt>
      <trkpt lat="44.12868" lon="0.47019">
        <ele>76</ele>
        <time>2022-09-15T09:42:18.842Z</time>
      </trkpt>
      <trkpt lat="44.12867" lon="0.47019">
        <ele>75</ele>
        <time>2022-09-15T09:42:19.842Z</time>
      </trkpt>
      <trkpt lat="44.12867" lon="0.47019">
        <ele>75</ele>
        <time>2022-09-15T09:42:20.842Z</time>
      </trkpt>
      <trkpt lat="44.12866" lon="0.47018">
        <ele>75</ele>
        <time>2022-09-15T09:42:21.842Z</time>
      </trkpt>
      <trkpt lat="44.12866" lon="0.47019">
        <ele>75</ele>
        <time>2022-09-15T09:42:22.842Z</time>
      </trkpt>
      <trkpt lat="44.12866" lon="0.47019">
        <ele>74</ele>
        <time>2022-09-15T09:42:23.842Z</time>
      </trkpt>
      <trkpt lat="44.12866" lon="0.47019">
        <ele>73</ele>
        <time>2022-09-15T09:42:24.842Z</time>
      </trkpt>
      <trkpt lat="44.12865" lon="0.4702">
        <ele>73</ele>
        <time>2022-09-15T09:42:25.842Z</time>
      </trkpt>
      <trkpt lat="44.12861" lon="0.4702">
        <ele>70</ele>
        <time>2022-09-15T09:42:33.870Z</time>
      </trkpt>
      <trkpt lat="44.1286" lon="0.4702">
        <ele>69</ele>
        <time>2022-09-15T09:42:34.870Z</time>
      </trkpt>
      <trkpt lat="44.12859" lon="0.4702">
        <ele>69</ele>
        <time>2022-09-15T09:42:35.870Z</time>
      </trkpt>
      <trkpt lat="44.12858" lon="0.4702">
        <ele>69</ele>
        <time>2022-09-15T09:42:36.870Z</time>
      </trkpt>
      <trkpt lat="44.12856" lon="0.4702">
        <ele>68</ele>
        <time>2022-09-15T09:42:37.870Z</time>
      </trkpt>
      <trkpt lat="44.12855" lon="0.4702">
        <ele>68</ele>
        <time>2022-09-15T09:42:38.870Z</time>
      </trkpt>
      <trkpt lat="44.12854" lon="0.47021">
        <ele>68</ele>
        <time>2022-09-15T09:42:39.870Z</time>
      </trkpt>
      <trkpt lat="44.12853" lon="0.47021">
        <ele>68</ele>
        <time>2022-09-15T09:42:40.870Z</time>
      </trkpt>
      <trkpt lat="44.12852" lon="0.47021">
        <ele>67</ele>
        <time>2022-09-15T09:42:41.870Z</time>
      </trkpt>
      <trkpt lat="44.12851" lon="0.47021">
        <ele>67</ele>
        <time>2022-09-15T09:42:42.870Z</time>
      </trkpt>
      <trkpt lat="44.1285" lon="0.47021">
        <ele>67</ele>
        <time>2022-09-15T09:42:43.870Z</time>
      </trkpt>
      <trkpt lat="44.12849" lon="0.47021">
        <ele>67</ele>
        <time>2022-09-15T09:42:44.870Z</time>
      </trkpt>
      <trkpt lat="44.12848" lon="0.47021">
        <ele>67</ele>
        <time>2022-09-15T09:42:45.870Z</time>
      </trkpt>
      <trkpt lat="44.12847" lon="0.47021">
        <ele>67</ele>
        <time>2022-09-15T09:42:46.870Z</time>
      </trkpt>
      <trkpt lat="44.12846" lon="0.47021">
        <ele>66</ele>
        <time>2022-09-15T09:42:47.870Z</time>
      </trkpt>
      <trkpt lat="44.12845" lon="0.47021">
        <ele>66</ele>
        <time>2022-09-15T09:42:48.870Z</time>
      </trkpt>
      <trkpt lat="44.12845" lon="0.47021">
        <ele>66</ele>
        <time>2022-09-15T09:42:49.870Z</time>
      </trkpt>
      <trkpt lat="44.12843" lon="0.47021">
        <ele>67</ele>
        <time>2022-09-15T09:42:50.870Z</time>
      </trkpt>
      <trkpt lat="44.12843" lon="0.47021">
        <ele>67</ele>
        <time>2022-09-15T09:42:51.870Z</time>
      </trkpt>
      <trkpt lat="44.12842" lon="0.47021">
        <ele>66</ele>
        <time>2022-09-15T09:42:52.870Z</time>
      </trkpt>
      <trkpt lat="44.12841" lon="0.47021">
        <ele>66</ele>
        <time>2022-09-15T09:42:53.870Z</time>
      </trkpt>
      <trkpt lat="44.12841" lon="0.4702">
        <ele>67</ele>
        <time>2022-09-15T09:42:54.870Z</time>
      </trkpt>
      <trkpt lat="44.12841" lon="0.4702">
        <ele>67</ele>
        <time>2022-09-15T09:42:55.870Z</time>
      </trkpt>
      <trkpt lat="44.1284" lon="0.4702">
        <ele>67</ele>
        <time>2022-09-15T09:42:56.870Z</time>
      </trkpt>
      <trkpt lat="44.1284" lon="0.4702">
        <ele>67</ele>
        <time>2022-09-15T09:42:57.870Z</time>
      </trkpt>
      <trkpt lat="44.1284" lon="0.4702">
        <ele>67</ele>
        <time>2022-09-15T09:42:58.870Z</time>
      </trkpt>
      <trkpt lat="44.1284" lon="0.47019">
        <ele>67</ele>
        <time>2022-09-15T09:42:59.870Z</time>
      </trkpt>
      <trkpt lat="44.1284" lon="0.47019">
        <ele>68</ele>
        <time>2022-09-15T09:43:00.870Z</time>
      </trkpt>
      <trkpt lat="44.1284" lon="0.47019">
        <ele>67</ele>
        <time>2022-09-15T09:43:01.870Z</time>
      </trkpt>
      <trkpt lat="44.1284" lon="0.47019">
        <ele>66</ele>
        <time>2022-09-15T09:43:02.870Z</time>
      </trkpt>
      <trkpt lat="44.12839" lon="0.47019">
        <ele>66</ele>
        <time>2022-09-15T09:43:03.870Z</time>
      </trkpt>
      <trkpt lat="44.12837" lon="0.47019">
        <ele>66</ele>
        <time>2022-09-15T09:43:04.870Z</time>
      </trkpt>
      <trkpt lat="44.12836" lon="0.47019">
        <ele>66</ele>
        <time>2022-09-15T09:43:05.870Z</time>
      </trkpt>
      <trkpt lat="44.12835" lon="0.47019">
        <ele>66</ele>
        <time>2022-09-15T09:43:06.870Z</time>
      </trkpt>
      <trkpt lat="44.12834" lon="0.47019">
        <ele>66</ele>
        <time>2022-09-15T09:43:07.870Z</time>
      </trkpt>
      <trkpt lat="44.12833" lon="0.47019">
        <ele>67</ele>
        <time>2022-09-15T09:43:08.870Z</time>
      </trkpt>
      <trkpt lat="44.12832" lon="0.4702">
        <ele>67</ele>
        <time>2022-09-15T09:43:09.870Z</time>
      </trkpt>
      <trkpt lat="44.1283" lon="0.4702">
        <ele>67</ele>
        <time>2022-09-15T09:43:10.870Z</time>
      </trkpt>
      <trkpt lat="44.12829" lon="0.4702">
        <ele>68</ele>
        <time>2022-09-15T09:43:11.870Z</time>
      </trkpt>
      <trkpt lat="44.12828" lon="0.4702">
        <ele>68</ele>
        <time>2022-09-15T09:43:12.870Z</time>
      </trkpt>
      <trkpt lat="44.12827" lon="0.4702">
        <ele>68</ele>
        <time>2022-09-15T09:43:13.870Z</time>
      </trkpt>
      <trkpt lat="44.12826" lon="0.4702">
        <ele>68</ele>
        <time>2022-09-15T09:43:14.870Z</time>
      </trkpt>
      <trkpt lat="44.12825" lon="0.4702">
        <ele>68</ele>
        <time>2022-09-15T09:43:15.870Z</time>
      </trkpt>
      <trkpt lat="44.12824" lon="0.4702">
        <ele>69</ele>
        <time>2022-09-15T09:43:16.870Z</time>
      </trkpt>
      <trkpt lat="44.12823" lon="0.4702">
        <ele>68</ele>
        <time>2022-09-15T09:43:17.870Z</time>
      </trkpt>
      <trkpt lat="44.12822" lon="0.4702">
        <ele>68</ele>
        <time>2022-09-15T09:43:18.870Z</time>
      </trkpt>
      <trkpt lat="44.1282" lon="0.4702">
        <ele>68</ele>
        <time>2022-09-15T09:43:19.870Z</time>
      </trkpt>
      <trkpt lat="44.12819" lon="0.4702">
        <ele>68</ele>
        <time>2022-09-15T09:43:20.870Z</time>
      </trkpt>
      <trkpt lat="44.12818" lon="0.4702">
        <ele>69</ele>
        <time>2022-09-15T09:43:21.870Z</time>
      </trkpt>
      <trkpt lat="44.12817" lon="0.4702">
        <ele>69</ele>
        <time>2022-09-15T09:43:22.870Z</time>
      </trkpt>
      <trkpt lat="44.12816" lon="0.4702">
        <ele>69</ele>
        <time>2022-09-15T09:43:23.870Z</time>
      </trkpt>
      <trkpt lat="44.12815" lon="0.4702">
        <ele>69</ele>
        <time>2022-09-15T09:43:24.870Z</time>
      </trkpt>
      <trkpt lat="44.12814" lon="0.4702">
        <ele>68</ele>
        <time>2022-09-15T09:43:25.870Z</time>
      </trkpt>
      <trkpt lat="44.12812" lon="0.4702">
        <ele>69</ele>
        <time>2022-09-15T09:43:26.870Z</time>
      </trkpt>
      <trkpt lat="44.12811" lon="0.4702">
        <ele>69</ele>
        <time>2022-09-15T09:43:27.870Z</time>
      </trkpt>
      <trkpt lat="44.1281" lon="0.4702">
        <ele>69</ele>
        <time>2022-09-15T09:43:28.870Z</time>
      </trkpt>
      <trkpt lat="44.12809" lon="0.4702">
        <ele>69</ele>
        <time>2022-09-15T09:43:29.870Z</time>
      </trkpt>
      <trkpt lat="44.12809" lon="0.4702">
        <ele>68</ele>
        <time>2022-09-15T09:43:30.870Z</time>
      </trkpt>
      <trkpt lat="44.12808" lon="0.47019">
        <ele>68</ele>
        <time>2022-09-15T09:43:31.870Z</time>
      </trkpt>
      <trkpt lat="44.12807" lon="0.47019">
        <ele>69</ele>
        <time>2022-09-15T09:43:32.870Z</time>
      </trkpt>
      <trkpt lat="44.12806" lon="0.47019">
        <ele>69</ele>
        <time>2022-09-15T09:43:33.870Z</time>
      </trkpt>
      <trkpt lat="44.12805" lon="0.47019">
        <ele>69</ele>
        <time>2022-09-15T09:43:34.870Z</time>
      </trkpt>
      <trkpt lat="44.12804" lon="0.47019">
        <ele>69</ele>
        <time>2022-09-15T09:43:35.870Z</time>
      </trkpt>
      <trkpt lat="44.12803" lon="0.4702">
        <ele>69</ele>
        <time>2022-09-15T09:43:36.870Z</time>
      </trkpt>
      <trkpt lat="44.12803" lon="0.4702">
        <ele>69</ele>
        <time>2022-09-15T09:43:37.870Z</time>
      </trkpt>
      <trkpt lat="44.12802" lon="0.4702">
        <ele>68</ele>
        <time>2022-09-15T09:43:38.870Z</time>
      </trkpt>
      <trkpt lat="44.12801" lon="0.4702">
        <ele>68</ele>
        <time>2022-09-15T09:43:39.870Z</time>
      </trkpt>
      <trkpt lat="44.12801" lon="0.47019">
        <ele>68</ele>
        <time>2022-09-15T09:43:40.870Z</time>
      </trkpt>
      <trkpt lat="44.12801" lon="0.47019">
        <ele>68</ele>
        <time>2022-09-15T09:43:41.870Z</time>
      </trkpt>
      <trkpt lat="44.12801" lon="0.47019">
        <ele>68</ele>
        <time>2022-09-15T09:43:42.870Z</time>
      </trkpt>
      <trkpt lat="44.12799" lon="0.47016">
        <ele>68</ele>
        <time>2022-09-15T09:43:49.890Z</time>
      </trkpt>
      <trkpt lat="44.12798" lon="0.47016">
        <ele>68</ele>
        <time>2022-09-15T09:43:50.890Z</time>
      </trkpt>
      <trkpt lat="44.12797" lon="0.47016">
        <ele>68</ele>
        <time>2022-09-15T09:43:51.890Z</time>
      </trkpt>
      <trkpt lat="44.12797" lon="0.47015">
        <ele>68</ele>
        <time>2022-09-15T09:43:52.890Z</time>
      </trkpt>
      <trkpt lat="44.12796" lon="0.47015">
        <ele>68</ele>
        <time>2022-09-15T09:43:53.890Z</time>
      </trkpt>
      <trkpt lat="44.12795" lon="0.47015">
        <ele>68</ele>
        <time>2022-09-15T09:43:54.890Z</time>
      </trkpt>
      <trkpt lat="44.12794" lon="0.47014">
        <ele>69</ele>
        <time>2022-09-15T09:43:55.890Z</time>
      </trkpt>
      <trkpt lat="44.12793" lon="0.47014">
        <ele>69</ele>
        <time>2022-09-15T09:43:56.890Z</time>
      </trkpt>
      <trkpt lat="44.12792" lon="0.47014">
        <ele>68</ele>
        <time>2022-09-15T09:43:57.890Z</time>
      </trkpt>
      <trkpt lat="44.12792" lon="0.47014">
        <ele>68</ele>
        <time>2022-09-15T09:43:58.890Z</time>
      </trkpt>
      <trkpt lat="44.12791" lon="0.47013">
        <ele>68</ele>
        <time>2022-09-15T09:43:59.890Z</time>
      </trkpt>
      <trkpt lat="44.1279" lon="0.47013">
        <ele>69</ele>
        <time>2022-09-15T09:44:00.890Z</time>
      </trkpt>
      <trkpt lat="44.1279" lon="0.47012">
        <ele>69</ele>
        <time>2022-09-15T09:44:01.890Z</time>
      </trkpt>
      <trkpt lat="44.12789" lon="0.47011">
        <ele>69</ele>
        <time>2022-09-15T09:44:02.890Z</time>
      </trkpt>
      <trkpt lat="44.12788" lon="0.47011">
        <ele>68</ele>
        <time>2022-09-15T09:44:03.890Z</time>
      </trkpt>
      <trkpt lat="44.12788" lon="0.47011">
        <ele>68</ele>
        <time>2022-09-15T09:44:04.890Z</time>
      </trkpt>
      <trkpt lat="44.12787" lon="0.47011">
        <ele>68</ele>
        <time>2022-09-15T09:44:05.890Z</time>
      </trkpt>
      <trkpt lat="44.12786" lon="0.47012">
        <ele>68</ele>
        <time>2022-09-15T09:44:06.890Z</time>
      </trkpt>
      <trkpt lat="44.12786" lon="0.47012">
        <ele>68</ele>
        <time>2022-09-15T09:44:07.890Z</time>
      </trkpt>
      <trkpt lat="44.12785" lon="0.47013">
        <ele>68</ele>
        <time>2022-09-15T09:44:08.890Z</time>
      </trkpt>
      <trkpt lat="44.12785" lon="0.47014">
        <ele>69</ele>
        <time>2022-09-15T09:44:09.890Z</time>
      </trkpt>
      <trkpt lat="44.12784" lon="0.47014">
        <ele>69</ele>
        <time>2022-09-15T09:44:10.890Z</time>
      </trkpt>
      <trkpt lat="44.12784" lon="0.47015">
        <ele>69</ele>
        <time>2022-09-15T09:44:11.890Z</time>
      </trkpt>
      <trkpt lat="44.12784" lon="0.47015">
        <ele>69</ele>
        <time>2022-09-15T09:44:12.890Z</time>
      </trkpt>
      <trkpt lat="44.12784" lon="0.47015">
        <ele>69</ele>
        <time>2022-09-15T09:44:13.890Z</time>
      </trkpt>
      <trkpt lat="44.12784" lon="0.47015">
        <ele>69</ele>
        <time>2022-09-15T09:44:14.890Z</time>
      </trkpt>
      <trkpt lat="44.12784" lon="0.47015">
        <ele>69</ele>
        <time>2022-09-15T09:44:15.890Z</time>
      </trkpt>
      <trkpt lat="44.12784" lon="0.47014">
        <ele>69</ele>
        <time>2022-09-15T09:44:16.890Z</time>
      </trkpt>
      <trkpt lat="44.12784" lon="0.47013">
        <ele>68</ele>
        <time>2022-09-15T09:44:17.890Z</time>
      </trkpt>
      <trkpt lat="44.12784" lon="0.47012">
        <ele>68</ele>
        <time>2022-09-15T09:44:18.890Z</time>
      </trkpt>
      <trkpt lat="44.12784" lon="0.4701">
        <ele>68</ele>
        <time>2022-09-15T09:44:19.890Z</time>
      </trkpt>
      <trkpt lat="44.12784" lon="0.47008">
        <ele>68</ele>
        <time>2022-09-15T09:44:20.890Z</time>
      </trkpt>
      <trkpt lat="44.12783" lon="0.47007">
        <ele>68</ele>
        <time>2022-09-15T09:44:21.890Z</time>
      </trkpt>
      <trkpt lat="44.12783" lon="0.47006">
        <ele>68</ele>
        <time>2022-09-15T09:44:22.890Z</time>
      </trkpt>
      <trkpt lat="44.12783" lon="0.47005">
        <ele>68</ele>
        <time>2022-09-15T09:44:23.890Z</time>
      </trkpt>
      <trkpt lat="44.12782" lon="0.47004">
        <ele>68</ele>
        <time>2022-09-15T09:44:24.890Z</time>
      </trkpt>
      <trkpt lat="44.12781" lon="0.47002">
        <ele>68</ele>
        <time>2022-09-15T09:44:25.890Z</time>
      </trkpt>
      <trkpt lat="44.1278" lon="0.47001">
        <ele>67</ele>
        <time>2022-09-15T09:44:26.890Z</time>
      </trkpt>
      <trkpt lat="44.1278" lon="0.47">
        <ele>68</ele>
        <time>2022-09-15T09:44:27.890Z</time>
      </trkpt>
      <trkpt lat="44.12779" lon="0.46999">
        <ele>68</ele>
        <time>2022-09-15T09:44:28.890Z</time>
      </trkpt>
      <trkpt lat="44.12778" lon="0.46997">
        <ele>68</ele>
        <time>2022-09-15T09:44:29.890Z</time>
      </trkpt>
      <trkpt lat="44.12777" lon="0.46996">
        <ele>68</ele>
        <time>2022-09-15T09:44:30.890Z</time>
      </trkpt>
      <trkpt lat="44.12776" lon="0.46995">
        <ele>68</ele>
        <time>2022-09-15T09:44:31.890Z</time>
      </trkpt>
      <trkpt lat="44.12775" lon="0.46994">
        <ele>68</ele>
        <time>2022-09-15T09:44:32.890Z</time>
      </trkpt>
      <trkpt lat="44.12774" lon="0.46993">
        <ele>68</ele>
        <time>2022-09-15T09:44:33.890Z</time>
      </trkpt>
      <trkpt lat="44.12774" lon="0.46992">
        <ele>68</ele>
        <time>2022-09-15T09:44:34.890Z</time>
      </trkpt>
      <trkpt lat="44.12773" lon="0.46992">
        <ele>69</ele>
        <time>2022-09-15T09:44:35.890Z</time>
      </trkpt>
      <trkpt lat="44.12773" lon="0.46991">
        <ele>68</ele>
        <time>2022-09-15T09:44:36.890Z</time>
      </trkpt>
      <trkpt lat="44.12773" lon="0.46991">
        <ele>68</ele>
        <time>2022-09-15T09:44:37.890Z</time>
      </trkpt>
      <trkpt lat="44.12772" lon="0.46991">
        <ele>68</ele>
        <time>2022-09-15T09:44:38.890Z</time>
      </trkpt>
      <trkpt lat="44.12771" lon="0.4699">
        <ele>68</ele>
        <time>2022-09-15T09:44:39.890Z</time>
      </trkpt>
      <trkpt lat="44.12771" lon="0.46989">
        <ele>68</ele>
        <time>2022-09-15T09:44:40.890Z</time>
      </trkpt>
      <trkpt lat="44.1277" lon="0.46988">
        <ele>68</ele>
        <time>2022-09-15T09:44:41.890Z</time>
      </trkpt>
      <trkpt lat="44.12769" lon="0.46988">
        <ele>68</ele>
        <time>2022-09-15T09:44:42.890Z</time>
      </trkpt>
      <trkpt lat="44.12769" lon="0.46987">
        <ele>68</ele>
        <time>2022-09-15T09:44:43.890Z</time>
      </trkpt>
      <trkpt lat="44.12768" lon="0.46985">
        <ele>68</ele>
        <time>2022-09-15T09:44:44.890Z</time>
      </trkpt>
      <trkpt lat="44.12768" lon="0.46984">
        <ele>68</ele>
        <time>2022-09-15T09:44:45.890Z</time>
      </trkpt>
      <trkpt lat="44.12767" lon="0.46983">
        <ele>67</ele>
        <time>2022-09-15T09:44:46.890Z</time>
      </trkpt>
      <trkpt lat="44.12767" lon="0.46982">
        <ele>67</ele>
        <time>2022-09-15T09:44:47.890Z</time>
      </trkpt>
      <trkpt lat="44.12766" lon="0.46981">
        <ele>67</ele>
        <time>2022-09-15T09:44:48.890Z</time>
      </trkpt>
      <trkpt lat="44.12766" lon="0.46981">
        <ele>67</ele>
        <time>2022-09-15T09:44:49.890Z</time>
      </trkpt>
      <trkpt lat="44.12765" lon="0.4698">
        <ele>67</ele>
        <time>2022-09-15T09:44:50.890Z</time>
      </trkpt>
      <trkpt lat="44.12764" lon="0.46979">
        <ele>67</ele>
        <time>2022-09-15T09:44:51.890Z</time>
      </trkpt>
      <trkpt lat="44.12763" lon="0.46978">
        <ele>67</ele>
        <time>2022-09-15T09:44:52.890Z</time>
      </trkpt>
      <trkpt lat="44.12762" lon="0.46976">
        <ele>68</ele>
        <time>2022-09-15T09:44:53.890Z</time>
      </trkpt>
      <trkpt lat="44.12762" lon="0.46975">
        <ele>68</ele>
        <time>2022-09-15T09:44:54.890Z</time>
      </trkpt>
      <trkpt lat="44.12761" lon="0.46974">
        <ele>68</ele>
        <time>2022-09-15T09:44:55.890Z</time>
      </trkpt>
      <trkpt lat="44.1276" lon="0.46973">
        <ele>68</ele>
        <time>2022-09-15T09:44:56.890Z</time>
      </trkpt>
      <trkpt lat="44.12759" lon="0.46972">
        <ele>68</ele>
        <time>2022-09-15T09:44:57.890Z</time>
      </trkpt>
      <trkpt lat="44.12759" lon="0.4697">
        <ele>68</ele>
        <time>2022-09-15T09:44:58.890Z</time>
      </trkpt>
      <trkpt lat="44.12758" lon="0.46969">
        <ele>68</ele>
        <time>2022-09-15T09:44:59.890Z</time>
      </trkpt>
      <trkpt lat="44.12757" lon="0.46968">
        <ele>68</ele>
        <time>2022-09-15T09:45:00.890Z</time>
      </trkpt>
      <trkpt lat="44.12757" lon="0.46967">
        <ele>68</ele>
        <time>2022-09-15T09:45:01.890Z</time>
      </trkpt>
      <trkpt lat="44.12756" lon="0.46966">
        <ele>68</ele>
        <time>2022-09-15T09:45:02.890Z</time>
      </trkpt>
      <trkpt lat="44.12755" lon="0.46965">
        <ele>68</ele>
        <time>2022-09-15T09:45:03.890Z</time>
      </trkpt>
      <trkpt lat="44.12755" lon="0.46963">
        <ele>69</ele>
        <time>2022-09-15T09:45:04.890Z</time>
      </trkpt>
      <trkpt lat="44.12754" lon="0.46962">
        <ele>69</ele>
        <time>2022-09-15T09:45:05.890Z</time>
      </trkpt>
      <trkpt lat="44.12753" lon="0.46961">
        <ele>69</ele>
        <time>2022-09-15T09:45:06.890Z</time>
      </trkpt>
      <trkpt lat="44.12753" lon="0.46959">
        <ele>69</ele>
        <time>2022-09-15T09:45:07.890Z</time>
      </trkpt>
      <trkpt lat="44.12752" lon="0.46958">
        <ele>69</ele>
        <time>2022-09-15T09:45:08.890Z</time>
      </trkpt>
      <trkpt lat="44.12752" lon="0.46957">
        <ele>69</ele>
        <time>2022-09-15T09:45:09.890Z</time>
      </trkpt>
      <trkpt lat="44.12752" lon="0.46956">
        <ele>69</ele>
        <time>2022-09-15T09:45:10.890Z</time>
      </trkpt>
      <trkpt lat="44.12751" lon="0.46955">
        <ele>69</ele>
        <time>2022-09-15T09:45:11.890Z</time>
      </trkpt>
      <trkpt lat="44.12751" lon="0.46954">
        <ele>69</ele>
        <time>2022-09-15T09:45:12.890Z</time>
      </trkpt>
      <trkpt lat="44.1275" lon="0.46953">
        <ele>69</ele>
        <time>2022-09-15T09:45:13.890Z</time>
      </trkpt>
      <trkpt lat="44.12749" lon="0.46952">
        <ele>69</ele>
        <time>2022-09-15T09:45:14.890Z</time>
      </trkpt>
      <trkpt lat="44.12749" lon="0.4695">
        <ele>68</ele>
        <time>2022-09-15T09:45:15.890Z</time>
      </trkpt>
      <trkpt lat="44.12748" lon="0.46949">
        <ele>69</ele>
        <time>2022-09-15T09:45:16.890Z</time>
      </trkpt>
      <trkpt lat="44.12748" lon="0.46947">
        <ele>69</ele>
        <time>2022-09-15T09:45:17.890Z</time>
      </trkpt>
      <trkpt lat="44.12747" lon="0.46946">
        <ele>69</ele>
        <time>2022-09-15T09:45:18.890Z</time>
      </trkpt>
      <trkpt lat="44.12747" lon="0.46944">
        <ele>70</ele>
        <time>2022-09-15T09:45:19.890Z</time>
      </trkpt>
      <trkpt lat="44.12746" lon="0.46942">
        <ele>70</ele>
        <time>2022-09-15T09:45:20.890Z</time>
      </trkpt>
      <trkpt lat="44.12745" lon="0.46941">
        <ele>70</ele>
        <time>2022-09-15T09:45:21.890Z</time>
      </trkpt>
      <trkpt lat="44.12745" lon="0.46939">
        <ele>71</ele>
        <time>2022-09-15T09:45:22.890Z</time>
      </trkpt>
      <trkpt lat="44.12744" lon="0.46938">
        <ele>71</ele>
        <time>2022-09-15T09:45:23.890Z</time>
      </trkpt>
      <trkpt lat="44.12744" lon="0.46936">
        <ele>71</ele>
        <time>2022-09-15T09:45:24.890Z</time>
      </trkpt>
      <trkpt lat="44.12743" lon="0.46935">
        <ele>71</ele>
        <time>2022-09-15T09:45:25.890Z</time>
      </trkpt>
      <trkpt lat="44.12743" lon="0.46933">
        <ele>71</ele>
        <time>2022-09-15T09:45:26.890Z</time>
      </trkpt>
      <trkpt lat="44.12742" lon="0.46931">
        <ele>71</ele>
        <time>2022-09-15T09:45:27.890Z</time>
      </trkpt>
      <trkpt lat="44.12742" lon="0.46929">
        <ele>70</ele>
        <time>2022-09-15T09:45:28.890Z</time>
      </trkpt>
      <trkpt lat="44.12742" lon="0.46928">
        <ele>71</ele>
        <time>2022-09-15T09:45:29.890Z</time>
      </trkpt>
      <trkpt lat="44.12741" lon="0.46926">
        <ele>71</ele>
        <time>2022-09-15T09:45:30.890Z</time>
      </trkpt>
      <trkpt lat="44.12741" lon="0.46925">
        <ele>71</ele>
        <time>2022-09-15T09:45:31.890Z</time>
      </trkpt>
      <trkpt lat="44.1274" lon="0.46923">
        <ele>71</ele>
        <time>2022-09-15T09:45:32.890Z</time>
      </trkpt>
      <trkpt lat="44.1274" lon="0.46922">
        <ele>71</ele>
        <time>2022-09-15T09:45:33.890Z</time>
      </trkpt>
      <trkpt lat="44.12739" lon="0.4692">
        <ele>71</ele>
        <time>2022-09-15T09:45:34.890Z</time>
      </trkpt>
      <trkpt lat="44.12739" lon="0.46919">
        <ele>71</ele>
        <time>2022-09-15T09:45:35.890Z</time>
      </trkpt>
      <trkpt lat="44.12739" lon="0.46917">
        <ele>71</ele>
        <time>2022-09-15T09:45:36.890Z</time>
      </trkpt>
      <trkpt lat="44.12738" lon="0.46915">
        <ele>71</ele>
        <time>2022-09-15T09:45:37.890Z</time>
      </trkpt>
      <trkpt lat="44.12738" lon="0.46913">
        <ele>72</ele>
        <time>2022-09-15T09:45:38.890Z</time>
      </trkpt>
      <trkpt lat="44.12737" lon="0.46911">
        <ele>71</ele>
        <time>2022-09-15T09:45:39.890Z</time>
      </trkpt>
      <trkpt lat="44.12737" lon="0.4691">
        <ele>71</ele>
        <time>2022-09-15T09:45:40.890Z</time>
      </trkpt>
      <trkpt lat="44.12737" lon="0.46908">
        <ele>71</ele>
        <time>2022-09-15T09:45:41.890Z</time>
      </trkpt>
      <trkpt lat="44.12736" lon="0.46906">
        <ele>71</ele>
        <time>2022-09-15T09:45:42.890Z</time>
      </trkpt>
      <trkpt lat="44.12736" lon="0.46905">
        <ele>71</ele>
        <time>2022-09-15T09:45:43.890Z</time>
      </trkpt>
      <trkpt lat="44.12736" lon="0.46903">
        <ele>71</ele>
        <time>2022-09-15T09:45:44.890Z</time>
      </trkpt>
      <trkpt lat="44.12735" lon="0.46902">
        <ele>71</ele>
        <time>2022-09-15T09:45:45.890Z</time>
      </trkpt>
      <trkpt lat="44.12735" lon="0.469">
        <ele>71</ele>
        <time>2022-09-15T09:45:46.890Z</time>
      </trkpt>
      <trkpt lat="44.12734" lon="0.46898">
        <ele>72</ele>
        <time>2022-09-15T09:45:47.890Z</time>
      </trkpt>
      <trkpt lat="44.12734" lon="0.46896">
        <ele>72</ele>
        <time>2022-09-15T09:45:48.890Z</time>
      </trkpt>
      <trkpt lat="44.12733" lon="0.46895">
        <ele>72</ele>
        <time>2022-09-15T09:45:49.890Z</time>
      </trkpt>
      <trkpt lat="44.12733" lon="0.46893">
        <ele>71</ele>
        <time>2022-09-15T09:45:50.890Z</time>
      </trkpt>
      <trkpt lat="44.12732" lon="0.46891">
        <ele>71</ele>
        <time>2022-09-15T09:45:51.890Z</time>
      </trkpt>
      <trkpt lat="44.12732" lon="0.4689">
        <ele>71</ele>
        <time>2022-09-15T09:45:52.890Z</time>
      </trkpt>
      <trkpt lat="44.12731" lon="0.46888">
        <ele>71</ele>
        <time>2022-09-15T09:45:53.890Z</time>
      </trkpt>
      <trkpt lat="44.12731" lon="0.46887">
        <ele>71</ele>
        <time>2022-09-15T09:45:54.890Z</time>
      </trkpt>
      <trkpt lat="44.12731" lon="0.46885">
        <ele>71</ele>
        <time>2022-09-15T09:45:55.890Z</time>
      </trkpt>
      <trkpt lat="44.1273" lon="0.46883">
        <ele>71</ele>
        <time>2022-09-15T09:45:56.890Z</time>
      </trkpt>
      <trkpt lat="44.1273" lon="0.46881">
        <ele>71</ele>
        <time>2022-09-15T09:45:57.890Z</time>
      </trkpt>
      <trkpt lat="44.12729" lon="0.46879">
        <ele>71</ele>
        <time>2022-09-15T09:45:58.890Z</time>
      </trkpt>
      <trkpt lat="44.12729" lon="0.46877">
        <ele>71</ele>
        <time>2022-09-15T09:45:59.890Z</time>
      </trkpt>
      <trkpt lat="44.12729" lon="0.46876">
        <ele>71</ele>
        <time>2022-09-15T09:46:00.890Z</time>
      </trkpt>
      <trkpt lat="44.12728" lon="0.46875">
        <ele>71</ele>
        <time>2022-09-15T09:46:01.890Z</time>
      </trkpt>
      <trkpt lat="44.12728" lon="0.46873">
        <ele>71</ele>
        <time>2022-09-15T09:46:02.890Z</time>
      </trkpt>
      <trkpt lat="44.12728" lon="0.46871">
        <ele>70</ele>
        <time>2022-09-15T09:46:03.890Z</time>
      </trkpt>
      <trkpt lat="44.12727" lon="0.4687">
        <ele>70</ele>
        <time>2022-09-15T09:46:04.890Z</time>
      </trkpt>
      <trkpt lat="44.12727" lon="0.46868">
        <ele>70</ele>
        <time>2022-09-15T09:46:05.890Z</time>
      </trkpt>
      <trkpt lat="44.12727" lon="0.46867">
        <ele>71</ele>
        <time>2022-09-15T09:46:06.890Z</time>
      </trkpt>
      <trkpt lat="44.12726" lon="0.46865">
        <ele>71</ele>
        <time>2022-09-15T09:46:07.890Z</time>
      </trkpt>
      <trkpt lat="44.12725" lon="0.46864">
        <ele>71</ele>
        <time>2022-09-15T09:46:08.890Z</time>
      </trkpt>
      <trkpt lat="44.12725" lon="0.46862">
        <ele>71</ele>
        <time>2022-09-15T09:46:09.890Z</time>
      </trkpt>
      <trkpt lat="44.12724" lon="0.46861">
        <ele>71</ele>
        <time>2022-09-15T09:46:10.890Z</time>
      </trkpt>
      <trkpt lat="44.12723" lon="0.46859">
        <ele>72</ele>
        <time>2022-09-15T09:46:11.890Z</time>
      </trkpt>
      <trkpt lat="44.12723" lon="0.46858">
        <ele>72</ele>
        <time>2022-09-15T09:46:12.890Z</time>
      </trkpt>
      <trkpt lat="44.12722" lon="0.46856">
        <ele>72</ele>
        <time>2022-09-15T09:46:13.890Z</time>
      </trkpt>
      <trkpt lat="44.12721" lon="0.46855">
        <ele>72</ele>
        <time>2022-09-15T09:46:14.890Z</time>
      </trkpt>
      <trkpt lat="44.12721" lon="0.46853">
        <ele>72</ele>
        <time>2022-09-15T09:46:15.890Z</time>
      </trkpt>
      <trkpt lat="44.1272" lon="0.46852">
        <ele>73</ele>
        <time>2022-09-15T09:46:16.890Z</time>
      </trkpt>
      <trkpt lat="44.1272" lon="0.46851">
        <ele>73</ele>
        <time>2022-09-15T09:46:17.890Z</time>
      </trkpt>
      <trkpt lat="44.12719" lon="0.46849">
        <ele>72</ele>
        <time>2022-09-15T09:46:18.890Z</time>
      </trkpt>
      <trkpt lat="44.12719" lon="0.46848">
        <ele>73</ele>
        <time>2022-09-15T09:46:19.890Z</time>
      </trkpt>
      <trkpt lat="44.12719" lon="0.46846">
        <ele>73</ele>
        <time>2022-09-15T09:46:20.890Z</time>
      </trkpt>
      <trkpt lat="44.12718" lon="0.46845">
        <ele>73</ele>
        <time>2022-09-15T09:46:21.890Z</time>
      </trkpt>
      <trkpt lat="44.12717" lon="0.46843">
        <ele>73</ele>
        <time>2022-09-15T09:46:22.890Z</time>
      </trkpt>
      <trkpt lat="44.12717" lon="0.46841">
        <ele>74</ele>
        <time>2022-09-15T09:46:23.890Z</time>
      </trkpt>
      <trkpt lat="44.12717" lon="0.4684">
        <ele>73</ele>
        <time>2022-09-15T09:46:24.890Z</time>
      </trkpt>
      <trkpt lat="44.12716" lon="0.46838">
        <ele>74</ele>
        <time>2022-09-15T09:46:25.890Z</time>
      </trkpt>
      <trkpt lat="44.12716" lon="0.46837">
        <ele>73</ele>
        <time>2022-09-15T09:46:26.890Z</time>
      </trkpt>
      <trkpt lat="44.12716" lon="0.46835">
        <ele>74</ele>
        <time>2022-09-15T09:46:27.890Z</time>
      </trkpt>
      <trkpt lat="44.12715" lon="0.46833">
        <ele>74</ele>
        <time>2022-09-15T09:46:28.890Z</time>
      </trkpt>
      <trkpt lat="44.12715" lon="0.46831">
        <ele>74</ele>
        <time>2022-09-15T09:46:29.890Z</time>
      </trkpt>
      <trkpt lat="44.12714" lon="0.46829">
        <ele>74</ele>
        <time>2022-09-15T09:46:30.890Z</time>
      </trkpt>
      <trkpt lat="44.12714" lon="0.46828">
        <ele>74</ele>
        <time>2022-09-15T09:46:31.890Z</time>
      </trkpt>
      <trkpt lat="44.12713" lon="0.46826">
        <ele>75</ele>
        <time>2022-09-15T09:46:32.890Z</time>
      </trkpt>
      <trkpt lat="44.12713" lon="0.46825">
        <ele>75</ele>
        <time>2022-09-15T09:46:33.890Z</time>
      </trkpt>
      <trkpt lat="44.12713" lon="0.46824">
        <ele>75</ele>
        <time>2022-09-15T09:46:34.890Z</time>
      </trkpt>
      <trkpt lat="44.12712" lon="0.46822">
        <ele>74</ele>
        <time>2022-09-15T09:46:35.890Z</time>
      </trkpt>
      <trkpt lat="44.12712" lon="0.4682">
        <ele>74</ele>
        <time>2022-09-15T09:46:36.890Z</time>
      </trkpt>
      <trkpt lat="44.12711" lon="0.46819">
        <ele>75</ele>
        <time>2022-09-15T09:46:37.890Z</time>
      </trkpt>
      <trkpt lat="44.12711" lon="0.46818">
        <ele>75</ele>
        <time>2022-09-15T09:46:38.890Z</time>
      </trkpt>
      <trkpt lat="44.12711" lon="0.46816">
        <ele>75</ele>
        <time>2022-09-15T09:46:39.890Z</time>
      </trkpt>
      <trkpt lat="44.1271" lon="0.46815">
        <ele>75</ele>
        <time>2022-09-15T09:46:40.890Z</time>
      </trkpt>
      <trkpt lat="44.1271" lon="0.46813">
        <ele>75</ele>
        <time>2022-09-15T09:46:41.890Z</time>
      </trkpt>
      <trkpt lat="44.12709" lon="0.46811">
        <ele>74</ele>
        <time>2022-09-15T09:46:42.890Z</time>
      </trkpt>
      <trkpt lat="44.12709" lon="0.4681">
        <ele>74</ele>
        <time>2022-09-15T09:46:43.890Z</time>
      </trkpt>
      <trkpt lat="44.12708" lon="0.46809">
        <ele>74</ele>
        <time>2022-09-15T09:46:44.890Z</time>
      </trkpt>
      <trkpt lat="44.12708" lon="0.46807">
        <ele>74</ele>
        <time>2022-09-15T09:46:45.890Z</time>
      </trkpt>
      <trkpt lat="44.12707" lon="0.46806">
        <ele>74</ele>
        <time>2022-09-15T09:46:46.890Z</time>
      </trkpt>
      <trkpt lat="44.12707" lon="0.46804">
        <ele>74</ele>
        <time>2022-09-15T09:46:47.890Z</time>
      </trkpt>
      <trkpt lat="44.12706" lon="0.46803">
        <ele>74</ele>
        <time>2022-09-15T09:46:48.890Z</time>
      </trkpt>
      <trkpt lat="44.12705" lon="0.46802">
        <ele>74</ele>
        <time>2022-09-15T09:46:49.890Z</time>
      </trkpt>
      <trkpt lat="44.12705" lon="0.468">
        <ele>74</ele>
        <time>2022-09-15T09:46:50.890Z</time>
      </trkpt>
      <trkpt lat="44.12704" lon="0.46799">
        <ele>73</ele>
        <time>2022-09-15T09:46:51.890Z</time>
      </trkpt>
      <trkpt lat="44.12704" lon="0.46797">
        <ele>74</ele>
        <time>2022-09-15T09:46:52.890Z</time>
      </trkpt>
      <trkpt lat="44.12704" lon="0.46796">
        <ele>74</ele>
        <time>2022-09-15T09:46:53.890Z</time>
      </trkpt>
      <trkpt lat="44.12704" lon="0.46794">
        <ele>74</ele>
        <time>2022-09-15T09:46:54.890Z</time>
      </trkpt>
      <trkpt lat="44.12703" lon="0.46792">
        <ele>74</ele>
        <time>2022-09-15T09:46:55.890Z</time>
      </trkpt>
      <trkpt lat="44.12703" lon="0.46791">
        <ele>74</ele>
        <time>2022-09-15T09:46:56.890Z</time>
      </trkpt>
      <trkpt lat="44.12702" lon="0.4679">
        <ele>74</ele>
        <time>2022-09-15T09:46:57.890Z</time>
      </trkpt>
      <trkpt lat="44.12701" lon="0.46788">
        <ele>74</ele>
        <time>2022-09-15T09:46:58.890Z</time>
      </trkpt>
      <trkpt lat="44.12701" lon="0.46787">
        <ele>75</ele>
        <time>2022-09-15T09:46:59.890Z</time>
      </trkpt>
      <trkpt lat="44.127" lon="0.46786">
        <ele>75</ele>
        <time>2022-09-15T09:47:00.890Z</time>
      </trkpt>
      <trkpt lat="44.127" lon="0.46784">
        <ele>75</ele>
        <time>2022-09-15T09:47:01.890Z</time>
      </trkpt>
      <trkpt lat="44.12699" lon="0.46783">
        <ele>75</ele>
        <time>2022-09-15T09:47:02.890Z</time>
      </trkpt>
      <trkpt lat="44.12699" lon="0.46782">
        <ele>75</ele>
        <time>2022-09-15T09:47:03.890Z</time>
      </trkpt>
      <trkpt lat="44.12698" lon="0.46781">
        <ele>74</ele>
        <time>2022-09-15T09:47:04.890Z</time>
      </trkpt>
      <trkpt lat="44.12698" lon="0.46779">
        <ele>74</ele>
        <time>2022-09-15T09:47:05.890Z</time>
      </trkpt>
      <trkpt lat="44.12697" lon="0.46778">
        <ele>75</ele>
        <time>2022-09-15T09:47:06.890Z</time>
      </trkpt>
      <trkpt lat="44.12696" lon="0.46777">
        <ele>75</ele>
        <time>2022-09-15T09:47:07.890Z</time>
      </trkpt>
      <trkpt lat="44.12696" lon="0.46775">
        <ele>75</ele>
        <time>2022-09-15T09:47:08.890Z</time>
      </trkpt>
      <trkpt lat="44.12695" lon="0.46774">
        <ele>75</ele>
        <time>2022-09-15T09:47:09.890Z</time>
      </trkpt>
      <trkpt lat="44.12695" lon="0.46772">
        <ele>75</ele>
        <time>2022-09-15T09:47:10.890Z</time>
      </trkpt>
      <trkpt lat="44.12694" lon="0.46771">
        <ele>75</ele>
        <time>2022-09-15T09:47:11.890Z</time>
      </trkpt>
      <trkpt lat="44.12694" lon="0.46769">
        <ele>76</ele>
        <time>2022-09-15T09:47:12.890Z</time>
      </trkpt>
      <trkpt lat="44.12693" lon="0.46768">
        <ele>76</ele>
        <time>2022-09-15T09:47:13.890Z</time>
      </trkpt>
      <trkpt lat="44.12692" lon="0.46766">
        <ele>75</ele>
        <time>2022-09-15T09:47:14.890Z</time>
      </trkpt>
      <trkpt lat="44.12691" lon="0.46765">
        <ele>76</ele>
        <time>2022-09-15T09:47:15.890Z</time>
      </trkpt>
      <trkpt lat="44.12691" lon="0.46763">
        <ele>77</ele>
        <time>2022-09-15T09:47:16.890Z</time>
      </trkpt>
      <trkpt lat="44.1269" lon="0.46761">
        <ele>77</ele>
        <time>2022-09-15T09:47:17.890Z</time>
      </trkpt>
      <trkpt lat="44.12689" lon="0.46759">
        <ele>77</ele>
        <time>2022-09-15T09:47:18.890Z</time>
      </trkpt>
      <trkpt lat="44.12689" lon="0.46758">
        <ele>77</ele>
        <time>2022-09-15T09:47:19.890Z</time>
      </trkpt>
      <trkpt lat="44.12688" lon="0.46756">
        <ele>77</ele>
        <time>2022-09-15T09:47:20.890Z</time>
      </trkpt>
      <trkpt lat="44.12688" lon="0.46755">
        <ele>77</ele>
        <time>2022-09-15T09:47:21.890Z</time>
      </trkpt>
      <trkpt lat="44.12687" lon="0.46753">
        <ele>77</ele>
        <time>2022-09-15T09:47:22.890Z</time>
      </trkpt>
      <trkpt lat="44.12687" lon="0.46751">
        <ele>77</ele>
        <time>2022-09-15T09:47:23.890Z</time>
      </trkpt>
      <trkpt lat="44.12686" lon="0.4675">
        <ele>77</ele>
        <time>2022-09-15T09:47:24.890Z</time>
      </trkpt>
      <trkpt lat="44.12686" lon="0.46748">
        <ele>77</ele>
        <time>2022-09-15T09:47:25.890Z</time>
      </trkpt>
      <trkpt lat="44.12685" lon="0.46746">
        <ele>77</ele>
        <time>2022-09-15T09:47:26.890Z</time>
      </trkpt>
      <trkpt lat="44.12685" lon="0.46745">
        <ele>77</ele>
        <time>2022-09-15T09:47:27.890Z</time>
      </trkpt>
      <trkpt lat="44.12684" lon="0.46743">
        <ele>77</ele>
        <time>2022-09-15T09:47:28.890Z</time>
      </trkpt>
      <trkpt lat="44.12684" lon="0.46742">
        <ele>77</ele>
        <time>2022-09-15T09:47:29.890Z</time>
      </trkpt>
      <trkpt lat="44.12683" lon="0.46741">
        <ele>77</ele>
        <time>2022-09-15T09:47:30.890Z</time>
      </trkpt>
      <trkpt lat="44.12683" lon="0.46739">
        <ele>77</ele>
        <time>2022-09-15T09:47:31.890Z</time>
      </trkpt>
      <trkpt lat="44.12682" lon="0.46737">
        <ele>77</ele>
        <time>2022-09-15T09:47:32.890Z</time>
      </trkpt>
      <trkpt lat="44.12682" lon="0.46736">
        <ele>77</ele>
        <time>2022-09-15T09:47:33.890Z</time>
      </trkpt>
      <trkpt lat="44.12681" lon="0.46734">
        <ele>77</ele>
        <time>2022-09-15T09:47:34.890Z</time>
      </trkpt>
      <trkpt lat="44.12681" lon="0.46733">
        <ele>78</ele>
        <time>2022-09-15T09:47:35.890Z</time>
      </trkpt>
      <trkpt lat="44.1268" lon="0.46732">
        <ele>77</ele>
        <time>2022-09-15T09:47:36.890Z</time>
      </trkpt>
      <trkpt lat="44.1268" lon="0.4673">
        <ele>78</ele>
        <time>2022-09-15T09:47:37.890Z</time>
      </trkpt>
      <trkpt lat="44.12679" lon="0.46729">
        <ele>78</ele>
        <time>2022-09-15T09:47:38.890Z</time>
      </trkpt>
      <trkpt lat="44.12679" lon="0.46727">
        <ele>78</ele>
        <time>2022-09-15T09:47:39.890Z</time>
      </trkpt>
      <trkpt lat="44.12678" lon="0.46726">
        <ele>78</ele>
        <time>2022-09-15T09:47:40.890Z</time>
      </trkpt>
      <trkpt lat="44.12678" lon="0.46724">
        <ele>78</ele>
        <time>2022-09-15T09:47:41.890Z</time>
      </trkpt>
      <trkpt lat="44.12677" lon="0.46723">
        <ele>79</ele>
        <time>2022-09-15T09:47:42.890Z</time>
      </trkpt>
      <trkpt lat="44.12677" lon="0.46722">
        <ele>79</ele>
        <time>2022-09-15T09:47:43.890Z</time>
      </trkpt>
      <trkpt lat="44.12676" lon="0.4672">
        <ele>79</ele>
        <time>2022-09-15T09:47:44.890Z</time>
      </trkpt>
      <trkpt lat="44.12676" lon="0.46718">
        <ele>79</ele>
        <time>2022-09-15T09:47:45.890Z</time>
      </trkpt>
      <trkpt lat="44.12675" lon="0.46717">
        <ele>79</ele>
        <time>2022-09-15T09:47:46.890Z</time>
      </trkpt>
      <trkpt lat="44.12675" lon="0.46715">
        <ele>79</ele>
        <time>2022-09-15T09:47:47.890Z</time>
      </trkpt>
      <trkpt lat="44.12674" lon="0.46714">
        <ele>79</ele>
        <time>2022-09-15T09:47:48.890Z</time>
      </trkpt>
      <trkpt lat="44.12674" lon="0.46713">
        <ele>79</ele>
        <time>2022-09-15T09:47:49.890Z</time>
      </trkpt>
      <trkpt lat="44.12673" lon="0.46711">
        <ele>79</ele>
        <time>2022-09-15T09:47:50.890Z</time>
      </trkpt>
      <trkpt lat="44.12673" lon="0.4671">
        <ele>79</ele>
        <time>2022-09-15T09:47:51.890Z</time>
      </trkpt>
      <trkpt lat="44.12672" lon="0.46709">
        <ele>79</ele>
        <time>2022-09-15T09:47:52.890Z</time>
      </trkpt>
      <trkpt lat="44.12671" lon="0.46707">
        <ele>80</ele>
        <time>2022-09-15T09:47:53.890Z</time>
      </trkpt>
      <trkpt lat="44.12671" lon="0.46706">
        <ele>80</ele>
        <time>2022-09-15T09:47:54.890Z</time>
      </trkpt>
      <trkpt lat="44.1267" lon="0.46704">
        <ele>80</ele>
        <time>2022-09-15T09:47:55.890Z</time>
      </trkpt>
      <trkpt lat="44.1267" lon="0.46703">
        <ele>80</ele>
        <time>2022-09-15T09:47:56.890Z</time>
      </trkpt>
      <trkpt lat="44.12669" lon="0.46702">
        <ele>80</ele>
        <time>2022-09-15T09:47:57.890Z</time>
      </trkpt>
      <trkpt lat="44.12669" lon="0.46701">
        <ele>80</ele>
        <time>2022-09-15T09:47:58.890Z</time>
      </trkpt>
      <trkpt lat="44.12668" lon="0.46699">
        <ele>80</ele>
        <time>2022-09-15T09:47:59.890Z</time>
      </trkpt>
      <trkpt lat="44.12667" lon="0.46698">
        <ele>80</ele>
        <time>2022-09-15T09:48:00.890Z</time>
      </trkpt>
      <trkpt lat="44.12667" lon="0.46697">
        <ele>81</ele>
        <time>2022-09-15T09:48:01.890Z</time>
      </trkpt>
      <trkpt lat="44.12666" lon="0.46696">
        <ele>81</ele>
        <time>2022-09-15T09:48:02.890Z</time>
      </trkpt>
      <trkpt lat="44.12666" lon="0.46694">
        <ele>80</ele>
        <time>2022-09-15T09:48:03.890Z</time>
      </trkpt>
      <trkpt lat="44.12666" lon="0.46693">
        <ele>81</ele>
        <time>2022-09-15T09:48:04.890Z</time>
      </trkpt>
      <trkpt lat="44.12665" lon="0.46691">
        <ele>81</ele>
        <time>2022-09-15T09:48:05.890Z</time>
      </trkpt>
      <trkpt lat="44.12665" lon="0.4669">
        <ele>81</ele>
        <time>2022-09-15T09:48:06.890Z</time>
      </trkpt>
      <trkpt lat="44.12664" lon="0.46688">
        <ele>81</ele>
        <time>2022-09-15T09:48:07.890Z</time>
      </trkpt>
      <trkpt lat="44.12664" lon="0.46687">
        <ele>81</ele>
        <time>2022-09-15T09:48:08.890Z</time>
      </trkpt>
      <trkpt lat="44.12664" lon="0.46686">
        <ele>81</ele>
        <time>2022-09-15T09:48:09.890Z</time>
      </trkpt>
      <trkpt lat="44.12663" lon="0.46685">
        <ele>82</ele>
        <time>2022-09-15T09:48:10.890Z</time>
      </trkpt>
      <trkpt lat="44.12663" lon="0.46684">
        <ele>81</ele>
        <time>2022-09-15T09:48:11.890Z</time>
      </trkpt>
      <trkpt lat="44.12662" lon="0.46682">
        <ele>81</ele>
        <time>2022-09-15T09:48:12.890Z</time>
      </trkpt>
      <trkpt lat="44.12662" lon="0.46681">
        <ele>81</ele>
        <time>2022-09-15T09:48:13.890Z</time>
      </trkpt>
      <trkpt lat="44.12661" lon="0.46679">
        <ele>81</ele>
        <time>2022-09-15T09:48:14.890Z</time>
      </trkpt>
      <trkpt lat="44.12661" lon="0.46678">
        <ele>81</ele>
        <time>2022-09-15T09:48:15.890Z</time>
      </trkpt>
      <trkpt lat="44.1266" lon="0.46676">
        <ele>81</ele>
        <time>2022-09-15T09:48:16.890Z</time>
      </trkpt>
      <trkpt lat="44.1266" lon="0.46675">
        <ele>81</ele>
        <time>2022-09-15T09:48:17.890Z</time>
      </trkpt>
      <trkpt lat="44.1266" lon="0.46674">
        <ele>80</ele>
        <time>2022-09-15T09:48:18.890Z</time>
      </trkpt>
      <trkpt lat="44.1266" lon="0.46673">
        <ele>80</ele>
        <time>2022-09-15T09:48:19.890Z</time>
      </trkpt>
      <trkpt lat="44.1266" lon="0.46671">
        <ele>80</ele>
        <time>2022-09-15T09:48:20.890Z</time>
      </trkpt>
      <trkpt lat="44.12659" lon="0.4667">
        <ele>80</ele>
        <time>2022-09-15T09:48:21.890Z</time>
      </trkpt>
      <trkpt lat="44.12659" lon="0.46669">
        <ele>81</ele>
        <time>2022-09-15T09:48:22.890Z</time>
      </trkpt>
      <trkpt lat="44.12658" lon="0.46668">
        <ele>81</ele>
        <time>2022-09-15T09:48:23.890Z</time>
      </trkpt>
      <trkpt lat="44.12658" lon="0.46667">
        <ele>81</ele>
        <time>2022-09-15T09:48:24.890Z</time>
      </trkpt>
      <trkpt lat="44.12658" lon="0.46665">
        <ele>81</ele>
        <time>2022-09-15T09:48:25.890Z</time>
      </trkpt>
      <trkpt lat="44.12657" lon="0.46664">
        <ele>81</ele>
        <time>2022-09-15T09:48:26.890Z</time>
      </trkpt>
      <trkpt lat="44.12657" lon="0.46663">
        <ele>80</ele>
        <time>2022-09-15T09:48:27.890Z</time>
      </trkpt>
      <trkpt lat="44.12657" lon="0.46661">
        <ele>80</ele>
        <time>2022-09-15T09:48:28.890Z</time>
      </trkpt>
      <trkpt lat="44.12656" lon="0.4666">
        <ele>80</ele>
        <time>2022-09-15T09:48:29.890Z</time>
      </trkpt>
      <trkpt lat="44.12656" lon="0.46658">
        <ele>80</ele>
        <time>2022-09-15T09:48:30.890Z</time>
      </trkpt>
      <trkpt lat="44.12656" lon="0.46657">
        <ele>80</ele>
        <time>2022-09-15T09:48:31.890Z</time>
      </trkpt>
      <trkpt lat="44.12655" lon="0.46656">
        <ele>80</ele>
        <time>2022-09-15T09:48:32.890Z</time>
      </trkpt>
      <trkpt lat="44.12654" lon="0.46654">
        <ele>80</ele>
        <time>2022-09-15T09:48:33.890Z</time>
      </trkpt>
      <trkpt lat="44.12653" lon="0.46653">
        <ele>80</ele>
        <time>2022-09-15T09:48:34.890Z</time>
      </trkpt>
      <trkpt lat="44.12653" lon="0.46651">
        <ele>80</ele>
        <time>2022-09-15T09:48:35.890Z</time>
      </trkpt>
      <trkpt lat="44.12652" lon="0.4665">
        <ele>80</ele>
        <time>2022-09-15T09:48:36.890Z</time>
      </trkpt>
      <trkpt lat="44.12652" lon="0.46649">
        <ele>80</ele>
        <time>2022-09-15T09:48:37.890Z</time>
      </trkpt>
      <trkpt lat="44.12652" lon="0.46647">
        <ele>79</ele>
        <time>2022-09-15T09:48:38.890Z</time>
      </trkpt>
      <trkpt lat="44.12651" lon="0.46646">
        <ele>79</ele>
        <time>2022-09-15T09:48:39.890Z</time>
      </trkpt>
      <trkpt lat="44.12651" lon="0.46644">
        <ele>79</ele>
        <time>2022-09-15T09:48:40.890Z</time>
      </trkpt>
      <trkpt lat="44.12651" lon="0.46643">
        <ele>79</ele>
        <time>2022-09-15T09:48:41.890Z</time>
      </trkpt>
      <trkpt lat="44.1265" lon="0.46642">
        <ele>79</ele>
        <time>2022-09-15T09:48:42.890Z</time>
      </trkpt>
      <trkpt lat="44.1265" lon="0.46641">
        <ele>79</ele>
        <time>2022-09-15T09:48:43.890Z</time>
      </trkpt>
      <trkpt lat="44.1265" lon="0.4664">
        <ele>79</ele>
        <time>2022-09-15T09:48:44.890Z</time>
      </trkpt>
      <trkpt lat="44.12649" lon="0.46639">
        <ele>79</ele>
        <time>2022-09-15T09:48:45.890Z</time>
      </trkpt>
      <trkpt lat="44.12649" lon="0.46638">
        <ele>80</ele>
        <time>2022-09-15T09:48:46.890Z</time>
      </trkpt>
      <trkpt lat="44.12648" lon="0.46637">
        <ele>80</ele>
        <time>2022-09-15T09:48:47.890Z</time>
      </trkpt>
      <trkpt lat="44.12648" lon="0.46636">
        <ele>80</ele>
        <time>2022-09-15T09:48:48.890Z</time>
      </trkpt>
      <trkpt lat="44.12647" lon="0.46634">
        <ele>79</ele>
        <time>2022-09-15T09:48:49.890Z</time>
      </trkpt>
      <trkpt lat="44.12647" lon="0.46633">
        <ele>79</ele>
        <time>2022-09-15T09:48:50.890Z</time>
      </trkpt>
      <trkpt lat="44.12646" lon="0.46632">
        <ele>79</ele>
        <time>2022-09-15T09:48:51.890Z</time>
      </trkpt>
      <trkpt lat="44.12646" lon="0.46631">
        <ele>79</ele>
        <time>2022-09-15T09:48:52.890Z</time>
      </trkpt>
      <trkpt lat="44.12645" lon="0.46629">
        <ele>79</ele>
        <time>2022-09-15T09:48:53.890Z</time>
      </trkpt>
      <trkpt lat="44.12644" lon="0.46628">
        <ele>79</ele>
        <time>2022-09-15T09:48:54.890Z</time>
      </trkpt>
      <trkpt lat="44.12644" lon="0.46626">
        <ele>78</ele>
        <time>2022-09-15T09:48:55.890Z</time>
      </trkpt>
      <trkpt lat="44.12643" lon="0.46625">
        <ele>78</ele>
        <time>2022-09-15T09:48:56.890Z</time>
      </trkpt>
      <trkpt lat="44.12643" lon="0.46623">
        <ele>78</ele>
        <time>2022-09-15T09:48:57.890Z</time>
      </trkpt>
      <trkpt lat="44.12643" lon="0.46622">
        <ele>78</ele>
        <time>2022-09-15T09:48:58.890Z</time>
      </trkpt>
      <trkpt lat="44.12642" lon="0.46621">
        <ele>78</ele>
        <time>2022-09-15T09:48:59.890Z</time>
      </trkpt>
      <trkpt lat="44.12642" lon="0.46619">
        <ele>78</ele>
        <time>2022-09-15T09:49:00.890Z</time>
      </trkpt>
      <trkpt lat="44.12641" lon="0.46618">
        <ele>78</ele>
        <time>2022-09-15T09:49:01.890Z</time>
      </trkpt>
      <trkpt lat="44.12641" lon="0.46616">
        <ele>78</ele>
        <time>2022-09-15T09:49:02.890Z</time>
      </trkpt>
      <trkpt lat="44.1264" lon="0.46614">
        <ele>78</ele>
        <time>2022-09-15T09:49:03.890Z</time>
      </trkpt>
      <trkpt lat="44.1264" lon="0.46613">
        <ele>78</ele>
        <time>2022-09-15T09:49:04.890Z</time>
      </trkpt>
      <trkpt lat="44.12639" lon="0.46611">
        <ele>79</ele>
        <time>2022-09-15T09:49:05.890Z</time>
      </trkpt>
      <trkpt lat="44.12638" lon="0.4661">
        <ele>80</ele>
        <time>2022-09-15T09:49:06.890Z</time>
      </trkpt>
      <trkpt lat="44.12638" lon="0.46608">
        <ele>80</ele>
        <time>2022-09-15T09:49:07.890Z</time>
      </trkpt>
      <trkpt lat="44.12637" lon="0.46606">
        <ele>80</ele>
        <time>2022-09-15T09:49:08.890Z</time>
      </trkpt>
      <trkpt lat="44.12637" lon="0.46604">
        <ele>80</ele>
        <time>2022-09-15T09:49:09.890Z</time>
      </trkpt>
      <trkpt lat="44.12636" lon="0.46603">
        <ele>80</ele>
        <time>2022-09-15T09:49:10.890Z</time>
      </trkpt>
      <trkpt lat="44.12636" lon="0.46601">
        <ele>80</ele>
        <time>2022-09-15T09:49:11.890Z</time>
      </trkpt>
      <trkpt lat="44.12636" lon="0.466">
        <ele>80</ele>
        <time>2022-09-15T09:49:12.890Z</time>
      </trkpt>
      <trkpt lat="44.12635" lon="0.46599">
        <ele>80</ele>
        <time>2022-09-15T09:49:13.890Z</time>
      </trkpt>
      <trkpt lat="44.12635" lon="0.46598">
        <ele>80</ele>
        <time>2022-09-15T09:49:14.890Z</time>
      </trkpt>
      <trkpt lat="44.12635" lon="0.46596">
        <ele>80</ele>
        <time>2022-09-15T09:49:15.890Z</time>
      </trkpt>
      <trkpt lat="44.12634" lon="0.46594">
        <ele>80</ele>
        <time>2022-09-15T09:49:16.890Z</time>
      </trkpt>
      <trkpt lat="44.12633" lon="0.46593">
        <ele>82</ele>
        <time>2022-09-15T09:49:17.890Z</time>
      </trkpt>
      <trkpt lat="44.12632" lon="0.46591">
        <ele>82</ele>
        <time>2022-09-15T09:49:18.890Z</time>
      </trkpt>
      <trkpt lat="44.12632" lon="0.46589">
        <ele>82</ele>
        <time>2022-09-15T09:49:19.890Z</time>
      </trkpt>
      <trkpt lat="44.12631" lon="0.46588">
        <ele>82</ele>
        <time>2022-09-15T09:49:20.890Z</time>
      </trkpt>
      <trkpt lat="44.12631" lon="0.46586">
        <ele>82</ele>
        <time>2022-09-15T09:49:21.890Z</time>
      </trkpt>
      <trkpt lat="44.12631" lon="0.46585">
        <ele>82</ele>
        <time>2022-09-15T09:49:22.890Z</time>
      </trkpt>
      <trkpt lat="44.1263" lon="0.46583">
        <ele>83</ele>
        <time>2022-09-15T09:49:23.890Z</time>
      </trkpt>
      <trkpt lat="44.1263" lon="0.46582">
        <ele>83</ele>
        <time>2022-09-15T09:49:24.890Z</time>
      </trkpt>
      <trkpt lat="44.1263" lon="0.46581">
        <ele>83</ele>
        <time>2022-09-15T09:49:25.890Z</time>
      </trkpt>
      <trkpt lat="44.12629" lon="0.46579">
        <ele>83</ele>
        <time>2022-09-15T09:49:26.890Z</time>
      </trkpt>
      <trkpt lat="44.12629" lon="0.46578">
        <ele>84</ele>
        <time>2022-09-15T09:49:27.890Z</time>
      </trkpt>
      <trkpt lat="44.12628" lon="0.46576">
        <ele>84</ele>
        <time>2022-09-15T09:49:28.890Z</time>
      </trkpt>
      <trkpt lat="44.12628" lon="0.46575">
        <ele>84</ele>
        <time>2022-09-15T09:49:29.890Z</time>
      </trkpt>
      <trkpt lat="44.12627" lon="0.46573">
        <ele>85</ele>
        <time>2022-09-15T09:49:30.890Z</time>
      </trkpt>
      <trkpt lat="44.12626" lon="0.46572">
        <ele>85</ele>
        <time>2022-09-15T09:49:31.890Z</time>
      </trkpt>
      <trkpt lat="44.12625" lon="0.4657">
        <ele>85</ele>
        <time>2022-09-15T09:49:32.890Z</time>
      </trkpt>
      <trkpt lat="44.12625" lon="0.46569">
        <ele>85</ele>
        <time>2022-09-15T09:49:33.890Z</time>
      </trkpt>
      <trkpt lat="44.12624" lon="0.46568">
        <ele>85</ele>
        <time>2022-09-15T09:49:34.890Z</time>
      </trkpt>
      <trkpt lat="44.12624" lon="0.46566">
        <ele>85</ele>
        <time>2022-09-15T09:49:35.890Z</time>
      </trkpt>
      <trkpt lat="44.12623" lon="0.46565">
        <ele>85</ele>
        <time>2022-09-15T09:49:36.890Z</time>
      </trkpt>
      <trkpt lat="44.12623" lon="0.46563">
        <ele>85</ele>
        <time>2022-09-15T09:49:37.890Z</time>
      </trkpt>
      <trkpt lat="44.12622" lon="0.46562">
        <ele>85</ele>
        <time>2022-09-15T09:49:38.890Z</time>
      </trkpt>
      <trkpt lat="44.12622" lon="0.46561">
        <ele>86</ele>
        <time>2022-09-15T09:49:39.890Z</time>
      </trkpt>
      <trkpt lat="44.12621" lon="0.4656">
        <ele>86</ele>
        <time>2022-09-15T09:49:40.890Z</time>
      </trkpt>
      <trkpt lat="44.12621" lon="0.4656">
        <ele>87</ele>
        <time>2022-09-15T09:49:41.890Z</time>
      </trkpt>
      <trkpt lat="44.1262" lon="0.46558">
        <ele>88</ele>
        <time>2022-09-15T09:49:42.890Z</time>
      </trkpt>
      <trkpt lat="44.1262" lon="0.46557">
        <ele>88</ele>
        <time>2022-09-15T09:49:43.890Z</time>
      </trkpt>
      <trkpt lat="44.12619" lon="0.46556">
        <ele>88</ele>
        <time>2022-09-15T09:49:44.890Z</time>
      </trkpt>
      <trkpt lat="44.12619" lon="0.46554">
        <ele>89</ele>
        <time>2022-09-15T09:49:45.890Z</time>
      </trkpt>
      <trkpt lat="44.12619" lon="0.46553">
        <ele>89</ele>
        <time>2022-09-15T09:49:46.890Z</time>
      </trkpt>
      <trkpt lat="44.12618" lon="0.46552">
        <ele>89</ele>
        <time>2022-09-15T09:49:47.890Z</time>
      </trkpt>
      <trkpt lat="44.12618" lon="0.46551">
        <ele>89</ele>
        <time>2022-09-15T09:49:48.890Z</time>
      </trkpt>
      <trkpt lat="44.12617" lon="0.46549">
        <ele>89</ele>
        <time>2022-09-15T09:49:49.890Z</time>
      </trkpt>
      <trkpt lat="44.12617" lon="0.46548">
        <ele>89</ele>
        <time>2022-09-15T09:49:50.890Z</time>
      </trkpt>
      <trkpt lat="44.12617" lon="0.46546">
        <ele>89</ele>
        <time>2022-09-15T09:49:51.890Z</time>
      </trkpt>
      <trkpt lat="44.12616" lon="0.46545">
        <ele>89</ele>
        <time>2022-09-15T09:49:52.890Z</time>
      </trkpt>
      <trkpt lat="44.12616" lon="0.46544">
        <ele>89</ele>
        <time>2022-09-15T09:49:53.890Z</time>
      </trkpt>
      <trkpt lat="44.12616" lon="0.46543">
        <ele>89</ele>
        <time>2022-09-15T09:49:54.890Z</time>
      </trkpt>
      <trkpt lat="44.12615" lon="0.46541">
        <ele>89</ele>
        <time>2022-09-15T09:49:55.890Z</time>
      </trkpt>
      <trkpt lat="44.12615" lon="0.46539">
        <ele>89</ele>
        <time>2022-09-15T09:49:56.890Z</time>
      </trkpt>
      <trkpt lat="44.12614" lon="0.46537">
        <ele>89</ele>
        <time>2022-09-15T09:49:57.890Z</time>
      </trkpt>
      <trkpt lat="44.12614" lon="0.46535">
        <ele>89</ele>
        <time>2022-09-15T09:49:58.890Z</time>
      </trkpt>
      <trkpt lat="44.12613" lon="0.46533">
        <ele>89</ele>
        <time>2022-09-15T09:49:59.890Z</time>
      </trkpt>
      <trkpt lat="44.12613" lon="0.46532">
        <ele>89</ele>
        <time>2022-09-15T09:50:00.890Z</time>
      </trkpt>
      <trkpt lat="44.12613" lon="0.4653">
        <ele>89</ele>
        <time>2022-09-15T09:50:01.890Z</time>
      </trkpt>
      <trkpt lat="44.12612" lon="0.46528">
        <ele>89</ele>
        <time>2022-09-15T09:50:02.890Z</time>
      </trkpt>
      <trkpt lat="44.12612" lon="0.46527">
        <ele>88</ele>
        <time>2022-09-15T09:50:03.890Z</time>
      </trkpt>
      <trkpt lat="44.12611" lon="0.46525">
        <ele>88</ele>
        <time>2022-09-15T09:50:04.890Z</time>
      </trkpt>
      <trkpt lat="44.12611" lon="0.46524">
        <ele>88</ele>
        <time>2022-09-15T09:50:05.890Z</time>
      </trkpt>
      <trkpt lat="44.1261" lon="0.46523">
        <ele>89</ele>
        <time>2022-09-15T09:50:06.890Z</time>
      </trkpt>
      <trkpt lat="44.1261" lon="0.46522">
        <ele>89</ele>
        <time>2022-09-15T09:50:07.890Z</time>
      </trkpt>
      <trkpt lat="44.12609" lon="0.46521">
        <ele>89</ele>
        <time>2022-09-15T09:50:08.890Z</time>
      </trkpt>
      <trkpt lat="44.12609" lon="0.46519">
        <ele>89</ele>
        <time>2022-09-15T09:50:09.890Z</time>
      </trkpt>
      <trkpt lat="44.12608" lon="0.46518">
        <ele>90</ele>
        <time>2022-09-15T09:50:10.890Z</time>
      </trkpt>
      <trkpt lat="44.12607" lon="0.46517">
        <ele>90</ele>
        <time>2022-09-15T09:50:11.890Z</time>
      </trkpt>
      <trkpt lat="44.12607" lon="0.46516">
        <ele>90</ele>
        <time>2022-09-15T09:50:12.890Z</time>
      </trkpt>
      <trkpt lat="44.12606" lon="0.46514">
        <ele>89</ele>
        <time>2022-09-15T09:50:13.890Z</time>
      </trkpt>
      <trkpt lat="44.12606" lon="0.46513">
        <ele>89</ele>
        <time>2022-09-15T09:50:14.890Z</time>
      </trkpt>
      <trkpt lat="44.12605" lon="0.46511">
        <ele>88</ele>
        <time>2022-09-15T09:50:15.890Z</time>
      </trkpt>
      <trkpt lat="44.12605" lon="0.46509">
        <ele>89</ele>
        <time>2022-09-15T09:50:16.890Z</time>
      </trkpt>
      <trkpt lat="44.12605" lon="0.46508">
        <ele>88</ele>
        <time>2022-09-15T09:50:17.890Z</time>
      </trkpt>
      <trkpt lat="44.12604" lon="0.46507">
        <ele>88</ele>
        <time>2022-09-15T09:50:18.890Z</time>
      </trkpt>
      <trkpt lat="44.12604" lon="0.46506">
        <ele>88</ele>
        <time>2022-09-15T09:50:19.890Z</time>
      </trkpt>
      <trkpt lat="44.12603" lon="0.46505">
        <ele>88</ele>
        <time>2022-09-15T09:50:20.890Z</time>
      </trkpt>
      <trkpt lat="44.12603" lon="0.46503">
        <ele>89</ele>
        <time>2022-09-15T09:50:21.890Z</time>
      </trkpt>
      <trkpt lat="44.12603" lon="0.46502">
        <ele>89</ele>
        <time>2022-09-15T09:50:22.890Z</time>
      </trkpt>
      <trkpt lat="44.12602" lon="0.46501">
        <ele>90</ele>
        <time>2022-09-15T09:50:23.890Z</time>
      </trkpt>
      <trkpt lat="44.12602" lon="0.46499">
        <ele>90</ele>
        <time>2022-09-15T09:50:24.890Z</time>
      </trkpt>
      <trkpt lat="44.12601" lon="0.46498">
        <ele>90</ele>
        <time>2022-09-15T09:50:25.890Z</time>
      </trkpt>
      <trkpt lat="44.12601" lon="0.46496">
        <ele>91</ele>
        <time>2022-09-15T09:50:26.890Z</time>
      </trkpt>
      <trkpt lat="44.126" lon="0.46495">
        <ele>91</ele>
        <time>2022-09-15T09:50:27.890Z</time>
      </trkpt>
      <trkpt lat="44.126" lon="0.46494">
        <ele>91</ele>
        <time>2022-09-15T09:50:28.890Z</time>
      </trkpt>
      <trkpt lat="44.12599" lon="0.46493">
        <ele>91</ele>
        <time>2022-09-15T09:50:29.890Z</time>
      </trkpt>
      <trkpt lat="44.12599" lon="0.46492">
        <ele>91</ele>
        <time>2022-09-15T09:50:30.890Z</time>
      </trkpt>
      <trkpt lat="44.12598" lon="0.46491">
        <ele>91</ele>
        <time>2022-09-15T09:50:31.890Z</time>
      </trkpt>
      <trkpt lat="44.12598" lon="0.46489">
        <ele>91</ele>
        <time>2022-09-15T09:50:32.890Z</time>
      </trkpt>
      <trkpt lat="44.12597" lon="0.46488">
        <ele>91</ele>
        <time>2022-09-15T09:50:33.890Z</time>
      </trkpt>
      <trkpt lat="44.12596" lon="0.46486">
        <ele>91</ele>
        <time>2022-09-15T09:50:34.890Z</time>
      </trkpt>
      <trkpt lat="44.12596" lon="0.46484">
        <ele>91</ele>
        <time>2022-09-15T09:50:35.890Z</time>
      </trkpt>
      <trkpt lat="44.12595" lon="0.46483">
        <ele>91</ele>
        <time>2022-09-15T09:50:36.890Z</time>
      </trkpt>
      <trkpt lat="44.12594" lon="0.46481">
        <ele>91</ele>
        <time>2022-09-15T09:50:37.890Z</time>
      </trkpt>
      <trkpt lat="44.12594" lon="0.4648">
        <ele>90</ele>
        <time>2022-09-15T09:50:38.890Z</time>
      </trkpt>
      <trkpt lat="44.12593" lon="0.46479">
        <ele>90</ele>
        <time>2022-09-15T09:50:39.890Z</time>
      </trkpt>
      <trkpt lat="44.12593" lon="0.46477">
        <ele>90</ele>
        <time>2022-09-15T09:50:40.890Z</time>
      </trkpt>
      <trkpt lat="44.12592" lon="0.46476">
        <ele>91</ele>
        <time>2022-09-15T09:50:41.890Z</time>
      </trkpt>
      <trkpt lat="44.12592" lon="0.46474">
        <ele>91</ele>
        <time>2022-09-15T09:50:42.890Z</time>
      </trkpt>
      <trkpt lat="44.12591" lon="0.46473">
        <ele>91</ele>
        <time>2022-09-15T09:50:43.890Z</time>
      </trkpt>
      <trkpt lat="44.12591" lon="0.46472">
        <ele>90</ele>
        <time>2022-09-15T09:50:44.890Z</time>
      </trkpt>
      <trkpt lat="44.1259" lon="0.46471">
        <ele>91</ele>
        <time>2022-09-15T09:50:45.890Z</time>
      </trkpt>
      <trkpt lat="44.12589" lon="0.46469">
        <ele>91</ele>
        <time>2022-09-15T09:50:46.890Z</time>
      </trkpt>
      <trkpt lat="44.12589" lon="0.46467">
        <ele>90</ele>
        <time>2022-09-15T09:50:47.890Z</time>
      </trkpt>
      <trkpt lat="44.12588" lon="0.46465">
        <ele>91</ele>
        <time>2022-09-15T09:50:48.890Z</time>
      </trkpt>
      <trkpt lat="44.12588" lon="0.46464">
        <ele>91</ele>
        <time>2022-09-15T09:50:49.890Z</time>
      </trkpt>
      <trkpt lat="44.12587" lon="0.46463">
        <ele>91</ele>
        <time>2022-09-15T09:50:50.890Z</time>
      </trkpt>
      <trkpt lat="44.12587" lon="0.46461">
        <ele>91</ele>
        <time>2022-09-15T09:50:51.890Z</time>
      </trkpt>
      <trkpt lat="44.12586" lon="0.4646">
        <ele>92</ele>
        <time>2022-09-15T09:50:52.890Z</time>
      </trkpt>
      <trkpt lat="44.12586" lon="0.46458">
        <ele>93</ele>
        <time>2022-09-15T09:50:53.890Z</time>
      </trkpt>
      <trkpt lat="44.12585" lon="0.46457">
        <ele>93</ele>
        <time>2022-09-15T09:50:54.890Z</time>
      </trkpt>
      <trkpt lat="44.12584" lon="0.46456">
        <ele>93</ele>
        <time>2022-09-15T09:50:55.890Z</time>
      </trkpt>
      <trkpt lat="44.12584" lon="0.46454">
        <ele>94</ele>
        <time>2022-09-15T09:50:56.890Z</time>
      </trkpt>
      <trkpt lat="44.12583" lon="0.46453">
        <ele>94</ele>
        <time>2022-09-15T09:50:57.890Z</time>
      </trkpt>
      <trkpt lat="44.12582" lon="0.46451">
        <ele>94</ele>
        <time>2022-09-15T09:50:58.890Z</time>
      </trkpt>
      <trkpt lat="44.12582" lon="0.4645">
        <ele>93</ele>
        <time>2022-09-15T09:50:59.890Z</time>
      </trkpt>
      <trkpt lat="44.12581" lon="0.46449">
        <ele>93</ele>
        <time>2022-09-15T09:51:00.890Z</time>
      </trkpt>
      <trkpt lat="44.12581" lon="0.46447">
        <ele>93</ele>
        <time>2022-09-15T09:51:01.890Z</time>
      </trkpt>
      <trkpt lat="44.12581" lon="0.46446">
        <ele>93</ele>
        <time>2022-09-15T09:51:02.890Z</time>
      </trkpt>
      <trkpt lat="44.12581" lon="0.46445">
        <ele>93</ele>
        <time>2022-09-15T09:51:03.890Z</time>
      </trkpt>
      <trkpt lat="44.1258" lon="0.46443">
        <ele>93</ele>
        <time>2022-09-15T09:51:04.890Z</time>
      </trkpt>
      <trkpt lat="44.1258" lon="0.46441">
        <ele>94</ele>
        <time>2022-09-15T09:51:05.890Z</time>
      </trkpt>
      <trkpt lat="44.12579" lon="0.4644">
        <ele>93</ele>
        <time>2022-09-15T09:51:06.890Z</time>
      </trkpt>
      <trkpt lat="44.12579" lon="0.46439">
        <ele>93</ele>
        <time>2022-09-15T09:51:07.890Z</time>
      </trkpt>
      <trkpt lat="44.12578" lon="0.46437">
        <ele>93</ele>
        <time>2022-09-15T09:51:08.890Z</time>
      </trkpt>
      <trkpt lat="44.12578" lon="0.46436">
        <ele>94</ele>
        <time>2022-09-15T09:51:09.890Z</time>
      </trkpt>
      <trkpt lat="44.12577" lon="0.46435">
        <ele>94</ele>
        <time>2022-09-15T09:51:10.890Z</time>
      </trkpt>
      <trkpt lat="44.12577" lon="0.46434">
        <ele>93</ele>
        <time>2022-09-15T09:51:11.890Z</time>
      </trkpt>
      <trkpt lat="44.12576" lon="0.46433">
        <ele>93</ele>
        <time>2022-09-15T09:51:12.890Z</time>
      </trkpt>
      <trkpt lat="44.12576" lon="0.46432">
        <ele>93</ele>
        <time>2022-09-15T09:51:13.890Z</time>
      </trkpt>
      <trkpt lat="44.12575" lon="0.46431">
        <ele>93</ele>
        <time>2022-09-15T09:51:14.890Z</time>
      </trkpt>
      <trkpt lat="44.12575" lon="0.4643">
        <ele>93</ele>
        <time>2022-09-15T09:51:15.890Z</time>
      </trkpt>
      <trkpt lat="44.12574" lon="0.46429">
        <ele>93</ele>
        <time>2022-09-15T09:51:16.890Z</time>
      </trkpt>
      <trkpt lat="44.12573" lon="0.46427">
        <ele>93</ele>
        <time>2022-09-15T09:51:17.890Z</time>
      </trkpt>
      <trkpt lat="44.12572" lon="0.46426">
        <ele>93</ele>
        <time>2022-09-15T09:51:18.890Z</time>
      </trkpt>
      <trkpt lat="44.12571" lon="0.46425">
        <ele>93</ele>
        <time>2022-09-15T09:51:19.890Z</time>
      </trkpt>
      <trkpt lat="44.12571" lon="0.46424">
        <ele>94</ele>
        <time>2022-09-15T09:51:20.890Z</time>
      </trkpt>
      <trkpt lat="44.1257" lon="0.46423">
        <ele>93</ele>
        <time>2022-09-15T09:51:21.890Z</time>
      </trkpt>
      <trkpt lat="44.12569" lon="0.46421">
        <ele>94</ele>
        <time>2022-09-15T09:51:22.890Z</time>
      </trkpt>
      <trkpt lat="44.12569" lon="0.4642">
        <ele>94</ele>
        <time>2022-09-15T09:51:23.890Z</time>
      </trkpt>
      <trkpt lat="44.12568" lon="0.46418">
        <ele>94</ele>
        <time>2022-09-15T09:51:24.890Z</time>
      </trkpt>
      <trkpt lat="44.12567" lon="0.46417">
        <ele>95</ele>
        <time>2022-09-15T09:51:25.890Z</time>
      </trkpt>
      <trkpt lat="44.12567" lon="0.46416">
        <ele>95</ele>
        <time>2022-09-15T09:51:26.890Z</time>
      </trkpt>
      <trkpt lat="44.12566" lon="0.46414">
        <ele>95</ele>
        <time>2022-09-15T09:51:27.890Z</time>
      </trkpt>
      <trkpt lat="44.12566" lon="0.46413">
        <ele>95</ele>
        <time>2022-09-15T09:51:28.890Z</time>
      </trkpt>
      <trkpt lat="44.12565" lon="0.46412">
        <ele>95</ele>
        <time>2022-09-15T09:51:29.890Z</time>
      </trkpt>
      <trkpt lat="44.12565" lon="0.46411">
        <ele>95</ele>
        <time>2022-09-15T09:51:30.890Z</time>
      </trkpt>
      <trkpt lat="44.12564" lon="0.46409">
        <ele>95</ele>
        <time>2022-09-15T09:51:31.890Z</time>
      </trkpt>
      <trkpt lat="44.12564" lon="0.46408">
        <ele>95</ele>
        <time>2022-09-15T09:51:32.890Z</time>
      </trkpt>
      <trkpt lat="44.12563" lon="0.46407">
        <ele>95</ele>
        <time>2022-09-15T09:51:33.890Z</time>
      </trkpt>
      <trkpt lat="44.12563" lon="0.46405">
        <ele>95</ele>
        <time>2022-09-15T09:51:34.890Z</time>
      </trkpt>
      <trkpt lat="44.12562" lon="0.46404">
        <ele>95</ele>
        <time>2022-09-15T09:51:35.890Z</time>
      </trkpt>
      <trkpt lat="44.12562" lon="0.46403">
        <ele>95</ele>
        <time>2022-09-15T09:51:36.890Z</time>
      </trkpt>
      <trkpt lat="44.12561" lon="0.46401">
        <ele>95</ele>
        <time>2022-09-15T09:51:37.890Z</time>
      </trkpt>
      <trkpt lat="44.12561" lon="0.464">
        <ele>95</ele>
        <time>2022-09-15T09:51:38.890Z</time>
      </trkpt>
      <trkpt lat="44.1256" lon="0.46399">
        <ele>95</ele>
        <time>2022-09-15T09:51:39.890Z</time>
      </trkpt>
      <trkpt lat="44.12559" lon="0.46397">
        <ele>96</ele>
        <time>2022-09-15T09:51:40.890Z</time>
      </trkpt>
      <trkpt lat="44.12559" lon="0.46396">
        <ele>96</ele>
        <time>2022-09-15T09:51:41.890Z</time>
      </trkpt>
      <trkpt lat="44.12558" lon="0.46395">
        <ele>96</ele>
        <time>2022-09-15T09:51:42.890Z</time>
      </trkpt>
      <trkpt lat="44.12558" lon="0.46394">
        <ele>96</ele>
        <time>2022-09-15T09:51:43.890Z</time>
      </trkpt>
      <trkpt lat="44.12557" lon="0.46393">
        <ele>96</ele>
        <time>2022-09-15T09:51:44.890Z</time>
      </trkpt>
      <trkpt lat="44.12557" lon="0.46391">
        <ele>96</ele>
        <time>2022-09-15T09:51:45.890Z</time>
      </trkpt>
      <trkpt lat="44.12556" lon="0.4639">
        <ele>96</ele>
        <time>2022-09-15T09:51:46.890Z</time>
      </trkpt>
      <trkpt lat="44.12555" lon="0.46389">
        <ele>96</ele>
        <time>2022-09-15T09:51:47.890Z</time>
      </trkpt>
      <trkpt lat="44.12555" lon="0.46388">
        <ele>96</ele>
        <time>2022-09-15T09:51:48.890Z</time>
      </trkpt>
      <trkpt lat="44.12554" lon="0.46387">
        <ele>96</ele>
        <time>2022-09-15T09:51:49.890Z</time>
      </trkpt>
      <trkpt lat="44.12553" lon="0.46386">
        <ele>97</ele>
        <time>2022-09-15T09:51:50.890Z</time>
      </trkpt>
      <trkpt lat="44.12553" lon="0.46385">
        <ele>96</ele>
        <time>2022-09-15T09:51:51.890Z</time>
      </trkpt>
      <trkpt lat="44.12552" lon="0.46384">
        <ele>97</ele>
        <time>2022-09-15T09:51:52.890Z</time>
      </trkpt>
      <trkpt lat="44.12551" lon="0.46383">
        <ele>97</ele>
        <time>2022-09-15T09:51:53.890Z</time>
      </trkpt>
      <trkpt lat="44.1255" lon="0.46382">
        <ele>97</ele>
        <time>2022-09-15T09:51:54.890Z</time>
      </trkpt>
      <trkpt lat="44.1255" lon="0.46381">
        <ele>97</ele>
        <time>2022-09-15T09:51:55.890Z</time>
      </trkpt>
      <trkpt lat="44.1255" lon="0.4638">
        <ele>97</ele>
        <time>2022-09-15T09:51:56.890Z</time>
      </trkpt>
      <trkpt lat="44.1255" lon="0.4638">
        <ele>97</ele>
        <time>2022-09-15T09:51:57.890Z</time>
      </trkpt>
      <trkpt lat="44.1255" lon="0.46379">
        <ele>97</ele>
        <time>2022-09-15T09:51:58.890Z</time>
      </trkpt>
      <trkpt lat="44.12549" lon="0.46379">
        <ele>98</ele>
        <time>2022-09-15T09:51:59.890Z</time>
      </trkpt>
      <trkpt lat="44.12549" lon="0.46378">
        <ele>98</ele>
        <time>2022-09-15T09:52:00.890Z</time>
      </trkpt>
      <trkpt lat="44.12549" lon="0.46378">
        <ele>98</ele>
        <time>2022-09-15T09:52:01.890Z</time>
      </trkpt>
      <trkpt lat="44.12549" lon="0.46378">
        <ele>98</ele>
        <time>2022-09-15T09:52:02.890Z</time>
      </trkpt>
      <trkpt lat="44.12549" lon="0.46378">
        <ele>99</ele>
        <time>2022-09-15T09:52:03.890Z</time>
      </trkpt>
      <trkpt lat="44.12549" lon="0.46378">
        <ele>99</ele>
        <time>2022-09-15T09:52:04.890Z</time>
      </trkpt>
      <trkpt lat="44.12548" lon="0.46377">
        <ele>99</ele>
        <time>2022-09-15T09:52:05.890Z</time>
      </trkpt>
      <trkpt lat="44.12546" lon="0.4637">
        <ele>101</ele>
        <time>2022-09-15T09:52:37.894Z</time>
      </trkpt>
      <trkpt lat="44.12547" lon="0.4637">
        <ele>101</ele>
        <time>2022-09-15T09:52:38.894Z</time>
      </trkpt>
      <trkpt lat="44.12547" lon="0.4637">
        <ele>101</ele>
        <time>2022-09-15T09:52:39.894Z</time>
      </trkpt>
      <trkpt lat="44.12547" lon="0.4637">
        <ele>101</ele>
        <time>2022-09-15T09:52:40.894Z</time>
      </trkpt>
      <trkpt lat="44.12547" lon="0.4637">
        <ele>101</ele>
        <time>2022-09-15T09:52:41.894Z</time>
      </trkpt>
      <trkpt lat="44.12547" lon="0.4637">
        <ele>101</ele>
        <time>2022-09-15T09:52:42.894Z</time>
      </trkpt>
      <trkpt lat="44.12547" lon="0.4637">
        <ele>101</ele>
        <time>2022-09-15T09:52:43.894Z</time>
      </trkpt>
      <trkpt lat="44.12547" lon="0.4637">
        <ele>101</ele>
        <time>2022-09-15T09:52:44.894Z</time>
      </trkpt>
      <trkpt lat="44.1255" lon="0.46369">
        <ele>101</ele>
        <time>2022-09-15T09:53:24.898Z</time>
      </trkpt>
      <trkpt lat="44.1255" lon="0.46368">
        <ele>101</ele>
        <time>2022-09-15T09:53:25.898Z</time>
      </trkpt>
      <trkpt lat="44.12551" lon="0.46368">
        <ele>101</ele>
        <time>2022-09-15T09:53:26.898Z</time>
      </trkpt>
      <trkpt lat="44.12551" lon="0.46368">
        <ele>101</ele>
        <time>2022-09-15T09:53:27.898Z</time>
      </trkpt>
      <trkpt lat="44.12551" lon="0.46368">
        <ele>101</ele>
        <time>2022-09-15T09:53:28.898Z</time>
      </trkpt>
      <trkpt lat="44.12551" lon="0.46369">
        <ele>101</ele>
        <time>2022-09-15T09:53:29.898Z</time>
      </trkpt>
      <trkpt lat="44.12551" lon="0.46369">
        <ele>101</ele>
        <time>2022-09-15T09:53:30.898Z</time>
      </trkpt>
      <trkpt lat="44.12551" lon="0.4637">
        <ele>101</ele>
        <time>2022-09-15T09:53:31.898Z</time>
      </trkpt>
      <trkpt lat="44.1255" lon="0.4637">
        <ele>100</ele>
        <time>2022-09-15T09:53:32.898Z</time>
      </trkpt>
      <trkpt lat="44.12549" lon="0.4637">
        <ele>100</ele>
        <time>2022-09-15T09:53:33.898Z</time>
      </trkpt>
      <trkpt lat="44.12548" lon="0.4637">
        <ele>100</ele>
        <time>2022-09-15T09:53:34.898Z</time>
      </trkpt>
      <trkpt lat="44.12547" lon="0.4637">
        <ele>100</ele>
        <time>2022-09-15T09:53:35.898Z</time>
      </trkpt>
      <trkpt lat="44.12546" lon="0.4637">
        <ele>100</ele>
        <time>2022-09-15T09:53:36.898Z</time>
      </trkpt>
      <trkpt lat="44.12545" lon="0.4637">
        <ele>100</ele>
        <time>2022-09-15T09:53:37.898Z</time>
      </trkpt>
      <trkpt lat="44.12544" lon="0.4637">
        <ele>100</ele>
        <time>2022-09-15T09:53:38.898Z</time>
      </trkpt>
      <trkpt lat="44.12543" lon="0.4637">
        <ele>99</ele>
        <time>2022-09-15T09:53:39.898Z</time>
      </trkpt>
      <trkpt lat="44.12542" lon="0.4637">
        <ele>99</ele>
        <time>2022-09-15T09:53:40.898Z</time>
      </trkpt>
      <trkpt lat="44.12541" lon="0.4637">
        <ele>99</ele>
        <time>2022-09-15T09:53:41.898Z</time>
      </trkpt>
      <trkpt lat="44.12539" lon="0.46369">
        <ele>99</ele>
        <time>2022-09-15T09:53:42.898Z</time>
      </trkpt>
      <trkpt lat="44.12538" lon="0.46369">
        <ele>99</ele>
        <time>2022-09-15T09:53:43.898Z</time>
      </trkpt>
      <trkpt lat="44.12537" lon="0.46368">
        <ele>99</ele>
        <time>2022-09-15T09:53:44.898Z</time>
      </trkpt>
      <trkpt lat="44.12536" lon="0.46368">
        <ele>99</ele>
        <time>2022-09-15T09:53:45.898Z</time>
      </trkpt>
      <trkpt lat="44.12534" lon="0.46367">
        <ele>99</ele>
        <time>2022-09-15T09:53:46.898Z</time>
      </trkpt>
      <trkpt lat="44.12533" lon="0.46366">
        <ele>99</ele>
        <time>2022-09-15T09:53:47.898Z</time>
      </trkpt>
      <trkpt lat="44.12532" lon="0.46366">
        <ele>99</ele>
        <time>2022-09-15T09:53:48.898Z</time>
      </trkpt>
      <trkpt lat="44.12531" lon="0.46365">
        <ele>99</ele>
        <time>2022-09-15T09:53:49.898Z</time>
      </trkpt>
      <trkpt lat="44.1253" lon="0.46364">
        <ele>99</ele>
        <time>2022-09-15T09:53:50.898Z</time>
      </trkpt>
      <trkpt lat="44.12529" lon="0.46363">
        <ele>99</ele>
        <time>2022-09-15T09:53:51.898Z</time>
      </trkpt>
      <trkpt lat="44.12528" lon="0.46361">
        <ele>100</ele>
        <time>2022-09-15T09:53:52.898Z</time>
      </trkpt>
      <trkpt lat="44.12527" lon="0.4636">
        <ele>99</ele>
        <time>2022-09-15T09:53:53.898Z</time>
      </trkpt>
      <trkpt lat="44.12526" lon="0.46359">
        <ele>99</ele>
        <time>2022-09-15T09:53:54.898Z</time>
      </trkpt>
      <trkpt lat="44.12525" lon="0.46357">
        <ele>99</ele>
        <time>2022-09-15T09:53:55.898Z</time>
      </trkpt>
      <trkpt lat="44.12524" lon="0.46356">
        <ele>99</ele>
        <time>2022-09-15T09:53:56.898Z</time>
      </trkpt>
      <trkpt lat="44.12523" lon="0.46355">
        <ele>99</ele>
        <time>2022-09-15T09:53:57.898Z</time>
      </trkpt>
      <trkpt lat="44.12522" lon="0.46353">
        <ele>99</ele>
        <time>2022-09-15T09:53:58.898Z</time>
      </trkpt>
      <trkpt lat="44.12522" lon="0.46352">
        <ele>99</ele>
        <time>2022-09-15T09:53:59.898Z</time>
      </trkpt>
      <trkpt lat="44.12521" lon="0.46351">
        <ele>99</ele>
        <time>2022-09-15T09:54:00.898Z</time>
      </trkpt>
      <trkpt lat="44.1252" lon="0.46349">
        <ele>99</ele>
        <time>2022-09-15T09:54:01.898Z</time>
      </trkpt>
      <trkpt lat="44.12519" lon="0.46348">
        <ele>99</ele>
        <time>2022-09-15T09:54:02.898Z</time>
      </trkpt>
      <trkpt lat="44.12518" lon="0.46346">
        <ele>99</ele>
        <time>2022-09-15T09:54:03.898Z</time>
      </trkpt>
      <trkpt lat="44.12517" lon="0.46345">
        <ele>99</ele>
        <time>2022-09-15T09:54:04.898Z</time>
      </trkpt>
      <trkpt lat="44.12516" lon="0.46343">
        <ele>100</ele>
        <time>2022-09-15T09:54:05.898Z</time>
      </trkpt>
      <trkpt lat="44.12515" lon="0.46342">
        <ele>100</ele>
        <time>2022-09-15T09:54:06.898Z</time>
      </trkpt>
      <trkpt lat="44.12514" lon="0.46341">
        <ele>100</ele>
        <time>2022-09-15T09:54:07.898Z</time>
      </trkpt>
      <trkpt lat="44.12513" lon="0.46339">
        <ele>100</ele>
        <time>2022-09-15T09:54:08.898Z</time>
      </trkpt>
      <trkpt lat="44.12512" lon="0.46338">
        <ele>100</ele>
        <time>2022-09-15T09:54:09.898Z</time>
      </trkpt>
      <trkpt lat="44.12512" lon="0.46336">
        <ele>100</ele>
        <time>2022-09-15T09:54:10.898Z</time>
      </trkpt>
      <trkpt lat="44.12511" lon="0.46335">
        <ele>100</ele>
        <time>2022-09-15T09:54:11.898Z</time>
      </trkpt>
      <trkpt lat="44.1251" lon="0.46333">
        <ele>100</ele>
        <time>2022-09-15T09:54:12.898Z</time>
      </trkpt>
      <trkpt lat="44.12509" lon="0.46332">
        <ele>100</ele>
        <time>2022-09-15T09:54:13.898Z</time>
      </trkpt>
      <trkpt lat="44.12508" lon="0.46331">
        <ele>100</ele>
        <time>2022-09-15T09:54:14.898Z</time>
      </trkpt>
      <trkpt lat="44.12507" lon="0.4633">
        <ele>100</ele>
        <time>2022-09-15T09:54:15.898Z</time>
      </trkpt>
      <trkpt lat="44.12507" lon="0.46329">
        <ele>100</ele>
        <time>2022-09-15T09:54:16.898Z</time>
      </trkpt>
      <trkpt lat="44.12506" lon="0.46328">
        <ele>100</ele>
        <time>2022-09-15T09:54:17.898Z</time>
      </trkpt>
      <trkpt lat="44.12505" lon="0.46327">
        <ele>101</ele>
        <time>2022-09-15T09:54:18.898Z</time>
      </trkpt>
      <trkpt lat="44.12504" lon="0.46325">
        <ele>101</ele>
        <time>2022-09-15T09:54:19.898Z</time>
      </trkpt>
      <trkpt lat="44.12503" lon="0.46324">
        <ele>101</ele>
        <time>2022-09-15T09:54:20.898Z</time>
      </trkpt>
      <trkpt lat="44.12502" lon="0.46322">
        <ele>101</ele>
        <time>2022-09-15T09:54:21.898Z</time>
      </trkpt>
      <trkpt lat="44.12502" lon="0.46321">
        <ele>101</ele>
        <time>2022-09-15T09:54:22.898Z</time>
      </trkpt>
      <trkpt lat="44.12501" lon="0.4632">
        <ele>101</ele>
        <time>2022-09-15T09:54:23.898Z</time>
      </trkpt>
      <trkpt lat="44.125" lon="0.46319">
        <ele>101</ele>
        <time>2022-09-15T09:54:24.898Z</time>
      </trkpt>
      <trkpt lat="44.12499" lon="0.46318">
        <ele>101</ele>
        <time>2022-09-15T09:54:25.898Z</time>
      </trkpt>
      <trkpt lat="44.12499" lon="0.46316">
        <ele>101</ele>
        <time>2022-09-15T09:54:26.898Z</time>
      </trkpt>
      <trkpt lat="44.12498" lon="0.46315">
        <ele>101</ele>
        <time>2022-09-15T09:54:27.898Z</time>
      </trkpt>
      <trkpt lat="44.12497" lon="0.46314">
        <ele>101</ele>
        <time>2022-09-15T09:54:28.898Z</time>
      </trkpt>
      <trkpt lat="44.12496" lon="0.46312">
        <ele>101</ele>
        <time>2022-09-15T09:54:29.898Z</time>
      </trkpt>
      <trkpt lat="44.12495" lon="0.46311">
        <ele>101</ele>
        <time>2022-09-15T09:54:30.898Z</time>
      </trkpt>
      <trkpt lat="44.12494" lon="0.4631">
        <ele>101</ele>
        <time>2022-09-15T09:54:31.898Z</time>
      </trkpt>
      <trkpt lat="44.12494" lon="0.46308">
        <ele>101</ele>
        <time>2022-09-15T09:54:32.898Z</time>
      </trkpt>
      <trkpt lat="44.12493" lon="0.46307">
        <ele>101</ele>
        <time>2022-09-15T09:54:33.898Z</time>
      </trkpt>
      <trkpt lat="44.12492" lon="0.46306">
        <ele>101</ele>
        <time>2022-09-15T09:54:34.898Z</time>
      </trkpt>
      <trkpt lat="44.12491" lon="0.46305">
        <ele>101</ele>
        <time>2022-09-15T09:54:35.898Z</time>
      </trkpt>
      <trkpt lat="44.1249" lon="0.46303">
        <ele>101</ele>
        <time>2022-09-15T09:54:36.898Z</time>
      </trkpt>
      <trkpt lat="44.1249" lon="0.46302">
        <ele>102</ele>
        <time>2022-09-15T09:54:37.898Z</time>
      </trkpt>
      <trkpt lat="44.12489" lon="0.463">
        <ele>102</ele>
        <time>2022-09-15T09:54:38.898Z</time>
      </trkpt>
      <trkpt lat="44.12488" lon="0.46299">
        <ele>102</ele>
        <time>2022-09-15T09:54:39.898Z</time>
      </trkpt>
      <trkpt lat="44.12487" lon="0.46298">
        <ele>102</ele>
        <time>2022-09-15T09:54:40.898Z</time>
      </trkpt>
      <trkpt lat="44.12487" lon="0.46297">
        <ele>102</ele>
        <time>2022-09-15T09:54:41.898Z</time>
      </trkpt>
      <trkpt lat="44.12486" lon="0.46296">
        <ele>102</ele>
        <time>2022-09-15T09:54:42.898Z</time>
      </trkpt>
      <trkpt lat="44.12485" lon="0.46295">
        <ele>102</ele>
        <time>2022-09-15T09:54:43.898Z</time>
      </trkpt>
      <trkpt lat="44.12484" lon="0.46293">
        <ele>102</ele>
        <time>2022-09-15T09:54:44.898Z</time>
      </trkpt>
      <trkpt lat="44.12484" lon="0.46292">
        <ele>102</ele>
        <time>2022-09-15T09:54:45.898Z</time>
      </trkpt>
      <trkpt lat="44.12483" lon="0.46291">
        <ele>102</ele>
        <time>2022-09-15T09:54:46.898Z</time>
      </trkpt>
      <trkpt lat="44.12482" lon="0.46289">
        <ele>102</ele>
        <time>2022-09-15T09:54:47.898Z</time>
      </trkpt>
      <trkpt lat="44.12481" lon="0.46288">
        <ele>102</ele>
        <time>2022-09-15T09:54:48.898Z</time>
      </trkpt>
      <trkpt lat="44.1248" lon="0.46287">
        <ele>102</ele>
        <time>2022-09-15T09:54:49.898Z</time>
      </trkpt>
      <trkpt lat="44.1248" lon="0.46286">
        <ele>102</ele>
        <time>2022-09-15T09:54:50.898Z</time>
      </trkpt>
      <trkpt lat="44.12479" lon="0.46284">
        <ele>102</ele>
        <time>2022-09-15T09:54:51.898Z</time>
      </trkpt>
      <trkpt lat="44.12478" lon="0.46283">
        <ele>102</ele>
        <time>2022-09-15T09:54:52.898Z</time>
      </trkpt>
      <trkpt lat="44.12478" lon="0.46282">
        <ele>102</ele>
        <time>2022-09-15T09:54:53.898Z</time>
      </trkpt>
      <trkpt lat="44.12477" lon="0.4628">
        <ele>102</ele>
        <time>2022-09-15T09:54:54.898Z</time>
      </trkpt>
      <trkpt lat="44.12476" lon="0.46279">
        <ele>102</ele>
        <time>2022-09-15T09:54:55.898Z</time>
      </trkpt>
      <trkpt lat="44.12475" lon="0.46278">
        <ele>102</ele>
        <time>2022-09-15T09:54:56.898Z</time>
      </trkpt>
      <trkpt lat="44.12475" lon="0.46277">
        <ele>102</ele>
        <time>2022-09-15T09:54:57.898Z</time>
      </trkpt>
      <trkpt lat="44.12474" lon="0.46276">
        <ele>102</ele>
        <time>2022-09-15T09:54:58.898Z</time>
      </trkpt>
      <trkpt lat="44.12473" lon="0.46274">
        <ele>102</ele>
        <time>2022-09-15T09:54:59.898Z</time>
      </trkpt>
      <trkpt lat="44.12472" lon="0.46273">
        <ele>102</ele>
        <time>2022-09-15T09:55:00.898Z</time>
      </trkpt>
      <trkpt lat="44.12471" lon="0.46272">
        <ele>102</ele>
        <time>2022-09-15T09:55:01.898Z</time>
      </trkpt>
      <trkpt lat="44.12471" lon="0.4627">
        <ele>102</ele>
        <time>2022-09-15T09:55:02.898Z</time>
      </trkpt>
      <trkpt lat="44.1247" lon="0.46269">
        <ele>102</ele>
        <time>2022-09-15T09:55:03.898Z</time>
      </trkpt>
      <trkpt lat="44.12469" lon="0.46268">
        <ele>102</ele>
        <time>2022-09-15T09:55:04.898Z</time>
      </trkpt>
      <trkpt lat="44.12468" lon="0.46267">
        <ele>102</ele>
        <time>2022-09-15T09:55:05.898Z</time>
      </trkpt>
      <trkpt lat="44.12468" lon="0.46266">
        <ele>102</ele>
        <time>2022-09-15T09:55:06.898Z</time>
      </trkpt>
      <trkpt lat="44.12467" lon="0.46265">
        <ele>102</ele>
        <time>2022-09-15T09:55:07.898Z</time>
      </trkpt>
      <trkpt lat="44.12466" lon="0.46264">
        <ele>102</ele>
        <time>2022-09-15T09:55:08.898Z</time>
      </trkpt>
      <trkpt lat="44.12465" lon="0.46262">
        <ele>102</ele>
        <time>2022-09-15T09:55:09.898Z</time>
      </trkpt>
      <trkpt lat="44.12464" lon="0.46261">
        <ele>103</ele>
        <time>2022-09-15T09:55:10.898Z</time>
      </trkpt>
      <trkpt lat="44.12463" lon="0.4626">
        <ele>103</ele>
        <time>2022-09-15T09:55:11.898Z</time>
      </trkpt>
      <trkpt lat="44.12463" lon="0.46259">
        <ele>103</ele>
        <time>2022-09-15T09:55:12.898Z</time>
      </trkpt>
      <trkpt lat="44.12462" lon="0.46258">
        <ele>103</ele>
        <time>2022-09-15T09:55:13.898Z</time>
      </trkpt>
      <trkpt lat="44.12461" lon="0.46256">
        <ele>103</ele>
        <time>2022-09-15T09:55:14.898Z</time>
      </trkpt>
      <trkpt lat="44.1246" lon="0.46255">
        <ele>103</ele>
        <time>2022-09-15T09:55:15.898Z</time>
      </trkpt>
      <trkpt lat="44.1246" lon="0.46254">
        <ele>103</ele>
        <time>2022-09-15T09:55:16.898Z</time>
      </trkpt>
      <trkpt lat="44.12459" lon="0.46253">
        <ele>103</ele>
        <time>2022-09-15T09:55:17.898Z</time>
      </trkpt>
      <trkpt lat="44.12458" lon="0.46252">
        <ele>103</ele>
        <time>2022-09-15T09:55:18.898Z</time>
      </trkpt>
      <trkpt lat="44.12457" lon="0.46251">
        <ele>103</ele>
        <time>2022-09-15T09:55:19.898Z</time>
      </trkpt>
      <trkpt lat="44.12456" lon="0.4625">
        <ele>103</ele>
        <time>2022-09-15T09:55:20.898Z</time>
      </trkpt>
      <trkpt lat="44.12456" lon="0.46249">
        <ele>103</ele>
        <time>2022-09-15T09:55:21.898Z</time>
      </trkpt>
      <trkpt lat="44.12455" lon="0.46248">
        <ele>103</ele>
        <time>2022-09-15T09:55:22.898Z</time>
      </trkpt>
      <trkpt lat="44.12454" lon="0.46246">
        <ele>103</ele>
        <time>2022-09-15T09:55:23.898Z</time>
      </trkpt>
      <trkpt lat="44.12453" lon="0.46245">
        <ele>103</ele>
        <time>2022-09-15T09:55:24.898Z</time>
      </trkpt>
      <trkpt lat="44.12452" lon="0.46244">
        <ele>103</ele>
        <time>2022-09-15T09:55:25.898Z</time>
      </trkpt>
      <trkpt lat="44.12451" lon="0.46243">
        <ele>103</ele>
        <time>2022-09-15T09:55:26.898Z</time>
      </trkpt>
      <trkpt lat="44.12451" lon="0.46241">
        <ele>103</ele>
        <time>2022-09-15T09:55:27.898Z</time>
      </trkpt>
      <trkpt lat="44.1245" lon="0.4624">
        <ele>103</ele>
        <time>2022-09-15T09:55:28.898Z</time>
      </trkpt>
      <trkpt lat="44.12449" lon="0.46239">
        <ele>104</ele>
        <time>2022-09-15T09:55:29.898Z</time>
      </trkpt>
      <trkpt lat="44.12448" lon="0.46238">
        <ele>104</ele>
        <time>2022-09-15T09:55:30.898Z</time>
      </trkpt>
      <trkpt lat="44.12448" lon="0.46237">
        <ele>104</ele>
        <time>2022-09-15T09:55:31.898Z</time>
      </trkpt>
      <trkpt lat="44.12447" lon="0.46236">
        <ele>104</ele>
        <time>2022-09-15T09:55:32.898Z</time>
      </trkpt>
      <trkpt lat="44.12446" lon="0.46234">
        <ele>104</ele>
        <time>2022-09-15T09:55:33.898Z</time>
      </trkpt>
      <trkpt lat="44.12445" lon="0.46233">
        <ele>104</ele>
        <time>2022-09-15T09:55:34.898Z</time>
      </trkpt>
      <trkpt lat="44.12444" lon="0.46232">
        <ele>104</ele>
        <time>2022-09-15T09:55:35.898Z</time>
      </trkpt>
      <trkpt lat="44.12444" lon="0.46231">
        <ele>104</ele>
        <time>2022-09-15T09:55:36.898Z</time>
      </trkpt>
      <trkpt lat="44.12443" lon="0.4623">
        <ele>104</ele>
        <time>2022-09-15T09:55:37.898Z</time>
      </trkpt>
      <trkpt lat="44.12442" lon="0.46229">
        <ele>104</ele>
        <time>2022-09-15T09:55:38.898Z</time>
      </trkpt>
      <trkpt lat="44.12441" lon="0.46227">
        <ele>104</ele>
        <time>2022-09-15T09:55:39.898Z</time>
      </trkpt>
      <trkpt lat="44.1244" lon="0.46226">
        <ele>104</ele>
        <time>2022-09-15T09:55:40.898Z</time>
      </trkpt>
      <trkpt lat="44.1244" lon="0.46225">
        <ele>105</ele>
        <time>2022-09-15T09:55:41.898Z</time>
      </trkpt>
      <trkpt lat="44.12439" lon="0.46224">
        <ele>105</ele>
        <time>2022-09-15T09:55:42.898Z</time>
      </trkpt>
      <trkpt lat="44.12438" lon="0.46223">
        <ele>105</ele>
        <time>2022-09-15T09:55:43.898Z</time>
      </trkpt>
      <trkpt lat="44.12437" lon="0.46222">
        <ele>105</ele>
        <time>2022-09-15T09:55:44.898Z</time>
      </trkpt>
      <trkpt lat="44.12436" lon="0.46221">
        <ele>106</ele>
        <time>2022-09-15T09:55:45.898Z</time>
      </trkpt>
      <trkpt lat="44.12436" lon="0.4622">
        <ele>106</ele>
        <time>2022-09-15T09:55:46.898Z</time>
      </trkpt>
      <trkpt lat="44.12435" lon="0.46219">
        <ele>106</ele>
        <time>2022-09-15T09:55:47.898Z</time>
      </trkpt>
      <trkpt lat="44.12434" lon="0.46218">
        <ele>106</ele>
        <time>2022-09-15T09:55:48.898Z</time>
      </trkpt>
      <trkpt lat="44.12433" lon="0.46217">
        <ele>106</ele>
        <time>2022-09-15T09:55:49.898Z</time>
      </trkpt>
      <trkpt lat="44.12432" lon="0.46216">
        <ele>106</ele>
        <time>2022-09-15T09:55:50.898Z</time>
      </trkpt>
      <trkpt lat="44.12431" lon="0.46215">
        <ele>106</ele>
        <time>2022-09-15T09:55:51.898Z</time>
      </trkpt>
      <trkpt lat="44.12431" lon="0.46214">
        <ele>106</ele>
        <time>2022-09-15T09:55:52.898Z</time>
      </trkpt>
      <trkpt lat="44.1243" lon="0.46212">
        <ele>106</ele>
        <time>2022-09-15T09:55:53.898Z</time>
      </trkpt>
      <trkpt lat="44.12429" lon="0.46211">
        <ele>106</ele>
        <time>2022-09-15T09:55:54.898Z</time>
      </trkpt>
      <trkpt lat="44.12428" lon="0.4621">
        <ele>106</ele>
        <time>2022-09-15T09:55:55.898Z</time>
      </trkpt>
      <trkpt lat="44.12428" lon="0.46209">
        <ele>107</ele>
        <time>2022-09-15T09:55:56.898Z</time>
      </trkpt>
      <trkpt lat="44.12427" lon="0.46208">
        <ele>107</ele>
        <time>2022-09-15T09:55:57.898Z</time>
      </trkpt>
      <trkpt lat="44.12426" lon="0.46206">
        <ele>107</ele>
        <time>2022-09-15T09:55:58.898Z</time>
      </trkpt>
      <trkpt lat="44.12425" lon="0.46205">
        <ele>107</ele>
        <time>2022-09-15T09:55:59.898Z</time>
      </trkpt>
      <trkpt lat="44.12424" lon="0.46204">
        <ele>107</ele>
        <time>2022-09-15T09:56:00.898Z</time>
      </trkpt>
      <trkpt lat="44.12424" lon="0.46203">
        <ele>107</ele>
        <time>2022-09-15T09:56:01.898Z</time>
      </trkpt>
      <trkpt lat="44.12423" lon="0.46202">
        <ele>107</ele>
        <time>2022-09-15T09:56:02.898Z</time>
      </trkpt>
      <trkpt lat="44.12422" lon="0.462">
        <ele>107</ele>
        <time>2022-09-15T09:56:03.898Z</time>
      </trkpt>
      <trkpt lat="44.12421" lon="0.46199">
        <ele>107</ele>
        <time>2022-09-15T09:56:04.898Z</time>
      </trkpt>
      <trkpt lat="44.12421" lon="0.46198">
        <ele>107</ele>
        <time>2022-09-15T09:56:05.898Z</time>
      </trkpt>
      <trkpt lat="44.1242" lon="0.46197">
        <ele>107</ele>
        <time>2022-09-15T09:56:06.898Z</time>
      </trkpt>
      <trkpt lat="44.12419" lon="0.46196">
        <ele>107</ele>
        <time>2022-09-15T09:56:07.898Z</time>
      </trkpt>
      <trkpt lat="44.12419" lon="0.46195">
        <ele>107</ele>
        <time>2022-09-15T09:56:08.898Z</time>
      </trkpt>
      <trkpt lat="44.12418" lon="0.46194">
        <ele>107</ele>
        <time>2022-09-15T09:56:09.898Z</time>
      </trkpt>
      <trkpt lat="44.12417" lon="0.46193">
        <ele>107</ele>
        <time>2022-09-15T09:56:10.898Z</time>
      </trkpt>
      <trkpt lat="44.12416" lon="0.46192">
        <ele>108</ele>
        <time>2022-09-15T09:56:11.898Z</time>
      </trkpt>
      <trkpt lat="44.12415" lon="0.46191">
        <ele>108</ele>
        <time>2022-09-15T09:56:12.898Z</time>
      </trkpt>
      <trkpt lat="44.12415" lon="0.46191">
        <ele>108</ele>
        <time>2022-09-15T09:56:13.898Z</time>
      </trkpt>
      <trkpt lat="44.12414" lon="0.4619">
        <ele>108</ele>
        <time>2022-09-15T09:56:14.898Z</time>
      </trkpt>
      <trkpt lat="44.12413" lon="0.46189">
        <ele>108</ele>
        <time>2022-09-15T09:56:15.898Z</time>
      </trkpt>
      <trkpt lat="44.12413" lon="0.46187">
        <ele>107</ele>
        <time>2022-09-15T09:56:16.898Z</time>
      </trkpt>
      <trkpt lat="44.12412" lon="0.46186">
        <ele>108</ele>
        <time>2022-09-15T09:56:17.898Z</time>
      </trkpt>
      <trkpt lat="44.12411" lon="0.46185">
        <ele>108</ele>
        <time>2022-09-15T09:56:18.898Z</time>
      </trkpt>
      <trkpt lat="44.12411" lon="0.46184">
        <ele>108</ele>
        <time>2022-09-15T09:56:19.898Z</time>
      </trkpt>
      <trkpt lat="44.1241" lon="0.46183">
        <ele>109</ele>
        <time>2022-09-15T09:56:20.898Z</time>
      </trkpt>
      <trkpt lat="44.12409" lon="0.46182">
        <ele>109</ele>
        <time>2022-09-15T09:56:21.898Z</time>
      </trkpt>
      <trkpt lat="44.12408" lon="0.46181">
        <ele>109</ele>
        <time>2022-09-15T09:56:22.898Z</time>
      </trkpt>
      <trkpt lat="44.12408" lon="0.46179">
        <ele>109</ele>
        <time>2022-09-15T09:56:23.898Z</time>
      </trkpt>
      <trkpt lat="44.12407" lon="0.46178">
        <ele>109</ele>
        <time>2022-09-15T09:56:24.898Z</time>
      </trkpt>
      <trkpt lat="44.12407" lon="0.46177">
        <ele>109</ele>
        <time>2022-09-15T09:56:25.898Z</time>
      </trkpt>
      <trkpt lat="44.12406" lon="0.46177">
        <ele>109</ele>
        <time>2022-09-15T09:56:26.898Z</time>
      </trkpt>
      <trkpt lat="44.12406" lon="0.46176">
        <ele>109</ele>
        <time>2022-09-15T09:56:27.898Z</time>
      </trkpt>
      <trkpt lat="44.12405" lon="0.46175">
        <ele>109</ele>
        <time>2022-09-15T09:56:28.898Z</time>
      </trkpt>
      <trkpt lat="44.12404" lon="0.46174">
        <ele>110</ele>
        <time>2022-09-15T09:56:29.898Z</time>
      </trkpt>
      <trkpt lat="44.12403" lon="0.46173">
        <ele>110</ele>
        <time>2022-09-15T09:56:30.898Z</time>
      </trkpt>
      <trkpt lat="44.12403" lon="0.46172">
        <ele>110</ele>
        <time>2022-09-15T09:56:31.898Z</time>
      </trkpt>
      <trkpt lat="44.12402" lon="0.46172">
        <ele>110</ele>
        <time>2022-09-15T09:56:32.898Z</time>
      </trkpt>
      <trkpt lat="44.12401" lon="0.46171">
        <ele>111</ele>
        <time>2022-09-15T09:56:33.898Z</time>
      </trkpt>
      <trkpt lat="44.124" lon="0.4617">
        <ele>111</ele>
        <time>2022-09-15T09:56:34.898Z</time>
      </trkpt>
      <trkpt lat="44.124" lon="0.46169">
        <ele>111</ele>
        <time>2022-09-15T09:56:35.898Z</time>
      </trkpt>
      <trkpt lat="44.12399" lon="0.46168">
        <ele>111</ele>
        <time>2022-09-15T09:56:36.898Z</time>
      </trkpt>
      <trkpt lat="44.12398" lon="0.46168">
        <ele>111</ele>
        <time>2022-09-15T09:56:37.898Z</time>
      </trkpt>
      <trkpt lat="44.12397" lon="0.46168">
        <ele>111</ele>
        <time>2022-09-15T09:56:38.898Z</time>
      </trkpt>
      <trkpt lat="44.12396" lon="0.46167">
        <ele>112</ele>
        <time>2022-09-15T09:56:39.898Z</time>
      </trkpt>
      <trkpt lat="44.12395" lon="0.46167">
        <ele>112</ele>
        <time>2022-09-15T09:56:40.898Z</time>
      </trkpt>
      <trkpt lat="44.12394" lon="0.46166">
        <ele>112</ele>
        <time>2022-09-15T09:56:41.898Z</time>
      </trkpt>
      <trkpt lat="44.12393" lon="0.46165">
        <ele>113</ele>
        <time>2022-09-15T09:56:42.898Z</time>
      </trkpt>
      <trkpt lat="44.12392" lon="0.46165">
        <ele>113</ele>
        <time>2022-09-15T09:56:43.898Z</time>
      </trkpt>
      <trkpt lat="44.12392" lon="0.46164">
        <ele>113</ele>
        <time>2022-09-15T09:56:44.898Z</time>
      </trkpt>
      <trkpt lat="44.12391" lon="0.46163">
        <ele>113</ele>
        <time>2022-09-15T09:56:45.898Z</time>
      </trkpt>
      <trkpt lat="44.1239" lon="0.46163">
        <ele>113</ele>
        <time>2022-09-15T09:56:46.898Z</time>
      </trkpt>
      <trkpt lat="44.1239" lon="0.46162">
        <ele>113</ele>
        <time>2022-09-15T09:56:47.898Z</time>
      </trkpt>
      <trkpt lat="44.12389" lon="0.46162">
        <ele>113</ele>
        <time>2022-09-15T09:56:48.898Z</time>
      </trkpt>
      <trkpt lat="44.12388" lon="0.46161">
        <ele>113</ele>
        <time>2022-09-15T09:56:49.898Z</time>
      </trkpt>
      <trkpt lat="44.12388" lon="0.4616">
        <ele>113</ele>
        <time>2022-09-15T09:56:50.898Z</time>
      </trkpt>
      <trkpt lat="44.12387" lon="0.4616">
        <ele>113</ele>
        <time>2022-09-15T09:56:51.898Z</time>
      </trkpt>
      <trkpt lat="44.12386" lon="0.46159">
        <ele>113</ele>
        <time>2022-09-15T09:56:52.898Z</time>
      </trkpt>
      <trkpt lat="44.12385" lon="0.46158">
        <ele>113</ele>
        <time>2022-09-15T09:56:53.898Z</time>
      </trkpt>
      <trkpt lat="44.12385" lon="0.46158">
        <ele>114</ele>
        <time>2022-09-15T09:56:54.898Z</time>
      </trkpt>
      <trkpt lat="44.12384" lon="0.46158">
        <ele>114</ele>
        <time>2022-09-15T09:56:55.898Z</time>
      </trkpt>
      <trkpt lat="44.12383" lon="0.46158">
        <ele>114</ele>
        <time>2022-09-15T09:56:56.898Z</time>
      </trkpt>
      <trkpt lat="44.12383" lon="0.46157">
        <ele>115</ele>
        <time>2022-09-15T09:56:57.898Z</time>
      </trkpt>
      <trkpt lat="44.12383" lon="0.46157">
        <ele>114</ele>
        <time>2022-09-15T09:56:58.898Z</time>
      </trkpt>
      <trkpt lat="44.12382" lon="0.46156">
        <ele>114</ele>
        <time>2022-09-15T09:56:59.898Z</time>
      </trkpt>
      <trkpt lat="44.12382" lon="0.46156">
        <ele>114</ele>
        <time>2022-09-15T09:57:00.898Z</time>
      </trkpt>
      <trkpt lat="44.12382" lon="0.46156">
        <ele>114</ele>
        <time>2022-09-15T09:57:01.898Z</time>
      </trkpt>
      <trkpt lat="44.12382" lon="0.46156">
        <ele>114</ele>
        <time>2022-09-15T09:57:02.898Z</time>
      </trkpt>
      <trkpt lat="44.12381" lon="0.46155">
        <ele>114</ele>
        <time>2022-09-15T09:57:03.898Z</time>
      </trkpt>
      <trkpt lat="44.12381" lon="0.46156">
        <ele>114</ele>
        <time>2022-09-15T09:57:04.898Z</time>
      </trkpt>
      <trkpt lat="44.12381" lon="0.46155">
        <ele>114</ele>
        <time>2022-09-15T09:57:05.898Z</time>
      </trkpt>
      <trkpt lat="44.12381" lon="0.46156">
        <ele>114</ele>
        <time>2022-09-15T09:57:06.898Z</time>
      </trkpt>
      <trkpt lat="44.12381" lon="0.46147">
        <ele>114</ele>
        <time>2022-09-15T09:57:51.898Z</time>
      </trkpt>
      <trkpt lat="44.12381" lon="0.46145">
        <ele>114</ele>
        <time>2022-09-15T09:57:52.898Z</time>
      </trkpt>
      <trkpt lat="44.12381" lon="0.46143">
        <ele>114</ele>
        <time>2022-09-15T09:57:53.898Z</time>
      </trkpt>
      <trkpt lat="44.12382" lon="0.46142">
        <ele>115</ele>
        <time>2022-09-15T09:57:54.898Z</time>
      </trkpt>
      <trkpt lat="44.12382" lon="0.4614">
        <ele>115</ele>
        <time>2022-09-15T09:57:55.898Z</time>
      </trkpt>
      <trkpt lat="44.12382" lon="0.46138">
        <ele>115</ele>
        <time>2022-09-15T09:57:56.898Z</time>
      </trkpt>
      <trkpt lat="44.12382" lon="0.46137">
        <ele>115</ele>
        <time>2022-09-15T09:57:57.898Z</time>
      </trkpt>
      <trkpt lat="44.12382" lon="0.46135">
        <ele>115</ele>
        <time>2022-09-15T09:57:58.898Z</time>
      </trkpt>
      <trkpt lat="44.12382" lon="0.46133">
        <ele>115</ele>
        <time>2022-09-15T09:57:59.898Z</time>
      </trkpt>
      <trkpt lat="44.12382" lon="0.46131">
        <ele>116</ele>
        <time>2022-09-15T09:58:00.898Z</time>
      </trkpt>
      <trkpt lat="44.12383" lon="0.46129">
        <ele>115</ele>
        <time>2022-09-15T09:58:01.898Z</time>
      </trkpt>
      <trkpt lat="44.12383" lon="0.46128">
        <ele>115</ele>
        <time>2022-09-15T09:58:02.898Z</time>
      </trkpt>
      <trkpt lat="44.12383" lon="0.46126">
        <ele>115</ele>
        <time>2022-09-15T09:58:03.898Z</time>
      </trkpt>
      <trkpt lat="44.12383" lon="0.46125">
        <ele>116</ele>
        <time>2022-09-15T09:58:04.898Z</time>
      </trkpt>
      <trkpt lat="44.12384" lon="0.46123">
        <ele>116</ele>
        <time>2022-09-15T09:58:05.898Z</time>
      </trkpt>
      <trkpt lat="44.12384" lon="0.46121">
        <ele>116</ele>
        <time>2022-09-15T09:58:06.898Z</time>
      </trkpt>
      <trkpt lat="44.12384" lon="0.46119">
        <ele>116</ele>
        <time>2022-09-15T09:58:07.898Z</time>
      </trkpt>
      <trkpt lat="44.12384" lon="0.46117">
        <ele>116</ele>
        <time>2022-09-15T09:58:08.898Z</time>
      </trkpt>
      <trkpt lat="44.12384" lon="0.46116">
        <ele>116</ele>
        <time>2022-09-15T09:58:09.898Z</time>
      </trkpt>
      <trkpt lat="44.12384" lon="0.46114">
        <ele>116</ele>
        <time>2022-09-15T09:58:10.898Z</time>
      </trkpt>
      <trkpt lat="44.12384" lon="0.46112">
        <ele>117</ele>
        <time>2022-09-15T09:58:11.898Z</time>
      </trkpt>
      <trkpt lat="44.12384" lon="0.46111">
        <ele>117</ele>
        <time>2022-09-15T09:58:12.898Z</time>
      </trkpt>
      <trkpt lat="44.12384" lon="0.46109">
        <ele>117</ele>
        <time>2022-09-15T09:58:13.898Z</time>
      </trkpt>
      <trkpt lat="44.12384" lon="0.46107">
        <ele>118</ele>
        <time>2022-09-15T09:58:14.898Z</time>
      </trkpt>
      <trkpt lat="44.12384" lon="0.46105">
        <ele>118</ele>
        <time>2022-09-15T09:58:15.898Z</time>
      </trkpt>
      <trkpt lat="44.12384" lon="0.46103">
        <ele>118</ele>
        <time>2022-09-15T09:58:16.898Z</time>
      </trkpt>
      <trkpt lat="44.12384" lon="0.46101">
        <ele>118</ele>
        <time>2022-09-15T09:58:17.898Z</time>
      </trkpt>
      <trkpt lat="44.12384" lon="0.46099">
        <ele>119</ele>
        <time>2022-09-15T09:58:18.898Z</time>
      </trkpt>
      <trkpt lat="44.12384" lon="0.46098">
        <ele>119</ele>
        <time>2022-09-15T09:58:19.898Z</time>
      </trkpt>
      <trkpt lat="44.12384" lon="0.46096">
        <ele>119</ele>
        <time>2022-09-15T09:58:20.898Z</time>
      </trkpt>
      <trkpt lat="44.12384" lon="0.46094">
        <ele>119</ele>
        <time>2022-09-15T09:58:21.898Z</time>
      </trkpt>
      <trkpt lat="44.12384" lon="0.46093">
        <ele>118</ele>
        <time>2022-09-15T09:58:22.898Z</time>
      </trkpt>
      <trkpt lat="44.12384" lon="0.46091">
        <ele>118</ele>
        <time>2022-09-15T09:58:23.898Z</time>
      </trkpt>
      <trkpt lat="44.12384" lon="0.4609">
        <ele>118</ele>
        <time>2022-09-15T09:58:24.898Z</time>
      </trkpt>
      <trkpt lat="44.12384" lon="0.46088">
        <ele>118</ele>
        <time>2022-09-15T09:58:25.898Z</time>
      </trkpt>
      <trkpt lat="44.12385" lon="0.46086">
        <ele>118</ele>
        <time>2022-09-15T09:58:26.898Z</time>
      </trkpt>
      <trkpt lat="44.12385" lon="0.46084">
        <ele>118</ele>
        <time>2022-09-15T09:58:27.898Z</time>
      </trkpt>
      <trkpt lat="44.12385" lon="0.46083">
        <ele>118</ele>
        <time>2022-09-15T09:58:28.898Z</time>
      </trkpt>
      <trkpt lat="44.12384" lon="0.46081">
        <ele>118</ele>
        <time>2022-09-15T09:58:29.898Z</time>
      </trkpt>
      <trkpt lat="44.12384" lon="0.4608">
        <ele>118</ele>
        <time>2022-09-15T09:58:30.898Z</time>
      </trkpt>
      <trkpt lat="44.12384" lon="0.46078">
        <ele>118</ele>
        <time>2022-09-15T09:58:31.898Z</time>
      </trkpt>
      <trkpt lat="44.12384" lon="0.46076">
        <ele>119</ele>
        <time>2022-09-15T09:58:32.898Z</time>
      </trkpt>
      <trkpt lat="44.12384" lon="0.46074">
        <ele>119</ele>
        <time>2022-09-15T09:58:33.898Z</time>
      </trkpt>
      <trkpt lat="44.12384" lon="0.46072">
        <ele>119</ele>
        <time>2022-09-15T09:58:34.898Z</time>
      </trkpt>
      <trkpt lat="44.12383" lon="0.46071">
        <ele>118</ele>
        <time>2022-09-15T09:58:35.898Z</time>
      </trkpt>
      <trkpt lat="44.12383" lon="0.46069">
        <ele>118</ele>
        <time>2022-09-15T09:58:36.898Z</time>
      </trkpt>
      <trkpt lat="44.12383" lon="0.46067">
        <ele>118</ele>
        <time>2022-09-15T09:58:37.898Z</time>
      </trkpt>
      <trkpt lat="44.12383" lon="0.46065">
        <ele>118</ele>
        <time>2022-09-15T09:58:38.898Z</time>
      </trkpt>
      <trkpt lat="44.12383" lon="0.46064">
        <ele>118</ele>
        <time>2022-09-15T09:58:39.898Z</time>
      </trkpt>
      <trkpt lat="44.12383" lon="0.46062">
        <ele>118</ele>
        <time>2022-09-15T09:58:40.898Z</time>
      </trkpt>
      <trkpt lat="44.12383" lon="0.4606">
        <ele>118</ele>
        <time>2022-09-15T09:58:41.898Z</time>
      </trkpt>
      <trkpt lat="44.12383" lon="0.46058">
        <ele>119</ele>
        <time>2022-09-15T09:58:42.898Z</time>
      </trkpt>
      <trkpt lat="44.12383" lon="0.46057">
        <ele>119</ele>
        <time>2022-09-15T09:58:43.898Z</time>
      </trkpt>
      <trkpt lat="44.12383" lon="0.46055">
        <ele>119</ele>
        <time>2022-09-15T09:58:44.898Z</time>
      </trkpt>
      <trkpt lat="44.12382" lon="0.46053">
        <ele>119</ele>
        <time>2022-09-15T09:58:45.898Z</time>
      </trkpt>
      <trkpt lat="44.12382" lon="0.46051">
        <ele>119</ele>
        <time>2022-09-15T09:58:46.898Z</time>
      </trkpt>
      <trkpt lat="44.12382" lon="0.46049">
        <ele>119</ele>
        <time>2022-09-15T09:58:47.898Z</time>
      </trkpt>
      <trkpt lat="44.12382" lon="0.46047">
        <ele>119</ele>
        <time>2022-09-15T09:58:48.898Z</time>
      </trkpt>
      <trkpt lat="44.12382" lon="0.46046">
        <ele>119</ele>
        <time>2022-09-15T09:58:49.898Z</time>
      </trkpt>
      <trkpt lat="44.12381" lon="0.46044">
        <ele>119</ele>
        <time>2022-09-15T09:58:50.898Z</time>
      </trkpt>
      <trkpt lat="44.12381" lon="0.46043">
        <ele>119</ele>
        <time>2022-09-15T09:58:51.898Z</time>
      </trkpt>
      <trkpt lat="44.12381" lon="0.46041">
        <ele>120</ele>
        <time>2022-09-15T09:58:52.898Z</time>
      </trkpt>
      <trkpt lat="44.1238" lon="0.46039">
        <ele>120</ele>
        <time>2022-09-15T09:58:53.898Z</time>
      </trkpt>
      <trkpt lat="44.1238" lon="0.46037">
        <ele>121</ele>
        <time>2022-09-15T09:58:54.898Z</time>
      </trkpt>
      <trkpt lat="44.1238" lon="0.46035">
        <ele>121</ele>
        <time>2022-09-15T09:58:55.898Z</time>
      </trkpt>
      <trkpt lat="44.12379" lon="0.46033">
        <ele>121</ele>
        <time>2022-09-15T09:58:56.898Z</time>
      </trkpt>
      <trkpt lat="44.12379" lon="0.46031">
        <ele>121</ele>
        <time>2022-09-15T09:58:57.898Z</time>
      </trkpt>
      <trkpt lat="44.12378" lon="0.4603">
        <ele>121</ele>
        <time>2022-09-15T09:58:58.898Z</time>
      </trkpt>
      <trkpt lat="44.12378" lon="0.46028">
        <ele>121</ele>
        <time>2022-09-15T09:58:59.898Z</time>
      </trkpt>
      <trkpt lat="44.12378" lon="0.46026">
        <ele>121</ele>
        <time>2022-09-15T09:59:00.898Z</time>
      </trkpt>
      <trkpt lat="44.12377" lon="0.46025">
        <ele>122</ele>
        <time>2022-09-15T09:59:01.898Z</time>
      </trkpt>
      <trkpt lat="44.12377" lon="0.46023">
        <ele>122</ele>
        <time>2022-09-15T09:59:02.898Z</time>
      </trkpt>
      <trkpt lat="44.12376" lon="0.46021">
        <ele>122</ele>
        <time>2022-09-15T09:59:03.898Z</time>
      </trkpt>
      <trkpt lat="44.12376" lon="0.4602">
        <ele>122</ele>
        <time>2022-09-15T09:59:04.898Z</time>
      </trkpt>
      <trkpt lat="44.12375" lon="0.46018">
        <ele>122</ele>
        <time>2022-09-15T09:59:05.898Z</time>
      </trkpt>
      <trkpt lat="44.12375" lon="0.46016">
        <ele>122</ele>
        <time>2022-09-15T09:59:06.898Z</time>
      </trkpt>
      <trkpt lat="44.12374" lon="0.46015">
        <ele>122</ele>
        <time>2022-09-15T09:59:07.898Z</time>
      </trkpt>
      <trkpt lat="44.12374" lon="0.46013">
        <ele>122</ele>
        <time>2022-09-15T09:59:08.898Z</time>
      </trkpt>
      <trkpt lat="44.12374" lon="0.46012">
        <ele>122</ele>
        <time>2022-09-15T09:59:09.898Z</time>
      </trkpt>
      <trkpt lat="44.12373" lon="0.4601">
        <ele>122</ele>
        <time>2022-09-15T09:59:10.898Z</time>
      </trkpt>
      <trkpt lat="44.12372" lon="0.46009">
        <ele>123</ele>
        <time>2022-09-15T09:59:11.898Z</time>
      </trkpt>
      <trkpt lat="44.12372" lon="0.46007">
        <ele>123</ele>
        <time>2022-09-15T09:59:12.898Z</time>
      </trkpt>
      <trkpt lat="44.12371" lon="0.46006">
        <ele>123</ele>
        <time>2022-09-15T09:59:13.898Z</time>
      </trkpt>
      <trkpt lat="44.1237" lon="0.46004">
        <ele>123</ele>
        <time>2022-09-15T09:59:14.898Z</time>
      </trkpt>
      <trkpt lat="44.1237" lon="0.46002">
        <ele>124</ele>
        <time>2022-09-15T09:59:15.898Z</time>
      </trkpt>
      <trkpt lat="44.12369" lon="0.46">
        <ele>124</ele>
        <time>2022-09-15T09:59:16.898Z</time>
      </trkpt>
      <trkpt lat="44.12368" lon="0.45999">
        <ele>124</ele>
        <time>2022-09-15T09:59:17.898Z</time>
      </trkpt>
      <trkpt lat="44.12368" lon="0.45997">
        <ele>124</ele>
        <time>2022-09-15T09:59:18.898Z</time>
      </trkpt>
      <trkpt lat="44.12367" lon="0.45996">
        <ele>124</ele>
        <time>2022-09-15T09:59:19.898Z</time>
      </trkpt>
      <trkpt lat="44.12366" lon="0.45994">
        <ele>124</ele>
        <time>2022-09-15T09:59:20.898Z</time>
      </trkpt>
      <trkpt lat="44.12366" lon="0.45993">
        <ele>124</ele>
        <time>2022-09-15T09:59:21.898Z</time>
      </trkpt>
      <trkpt lat="44.12365" lon="0.45992">
        <ele>125</ele>
        <time>2022-09-15T09:59:22.898Z</time>
      </trkpt>
      <trkpt lat="44.12365" lon="0.4599">
        <ele>125</ele>
        <time>2022-09-15T09:59:23.898Z</time>
      </trkpt>
      <trkpt lat="44.12364" lon="0.45989">
        <ele>125</ele>
        <time>2022-09-15T09:59:24.898Z</time>
      </trkpt>
      <trkpt lat="44.12363" lon="0.45987">
        <ele>125</ele>
        <time>2022-09-15T09:59:25.898Z</time>
      </trkpt>
      <trkpt lat="44.12362" lon="0.45985">
        <ele>126</ele>
        <time>2022-09-15T09:59:26.898Z</time>
      </trkpt>
      <trkpt lat="44.12362" lon="0.45984">
        <ele>125</ele>
        <time>2022-09-15T09:59:27.898Z</time>
      </trkpt>
      <trkpt lat="44.12361" lon="0.45983">
        <ele>125</ele>
        <time>2022-09-15T09:59:28.898Z</time>
      </trkpt>
      <trkpt lat="44.12361" lon="0.45981">
        <ele>125</ele>
        <time>2022-09-15T09:59:29.898Z</time>
      </trkpt>
      <trkpt lat="44.1236" lon="0.4598">
        <ele>125</ele>
        <time>2022-09-15T09:59:30.898Z</time>
      </trkpt>
      <trkpt lat="44.12359" lon="0.45978">
        <ele>125</ele>
        <time>2022-09-15T09:59:31.898Z</time>
      </trkpt>
      <trkpt lat="44.12358" lon="0.45976">
        <ele>126</ele>
        <time>2022-09-15T09:59:32.898Z</time>
      </trkpt>
      <trkpt lat="44.12357" lon="0.45975">
        <ele>125</ele>
        <time>2022-09-15T09:59:33.898Z</time>
      </trkpt>
      <trkpt lat="44.12357" lon="0.45973">
        <ele>125</ele>
        <time>2022-09-15T09:59:34.898Z</time>
      </trkpt>
      <trkpt lat="44.12356" lon="0.45971">
        <ele>125</ele>
        <time>2022-09-15T09:59:35.898Z</time>
      </trkpt>
      <trkpt lat="44.12355" lon="0.4597">
        <ele>125</ele>
        <time>2022-09-15T09:59:36.898Z</time>
      </trkpt>
      <trkpt lat="44.12355" lon="0.45969">
        <ele>125</ele>
        <time>2022-09-15T09:59:37.898Z</time>
      </trkpt>
      <trkpt lat="44.12354" lon="0.45967">
        <ele>125</ele>
        <time>2022-09-15T09:59:38.898Z</time>
      </trkpt>
      <trkpt lat="44.12353" lon="0.45966">
        <ele>125</ele>
        <time>2022-09-15T09:59:39.898Z</time>
      </trkpt>
      <trkpt lat="44.12353" lon="0.45965">
        <ele>126</ele>
        <time>2022-09-15T09:59:40.898Z</time>
      </trkpt>
      <trkpt lat="44.12352" lon="0.45963">
        <ele>126</ele>
        <time>2022-09-15T09:59:41.898Z</time>
      </trkpt>
      <trkpt lat="44.12351" lon="0.45962">
        <ele>126</ele>
        <time>2022-09-15T09:59:42.898Z</time>
      </trkpt>
      <trkpt lat="44.1235" lon="0.45961">
        <ele>126</ele>
        <time>2022-09-15T09:59:43.898Z</time>
      </trkpt>
      <trkpt lat="44.1235" lon="0.45959">
        <ele>126</ele>
        <time>2022-09-15T09:59:44.898Z</time>
      </trkpt>
      <trkpt lat="44.12349" lon="0.45958">
        <ele>126</ele>
        <time>2022-09-15T09:59:45.898Z</time>
      </trkpt>
      <trkpt lat="44.12348" lon="0.45956">
        <ele>126</ele>
        <time>2022-09-15T09:59:46.898Z</time>
      </trkpt>
      <trkpt lat="44.12347" lon="0.45955">
        <ele>126</ele>
        <time>2022-09-15T09:59:47.898Z</time>
      </trkpt>
      <trkpt lat="44.12346" lon="0.45954">
        <ele>126</ele>
        <time>2022-09-15T09:59:48.898Z</time>
      </trkpt>
      <trkpt lat="44.12345" lon="0.45953">
        <ele>126</ele>
        <time>2022-09-15T09:59:49.898Z</time>
      </trkpt>
      <trkpt lat="44.12345" lon="0.45951">
        <ele>127</ele>
        <time>2022-09-15T09:59:50.898Z</time>
      </trkpt>
      <trkpt lat="44.12344" lon="0.4595">
        <ele>126</ele>
        <time>2022-09-15T09:59:51.898Z</time>
      </trkpt>
      <trkpt lat="44.12343" lon="0.45948">
        <ele>126</ele>
        <time>2022-09-15T09:59:52.898Z</time>
      </trkpt>
      <trkpt lat="44.12342" lon="0.45947">
        <ele>127</ele>
        <time>2022-09-15T09:59:53.898Z</time>
      </trkpt>
      <trkpt lat="44.12341" lon="0.45946">
        <ele>126</ele>
        <time>2022-09-15T09:59:54.898Z</time>
      </trkpt>
      <trkpt lat="44.1234" lon="0.45944">
        <ele>127</ele>
        <time>2022-09-15T09:59:55.898Z</time>
      </trkpt>
      <trkpt lat="44.1234" lon="0.45943">
        <ele>127</ele>
        <time>2022-09-15T09:59:56.898Z</time>
      </trkpt>
      <trkpt lat="44.12339" lon="0.45941">
        <ele>127</ele>
        <time>2022-09-15T09:59:57.898Z</time>
      </trkpt>
      <trkpt lat="44.12338" lon="0.4594">
        <ele>127</ele>
        <time>2022-09-15T09:59:58.898Z</time>
      </trkpt>
      <trkpt lat="44.12337" lon="0.45939">
        <ele>127</ele>
        <time>2022-09-15T09:59:59.898Z</time>
      </trkpt>
      <trkpt lat="44.12337" lon="0.45938">
        <ele>127</ele>
        <time>2022-09-15T10:00:00.898Z</time>
      </trkpt>
      <trkpt lat="44.12336" lon="0.45936">
        <ele>127</ele>
        <time>2022-09-15T10:00:01.898Z</time>
      </trkpt>
      <trkpt lat="44.12335" lon="0.45935">
        <ele>128</ele>
        <time>2022-09-15T10:00:02.898Z</time>
      </trkpt>
      <trkpt lat="44.12334" lon="0.45933">
        <ele>128</ele>
        <time>2022-09-15T10:00:03.898Z</time>
      </trkpt>
      <trkpt lat="44.12333" lon="0.45932">
        <ele>128</ele>
        <time>2022-09-15T10:00:04.898Z</time>
      </trkpt>
      <trkpt lat="44.12333" lon="0.45931">
        <ele>128</ele>
        <time>2022-09-15T10:00:05.898Z</time>
      </trkpt>
      <trkpt lat="44.12332" lon="0.4593">
        <ele>128</ele>
        <time>2022-09-15T10:00:06.898Z</time>
      </trkpt>
      <trkpt lat="44.12331" lon="0.45929">
        <ele>128</ele>
        <time>2022-09-15T10:00:07.898Z</time>
      </trkpt>
      <trkpt lat="44.12331" lon="0.45928">
        <ele>128</ele>
        <time>2022-09-15T10:00:08.898Z</time>
      </trkpt>
      <trkpt lat="44.1233" lon="0.45926">
        <ele>128</ele>
        <time>2022-09-15T10:00:09.898Z</time>
      </trkpt>
      <trkpt lat="44.12329" lon="0.45925">
        <ele>127</ele>
        <time>2022-09-15T10:00:10.898Z</time>
      </trkpt>
      <trkpt lat="44.12329" lon="0.45924">
        <ele>127</ele>
        <time>2022-09-15T10:00:11.898Z</time>
      </trkpt>
      <trkpt lat="44.12328" lon="0.45923">
        <ele>127</ele>
        <time>2022-09-15T10:00:12.898Z</time>
      </trkpt>
      <trkpt lat="44.12327" lon="0.45922">
        <ele>126</ele>
        <time>2022-09-15T10:00:13.898Z</time>
      </trkpt>
      <trkpt lat="44.12326" lon="0.45921">
        <ele>126</ele>
        <time>2022-09-15T10:00:14.898Z</time>
      </trkpt>
      <trkpt lat="44.12326" lon="0.4592">
        <ele>126</ele>
        <time>2022-09-15T10:00:15.898Z</time>
      </trkpt>
      <trkpt lat="44.12325" lon="0.45919">
        <ele>126</ele>
        <time>2022-09-15T10:00:16.898Z</time>
      </trkpt>
      <trkpt lat="44.12324" lon="0.45918">
        <ele>126</ele>
        <time>2022-09-15T10:00:17.898Z</time>
      </trkpt>
      <trkpt lat="44.12324" lon="0.45916">
        <ele>127</ele>
        <time>2022-09-15T10:00:18.898Z</time>
      </trkpt>
      <trkpt lat="44.12323" lon="0.45915">
        <ele>127</ele>
        <time>2022-09-15T10:00:19.898Z</time>
      </trkpt>
      <trkpt lat="44.12322" lon="0.45914">
        <ele>127</ele>
        <time>2022-09-15T10:00:20.898Z</time>
      </trkpt>
      <trkpt lat="44.1232" lon="0.45913">
        <ele>127</ele>
        <time>2022-09-15T10:00:21.898Z</time>
      </trkpt>
      <trkpt lat="44.12319" lon="0.45913">
        <ele>127</ele>
        <time>2022-09-15T10:00:22.898Z</time>
      </trkpt>
      <trkpt lat="44.12318" lon="0.45912">
        <ele>127</ele>
        <time>2022-09-15T10:00:23.898Z</time>
      </trkpt>
      <trkpt lat="44.12317" lon="0.45911">
        <ele>127</ele>
        <time>2022-09-15T10:00:24.898Z</time>
      </trkpt>
      <trkpt lat="44.12316" lon="0.45911">
        <ele>127</ele>
        <time>2022-09-15T10:00:25.898Z</time>
      </trkpt>
      <trkpt lat="44.12315" lon="0.4591">
        <ele>127</ele>
        <time>2022-09-15T10:00:26.898Z</time>
      </trkpt>
      <trkpt lat="44.12315" lon="0.45909">
        <ele>126</ele>
        <time>2022-09-15T10:00:27.898Z</time>
      </trkpt>
      <trkpt lat="44.12314" lon="0.45909">
        <ele>126</ele>
        <time>2022-09-15T10:00:28.898Z</time>
      </trkpt>
      <trkpt lat="44.12313" lon="0.45908">
        <ele>126</ele>
        <time>2022-09-15T10:00:29.898Z</time>
      </trkpt>
      <trkpt lat="44.12312" lon="0.45907">
        <ele>126</ele>
        <time>2022-09-15T10:00:30.898Z</time>
      </trkpt>
      <trkpt lat="44.12311" lon="0.45907">
        <ele>126</ele>
        <time>2022-09-15T10:00:31.898Z</time>
      </trkpt>
      <trkpt lat="44.1231" lon="0.45906">
        <ele>126</ele>
        <time>2022-09-15T10:00:32.898Z</time>
      </trkpt>
      <trkpt lat="44.12309" lon="0.45906">
        <ele>126</ele>
        <time>2022-09-15T10:00:33.898Z</time>
      </trkpt>
      <trkpt lat="44.12308" lon="0.45905">
        <ele>126</ele>
        <time>2022-09-15T10:00:34.898Z</time>
      </trkpt>
      <trkpt lat="44.12307" lon="0.45905">
        <ele>126</ele>
        <time>2022-09-15T10:00:35.898Z</time>
      </trkpt>
      <trkpt lat="44.12306" lon="0.45904">
        <ele>126</ele>
        <time>2022-09-15T10:00:36.898Z</time>
      </trkpt>
      <trkpt lat="44.12305" lon="0.45904">
        <ele>126</ele>
        <time>2022-09-15T10:00:37.898Z</time>
      </trkpt>
      <trkpt lat="44.12304" lon="0.45904">
        <ele>127</ele>
        <time>2022-09-15T10:00:38.898Z</time>
      </trkpt>
      <trkpt lat="44.12302" lon="0.45904">
        <ele>127</ele>
        <time>2022-09-15T10:00:39.898Z</time>
      </trkpt>
      <trkpt lat="44.12301" lon="0.45903">
        <ele>127</ele>
        <time>2022-09-15T10:00:40.898Z</time>
      </trkpt>
      <trkpt lat="44.123" lon="0.45903">
        <ele>127</ele>
        <time>2022-09-15T10:00:41.898Z</time>
      </trkpt>
      <trkpt lat="44.12299" lon="0.45902">
        <ele>127</ele>
        <time>2022-09-15T10:00:42.898Z</time>
      </trkpt>
      <trkpt lat="44.12298" lon="0.45901">
        <ele>127</ele>
        <time>2022-09-15T10:00:43.898Z</time>
      </trkpt>
      <trkpt lat="44.12297" lon="0.45901">
        <ele>127</ele>
        <time>2022-09-15T10:00:44.898Z</time>
      </trkpt>
      <trkpt lat="44.12296" lon="0.45901">
        <ele>128</ele>
        <time>2022-09-15T10:00:45.898Z</time>
      </trkpt>
      <trkpt lat="44.12295" lon="0.459">
        <ele>128</ele>
        <time>2022-09-15T10:00:46.898Z</time>
      </trkpt>
      <trkpt lat="44.12293" lon="0.459">
        <ele>128</ele>
        <time>2022-09-15T10:00:47.898Z</time>
      </trkpt>
      <trkpt lat="44.12292" lon="0.459">
        <ele>128</ele>
        <time>2022-09-15T10:00:48.898Z</time>
      </trkpt>
      <trkpt lat="44.12291" lon="0.459">
        <ele>128</ele>
        <time>2022-09-15T10:00:49.898Z</time>
      </trkpt>
      <trkpt lat="44.1229" lon="0.459">
        <ele>128</ele>
        <time>2022-09-15T10:00:50.898Z</time>
      </trkpt>
      <trkpt lat="44.12289" lon="0.459">
        <ele>128</ele>
        <time>2022-09-15T10:00:51.898Z</time>
      </trkpt>
      <trkpt lat="44.12288" lon="0.459">
        <ele>128</ele>
        <time>2022-09-15T10:00:52.898Z</time>
      </trkpt>
      <trkpt lat="44.12287" lon="0.459">
        <ele>128</ele>
        <time>2022-09-15T10:00:53.898Z</time>
      </trkpt>
      <trkpt lat="44.12285" lon="0.459">
        <ele>128</ele>
        <time>2022-09-15T10:00:54.898Z</time>
      </trkpt>
      <trkpt lat="44.12284" lon="0.459">
        <ele>128</ele>
        <time>2022-09-15T10:00:55.898Z</time>
      </trkpt>
      <trkpt lat="44.12283" lon="0.459">
        <ele>128</ele>
        <time>2022-09-15T10:00:56.898Z</time>
      </trkpt>
      <trkpt lat="44.12282" lon="0.459">
        <ele>128</ele>
        <time>2022-09-15T10:00:57.898Z</time>
      </trkpt>
      <trkpt lat="44.1228" lon="0.459">
        <ele>128</ele>
        <time>2022-09-15T10:00:58.898Z</time>
      </trkpt>
      <trkpt lat="44.12279" lon="0.45901">
        <ele>128</ele>
        <time>2022-09-15T10:00:59.898Z</time>
      </trkpt>
      <trkpt lat="44.12278" lon="0.45901">
        <ele>128</ele>
        <time>2022-09-15T10:01:00.898Z</time>
      </trkpt>
      <trkpt lat="44.12277" lon="0.459">
        <ele>127</ele>
        <time>2022-09-15T10:01:01.898Z</time>
      </trkpt>
      <trkpt lat="44.12276" lon="0.459">
        <ele>127</ele>
        <time>2022-09-15T10:01:02.898Z</time>
      </trkpt>
      <trkpt lat="44.12275" lon="0.459">
        <ele>127</ele>
        <time>2022-09-15T10:01:03.898Z</time>
      </trkpt>
      <trkpt lat="44.12274" lon="0.45899">
        <ele>127</ele>
        <time>2022-09-15T10:01:04.898Z</time>
      </trkpt>
      <trkpt lat="44.12272" lon="0.45898">
        <ele>128</ele>
        <time>2022-09-15T10:01:05.898Z</time>
      </trkpt>
      <trkpt lat="44.12271" lon="0.45897">
        <ele>128</ele>
        <time>2022-09-15T10:01:06.898Z</time>
      </trkpt>
      <trkpt lat="44.1227" lon="0.45896">
        <ele>128</ele>
        <time>2022-09-15T10:01:07.898Z</time>
      </trkpt>
      <trkpt lat="44.1227" lon="0.45896">
        <ele>128</ele>
        <time>2022-09-15T10:01:08.898Z</time>
      </trkpt>
      <trkpt lat="44.12269" lon="0.45895">
        <ele>127</ele>
        <time>2022-09-15T10:01:09.898Z</time>
      </trkpt>
      <trkpt lat="44.12269" lon="0.45896">
        <ele>126</ele>
        <time>2022-09-15T10:01:10.898Z</time>
      </trkpt>
      <trkpt lat="44.12268" lon="0.45896">
        <ele>126</ele>
        <time>2022-09-15T10:01:11.898Z</time>
      </trkpt>
      <trkpt lat="44.12268" lon="0.45897">
        <ele>126</ele>
        <time>2022-09-15T10:01:12.898Z</time>
      </trkpt>
      <trkpt lat="44.12267" lon="0.45898">
        <ele>126</ele>
        <time>2022-09-15T10:01:13.898Z</time>
      </trkpt>
      <trkpt lat="44.12266" lon="0.45898">
        <ele>127</ele>
        <time>2022-09-15T10:01:14.898Z</time>
      </trkpt>
      <trkpt lat="44.12265" lon="0.45898">
        <ele>127</ele>
        <time>2022-09-15T10:01:15.898Z</time>
      </trkpt>
      <trkpt lat="44.12265" lon="0.45898">
        <ele>127</ele>
        <time>2022-09-15T10:01:16.898Z</time>
      </trkpt>
      <trkpt lat="44.12265" lon="0.45897">
        <ele>127</ele>
        <time>2022-09-15T10:01:17.898Z</time>
      </trkpt>
      <trkpt lat="44.12265" lon="0.45897">
        <ele>128</ele>
        <time>2022-09-15T10:01:18.898Z</time>
      </trkpt>
      <trkpt lat="44.12265" lon="0.45897">
        <ele>128</ele>
        <time>2022-09-15T10:01:19.898Z</time>
      </trkpt>
      <trkpt lat="44.12265" lon="0.45896">
        <ele>128</ele>
        <time>2022-09-15T10:01:20.898Z</time>
      </trkpt>
      <trkpt lat="44.12265" lon="0.45896">
        <ele>128</ele>
        <time>2022-09-15T10:01:21.898Z</time>
      </trkpt>
      <trkpt lat="44.12265" lon="0.45895">
        <ele>128</ele>
        <time>2022-09-15T10:01:22.898Z</time>
      </trkpt>
      <trkpt lat="44.12265" lon="0.45894">
        <ele>127</ele>
        <time>2022-09-15T10:01:23.898Z</time>
      </trkpt>
      <trkpt lat="44.12266" lon="0.45893">
        <ele>127</ele>
        <time>2022-09-15T10:01:24.898Z</time>
      </trkpt>
      <trkpt lat="44.12266" lon="0.45892">
        <ele>127</ele>
        <time>2022-09-15T10:01:25.898Z</time>
      </trkpt>
      <trkpt lat="44.12265" lon="0.4589">
        <ele>127</ele>
        <time>2022-09-15T10:01:26.898Z</time>
      </trkpt>
      <trkpt lat="44.12265" lon="0.45888">
        <ele>128</ele>
        <time>2022-09-15T10:01:27.898Z</time>
      </trkpt>
      <trkpt lat="44.12265" lon="0.45887">
        <ele>128</ele>
        <time>2022-09-15T10:01:28.898Z</time>
      </trkpt>
      <trkpt lat="44.12264" lon="0.45885">
        <ele>128</ele>
        <time>2022-09-15T10:01:29.898Z</time>
      </trkpt>
      <trkpt lat="44.12263" lon="0.45884">
        <ele>128</ele>
        <time>2022-09-15T10:01:30.898Z</time>
      </trkpt>
      <trkpt lat="44.12263" lon="0.45883">
        <ele>128</ele>
        <time>2022-09-15T10:01:31.898Z</time>
      </trkpt>
      <trkpt lat="44.12262" lon="0.45882">
        <ele>128</ele>
        <time>2022-09-15T10:01:32.898Z</time>
      </trkpt>
      <trkpt lat="44.12261" lon="0.45881">
        <ele>128</ele>
        <time>2022-09-15T10:01:33.898Z</time>
      </trkpt>
      <trkpt lat="44.1226" lon="0.45881">
        <ele>128</ele>
        <time>2022-09-15T10:01:34.898Z</time>
      </trkpt>
      <trkpt lat="44.12259" lon="0.4588">
        <ele>128</ele>
        <time>2022-09-15T10:01:35.898Z</time>
      </trkpt>
      <trkpt lat="44.12258" lon="0.4588">
        <ele>129</ele>
        <time>2022-09-15T10:01:36.898Z</time>
      </trkpt>
      <trkpt lat="44.12257" lon="0.45879">
        <ele>129</ele>
        <time>2022-09-15T10:01:37.898Z</time>
      </trkpt>
      <trkpt lat="44.12256" lon="0.45879">
        <ele>129</ele>
        <time>2022-09-15T10:01:38.898Z</time>
      </trkpt>
      <trkpt lat="44.12255" lon="0.45878">
        <ele>128</ele>
        <time>2022-09-15T10:01:39.898Z</time>
      </trkpt>
      <trkpt lat="44.12254" lon="0.45877">
        <ele>129</ele>
        <time>2022-09-15T10:01:40.898Z</time>
      </trkpt>
      <trkpt lat="44.12253" lon="0.45876">
        <ele>128</ele>
        <time>2022-09-15T10:01:41.898Z</time>
      </trkpt>
      <trkpt lat="44.12252" lon="0.45876">
        <ele>128</ele>
        <time>2022-09-15T10:01:42.898Z</time>
      </trkpt>
      <trkpt lat="44.12251" lon="0.45875">
        <ele>127</ele>
        <time>2022-09-15T10:01:43.898Z</time>
      </trkpt>
      <trkpt lat="44.1225" lon="0.45875">
        <ele>127</ele>
        <time>2022-09-15T10:01:44.898Z</time>
      </trkpt>
      <trkpt lat="44.12248" lon="0.45874">
        <ele>126</ele>
        <time>2022-09-15T10:01:45.898Z</time>
      </trkpt>
      <trkpt lat="44.12247" lon="0.45873">
        <ele>126</ele>
        <time>2022-09-15T10:01:46.898Z</time>
      </trkpt>
      <trkpt lat="44.12246" lon="0.45873">
        <ele>126</ele>
        <time>2022-09-15T10:01:47.898Z</time>
      </trkpt>
      <trkpt lat="44.12245" lon="0.45872">
        <ele>126</ele>
        <time>2022-09-15T10:01:48.898Z</time>
      </trkpt>
      <trkpt lat="44.12244" lon="0.45871">
        <ele>126</ele>
        <time>2022-09-15T10:01:49.898Z</time>
      </trkpt>
      <trkpt lat="44.12243" lon="0.4587">
        <ele>125</ele>
        <time>2022-09-15T10:01:50.898Z</time>
      </trkpt>
      <trkpt lat="44.12242" lon="0.4587">
        <ele>125</ele>
        <time>2022-09-15T10:01:51.898Z</time>
      </trkpt>
      <trkpt lat="44.12241" lon="0.45869">
        <ele>125</ele>
        <time>2022-09-15T10:01:52.898Z</time>
      </trkpt>
      <trkpt lat="44.1224" lon="0.45869">
        <ele>125</ele>
        <time>2022-09-15T10:01:53.898Z</time>
      </trkpt>
      <trkpt lat="44.12239" lon="0.45868">
        <ele>124</ele>
        <time>2022-09-15T10:01:54.898Z</time>
      </trkpt>
      <trkpt lat="44.12238" lon="0.45868">
        <ele>124</ele>
        <time>2022-09-15T10:01:55.898Z</time>
      </trkpt>
      <trkpt lat="44.12238" lon="0.45867">
        <ele>124</ele>
        <time>2022-09-15T10:01:56.898Z</time>
      </trkpt>
      <trkpt lat="44.12237" lon="0.45867">
        <ele>124</ele>
        <time>2022-09-15T10:01:57.898Z</time>
      </trkpt>
      <trkpt lat="44.12237" lon="0.45866">
        <ele>124</ele>
        <time>2022-09-15T10:01:58.898Z</time>
      </trkpt>
      <trkpt lat="44.12237" lon="0.45867">
        <ele>124</ele>
        <time>2022-09-15T10:01:59.898Z</time>
      </trkpt>
      <trkpt lat="44.12237" lon="0.45867">
        <ele>124</ele>
        <time>2022-09-15T10:02:00.898Z</time>
      </trkpt>
      <trkpt lat="44.12236" lon="0.45867">
        <ele>124</ele>
        <time>2022-09-15T10:02:01.898Z</time>
      </trkpt>
    </trkseg>
  </trk>
</gpx>